<?xml version='1.0' encoding='UTF-8'?><gpx version="1.1" creator="JPX - https://github.com/jenetics/jpx" xmlns="http://www.topografix.com/GPX/1/1"><trk><trkseg><trkpt lat="38.860772302890524" lon="-9.291516667132617"><ele>175.0</ele><time>2026-03-29T08:59:11Z</time></trkpt><trkpt lat="38.86068338337952" lon="-9.291518808996413"><ele>175.0</ele><time>2026-03-29T08:59:13Z</time></trkpt><trkpt lat="38.86056389442722" lon="-9.291528027483523"><ele>175.0</ele><time>2026-03-29T08:59:14Z</time></trkpt><trkpt lat="38.86033922176392" lon="-9.291547060866126"><ele>175.0</ele><time>2026-03-29T08:59:15Z</time></trkpt><trkpt lat="38.86015641181711" lon="-9.291564525262736"><ele>174.66666666666669</ele><time>2026-03-29T08:59:16Z</time></trkpt><trkpt lat="38.85995865859187" lon="-9.291563049170426"><ele>174.33333333333334</ele><time>2026-03-29T08:59:17Z</time></trkpt><trkpt lat="38.859759284770774" lon="-9.29159613354093"><ele>174.0</ele><time>2026-03-29T08:59:18Z</time></trkpt><trkpt lat="38.859549538817895" lon="-9.291635794826176"><ele>174.0</ele><time>2026-03-29T08:59:19Z</time></trkpt><trkpt lat="38.859334415733436" lon="-9.29167153275706"><ele>174.0</ele><time>2026-03-29T08:59:20Z</time></trkpt><trkpt lat="38.85911109846287" lon="-9.291710556714182"><ele>174.0</ele><time>2026-03-29T08:59:21Z</time></trkpt><trkpt lat="38.85888701134683" lon="-9.291759629202879"><ele>174.0</ele><time>2026-03-29T08:59:22Z</time></trkpt><trkpt lat="38.858701288610604" lon="-9.291806726895844"><ele>174.0</ele><time>2026-03-29T08:59:23Z</time></trkpt><trkpt lat="38.85853708213264" lon="-9.291854129248266"><ele>174.0</ele><time>2026-03-29T08:59:24Z</time></trkpt><trkpt lat="38.858385589053476" lon="-9.291901485257265"><ele>174.0</ele><time>2026-03-29T08:59:25Z</time></trkpt><trkpt lat="38.85824473004232" lon="-9.291939612232234"><ele>174.0</ele><time>2026-03-29T08:59:26Z</time></trkpt><trkpt lat="38.85810851257757" lon="-9.291979810591727"><ele>174.0</ele><time>2026-03-29T08:59:27Z</time></trkpt><trkpt lat="38.8579795060474" lon="-9.29201787496473"><ele>174.0</ele><time>2026-03-29T08:59:28Z</time></trkpt><trkpt lat="38.85786455440487" lon="-9.29205060668859"><ele>174.0</ele><time>2026-03-29T08:59:29Z</time></trkpt><trkpt lat="38.85775506137789" lon="-9.292077863835882"><ele>174.0</ele><time>2026-03-29T08:59:30Z</time></trkpt><trkpt lat="38.857653130499706" lon="-9.292107060008682"><ele>174.0</ele><time>2026-03-29T08:59:31Z</time></trkpt><trkpt lat="38.85756000199364" lon="-9.292135904747783"><ele>174.0</ele><time>2026-03-29T08:59:32Z</time></trkpt><trkpt lat="38.857480290553575" lon="-9.292155115098009"><ele>174.0</ele><time>2026-03-29T08:59:33Z</time></trkpt><trkpt lat="38.85741799016343" lon="-9.29217714413644"><ele>174.0</ele><time>2026-03-29T08:59:34Z</time></trkpt><trkpt lat="38.857324224320244" lon="-9.292200241014141"><ele>174.0</ele><time>2026-03-29T08:59:36Z</time></trkpt><trkpt lat="38.857301119918965" lon="-9.292297949831054"><ele>174.0</ele><time>2026-03-29T08:59:54Z</time></trkpt><trkpt lat="38.85731964463731" lon="-9.292388905028943"><ele>174.0</ele><time>2026-03-29T08:59:58.999Z</time></trkpt><trkpt lat="38.85736449564343" lon="-9.29250291271891"><ele>174.0</ele><time>2026-03-29T09:00:00.999Z</time></trkpt><trkpt lat="38.8574317280299" lon="-9.292536176493789"><ele>174.0</ele><time>2026-03-29T09:00:01.999Z</time></trkpt><trkpt lat="38.85751654625717" lon="-9.292504607554697"><ele>174.75</ele><time>2026-03-29T09:00:02.999Z</time></trkpt><trkpt lat="38.85763236780263" lon="-9.292453458860527"><ele>175.5</ele><time>2026-03-29T09:00:03.999Z</time></trkpt><trkpt lat="38.857764686184865" lon="-9.29241098889147"><ele>176.25</ele><time>2026-03-29T09:00:04.999Z</time></trkpt><trkpt lat="38.85792789457954" lon="-9.292360118571745"><ele>177.0</ele><time>2026-03-29T09:00:05.999Z</time></trkpt><trkpt lat="38.8581054006592" lon="-9.292303051075853"><ele>176.0</ele><time>2026-03-29T09:00:06.999Z</time></trkpt><trkpt lat="38.85827769905338" lon="-9.292245754579094"><ele>175.0</ele><time>2026-03-29T09:00:07.999Z</time></trkpt><trkpt lat="38.85847153883782" lon="-9.292189983908452"><ele>174.0</ele><time>2026-03-29T09:00:08.999Z</time></trkpt><trkpt lat="38.858674695280314" lon="-9.29213028083084"><ele>174.0</ele><time>2026-03-29T09:00:09.999Z</time></trkpt><trkpt lat="38.85888146332384" lon="-9.292068912846581"><ele>174.0</ele><time>2026-03-29T09:00:10.999Z</time></trkpt><trkpt lat="38.85909658296866" lon="-9.292002589819516"><ele>174.0</ele><time>2026-03-29T09:00:11.999Z</time></trkpt><trkpt lat="38.85932005152871" lon="-9.291947007001196"><ele>174.0</ele><time>2026-03-29T09:00:12.999Z</time></trkpt><trkpt lat="38.85955100846922" lon="-9.291900577589125"><ele>174.0</ele><time>2026-03-29T09:00:13.999Z</time></trkpt><trkpt lat="38.859774154881784" lon="-9.291863888185766"><ele>174.0</ele><time>2026-03-29T09:00:14.999Z</time></trkpt><trkpt lat="38.85999892354397" lon="-9.291841966000835"><ele>174.0</ele><time>2026-03-29T09:00:15.999Z</time></trkpt><trkpt lat="38.86019738113041" lon="-9.291828465932326"><ele>174.0</ele><time>2026-03-29T09:00:16.999Z</time></trkpt><trkpt lat="38.86037196669172" lon="-9.291834545120869"><ele>174.25</ele><time>2026-03-29T09:00:17.999Z</time></trkpt><trkpt lat="38.860518275930055" lon="-9.291832469249881"><ele>174.5</ele><time>2026-03-29T09:00:18.999Z</time></trkpt><trkpt lat="38.86064694264764" lon="-9.29183756667604"><ele>174.75</ele><time>2026-03-29T09:00:19.999Z</time></trkpt><trkpt lat="38.860746634849434" lon="-9.291844806266525"><ele>175.0</ele><time>2026-03-29T09:00:20.999Z</time></trkpt><trkpt lat="38.86083060779033" lon="-9.291843498681487"><ele>175.0</ele><time>2026-03-29T09:00:21.999Z</time></trkpt><trkpt lat="38.8608952362216" lon="-9.291879012345705"><ele>175.0</ele><time>2026-03-29T09:00:22.999Z</time></trkpt><trkpt lat="38.86094928059224" lon="-9.291952229068222"><ele>175.0</ele><time>2026-03-29T09:00:23.999Z</time></trkpt><trkpt lat="38.861000976171816" lon="-9.292065089352244"><ele>175.0</ele><time>2026-03-29T09:00:24.999Z</time></trkpt><trkpt lat="38.861064047286426" lon="-9.29221747166456"><ele>175.0</ele><time>2026-03-29T09:00:25.999Z</time></trkpt><trkpt lat="38.86112305997189" lon="-9.292332127430305"><ele>175.0</ele><time>2026-03-29T09:00:26.999Z</time></trkpt><trkpt lat="38.86116194758237" lon="-9.29243085407762"><ele>175.0</ele><time>2026-03-29T09:00:27.999Z</time></trkpt><trkpt lat="38.86118993423765" lon="-9.292507807208072"><ele>175.0</ele><time>2026-03-29T09:00:28.999Z</time></trkpt><trkpt lat="38.861221470435126" lon="-9.29260964130972"><ele>175.0</ele><time>2026-03-29T09:00:29.999Z</time></trkpt><trkpt lat="38.86127728532683" lon="-9.29276271756508"><ele>175.0</ele><time>2026-03-29T09:00:30.999Z</time></trkpt><trkpt lat="38.86137444913292" lon="-9.29292911082726"><ele>175.0</ele><time>2026-03-29T09:00:31.999Z</time></trkpt><trkpt lat="38.86147681380709" lon="-9.293080773749319"><ele>175.0</ele><time>2026-03-29T09:00:32.999Z</time></trkpt><trkpt lat="38.8615262860728" lon="-9.293201030057196"><ele>175.0</ele><time>2026-03-29T09:00:33.999Z</time></trkpt><trkpt lat="38.86154015961433" lon="-9.293336220222335"><ele>175.0</ele><time>2026-03-29T09:00:34.999Z</time></trkpt><trkpt lat="38.86154118692351" lon="-9.293499293929779"><ele>176.0</ele><time>2026-03-29T09:00:35.999Z</time></trkpt><trkpt lat="38.86156234213543" lon="-9.29367446312186"><ele>177.0</ele><time>2026-03-29T09:00:36.999Z</time></trkpt><trkpt lat="38.86161838861359" lon="-9.293831115915168"><ele>178.0</ele><time>2026-03-29T09:00:37.999Z</time></trkpt><trkpt lat="38.86168431132873" lon="-9.293982041355578"><ele>179.0</ele><time>2026-03-29T09:00:38.999Z</time></trkpt><trkpt lat="38.86174351903174" lon="-9.29408386198929"><ele>181.39999999999998</ele><time>2026-03-29T09:00:39.999Z</time></trkpt><trkpt lat="38.861795134234626" lon="-9.294133315662652"><ele>183.8</ele><time>2026-03-29T09:00:40.999Z</time></trkpt><trkpt lat="38.861687366633944" lon="-9.294125697178803"><ele>186.2</ele><time>2026-03-29T09:00:45.999Z</time></trkpt><trkpt lat="38.861548461169924" lon="-9.294150184854157"><ele>188.60000000000002</ele><time>2026-03-29T09:00:47.999Z</time></trkpt><trkpt lat="38.8614643284568" lon="-9.294197349950363"><ele>191.0</ele><time>2026-03-29T09:00:48.999Z</time></trkpt><trkpt lat="38.86137558673124" lon="-9.294240671697171"><ele>191.0</ele><time>2026-03-29T09:00:49.999Z</time></trkpt><trkpt lat="38.861301240073914" lon="-9.294312307622398"><ele>191.0</ele><time>2026-03-29T09:00:50.999Z</time></trkpt><trkpt lat="38.86120992131385" lon="-9.294380805663996"><ele>191.0</ele><time>2026-03-29T09:00:52Z</time></trkpt><trkpt lat="38.86115644022467" lon="-9.294560172896468"><ele>191.0</ele><time>2026-03-29T09:00:53Z</time></trkpt><trkpt lat="38.8610539628838" lon="-9.294630572472279"><ele>191.0</ele><time>2026-03-29T09:00:54Z</time></trkpt><trkpt lat="38.86096758460735" lon="-9.29468007607865"><ele>191.0</ele><time>2026-03-29T09:00:55Z</time></trkpt><trkpt lat="38.86086141294542" lon="-9.294710479417382"><ele>191.0</ele><time>2026-03-29T09:00:56Z</time></trkpt><trkpt lat="38.86075778093061" lon="-9.294740867756909"><ele>191.0</ele><time>2026-03-29T09:00:57Z</time></trkpt><trkpt lat="38.86067213097353" lon="-9.294848766620586"><ele>191.0</ele><time>2026-03-29T09:00:58Z</time></trkpt><trkpt lat="38.86056827261502" lon="-9.294921671362134"><ele>192.25</ele><time>2026-03-29T09:00:59Z</time></trkpt><trkpt lat="38.860451238862325" lon="-9.294999981701455"><ele>193.5</ele><time>2026-03-29T09:01:00Z</time></trkpt><trkpt lat="38.86034566207049" lon="-9.295069771642162"><ele>194.75</ele><time>2026-03-29T09:01:01Z</time></trkpt><trkpt lat="38.86024640080274" lon="-9.2951356508888"><ele>196.0</ele><time>2026-03-29T09:01:02Z</time></trkpt><trkpt lat="38.860144988419854" lon="-9.295181747337622"><ele>195.0</ele><time>2026-03-29T09:01:03Z</time></trkpt><trkpt lat="38.86005463937755" lon="-9.295267417092123"><ele>194.0</ele><time>2026-03-29T09:01:04Z</time></trkpt><trkpt lat="38.85996800935059" lon="-9.295332593058573"><ele>193.0</ele><time>2026-03-29T09:01:05Z</time></trkpt><trkpt lat="38.859904372821006" lon="-9.295388266355669"><ele>192.0</ele><time>2026-03-29T09:01:06Z</time></trkpt><trkpt lat="38.85984044706872" lon="-9.295463291846652"><ele>191.0</ele><time>2026-03-29T09:01:07Z</time></trkpt><trkpt lat="38.85977941178267" lon="-9.29556911319277"><ele>192.20000000000002</ele><time>2026-03-29T09:01:08Z</time></trkpt><trkpt lat="38.859707039587676" lon="-9.295661701281361"><ele>193.4</ele><time>2026-03-29T09:01:09Z</time></trkpt><trkpt lat="38.85962320586461" lon="-9.295739740711278"><ele>194.6</ele><time>2026-03-29T09:01:10Z</time></trkpt><trkpt lat="38.85954185242794" lon="-9.29581047736336"><ele>195.8</ele><time>2026-03-29T09:01:11Z</time></trkpt><trkpt lat="38.85945602813864" lon="-9.29588697246116"><ele>197.0</ele><time>2026-03-29T09:01:12Z</time></trkpt><trkpt lat="38.859353122538934" lon="-9.295986357466859"><ele>197.25</ele><time>2026-03-29T09:01:13Z</time></trkpt><trkpt lat="38.8592463960735" lon="-9.296091456823754"><ele>197.5</ele><time>2026-03-29T09:01:14Z</time></trkpt><trkpt lat="38.859146815691844" lon="-9.296190209963765"><ele>197.75</ele><time>2026-03-29T09:01:15Z</time></trkpt><trkpt lat="38.859055801871655" lon="-9.29628297480993"><ele>198.0</ele><time>2026-03-29T09:01:16Z</time></trkpt><trkpt lat="38.85897272656778" lon="-9.296365643963197"><ele>198.16666666666666</ele><time>2026-03-29T09:01:17Z</time></trkpt><trkpt lat="38.858903897666345" lon="-9.296431048926598"><ele>198.33333333333331</ele><time>2026-03-29T09:01:18Z</time></trkpt><trkpt lat="38.85884309138874" lon="-9.296473325379903"><ele>198.5</ele><time>2026-03-29T09:01:19Z</time></trkpt><trkpt lat="38.858789354190755" lon="-9.296520262822902"><ele>198.66666666666666</ele><time>2026-03-29T09:01:21Z</time></trkpt><trkpt lat="38.85872753846666" lon="-9.296496088449459"><ele>198.83333333333331</ele><time>2026-03-29T09:01:22Z</time></trkpt><trkpt lat="38.8586452023774" lon="-9.296573846875127"><ele>199.0</ele><time>2026-03-29T09:01:24Z</time></trkpt><trkpt lat="38.858595408473874" lon="-9.296645582015056"><ele>198.99999999999997</ele><time>2026-03-29T09:01:25Z</time></trkpt><trkpt lat="38.85851244138297" lon="-9.296749172677826"><ele>199.0</ele><time>2026-03-29T09:01:27Z</time></trkpt><trkpt lat="38.85845892751738" lon="-9.29680742214161"><ele>199.0</ele><time>2026-03-29T09:01:28Z</time></trkpt><trkpt lat="38.858403668900536" lon="-9.29685350788198"><ele>199.0</ele><time>2026-03-29T09:01:29Z</time></trkpt><trkpt lat="38.85833765883638" lon="-9.296880628976314"><ele>198.99999999999997</ele><time>2026-03-29T09:01:30Z</time></trkpt><trkpt lat="38.858265671764116" lon="-9.296892477925187"><ele>199.0</ele><time>2026-03-29T09:01:31Z</time></trkpt><trkpt lat="38.858194965932924" lon="-9.296897840935202"><ele>199.66666666666666</ele><time>2026-03-29T09:01:32Z</time></trkpt><trkpt lat="38.85811015543757" lon="-9.296904520643269"><ele>200.33333333333331</ele><time>2026-03-29T09:01:33Z</time></trkpt><trkpt lat="38.85804500162337" lon="-9.296918163172034"><ele>201.0</ele><time>2026-03-29T09:01:34Z</time></trkpt><trkpt lat="38.85797705244462" lon="-9.296916386396235"><ele>201.66666666666669</ele><time>2026-03-29T09:01:35Z</time></trkpt><trkpt lat="38.85788554653543" lon="-9.296901680059289"><ele>202.33333333333334</ele><time>2026-03-29T09:01:36Z</time></trkpt><trkpt lat="38.85780937094267" lon="-9.29688943752421"><ele>203.0</ele><time>2026-03-29T09:01:37Z</time></trkpt><trkpt lat="38.857739986122176" lon="-9.296878286364873"><ele>203.0</ele><time>2026-03-29T09:01:38Z</time></trkpt><trkpt lat="38.85766086952605" lon="-9.296865571168041"><ele>203.0</ele><time>2026-03-29T09:01:39Z</time></trkpt><trkpt lat="38.85755855677781" lon="-9.297105326038528"><ele>203.0</ele><time>2026-03-29T09:01:40Z</time></trkpt><trkpt lat="38.85747033248077" lon="-9.297126808774518"><ele>203.0</ele><time>2026-03-29T09:01:41Z</time></trkpt><trkpt lat="38.857385265591645" lon="-9.297136036729603"><ele>202.66666666666669</ele><time>2026-03-29T09:01:42Z</time></trkpt><trkpt lat="38.857306986288386" lon="-9.297140819445122"><ele>202.33333333333334</ele><time>2026-03-29T09:01:43Z</time></trkpt><trkpt lat="38.85723422631029" lon="-9.29715807144268"><ele>202.0</ele><time>2026-03-29T09:01:44Z</time></trkpt><trkpt lat="38.85716020098581" lon="-9.297181651606275"><ele>201.66666666666669</ele><time>2026-03-29T09:01:45Z</time></trkpt><trkpt lat="38.85708560813122" lon="-9.297221715834382"><ele>201.33333333333334</ele><time>2026-03-29T09:01:46Z</time></trkpt><trkpt lat="38.85699993673764" lon="-9.297269850666854"><ele>201.0</ele><time>2026-03-29T09:01:47Z</time></trkpt><trkpt lat="38.85692538418979" lon="-9.29729549780186"><ele>201.0</ele><time>2026-03-29T09:01:48Z</time></trkpt><trkpt lat="38.856850135615126" lon="-9.297330855826475"><ele>201.0</ele><time>2026-03-29T09:01:48.999Z</time></trkpt><trkpt lat="38.856786316940536" lon="-9.29736485168904"><ele>201.0</ele><time>2026-03-29T09:01:49.999Z</time></trkpt><trkpt lat="38.85670133946261" lon="-9.297400318606137"><ele>201.0</ele><time>2026-03-29T09:01:50.999Z</time></trkpt><trkpt lat="38.856611851681286" lon="-9.297435820065619"><ele>201.0</ele><time>2026-03-29T09:01:51.999Z</time></trkpt><trkpt lat="38.85652587346337" lon="-9.297468671156901"><ele>201.0</ele><time>2026-03-29T09:01:52.999Z</time></trkpt><trkpt lat="38.856450087579226" lon="-9.297523903165573"><ele>202.33333333333334</ele><time>2026-03-29T09:01:53.999Z</time></trkpt><trkpt lat="38.856363143381984" lon="-9.297567059104797"><ele>203.66666666666669</ele><time>2026-03-29T09:01:54.999Z</time></trkpt><trkpt lat="38.856282820146305" lon="-9.297604359578138"><ele>205.0</ele><time>2026-03-29T09:01:55.999Z</time></trkpt><trkpt lat="38.85622237285087" lon="-9.29763751918079"><ele>206.33333333333334</ele><time>2026-03-29T09:01:56.999Z</time></trkpt><trkpt lat="38.856163714397674" lon="-9.297672305440502"><ele>207.66666666666669</ele><time>2026-03-29T09:01:57.999Z</time></trkpt><trkpt lat="38.85611168315684" lon="-9.297723249653059"><ele>209.0</ele><time>2026-03-29T09:01:58.999Z</time></trkpt><trkpt lat="38.85602008092775" lon="-9.297816108196491"><ele>209.00000000000003</ele><time>2026-03-29T09:02:00.999Z</time></trkpt><trkpt lat="38.855963051247755" lon="-9.297864870562254"><ele>209.0</ele><time>2026-03-29T09:02:01.999Z</time></trkpt><trkpt lat="38.8559016412496" lon="-9.297916176396296"><ele>209.0</ele><time>2026-03-29T09:02:02.999Z</time></trkpt><trkpt lat="38.85583188794162" lon="-9.297998311867392"><ele>209.0</ele><time>2026-03-29T09:02:03.999Z</time></trkpt><trkpt lat="38.855763392594994" lon="-9.298067876514125"><ele>209.00000000000003</ele><time>2026-03-29T09:02:04.999Z</time></trkpt><trkpt lat="38.85570441091805" lon="-9.29812231644166"><ele>209.0</ele><time>2026-03-29T09:02:05.999Z</time></trkpt><trkpt lat="38.85564673124413" lon="-9.298195024127443"><ele>208.66666666666669</ele><time>2026-03-29T09:02:06.999Z</time></trkpt><trkpt lat="38.855593799573406" lon="-9.298266108903562"><ele>208.33333333333334</ele><time>2026-03-29T09:02:07.999Z</time></trkpt><trkpt lat="38.855542295654686" lon="-9.298364925858833"><ele>208.0</ele><time>2026-03-29T09:02:08.999Z</time></trkpt><trkpt lat="38.85551979276248" lon="-9.298469160111686"><ele>207.66666666666669</ele><time>2026-03-29T09:02:09.999Z</time></trkpt><trkpt lat="38.85546703512339" lon="-9.29855882050071"><ele>207.33333333333334</ele><time>2026-03-29T09:02:10.999Z</time></trkpt><trkpt lat="38.85541263201196" lon="-9.298630766970003"><ele>207.0</ele><time>2026-03-29T09:02:11.999Z</time></trkpt><trkpt lat="38.855340198204416" lon="-9.298712142509384"><ele>207.0</ele><time>2026-03-29T09:02:12.999Z</time></trkpt><trkpt lat="38.85527334305657" lon="-9.29879192811322"><ele>207.0</ele><time>2026-03-29T09:02:13.999Z</time></trkpt><trkpt lat="38.85521572440202" lon="-9.298890669220375"><ele>207.0</ele><time>2026-03-29T09:02:14.999Z</time></trkpt><trkpt lat="38.8551510649741" lon="-9.298953967419415"><ele>207.0</ele><time>2026-03-29T09:02:15.999Z</time></trkpt><trkpt lat="38.85504549550885" lon="-9.299090478935174"><ele>207.0</ele><time>2026-03-29T09:02:17.999Z</time></trkpt><trkpt lat="38.854997107551355" lon="-9.29917073015669"><ele>206.2</ele><time>2026-03-29T09:02:18.999Z</time></trkpt><trkpt lat="38.85494321944475" lon="-9.299264647338077"><ele>205.39999999999998</ele><time>2026-03-29T09:02:19.999Z</time></trkpt><trkpt lat="38.85488733115641" lon="-9.299345887893415"><ele>204.60000000000002</ele><time>2026-03-29T09:02:20.999Z</time></trkpt><trkpt lat="38.85482432938047" lon="-9.299414285055471"><ele>203.8</ele><time>2026-03-29T09:02:21.999Z</time></trkpt><trkpt lat="38.854769664751785" lon="-9.299466768090586"><ele>203.0</ele><time>2026-03-29T09:02:22.999Z</time></trkpt><trkpt lat="38.85465659579042" lon="-9.299547453207506"><ele>203.00000000000003</ele><time>2026-03-29T09:02:24.999Z</time></trkpt><trkpt lat="38.85455290242484" lon="-9.299535904776377"><ele>203.0</ele><time>2026-03-29T09:02:25.999Z</time></trkpt><trkpt lat="38.8544734055625" lon="-9.299531294457605"><ele>203.0</ele><time>2026-03-29T09:02:26.999Z</time></trkpt><trkpt lat="38.85439186786347" lon="-9.299565666322868"><ele>203.0</ele><time>2026-03-29T09:02:27.999Z</time></trkpt><trkpt lat="38.85432617303338" lon="-9.299598606285212"><ele>203.00000000000003</ele><time>2026-03-29T09:02:28.999Z</time></trkpt><trkpt lat="38.854258190198124" lon="-9.299657656019912"><ele>203.0</ele><time>2026-03-29T09:02:29.999Z</time></trkpt><trkpt lat="38.85418690176159" lon="-9.299714371749443"><ele>201.00000000000003</ele><time>2026-03-29T09:02:30.999Z</time></trkpt><trkpt lat="38.854114261099916" lon="-9.299761355907098"><ele>199.0</ele><time>2026-03-29T09:02:31.999Z</time></trkpt><trkpt lat="38.85402695253577" lon="-9.299791680835074"><ele>197.0</ele><time>2026-03-29T09:02:32.999Z</time></trkpt><trkpt lat="38.85395997165254" lon="-9.299801028108384"><ele>195.0</ele><time>2026-03-29T09:02:33.999Z</time></trkpt><trkpt lat="38.853888268413215" lon="-9.299807448632336"><ele>193.0</ele><time>2026-03-29T09:02:34.999Z</time></trkpt><trkpt lat="38.85378951260867" lon="-9.29978046463818"><ele>191.0</ele><time>2026-03-29T09:02:35.999Z</time></trkpt><trkpt lat="38.853673416672365" lon="-9.299787812473545"><ele>191.0</ele><time>2026-03-29T09:02:36.999Z</time></trkpt><trkpt lat="38.85359408153174" lon="-9.29980312850846"><ele>191.0</ele><time>2026-03-29T09:02:37.999Z</time></trkpt><trkpt lat="38.85350967227351" lon="-9.299821177792843"><ele>191.0</ele><time>2026-03-29T09:02:38.999Z</time></trkpt><trkpt lat="38.853410361861926" lon="-9.299839880688902"><ele>191.0</ele><time>2026-03-29T09:02:39.999Z</time></trkpt><trkpt lat="38.8533274658621" lon="-9.299843252558045"><ele>191.0</ele><time>2026-03-29T09:02:40.999Z</time></trkpt><trkpt lat="38.853247785572776" lon="-9.299870498323068"><ele>191.0</ele><time>2026-03-29T09:02:41.999Z</time></trkpt><trkpt lat="38.85315744657907" lon="-9.30002128782831"><ele>192.0</ele><time>2026-03-29T09:02:43.999Z</time></trkpt><trkpt lat="38.85304809585229" lon="-9.3001146466639"><ele>193.0</ele><time>2026-03-29T09:02:45.999Z</time></trkpt><trkpt lat="38.852984368604524" lon="-9.300166624985728"><ele>194.0</ele><time>2026-03-29T09:02:46.999Z</time></trkpt><trkpt lat="38.85291982501865" lon="-9.300209696418143"><ele>195.0</ele><time>2026-03-29T09:02:47.999Z</time></trkpt><trkpt lat="38.85285438238359" lon="-9.30023482985763"><ele>196.00000000000003</ele><time>2026-03-29T09:02:48.999Z</time></trkpt><trkpt lat="38.85278812684506" lon="-9.30025617741716"><ele>197.0</ele><time>2026-03-29T09:02:49.999Z</time></trkpt><trkpt lat="38.85272139622554" lon="-9.3002864866531"><ele>197.0</ele><time>2026-03-29T09:02:50.999Z</time></trkpt><trkpt lat="38.85265778409321" lon="-9.300314661922945"><ele>197.0</ele><time>2026-03-29T09:02:51.999Z</time></trkpt><trkpt lat="38.852552649614616" lon="-9.300385492982544"><ele>197.0</ele><time>2026-03-29T09:02:53.999Z</time></trkpt><trkpt lat="38.85248915281067" lon="-9.300422196243867"><ele>197.0</ele><time>2026-03-29T09:02:54.999Z</time></trkpt><trkpt lat="38.85239937989761" lon="-9.300456012118152"><ele>197.0</ele><time>2026-03-29T09:02:55.999Z</time></trkpt><trkpt lat="38.85229439626535" lon="-9.300489485354273"><ele>196.8</ele><time>2026-03-29T09:02:56.999Z</time></trkpt><trkpt lat="38.852160384570496" lon="-9.300552597685995"><ele>196.6</ele><time>2026-03-29T09:02:58Z</time></trkpt><trkpt lat="38.8520409480441" lon="-9.300614145652387"><ele>196.4</ele><time>2026-03-29T09:02:59Z</time></trkpt><trkpt lat="38.85195176742886" lon="-9.300668739014979"><ele>196.20000000000002</ele><time>2026-03-29T09:03:00Z</time></trkpt><trkpt lat="38.851895016805955" lon="-9.300711750252056"><ele>196.0</ele><time>2026-03-29T09:03:01Z</time></trkpt><trkpt lat="38.85181575618353" lon="-9.300776718377145"><ele>196.0</ele><time>2026-03-29T09:03:03Z</time></trkpt><trkpt lat="38.85166868237288" lon="-9.300673327032085"><ele>196.0</ele><time>2026-03-29T09:03:06Z</time></trkpt><trkpt lat="38.85158630304446" lon="-9.300634989640487"><ele>196.0</ele><time>2026-03-29T09:03:08Z</time></trkpt><trkpt lat="38.851493465517024" lon="-9.30055624810165"><ele>196.0</ele><time>2026-03-29T09:03:10Z</time></trkpt><trkpt lat="38.851411671228504" lon="-9.300484762265018"><ele>195.49999999999997</ele><time>2026-03-29T09:03:12Z</time></trkpt><trkpt lat="38.85132916411437" lon="-9.300463115492143"><ele>195.0</ele><time>2026-03-29T09:03:14Z</time></trkpt><trkpt lat="38.85123844129957" lon="-9.300455105174512"><ele>194.5</ele><time>2026-03-29T09:03:17Z</time></trkpt><trkpt lat="38.85116589459425" lon="-9.300437266625632"><ele>194.0</ele><time>2026-03-29T09:03:20Z</time></trkpt><trkpt lat="38.851085708043314" lon="-9.30042385675435"><ele>193.49999999999997</ele><time>2026-03-29T09:03:23Z</time></trkpt><trkpt lat="38.851011578425044" lon="-9.300404560085772"><ele>193.0</ele><time>2026-03-29T09:03:26Z</time></trkpt><trkpt lat="38.8509432319403" lon="-9.300409668029141"><ele>193.99999999999997</ele><time>2026-03-29T09:03:30Z</time></trkpt><trkpt lat="38.85086742503871" lon="-9.300417508340992"><ele>195.0</ele><time>2026-03-29T09:03:34Z</time></trkpt><trkpt lat="38.85079343587801" lon="-9.300411969193686"><ele>196.0</ele><time>2026-03-29T09:03:39Z</time></trkpt><trkpt lat="38.850719628011376" lon="-9.300412034005813"><ele>197.0</ele><time>2026-03-29T09:03:43Z</time></trkpt><trkpt lat="38.85064309832957" lon="-9.300426321256083"><ele>197.99999999999997</ele><time>2026-03-29T09:03:46Z</time></trkpt><trkpt lat="38.85054822785007" lon="-9.300449910360458"><ele>199.0</ele><time>2026-03-29T09:03:49Z</time></trkpt><trkpt lat="38.8504471780816" lon="-9.300423203633837"><ele>198.99999999999997</ele><time>2026-03-29T09:03:52Z</time></trkpt><trkpt lat="38.85037172750055" lon="-9.300414648664603"><ele>199.0</ele><time>2026-03-29T09:03:54Z</time></trkpt><trkpt lat="38.85028950637936" lon="-9.30039943661753"><ele>199.0</ele><time>2026-03-29T09:03:57Z</time></trkpt><trkpt lat="38.85022086275822" lon="-9.300359925499379"><ele>199.0</ele><time>2026-03-29T09:03:59Z</time></trkpt><trkpt lat="38.85013177296112" lon="-9.300317043289532"><ele>198.99999999999997</ele><time>2026-03-29T09:04:00.999Z</time></trkpt><trkpt lat="38.850044419100946" lon="-9.300293609719715"><ele>199.0</ele><time>2026-03-29T09:04:02.999Z</time></trkpt><trkpt lat="38.84995894465908" lon="-9.300271572516792"><ele>200.2</ele><time>2026-03-29T09:04:04.999Z</time></trkpt><trkpt lat="38.849871183888474" lon="-9.300246051593376"><ele>201.39999999999998</ele><time>2026-03-29T09:04:06.999Z</time></trkpt><trkpt lat="38.84977727609596" lon="-9.300237006931923"><ele>202.6</ele><time>2026-03-29T09:04:08.999Z</time></trkpt><trkpt lat="38.84968929675487" lon="-9.300225939203465"><ele>203.8</ele><time>2026-03-29T09:04:10.999Z</time></trkpt><trkpt lat="38.84958977519771" lon="-9.300225461629726"><ele>205.0</ele><time>2026-03-29T09:04:12.999Z</time></trkpt><trkpt lat="38.849473504997576" lon="-9.300253443857693"><ele>205.0</ele><time>2026-03-29T09:04:14.999Z</time></trkpt><trkpt lat="38.849370874976046" lon="-9.300271759706575"><ele>205.0</ele><time>2026-03-29T09:04:16.999Z</time></trkpt><trkpt lat="38.84926625092593" lon="-9.300284798340595"><ele>205.0</ele><time>2026-03-29T09:04:18.999Z</time></trkpt><trkpt lat="38.849154838583196" lon="-9.300300988866502"><ele>205.0</ele><time>2026-03-29T09:04:20.999Z</time></trkpt><trkpt lat="38.84905017261283" lon="-9.300309929501077"><ele>205.0</ele><time>2026-03-29T09:04:22.999Z</time></trkpt><trkpt lat="38.84898484180196" lon="-9.300341981232764"><ele>204.0</ele><time>2026-03-29T09:04:23.999Z</time></trkpt><trkpt lat="38.848922745805964" lon="-9.30036788894707"><ele>203.0</ele><time>2026-03-29T09:04:24.999Z</time></trkpt><trkpt lat="38.84881501021598" lon="-9.300408065527215"><ele>202.0</ele><time>2026-03-29T09:04:26.999Z</time></trkpt><trkpt lat="38.848713802151806" lon="-9.300459642502858"><ele>201.0</ele><time>2026-03-29T09:04:28.999Z</time></trkpt><trkpt lat="38.848623378274695" lon="-9.30048264767487"><ele>200.0</ele><time>2026-03-29T09:04:30.999Z</time></trkpt><trkpt lat="38.848523954453896" lon="-9.300491871554556"><ele>199.50000000000003</ele><time>2026-03-29T09:04:32.999Z</time></trkpt><trkpt lat="38.84843089802181" lon="-9.300453850157506"><ele>199.0</ele><time>2026-03-29T09:04:34.999Z</time></trkpt><trkpt lat="38.84834698641413" lon="-9.300448467227236"><ele>198.5</ele><time>2026-03-29T09:04:36.999Z</time></trkpt><trkpt lat="38.84826197450422" lon="-9.300420207255282"><ele>198.0</ele><time>2026-03-29T09:04:38.999Z</time></trkpt><trkpt lat="38.84819170322797" lon="-9.30043083596336"><ele>197.50000000000003</ele><time>2026-03-29T09:04:40.999Z</time></trkpt><trkpt lat="38.84812927418662" lon="-9.300454798535835"><ele>197.0</ele><time>2026-03-29T09:04:42.999Z</time></trkpt><trkpt lat="38.848027075891885" lon="-9.300467319977127"><ele>197.00000000000003</ele><time>2026-03-29T09:04:44.999Z</time></trkpt><trkpt lat="38.84796370153263" lon="-9.300482419217822"><ele>197.0</ele><time>2026-03-29T09:04:45.999Z</time></trkpt><trkpt lat="38.84789197399541" lon="-9.300486995679503"><ele>197.0</ele><time>2026-03-29T09:04:46.999Z</time></trkpt><trkpt lat="38.84781432261691" lon="-9.300494841718466"><ele>197.0</ele><time>2026-03-29T09:04:47.999Z</time></trkpt><trkpt lat="38.847734160411626" lon="-9.300502663345181"><ele>197.00000000000003</ele><time>2026-03-29T09:04:48.999Z</time></trkpt><trkpt lat="38.847661048585145" lon="-9.300513119000467"><ele>197.0</ele><time>2026-03-29T09:04:49.999Z</time></trkpt><trkpt lat="38.84756747649833" lon="-9.300536018528936"><ele>197.2</ele><time>2026-03-29T09:04:51.999Z</time></trkpt><trkpt lat="38.84746690559216" lon="-9.300578457457759"><ele>197.39999999999998</ele><time>2026-03-29T09:04:53.999Z</time></trkpt><trkpt lat="38.847374445420456" lon="-9.300621818702256"><ele>197.60000000000002</ele><time>2026-03-29T09:04:55.999Z</time></trkpt><trkpt lat="38.84726537520612" lon="-9.300655473024534"><ele>197.8</ele><time>2026-03-29T09:04:57.999Z</time></trkpt><trkpt lat="38.8471631152888" lon="-9.300676888338383"><ele>198.0</ele><time>2026-03-29T09:04:59.999Z</time></trkpt><trkpt lat="38.84707526107055" lon="-9.300711114650815"><ele>199.60000000000002</ele><time>2026-03-29T09:05:01.999Z</time></trkpt><trkpt lat="38.84697254380427" lon="-9.300754083174732"><ele>201.20000000000002</ele><time>2026-03-29T09:05:04Z</time></trkpt><trkpt lat="38.846851341319635" lon="-9.300794500122441"><ele>202.8</ele><time>2026-03-29T09:05:06Z</time></trkpt><trkpt lat="38.84678551056678" lon="-9.30081077406443"><ele>204.4</ele><time>2026-03-29T09:05:07Z</time></trkpt><trkpt lat="38.84669989431898" lon="-9.300826362678698"><ele>206.0</ele><time>2026-03-29T09:05:08Z</time></trkpt><trkpt lat="38.84660981456461" lon="-9.30084130720723"><ele>206.60000000000002</ele><time>2026-03-29T09:05:09Z</time></trkpt><trkpt lat="38.84649604087568" lon="-9.300875237319538"><ele>207.2</ele><time>2026-03-29T09:05:10Z</time></trkpt><trkpt lat="38.84637552534387" lon="-9.300906656118594"><ele>207.8</ele><time>2026-03-29T09:05:11Z</time></trkpt><trkpt lat="38.846272976769534" lon="-9.300932589110326"><ele>208.39999999999998</ele><time>2026-03-29T09:05:12Z</time></trkpt><trkpt lat="38.84619068389281" lon="-9.300960630386996"><ele>209.0</ele><time>2026-03-29T09:05:13Z</time></trkpt><trkpt lat="38.846111232111646" lon="-9.300990991083248"><ele>209.0</ele><time>2026-03-29T09:05:14Z</time></trkpt><trkpt lat="38.846033727841096" lon="-9.301014436127055"><ele>209.0</ele><time>2026-03-29T09:05:15Z</time></trkpt><trkpt lat="38.845951892015755" lon="-9.301048045583235"><ele>209.0</ele><time>2026-03-29T09:05:16Z</time></trkpt><trkpt lat="38.84586751632611" lon="-9.301119689708475"><ele>209.0</ele><time>2026-03-29T09:05:17Z</time></trkpt><trkpt lat="38.84578066233394" lon="-9.301188258666912"><ele>209.0</ele><time>2026-03-29T09:05:18Z</time></trkpt><trkpt lat="38.84569887365982" lon="-9.301254137654185"><ele>208.2</ele><time>2026-03-29T09:05:19Z</time></trkpt><trkpt lat="38.84560947031037" lon="-9.30133536647118"><ele>207.39999999999998</ele><time>2026-03-29T09:05:20Z</time></trkpt><trkpt lat="38.84552728784701" lon="-9.301424433463296"><ele>206.6</ele><time>2026-03-29T09:05:21Z</time></trkpt><trkpt lat="38.84544632484087" lon="-9.301504308716"><ele>205.8</ele><time>2026-03-29T09:05:22Z</time></trkpt><trkpt lat="38.84536657844759" lon="-9.301580447275485"><ele>205.0</ele><time>2026-03-29T09:05:23Z</time></trkpt><trkpt lat="38.845282787457116" lon="-9.301650505626217"><ele>205.4</ele><time>2026-03-29T09:05:24Z</time></trkpt><trkpt lat="38.845193264080194" lon="-9.30171909901257"><ele>205.8</ele><time>2026-03-29T09:05:25Z</time></trkpt><trkpt lat="38.845109986943314" lon="-9.301794192942445"><ele>206.2</ele><time>2026-03-29T09:05:26Z</time></trkpt><trkpt lat="38.84502929318049" lon="-9.30187229512918"><ele>206.6</ele><time>2026-03-29T09:05:27Z</time></trkpt><trkpt lat="38.84495012064784" lon="-9.301950246586431"><ele>207.0</ele><time>2026-03-29T09:05:28Z</time></trkpt><trkpt lat="38.84485843201018" lon="-9.302037295029232"><ele>207.0</ele><time>2026-03-29T09:05:29Z</time></trkpt><trkpt lat="38.84477616165357" lon="-9.302123126097843"><ele>207.0</ele><time>2026-03-29T09:05:30Z</time></trkpt><trkpt lat="38.84468639891102" lon="-9.302203302293961"><ele>207.0</ele><time>2026-03-29T09:05:31Z</time></trkpt><trkpt lat="38.84459794439299" lon="-9.30226335474981"><ele>207.0</ele><time>2026-03-29T09:05:32Z</time></trkpt><trkpt lat="38.844517838311866" lon="-9.302351823268678"><ele>207.0</ele><time>2026-03-29T09:05:33Z</time></trkpt><trkpt lat="38.844431231897794" lon="-9.302440696185398"><ele>207.0</ele><time>2026-03-29T09:05:34Z</time></trkpt><trkpt lat="38.84434302506794" lon="-9.302523030671264"><ele>207.0</ele><time>2026-03-29T09:05:35Z</time></trkpt><trkpt lat="38.844267818757594" lon="-9.302603318610782"><ele>207.0</ele><time>2026-03-29T09:05:36Z</time></trkpt><trkpt lat="38.84420220564054" lon="-9.302659461454097"><ele>207.0</ele><time>2026-03-29T09:05:37Z</time></trkpt><trkpt lat="38.844110465266255" lon="-9.302700449753821"><ele>207.0</ele><time>2026-03-29T09:05:39Z</time></trkpt><trkpt lat="38.84402965550602" lon="-9.302719853395564"><ele>207.0</ele><time>2026-03-29T09:05:53Z</time></trkpt><trkpt lat="38.84389747473645" lon="-9.302777451387486"><ele>207.0</ele><time>2026-03-29T09:05:55Z</time></trkpt><trkpt lat="38.84379964015234" lon="-9.302839280998272"><ele>207.0</ele><time>2026-03-29T09:05:56Z</time></trkpt><trkpt lat="38.84370202194468" lon="-9.302907022385018"><ele>207.0</ele><time>2026-03-29T09:05:57Z</time></trkpt><trkpt lat="38.843579833112095" lon="-9.302982032401717"><ele>207.0</ele><time>2026-03-29T09:05:57.999Z</time></trkpt><trkpt lat="38.843464142715014" lon="-9.30306071319181"><ele>207.0</ele><time>2026-03-29T09:05:58.999Z</time></trkpt><trkpt lat="38.843337699756624" lon="-9.303140388164131"><ele>207.0</ele><time>2026-03-29T09:05:59.999Z</time></trkpt><trkpt lat="38.84321751612202" lon="-9.303222873147341"><ele>207.0</ele><time>2026-03-29T09:06:00.999Z</time></trkpt><trkpt lat="38.84311851811848" lon="-9.30330844112693"><ele>207.0</ele><time>2026-03-29T09:06:01.999Z</time></trkpt><trkpt lat="38.843028283954794" lon="-9.303387779222588"><ele>207.0</ele><time>2026-03-29T09:06:02.999Z</time></trkpt><trkpt lat="38.84294958189692" lon="-9.303460885137461"><ele>207.0</ele><time>2026-03-29T09:06:03.999Z</time></trkpt><trkpt lat="38.842879108523206" lon="-9.303579142878778"><ele>207.0</ele><time>2026-03-29T09:06:04.999Z</time></trkpt><trkpt lat="38.84281445152354" lon="-9.303681802811369"><ele>207.0</ele><time>2026-03-29T09:06:05.999Z</time></trkpt><trkpt lat="38.84274700729295" lon="-9.3037982648538"><ele>207.2</ele><time>2026-03-29T09:06:06.999Z</time></trkpt><trkpt lat="38.84269605744177" lon="-9.30393433394909"><ele>207.39999999999998</ele><time>2026-03-29T09:06:07.999Z</time></trkpt><trkpt lat="38.842639872382755" lon="-9.304050244047671"><ele>207.60000000000002</ele><time>2026-03-29T09:06:08.999Z</time></trkpt><trkpt lat="38.84260320335687" lon="-9.30415241386174"><ele>207.8</ele><time>2026-03-29T09:06:09.999Z</time></trkpt><trkpt lat="38.84262798831855" lon="-9.304290580539094"><ele>208.0</ele><time>2026-03-29T09:06:10.999Z</time></trkpt><trkpt lat="38.842563977265144" lon="-9.304364993870617"><ele>206.25</ele><time>2026-03-29T09:06:11.999Z</time></trkpt><trkpt lat="38.84251495193909" lon="-9.304476616072266"><ele>204.5</ele><time>2026-03-29T09:06:12.999Z</time></trkpt><trkpt lat="38.84242586837734" lon="-9.30457312075961"><ele>202.75</ele><time>2026-03-29T09:06:13.999Z</time></trkpt><trkpt lat="38.842285422025824" lon="-9.304618384806556"><ele>201.0</ele><time>2026-03-29T09:06:14.999Z</time></trkpt><trkpt lat="38.84216364421092" lon="-9.304654441057748"><ele>201.0</ele><time>2026-03-29T09:06:15.999Z</time></trkpt><trkpt lat="38.842070134289365" lon="-9.304734136173613"><ele>201.0</ele><time>2026-03-29T09:06:16.999Z</time></trkpt><trkpt lat="38.84196752207089" lon="-9.304807017102169"><ele>201.0</ele><time>2026-03-29T09:06:17.999Z</time></trkpt><trkpt lat="38.84186916482184" lon="-9.30488685783676"><ele>201.0</ele><time>2026-03-29T09:06:18.999Z</time></trkpt><trkpt lat="38.84177713432841" lon="-9.304985312648911"><ele>199.60000000000002</ele><time>2026-03-29T09:06:19.999Z</time></trkpt><trkpt lat="38.84169007759768" lon="-9.305084557622108"><ele>198.2</ele><time>2026-03-29T09:06:20.999Z</time></trkpt><trkpt lat="38.84163184871119" lon="-9.30515916788653"><ele>196.8</ele><time>2026-03-29T09:06:21.999Z</time></trkpt><trkpt lat="38.84158624303872" lon="-9.305217678252601"><ele>195.39999999999998</ele><time>2026-03-29T09:06:22.999Z</time></trkpt><trkpt lat="38.84149736452099" lon="-9.30535940914645"><ele>194.0</ele><time>2026-03-29T09:06:24.999Z</time></trkpt><trkpt lat="38.84151469155367" lon="-9.305502956908953"><ele>194.5</ele><time>2026-03-29T09:06:25.999Z</time></trkpt><trkpt lat="38.84145504800261" lon="-9.30561909424643"><ele>195.0</ele><time>2026-03-29T09:06:26.999Z</time></trkpt><trkpt lat="38.84139831721732" lon="-9.305729559013349"><ele>195.5</ele><time>2026-03-29T09:06:27.999Z</time></trkpt><trkpt lat="38.84134411117312" lon="-9.305825355724506"><ele>196.0</ele><time>2026-03-29T09:06:29.999Z</time></trkpt><trkpt lat="38.840746279700014" lon="-9.305654289663728"><ele>195.0</ele><time>2026-03-29T09:06:31.999Z</time></trkpt><trkpt lat="38.84066055679158" lon="-9.305709389176256"><ele>194.0</ele><time>2026-03-29T09:06:32.999Z</time></trkpt><trkpt lat="38.84058092156508" lon="-9.305757208862387"><ele>193.0</ele><time>2026-03-29T09:06:33.999Z</time></trkpt><trkpt lat="38.84049383966654" lon="-9.305804223136178"><ele>192.0</ele><time>2026-03-29T09:06:34.999Z</time></trkpt><trkpt lat="38.84040466806153" lon="-9.305837009360946"><ele>191.0</ele><time>2026-03-29T09:06:35.999Z</time></trkpt><trkpt lat="38.84032650196226" lon="-9.305870453904765"><ele>191.0</ele><time>2026-03-29T09:06:36.999Z</time></trkpt><trkpt lat="38.840252978417645" lon="-9.30590323909973"><ele>191.0</ele><time>2026-03-29T09:06:37.999Z</time></trkpt><trkpt lat="38.84018241912539" lon="-9.30593980469568"><ele>191.0</ele><time>2026-03-29T09:06:38.999Z</time></trkpt><trkpt lat="38.84011490966438" lon="-9.305969749792704"><ele>191.0</ele><time>2026-03-29T09:06:39.999Z</time></trkpt><trkpt lat="38.84004281520013" lon="-9.305977799537"><ele>191.0</ele><time>2026-03-29T09:06:40.999Z</time></trkpt><trkpt lat="38.83997431808474" lon="-9.306019711163753"><ele>191.0</ele><time>2026-03-29T09:06:41.999Z</time></trkpt><trkpt lat="38.83991200512669" lon="-9.306084603219643"><ele>189.5</ele><time>2026-03-29T09:06:42.999Z</time></trkpt><trkpt lat="38.83984172913859" lon="-9.306135889197352"><ele>188.0</ele><time>2026-03-29T09:06:43.999Z</time></trkpt><trkpt lat="38.839770984145474" lon="-9.30619290543152"><ele>186.5</ele><time>2026-03-29T09:06:44.999Z</time></trkpt><trkpt lat="38.83970428278715" lon="-9.306253969361656"><ele>185.0</ele><time>2026-03-29T09:06:45.999Z</time></trkpt><trkpt lat="38.83963346939419" lon="-9.306315414293378"><ele>183.5</ele><time>2026-03-29T09:06:46.999Z</time></trkpt><trkpt lat="38.83956112845523" lon="-9.306373812216515"><ele>182.0</ele><time>2026-03-29T09:06:47.999Z</time></trkpt><trkpt lat="38.83949675245648" lon="-9.306432782782794"><ele>181.5</ele><time>2026-03-29T09:06:48.999Z</time></trkpt><trkpt lat="38.83944082619456" lon="-9.306491236445654"><ele>181.0</ele><time>2026-03-29T09:06:49.999Z</time></trkpt><trkpt lat="38.839391283852386" lon="-9.306560368886183"><ele>180.5</ele><time>2026-03-29T09:06:50.999Z</time></trkpt><trkpt lat="38.83933798092945" lon="-9.306627831691815"><ele>180.0</ele><time>2026-03-29T09:06:51.999Z</time></trkpt><trkpt lat="38.83930114073398" lon="-9.306699737910858"><ele>179.5</ele><time>2026-03-29T09:06:52.999Z</time></trkpt><trkpt lat="38.83922891095001" lon="-9.306822231924563"><ele>179.0</ele><time>2026-03-29T09:06:54.999Z</time></trkpt><trkpt lat="38.83915727235588" lon="-9.30683391917842"><ele>177.2</ele><time>2026-03-29T09:06:55.999Z</time></trkpt><trkpt lat="38.83907021783939" lon="-9.306816764300226"><ele>175.39999999999998</ele><time>2026-03-29T09:06:56.999Z</time></trkpt><trkpt lat="38.8389780911043" lon="-9.306814069691159"><ele>173.6</ele><time>2026-03-29T09:06:57.999Z</time></trkpt><trkpt lat="38.83888519698062" lon="-9.306809471655578"><ele>171.8</ele><time>2026-03-29T09:06:58.999Z</time></trkpt><trkpt lat="38.83880063671058" lon="-9.306835690296937"><ele>170.0</ele><time>2026-03-29T09:06:59.999Z</time></trkpt><trkpt lat="38.83870854823637" lon="-9.306853722618504"><ele>170.0</ele><time>2026-03-29T09:07:00.999Z</time></trkpt><trkpt lat="38.8386144237792" lon="-9.30687727407136"><ele>170.0</ele><time>2026-03-29T09:07:01.999Z</time></trkpt><trkpt lat="38.838525771946166" lon="-9.306874372899774"><ele>170.0</ele><time>2026-03-29T09:07:02.999Z</time></trkpt><trkpt lat="38.838462361159586" lon="-9.30686784903892"><ele>170.0</ele><time>2026-03-29T09:07:03.999Z</time></trkpt><trkpt lat="38.83838475803842" lon="-9.30681723431126"><ele>170.0</ele><time>2026-03-29T09:07:05.999Z</time></trkpt><trkpt lat="38.83841357753304" lon="-9.306691935054868"><ele>170.0</ele><time>2026-03-29T09:07:07.999Z</time></trkpt><trkpt lat="38.838432887444995" lon="-9.306611267920298"><ele>170.0</ele><time>2026-03-29T09:07:12Z</time></trkpt><trkpt lat="38.83842030109649" lon="-9.306481226727202"><ele>170.0</ele><time>2026-03-29T09:07:15Z</time></trkpt><trkpt lat="38.838423838293146" lon="-9.306355902127692"><ele>170.0</ele><time>2026-03-29T09:07:17Z</time></trkpt><trkpt lat="38.838466019137115" lon="-9.30620856528483"><ele>170.0</ele><time>2026-03-29T09:07:19Z</time></trkpt><trkpt lat="38.838485032087135" lon="-9.306128559294224"><ele>170.0</ele><time>2026-03-29T09:07:20Z</time></trkpt><trkpt lat="38.83851899181732" lon="-9.306000585960849"><ele>170.0</ele><time>2026-03-29T09:07:22Z</time></trkpt><trkpt lat="38.83855098837428" lon="-9.305864176998565"><ele>170.0</ele><time>2026-03-29T09:07:24Z</time></trkpt><trkpt lat="38.83853783849529" lon="-9.305732918907799"><ele>170.0</ele><time>2026-03-29T09:07:26Z</time></trkpt><trkpt lat="38.83848778830424" lon="-9.305668139641963"><ele>170.0</ele><time>2026-03-29T09:07:27Z</time></trkpt><trkpt lat="38.8384207394154" lon="-9.305625694484005"><ele>170.0</ele><time>2026-03-29T09:07:28Z</time></trkpt><trkpt lat="38.838358979766745" lon="-9.30560493496389"><ele>170.0</ele><time>2026-03-29T09:07:29Z</time></trkpt><trkpt lat="38.83826063127547" lon="-9.305555385318565"><ele>170.5</ele><time>2026-03-29T09:07:31Z</time></trkpt><trkpt lat="38.838169517180944" lon="-9.305509780665435"><ele>171.0</ele><time>2026-03-29T09:07:33Z</time></trkpt><trkpt lat="38.83809775121288" lon="-9.305435916098174"><ele>171.5</ele><time>2026-03-29T09:07:35Z</time></trkpt><trkpt lat="38.83807923511932" lon="-9.3053300206647"><ele>172.0</ele><time>2026-03-29T09:07:38Z</time></trkpt><trkpt lat="38.838071583871546" lon="-9.305243113949214"><ele>172.5</ele><time>2026-03-29T09:07:40Z</time></trkpt><trkpt lat="38.83802418640722" lon="-9.305148088099696"><ele>173.0</ele><time>2026-03-29T09:07:42Z</time></trkpt><trkpt lat="38.83796597711507" lon="-9.305117238068439"><ele>173.0</ele><time>2026-03-29T09:07:43Z</time></trkpt><trkpt lat="38.837862413681265" lon="-9.305067425144228"><ele>173.0</ele><time>2026-03-29T09:07:45Z</time></trkpt><trkpt lat="38.837776528366405" lon="-9.305006243355967"><ele>173.0</ele><time>2026-03-29T09:07:47Z</time></trkpt><trkpt lat="38.83770343770439" lon="-9.304969160220642"><ele>173.0</ele><time>2026-03-29T09:07:49Z</time></trkpt><trkpt lat="38.83760430609963" lon="-9.304947811561513"><ele>173.0</ele><time>2026-03-29T09:07:51Z</time></trkpt><trkpt lat="38.83753282649767" lon="-9.30491288420431"><ele>173.60000000000002</ele><time>2026-03-29T09:07:53Z</time></trkpt><trkpt lat="38.837437989880016" lon="-9.30482573589483"><ele>174.20000000000002</ele><time>2026-03-29T09:07:55Z</time></trkpt><trkpt lat="38.83735082950408" lon="-9.304746573413725"><ele>174.8</ele><time>2026-03-29T09:07:57Z</time></trkpt><trkpt lat="38.83726392634946" lon="-9.304673402092634"><ele>175.4</ele><time>2026-03-29T09:07:58.999Z</time></trkpt><trkpt lat="38.837188731740255" lon="-9.304572961646212"><ele>176.0</ele><time>2026-03-29T09:08:00.999Z</time></trkpt><trkpt lat="38.83713877724015" lon="-9.304473540439526"><ele>177.0</ele><time>2026-03-29T09:08:02.999Z</time></trkpt><trkpt lat="38.83706063055848" lon="-9.304397369447665"><ele>178.0</ele><time>2026-03-29T09:08:04.999Z</time></trkpt><trkpt lat="38.837020956470624" lon="-9.304305815199209"><ele>179.0</ele><time>2026-03-29T09:08:06.999Z</time></trkpt><trkpt lat="38.83696481998044" lon="-9.304216386672126"><ele>180.0</ele><time>2026-03-29T09:08:08.999Z</time></trkpt><trkpt lat="38.836911775161234" lon="-9.304090209143334"><ele>181.0</ele><time>2026-03-29T09:08:10.999Z</time></trkpt><trkpt lat="38.83687749334052" lon="-9.304015377865742"><ele>182.0</ele><time>2026-03-29T09:08:11.999Z</time></trkpt><trkpt lat="38.83680495951396" lon="-9.303943481604833"><ele>181.8</ele><time>2026-03-29T09:08:12.999Z</time></trkpt><trkpt lat="38.83674369652669" lon="-9.303867993794627"><ele>181.6</ele><time>2026-03-29T09:08:13.999Z</time></trkpt><trkpt lat="38.836689138870675" lon="-9.303808403773557"><ele>181.4</ele><time>2026-03-29T09:08:14.999Z</time></trkpt><trkpt lat="38.83659951677062" lon="-9.303705401350916"><ele>181.20000000000002</ele><time>2026-03-29T09:08:16.999Z</time></trkpt><trkpt lat="38.8365324909741" lon="-9.303592894181516"><ele>181.0</ele><time>2026-03-29T09:08:18.999Z</time></trkpt><trkpt lat="38.836461642212754" lon="-9.303506099492036"><ele>181.0</ele><time>2026-03-29T09:08:20.999Z</time></trkpt><trkpt lat="38.8363971619238" lon="-9.303416321931731"><ele>181.0</ele><time>2026-03-29T09:08:22.999Z</time></trkpt><trkpt lat="38.8363237048485" lon="-9.303314578264581"><ele>181.0</ele><time>2026-03-29T09:08:24.999Z</time></trkpt><trkpt lat="38.8362427539443" lon="-9.303210574130897"><ele>181.0</ele><time>2026-03-29T09:08:26.999Z</time></trkpt><trkpt lat="38.83616357772011" lon="-9.303112117108961"><ele>181.0</ele><time>2026-03-29T09:08:28.999Z</time></trkpt><trkpt lat="38.83610054053924" lon="-9.303022678329052"><ele>180.0</ele><time>2026-03-29T09:08:30.999Z</time></trkpt><trkpt lat="38.83603114494669" lon="-9.302931482325706"><ele>179.0</ele><time>2026-03-29T09:08:32.999Z</time></trkpt><trkpt lat="38.835962686477" lon="-9.302826897209437"><ele>178.0</ele><time>2026-03-29T09:08:34.999Z</time></trkpt><trkpt lat="38.83590167525469" lon="-9.302741289023745"><ele>177.0</ele><time>2026-03-29T09:08:36.999Z</time></trkpt><trkpt lat="38.83584602574595" lon="-9.302647332065343"><ele>176.0</ele><time>2026-03-29T09:08:38.999Z</time></trkpt><trkpt lat="38.83578423747626" lon="-9.302565524110083"><ele>176.0</ele><time>2026-03-29T09:08:40.999Z</time></trkpt><trkpt lat="38.83571569111586" lon="-9.302468800797017"><ele>176.0</ele><time>2026-03-29T09:08:42.999Z</time></trkpt><trkpt lat="38.83564653667039" lon="-9.302364912292207"><ele>176.0</ele><time>2026-03-29T09:08:44.999Z</time></trkpt><trkpt lat="38.83558293606711" lon="-9.302271237291407"><ele>176.0</ele><time>2026-03-29T09:08:46.999Z</time></trkpt><trkpt lat="38.835522831230435" lon="-9.302176936036442"><ele>176.0</ele><time>2026-03-29T09:08:48.999Z</time></trkpt><trkpt lat="38.835455550151515" lon="-9.302073593261172"><ele>175.20000000000002</ele><time>2026-03-29T09:08:50.999Z</time></trkpt><trkpt lat="38.835373361550516" lon="-9.30196492184104"><ele>174.4</ele><time>2026-03-29T09:08:52.999Z</time></trkpt><trkpt lat="38.83529026019343" lon="-9.30186943903278"><ele>173.6</ele><time>2026-03-29T09:08:54.999Z</time></trkpt><trkpt lat="38.835223633602524" lon="-9.301773486243665"><ele>172.8</ele><time>2026-03-29T09:08:56.999Z</time></trkpt><trkpt lat="38.83514437134834" lon="-9.301673201245427"><ele>172.0</ele><time>2026-03-29T09:08:58.999Z</time></trkpt><trkpt lat="38.83506809437812" lon="-9.301567099835545"><ele>172.0</ele><time>2026-03-29T09:09:00.999Z</time></trkpt><trkpt lat="38.83499817854586" lon="-9.30144416092031"><ele>172.0</ele><time>2026-03-29T09:09:02.999Z</time></trkpt><trkpt lat="38.834957900294654" lon="-9.301373387562512"><ele>172.0</ele><time>2026-03-29T09:09:03.999Z</time></trkpt><trkpt lat="38.83492026745209" lon="-9.301292043670237"><ele>172.0</ele><time>2026-03-29T09:09:04.999Z</time></trkpt><trkpt lat="38.834884291274385" lon="-9.301222470992364"><ele>172.0</ele><time>2026-03-29T09:09:05.999Z</time></trkpt><trkpt lat="38.83485767372565" lon="-9.301149217032384"><ele>172.0</ele><time>2026-03-29T09:09:06.999Z</time></trkpt><trkpt lat="38.8347974971652" lon="-9.301022612667012"><ele>171.83333333333334</ele><time>2026-03-29T09:09:08.999Z</time></trkpt><trkpt lat="38.83473790094568" lon="-9.30098588584155"><ele>171.66666666666669</ele><time>2026-03-29T09:09:09.999Z</time></trkpt><trkpt lat="38.83464400729084" lon="-9.301023118076902"><ele>171.5</ele><time>2026-03-29T09:09:10.999Z</time></trkpt><trkpt lat="38.834566100071456" lon="-9.300974907455132"><ele>171.33333333333334</ele><time>2026-03-29T09:09:11.999Z</time></trkpt><trkpt lat="38.83448595711557" lon="-9.300924869346932"><ele>171.16666666666666</ele><time>2026-03-29T09:09:12.999Z</time></trkpt><trkpt lat="38.834419232076165" lon="-9.300884312488828"><ele>171.0</ele><time>2026-03-29T09:09:13.999Z</time></trkpt><trkpt lat="38.83432053976362" lon="-9.300834916097516"><ele>171.0</ele><time>2026-03-29T09:09:16Z</time></trkpt><trkpt lat="38.83430260933975" lon="-9.30070842828074"><ele>171.0</ele><time>2026-03-29T09:09:18Z</time></trkpt><trkpt lat="38.83421465172909" lon="-9.300779748788024"><ele>171.0</ele><time>2026-03-29T09:09:29Z</time></trkpt><trkpt lat="38.834111419899855" lon="-9.300876395512262"><ele>171.0</ele><time>2026-03-29T09:09:31Z</time></trkpt><trkpt lat="38.83403379850901" lon="-9.300906452307585"><ele>171.0</ele><time>2026-03-29T09:09:32Z</time></trkpt><trkpt lat="38.83394300284219" lon="-9.300940747728957"><ele>171.0</ele><time>2026-03-29T09:09:33Z</time></trkpt><trkpt lat="38.83383518291587" lon="-9.300981473547441"><ele>171.0</ele><time>2026-03-29T09:09:34Z</time></trkpt><trkpt lat="38.833720055051614" lon="-9.301021933089777"><ele>171.0</ele><time>2026-03-29T09:09:35Z</time></trkpt><trkpt lat="38.83358130676323" lon="-9.301069790333475"><ele>171.0</ele><time>2026-03-29T09:09:36Z</time></trkpt><trkpt lat="38.83343617416354" lon="-9.301121960282401"><ele>170.33333333333334</ele><time>2026-03-29T09:09:37Z</time></trkpt><trkpt lat="38.83327456771689" lon="-9.30118221822989"><ele>169.66666666666669</ele><time>2026-03-29T09:09:38Z</time></trkpt><trkpt lat="38.83310986792801" lon="-9.301249162586071"><ele>169.0</ele><time>2026-03-29T09:09:39Z</time></trkpt><trkpt lat="38.83296422559041" lon="-9.30133257346236"><ele>169.0</ele><time>2026-03-29T09:09:40Z</time></trkpt><trkpt lat="38.83283637599974" lon="-9.301439301573609"><ele>169.0</ele><time>2026-03-29T09:09:41Z</time></trkpt><trkpt lat="38.83269934281518" lon="-9.301580454074113"><ele>169.0</ele><time>2026-03-29T09:09:42Z</time></trkpt><trkpt lat="38.83257079642541" lon="-9.301743322035719"><ele>169.0</ele><time>2026-03-29T09:09:43Z</time></trkpt><trkpt lat="38.83246575005956" lon="-9.301894205412083"><ele>169.0</ele><time>2026-03-29T09:09:44Z</time></trkpt><trkpt lat="38.83236943428757" lon="-9.302028121286728"><ele>169.0</ele><time>2026-03-29T09:09:45Z</time></trkpt><trkpt lat="38.83225590220359" lon="-9.302126147063511"><ele>169.0</ele><time>2026-03-29T09:09:46Z</time></trkpt><trkpt lat="38.83213572749421" lon="-9.302204050086651"><ele>168.5</ele><time>2026-03-29T09:09:47Z</time></trkpt><trkpt lat="38.83199798699468" lon="-9.302256707806995"><ele>168.0</ele><time>2026-03-29T09:09:48Z</time></trkpt><trkpt lat="38.83184473156431" lon="-9.302285483535757"><ele>167.5</ele><time>2026-03-29T09:09:49Z</time></trkpt><trkpt lat="38.83169727621512" lon="-9.302315069472407"><ele>167.0</ele><time>2026-03-29T09:09:50Z</time></trkpt><trkpt lat="38.83155561595362" lon="-9.302390078391273"><ele>167.0</ele><time>2026-03-29T09:09:51Z</time></trkpt><trkpt lat="38.831395040438856" lon="-9.302419976036814"><ele>167.0</ele><time>2026-03-29T09:09:52Z</time></trkpt><trkpt lat="38.831244191563655" lon="-9.302470723605403"><ele>167.0</ele><time>2026-03-29T09:09:53Z</time></trkpt><trkpt lat="38.8311084883102" lon="-9.302519851819573"><ele>167.0</ele><time>2026-03-29T09:09:54Z</time></trkpt><trkpt lat="38.83097954970846" lon="-9.302570160708347"><ele>167.0</ele><time>2026-03-29T09:09:55Z</time></trkpt><trkpt lat="38.83085828357081" lon="-9.302669377626405"><ele>167.0</ele><time>2026-03-29T09:09:55.999Z</time></trkpt><trkpt lat="38.830726529812395" lon="-9.302718959591072"><ele>167.0</ele><time>2026-03-29T09:09:56.999Z</time></trkpt><trkpt lat="38.83060270460727" lon="-9.302765275716096"><ele>168.25</ele><time>2026-03-29T09:09:57.999Z</time></trkpt><trkpt lat="38.83049496356429" lon="-9.302806084181762"><ele>169.5</ele><time>2026-03-29T09:09:58.999Z</time></trkpt><trkpt lat="38.830386133126574" lon="-9.302847305126146"><ele>170.75</ele><time>2026-03-29T09:09:59.999Z</time></trkpt><trkpt lat="38.830266403913164" lon="-9.302895862504872"><ele>172.0</ele><time>2026-03-29T09:10:00.999Z</time></trkpt><trkpt lat="38.83015176638637" lon="-9.302957142396787"><ele>172.0</ele><time>2026-03-29T09:10:01.999Z</time></trkpt><trkpt lat="38.830050245780214" lon="-9.303021847940832"><ele>172.0</ele><time>2026-03-29T09:10:02.999Z</time></trkpt><trkpt lat="38.829952100945874" lon="-9.303079761622353"><ele>172.0</ele><time>2026-03-29T09:10:03.999Z</time></trkpt><trkpt lat="38.82987153947031" lon="-9.303134242580116"><ele>172.0</ele><time>2026-03-29T09:10:04.999Z</time></trkpt><trkpt lat="38.82980027422291" lon="-9.30319269339615"><ele>172.0</ele><time>2026-03-29T09:10:05.999Z</time></trkpt><trkpt lat="38.82972183676762" lon="-9.303282930028434"><ele>171.8</ele><time>2026-03-29T09:10:07.999Z</time></trkpt><trkpt lat="38.82966585355108" lon="-9.30334683434128"><ele>171.6</ele><time>2026-03-29T09:10:09.999Z</time></trkpt><trkpt lat="38.82958168865635" lon="-9.303406146530836"><ele>171.4</ele><time>2026-03-29T09:10:20.999Z</time></trkpt><trkpt lat="38.82951250605572" lon="-9.303489902406522"><ele>171.20000000000002</ele><time>2026-03-29T09:10:22.999Z</time></trkpt><trkpt lat="38.829447207313365" lon="-9.303583398398949"><ele>171.0</ele><time>2026-03-29T09:10:23.999Z</time></trkpt><trkpt lat="38.82935726213621" lon="-9.303702666542707"><ele>170.66666666666666</ele><time>2026-03-29T09:10:24.999Z</time></trkpt><trkpt lat="38.82925035805651" lon="-9.303839651267465"><ele>170.33333333333331</ele><time>2026-03-29T09:10:25.999Z</time></trkpt><trkpt lat="38.82913528887582" lon="-9.303984714739466"><ele>170.0</ele><time>2026-03-29T09:10:26.999Z</time></trkpt><trkpt lat="38.82899950349013" lon="-9.304153823537092"><ele>170.0</ele><time>2026-03-29T09:10:27.999Z</time></trkpt><trkpt lat="38.828851233359245" lon="-9.304338784963074"><ele>170.0</ele><time>2026-03-29T09:10:28.999Z</time></trkpt><trkpt lat="38.828705654048086" lon="-9.304520833866968"><ele>170.0</ele><time>2026-03-29T09:10:29.999Z</time></trkpt><trkpt lat="38.82855107785388" lon="-9.304705848646044"><ele>169.66666666666666</ele><time>2026-03-29T09:10:30.999Z</time></trkpt><trkpt lat="38.828415418089804" lon="-9.304860445068291"><ele>169.33333333333334</ele><time>2026-03-29T09:10:31.999Z</time></trkpt><trkpt lat="38.82829594438204" lon="-9.30500246567691"><ele>169.0</ele><time>2026-03-29T09:10:32.999Z</time></trkpt><trkpt lat="38.828178155764775" lon="-9.305152325696321"><ele>169.0</ele><time>2026-03-29T09:10:33.999Z</time></trkpt><trkpt lat="38.82805769500692" lon="-9.305305519573475"><ele>169.0</ele><time>2026-03-29T09:10:34.999Z</time></trkpt><trkpt lat="38.82794276842556" lon="-9.305448857040746"><ele>169.0</ele><time>2026-03-29T09:10:35.999Z</time></trkpt><trkpt lat="38.82783439215545" lon="-9.305584292799953"><ele>169.5</ele><time>2026-03-29T09:10:36.999Z</time></trkpt><trkpt lat="38.827737278942365" lon="-9.305705653358945"><ele>170.0</ele><time>2026-03-29T09:10:37.999Z</time></trkpt><trkpt lat="38.82765001095303" lon="-9.305817617020786"><ele>170.5</ele><time>2026-03-29T09:10:38.999Z</time></trkpt><trkpt lat="38.82755826922625" lon="-9.305936144224791"><ele>171.0</ele><time>2026-03-29T09:10:39.999Z</time></trkpt><trkpt lat="38.82745855644648" lon="-9.306064969784943"><ele>170.25</ele><time>2026-03-29T09:10:40.999Z</time></trkpt><trkpt lat="38.827356567133236" lon="-9.306199046290116"><ele>169.5</ele><time>2026-03-29T09:10:41.999Z</time></trkpt><trkpt lat="38.82725376299425" lon="-9.306336093262562"><ele>168.75</ele><time>2026-03-29T09:10:42.999Z</time></trkpt><trkpt lat="38.827147284888476" lon="-9.30647803791099"><ele>168.0</ele><time>2026-03-29T09:10:43.999Z</time></trkpt><trkpt lat="38.82704204069718" lon="-9.306622360228355"><ele>168.0</ele><time>2026-03-29T09:10:44.999Z</time></trkpt><trkpt lat="38.82692999927161" lon="-9.306776598587613"><ele>168.0</ele><time>2026-03-29T09:10:45.999Z</time></trkpt><trkpt lat="38.82683128436921" lon="-9.306914125717592"><ele>168.0</ele><time>2026-03-29T09:10:46.999Z</time></trkpt><trkpt lat="38.826734088082716" lon="-9.307039643143385"><ele>168.0</ele><time>2026-03-29T09:10:47.999Z</time></trkpt><trkpt lat="38.826636069249474" lon="-9.307160517804412"><ele>166.4</ele><time>2026-03-29T09:10:48.999Z</time></trkpt><trkpt lat="38.826541993199065" lon="-9.307277458450995"><ele>164.8</ele><time>2026-03-29T09:10:49.999Z</time></trkpt><trkpt lat="38.826460051021975" lon="-9.307381932050644"><ele>163.2</ele><time>2026-03-29T09:10:50.999Z</time></trkpt><trkpt lat="38.826393739976346" lon="-9.307484318215499"><ele>161.6</ele><time>2026-03-29T09:10:51.999Z</time></trkpt><trkpt lat="38.82634830859477" lon="-9.307589827899296"><ele>160.0</ele><time>2026-03-29T09:10:52.999Z</time></trkpt><trkpt lat="38.82631885624974" lon="-9.307725034084639"><ele>160.0</ele><time>2026-03-29T09:10:53.999Z</time></trkpt><trkpt lat="38.826278472014586" lon="-9.30788278752961"><ele>160.0</ele><time>2026-03-29T09:10:54.999Z</time></trkpt><trkpt lat="38.82623352085511" lon="-9.308056607362245"><ele>160.0</ele><time>2026-03-29T09:10:55.999Z</time></trkpt><trkpt lat="38.82618118105723" lon="-9.308240066297323"><ele>160.0</ele><time>2026-03-29T09:10:56.999Z</time></trkpt><trkpt lat="38.82612427525947" lon="-9.30841566765621"><ele>160.66666666666669</ele><time>2026-03-29T09:10:57.999Z</time></trkpt><trkpt lat="38.82603913338583" lon="-9.30859448100381"><ele>161.33333333333334</ele><time>2026-03-29T09:10:58.999Z</time></trkpt><trkpt lat="38.82597775233499" lon="-9.308801611564236"><ele>162.0</ele><time>2026-03-29T09:10:59.999Z</time></trkpt><trkpt lat="38.82591016684009" lon="-9.309015807856674"><ele>164.0</ele><time>2026-03-29T09:11:00.999Z</time></trkpt><trkpt lat="38.82585864533881" lon="-9.3092166724496"><ele>166.0</ele><time>2026-03-29T09:11:01.999Z</time></trkpt><trkpt lat="38.825790835682014" lon="-9.30939250927952"><ele>168.0</ele><time>2026-03-29T09:11:02.999Z</time></trkpt><trkpt lat="38.82572616283949" lon="-9.309592066920628"><ele>169.66666666666666</ele><time>2026-03-29T09:11:03.999Z</time></trkpt><trkpt lat="38.82566186027646" lon="-9.309788829323303"><ele>171.33333333333331</ele><time>2026-03-29T09:11:04.999Z</time></trkpt><trkpt lat="38.82559570851034" lon="-9.309990282853992"><ele>173.0</ele><time>2026-03-29T09:11:05.999Z</time></trkpt><trkpt lat="38.82552307027021" lon="-9.31014770593512"><ele>173.0</ele><time>2026-03-29T09:11:06.999Z</time></trkpt><trkpt lat="38.825460201636716" lon="-9.31029454466148"><ele>173.0</ele><time>2026-03-29T09:11:07.999Z</time></trkpt><trkpt lat="38.825398538567185" lon="-9.310406871014331"><ele>173.0</ele><time>2026-03-29T09:11:08.999Z</time></trkpt><trkpt lat="38.825357090304045" lon="-9.310487882845404"><ele>173.0</ele><time>2026-03-29T09:11:09.999Z</time></trkpt><trkpt lat="38.825331003428495" lon="-9.310565978881957"><ele>173.0</ele><time>2026-03-29T09:11:11.999Z</time></trkpt><trkpt lat="38.82523280761283" lon="-9.31071116852576"><ele>172.75</ele><time>2026-03-29T09:11:15.999Z</time></trkpt><trkpt lat="38.82516632768857" lon="-9.310771426268214"><ele>172.5</ele><time>2026-03-29T09:11:16.999Z</time></trkpt><trkpt lat="38.825063511779646" lon="-9.31084184623536"><ele>172.25</ele><time>2026-03-29T09:11:17.999Z</time></trkpt><trkpt lat="38.8249582374548" lon="-9.310936245253837"><ele>172.0</ele><time>2026-03-29T09:11:18.999Z</time></trkpt><trkpt lat="38.82484109729878" lon="-9.311068314859023"><ele>172.0</ele><time>2026-03-29T09:11:19.999Z</time></trkpt><trkpt lat="38.824708576491254" lon="-9.311192997494208"><ele>172.0</ele><time>2026-03-29T09:11:20.999Z</time></trkpt><trkpt lat="38.82457751629062" lon="-9.3113163058413"><ele>172.0</ele><time>2026-03-29T09:11:22Z</time></trkpt><trkpt lat="38.824460484038724" lon="-9.3114055933812"><ele>172.0</ele><time>2026-03-29T09:11:23Z</time></trkpt><trkpt lat="38.82436644313528" lon="-9.311500542520303"><ele>172.0</ele><time>2026-03-29T09:11:24Z</time></trkpt><trkpt lat="38.82428783310825" lon="-9.311576089907915"><ele>172.0</ele><time>2026-03-29T09:11:25Z</time></trkpt><trkpt lat="38.824215001548026" lon="-9.31165264259936"><ele>172.0</ele><time>2026-03-29T09:11:26Z</time></trkpt><trkpt lat="38.82415267756995" lon="-9.311716412169337"><ele>172.0</ele><time>2026-03-29T09:11:27Z</time></trkpt><trkpt lat="38.824109734511445" lon="-9.311800275894209"><ele>172.0</ele><time>2026-03-29T09:11:29Z</time></trkpt><trkpt lat="38.824190579045116" lon="-9.311838605915767"><ele>172.0</ele><time>2026-03-29T09:11:31Z</time></trkpt><trkpt lat="38.824253892195784" lon="-9.311867628545896"><ele>172.0</ele><time>2026-03-29T09:11:47Z</time></trkpt><trkpt lat="38.82432904135069" lon="-9.311880776071936"><ele>172.0</ele><time>2026-03-29T09:11:49Z</time></trkpt><trkpt lat="38.82446144200489" lon="-9.311920144048363"><ele>172.0</ele><time>2026-03-29T09:11:51Z</time></trkpt><trkpt lat="38.824545535918105" lon="-9.311949985072038"><ele>172.0</ele><time>2026-03-29T09:11:52Z</time></trkpt><trkpt lat="38.824628775905026" lon="-9.311978637442111"><ele>172.0</ele><time>2026-03-29T09:11:53Z</time></trkpt><trkpt lat="38.824695389168305" lon="-9.312003828440266"><ele>172.0</ele><time>2026-03-29T09:11:54Z</time></trkpt><trkpt lat="38.824769275251974" lon="-9.312036841853775"><ele>172.0</ele><time>2026-03-29T09:11:55Z</time></trkpt><trkpt lat="38.82486964881427" lon="-9.312087069159144"><ele>172.0</ele><time>2026-03-29T09:11:56.999Z</time></trkpt><trkpt lat="38.82484298591898" lon="-9.312250638281503"><ele>170.39999999999998</ele><time>2026-03-29T09:11:57.999Z</time></trkpt><trkpt lat="38.82492247122273" lon="-9.312324319883809"><ele>168.79999999999998</ele><time>2026-03-29T09:12:01.999Z</time></trkpt><trkpt lat="38.82504387302825" lon="-9.312327514340371"><ele>167.2</ele><time>2026-03-29T09:12:03.999Z</time></trkpt><trkpt lat="38.825163588123274" lon="-9.3123871977678"><ele>165.6</ele><time>2026-03-29T09:12:05.999Z</time></trkpt><trkpt lat="38.82523778784005" lon="-9.312431547645335"><ele>164.0</ele><time>2026-03-29T09:12:06.999Z</time></trkpt><trkpt lat="38.82533112221411" lon="-9.312476072996896"><ele>163.79999999999998</ele><time>2026-03-29T09:12:07.999Z</time></trkpt><trkpt lat="38.825433851520664" lon="-9.312521302613188"><ele>163.6</ele><time>2026-03-29T09:12:08.999Z</time></trkpt><trkpt lat="38.8255383281735" lon="-9.312574763106182"><ele>163.4</ele><time>2026-03-29T09:12:09.999Z</time></trkpt><trkpt lat="38.82561783240258" lon="-9.31261499347102"><ele>163.2</ele><time>2026-03-29T09:12:10.999Z</time></trkpt><trkpt lat="38.825680499027165" lon="-9.312643077035453"><ele>163.0</ele><time>2026-03-29T09:12:11.999Z</time></trkpt><trkpt lat="38.82579506692828" lon="-9.312700279562426"><ele>163.0</ele><time>2026-03-29T09:12:13.999Z</time></trkpt><trkpt lat="38.82576976235658" lon="-9.312888599031368"><ele>163.0</ele><time>2026-03-29T09:12:15.999Z</time></trkpt><trkpt lat="38.82572057906524" lon="-9.313011488210583"><ele>163.0</ele><time>2026-03-29T09:12:16.999Z</time></trkpt><trkpt lat="38.82568338402316" lon="-9.313173491376345"><ele>163.0</ele><time>2026-03-29T09:12:17.999Z</time></trkpt><trkpt lat="38.825618233630316" lon="-9.31334692242549"><ele>164.0</ele><time>2026-03-29T09:12:18.999Z</time></trkpt><trkpt lat="38.8255691939305" lon="-9.313551495388966"><ele>165.0</ele><time>2026-03-29T09:12:19.999Z</time></trkpt><trkpt lat="38.825509395988156" lon="-9.313761789145673"><ele>166.0</ele><time>2026-03-29T09:12:20.999Z</time></trkpt><trkpt lat="38.82546257543167" lon="-9.31397319673156"><ele>167.0</ele><time>2026-03-29T09:12:21.999Z</time></trkpt><trkpt lat="38.8254236469685" lon="-9.314119052668417"><ele>168.0</ele><time>2026-03-29T09:12:22.999Z</time></trkpt><trkpt lat="38.82539720670138" lon="-9.314251728183056"><ele>169.0</ele><time>2026-03-29T09:12:23.999Z</time></trkpt><trkpt lat="38.82535822430163" lon="-9.314403678346606"><ele>170.0</ele><time>2026-03-29T09:12:24.999Z</time></trkpt><trkpt lat="38.82532528622412" lon="-9.314530210528797"><ele>170.0</ele><time>2026-03-29T09:12:25.999Z</time></trkpt><trkpt lat="38.8252999076166" lon="-9.314630745569762"><ele>170.0</ele><time>2026-03-29T09:12:26.999Z</time></trkpt><trkpt lat="38.82526508208707" lon="-9.31471802562521"><ele>170.0</ele><time>2026-03-29T09:12:27.999Z</time></trkpt><trkpt lat="38.82521429603344" lon="-9.314860260626109"><ele>170.0</ele><time>2026-03-29T09:12:29.999Z</time></trkpt><trkpt lat="38.825103662179906" lon="-9.314941038472513"><ele>170.0</ele><time>2026-03-29T09:12:31.999Z</time></trkpt><trkpt lat="38.82499746151668" lon="-9.314837350094436"><ele>169.0</ele><time>2026-03-29T09:12:32.999Z</time></trkpt><trkpt lat="38.82490551836635" lon="-9.314790333204867"><ele>168.0</ele><time>2026-03-29T09:12:33.999Z</time></trkpt><trkpt lat="38.82480885220602" lon="-9.314768035230614"><ele>167.0</ele><time>2026-03-29T09:12:34.999Z</time></trkpt><trkpt lat="38.824741771509466" lon="-9.314739602091882"><ele>166.0</ele><time>2026-03-29T09:12:35.999Z</time></trkpt><trkpt lat="38.82466660566434" lon="-9.314728775680646"><ele>165.0</ele><time>2026-03-29T09:12:37.999Z</time></trkpt><trkpt lat="38.82463754098221" lon="-9.314831102836703"><ele>164.0</ele><time>2026-03-29T09:12:38.999Z</time></trkpt><trkpt lat="38.8246143304073" lon="-9.314969595273286"><ele>164.0</ele><time>2026-03-29T09:12:39.999Z</time></trkpt><trkpt lat="38.824556577299376" lon="-9.31510423008367"><ele>164.0</ele><time>2026-03-29T09:12:40.999Z</time></trkpt><trkpt lat="38.82449120761572" lon="-9.315222873060966"><ele>164.0</ele><time>2026-03-29T09:12:41.999Z</time></trkpt><trkpt lat="38.824450035841" lon="-9.315342177440002"><ele>164.0</ele><time>2026-03-29T09:12:42.999Z</time></trkpt><trkpt lat="38.824435825573886" lon="-9.315481759184808"><ele>164.0</ele><time>2026-03-29T09:12:43.999Z</time></trkpt><trkpt lat="38.82443406154436" lon="-9.315639533675947"><ele>163.79999999999998</ele><time>2026-03-29T09:12:44.999Z</time></trkpt><trkpt lat="38.824409455849874" lon="-9.315742527384788"><ele>163.6</ele><time>2026-03-29T09:12:45.999Z</time></trkpt><trkpt lat="38.8243532590852" lon="-9.315824505178583"><ele>163.4</ele><time>2026-03-29T09:12:46.999Z</time></trkpt><trkpt lat="38.824263188955285" lon="-9.315895601530594"><ele>163.2</ele><time>2026-03-29T09:12:47.999Z</time></trkpt><trkpt lat="38.82417673007127" lon="-9.315979201082856"><ele>163.0</ele><time>2026-03-29T09:12:48.999Z</time></trkpt><trkpt lat="38.824122826024386" lon="-9.316075925267928"><ele>163.0</ele><time>2026-03-29T09:12:49.999Z</time></trkpt><trkpt lat="38.8240873822892" lon="-9.316168667496084"><ele>163.0</ele><time>2026-03-29T09:12:50.999Z</time></trkpt><trkpt lat="38.82404993007192" lon="-9.316253211228192"><ele>163.0</ele><time>2026-03-29T09:12:51.999Z</time></trkpt><trkpt lat="38.823992930539156" lon="-9.31636752397148"><ele>163.0</ele><time>2026-03-29T09:12:53.999Z</time></trkpt><trkpt lat="38.82389782515589" lon="-9.316435061487567"><ele>163.0</ele><time>2026-03-29T09:12:55.999Z</time></trkpt><trkpt lat="38.82385284689277" lon="-9.316606327598162"><ele>162.75</ele><time>2026-03-29T09:12:57.999Z</time></trkpt><trkpt lat="38.82382307341132" lon="-9.316785720325951"><ele>162.5</ele><time>2026-03-29T09:12:58.999Z</time></trkpt><trkpt lat="38.82379653958003" lon="-9.316986529109615"><ele>162.25</ele><time>2026-03-29T09:12:59.999Z</time></trkpt><trkpt lat="38.82377002871468" lon="-9.317145710136085"><ele>162.0</ele><time>2026-03-29T09:13:00.999Z</time></trkpt><trkpt lat="38.82375538908363" lon="-9.317250380678873"><ele>162.6</ele><time>2026-03-29T09:13:01.999Z</time></trkpt><trkpt lat="38.823732657195606" lon="-9.317346598826067"><ele>163.2</ele><time>2026-03-29T09:13:02.999Z</time></trkpt><trkpt lat="38.823703340668025" lon="-9.317453031438475"><ele>163.8</ele><time>2026-03-29T09:13:03.999Z</time></trkpt><trkpt lat="38.82367600843679" lon="-9.317562999021945"><ele>164.4</ele><time>2026-03-29T09:13:04.999Z</time></trkpt><trkpt lat="38.8236461009713" lon="-9.31769538488197"><ele>165.0</ele><time>2026-03-29T09:13:05.999Z</time></trkpt><trkpt lat="38.82361638254717" lon="-9.317868095866011"><ele>165.0</ele><time>2026-03-29T09:13:06.999Z</time></trkpt><trkpt lat="38.82358274737592" lon="-9.318060572760412"><ele>165.0</ele><time>2026-03-29T09:13:07.999Z</time></trkpt><trkpt lat="38.82355629287834" lon="-9.318256238029022"><ele>165.0</ele><time>2026-03-29T09:13:08.999Z</time></trkpt><trkpt lat="38.82352261666195" lon="-9.31842856704899"><ele>165.0</ele><time>2026-03-29T09:13:09.999Z</time></trkpt><trkpt lat="38.82348893882288" lon="-9.318617053203928"><ele>164.4</ele><time>2026-03-29T09:13:10.999Z</time></trkpt><trkpt lat="38.823460134504664" lon="-9.318799090157148"><ele>163.8</ele><time>2026-03-29T09:13:11.999Z</time></trkpt><trkpt lat="38.82344088339796" lon="-9.318954286088589"><ele>163.2</ele><time>2026-03-29T09:13:12.999Z</time></trkpt><trkpt lat="38.82341828941567" lon="-9.31906312366946"><ele>162.6</ele><time>2026-03-29T09:13:13.999Z</time></trkpt><trkpt lat="38.82340898712962" lon="-9.319148312847565"><ele>162.0</ele><time>2026-03-29T09:13:14.999Z</time></trkpt><trkpt lat="38.823427506733836" lon="-9.319245354044883"><ele>163.39999999999998</ele><time>2026-03-29T09:13:16.999Z</time></trkpt><trkpt lat="38.82352630212685" lon="-9.319249140664777"><ele>164.79999999999998</ele><time>2026-03-29T09:13:17.999Z</time></trkpt><trkpt lat="38.823600323301804" lon="-9.319276178315507"><ele>166.2</ele><time>2026-03-29T09:13:18.999Z</time></trkpt><trkpt lat="38.82374634671621" lon="-9.319290394011569"><ele>167.6</ele><time>2026-03-29T09:13:20.999Z</time></trkpt><trkpt lat="38.823834581519414" lon="-9.319307253056998"><ele>169.0</ele><time>2026-03-29T09:13:21.999Z</time></trkpt><trkpt lat="38.82390485270123" lon="-9.319318666961204"><ele>169.0</ele><time>2026-03-29T09:13:22.999Z</time></trkpt><trkpt lat="38.8239209189947" lon="-9.319629716542241"><ele>169.0</ele><time>2026-03-29T09:13:24Z</time></trkpt><trkpt lat="38.823949466778245" lon="-9.319834352970314"><ele>169.0</ele><time>2026-03-29T09:13:25Z</time></trkpt><trkpt lat="38.82397750503884" lon="-9.320036431038057"><ele>167.66666666666669</ele><time>2026-03-29T09:13:26Z</time></trkpt><trkpt lat="38.824015998153094" lon="-9.32024404490693"><ele>166.33333333333334</ele><time>2026-03-29T09:13:27Z</time></trkpt><trkpt lat="38.824085267140234" lon="-9.320414331642997"><ele>165.0</ele><time>2026-03-29T09:13:28.001Z</time></trkpt><trkpt lat="38.82420239385653" lon="-9.320497114785166"><ele>164.5</ele><time>2026-03-29T09:13:29.001Z</time></trkpt><trkpt lat="38.824305957080455" lon="-9.320605292579065"><ele>164.0</ele><time>2026-03-29T09:13:30.001Z</time></trkpt><trkpt lat="38.82438199120166" lon="-9.320715685918392"><ele>163.5</ele><time>2026-03-29T09:13:31.001Z</time></trkpt><trkpt lat="38.824419154245206" lon="-9.320851287172056"><ele>163.0</ele><time>2026-03-29T09:13:32.001Z</time></trkpt><trkpt lat="38.82440702884678" lon="-9.321019831866513"><ele>163.0</ele><time>2026-03-29T09:13:33.001Z</time></trkpt><trkpt lat="38.82440220101577" lon="-9.321216463901985"><ele>163.0</ele><time>2026-03-29T09:13:34.001Z</time></trkpt><trkpt lat="38.8243982113735" lon="-9.321409097674628"><ele>163.0</ele><time>2026-03-29T09:13:35.001Z</time></trkpt><trkpt lat="38.82440086346695" lon="-9.321606238515756"><ele>163.0</ele><time>2026-03-29T09:13:36.001Z</time></trkpt><trkpt lat="38.824384167398776" lon="-9.32178152828629"><ele>163.0</ele><time>2026-03-29T09:13:37.001Z</time></trkpt><trkpt lat="38.8243745885894" lon="-9.321939338328821"><ele>163.0</ele><time>2026-03-29T09:13:38.001Z</time></trkpt><trkpt lat="38.82436985719708" lon="-9.32206516596769"><ele>163.0</ele><time>2026-03-29T09:13:39.001Z</time></trkpt><trkpt lat="38.82436668125861" lon="-9.322170955588655"><ele>163.0</ele><time>2026-03-29T09:13:40.001Z</time></trkpt><trkpt lat="38.824354773762934" lon="-9.32226040683318"><ele>162.5</ele><time>2026-03-29T09:13:41.001Z</time></trkpt><trkpt lat="38.824334194910634" lon="-9.322362742448659"><ele>162.0</ele><time>2026-03-29T09:13:43.001Z</time></trkpt><trkpt lat="38.82418731928391" lon="-9.322336699731165"><ele>161.5</ele><time>2026-03-29T09:13:45.001Z</time></trkpt><trkpt lat="38.82409172269032" lon="-9.322251955557984"><ele>161.0</ele><time>2026-03-29T09:13:46.001Z</time></trkpt><trkpt lat="38.82397619376872" lon="-9.322155757316592"><ele>161.0</ele><time>2026-03-29T09:13:47.001Z</time></trkpt><trkpt lat="38.82383534835574" lon="-9.322085154841671"><ele>161.0</ele><time>2026-03-29T09:13:48.001Z</time></trkpt><trkpt lat="38.823689955763115" lon="-9.321987628223038"><ele>161.0</ele><time>2026-03-29T09:13:49.001Z</time></trkpt><trkpt lat="38.82353035470743" lon="-9.321884041669854"><ele>160.66666666666666</ele><time>2026-03-29T09:13:50.001Z</time></trkpt><trkpt lat="38.82335572649294" lon="-9.321792018506994"><ele>160.33333333333334</ele><time>2026-03-29T09:13:51.001Z</time></trkpt><trkpt lat="38.82315504299085" lon="-9.321718604451956"><ele>160.0</ele><time>2026-03-29T09:13:52.001Z</time></trkpt><trkpt lat="38.82293511271088" lon="-9.321662042134573"><ele>160.0</ele><time>2026-03-29T09:13:53Z</time></trkpt><trkpt lat="38.8227013559802" lon="-9.321602177637347"><ele>160.0</ele><time>2026-03-29T09:13:54Z</time></trkpt><trkpt lat="38.822463701421604" lon="-9.321540365129625"><ele>158.5</ele><time>2026-03-29T09:13:55Z</time></trkpt><trkpt lat="38.82222542848245" lon="-9.321482504780395"><ele>157.0</ele><time>2026-03-29T09:13:56Z</time></trkpt><trkpt lat="38.82201112117586" lon="-9.321389690042764"><ele>157.0</ele><time>2026-03-29T09:13:57Z</time></trkpt><trkpt lat="38.82181587127863" lon="-9.321338291759494"><ele>157.0</ele><time>2026-03-29T09:13:58Z</time></trkpt><trkpt lat="38.82162787040053" lon="-9.321295109328727"><ele>157.0</ele><time>2026-03-29T09:13:59Z</time></trkpt><trkpt lat="38.82143982285005" lon="-9.321249091111108"><ele>156.0</ele><time>2026-03-29T09:14:00Z</time></trkpt><trkpt lat="38.821254537646965" lon="-9.32124349924406"><ele>155.0</ele><time>2026-03-29T09:14:01Z</time></trkpt><trkpt lat="38.82108051081612" lon="-9.32120016187491"><ele>154.0</ele><time>2026-03-29T09:14:02Z</time></trkpt><trkpt lat="38.82091781964524" lon="-9.32115932732118"><ele>154.0</ele><time>2026-03-29T09:14:03Z</time></trkpt><trkpt lat="38.82075499006732" lon="-9.32111951782627"><ele>154.0</ele><time>2026-03-29T09:14:04Z</time></trkpt><trkpt lat="38.82058437249162" lon="-9.32107764386091"><ele>154.0</ele><time>2026-03-29T09:14:05Z</time></trkpt><trkpt lat="38.82040614088436" lon="-9.321033849984119"><ele>154.0</ele><time>2026-03-29T09:14:06Z</time></trkpt><trkpt lat="38.82022935084129" lon="-9.320990315977946"><ele>154.0</ele><time>2026-03-29T09:14:07Z</time></trkpt><trkpt lat="38.820052945322395" lon="-9.320946876681013"><ele>154.0</ele><time>2026-03-29T09:14:08Z</time></trkpt><trkpt lat="38.819868605231925" lon="-9.32090144453295"><ele>152.33333333333334</ele><time>2026-03-29T09:14:09Z</time></trkpt><trkpt lat="38.81969380965242" lon="-9.320858345056976"><ele>150.66666666666666</ele><time>2026-03-29T09:14:10Z</time></trkpt><trkpt lat="38.819544250140375" lon="-9.320822333627884"><ele>149.0</ele><time>2026-03-29T09:14:11Z</time></trkpt><trkpt lat="38.81940636051195" lon="-9.320788631896614"><ele>149.2</ele><time>2026-03-29T09:14:12Z</time></trkpt><trkpt lat="38.819284779364786" lon="-9.320758258780566"><ele>149.4</ele><time>2026-03-29T09:14:13Z</time></trkpt><trkpt lat="38.81917235339238" lon="-9.320731074864428"><ele>149.6</ele><time>2026-03-29T09:14:14Z</time></trkpt><trkpt lat="38.81907987624907" lon="-9.32070642189344"><ele>149.8</ele><time>2026-03-29T09:14:15Z</time></trkpt><trkpt lat="38.819002846894776" lon="-9.32068410677439"><ele>150.0</ele><time>2026-03-29T09:14:16Z</time></trkpt><trkpt lat="38.81892376623791" lon="-9.320670668352243"><ele>150.0</ele><time>2026-03-29T09:14:18Z</time></trkpt><trkpt lat="38.81893435126659" lon="-9.320840505439243"><ele>150.0</ele><time>2026-03-29T09:14:20Z</time></trkpt><trkpt lat="38.8189749166454" lon="-9.320931164741431"><ele>150.0</ele><time>2026-03-29T09:14:21Z</time></trkpt><trkpt lat="38.8189934034525" lon="-9.321043803396941"><ele>150.0</ele><time>2026-03-29T09:14:22Z</time></trkpt><trkpt lat="38.81898817738688" lon="-9.321166273560713"><ele>150.0</ele><time>2026-03-29T09:14:23Z</time></trkpt><trkpt lat="38.81897329281973" lon="-9.321330476040474"><ele>149.0</ele><time>2026-03-29T09:14:24Z</time></trkpt><trkpt lat="38.818958651600504" lon="-9.321472299607183"><ele>148.0</ele><time>2026-03-29T09:14:25Z</time></trkpt><trkpt lat="38.818947657918926" lon="-9.321581842204282"><ele>147.0</ele><time>2026-03-29T09:14:26Z</time></trkpt><trkpt lat="38.818935142426085" lon="-9.32171504909793"><ele>146.0</ele><time>2026-03-29T09:14:27Z</time></trkpt><trkpt lat="38.818929111116724" lon="-9.321849243779823"><ele>145.0</ele><time>2026-03-29T09:14:28Z</time></trkpt><trkpt lat="38.81892125980156" lon="-9.321975896365581"><ele>145.0</ele><time>2026-03-29T09:14:29Z</time></trkpt><trkpt lat="38.818894378720714" lon="-9.322101213993259"><ele>145.0</ele><time>2026-03-29T09:14:30Z</time></trkpt><trkpt lat="38.81885680781447" lon="-9.322182726329206"><ele>145.0</ele><time>2026-03-29T09:14:31Z</time></trkpt><trkpt lat="38.81883926280607" lon="-9.322291571721493"><ele>145.0</ele><time>2026-03-29T09:14:33Z</time></trkpt><trkpt lat="38.81881637966639" lon="-9.322380391989896"><ele>145.0</ele><time>2026-03-29T09:14:35Z</time></trkpt><trkpt lat="38.81879375653805" lon="-9.322482666453517"><ele>145.0</ele><time>2026-03-29T09:14:37Z</time></trkpt><trkpt lat="38.818767112991395" lon="-9.322620363298439"><ele>145.0</ele><time>2026-03-29T09:14:39Z</time></trkpt><trkpt lat="38.81874279429674" lon="-9.322805590824057"><ele>145.0</ele><time>2026-03-29T09:14:41Z</time></trkpt><trkpt lat="38.81872484753886" lon="-9.32292480507226"><ele>145.0</ele><time>2026-03-29T09:14:42Z</time></trkpt><trkpt lat="38.81870409977343" lon="-9.323047042348326"><ele>145.0</ele><time>2026-03-29T09:14:43Z</time></trkpt><trkpt lat="38.818662770835424" lon="-9.323188930366658"><ele>145.0</ele><time>2026-03-29T09:14:44Z</time></trkpt><trkpt lat="38.81859783342821" lon="-9.323336288819018"><ele>145.0</ele><time>2026-03-29T09:14:45Z</time></trkpt><trkpt lat="38.818562604744464" lon="-9.323470045569463"><ele>145.0</ele><time>2026-03-29T09:14:46Z</time></trkpt><trkpt lat="38.81853911465674" lon="-9.323568719994947"><ele>145.0</ele><time>2026-03-29T09:14:47Z</time></trkpt><trkpt lat="38.818541251231714" lon="-9.323658853486718"><ele>145.0</ele><time>2026-03-29T09:14:48Z</time></trkpt><trkpt lat="38.818526457510835" lon="-9.32374445434846"><ele>145.0</ele><time>2026-03-29T09:14:49Z</time></trkpt><trkpt lat="38.81853320094161" lon="-9.323839682536388"><ele>145.0</ele><time>2026-03-29T09:14:50Z</time></trkpt><trkpt lat="38.81854666061992" lon="-9.32393840811151"><ele>145.0</ele><time>2026-03-29T09:14:51Z</time></trkpt><trkpt lat="38.81855727591454" lon="-9.324027836313173"><ele>145.0</ele><time>2026-03-29T09:14:52Z</time></trkpt><trkpt lat="38.81855352908285" lon="-9.324162848296396"><ele>145.0</ele><time>2026-03-29T09:14:54Z</time></trkpt><trkpt lat="38.81854227901294" lon="-9.324259915539082"><ele>145.0</ele><time>2026-03-29T09:14:56Z</time></trkpt><trkpt lat="38.81852834620511" lon="-9.324370944796442"><ele>145.2</ele><time>2026-03-29T09:14:58Z</time></trkpt><trkpt lat="38.81850288017914" lon="-9.32447866935601"><ele>145.4</ele><time>2026-03-29T09:15:00Z</time></trkpt><trkpt lat="38.81845988145794" lon="-9.324590685123274"><ele>145.6</ele><time>2026-03-29T09:15:02Z</time></trkpt><trkpt lat="38.818441532671784" lon="-9.324741648760892"><ele>145.8</ele><time>2026-03-29T09:15:04Z</time></trkpt><trkpt lat="38.81841692550487" lon="-9.324889096795253"><ele>146.0</ele><time>2026-03-29T09:15:06Z</time></trkpt><trkpt lat="38.818395978801284" lon="-9.324977925741468"><ele>146.2</ele><time>2026-03-29T09:15:07Z</time></trkpt><trkpt lat="38.81838596490344" lon="-9.325079848975612"><ele>146.39999999999998</ele><time>2026-03-29T09:15:08Z</time></trkpt><trkpt lat="38.81836915734938" lon="-9.325189830396027"><ele>146.6</ele><time>2026-03-29T09:15:09Z</time></trkpt><trkpt lat="38.81836122881071" lon="-9.325307678442275"><ele>146.79999999999998</ele><time>2026-03-29T09:15:10Z</time></trkpt><trkpt lat="38.81837440367912" lon="-9.325450307540954"><ele>147.0</ele><time>2026-03-29T09:15:11Z</time></trkpt><trkpt lat="38.818439176813996" lon="-9.325627408460168"><ele>146.0</ele><time>2026-03-29T09:15:12Z</time></trkpt><trkpt lat="38.818505183440344" lon="-9.325795849998965"><ele>145.0</ele><time>2026-03-29T09:15:13Z</time></trkpt><trkpt lat="38.81855742411162" lon="-9.32594539458232"><ele>144.0</ele><time>2026-03-29T09:15:14Z</time></trkpt><trkpt lat="38.818601508231964" lon="-9.326076912686874"><ele>143.0</ele><time>2026-03-29T09:15:15Z</time></trkpt><trkpt lat="38.81863806815573" lon="-9.3261982361386"><ele>143.0</ele><time>2026-03-29T09:15:16Z</time></trkpt><trkpt lat="38.818667840078426" lon="-9.3263094442442"><ele>143.0</ele><time>2026-03-29T09:15:17Z</time></trkpt><trkpt lat="38.818694839392585" lon="-9.32640083705114"><ele>143.0</ele><time>2026-03-29T09:15:18Z</time></trkpt><trkpt lat="38.818731604475715" lon="-9.326527400708096"><ele>143.0</ele><time>2026-03-29T09:15:20Z</time></trkpt><trkpt lat="38.81873719145312" lon="-9.326620819129241"><ele>143.0</ele><time>2026-03-29T09:15:24Z</time></trkpt><trkpt lat="38.818705843082846" lon="-9.326737681442953"><ele>143.0</ele><time>2026-03-29T09:15:38Z</time></trkpt><trkpt lat="38.81864364467614" lon="-9.326774169711145"><ele>143.20000000000002</ele><time>2026-03-29T09:15:39Z</time></trkpt><trkpt lat="38.818544869779544" lon="-9.326796089280624"><ele>143.4</ele><time>2026-03-29T09:15:40Z</time></trkpt><trkpt lat="38.81842956107728" lon="-9.326822424107503"><ele>143.60000000000002</ele><time>2026-03-29T09:15:41Z</time></trkpt><trkpt lat="38.81831382084549" lon="-9.326849311675586"><ele>143.8</ele><time>2026-03-29T09:15:42Z</time></trkpt><trkpt lat="38.81820453915631" lon="-9.326868662400468"><ele>144.0</ele><time>2026-03-29T09:15:43Z</time></trkpt><trkpt lat="38.81810128794834" lon="-9.3268789200684"><ele>144.0</ele><time>2026-03-29T09:15:44Z</time></trkpt><trkpt lat="38.818006918642666" lon="-9.326898378866632"><ele>144.0</ele><time>2026-03-29T09:15:45Z</time></trkpt><trkpt lat="38.81790967797735" lon="-9.326999053481352"><ele>144.0</ele><time>2026-03-29T09:15:46Z</time></trkpt><trkpt lat="38.817837918828374" lon="-9.327027617486127"><ele>144.0</ele><time>2026-03-29T09:15:47Z</time></trkpt><trkpt lat="38.81777107030375" lon="-9.32706027939201"><ele>144.0</ele><time>2026-03-29T09:15:48Z</time></trkpt><trkpt lat="38.81773389182947" lon="-9.327150155853063"><ele>144.0</ele><time>2026-03-29T09:15:49Z</time></trkpt><trkpt lat="38.81776481859158" lon="-9.327294755974576"><ele>143.57142857142858</ele><time>2026-03-29T09:15:50Z</time></trkpt><trkpt lat="38.817750718951" lon="-9.327393088900909"><ele>143.14285714285714</ele><time>2026-03-29T09:15:51Z</time></trkpt><trkpt lat="38.81774011445632" lon="-9.327476824799847"><ele>142.71428571428572</ele><time>2026-03-29T09:15:52Z</time></trkpt><trkpt lat="38.81772031129633" lon="-9.32755910348468"><ele>142.28571428571428</ele><time>2026-03-29T09:15:53Z</time></trkpt><trkpt lat="38.81768009813953" lon="-9.327634293979616"><ele>141.85714285714286</ele><time>2026-03-29T09:15:54Z</time></trkpt><trkpt lat="38.817640965306424" lon="-9.32770845115977"><ele>141.42857142857144</ele><time>2026-03-29T09:15:55Z</time></trkpt><trkpt lat="38.81760206605132" lon="-9.327772776806336"><ele>141.0</ele><time>2026-03-29T09:15:56Z</time></trkpt><trkpt lat="38.8175523442582" lon="-9.327898383939711"><ele>142.0</ele><time>2026-03-29T09:15:58Z</time></trkpt><trkpt lat="38.817493769872804" lon="-9.328027547700628"><ele>143.0</ele><time>2026-03-29T09:16:00Z</time></trkpt><trkpt lat="38.81746627898906" lon="-9.328104629351904"><ele>144.0</ele><time>2026-03-29T09:16:01Z</time></trkpt><trkpt lat="38.817439878482276" lon="-9.328196604005951"><ele>145.0</ele><time>2026-03-29T09:16:02Z</time></trkpt><trkpt lat="38.81741069373328" lon="-9.328305363260297"><ele>146.0</ele><time>2026-03-29T09:16:03Z</time></trkpt><trkpt lat="38.817378254118395" lon="-9.328415888441935"><ele>147.0</ele><time>2026-03-29T09:16:04Z</time></trkpt><trkpt lat="38.81733799383035" lon="-9.328524654486815"><ele>147.4</ele><time>2026-03-29T09:16:05Z</time></trkpt><trkpt lat="38.81729113734213" lon="-9.328635372389735"><ele>147.79999999999998</ele><time>2026-03-29T09:16:06Z</time></trkpt><trkpt lat="38.81723845415199" lon="-9.328746646893984"><ele>148.2</ele><time>2026-03-29T09:16:07Z</time></trkpt><trkpt lat="38.81718693027197" lon="-9.32884899584786"><ele>148.6</ele><time>2026-03-29T09:16:08Z</time></trkpt><trkpt lat="38.81713733767174" lon="-9.32894488598439"><ele>149.0</ele><time>2026-03-29T09:16:09Z</time></trkpt><trkpt lat="38.81708098325838" lon="-9.3290398407048"><ele>149.16666666666666</ele><time>2026-03-29T09:16:10Z</time></trkpt><trkpt lat="38.81701466098308" lon="-9.32912354806492"><ele>149.33333333333331</ele><time>2026-03-29T09:16:11Z</time></trkpt><trkpt lat="38.8169804937406" lon="-9.329208506117782"><ele>149.5</ele><time>2026-03-29T09:16:12Z</time></trkpt><trkpt lat="38.81695360636102" lon="-9.329297215792122"><ele>149.66666666666666</ele><time>2026-03-29T09:16:13Z</time></trkpt><trkpt lat="38.81692739586768" lon="-9.329391213651226"><ele>149.83333333333334</ele><time>2026-03-29T09:16:14Z</time></trkpt><trkpt lat="38.81689669856076" lon="-9.329502516270427"><ele>150.0</ele><time>2026-03-29T09:16:15Z</time></trkpt><trkpt lat="38.81685904183078" lon="-9.329613560150948"><ele>150.6</ele><time>2026-03-29T09:16:16Z</time></trkpt><trkpt lat="38.81680207866597" lon="-9.329747683259033"><ele>151.2</ele><time>2026-03-29T09:16:17Z</time></trkpt><trkpt lat="38.816750287583076" lon="-9.329866500750873"><ele>151.8</ele><time>2026-03-29T09:16:18Z</time></trkpt><trkpt lat="38.81672451180831" lon="-9.329948709337575"><ele>152.4</ele><time>2026-03-29T09:16:19Z</time></trkpt><trkpt lat="38.81670686932538" lon="-9.330036689648244"><ele>153.0</ele><time>2026-03-29T09:16:32Z</time></trkpt><trkpt lat="38.81681867452952" lon="-9.330126611612753"><ele>152.16666666666666</ele><time>2026-03-29T09:16:34Z</time></trkpt><trkpt lat="38.81688913855601" lon="-9.330191047090794"><ele>151.33333333333334</ele><time>2026-03-29T09:16:35Z</time></trkpt><trkpt lat="38.81696382015104" lon="-9.330265309430667"><ele>150.5</ele><time>2026-03-29T09:16:36Z</time></trkpt><trkpt lat="38.81703684977261" lon="-9.330345616845007"><ele>149.66666666666669</ele><time>2026-03-29T09:16:37Z</time></trkpt><trkpt lat="38.81708056621487" lon="-9.330423884305384"><ele>148.83333333333334</ele><time>2026-03-29T09:16:38Z</time></trkpt><trkpt lat="38.81711080922017" lon="-9.330498114482925"><ele>148.0</ele><time>2026-03-29T09:16:39Z</time></trkpt><trkpt lat="38.81709816516446" lon="-9.330588819577939"><ele>148.0</ele><time>2026-03-29T09:16:40Z</time></trkpt><trkpt lat="38.81704941791463" lon="-9.330671228190024"><ele>148.0</ele><time>2026-03-29T09:16:41Z</time></trkpt><trkpt lat="38.81700316511264" lon="-9.330766057668416"><ele>148.0</ele><time>2026-03-29T09:16:42Z</time></trkpt><trkpt lat="38.816927044546055" lon="-9.330870258536368"><ele>148.0</ele><time>2026-03-29T09:16:43Z</time></trkpt><trkpt lat="38.816843107180695" lon="-9.330945272038209"><ele>148.0</ele><time>2026-03-29T09:16:44Z</time></trkpt><trkpt lat="38.81678695531073" lon="-9.331063187732207"><ele>149.0</ele><time>2026-03-29T09:16:45Z</time></trkpt><trkpt lat="38.81674155064488" lon="-9.331178289401077"><ele>150.0</ele><time>2026-03-29T09:16:46Z</time></trkpt><trkpt lat="38.81669978800283" lon="-9.331297995617899"><ele>151.0</ele><time>2026-03-29T09:16:47Z</time></trkpt><trkpt lat="38.816664658868184" lon="-9.33143840880914"><ele>152.0</ele><time>2026-03-29T09:16:48Z</time></trkpt><trkpt lat="38.81664890371215" lon="-9.331568918976725"><ele>153.0</ele><time>2026-03-29T09:16:49Z</time></trkpt><trkpt lat="38.81662372051227" lon="-9.331694437182756"><ele>153.0</ele><time>2026-03-29T09:16:50Z</time></trkpt><trkpt lat="38.81659801179805" lon="-9.331829622714263"><ele>153.0</ele><time>2026-03-29T09:16:51Z</time></trkpt><trkpt lat="38.81657049973293" lon="-9.33197942754689"><ele>153.0</ele><time>2026-03-29T09:16:52Z</time></trkpt><trkpt lat="38.81653474832647" lon="-9.332127828265227"><ele>153.0</ele><time>2026-03-29T09:16:53Z</time></trkpt><trkpt lat="38.81651241926054" lon="-9.332261490535902"><ele>153.0</ele><time>2026-03-29T09:16:54Z</time></trkpt><trkpt lat="38.816489581132515" lon="-9.332385620749884"><ele>153.0</ele><time>2026-03-29T09:16:55Z</time></trkpt><trkpt lat="38.81647128667725" lon="-9.332498909509141"><ele>153.0</ele><time>2026-03-29T09:16:56Z</time></trkpt><trkpt lat="38.816453793850656" lon="-9.332606465123046"><ele>153.0</ele><time>2026-03-29T09:16:57Z</time></trkpt><trkpt lat="38.81643739728316" lon="-9.332703045833307"><ele>153.0</ele><time>2026-03-29T09:16:58Z</time></trkpt><trkpt lat="38.81645224141513" lon="-9.33280536857649"><ele>153.0</ele><time>2026-03-29T09:16:59Z</time></trkpt><trkpt lat="38.81648041142774" lon="-9.332926077344624"><ele>153.20000000000002</ele><time>2026-03-29T09:17:00Z</time></trkpt><trkpt lat="38.81650623937498" lon="-9.333062932924365"><ele>153.4</ele><time>2026-03-29T09:17:01Z</time></trkpt><trkpt lat="38.81651298975947" lon="-9.33319465811695"><ele>153.60000000000002</ele><time>2026-03-29T09:17:02Z</time></trkpt><trkpt lat="38.81649876147923" lon="-9.33330610848615"><ele>153.8</ele><time>2026-03-29T09:17:03Z</time></trkpt><trkpt lat="38.81644636341422" lon="-9.333416723605083"><ele>154.0</ele><time>2026-03-29T09:17:04Z</time></trkpt><trkpt lat="38.81639430401024" lon="-9.333549916727021"><ele>154.0</ele><time>2026-03-29T09:17:05Z</time></trkpt><trkpt lat="38.81634194126372" lon="-9.333663450918722"><ele>154.0</ele><time>2026-03-29T09:17:06Z</time></trkpt><trkpt lat="38.816293592743996" lon="-9.333764729071822"><ele>154.0</ele><time>2026-03-29T09:17:07Z</time></trkpt><trkpt lat="38.8162370213336" lon="-9.33385244023964"><ele>154.0</ele><time>2026-03-29T09:17:08Z</time></trkpt><trkpt lat="38.816181630406774" lon="-9.333926354532851"><ele>154.0</ele><time>2026-03-29T09:17:09Z</time></trkpt><trkpt lat="38.81614910535023" lon="-9.33401291627175"><ele>154.0</ele><time>2026-03-29T09:17:10Z</time></trkpt><trkpt lat="38.816117212378025" lon="-9.334100524348884"><ele>153.8</ele><time>2026-03-29T09:17:11Z</time></trkpt><trkpt lat="38.81610172452538" lon="-9.334198201334633"><ele>153.60000000000002</ele><time>2026-03-29T09:17:12Z</time></trkpt><trkpt lat="38.81606845150875" lon="-9.334304231273181"><ele>153.4</ele><time>2026-03-29T09:17:13Z</time></trkpt><trkpt lat="38.816037490363456" lon="-9.334428623818818"><ele>153.20000000000002</ele><time>2026-03-29T09:17:14Z</time></trkpt><trkpt lat="38.81600635399705" lon="-9.334544042543214"><ele>153.0</ele><time>2026-03-29T09:17:15Z</time></trkpt><trkpt lat="38.815979199589485" lon="-9.334658464823674"><ele>153.4</ele><time>2026-03-29T09:17:16Z</time></trkpt><trkpt lat="38.81598159025495" lon="-9.334760737715396"><ele>153.8</ele><time>2026-03-29T09:17:17Z</time></trkpt><trkpt lat="38.81601939383271" lon="-9.334846987018599"><ele>154.2</ele><time>2026-03-29T09:17:18Z</time></trkpt><trkpt lat="38.81609881277377" lon="-9.334899176239201"><ele>154.6</ele><time>2026-03-29T09:17:19Z</time></trkpt><trkpt lat="38.81618744613599" lon="-9.33498203135062"><ele>155.0</ele><time>2026-03-29T09:17:20Z</time></trkpt><trkpt lat="38.81627540756579" lon="-9.335077483707703"><ele>154.2</ele><time>2026-03-29T09:17:21Z</time></trkpt><trkpt lat="38.81636637943256" lon="-9.335176583406403"><ele>153.4</ele><time>2026-03-29T09:17:22Z</time></trkpt><trkpt lat="38.8164458236703" lon="-9.335276045883601"><ele>152.6</ele><time>2026-03-29T09:17:23Z</time></trkpt><trkpt lat="38.81651015132736" lon="-9.335369636233786"><ele>151.8</ele><time>2026-03-29T09:17:24Z</time></trkpt><trkpt lat="38.81657030080947" lon="-9.335489024753969"><ele>151.0</ele><time>2026-03-29T09:17:25Z</time></trkpt><trkpt lat="38.81662835755685" lon="-9.335634052611162"><ele>151.0</ele><time>2026-03-29T09:17:26Z</time></trkpt><trkpt lat="38.81667972042172" lon="-9.3357871806544"><ele>151.0</ele><time>2026-03-29T09:17:27Z</time></trkpt><trkpt lat="38.816718511136926" lon="-9.335912621080498"><ele>151.0</ele><time>2026-03-29T09:17:28Z</time></trkpt><trkpt lat="38.8167505951974" lon="-9.336006909652934"><ele>151.0</ele><time>2026-03-29T09:17:29Z</time></trkpt><trkpt lat="38.81678240192731" lon="-9.336103645722217"><ele>151.0</ele><time>2026-03-29T09:17:30Z</time></trkpt><trkpt lat="38.816804280569905" lon="-9.336186988604108"><ele>151.0</ele><time>2026-03-29T09:17:31Z</time></trkpt><trkpt lat="38.81681273961429" lon="-9.336276424257761"><ele>151.0</ele><time>2026-03-29T09:17:32Z</time></trkpt><trkpt lat="38.81680165795517" lon="-9.336382036342606"><ele>151.0</ele><time>2026-03-29T09:17:33Z</time></trkpt><trkpt lat="38.81677831499162" lon="-9.336475523857711"><ele>151.0</ele><time>2026-03-29T09:17:34Z</time></trkpt><trkpt lat="38.81674708272428" lon="-9.336549312182346"><ele>151.0</ele><time>2026-03-29T09:17:35Z</time></trkpt><trkpt lat="38.81667952779705" lon="-9.336653074292085"><ele>151.0</ele><time>2026-03-29T09:17:37Z</time></trkpt><trkpt lat="38.81657482565948" lon="-9.336583546178238"><ele>151.0</ele><time>2026-03-29T09:17:39Z</time></trkpt><trkpt lat="38.816514895525145" lon="-9.336515220897342"><ele>151.0</ele><time>2026-03-29T09:17:40Z</time></trkpt><trkpt lat="38.81645297548919" lon="-9.336447259910559"><ele>151.0</ele><time>2026-03-29T09:17:41Z</time></trkpt><trkpt lat="38.81635185255947" lon="-9.33640029422615"><ele>151.0</ele><time>2026-03-29T09:17:43Z</time></trkpt><trkpt lat="38.8162760054666" lon="-9.336298094837252"><ele>151.0</ele><time>2026-03-29T09:18:11Z</time></trkpt><trkpt lat="38.81617353816371" lon="-9.336283582324151"><ele>151.0</ele><time>2026-03-29T09:18:12Z</time></trkpt><trkpt lat="38.81606835636108" lon="-9.336224043394035"><ele>151.0</ele><time>2026-03-29T09:18:13Z</time></trkpt><trkpt lat="38.81595095709286" lon="-9.336160723839741"><ele>151.0</ele><time>2026-03-29T09:18:14Z</time></trkpt><trkpt lat="38.815815904248424" lon="-9.336089816080856"><ele>151.0</ele><time>2026-03-29T09:18:15Z</time></trkpt><trkpt lat="38.815682063129216" lon="-9.336020222902855"><ele>151.2</ele><time>2026-03-29T09:18:16Z</time></trkpt><trkpt lat="38.81555949911107" lon="-9.335958556174084"><ele>151.39999999999998</ele><time>2026-03-29T09:18:17Z</time></trkpt><trkpt lat="38.8154467094129" lon="-9.335904755695294"><ele>151.6</ele><time>2026-03-29T09:18:18Z</time></trkpt><trkpt lat="38.815363729439966" lon="-9.335876882818905"><ele>151.79999999999998</ele><time>2026-03-29T09:18:19Z</time></trkpt><trkpt lat="38.81528999121234" lon="-9.335883473190254"><ele>152.0</ele><time>2026-03-29T09:18:21Z</time></trkpt><trkpt lat="38.81527288168687" lon="-9.335963154976133"><ele>152.0</ele><time>2026-03-29T09:18:25Z</time></trkpt><trkpt lat="38.81526000825231" lon="-9.336087735058703"><ele>152.0</ele><time>2026-03-29T09:18:28Z</time></trkpt><trkpt lat="38.81522338005611" lon="-9.336167523821267"><ele>152.0</ele><time>2026-03-29T09:18:29Z</time></trkpt><trkpt lat="38.81517369925765" lon="-9.336285425351068"><ele>152.0</ele><time>2026-03-29T09:18:30Z</time></trkpt><trkpt lat="38.815135099065245" lon="-9.336418411568127"><ele>152.0</ele><time>2026-03-29T09:18:31Z</time></trkpt><trkpt lat="38.81511556362673" lon="-9.33656771998747"><ele>151.0</ele><time>2026-03-29T09:18:32Z</time></trkpt><trkpt lat="38.815112494963415" lon="-9.336742150401617"><ele>150.0</ele><time>2026-03-29T09:18:33Z</time></trkpt><trkpt lat="38.815117466846964" lon="-9.336946155627817"><ele>149.0</ele><time>2026-03-29T09:18:34Z</time></trkpt><trkpt lat="38.81513227660383" lon="-9.337182071542317"><ele>149.0</ele><time>2026-03-29T09:18:35Z</time></trkpt><trkpt lat="38.81514193833641" lon="-9.337437622473482"><ele>149.0</ele><time>2026-03-29T09:18:36Z</time></trkpt><trkpt lat="38.81515765281106" lon="-9.337705357208296"><ele>149.0</ele><time>2026-03-29T09:18:37Z</time></trkpt><trkpt lat="38.81516895552631" lon="-9.337958882538137"><ele>148.0</ele><time>2026-03-29T09:18:38Z</time></trkpt><trkpt lat="38.815179228507596" lon="-9.33817960580674"><ele>147.0</ele><time>2026-03-29T09:18:39Z</time></trkpt><trkpt lat="38.815186024984435" lon="-9.338363942741218"><ele>146.0</ele><time>2026-03-29T09:18:40Z</time></trkpt><trkpt lat="38.81520059006947" lon="-9.338540318868754"><ele>146.0</ele><time>2026-03-29T09:18:41Z</time></trkpt><trkpt lat="38.815257214840116" lon="-9.33868624773303"><ele>146.0</ele><time>2026-03-29T09:18:42Z</time></trkpt><trkpt lat="38.815323514262644" lon="-9.338793530209328"><ele>146.0</ele><time>2026-03-29T09:18:43Z</time></trkpt><trkpt lat="38.815401011144985" lon="-9.338866405388492"><ele>146.0</ele><time>2026-03-29T09:18:44Z</time></trkpt><trkpt lat="38.81542291233972" lon="-9.338976992866561"><ele>146.0</ele><time>2026-03-29T09:18:45Z</time></trkpt><trkpt lat="38.815429735294465" lon="-9.339062448056762"><ele>145.8</ele><time>2026-03-29T09:18:46Z</time></trkpt><trkpt lat="38.81539395344205" lon="-9.339153141142559"><ele>145.6</ele><time>2026-03-29T09:18:47Z</time></trkpt><trkpt lat="38.81533329797139" lon="-9.339253261063932"><ele>145.4</ele><time>2026-03-29T09:18:48Z</time></trkpt><trkpt lat="38.815211302573225" lon="-9.339288691389996"><ele>145.2</ele><time>2026-03-29T09:18:49Z</time></trkpt><trkpt lat="38.81508526010524" lon="-9.339244299471797"><ele>145.0</ele><time>2026-03-29T09:18:50Z</time></trkpt><trkpt lat="38.81498154538041" lon="-9.339178766246274"><ele>144.8</ele><time>2026-03-29T09:18:51Z</time></trkpt><trkpt lat="38.814983396133485" lon="-9.339039067987615"><ele>144.6</ele><time>2026-03-29T09:18:52Z</time></trkpt><trkpt lat="38.814961163970935" lon="-9.33890613508899"><ele>144.4</ele><time>2026-03-29T09:18:53Z</time></trkpt><trkpt lat="38.815020325079885" lon="-9.33879026716818"><ele>144.2</ele><time>2026-03-29T09:18:54Z</time></trkpt><trkpt lat="38.815091476207755" lon="-9.338678244956713"><ele>144.0</ele><time>2026-03-29T09:18:55Z</time></trkpt><trkpt lat="38.815123452572905" lon="-9.338472078376913"><ele>145.66666666666666</ele><time>2026-03-29T09:18:56Z</time></trkpt><trkpt lat="38.81510701146649" lon="-9.338249439844567"><ele>147.33333333333331</ele><time>2026-03-29T09:18:57Z</time></trkpt><trkpt lat="38.81509418751026" lon="-9.338048958853909"><ele>149.0</ele><time>2026-03-29T09:18:58Z</time></trkpt><trkpt lat="38.81509131232295" lon="-9.337869690999005"><ele>149.0</ele><time>2026-03-29T09:18:59Z</time></trkpt><trkpt lat="38.81508262424339" lon="-9.337697769327175"><ele>149.0</ele><time>2026-03-29T09:19:00Z</time></trkpt><trkpt lat="38.815078689443325" lon="-9.337603000997817"><ele>149.0</ele><time>2026-03-29T09:19:01Z</time></trkpt><trkpt lat="38.814887453730286" lon="-9.337577779690015"><ele>149.0</ele><time>2026-03-29T09:19:03Z</time></trkpt><trkpt lat="38.81479649299139" lon="-9.33760046221693"><ele>149.0</ele><time>2026-03-29T09:19:04Z</time></trkpt><trkpt lat="38.81471775749055" lon="-9.337689086572606"><ele>149.0</ele><time>2026-03-29T09:19:05Z</time></trkpt><trkpt lat="38.814610516050806" lon="-9.337782708974801"><ele>149.0</ele><time>2026-03-29T09:19:06Z</time></trkpt><trkpt lat="38.814466509832826" lon="-9.33787485228717"><ele>149.0</ele><time>2026-03-29T09:19:07Z</time></trkpt><trkpt lat="38.81432814589987" lon="-9.337955022719193"><ele>149.33333333333331</ele><time>2026-03-29T09:19:08Z</time></trkpt><trkpt lat="38.81418570644212" lon="-9.338026739222082"><ele>149.66666666666666</ele><time>2026-03-29T09:19:09Z</time></trkpt><trkpt lat="38.814022434717415" lon="-9.338089974254471"><ele>150.0</ele><time>2026-03-29T09:19:10Z</time></trkpt><trkpt lat="38.81385661103778" lon="-9.338128562986201"><ele>150.0</ele><time>2026-03-29T09:19:11Z</time></trkpt><trkpt lat="38.81369571016894" lon="-9.338182823911234"><ele>150.0</ele><time>2026-03-29T09:19:12Z</time></trkpt><trkpt lat="38.81355910229234" lon="-9.338272661881012"><ele>150.0</ele><time>2026-03-29T09:19:13Z</time></trkpt><trkpt lat="38.81340236314606" lon="-9.338385516629856"><ele>152.0</ele><time>2026-03-29T09:19:14Z</time></trkpt><trkpt lat="38.81325717833157" lon="-9.338498070452959"><ele>154.0</ele><time>2026-03-29T09:19:15Z</time></trkpt><trkpt lat="38.813124943830864" lon="-9.338630807012159"><ele>156.0</ele><time>2026-03-29T09:19:16Z</time></trkpt><trkpt lat="38.81294804008203" lon="-9.33873984845738"><ele>155.0</ele><time>2026-03-29T09:19:17Z</time></trkpt><trkpt lat="38.81284002703203" lon="-9.338914799229482"><ele>154.0</ele><time>2026-03-29T09:19:18Z</time></trkpt><trkpt lat="38.81275481994839" lon="-9.339066899356679"><ele>153.0</ele><time>2026-03-29T09:19:19Z</time></trkpt><trkpt lat="38.81267688925477" lon="-9.33922362123988"><ele>153.75</ele><time>2026-03-29T09:19:20Z</time></trkpt><trkpt lat="38.81264411046609" lon="-9.339407848993076"><ele>154.5</ele><time>2026-03-29T09:19:21Z</time></trkpt><trkpt lat="38.812574183353334" lon="-9.339558170639163"><ele>155.25</ele><time>2026-03-29T09:19:22Z</time></trkpt><trkpt lat="38.81250270051718" lon="-9.339703287718818"><ele>156.0</ele><time>2026-03-29T09:19:23Z</time></trkpt><trkpt lat="38.81243869637491" lon="-9.339830232537757"><ele>156.0</ele><time>2026-03-29T09:19:24Z</time></trkpt><trkpt lat="38.81238099312396" lon="-9.33995611764926"><ele>156.0</ele><time>2026-03-29T09:19:25Z</time></trkpt><trkpt lat="38.81233636847457" lon="-9.340071973366395"><ele>156.0</ele><time>2026-03-29T09:19:26Z</time></trkpt><trkpt lat="38.81232416998928" lon="-9.340173153283855"><ele>156.0</ele><time>2026-03-29T09:19:27Z</time></trkpt><trkpt lat="38.81243511540768" lon="-9.340316081138491"><ele>156.0</ele><time>2026-03-29T09:19:29Z</time></trkpt><trkpt lat="38.81247055169462" lon="-9.340406783987357"><ele>156.0</ele><time>2026-03-29T09:19:30Z</time></trkpt><trkpt lat="38.812468024597884" lon="-9.340506035195524"><ele>156.0</ele><time>2026-03-29T09:19:31Z</time></trkpt><trkpt lat="38.81229201926624" lon="-9.340378991172445"><ele>156.0</ele><time>2026-03-29T09:19:34Z</time></trkpt><trkpt lat="38.81220660301774" lon="-9.340299296171867"><ele>156.0</ele><time>2026-03-29T09:19:35Z</time></trkpt><trkpt lat="38.812107786331396" lon="-9.340244281237823"><ele>156.0</ele><time>2026-03-29T09:19:36Z</time></trkpt><trkpt lat="38.811985951756526" lon="-9.340209129581355"><ele>156.0</ele><time>2026-03-29T09:19:37Z</time></trkpt><trkpt lat="38.81186192879397" lon="-9.340168485497781"><ele>156.0</ele><time>2026-03-29T09:19:38Z</time></trkpt><trkpt lat="38.811726810737774" lon="-9.340125446249953"><ele>158.6</ele><time>2026-03-29T09:19:39Z</time></trkpt><trkpt lat="38.81160725443824" lon="-9.340090704237467"><ele>161.2</ele><time>2026-03-29T09:19:40Z</time></trkpt><trkpt lat="38.811520733612646" lon="-9.340077317118837"><ele>163.79999999999998</ele><time>2026-03-29T09:19:41Z</time></trkpt><trkpt lat="38.81144968233735" lon="-9.340183577338722"><ele>166.39999999999998</ele><time>2026-03-29T09:19:43Z</time></trkpt><trkpt lat="38.81140687862054" lon="-9.340281284701481"><ele>169.0</ele><time>2026-03-29T09:19:44Z</time></trkpt><trkpt lat="38.81136531194017" lon="-9.340395357315376"><ele>169.0</ele><time>2026-03-29T09:19:45Z</time></trkpt><trkpt lat="38.81131892126152" lon="-9.34051591345961"><ele>169.0</ele><time>2026-03-29T09:19:46Z</time></trkpt><trkpt lat="38.811268650459645" lon="-9.340650882142329"><ele>169.0</ele><time>2026-03-29T09:19:47Z</time></trkpt><trkpt lat="38.81122310017606" lon="-9.340782312912502"><ele>169.0</ele><time>2026-03-29T09:19:48Z</time></trkpt><trkpt lat="38.811186570525344" lon="-9.340902088453012"><ele>169.0</ele><time>2026-03-29T09:19:49Z</time></trkpt><trkpt lat="38.81114762699481" lon="-9.340990452734884"><ele>169.79999999999998</ele><time>2026-03-29T09:19:50Z</time></trkpt><trkpt lat="38.81110335761393" lon="-9.341070590936138"><ele>170.6</ele><time>2026-03-29T09:19:51Z</time></trkpt><trkpt lat="38.81106022471915" lon="-9.34113124226634"><ele>171.4</ele><time>2026-03-29T09:19:52Z</time></trkpt><trkpt lat="38.8109050909363" lon="-9.341068049291911"><ele>172.2</ele><time>2026-03-29T09:19:53Z</time></trkpt><trkpt lat="38.8108282639095" lon="-9.340999279821817"><ele>173.0</ele><time>2026-03-29T09:19:54Z</time></trkpt><trkpt lat="38.81072392919464" lon="-9.340924168879509"><ele>174.2</ele><time>2026-03-29T09:19:55Z</time></trkpt><trkpt lat="38.810599126508635" lon="-9.34088089855546"><ele>175.4</ele><time>2026-03-29T09:19:56Z</time></trkpt><trkpt lat="38.81049390024845" lon="-9.340829902800861"><ele>176.6</ele><time>2026-03-29T09:19:57Z</time></trkpt><trkpt lat="38.81039715042048" lon="-9.340784330965699"><ele>177.79999999999998</ele><time>2026-03-29T09:19:58Z</time></trkpt><trkpt lat="38.810306081510966" lon="-9.340741435032516"><ele>179.0</ele><time>2026-03-29T09:19:59Z</time></trkpt><trkpt lat="38.810207802142884" lon="-9.340697281376052"><ele>178.25</ele><time>2026-03-29T09:20:00Z</time></trkpt><trkpt lat="38.81009277193848" lon="-9.340646057494961"><ele>177.5</ele><time>2026-03-29T09:20:01Z</time></trkpt><trkpt lat="38.80996276745428" lon="-9.340590115333098"><ele>176.75</ele><time>2026-03-29T09:20:02Z</time></trkpt><trkpt lat="38.80982997544476" lon="-9.340530388774033"><ele>176.0</ele><time>2026-03-29T09:20:03Z</time></trkpt><trkpt lat="38.80970274520732" lon="-9.340466140320547"><ele>176.0</ele><time>2026-03-29T09:20:04Z</time></trkpt><trkpt lat="38.8095652890299" lon="-9.34042370128205"><ele>176.0</ele><time>2026-03-29T09:20:05Z</time></trkpt><trkpt lat="38.80941646403566" lon="-9.34044026335446"><ele>176.0</ele><time>2026-03-29T09:20:06Z</time></trkpt><trkpt lat="38.80929335407817" lon="-9.340459041313233"><ele>176.0</ele><time>2026-03-29T09:20:07Z</time></trkpt><trkpt lat="38.80918347875854" lon="-9.34045683210167"><ele>176.5</ele><time>2026-03-29T09:20:08Z</time></trkpt><trkpt lat="38.809075637248405" lon="-9.340417164840531"><ele>177.0</ele><time>2026-03-29T09:20:09Z</time></trkpt><trkpt lat="38.80894354769358" lon="-9.34041285640188"><ele>177.5</ele><time>2026-03-29T09:20:10Z</time></trkpt><trkpt lat="38.808843964156296" lon="-9.340384571845412"><ele>178.0</ele><time>2026-03-29T09:20:11Z</time></trkpt><trkpt lat="38.808741874449325" lon="-9.340355078392616"><ele>178.0</ele><time>2026-03-29T09:20:12Z</time></trkpt><trkpt lat="38.80862342385928" lon="-9.340321343565632"><ele>178.0</ele><time>2026-03-29T09:20:13Z</time></trkpt><trkpt lat="38.80848723855582" lon="-9.3402830414284"><ele>178.0</ele><time>2026-03-29T09:20:14Z</time></trkpt><trkpt lat="38.80833968489364" lon="-9.340240133476161"><ele>178.0</ele><time>2026-03-29T09:20:15Z</time></trkpt><trkpt lat="38.80820322942086" lon="-9.34019890953673"><ele>178.66666666666669</ele><time>2026-03-29T09:20:16Z</time></trkpt><trkpt lat="38.8080470750578" lon="-9.340151628777413"><ele>179.33333333333334</ele><time>2026-03-29T09:20:17Z</time></trkpt><trkpt lat="38.80788608217979" lon="-9.340102883017588"><ele>180.0</ele><time>2026-03-29T09:20:18Z</time></trkpt><trkpt lat="38.80773350696226" lon="-9.340056685980887"><ele>181.66666666666666</ele><time>2026-03-29T09:20:19Z</time></trkpt><trkpt lat="38.80758431336034" lon="-9.34001162199608"><ele>183.33333333333331</ele><time>2026-03-29T09:20:20Z</time></trkpt><trkpt lat="38.8074290076735" lon="-9.339964787543328"><ele>185.0</ele><time>2026-03-29T09:20:21Z</time></trkpt><trkpt lat="38.80727072080475" lon="-9.339917197244088"><ele>185.0</ele><time>2026-03-29T09:20:22Z</time></trkpt><trkpt lat="38.807095451594726" lon="-9.339864195376002"><ele>185.0</ele><time>2026-03-29T09:20:23Z</time></trkpt><trkpt lat="38.80691690752929" lon="-9.339810079082419"><ele>185.0</ele><time>2026-03-29T09:20:24Z</time></trkpt><trkpt lat="38.80673451845484" lon="-9.339754511892028"><ele>186.66666666666666</ele><time>2026-03-29T09:20:25Z</time></trkpt><trkpt lat="38.806547545450385" lon="-9.33969754810871"><ele>188.33333333333334</ele><time>2026-03-29T09:20:26Z</time></trkpt><trkpt lat="38.806394713892395" lon="-9.339647232606575"><ele>190.0</ele><time>2026-03-29T09:20:27Z</time></trkpt><trkpt lat="38.80627579507443" lon="-9.339607429211087"><ele>190.0</ele><time>2026-03-29T09:20:28Z</time></trkpt><trkpt lat="38.80618330015334" lon="-9.339577131079713"><ele>190.0</ele><time>2026-03-29T09:20:29Z</time></trkpt><trkpt lat="38.806059837387004" lon="-9.339527136730341"><ele>190.0</ele><time>2026-03-29T09:20:31Z</time></trkpt><trkpt lat="38.805921408912894" lon="-9.339488064869954"><ele>190.0</ele><time>2026-03-29T09:20:33Z</time></trkpt><trkpt lat="38.805826527743754" lon="-9.339454812566252"><ele>190.6</ele><time>2026-03-29T09:20:34Z</time></trkpt><trkpt lat="38.80571093609859" lon="-9.33943113528898"><ele>191.2</ele><time>2026-03-29T09:20:35Z</time></trkpt><trkpt lat="38.80561341024813" lon="-9.339459495436488"><ele>191.8</ele><time>2026-03-29T09:20:36Z</time></trkpt><trkpt lat="38.80552428825099" lon="-9.339480234791322"><ele>192.4</ele><time>2026-03-29T09:20:37Z</time></trkpt><trkpt lat="38.805428393054655" lon="-9.33954047148796"><ele>193.0</ele><time>2026-03-29T09:20:39Z</time></trkpt><trkpt lat="38.80543809153969" lon="-9.339707162877303"><ele>192.75</ele><time>2026-03-29T09:20:44Z</time></trkpt><trkpt lat="38.80546314369581" lon="-9.339826112052329"><ele>192.5</ele><time>2026-03-29T09:20:45Z</time></trkpt><trkpt lat="38.805488491333975" lon="-9.339961280310517"><ele>192.25</ele><time>2026-03-29T09:20:46Z</time></trkpt><trkpt lat="38.80550839025652" lon="-9.340132505387167"><ele>192.0</ele><time>2026-03-29T09:20:47Z</time></trkpt><trkpt lat="38.80552131173465" lon="-9.340314992513775"><ele>192.0</ele><time>2026-03-29T09:20:48Z</time></trkpt><trkpt lat="38.80554230652456" lon="-9.34051212620851"><ele>192.0</ele><time>2026-03-29T09:20:49Z</time></trkpt><trkpt lat="38.80556969825518" lon="-9.340694205375742"><ele>192.0</ele><time>2026-03-29T09:20:50Z</time></trkpt><trkpt lat="38.805582153977724" lon="-9.34083583583346"><ele>192.0</ele><time>2026-03-29T09:20:51Z</time></trkpt><trkpt lat="38.80560237862539" lon="-9.34095819313931"><ele>192.5</ele><time>2026-03-29T09:20:52Z</time></trkpt><trkpt lat="38.80562943523554" lon="-9.341070901288036"><ele>193.0</ele><time>2026-03-29T09:20:53Z</time></trkpt><trkpt lat="38.805644915234495" lon="-9.341210155597473"><ele>193.5</ele><time>2026-03-29T09:20:54Z</time></trkpt><trkpt lat="38.80563701514646" lon="-9.341362048296945"><ele>194.0</ele><time>2026-03-29T09:20:55Z</time></trkpt><trkpt lat="38.80564143213259" lon="-9.341540260806154"><ele>194.0</ele><time>2026-03-29T09:20:56Z</time></trkpt><trkpt lat="38.80565048683222" lon="-9.341756559691982"><ele>194.0</ele><time>2026-03-29T09:20:57Z</time></trkpt><trkpt lat="38.80565487828794" lon="-9.341985515313834"><ele>194.0</ele><time>2026-03-29T09:20:58Z</time></trkpt><trkpt lat="38.80565682060615" lon="-9.342224505289701"><ele>193.33333333333334</ele><time>2026-03-29T09:20:59Z</time></trkpt><trkpt lat="38.805660535940255" lon="-9.342474505183402"><ele>192.66666666666669</ele><time>2026-03-29T09:21:00Z</time></trkpt><trkpt lat="38.805671422008096" lon="-9.342701725098333"><ele>192.0</ele><time>2026-03-29T09:21:01Z</time></trkpt><trkpt lat="38.80567209735028" lon="-9.342901186544575"><ele>192.66666666666669</ele><time>2026-03-29T09:21:02Z</time></trkpt><trkpt lat="38.80565812410562" lon="-9.343088786493093"><ele>193.33333333333334</ele><time>2026-03-29T09:21:03Z</time></trkpt><trkpt lat="38.80562898040588" lon="-9.3433009737606"><ele>194.0</ele><time>2026-03-29T09:21:04Z</time></trkpt><trkpt lat="38.80559613150876" lon="-9.343501399432217"><ele>194.0</ele><time>2026-03-29T09:21:05Z</time></trkpt><trkpt lat="38.80555920505798" lon="-9.343665859406336"><ele>194.0</ele><time>2026-03-29T09:21:06Z</time></trkpt><trkpt lat="38.80551044966711" lon="-9.34382281438671"><ele>194.0</ele><time>2026-03-29T09:21:07Z</time></trkpt><trkpt lat="38.8054528306691" lon="-9.343971253725954"><ele>194.0</ele><time>2026-03-29T09:21:08Z</time></trkpt><trkpt lat="38.805400528694655" lon="-9.344100929363496"><ele>194.00000000000003</ele><time>2026-03-29T09:21:09Z</time></trkpt><trkpt lat="38.80535065308876" lon="-9.344221820577586"><ele>194.0</ele><time>2026-03-29T09:21:10Z</time></trkpt><trkpt lat="38.80529400086932" lon="-9.344338932592212"><ele>194.0</ele><time>2026-03-29T09:21:11Z</time></trkpt><trkpt lat="38.805245972752346" lon="-9.344409550066812"><ele>194.0</ele><time>2026-03-29T09:21:12Z</time></trkpt><trkpt lat="38.80518756608164" lon="-9.344498153956023"><ele>194.00000000000003</ele><time>2026-03-29T09:21:14Z</time></trkpt><trkpt lat="38.805150743881036" lon="-9.344565331716122"><ele>194.0</ele><time>2026-03-29T09:21:16Z</time></trkpt><trkpt lat="38.80511218857282" lon="-9.34466298483155"><ele>194.39999999999998</ele><time>2026-03-29T09:21:18Z</time></trkpt><trkpt lat="38.80517398915596" lon="-9.344782532957858"><ele>194.8</ele><time>2026-03-29T09:21:20Z</time></trkpt><trkpt lat="38.805222633758305" lon="-9.344839931767645"><ele>195.2</ele><time>2026-03-29T09:21:21Z</time></trkpt><trkpt lat="38.80527373383897" lon="-9.344902282002568"><ele>195.60000000000002</ele><time>2026-03-29T09:21:22Z</time></trkpt><trkpt lat="38.80532377684834" lon="-9.344975401872745"><ele>196.0</ele><time>2026-03-29T09:21:23Z</time></trkpt><trkpt lat="38.805406155129646" lon="-9.345113492865226"><ele>196.0</ele><time>2026-03-29T09:21:25Z</time></trkpt><trkpt lat="38.80542346350841" lon="-9.345274703229991"><ele>196.0</ele><time>2026-03-29T09:21:26Z</time></trkpt><trkpt lat="38.805411419075064" lon="-9.345477920222425"><ele>196.0</ele><time>2026-03-29T09:21:27Z</time></trkpt><trkpt lat="38.80540473841877" lon="-9.345707952247519"><ele>196.33333333333331</ele><time>2026-03-29T09:21:28Z</time></trkpt><trkpt lat="38.80540548097675" lon="-9.345955984259312"><ele>196.66666666666669</ele><time>2026-03-29T09:21:29Z</time></trkpt><trkpt lat="38.805409979072635" lon="-9.346195019088942"><ele>197.0</ele><time>2026-03-29T09:21:30Z</time></trkpt><trkpt lat="38.80541321254744" lon="-9.346384638849084"><ele>196.33333333333334</ele><time>2026-03-29T09:21:31Z</time></trkpt><trkpt lat="38.80543860730983" lon="-9.346544794781204"><ele>195.66666666666669</ele><time>2026-03-29T09:21:32Z</time></trkpt><trkpt lat="38.80550994550537" lon="-9.34672148383089"><ele>195.0</ele><time>2026-03-29T09:21:33Z</time></trkpt><trkpt lat="38.80561833843483" lon="-9.346889786021713"><ele>195.0</ele><time>2026-03-29T09:21:34Z</time></trkpt><trkpt lat="38.80572000766261" lon="-9.347076731421156"><ele>195.0</ele><time>2026-03-29T09:21:35Z</time></trkpt><trkpt lat="38.80578628749089" lon="-9.347230738241636"><ele>195.0</ele><time>2026-03-29T09:21:36Z</time></trkpt><trkpt lat="38.805847036178285" lon="-9.347330645542929"><ele>195.0</ele><time>2026-03-29T09:21:37Z</time></trkpt><trkpt lat="38.80591141998985" lon="-9.347455112652861"><ele>195.66666666666669</ele><time>2026-03-29T09:21:38Z</time></trkpt><trkpt lat="38.80599925402903" lon="-9.347598938305168"><ele>196.33333333333334</ele><time>2026-03-29T09:21:39Z</time></trkpt><trkpt lat="38.80610161234678" lon="-9.347763597828708"><ele>197.0</ele><time>2026-03-29T09:21:40Z</time></trkpt><trkpt lat="38.80619607056623" lon="-9.347939548212576"><ele>197.33333333333334</ele><time>2026-03-29T09:21:41Z</time></trkpt><trkpt lat="38.80630240271433" lon="-9.348130131893592"><ele>197.66666666666669</ele><time>2026-03-29T09:21:42Z</time></trkpt><trkpt lat="38.80639569047542" lon="-9.348297500719402"><ele>198.0</ele><time>2026-03-29T09:21:43Z</time></trkpt><trkpt lat="38.80647271631084" lon="-9.348431604877511"><ele>198.0</ele><time>2026-03-29T09:21:44Z</time></trkpt><trkpt lat="38.80653192710033" lon="-9.348528911954208"><ele>198.0</ele><time>2026-03-29T09:21:45Z</time></trkpt><trkpt lat="38.80658287640555" lon="-9.348591226578632"><ele>198.0</ele><time>2026-03-29T09:21:46Z</time></trkpt><trkpt lat="38.806615689364804" lon="-9.348684558087307"><ele>198.0</ele><time>2026-03-29T09:21:47Z</time></trkpt><trkpt lat="38.80667713040566" lon="-9.348805781658806"><ele>198.0</ele><time>2026-03-29T09:21:48Z</time></trkpt><trkpt lat="38.806751055088625" lon="-9.348956157758389"><ele>198.2</ele><time>2026-03-29T09:21:49Z</time></trkpt><trkpt lat="38.80681262945833" lon="-9.34908538725499"><ele>198.4</ele><time>2026-03-29T09:21:50Z</time></trkpt><trkpt lat="38.80686030216838" lon="-9.349193575157352"><ele>198.6</ele><time>2026-03-29T09:21:51Z</time></trkpt><trkpt lat="38.806913996986154" lon="-9.349312787435428"><ele>198.79999999999998</ele><time>2026-03-29T09:21:52Z</time></trkpt><trkpt lat="38.80698116843273" lon="-9.349441433761292"><ele>199.0</ele><time>2026-03-29T09:21:53Z</time></trkpt><trkpt lat="38.80704351923942" lon="-9.349574030127815"><ele>199.0</ele><time>2026-03-29T09:21:54Z</time></trkpt><trkpt lat="38.80709080551014" lon="-9.34969333358977"><ele>199.0</ele><time>2026-03-29T09:21:55Z</time></trkpt><trkpt lat="38.80714541172705" lon="-9.349825776904908"><ele>199.0</ele><time>2026-03-29T09:21:56Z</time></trkpt><trkpt lat="38.807211140554294" lon="-9.349964475647841"><ele>199.0</ele><time>2026-03-29T09:21:57Z</time></trkpt><trkpt lat="38.80727112301933" lon="-9.35011254062728"><ele>196.25</ele><time>2026-03-29T09:21:58Z</time></trkpt><trkpt lat="38.80729837825233" lon="-9.350265895538751"><ele>193.5</ele><time>2026-03-29T09:21:59Z</time></trkpt><trkpt lat="38.807319718347415" lon="-9.350420228338571"><ele>190.75</ele><time>2026-03-29T09:22:00Z</time></trkpt><trkpt lat="38.80732123221034" lon="-9.350559041430499"><ele>188.0</ele><time>2026-03-29T09:22:01Z</time></trkpt><trkpt lat="38.80730964812745" lon="-9.350722116239263"><ele>186.75</ele><time>2026-03-29T09:22:02Z</time></trkpt><trkpt lat="38.80727002132907" lon="-9.350897362600625"><ele>185.5</ele><time>2026-03-29T09:22:03Z</time></trkpt><trkpt lat="38.80720627713366" lon="-9.35106423938253"><ele>184.25</ele><time>2026-03-29T09:22:04Z</time></trkpt><trkpt lat="38.80713263061164" lon="-9.351214208128596"><ele>183.0</ele><time>2026-03-29T09:22:05Z</time></trkpt><trkpt lat="38.80707651830417" lon="-9.35133317256949"><ele>182.60000000000002</ele><time>2026-03-29T09:22:06Z</time></trkpt><trkpt lat="38.80701847460686" lon="-9.35140466505853"><ele>182.20000000000002</ele><time>2026-03-29T09:22:07Z</time></trkpt><trkpt lat="38.80696151705345" lon="-9.351483450521556"><ele>181.8</ele><time>2026-03-29T09:22:08Z</time></trkpt><trkpt lat="38.8068722107171" lon="-9.351573390705642"><ele>181.4</ele><time>2026-03-29T09:22:09Z</time></trkpt><trkpt lat="38.80678129052193" lon="-9.351667033283267"><ele>181.0</ele><time>2026-03-29T09:22:10Z</time></trkpt><trkpt lat="38.80669789071499" lon="-9.351762668610906"><ele>183.5</ele><time>2026-03-29T09:22:11Z</time></trkpt><trkpt lat="38.80661404365766" lon="-9.351866557833677"><ele>186.0</ele><time>2026-03-29T09:22:12Z</time></trkpt><trkpt lat="38.806517115777716" lon="-9.351973628904974"><ele>188.5</ele><time>2026-03-29T09:22:13Z</time></trkpt><trkpt lat="38.80640657793164" lon="-9.352086101719312"><ele>191.0</ele><time>2026-03-29T09:22:14Z</time></trkpt><trkpt lat="38.80627981968251" lon="-9.352215217168858"><ele>192.0</ele><time>2026-03-29T09:22:15Z</time></trkpt><trkpt lat="38.80614919643726" lon="-9.352362638045255"><ele>193.0</ele><time>2026-03-29T09:22:16Z</time></trkpt><trkpt lat="38.80604370573583" lon="-9.352487818276632"><ele>194.0</ele><time>2026-03-29T09:22:17Z</time></trkpt><trkpt lat="38.80595542630082" lon="-9.352577002645127"><ele>195.0</ele><time>2026-03-29T09:22:18Z</time></trkpt><trkpt lat="38.80588196214196" lon="-9.352649761350165"><ele>195.2</ele><time>2026-03-29T09:22:19Z</time></trkpt><trkpt lat="38.80583347576354" lon="-9.352733531903075"><ele>195.4</ele><time>2026-03-29T09:22:20Z</time></trkpt><trkpt lat="38.80575861876126" lon="-9.35280245959992"><ele>195.60000000000002</ele><time>2026-03-29T09:22:21Z</time></trkpt><trkpt lat="38.80568298901106" lon="-9.352890351581088"><ele>195.8</ele><time>2026-03-29T09:22:22Z</time></trkpt><trkpt lat="38.80559177642594" lon="-9.352981855432477"><ele>196.0</ele><time>2026-03-29T09:22:23Z</time></trkpt><trkpt lat="38.80548741473821" lon="-9.353094418939918"><ele>196.75</ele><time>2026-03-29T09:22:24Z</time></trkpt><trkpt lat="38.80540685562874" lon="-9.353225541862058"><ele>197.5</ele><time>2026-03-29T09:22:25Z</time></trkpt><trkpt lat="38.80531567433226" lon="-9.353322681042261"><ele>198.25</ele><time>2026-03-29T09:22:26Z</time></trkpt><trkpt lat="38.805210124454995" lon="-9.353431223952333"><ele>199.0</ele><time>2026-03-29T09:22:27Z</time></trkpt><trkpt lat="38.805094502953494" lon="-9.353538764129095"><ele>199.75</ele><time>2026-03-29T09:22:28Z</time></trkpt><trkpt lat="38.80499123175991" lon="-9.353602365246415"><ele>200.5</ele><time>2026-03-29T09:22:29Z</time></trkpt><trkpt lat="38.804917850847666" lon="-9.353740517208333"><ele>201.25</ele><time>2026-03-29T09:22:30Z</time></trkpt><trkpt lat="38.80479699902179" lon="-9.353844595977531"><ele>202.0</ele><time>2026-03-29T09:22:31Z</time></trkpt><trkpt lat="38.80470113025531" lon="-9.353955281776113"><ele>202.0</ele><time>2026-03-29T09:22:32Z</time></trkpt><trkpt lat="38.80461468443465" lon="-9.354050703546179"><ele>202.0</ele><time>2026-03-29T09:22:33Z</time></trkpt><trkpt lat="38.804535270836844" lon="-9.354136897204894"><ele>202.0</ele><time>2026-03-29T09:22:34Z</time></trkpt><trkpt lat="38.80446664624202" lon="-9.354200849170908"><ele>202.0</ele><time>2026-03-29T09:22:35Z</time></trkpt><trkpt lat="38.80438990438057" lon="-9.354227828639415"><ele>202.0</ele><time>2026-03-29T09:22:36Z</time></trkpt><trkpt lat="38.80430746252369" lon="-9.354215321208292"><ele>201.2</ele><time>2026-03-29T09:22:37Z</time></trkpt><trkpt lat="38.80422520435893" lon="-9.354162392104616"><ele>200.39999999999998</ele><time>2026-03-29T09:22:38Z</time></trkpt><trkpt lat="38.804141962908886" lon="-9.354130887794799"><ele>199.60000000000002</ele><time>2026-03-29T09:22:39Z</time></trkpt><trkpt lat="38.8040475757045" lon="-9.354115431170404"><ele>198.8</ele><time>2026-03-29T09:22:40Z</time></trkpt><trkpt lat="38.80397589887515" lon="-9.354185486252906"><ele>198.0</ele><time>2026-03-29T09:22:41Z</time></trkpt><trkpt lat="38.803898769157314" lon="-9.354265660689261"><ele>198.0</ele><time>2026-03-29T09:22:42Z</time></trkpt><trkpt lat="38.803904640050696" lon="-9.354424932660477"><ele>198.0</ele><time>2026-03-29T09:22:43Z</time></trkpt><trkpt lat="38.80389713690256" lon="-9.354573569929881"><ele>198.0</ele><time>2026-03-29T09:22:44Z</time></trkpt><trkpt lat="38.80389675862159" lon="-9.35475223721336"><ele>198.0</ele><time>2026-03-29T09:22:45Z</time></trkpt><trkpt lat="38.80389900936838" lon="-9.354935679852979"><ele>197.25</ele><time>2026-03-29T09:22:46Z</time></trkpt><trkpt lat="38.80389999312694" lon="-9.355099815545206"><ele>196.5</ele><time>2026-03-29T09:22:47Z</time></trkpt><trkpt lat="38.80390269143451" lon="-9.355284275814032"><ele>195.75</ele><time>2026-03-29T09:22:48Z</time></trkpt><trkpt lat="38.80389873494321" lon="-9.35547018510599"><ele>195.0</ele><time>2026-03-29T09:22:49Z</time></trkpt><trkpt lat="38.80388689649638" lon="-9.355648332637612"><ele>194.75</ele><time>2026-03-29T09:22:50Z</time></trkpt><trkpt lat="38.803868352553" lon="-9.355823457625327"><ele>194.5</ele><time>2026-03-29T09:22:51Z</time></trkpt><trkpt lat="38.803845389088686" lon="-9.355993195137518"><ele>194.25</ele><time>2026-03-29T09:22:52Z</time></trkpt><trkpt lat="38.803820383174255" lon="-9.356144470677934"><ele>194.0</ele><time>2026-03-29T09:22:53Z</time></trkpt><trkpt lat="38.80379131935176" lon="-9.35627816286195"><ele>194.79999999999998</ele><time>2026-03-29T09:22:54Z</time></trkpt><trkpt lat="38.80376891818285" lon="-9.356410617921746"><ele>195.6</ele><time>2026-03-29T09:22:55Z</time></trkpt><trkpt lat="38.803747223648486" lon="-9.35653483537569"><ele>196.4</ele><time>2026-03-29T09:22:56Z</time></trkpt><trkpt lat="38.80372766569245" lon="-9.356647862513611"><ele>197.2</ele><time>2026-03-29T09:22:57Z</time></trkpt><trkpt lat="38.803708233083476" lon="-9.35675376308173"><ele>198.0</ele><time>2026-03-29T09:22:58Z</time></trkpt><trkpt lat="38.80369870955147" lon="-9.35686217695861"><ele>198.0</ele><time>2026-03-29T09:22:59Z</time></trkpt><trkpt lat="38.803734577127905" lon="-9.356962017588554"><ele>198.0</ele><time>2026-03-29T09:23:00Z</time></trkpt><trkpt lat="38.8037796059247" lon="-9.357040741231888"><ele>198.0</ele><time>2026-03-29T09:23:01Z</time></trkpt><trkpt lat="38.803849429249475" lon="-9.357105741052063"><ele>198.0</ele><time>2026-03-29T09:23:02Z</time></trkpt><trkpt lat="38.80390487423167" lon="-9.357150720610877"><ele>198.0</ele><time>2026-03-29T09:23:03Z</time></trkpt><trkpt lat="38.80403121887999" lon="-9.357021677114108"><ele>198.0</ele><time>2026-03-29T09:23:04Z</time></trkpt><trkpt lat="38.8040925879006" lon="-9.356973771214584"><ele>198.0</ele><time>2026-03-29T09:23:05Z</time></trkpt><trkpt lat="38.80411882123644" lon="-9.356899673165609"><ele>198.0</ele><time>2026-03-29T09:23:07Z</time></trkpt><trkpt lat="38.80418367362769" lon="-9.356889715968643"><ele>198.0</ele><time>2026-03-29T09:23:11Z</time></trkpt><trkpt lat="38.804208246665915" lon="-9.357045520602727"><ele>198.0</ele><time>2026-03-29T09:23:13Z</time></trkpt><trkpt lat="38.804281486759294" lon="-9.35708373522293"><ele>198.0</ele><time>2026-03-29T09:23:56Z</time></trkpt><trkpt lat="38.80434473635118" lon="-9.357207679894419"><ele>197.5</ele><time>2026-03-29T09:23:58Z</time></trkpt><trkpt lat="38.80436777312877" lon="-9.35735555903798"><ele>197.0</ele><time>2026-03-29T09:24:00Z</time></trkpt><trkpt lat="38.80436638971049" lon="-9.357439830925621"><ele>196.5</ele><time>2026-03-29T09:24:01Z</time></trkpt><trkpt lat="38.80437972112781" lon="-9.357528579519851"><ele>196.0</ele><time>2026-03-29T09:24:02Z</time></trkpt><trkpt lat="38.804419825706624" lon="-9.357616006225838"><ele>195.5</ele><time>2026-03-29T09:24:03Z</time></trkpt><trkpt lat="38.80448475039039" lon="-9.357664928922883"><ele>195.0</ele><time>2026-03-29T09:24:04Z</time></trkpt><trkpt lat="38.80455384419337" lon="-9.357768393275359"><ele>195.0</ele><time>2026-03-29T09:24:06Z</time></trkpt><trkpt lat="38.80457719209309" lon="-9.357888089245376"><ele>195.0</ele><time>2026-03-29T09:24:08Z</time></trkpt><trkpt lat="38.80452062595437" lon="-9.357985447924115"><ele>195.0</ele><time>2026-03-29T09:24:17Z</time></trkpt><trkpt lat="38.80444559918154" lon="-9.358041394626799"><ele>195.0</ele><time>2026-03-29T09:24:18Z</time></trkpt><trkpt lat="38.80436243233041" lon="-9.35811528435792"><ele>195.0</ele><time>2026-03-29T09:24:19Z</time></trkpt><trkpt lat="38.80429230369971" lon="-9.358213255265618"><ele>195.8</ele><time>2026-03-29T09:24:20Z</time></trkpt><trkpt lat="38.804248909739734" lon="-9.358326863741251"><ele>196.6</ele><time>2026-03-29T09:24:21Z</time></trkpt><trkpt lat="38.80419618500186" lon="-9.358434856493618"><ele>197.39999999999998</ele><time>2026-03-29T09:24:22Z</time></trkpt><trkpt lat="38.804138117532325" lon="-9.35853285174739"><ele>198.2</ele><time>2026-03-29T09:24:23Z</time></trkpt><trkpt lat="38.804092339373796" lon="-9.358615861822544"><ele>199.0</ele><time>2026-03-29T09:24:24Z</time></trkpt><trkpt lat="38.80404351344899" lon="-9.358691906623108"><ele>198.99999999999997</ele><time>2026-03-29T09:24:25Z</time></trkpt><trkpt lat="38.80399963977576" lon="-9.358763959736644"><ele>199.0</ele><time>2026-03-29T09:24:26Z</time></trkpt><trkpt lat="38.803954690696756" lon="-9.358831522219598"><ele>199.0</ele><time>2026-03-29T09:24:27Z</time></trkpt><trkpt lat="38.80390864246696" lon="-9.358894353398322"><ele>199.0</ele><time>2026-03-29T09:24:28Z</time></trkpt><trkpt lat="38.80385292073623" lon="-9.358960764622891"><ele>199.0</ele><time>2026-03-29T09:24:29Z</time></trkpt><trkpt lat="38.803805931776296" lon="-9.35903393105494"><ele>198.99999999999997</ele><time>2026-03-29T09:24:30Z</time></trkpt><trkpt lat="38.80375403516236" lon="-9.359104863230527"><ele>199.0</ele><time>2026-03-29T09:24:31Z</time></trkpt><trkpt lat="38.80371030233488" lon="-9.359186386034663"><ele>199.42857142857142</ele><time>2026-03-29T09:24:32Z</time></trkpt><trkpt lat="38.80366643698243" lon="-9.359254383883952"><ele>199.85714285714286</ele><time>2026-03-29T09:24:33Z</time></trkpt><trkpt lat="38.8036202845591" lon="-9.359320439375455"><ele>200.28571428571428</ele><time>2026-03-29T09:24:34Z</time></trkpt><trkpt lat="38.80357776777041" lon="-9.359398879249643"><ele>200.71428571428572</ele><time>2026-03-29T09:24:35Z</time></trkpt><trkpt lat="38.80354307598897" lon="-9.359477548285193"><ele>201.14285714285714</ele><time>2026-03-29T09:24:36Z</time></trkpt><trkpt lat="38.803509371767106" lon="-9.359553301155627"><ele>201.57142857142856</ele><time>2026-03-29T09:24:37Z</time></trkpt><trkpt lat="38.803489649693674" lon="-9.359641789261692"><ele>202.0</ele><time>2026-03-29T09:24:38Z</time></trkpt><trkpt lat="38.80346298105954" lon="-9.359729567071005"><ele>202.49999999999997</ele><time>2026-03-29T09:24:39Z</time></trkpt><trkpt lat="38.803437494227325" lon="-9.359824892230707"><ele>203.0</ele><time>2026-03-29T09:24:40Z</time></trkpt><trkpt lat="38.80342688196253" lon="-9.359924179185914"><ele>203.5</ele><time>2026-03-29T09:24:41Z</time></trkpt><trkpt lat="38.80342686691394" lon="-9.360028566085697"><ele>204.0</ele><time>2026-03-29T09:24:42Z</time></trkpt><trkpt lat="38.80342558966281" lon="-9.360130000861899"><ele>204.49999999999997</ele><time>2026-03-29T09:24:43Z</time></trkpt><trkpt lat="38.803427473621724" lon="-9.360222506087084"><ele>205.0</ele><time>2026-03-29T09:24:44Z</time></trkpt><trkpt lat="38.80342535175763" lon="-9.360311569806642"><ele>204.99999999999997</ele><time>2026-03-29T09:24:45Z</time></trkpt><trkpt lat="38.80338830472475" lon="-9.360453275218966"><ele>205.0</ele><time>2026-03-29T09:24:47Z</time></trkpt><trkpt lat="38.803343595715155" lon="-9.360513315693552"><ele>205.0</ele><time>2026-03-29T09:24:50Z</time></trkpt><trkpt lat="38.80336849749579" lon="-9.360423786519473"><ele>205.0</ele><time>2026-03-29T09:25:10Z</time></trkpt><trkpt lat="38.80340008530287" lon="-9.360327250305751"><ele>204.99999999999997</ele><time>2026-03-29T09:25:11Z</time></trkpt><trkpt lat="38.803425117399165" lon="-9.360224949164726"><ele>205.0</ele><time>2026-03-29T09:25:12Z</time></trkpt><trkpt lat="38.80344222974927" lon="-9.360127901955988"><ele>205.0</ele><time>2026-03-29T09:25:13Z</time></trkpt><trkpt lat="38.80344111028061" lon="-9.360008067482434"><ele>205.0</ele><time>2026-03-29T09:25:14Z</time></trkpt><trkpt lat="38.803441435392415" lon="-9.359878099732482"><ele>205.0</ele><time>2026-03-29T09:25:15Z</time></trkpt><trkpt lat="38.80344473212669" lon="-9.359757411693149"><ele>205.0</ele><time>2026-03-29T09:25:16Z</time></trkpt><trkpt lat="38.803464649580576" lon="-9.359654546067867"><ele>205.0</ele><time>2026-03-29T09:25:17Z</time></trkpt><trkpt lat="38.803503528606946" lon="-9.359553505209105"><ele>204.49999999999997</ele><time>2026-03-29T09:25:18Z</time></trkpt><trkpt lat="38.80354361722436" lon="-9.359452654649775"><ele>204.0</ele><time>2026-03-29T09:25:19Z</time></trkpt><trkpt lat="38.80358136143678" lon="-9.359364708707684"><ele>203.5</ele><time>2026-03-29T09:25:20Z</time></trkpt><trkpt lat="38.80362873734958" lon="-9.359293079502537"><ele>203.0</ele><time>2026-03-29T09:25:21Z</time></trkpt><trkpt lat="38.80367898885048" lon="-9.359215124314959"><ele>202.49999999999997</ele><time>2026-03-29T09:25:22Z</time></trkpt><trkpt lat="38.803731632607345" lon="-9.359134766743338"><ele>202.0</ele><time>2026-03-29T09:25:23Z</time></trkpt><trkpt lat="38.80378744910189" lon="-9.359044359447484"><ele>201.99999999999997</ele><time>2026-03-29T09:25:24Z</time></trkpt><trkpt lat="38.80384259957966" lon="-9.358953302191434"><ele>202.0</ele><time>2026-03-29T09:25:25Z</time></trkpt><trkpt lat="38.803902995164954" lon="-9.358873860540053"><ele>202.0</ele><time>2026-03-29T09:25:26Z</time></trkpt><trkpt lat="38.80396711965359" lon="-9.358797435008436"><ele>202.0</ele><time>2026-03-29T09:25:27Z</time></trkpt><trkpt lat="38.80402370987731" lon="-9.358715522941957"><ele>201.99999999999997</ele><time>2026-03-29T09:25:28Z</time></trkpt><trkpt lat="38.80408519474323" lon="-9.358622607356313"><ele>202.0</ele><time>2026-03-29T09:25:29Z</time></trkpt><trkpt lat="38.80413816151646" lon="-9.35854134404563"><ele>201.49999999999997</ele><time>2026-03-29T09:25:30Z</time></trkpt><trkpt lat="38.80418231644036" lon="-9.358466848344184"><ele>201.0</ele><time>2026-03-29T09:25:31Z</time></trkpt><trkpt lat="38.804226186814844" lon="-9.358381452898449"><ele>200.5</ele><time>2026-03-29T09:25:32Z</time></trkpt><trkpt lat="38.80426937116265" lon="-9.358301677045219"><ele>200.0</ele><time>2026-03-29T09:25:33Z</time></trkpt><trkpt lat="38.80431039465499" lon="-9.358221605517405"><ele>199.49999999999997</ele><time>2026-03-29T09:25:34Z</time></trkpt><trkpt lat="38.80434988369494" lon="-9.358145147620649"><ele>199.0</ele><time>2026-03-29T09:25:35Z</time></trkpt><trkpt lat="38.80442574440705" lon="-9.358022792784615"><ele>198.49999999999997</ele><time>2026-03-29T09:25:37Z</time></trkpt><trkpt lat="38.80448635788907" lon="-9.357979465276593"><ele>198.0</ele><time>2026-03-29T09:25:38Z</time></trkpt><trkpt lat="38.804547466911075" lon="-9.357938408051815"><ele>197.5</ele><time>2026-03-29T09:25:39Z</time></trkpt><trkpt lat="38.80465318947157" lon="-9.357922896393134"><ele>197.0</ele><time>2026-03-29T09:25:41Z</time></trkpt><trkpt lat="38.80469481815192" lon="-9.358009037429504"><ele>196.49999999999997</ele><time>2026-03-29T09:25:42Z</time></trkpt><trkpt lat="38.80472611189654" lon="-9.358114771103738"><ele>196.0</ele><time>2026-03-29T09:25:43Z</time></trkpt><trkpt lat="38.80476880438575" lon="-9.358208354627077"><ele>195.99999999999997</ele><time>2026-03-29T09:25:44Z</time></trkpt><trkpt lat="38.80479570274511" lon="-9.358310772462808"><ele>196.0</ele><time>2026-03-29T09:25:45Z</time></trkpt><trkpt lat="38.804831975204046" lon="-9.358416746387661"><ele>196.0</ele><time>2026-03-29T09:25:46Z</time></trkpt><trkpt lat="38.804871166390456" lon="-9.35851820425233"><ele>196.0</ele><time>2026-03-29T09:25:47Z</time></trkpt><trkpt lat="38.80491414316115" lon="-9.358598916480922"><ele>195.99999999999997</ele><time>2026-03-29T09:25:48Z</time></trkpt><trkpt lat="38.80494481507169" lon="-9.358680708389484"><ele>196.0</ele><time>2026-03-29T09:25:49Z</time></trkpt><trkpt lat="38.80498060754087" lon="-9.358765546834276"><ele>195.99999999999997</ele><time>2026-03-29T09:25:50Z</time></trkpt><trkpt lat="38.805021340924654" lon="-9.358840392594477"><ele>196.0</ele><time>2026-03-29T09:25:51Z</time></trkpt><trkpt lat="38.80506891990501" lon="-9.358905047348065"><ele>196.0</ele><time>2026-03-29T09:25:52Z</time></trkpt><trkpt lat="38.80511444309327" lon="-9.358983300734868"><ele>196.0</ele><time>2026-03-29T09:25:53Z</time></trkpt><trkpt lat="38.80515477105594" lon="-9.35904929196188"><ele>195.99999999999997</ele><time>2026-03-29T09:25:54Z</time></trkpt><trkpt lat="38.805191067309764" lon="-9.359115848395103"><ele>196.0</ele><time>2026-03-29T09:25:55Z</time></trkpt><trkpt lat="38.80521460144817" lon="-9.359277179441653"><ele>195.16666666666666</ele><time>2026-03-29T09:25:57Z</time></trkpt><trkpt lat="38.805214116279934" lon="-9.359362495253128"><ele>194.33333333333331</ele><time>2026-03-29T09:25:58Z</time></trkpt><trkpt lat="38.805209667360096" lon="-9.359449550550963"><ele>193.5</ele><time>2026-03-29T09:25:59Z</time></trkpt><trkpt lat="38.8052372464881" lon="-9.359590223538495"><ele>192.66666666666666</ele><time>2026-03-29T09:26:01Z</time></trkpt><trkpt lat="38.80528259587665" lon="-9.359708781035797"><ele>191.83333333333331</ele><time>2026-03-29T09:26:03Z</time></trkpt><trkpt lat="38.805274281154084" lon="-9.3598089245649"><ele>191.0</ele><time>2026-03-29T09:26:05Z</time></trkpt><trkpt lat="38.80523582006183" lon="-9.359877995096841"><ele>190.83333333333331</ele><time>2026-03-29T09:26:07Z</time></trkpt><trkpt lat="38.80529601150001" lon="-9.359902077314514"><ele>190.66666666666666</ele><time>2026-03-29T09:26:08Z</time></trkpt><trkpt lat="38.80534937940547" lon="-9.359974640341521"><ele>190.5</ele><time>2026-03-29T09:26:10Z</time></trkpt><trkpt lat="38.805342289424" lon="-9.360097931271802"><ele>190.33333333333334</ele><time>2026-03-29T09:26:11Z</time></trkpt><trkpt lat="38.80531142404885" lon="-9.360198590843858"><ele>190.16666666666669</ele><time>2026-03-29T09:26:12Z</time></trkpt><trkpt lat="38.805266340254775" lon="-9.360300575254248"><ele>190.0</ele><time>2026-03-29T09:26:14Z</time></trkpt><trkpt lat="38.80522086103197" lon="-9.36035963964844"><ele>190.0</ele><time>2026-03-29T09:26:17Z</time></trkpt><trkpt lat="38.80524749611679" lon="-9.360280639309059"><ele>190.0</ele><time>2026-03-29T09:26:37Z</time></trkpt><trkpt lat="38.805308326488564" lon="-9.360200610163393"><ele>190.0</ele><time>2026-03-29T09:26:39Z</time></trkpt><trkpt lat="38.80533767552539" lon="-9.360051924779688"><ele>190.0</ele><time>2026-03-29T09:26:41Z</time></trkpt><trkpt lat="38.8053474099914" lon="-9.35994828727025"><ele>190.0</ele><time>2026-03-29T09:26:42Z</time></trkpt><trkpt lat="38.80534805519666" lon="-9.359862892208643"><ele>190.0</ele><time>2026-03-29T09:26:43Z</time></trkpt><trkpt lat="38.805329989851735" lon="-9.359756325868162"><ele>190.2</ele><time>2026-03-29T09:26:44Z</time></trkpt><trkpt lat="38.805284498500285" lon="-9.359652324545822"><ele>190.4</ele><time>2026-03-29T09:26:45Z</time></trkpt><trkpt lat="38.805226741456416" lon="-9.359511081945513"><ele>190.60000000000002</ele><time>2026-03-29T09:26:46Z</time></trkpt><trkpt lat="38.80518632301921" lon="-9.359373673682487"><ele>190.8</ele><time>2026-03-29T09:26:47Z</time></trkpt><trkpt lat="38.805181611394374" lon="-9.359249364948193"><ele>191.0</ele><time>2026-03-29T09:26:48Z</time></trkpt><trkpt lat="38.8051777210916" lon="-9.35914496883153"><ele>191.0</ele><time>2026-03-29T09:26:49Z</time></trkpt><trkpt lat="38.80517636367796" lon="-9.359043663269363"><ele>191.0</ele><time>2026-03-29T09:26:50Z</time></trkpt><trkpt lat="38.80514072848936" lon="-9.358971372762161"><ele>191.0</ele><time>2026-03-29T09:26:51Z</time></trkpt><trkpt lat="38.80507317804837" lon="-9.358903865457284"><ele>191.0</ele><time>2026-03-29T09:26:52Z</time></trkpt><trkpt lat="38.80502281469759" lon="-9.358821013462913"><ele>191.0</ele><time>2026-03-29T09:26:53Z</time></trkpt><trkpt lat="38.80498904635958" lon="-9.358752043662433"><ele>191.0</ele><time>2026-03-29T09:26:54Z</time></trkpt><trkpt lat="38.804953236343" lon="-9.358614643554155"><ele>192.0</ele><time>2026-03-29T09:26:56Z</time></trkpt><trkpt lat="38.80486533759543" lon="-9.358487056005378"><ele>193.0</ele><time>2026-03-29T09:26:58Z</time></trkpt><trkpt lat="38.80481373849166" lon="-9.358396469026081"><ele>194.0</ele><time>2026-03-29T09:26:59Z</time></trkpt><trkpt lat="38.80476858820475" lon="-9.358302907315572"><ele>195.0</ele><time>2026-03-29T09:27:00Z</time></trkpt><trkpt lat="38.804731722136054" lon="-9.358208400537485"><ele>196.0</ele><time>2026-03-29T09:27:01Z</time></trkpt><trkpt lat="38.80469812744948" lon="-9.358105799969952"><ele>195.83333333333331</ele><time>2026-03-29T09:27:02Z</time></trkpt><trkpt lat="38.80465633858668" lon="-9.358000659971493"><ele>195.66666666666666</ele><time>2026-03-29T09:27:03Z</time></trkpt><trkpt lat="38.804602981353646" lon="-9.357919233185605"><ele>195.5</ele><time>2026-03-29T09:27:04Z</time></trkpt><trkpt lat="38.80454788361792" lon="-9.357838045358537"><ele>195.33333333333331</ele><time>2026-03-29T09:27:05Z</time></trkpt><trkpt lat="38.80450261253748" lon="-9.357744174441201"><ele>195.16666666666666</ele><time>2026-03-29T09:27:06Z</time></trkpt><trkpt lat="38.804483626269274" lon="-9.357629500805873"><ele>195.0</ele><time>2026-03-29T09:27:07Z</time></trkpt><trkpt lat="38.804398389541284" lon="-9.357524091781405"><ele>195.0</ele><time>2026-03-29T09:27:09Z</time></trkpt><trkpt lat="38.804336035460565" lon="-9.357457126132479"><ele>195.0</ele><time>2026-03-29T09:27:10Z</time></trkpt><trkpt lat="38.804319997671655" lon="-9.357344571216592"><ele>195.0</ele><time>2026-03-29T09:27:11Z</time></trkpt><trkpt lat="38.80433335645248" lon="-9.357263187315834"><ele>195.0</ele><time>2026-03-29T09:27:12Z</time></trkpt><trkpt lat="38.80432135490817" lon="-9.357121459917403"><ele>195.0</ele><time>2026-03-29T09:27:14Z</time></trkpt><trkpt lat="38.80422129774963" lon="-9.357034751407983"><ele>195.5</ele><time>2026-03-29T09:27:16Z</time></trkpt><trkpt lat="38.80415216526477" lon="-9.3569866996134"><ele>196.0</ele><time>2026-03-29T09:27:18Z</time></trkpt><trkpt lat="38.8041134114374" lon="-9.357067795864085"><ele>196.5</ele><time>2026-03-29T09:27:19Z</time></trkpt><trkpt lat="38.80403599792735" lon="-9.35707154186528"><ele>197.0</ele><time>2026-03-29T09:27:21Z</time></trkpt><trkpt lat="38.804001874359" lon="-9.357191457822593"><ele>197.5</ele><time>2026-03-29T09:27:22Z</time></trkpt><trkpt lat="38.80396031694189" lon="-9.357315456418732"><ele>198.0</ele><time>2026-03-29T09:27:24Z</time></trkpt><trkpt lat="38.80392946189613" lon="-9.357416814932668"><ele>198.8</ele><time>2026-03-29T09:27:25Z</time></trkpt><trkpt lat="38.80388825571614" lon="-9.357524489093382"><ele>199.60000000000002</ele><time>2026-03-29T09:27:26Z</time></trkpt><trkpt lat="38.803827824964614" lon="-9.357647417950671"><ele>200.39999999999998</ele><time>2026-03-29T09:27:27Z</time></trkpt><trkpt lat="38.803735648404704" lon="-9.357747311530273"><ele>201.2</ele><time>2026-03-29T09:27:28Z</time></trkpt><trkpt lat="38.80363558727135" lon="-9.357827881911357"><ele>202.0</ele><time>2026-03-29T09:27:29Z</time></trkpt><trkpt lat="38.80352532480275" lon="-9.357896727375584"><ele>201.5</ele><time>2026-03-29T09:27:30Z</time></trkpt><trkpt lat="38.803413949315285" lon="-9.357979574128567"><ele>201.0</ele><time>2026-03-29T09:27:31Z</time></trkpt><trkpt lat="38.803343476256316" lon="-9.358112999377964"><ele>200.5</ele><time>2026-03-29T09:27:32Z</time></trkpt><trkpt lat="38.80327935410048" lon="-9.358263822783778"><ele>200.0</ele><time>2026-03-29T09:27:33Z</time></trkpt><trkpt lat="38.803198251579" lon="-9.358446056204881"><ele>201.66666666666669</ele><time>2026-03-29T09:27:34Z</time></trkpt><trkpt lat="38.803112895517394" lon="-9.358652940994697"><ele>203.33333333333331</ele><time>2026-03-29T09:27:35Z</time></trkpt><trkpt lat="38.803021342934095" lon="-9.358877264283548"><ele>205.0</ele><time>2026-03-29T09:27:36Z</time></trkpt><trkpt lat="38.80293139118096" lon="-9.35911313736384"><ele>205.0</ele><time>2026-03-29T09:27:37Z</time></trkpt><trkpt lat="38.80285194031595" lon="-9.359369896273364"><ele>205.0</ele><time>2026-03-29T09:27:38Z</time></trkpt><trkpt lat="38.80276436675139" lon="-9.359634538525858"><ele>205.0</ele><time>2026-03-29T09:27:39Z</time></trkpt><trkpt lat="38.802695424500165" lon="-9.35991999202564"><ele>206.0</ele><time>2026-03-29T09:27:40Z</time></trkpt><trkpt lat="38.80266155801495" lon="-9.36019183368212"><ele>207.0</ele><time>2026-03-29T09:27:41Z</time></trkpt><trkpt lat="38.80266166172052" lon="-9.36046256375961"><ele>208.0</ele><time>2026-03-29T09:27:42Z</time></trkpt><trkpt lat="38.80268420072314" lon="-9.36072508344917"><ele>208.0</ele><time>2026-03-29T09:27:43Z</time></trkpt><trkpt lat="38.80274110096371" lon="-9.360991241652858"><ele>208.0</ele><time>2026-03-29T09:27:44Z</time></trkpt><trkpt lat="38.80283007234293" lon="-9.361261414520394"><ele>208.0</ele><time>2026-03-29T09:27:45Z</time></trkpt><trkpt lat="38.80294667885943" lon="-9.36152255696507"><ele>205.33333333333331</ele><time>2026-03-29T09:27:46Z</time></trkpt><trkpt lat="38.803095562242554" lon="-9.361760407015732"><ele>202.66666666666669</ele><time>2026-03-29T09:27:47Z</time></trkpt><trkpt lat="38.8032318259091" lon="-9.361953255492018"><ele>200.0</ele><time>2026-03-29T09:27:48Z</time></trkpt><trkpt lat="38.803374646608304" lon="-9.362120493145053"><ele>197.0</ele><time>2026-03-29T09:27:49Z</time></trkpt><trkpt lat="38.803506497035144" lon="-9.362326774955756"><ele>194.0</ele><time>2026-03-29T09:27:50Z</time></trkpt><trkpt lat="38.80364806787857" lon="-9.362508282919208"><ele>191.0</ele><time>2026-03-29T09:27:51Z</time></trkpt><trkpt lat="38.803745224011756" lon="-9.362687686486161"><ele>191.0</ele><time>2026-03-29T09:27:52Z</time></trkpt><trkpt lat="38.80384022553236" lon="-9.362847370794107"><ele>191.0</ele><time>2026-03-29T09:27:53Z</time></trkpt><trkpt lat="38.803918740541675" lon="-9.363005455216808"><ele>191.0</ele><time>2026-03-29T09:27:54Z</time></trkpt><trkpt lat="38.80399754687842" lon="-9.363194192291687"><ele>192.66666666666666</ele><time>2026-03-29T09:27:55Z</time></trkpt><trkpt lat="38.804068758541824" lon="-9.363400735251561"><ele>194.33333333333331</ele><time>2026-03-29T09:27:56Z</time></trkpt><trkpt lat="38.80412887181198" lon="-9.363617578221838"><ele>196.0</ele><time>2026-03-29T09:27:57Z</time></trkpt><trkpt lat="38.804171692375405" lon="-9.363859079191476"><ele>193.0</ele><time>2026-03-29T09:27:58Z</time></trkpt><trkpt lat="38.80419168816084" lon="-9.364111720774678"><ele>190.0</ele><time>2026-03-29T09:27:59Z</time></trkpt><trkpt lat="38.804191317103175" lon="-9.364361210312392"><ele>187.0</ele><time>2026-03-29T09:28:00Z</time></trkpt><trkpt lat="38.80417466265098" lon="-9.364613765478133"><ele>186.33333333333334</ele><time>2026-03-29T09:28:01Z</time></trkpt><trkpt lat="38.804154141434154" lon="-9.364882657842237"><ele>185.66666666666666</ele><time>2026-03-29T09:28:02Z</time></trkpt><trkpt lat="38.80413420298612" lon="-9.365140392500855"><ele>185.0</ele><time>2026-03-29T09:28:03Z</time></trkpt><trkpt lat="38.80411726476648" lon="-9.365396741195008"><ele>186.66666666666666</ele><time>2026-03-29T09:28:04Z</time></trkpt><trkpt lat="38.80408770576662" lon="-9.365648476223686"><ele>188.33333333333334</ele><time>2026-03-29T09:28:05Z</time></trkpt><trkpt lat="38.80405901204755" lon="-9.365888379471675"><ele>190.0</ele><time>2026-03-29T09:28:06Z</time></trkpt><trkpt lat="38.804032143798146" lon="-9.366135174645269"><ele>189.33333333333334</ele><time>2026-03-29T09:28:07Z</time></trkpt><trkpt lat="38.80400572533689" lon="-9.366385414246809"><ele>188.66666666666666</ele><time>2026-03-29T09:28:08Z</time></trkpt><trkpt lat="38.80398040951613" lon="-9.366625261702783"><ele>188.0</ele><time>2026-03-29T09:28:09Z</time></trkpt><trkpt lat="38.80395736217312" lon="-9.366859857878776"><ele>188.0</ele><time>2026-03-29T09:28:10Z</time></trkpt><trkpt lat="38.803932049524505" lon="-9.367102051742936"><ele>188.0</ele><time>2026-03-29T09:28:11Z</time></trkpt><trkpt lat="38.803902284046885" lon="-9.367359219572899"><ele>188.0</ele><time>2026-03-29T09:28:12Z</time></trkpt><trkpt lat="38.8038838645653" lon="-9.367615049588247"><ele>187.66666666666666</ele><time>2026-03-29T09:28:13Z</time></trkpt><trkpt lat="38.80387510704373" lon="-9.367867344963107"><ele>187.33333333333334</ele><time>2026-03-29T09:28:14Z</time></trkpt><trkpt lat="38.803870292545916" lon="-9.368111556781193"><ele>187.0</ele><time>2026-03-29T09:28:15Z</time></trkpt><trkpt lat="38.80388021568785" lon="-9.368351282172602"><ele>188.66666666666669</ele><time>2026-03-29T09:28:16Z</time></trkpt><trkpt lat="38.80390786390178" lon="-9.368590443955597"><ele>190.33333333333334</ele><time>2026-03-29T09:28:17Z</time></trkpt><trkpt lat="38.80393466641203" lon="-9.368841803728962"><ele>192.0</ele><time>2026-03-29T09:28:18Z</time></trkpt><trkpt lat="38.80397726897402" lon="-9.369085518048482"><ele>193.66666666666669</ele><time>2026-03-29T09:28:19Z</time></trkpt><trkpt lat="38.804025567900446" lon="-9.369331680500423"><ele>195.33333333333334</ele><time>2026-03-29T09:28:20Z</time></trkpt><trkpt lat="38.80408222934028" lon="-9.369569963759988"><ele>197.0</ele><time>2026-03-29T09:28:21Z</time></trkpt><trkpt lat="38.80412986673374" lon="-9.36980884417647"><ele>199.0</ele><time>2026-03-29T09:28:22Z</time></trkpt><trkpt lat="38.80417084587252" lon="-9.370047072388035"><ele>201.0</ele><time>2026-03-29T09:28:23Z</time></trkpt><trkpt lat="38.80419599681868" lon="-9.370282499827344"><ele>203.0</ele><time>2026-03-29T09:28:24Z</time></trkpt><trkpt lat="38.804181462252714" lon="-9.370518307367142"><ele>203.66666666666669</ele><time>2026-03-29T09:28:25Z</time></trkpt><trkpt lat="38.80416315317399" lon="-9.37072981645787"><ele>204.33333333333331</ele><time>2026-03-29T09:28:26Z</time></trkpt><trkpt lat="38.80413203577326" lon="-9.370916458843864"><ele>205.0</ele><time>2026-03-29T09:28:27Z</time></trkpt><trkpt lat="38.80408612287161" lon="-9.371123158502952"><ele>205.0</ele><time>2026-03-29T09:28:28Z</time></trkpt><trkpt lat="38.80403186891814" lon="-9.371304377381014"><ele>205.0</ele><time>2026-03-29T09:28:29Z</time></trkpt><trkpt lat="38.8039696241126" lon="-9.371452989917623"><ele>205.0</ele><time>2026-03-29T09:28:30Z</time></trkpt><trkpt lat="38.803903390890085" lon="-9.371598004264872"><ele>205.0</ele><time>2026-03-29T09:28:31Z</time></trkpt><trkpt lat="38.80383631077677" lon="-9.371740570094598"><ele>204.25</ele><time>2026-03-29T09:28:32Z</time></trkpt><trkpt lat="38.80378960693611" lon="-9.37186854708046"><ele>203.5</ele><time>2026-03-29T09:28:33Z</time></trkpt><trkpt lat="38.80375112675377" lon="-9.37198231326696"><ele>202.75</ele><time>2026-03-29T09:28:34Z</time></trkpt><trkpt lat="38.80373835343186" lon="-9.37213731269252"><ele>202.0</ele><time>2026-03-29T09:28:35Z</time></trkpt><trkpt lat="38.80361424539529" lon="-9.372238055974485"><ele>199.0</ele><time>2026-03-29T09:28:36Z</time></trkpt><trkpt lat="38.80347455062412" lon="-9.372349819916966"><ele>196.0</ele><time>2026-03-29T09:28:37Z</time></trkpt><trkpt lat="38.80334273550702" lon="-9.372501983150785"><ele>193.0</ele><time>2026-03-29T09:28:38Z</time></trkpt><trkpt lat="38.80321312297924" lon="-9.37269442605352"><ele>193.0</ele><time>2026-03-29T09:28:39Z</time></trkpt><trkpt lat="38.80308812501371" lon="-9.372915155405387"><ele>193.0</ele><time>2026-03-29T09:28:40Z</time></trkpt><trkpt lat="38.80297857133203" lon="-9.373167775916372"><ele>193.0</ele><time>2026-03-29T09:28:41Z</time></trkpt><trkpt lat="38.8029026444786" lon="-9.373453106651583"><ele>190.5</ele><time>2026-03-29T09:28:42Z</time></trkpt><trkpt lat="38.8028588382776" lon="-9.37374042975617"><ele>188.0</ele><time>2026-03-29T09:28:43Z</time></trkpt><trkpt lat="38.80283663735015" lon="-9.374053592825337"><ele>187.0</ele><time>2026-03-29T09:28:44Z</time></trkpt><trkpt lat="38.80281320136311" lon="-9.374374488652027"><ele>186.0</ele><time>2026-03-29T09:28:45Z</time></trkpt><trkpt lat="38.80281644558867" lon="-9.3746799886877"><ele>187.33333333333334</ele><time>2026-03-29T09:28:46Z</time></trkpt><trkpt lat="38.802810533272044" lon="-9.37492676908282"><ele>188.66666666666669</ele><time>2026-03-29T09:28:47Z</time></trkpt><trkpt lat="38.80280743843876" lon="-9.375151877876368"><ele>190.0</ele><time>2026-03-29T09:28:48Z</time></trkpt><trkpt lat="38.80280473444628" lon="-9.375359225452879"><ele>189.5</ele><time>2026-03-29T09:28:49Z</time></trkpt><trkpt lat="38.802804301569175" lon="-9.37555534864073"><ele>189.0</ele><time>2026-03-29T09:28:50Z</time></trkpt><trkpt lat="38.80279669314447" lon="-9.375741797563613"><ele>188.5</ele><time>2026-03-29T09:28:51Z</time></trkpt><trkpt lat="38.80279082036788" lon="-9.375934432149183"><ele>188.0</ele><time>2026-03-29T09:28:52Z</time></trkpt><trkpt lat="38.802784594114975" lon="-9.37614681167961"><ele>186.33333333333331</ele><time>2026-03-29T09:28:53Z</time></trkpt><trkpt lat="38.80277472473739" lon="-9.376362459579848"><ele>184.66666666666666</ele><time>2026-03-29T09:28:54Z</time></trkpt><trkpt lat="38.802767396892264" lon="-9.376553438942652"><ele>183.0</ele><time>2026-03-29T09:28:55Z</time></trkpt><trkpt lat="38.802758179498895" lon="-9.37672797867274"><ele>183.0</ele><time>2026-03-29T09:28:56Z</time></trkpt><trkpt lat="38.802755725439184" lon="-9.376900854722106"><ele>183.0</ele><time>2026-03-29T09:28:57Z</time></trkpt><trkpt lat="38.80274767616193" lon="-9.377062454160248"><ele>183.0</ele><time>2026-03-29T09:28:58Z</time></trkpt><trkpt lat="38.80273944900407" lon="-9.377225366061657"><ele>183.0</ele><time>2026-03-29T09:28:59Z</time></trkpt><trkpt lat="38.80273786135388" lon="-9.377367968745222"><ele>183.2</ele><time>2026-03-29T09:29:00Z</time></trkpt><trkpt lat="38.802734467406516" lon="-9.37749488495447"><ele>183.4</ele><time>2026-03-29T09:29:01Z</time></trkpt><trkpt lat="38.80273261553623" lon="-9.377615620295792"><ele>183.6</ele><time>2026-03-29T09:29:02Z</time></trkpt><trkpt lat="38.80272913373937" lon="-9.377728330774945"><ele>183.79999999999998</ele><time>2026-03-29T09:29:03Z</time></trkpt><trkpt lat="38.802728352107394" lon="-9.377842641907604"><ele>184.0</ele><time>2026-03-29T09:29:04Z</time></trkpt><trkpt lat="38.802726889269074" lon="-9.377965763989605"><ele>185.75</ele><time>2026-03-29T09:29:05Z</time></trkpt><trkpt lat="38.80269510909929" lon="-9.37810358656161"><ele>187.5</ele><time>2026-03-29T09:29:06Z</time></trkpt><trkpt lat="38.802800220300405" lon="-9.378225043171392"><ele>189.25</ele><time>2026-03-29T09:29:07Z</time></trkpt><trkpt lat="38.80285434169428" lon="-9.37832837672088"><ele>191.0</ele><time>2026-03-29T09:29:08Z</time></trkpt><trkpt lat="38.802906672695954" lon="-9.378443735567698"><ele>191.0</ele><time>2026-03-29T09:29:09Z</time></trkpt><trkpt lat="38.80291557136581" lon="-9.378580952652987"><ele>191.0</ele><time>2026-03-29T09:29:10Z</time></trkpt><trkpt lat="38.802878778699004" lon="-9.378711613565436"><ele>191.0</ele><time>2026-03-29T09:29:11Z</time></trkpt><trkpt lat="38.802811589912736" lon="-9.378816868078165"><ele>191.0</ele><time>2026-03-29T09:29:12Z</time></trkpt><trkpt lat="38.80270751140425" lon="-9.378876229698726"><ele>191.0</ele><time>2026-03-29T09:29:13Z</time></trkpt><trkpt lat="38.802576905184246" lon="-9.378895292598756"><ele>192.75</ele><time>2026-03-29T09:29:14Z</time></trkpt><trkpt lat="38.80244136455027" lon="-9.37891886738406"><ele>194.5</ele><time>2026-03-29T09:29:15Z</time></trkpt><trkpt lat="38.80229889079116" lon="-9.378908010062055"><ele>196.25</ele><time>2026-03-29T09:29:16Z</time></trkpt><trkpt lat="38.802153988536546" lon="-9.37886905103998"><ele>198.0</ele><time>2026-03-29T09:29:17Z</time></trkpt><trkpt lat="38.802062130136335" lon="-9.378859469358538"><ele>198.0</ele><time>2026-03-29T09:29:18Z</time></trkpt><trkpt lat="38.80189620209439" lon="-9.37885469008963"><ele>198.0</ele><time>2026-03-29T09:29:19Z</time></trkpt><trkpt lat="38.801777501792415" lon="-9.378826353351535"><ele>198.0</ele><time>2026-03-29T09:29:20Z</time></trkpt><trkpt lat="38.80167570513716" lon="-9.378811749457746"><ele>198.0</ele><time>2026-03-29T09:29:21Z</time></trkpt><trkpt lat="38.801595164806685" lon="-9.37879898040874"><ele>197.83333333333334</ele><time>2026-03-29T09:29:22Z</time></trkpt><trkpt lat="38.80152544930602" lon="-9.37880973453938"><ele>197.66666666666669</ele><time>2026-03-29T09:29:23Z</time></trkpt><trkpt lat="38.80144753382737" lon="-9.378782492541012"><ele>197.5</ele><time>2026-03-29T09:29:26Z</time></trkpt><trkpt lat="38.80139274704745" lon="-9.378832554552886"><ele>197.33333333333334</ele><time>2026-03-29T09:29:28Z</time></trkpt><trkpt lat="38.80139396974889" lon="-9.378978970346349"><ele>197.16666666666669</ele><time>2026-03-29T09:29:30Z</time></trkpt><trkpt lat="38.801382702087146" lon="-9.379087882830092"><ele>197.0</ele><time>2026-03-29T09:29:31Z</time></trkpt><trkpt lat="38.8013795088302" lon="-9.379201468426084"><ele>197.0</ele><time>2026-03-29T09:29:32Z</time></trkpt><trkpt lat="38.80137189547239" lon="-9.379358576391247"><ele>197.0</ele><time>2026-03-29T09:29:33Z</time></trkpt><trkpt lat="38.801357720851286" lon="-9.379534555941927"><ele>197.0</ele><time>2026-03-29T09:29:34Z</time></trkpt><trkpt lat="38.80135449203826" lon="-9.379706195072083"><ele>197.0</ele><time>2026-03-29T09:29:35Z</time></trkpt><trkpt lat="38.801357924821254" lon="-9.37984899201261"><ele>197.25</ele><time>2026-03-29T09:29:36Z</time></trkpt><trkpt lat="38.801353693817425" lon="-9.379976932146217"><ele>197.5</ele><time>2026-03-29T09:29:37Z</time></trkpt><trkpt lat="38.8013420326133" lon="-9.380070440963433"><ele>197.75</ele><time>2026-03-29T09:29:38Z</time></trkpt><trkpt lat="38.80119356905602" lon="-9.380102657393245"><ele>198.0</ele><time>2026-03-29T09:29:40Z</time></trkpt><trkpt lat="38.80106577342953" lon="-9.380062060890987"><ele>197.75</ele><time>2026-03-29T09:29:41Z</time></trkpt><trkpt lat="38.800938330492414" lon="-9.380044588052378"><ele>197.5</ele><time>2026-03-29T09:29:42Z</time></trkpt><trkpt lat="38.80080424267256" lon="-9.380035097826424"><ele>197.25</ele><time>2026-03-29T09:29:43Z</time></trkpt><trkpt lat="38.800664106250174" lon="-9.380034922381338"><ele>197.0</ele><time>2026-03-29T09:29:44Z</time></trkpt><trkpt lat="38.8005408496214" lon="-9.380018064576722"><ele>197.0</ele><time>2026-03-29T09:29:45Z</time></trkpt><trkpt lat="38.80044305112982" lon="-9.380017930258795"><ele>197.0</ele><time>2026-03-29T09:29:46Z</time></trkpt><trkpt lat="38.80036675129418" lon="-9.38001128159171"><ele>197.0</ele><time>2026-03-29T09:29:47Z</time></trkpt><trkpt lat="38.800297943869616" lon="-9.380036688740635"><ele>197.0</ele><time>2026-03-29T09:29:48Z</time></trkpt><trkpt lat="38.800295208141264" lon="-9.380322823547633"><ele>197.00000000000003</ele><time>2026-03-29T09:29:50Z</time></trkpt><trkpt lat="38.80026042253466" lon="-9.380451726725362"><ele>197.0</ele><time>2026-03-29T09:29:51Z</time></trkpt><trkpt lat="38.80024525003424" lon="-9.380555031351289"><ele>197.0</ele><time>2026-03-29T09:29:52Z</time></trkpt><trkpt lat="38.80024885322005" lon="-9.380649893962689"><ele>197.0</ele><time>2026-03-29T09:29:53Z</time></trkpt><trkpt lat="38.800234121320344" lon="-9.380760587075825"><ele>197.00000000000003</ele><time>2026-03-29T09:29:54Z</time></trkpt><trkpt lat="38.80022118617782" lon="-9.380874699668672"><ele>197.0</ele><time>2026-03-29T09:29:55Z</time></trkpt><trkpt lat="38.80020216109775" lon="-9.38098160242299"><ele>196.83333333333334</ele><time>2026-03-29T09:29:56Z</time></trkpt><trkpt lat="38.80021767997316" lon="-9.381081446269983"><ele>196.66666666666669</ele><time>2026-03-29T09:29:57Z</time></trkpt><trkpt lat="38.80023360970858" lon="-9.381181006017165"><ele>196.5</ele><time>2026-03-29T09:29:58Z</time></trkpt><trkpt lat="38.800257526084685" lon="-9.381284297651687"><ele>196.33333333333331</ele><time>2026-03-29T09:29:59Z</time></trkpt><trkpt lat="38.800281452234046" lon="-9.381372730958763"><ele>196.16666666666666</ele><time>2026-03-29T09:30:00Z</time></trkpt><trkpt lat="38.800322342615885" lon="-9.381494561297751"><ele>196.0</ele><time>2026-03-29T09:30:01Z</time></trkpt><trkpt lat="38.800385505598186" lon="-9.381635834430018"><ele>197.75</ele><time>2026-03-29T09:30:02Z</time></trkpt><trkpt lat="38.800463308747354" lon="-9.381790320030657"><ele>199.5</ele><time>2026-03-29T09:30:03Z</time></trkpt><trkpt lat="38.80054319278375" lon="-9.381925992817349"><ele>201.25</ele><time>2026-03-29T09:30:04Z</time></trkpt><trkpt lat="38.800602044051026" lon="-9.382025942002722"><ele>203.0</ele><time>2026-03-29T09:30:05Z</time></trkpt><trkpt lat="38.80066179101129" lon="-9.382108557442033"><ele>205.00000000000003</ele><time>2026-03-29T09:30:06Z</time></trkpt><trkpt lat="38.800705405699695" lon="-9.382199149658568"><ele>207.0</ele><time>2026-03-29T09:30:07Z</time></trkpt><trkpt lat="38.8007288603573" lon="-9.382299102276113"><ele>209.0</ele><time>2026-03-29T09:30:08Z</time></trkpt><trkpt lat="38.80073049092786" lon="-9.382404238365934"><ele>211.0</ele><time>2026-03-29T09:30:10Z</time></trkpt><trkpt lat="38.80067503881986" lon="-9.38249874772094"><ele>213.00000000000003</ele><time>2026-03-29T09:30:21Z</time></trkpt><trkpt lat="38.800612706467525" lon="-9.382513803432365"><ele>215.0</ele><time>2026-03-29T09:30:22Z</time></trkpt><trkpt lat="38.800480894602096" lon="-9.382453109548576"><ele>215.0</ele><time>2026-03-29T09:30:24Z</time></trkpt><trkpt lat="38.800392579206836" lon="-9.382407468465027"><ele>215.0</ele><time>2026-03-29T09:30:25Z</time></trkpt><trkpt lat="38.80029013403804" lon="-9.38238253665139"><ele>215.0</ele><time>2026-03-29T09:30:26Z</time></trkpt><trkpt lat="38.80018709130279" lon="-9.382333643125058"><ele>215.0</ele><time>2026-03-29T09:30:27Z</time></trkpt><trkpt lat="38.800095230119815" lon="-9.38229126416854"><ele>215.0</ele><time>2026-03-29T09:30:28Z</time></trkpt><trkpt lat="38.800001385441" lon="-9.382247970171901"><ele>215.33333333333334</ele><time>2026-03-29T09:30:29Z</time></trkpt><trkpt lat="38.799908087289054" lon="-9.382204928287695"><ele>215.66666666666669</ele><time>2026-03-29T09:30:30Z</time></trkpt><trkpt lat="38.79982056406876" lon="-9.3821507963384"><ele>216.0</ele><time>2026-03-29T09:30:31Z</time></trkpt><trkpt lat="38.79976071985659" lon="-9.382071186177988"><ele>216.33333333333331</ele><time>2026-03-29T09:30:32Z</time></trkpt><trkpt lat="38.79969678835699" lon="-9.382003509943694"><ele>216.66666666666666</ele><time>2026-03-29T09:30:33Z</time></trkpt><trkpt lat="38.799641802171415" lon="-9.381925729332195"><ele>217.0</ele><time>2026-03-29T09:30:34Z</time></trkpt><trkpt lat="38.79956533699534" lon="-9.3818424105672"><ele>217.0</ele><time>2026-03-29T09:30:36Z</time></trkpt><trkpt lat="38.79946887930437" lon="-9.381708369213966"><ele>217.0</ele><time>2026-03-29T09:30:38Z</time></trkpt><trkpt lat="38.79940608667706" lon="-9.38158214681592"><ele>217.0</ele><time>2026-03-29T09:30:39Z</time></trkpt><trkpt lat="38.79929318084357" lon="-9.381459397193577"><ele>217.0</ele><time>2026-03-29T09:30:40Z</time></trkpt><trkpt lat="38.79915211081588" lon="-9.381381467731103"><ele>218.5</ele><time>2026-03-29T09:30:41Z</time></trkpt><trkpt lat="38.79898968737726" lon="-9.381327141046931"><ele>220.0</ele><time>2026-03-29T09:30:42Z</time></trkpt><trkpt lat="38.79884699754359" lon="-9.381384852671511"><ele>221.5</ele><time>2026-03-29T09:30:43Z</time></trkpt><trkpt lat="38.798740246626615" lon="-9.381360293594128"><ele>223.0</ele><time>2026-03-29T09:30:44Z</time></trkpt><trkpt lat="38.79867174436472" lon="-9.381342985960664"><ele>223.2</ele><time>2026-03-29T09:30:45Z</time></trkpt><trkpt lat="38.798627033332465" lon="-9.381531123470069"><ele>223.4</ele><time>2026-03-29T09:30:49Z</time></trkpt><trkpt lat="38.798695453663626" lon="-9.381605344244337"><ele>223.59999999999997</ele><time>2026-03-29T09:30:50Z</time></trkpt><trkpt lat="38.79857099623343" lon="-9.381625375187049"><ele>223.79999999999998</ele><time>2026-03-29T09:30:51Z</time></trkpt><trkpt lat="38.7985591798128" lon="-9.38171234617922"><ele>224.0</ele><time>2026-03-29T09:30:53Z</time></trkpt><trkpt lat="38.79853491928309" lon="-9.381831861565207"><ele>224.0</ele><time>2026-03-29T09:30:57Z</time></trkpt><trkpt lat="38.79852158717126" lon="-9.381910945645682"><ele>223.99999999999997</ele><time>2026-03-29T09:30:58Z</time></trkpt><trkpt lat="38.798501837084295" lon="-9.382029663067128"><ele>223.99999999999997</ele><time>2026-03-29T09:30:59Z</time></trkpt><trkpt lat="38.79848371766179" lon="-9.382168483174771"><ele>224.0</ele><time>2026-03-29T09:31:00Z</time></trkpt><trkpt lat="38.79846788869341" lon="-9.382330642931075"><ele>224.0</ele><time>2026-03-29T09:31:01Z</time></trkpt><trkpt lat="38.79843145488861" lon="-9.382451982641635"><ele>226.25</ele><time>2026-03-29T09:31:02Z</time></trkpt><trkpt lat="38.79834855852985" lon="-9.382570216059845"><ele>228.5</ele><time>2026-03-29T09:31:04Z</time></trkpt><trkpt lat="38.79824980258028" lon="-9.382587926692445"><ele>230.75</ele><time>2026-03-29T09:31:05Z</time></trkpt><trkpt lat="38.798142554240314" lon="-9.382621309595605"><ele>233.0</ele><time>2026-03-29T09:31:06Z</time></trkpt><trkpt lat="38.798030874518396" lon="-9.382662097160587"><ele>233.0</ele><time>2026-03-29T09:31:07Z</time></trkpt><trkpt lat="38.7979318967368" lon="-9.382702377496091"><ele>233.0</ele><time>2026-03-29T09:31:08Z</time></trkpt><trkpt lat="38.797852498302625" lon="-9.38272918417867"><ele>233.0</ele><time>2026-03-29T09:31:09Z</time></trkpt><trkpt lat="38.797777404641344" lon="-9.382751256952467"><ele>233.0</ele><time>2026-03-29T09:31:10Z</time></trkpt><trkpt lat="38.79768346090993" lon="-9.3826913972318"><ele>233.0</ele><time>2026-03-29T09:31:11Z</time></trkpt><trkpt lat="38.7975757684544" lon="-9.382631167896744"><ele>235.16666666666669</ele><time>2026-03-29T09:31:12Z</time></trkpt><trkpt lat="38.797463417046515" lon="-9.382575232602136"><ele>237.33333333333334</ele><time>2026-03-29T09:31:13Z</time></trkpt><trkpt lat="38.797380718440486" lon="-9.382598248926834"><ele>239.5</ele><time>2026-03-29T09:31:14Z</time></trkpt><trkpt lat="38.7972962884706" lon="-9.382628149399505"><ele>241.66666666666669</ele><time>2026-03-29T09:31:15Z</time></trkpt><trkpt lat="38.7972296515776" lon="-9.382674431647843"><ele>243.83333333333334</ele><time>2026-03-29T09:31:16Z</time></trkpt><trkpt lat="38.797207630864456" lon="-9.382763733556232"><ele>246.0</ele><time>2026-03-29T09:31:17Z</time></trkpt><trkpt lat="38.79724912743444" lon="-9.382846335557465"><ele>246.0</ele><time>2026-03-29T09:31:18Z</time></trkpt><trkpt lat="38.79720393199689" lon="-9.382960726635805"><ele>246.0</ele><time>2026-03-29T09:31:19Z</time></trkpt><trkpt lat="38.797165895129595" lon="-9.383042059644687"><ele>246.0</ele><time>2026-03-29T09:31:20Z</time></trkpt><trkpt lat="38.79699210903236" lon="-9.383033256380289"><ele>246.0</ele><time>2026-03-29T09:31:21Z</time></trkpt><trkpt lat="38.79691174032333" lon="-9.38292133266033"><ele>246.0</ele><time>2026-03-29T09:31:23Z</time></trkpt><trkpt lat="38.796966187982115" lon="-9.382811229932393"><ele>246.0</ele><time>2026-03-29T09:31:24Z</time></trkpt><trkpt lat="38.79697067074166" lon="-9.3827013330321"><ele>246.0</ele><time>2026-03-29T09:31:25Z</time></trkpt><trkpt lat="38.797085560977244" lon="-9.38248482329756"><ele>246.0</ele><time>2026-03-29T09:31:26Z</time></trkpt><trkpt lat="38.797104307597635" lon="-9.382354136231402"><ele>246.0</ele><time>2026-03-29T09:31:27Z</time></trkpt><trkpt lat="38.79708720280631" lon="-9.382224566341243"><ele>246.00000000000003</ele><time>2026-03-29T09:31:28Z</time></trkpt><trkpt lat="38.79704243979014" lon="-9.382108398706123"><ele>246.00000000000003</ele><time>2026-03-29T09:31:29Z</time></trkpt><trkpt lat="38.79698634239035" lon="-9.382019196153184"><ele>246.0</ele><time>2026-03-29T09:31:30Z</time></trkpt><trkpt lat="38.79693035032403" lon="-9.38192071510536"><ele>246.0</ele><time>2026-03-29T09:31:31Z</time></trkpt><trkpt lat="38.79685520986308" lon="-9.381858194184353"><ele>247.83333333333334</ele><time>2026-03-29T09:31:32Z</time></trkpt><trkpt lat="38.79679001374883" lon="-9.381795163609578"><ele>249.66666666666669</ele><time>2026-03-29T09:31:33Z</time></trkpt><trkpt lat="38.79672571172606" lon="-9.381771315038772"><ele>251.5</ele><time>2026-03-29T09:31:34Z</time></trkpt><trkpt lat="38.796645274808576" lon="-9.381719743767174"><ele>253.33333333333334</ele><time>2026-03-29T09:31:35Z</time></trkpt><trkpt lat="38.796546202914634" lon="-9.3817673207326"><ele>255.16666666666669</ele><time>2026-03-29T09:31:36Z</time></trkpt><trkpt lat="38.79660882282992" lon="-9.381820318251757"><ele>257.0</ele><time>2026-03-29T09:31:42Z</time></trkpt><trkpt lat="38.79661226376033" lon="-9.381912145955908"><ele>257.0</ele><time>2026-03-29T09:31:43Z</time></trkpt><trkpt lat="38.79657533932868" lon="-9.38204112685684"><ele>257.0</ele><time>2026-03-29T09:31:44Z</time></trkpt><trkpt lat="38.79654035583454" lon="-9.38216332792833"><ele>257.0</ele><time>2026-03-29T09:31:45Z</time></trkpt><trkpt lat="38.79657219820927" lon="-9.382319244889826"><ele>257.0</ele><time>2026-03-29T09:31:46Z</time></trkpt><trkpt lat="38.79649846800571" lon="-9.382416357717513"><ele>257.0</ele><time>2026-03-29T09:31:47Z</time></trkpt><trkpt lat="38.796438955353445" lon="-9.382558261504855"><ele>257.0</ele><time>2026-03-29T09:31:48Z</time></trkpt><trkpt lat="38.79640152195478" lon="-9.38249049656513"><ele>257.0</ele><time>2026-03-29T09:31:50Z</time></trkpt><trkpt lat="38.796375406894256" lon="-9.382348633304042"><ele>257.0</ele><time>2026-03-29T09:31:51Z</time></trkpt><trkpt lat="38.796379952193945" lon="-9.38223519317811"><ele>257.0</ele><time>2026-03-29T09:31:52Z</time></trkpt><trkpt lat="38.79632271545589" lon="-9.382153831470855"><ele>257.0</ele><time>2026-03-29T09:31:53Z</time></trkpt><trkpt lat="38.7962427056183" lon="-9.382134366721614"><ele>257.0</ele><time>2026-03-29T09:31:54Z</time></trkpt><trkpt lat="38.79616843455775" lon="-9.382070627357116"><ele>257.0</ele><time>2026-03-29T09:31:55Z</time></trkpt><trkpt lat="38.796105561392615" lon="-9.381975331368674"><ele>257.0</ele><time>2026-03-29T09:31:56Z</time></trkpt><trkpt lat="38.796045025425336" lon="-9.38188191276287"><ele>257.0</ele><time>2026-03-29T09:31:57Z</time></trkpt><trkpt lat="38.79601454923724" lon="-9.38178490767124"><ele>257.0</ele><time>2026-03-29T09:31:58Z</time></trkpt><trkpt lat="38.795993990744975" lon="-9.381674641260664"><ele>257.0</ele><time>2026-03-29T09:31:59Z</time></trkpt><trkpt lat="38.79598494356283" lon="-9.381562785689795"><ele>257.0</ele><time>2026-03-29T09:32:00Z</time></trkpt><trkpt lat="38.79601202813611" lon="-9.381457844753076"><ele>257.0</ele><time>2026-03-29T09:32:01Z</time></trkpt><trkpt lat="38.79604385124397" lon="-9.381374486553163"><ele>257.0</ele><time>2026-03-29T09:32:02Z</time></trkpt><trkpt lat="38.79608966639081" lon="-9.381310615522592"><ele>257.0</ele><time>2026-03-29T09:32:03Z</time></trkpt><trkpt lat="38.7961370406843" lon="-9.381236567045377"><ele>257.0</ele><time>2026-03-29T09:32:04Z</time></trkpt><trkpt lat="38.79620273978104" lon="-9.381145679427965"><ele>257.0</ele><time>2026-03-29T09:32:05Z</time></trkpt><trkpt lat="38.79623890700765" lon="-9.381049547267171"><ele>257.2</ele><time>2026-03-29T09:32:06Z</time></trkpt><trkpt lat="38.79627586686187" lon="-9.38098216273667"><ele>257.4</ele><time>2026-03-29T09:32:07Z</time></trkpt><trkpt lat="38.79627586985298" lon="-9.380813812325023"><ele>257.6</ele><time>2026-03-29T09:32:09Z</time></trkpt><trkpt lat="38.796223471443824" lon="-9.380756220905749"><ele>257.8</ele><time>2026-03-29T09:32:10Z</time></trkpt><trkpt lat="38.7961265130971" lon="-9.380754075365596"><ele>258.0</ele><time>2026-03-29T09:32:12Z</time></trkpt><trkpt lat="38.79602783161903" lon="-9.380804550388975"><ele>261.2</ele><time>2026-03-29T09:32:14Z</time></trkpt><trkpt lat="38.79599594493811" lon="-9.380905535509802"><ele>264.4</ele><time>2026-03-29T09:32:15Z</time></trkpt><trkpt lat="38.79592485713366" lon="-9.381003137888952"><ele>267.59999999999997</ele><time>2026-03-29T09:32:16Z</time></trkpt><trkpt lat="38.79587537397523" lon="-9.381103273952117"><ele>270.8</ele><time>2026-03-29T09:32:17Z</time></trkpt><trkpt lat="38.79580819766339" lon="-9.381196431379948"><ele>274.0</ele><time>2026-03-29T09:32:18Z</time></trkpt><trkpt lat="38.79573896025663" lon="-9.381306392020944"><ele>273.16666666666663</ele><time>2026-03-29T09:32:19Z</time></trkpt><trkpt lat="38.79567373770956" lon="-9.381415723942556"><ele>272.3333333333333</ele><time>2026-03-29T09:32:20Z</time></trkpt><trkpt lat="38.79562648931466" lon="-9.381510386814446"><ele>271.5</ele><time>2026-03-29T09:32:21Z</time></trkpt><trkpt lat="38.79559092673878" lon="-9.381578208494108"><ele>270.6666666666667</ele><time>2026-03-29T09:32:22Z</time></trkpt><trkpt lat="38.795506885901126" lon="-9.381643562447005"><ele>269.83333333333337</ele><time>2026-03-29T09:32:24Z</time></trkpt><trkpt lat="38.795441693303424" lon="-9.38162578490019"><ele>269.0</ele><time>2026-03-29T09:32:25Z</time></trkpt><trkpt lat="38.79537442767632" lon="-9.381577671591458"><ele>269.0</ele><time>2026-03-29T09:32:26Z</time></trkpt><trkpt lat="38.79530883250297" lon="-9.381504106559662"><ele>269.0</ele><time>2026-03-29T09:32:27Z</time></trkpt><trkpt lat="38.79524087136804" lon="-9.381422398717364"><ele>269.0</ele><time>2026-03-29T09:32:28Z</time></trkpt><trkpt lat="38.79516521647656" lon="-9.381353128050513"><ele>269.0</ele><time>2026-03-29T09:32:29Z</time></trkpt><trkpt lat="38.79508985366442" lon="-9.381278307709794"><ele>269.0</ele><time>2026-03-29T09:32:30Z</time></trkpt><trkpt lat="38.7950266593668" lon="-9.381214654579278"><ele>269.0</ele><time>2026-03-29T09:32:31Z</time></trkpt><trkpt lat="38.794972729945606" lon="-9.381153535211691"><ele>271.33333333333337</ele><time>2026-03-29T09:32:32Z</time></trkpt><trkpt lat="38.79492727261278" lon="-9.381094900536604"><ele>273.6666666666667</ele><time>2026-03-29T09:32:33Z</time></trkpt><trkpt lat="38.79488015519242" lon="-9.381032593906594"><ele>276.0</ele><time>2026-03-29T09:32:34Z</time></trkpt><trkpt lat="38.794858721258066" lon="-9.38086337132256"><ele>278.3333333333333</ele><time>2026-03-29T09:32:36Z</time></trkpt><trkpt lat="38.79483776930668" lon="-9.380781451516754"><ele>280.66666666666663</ele><time>2026-03-29T09:32:37Z</time></trkpt><trkpt lat="38.794831977963874" lon="-9.380686202243963"><ele>283.0</ele><time>2026-03-29T09:32:38Z</time></trkpt><trkpt lat="38.794841707076344" lon="-9.380588495246316"><ele>283.8333333333333</ele><time>2026-03-29T09:32:39Z</time></trkpt><trkpt lat="38.79481492187887" lon="-9.380462196409601"><ele>284.66666666666663</ele><time>2026-03-29T09:32:41Z</time></trkpt><trkpt lat="38.79475722803179" lon="-9.38037241161566"><ele>285.5</ele><time>2026-03-29T09:32:44Z</time></trkpt><trkpt lat="38.79466721601038" lon="-9.380389894545408"><ele>286.3333333333333</ele><time>2026-03-29T09:32:46Z</time></trkpt><trkpt lat="38.794594350166115" lon="-9.380394808134968"><ele>287.1666666666667</ele><time>2026-03-29T09:32:47Z</time></trkpt><trkpt lat="38.794509589968214" lon="-9.380401021377903"><ele>288.0</ele><time>2026-03-29T09:32:48Z</time></trkpt><trkpt lat="38.794407791006954" lon="-9.380405590906296"><ele>289.0</ele><time>2026-03-29T09:32:49Z</time></trkpt><trkpt lat="38.794304898383004" lon="-9.380407350309104"><ele>290.0</ele><time>2026-03-29T09:32:50Z</time></trkpt><trkpt lat="38.79420948983705" lon="-9.380410027995898"><ele>291.0</ele><time>2026-03-29T09:32:51Z</time></trkpt><trkpt lat="38.79413737402997" lon="-9.380412197652998"><ele>292.0</ele><time>2026-03-29T09:32:52Z</time></trkpt><trkpt lat="38.79406996034818" lon="-9.38041478154464"><ele>293.0</ele><time>2026-03-29T09:32:53Z</time></trkpt><trkpt lat="38.79405576075329" lon="-9.380582225890818"><ele>290.8</ele><time>2026-03-29T09:32:55Z</time></trkpt><trkpt lat="38.79403571049323" lon="-9.380680799023276"><ele>288.6</ele><time>2026-03-29T09:32:56Z</time></trkpt><trkpt lat="38.793992369735825" lon="-9.380817617625116"><ele>286.4</ele><time>2026-03-29T09:32:58Z</time></trkpt><trkpt lat="38.79389069752201" lon="-9.380938052857218"><ele>284.2</ele><time>2026-03-29T09:33:00Z</time></trkpt><trkpt lat="38.79379245444709" lon="-9.380924221398127"><ele>282.0</ele><time>2026-03-29T09:33:01Z</time></trkpt><trkpt lat="38.79370475032382" lon="-9.380917987436645"><ele>282.0</ele><time>2026-03-29T09:33:02Z</time></trkpt><trkpt lat="38.79362692149049" lon="-9.380936634199651"><ele>282.0</ele><time>2026-03-29T09:33:03Z</time></trkpt><trkpt lat="38.79356021635228" lon="-9.380937349264139"><ele>282.0</ele><time>2026-03-29T09:33:04Z</time></trkpt><trkpt lat="38.793493992161714" lon="-9.380937452720028"><ele>282.0</ele><time>2026-03-29T09:33:05Z</time></trkpt><trkpt lat="38.79342984031655" lon="-9.380937452720238"><ele>282.0</ele><time>2026-03-29T09:33:06Z</time></trkpt><trkpt lat="38.793326275587575" lon="-9.380937452719227"><ele>282.0</ele><time>2026-03-29T09:33:08Z</time></trkpt><trkpt lat="38.793235479917726" lon="-9.38095507888051"><ele>282.6</ele><time>2026-03-29T09:33:10Z</time></trkpt><trkpt lat="38.79318425512923" lon="-9.381025129823566"><ele>283.2</ele><time>2026-03-29T09:33:45Z</time></trkpt><trkpt lat="38.79311172004715" lon="-9.381003587421858"><ele>283.8</ele><time>2026-03-29T09:33:48Z</time></trkpt><trkpt lat="38.79304413177292" lon="-9.380905048936185"><ele>284.4</ele><time>2026-03-29T09:33:50Z</time></trkpt><trkpt lat="38.79295405078313" lon="-9.380776715295069"><ele>285.0</ele><time>2026-03-29T09:33:52Z</time></trkpt><trkpt lat="38.792883803964216" lon="-9.380731190529488"><ele>285.0</ele><time>2026-03-29T09:33:53Z</time></trkpt><trkpt lat="38.7928131593316" lon="-9.380663368820722"><ele>285.0</ele><time>2026-03-29T09:33:54Z</time></trkpt><trkpt lat="38.7927328643961" lon="-9.380589637623059"><ele>285.0</ele><time>2026-03-29T09:33:55Z</time></trkpt><trkpt lat="38.79264897526033" lon="-9.380515786175664"><ele>285.0</ele><time>2026-03-29T09:33:56Z</time></trkpt><trkpt lat="38.79256661089616" lon="-9.380463215929195"><ele>285.0</ele><time>2026-03-29T09:33:57Z</time></trkpt><trkpt lat="38.792476055579115" lon="-9.380424677171813"><ele>287.3333333333333</ele><time>2026-03-29T09:33:58Z</time></trkpt><trkpt lat="38.79237679831127" lon="-9.38039295234584"><ele>289.6666666666667</ele><time>2026-03-29T09:33:59Z</time></trkpt><trkpt lat="38.79227457407943" lon="-9.380374950371024"><ele>292.0</ele><time>2026-03-29T09:34:00Z</time></trkpt><trkpt lat="38.7921768722937" lon="-9.380358303350254"><ele>294.33333333333337</ele><time>2026-03-29T09:34:01Z</time></trkpt><trkpt lat="38.792102866144404" lon="-9.3803508794277"><ele>296.6666666666667</ele><time>2026-03-29T09:34:02Z</time></trkpt><trkpt lat="38.79203776750852" lon="-9.38035193327071"><ele>299.0</ele><time>2026-03-29T09:34:03Z</time></trkpt><trkpt lat="38.79197189448991" lon="-9.380353989113535"><ele>299.0</ele><time>2026-03-29T09:34:04Z</time></trkpt><trkpt lat="38.791901620123404" lon="-9.380354086982946"><ele>299.0</ele><time>2026-03-29T09:34:05Z</time></trkpt><trkpt lat="38.7918337910231" lon="-9.380351086680074"><ele>299.0</ele><time>2026-03-29T09:34:06Z</time></trkpt><trkpt lat="38.791733584783685" lon="-9.380345086848918"><ele>299.0</ele><time>2026-03-29T09:34:08Z</time></trkpt><trkpt lat="38.79166266875097" lon="-9.380338728181549"><ele>299.0</ele><time>2026-03-29T09:34:19Z</time></trkpt><trkpt lat="38.791567086883354" lon="-9.380331182470501"><ele>299.0</ele><time>2026-03-29T09:34:21Z</time></trkpt><trkpt lat="38.791457544398774" lon="-9.380320162176272"><ele>298.59999999999997</ele><time>2026-03-29T09:34:23Z</time></trkpt><trkpt lat="38.79131639889226" lon="-9.380302841912895"><ele>298.2</ele><time>2026-03-29T09:34:25Z</time></trkpt><trkpt lat="38.791229156007816" lon="-9.380291381917013"><ele>297.79999999999995</ele><time>2026-03-29T09:34:26Z</time></trkpt><trkpt lat="38.791144645411464" lon="-9.38027897474578"><ele>297.4</ele><time>2026-03-29T09:34:27Z</time></trkpt><trkpt lat="38.79107113360346" lon="-9.380265617578786"><ele>297.0</ele><time>2026-03-29T09:34:28Z</time></trkpt><trkpt lat="38.791004723509225" lon="-9.380250222593672"><ele>297.0</ele><time>2026-03-29T09:34:29Z</time></trkpt><trkpt lat="38.79088103896866" lon="-9.38019331447423"><ele>297.0</ele><time>2026-03-29T09:34:31Z</time></trkpt><trkpt lat="38.79081681671907" lon="-9.380141990138915"><ele>297.0</ele><time>2026-03-29T09:34:32Z</time></trkpt><trkpt lat="38.790787129199614" lon="-9.380050238775924"><ele>297.0</ele><time>2026-03-29T09:34:33Z</time></trkpt><trkpt lat="38.79077282233217" lon="-9.37995032438207"><ele>297.0</ele><time>2026-03-29T09:34:34Z</time></trkpt><trkpt lat="38.79078455455443" lon="-9.379845987380918"><ele>297.0</ele><time>2026-03-29T09:34:35Z</time></trkpt><trkpt lat="38.79079550420879" lon="-9.37974583875209"><ele>296.5</ele><time>2026-03-29T09:34:36Z</time></trkpt><trkpt lat="38.79079813221133" lon="-9.379647036359195"><ele>296.0</ele><time>2026-03-29T09:34:37Z</time></trkpt><trkpt lat="38.79079844698713" lon="-9.379539585318845"><ele>295.5</ele><time>2026-03-29T09:34:38Z</time></trkpt><trkpt lat="38.790798697452395" lon="-9.379423874250133"><ele>295.0</ele><time>2026-03-29T09:34:39Z</time></trkpt><trkpt lat="38.79080092889066" lon="-9.379305793492575"><ele>294.5</ele><time>2026-03-29T09:34:40Z</time></trkpt><trkpt lat="38.79080314170333" lon="-9.37921739477455"><ele>294.0</ele><time>2026-03-29T09:34:41Z</time></trkpt><trkpt lat="38.790802804079846" lon="-9.379116604010626"><ele>294.0</ele><time>2026-03-29T09:34:43Z</time></trkpt><trkpt lat="38.79072302618001" lon="-9.37919358525059"><ele>294.0</ele><time>2026-03-29T09:34:50Z</time></trkpt><trkpt lat="38.79060759337508" lon="-9.379249824072726"><ele>294.0</ele><time>2026-03-29T09:34:52Z</time></trkpt><trkpt lat="38.79052692629502" lon="-9.379277149763238"><ele>294.0</ele><time>2026-03-29T09:34:53Z</time></trkpt><trkpt lat="38.790451760072024" lon="-9.379298771461293"><ele>294.0</ele><time>2026-03-29T09:34:54Z</time></trkpt><trkpt lat="38.790378756048845" lon="-9.379334338775422"><ele>294.0</ele><time>2026-03-29T09:34:55Z</time></trkpt><trkpt lat="38.79029574872888" lon="-9.379388825337157"><ele>294.0</ele><time>2026-03-29T09:34:56Z</time></trkpt><trkpt lat="38.79019967939853" lon="-9.379432094679093"><ele>294.0</ele><time>2026-03-29T09:34:57Z</time></trkpt><trkpt lat="38.79010215884617" lon="-9.37947338823146"><ele>294.0</ele><time>2026-03-29T09:34:58Z</time></trkpt><trkpt lat="38.790000935327825" lon="-9.379516263480214"><ele>294.0</ele><time>2026-03-29T09:34:59Z</time></trkpt><trkpt lat="38.7898951600996" lon="-9.379557985165482"><ele>293.4</ele><time>2026-03-29T09:35:00Z</time></trkpt><trkpt lat="38.789801324706126" lon="-9.379619759592234"><ele>292.79999999999995</ele><time>2026-03-29T09:35:01Z</time></trkpt><trkpt lat="38.789709960351374" lon="-9.379663614462208"><ele>292.20000000000005</ele><time>2026-03-29T09:35:02Z</time></trkpt><trkpt lat="38.78961429093404" lon="-9.37967731760278"><ele>291.6</ele><time>2026-03-29T09:35:03Z</time></trkpt><trkpt lat="38.789535308271304" lon="-9.379635858062679"><ele>291.0</ele><time>2026-03-29T09:35:04Z</time></trkpt><trkpt lat="38.789462330235885" lon="-9.37960893578082"><ele>291.0</ele><time>2026-03-29T09:35:05Z</time></trkpt><trkpt lat="38.78938266993974" lon="-9.37959965412003"><ele>291.0</ele><time>2026-03-29T09:35:06Z</time></trkpt><trkpt lat="38.789300022391124" lon="-9.379597293103386"><ele>291.0</ele><time>2026-03-29T09:35:07Z</time></trkpt><trkpt lat="38.78923203808792" lon="-9.379602434219567"><ele>291.0</ele><time>2026-03-29T09:35:08Z</time></trkpt><trkpt lat="38.789112360610886" lon="-9.3796594611294"><ele>291.0</ele><time>2026-03-29T09:35:10Z</time></trkpt><trkpt lat="38.78903751372557" lon="-9.379701002621308"><ele>291.0</ele><time>2026-03-29T09:35:11Z</time></trkpt><trkpt lat="38.788954318157636" lon="-9.379746931392908"><ele>293.0</ele><time>2026-03-29T09:35:12Z</time></trkpt><trkpt lat="38.78887881644451" lon="-9.379793337645978"><ele>295.0</ele><time>2026-03-29T09:35:13Z</time></trkpt><trkpt lat="38.788799915693296" lon="-9.379847863502421"><ele>297.0</ele><time>2026-03-29T09:35:14Z</time></trkpt><trkpt lat="38.78872688413774" lon="-9.379906840990522"><ele>299.0</ele><time>2026-03-29T09:35:15Z</time></trkpt><trkpt lat="38.7886584021871" lon="-9.379976904705604"><ele>301.0</ele><time>2026-03-29T09:35:16Z</time></trkpt><trkpt lat="38.788605110179454" lon="-9.380057225757055"><ele>303.0</ele><time>2026-03-29T09:35:17Z</time></trkpt><trkpt lat="38.78854793896698" lon="-9.380119296780169"><ele>305.0</ele><time>2026-03-29T09:35:18Z</time></trkpt><trkpt lat="38.788492713082825" lon="-9.380175714781677"><ele>307.0</ele><time>2026-03-29T09:35:19Z</time></trkpt><trkpt lat="38.78843259023575" lon="-9.380236127842608"><ele>309.0</ele><time>2026-03-29T09:35:20Z</time></trkpt><trkpt lat="38.7883567889815" lon="-9.38029341363904"><ele>311.0</ele><time>2026-03-29T09:35:21Z</time></trkpt><trkpt lat="38.788286873588184" lon="-9.380349603205756"><ele>313.0</ele><time>2026-03-29T09:35:22Z</time></trkpt><trkpt lat="38.78822204778816" lon="-9.38040171514226"><ele>315.0</ele><time>2026-03-29T09:35:23Z</time></trkpt><trkpt lat="38.7881668516078" lon="-9.380446086058122"><ele>315.0</ele><time>2026-03-29T09:35:24Z</time></trkpt><trkpt lat="38.78810133143875" lon="-9.380498756179467"><ele>315.0</ele><time>2026-03-29T09:35:25Z</time></trkpt><trkpt lat="38.78803597432646" lon="-9.3805512952217"><ele>315.0</ele><time>2026-03-29T09:35:26Z</time></trkpt><trkpt lat="38.78797352220413" lon="-9.380601499018256"><ele>315.0</ele><time>2026-03-29T09:35:27Z</time></trkpt><trkpt lat="38.78790661538398" lon="-9.380656268334848"><ele>315.0</ele><time>2026-03-29T09:35:28Z</time></trkpt><trkpt lat="38.78784580972629" lon="-9.380706224700523"><ele>315.0</ele><time>2026-03-29T09:35:29Z</time></trkpt><trkpt lat="38.787777215593536" lon="-9.380761916829291"><ele>314.8</ele><time>2026-03-29T09:35:30Z</time></trkpt><trkpt lat="38.787718906748985" lon="-9.380806937128659"><ele>314.6</ele><time>2026-03-29T09:35:31Z</time></trkpt><trkpt lat="38.787653689054686" lon="-9.380856577251128"><ele>314.4</ele><time>2026-03-29T09:35:32Z</time></trkpt><trkpt lat="38.787573374296535" lon="-9.380911846070557"><ele>314.2</ele><time>2026-03-29T09:35:33Z</time></trkpt><trkpt lat="38.78747039343707" lon="-9.380950919719526"><ele>314.0</ele><time>2026-03-29T09:35:34Z</time></trkpt><trkpt lat="38.78736780198033" lon="-9.381029651813936"><ele>317.4</ele><time>2026-03-29T09:35:35Z</time></trkpt><trkpt lat="38.78725769008261" lon="-9.381088485865046"><ele>320.79999999999995</ele><time>2026-03-29T09:35:36Z</time></trkpt><trkpt lat="38.787180333892536" lon="-9.381127545684368"><ele>324.20000000000005</ele><time>2026-03-29T09:35:37Z</time></trkpt><trkpt lat="38.78711097081543" lon="-9.381151115397333"><ele>327.6</ele><time>2026-03-29T09:35:38Z</time></trkpt><trkpt lat="38.78700748810289" lon="-9.381136429413095"><ele>331.0</ele><time>2026-03-29T09:35:39Z</time></trkpt><trkpt lat="38.786912121717506" lon="-9.381101493799504"><ele>335.25</ele><time>2026-03-29T09:35:40Z</time></trkpt><trkpt lat="38.78682902638878" lon="-9.381138337855173"><ele>339.5</ele><time>2026-03-29T09:35:41Z</time></trkpt><trkpt lat="38.786727476429924" lon="-9.381164437725388"><ele>343.75</ele><time>2026-03-29T09:35:42Z</time></trkpt><trkpt lat="38.786599801852056" lon="-9.381196659486454"><ele>348.0</ele><time>2026-03-29T09:35:43Z</time></trkpt><trkpt lat="38.78646531481897" lon="-9.381230424754714"><ele>348.0</ele><time>2026-03-29T09:35:44Z</time></trkpt><trkpt lat="38.78634652723449" lon="-9.38126228633076"><ele>348.0</ele><time>2026-03-29T09:35:45Z</time></trkpt><trkpt lat="38.78622931031091" lon="-9.381297608445408"><ele>348.0</ele><time>2026-03-29T09:35:46Z</time></trkpt><trkpt lat="38.78612560052649" lon="-9.381363519994613"><ele>348.0</ele><time>2026-03-29T09:35:48Z</time></trkpt><trkpt lat="38.78612887028134" lon="-9.381532362896069"><ele>349.59999999999997</ele><time>2026-03-29T09:35:50Z</time></trkpt><trkpt lat="38.78610585016906" lon="-9.381614654356468"><ele>351.2</ele><time>2026-03-29T09:35:51Z</time></trkpt><trkpt lat="38.7860001286392" lon="-9.381669943248916"><ele>352.8</ele><time>2026-03-29T09:35:52Z</time></trkpt><trkpt lat="38.785894902034116" lon="-9.381682769863728"><ele>354.4</ele><time>2026-03-29T09:35:53Z</time></trkpt><trkpt lat="38.78581149068047" lon="-9.381757394744884"><ele>356.0</ele><time>2026-03-29T09:35:54Z</time></trkpt><trkpt lat="38.78577721754076" lon="-9.381832675067603"><ele>356.0</ele><time>2026-03-29T09:35:55Z</time></trkpt><trkpt lat="38.78581052461766" lon="-9.381923739393514"><ele>356.0</ele><time>2026-03-29T09:35:56Z</time></trkpt><trkpt lat="38.78591732281936" lon="-9.381957697352219"><ele>356.0</ele><time>2026-03-29T09:35:57Z</time></trkpt><trkpt lat="38.78598253748075" lon="-9.382007225333135"><ele>356.0</ele><time>2026-03-29T09:35:58Z</time></trkpt><trkpt lat="38.7860492677993" lon="-9.382075761385293"><ele>356.0</ele><time>2026-03-29T09:35:59Z</time></trkpt><trkpt lat="38.786124150545675" lon="-9.382125405772236"><ele>356.0</ele><time>2026-03-29T09:36:00Z</time></trkpt><trkpt lat="38.786189991883795" lon="-9.382196170407976"><ele>359.6</ele><time>2026-03-29T09:36:01Z</time></trkpt><trkpt lat="38.78623784803286" lon="-9.38229805824999"><ele>363.20000000000005</ele><time>2026-03-29T09:36:02Z</time></trkpt><trkpt lat="38.78622949566864" lon="-9.382435653225981"><ele>366.79999999999995</ele><time>2026-03-29T09:36:03Z</time></trkpt><trkpt lat="38.786213066314694" lon="-9.382582078195355"><ele>370.4</ele><time>2026-03-29T09:36:04Z</time></trkpt><trkpt lat="38.78616776626105" lon="-9.382721467171047"><ele>374.0</ele><time>2026-03-29T09:36:05Z</time></trkpt><trkpt lat="38.786115532065665" lon="-9.382877463718495"><ele>377.25</ele><time>2026-03-29T09:36:06Z</time></trkpt><trkpt lat="38.7860675450649" lon="-9.383049294403646"><ele>380.5</ele><time>2026-03-29T09:36:07Z</time></trkpt><trkpt lat="38.786012861675154" lon="-9.383228169503095"><ele>383.75</ele><time>2026-03-29T09:36:08Z</time></trkpt><trkpt lat="38.78596029559437" lon="-9.383403731015065"><ele>387.0</ele><time>2026-03-29T09:36:09Z</time></trkpt><trkpt lat="38.78591050593748" lon="-9.383576283426592"><ele>387.0</ele><time>2026-03-29T09:36:10Z</time></trkpt><trkpt lat="38.78586723355793" lon="-9.3837553346576"><ele>387.0</ele><time>2026-03-29T09:36:11Z</time></trkpt><trkpt lat="38.785816562748195" lon="-9.383918600711318"><ele>387.0</ele><time>2026-03-29T09:36:12Z</time></trkpt><trkpt lat="38.78574875531155" lon="-9.384072165926781"><ele>387.0</ele><time>2026-03-29T09:36:13Z</time></trkpt><trkpt lat="38.78565746076488" lon="-9.38421713040447"><ele>395.0</ele><time>2026-03-29T09:36:14Z</time></trkpt><trkpt lat="38.78558295498952" lon="-9.38438310244413"><ele>403.0</ele><time>2026-03-29T09:36:15Z</time></trkpt><trkpt lat="38.78548427799244" lon="-9.384533170224321"><ele>411.0</ele><time>2026-03-29T09:36:16Z</time></trkpt><trkpt lat="38.78538473699562" lon="-9.384674247272864"><ele>413.0</ele><time>2026-03-29T09:36:17Z</time></trkpt><trkpt lat="38.78529265513777" lon="-9.384813547545821"><ele>415.0</ele><time>2026-03-29T09:36:18Z</time></trkpt><trkpt lat="38.785219236207155" lon="-9.384936017804424"><ele>417.0</ele><time>2026-03-29T09:36:19Z</time></trkpt><trkpt lat="38.78516274999086" lon="-9.38506309714131"><ele>419.0</ele><time>2026-03-29T09:36:20Z</time></trkpt><trkpt lat="38.785141108159394" lon="-9.385176986773928"><ele>418.99999999999994</ele><time>2026-03-29T09:36:21Z</time></trkpt><trkpt lat="38.7851266761559" lon="-9.385273576953269"><ele>419.0</ele><time>2026-03-29T09:36:22Z</time></trkpt><trkpt lat="38.78515420890671" lon="-9.385361466395748"><ele>419.0</ele><time>2026-03-29T09:36:24Z</time></trkpt><trkpt lat="38.785214061098266" lon="-9.385331023550398"><ele>419.0</ele><time>2026-03-29T09:36:25Z</time></trkpt><trkpt lat="38.78528869009232" lon="-9.385336187678842"><ele>418.99999999999994</ele><time>2026-03-29T09:36:26Z</time></trkpt><trkpt lat="38.78537356506603" lon="-9.385347375987514"><ele>419.0</ele><time>2026-03-29T09:36:27Z</time></trkpt><trkpt lat="38.7855074806221" lon="-9.38536638959637"><ele>422.16666666666663</ele><time>2026-03-29T09:36:29Z</time></trkpt><trkpt lat="38.78557275059145" lon="-9.385392065801181"><ele>425.3333333333333</ele><time>2026-03-29T09:36:30Z</time></trkpt><trkpt lat="38.78563649783238" lon="-9.385453877580542"><ele>428.5</ele><time>2026-03-29T09:36:31Z</time></trkpt><trkpt lat="38.785663306453294" lon="-9.385550043416359"><ele>431.66666666666663</ele><time>2026-03-29T09:36:32Z</time></trkpt><trkpt lat="38.785649490389304" lon="-9.385670884355807"><ele>434.8333333333333</ele><time>2026-03-29T09:36:33Z</time></trkpt><trkpt lat="38.78564925840215" lon="-9.38581750388726"><ele>438.0</ele><time>2026-03-29T09:36:34Z</time></trkpt><trkpt lat="38.785650093348686" lon="-9.385966661093956"><ele>441.2</ele><time>2026-03-29T09:36:35Z</time></trkpt><trkpt lat="38.78565150259242" lon="-9.386098283553805"><ele>444.4</ele><time>2026-03-29T09:36:36Z</time></trkpt><trkpt lat="38.78566647731575" lon="-9.38624398119832"><ele>447.59999999999997</ele><time>2026-03-29T09:36:37Z</time></trkpt><trkpt lat="38.78571381867557" lon="-9.386367298743219"><ele>450.79999999999995</ele><time>2026-03-29T09:36:38Z</time></trkpt><trkpt lat="38.785770014355904" lon="-9.386442319053687"><ele>454.0</ele><time>2026-03-29T09:36:39Z</time></trkpt><trkpt lat="38.78583689420647" lon="-9.386539696029635"><ele>455.50000000000006</ele><time>2026-03-29T09:36:41Z</time></trkpt><trkpt lat="38.7859184156273" lon="-9.386559528139722"><ele>457.0</ele><time>2026-03-29T09:36:50Z</time></trkpt><trkpt lat="38.78599280773895" lon="-9.386472498861098"><ele>458.5</ele><time>2026-03-29T09:36:52Z</time></trkpt><trkpt lat="38.78601921952211" lon="-9.386345498152707"><ele>460.0</ele><time>2026-03-29T09:36:54Z</time></trkpt><trkpt lat="38.786050045300435" lon="-9.38623970839793"><ele>461.50000000000006</ele><time>2026-03-29T09:36:56Z</time></trkpt><trkpt lat="38.78606493899712" lon="-9.38615179189293"><ele>463.0</ele><time>2026-03-29T09:36:58Z</time></trkpt><trkpt lat="38.78611937545285" lon="-9.386105870994294"><ele>463.00000000000006</ele><time>2026-03-29T09:37:01Z</time></trkpt><trkpt lat="38.78609835685394" lon="-9.386225548265653"><ele>463.0</ele><time>2026-03-29T09:37:05Z</time></trkpt><trkpt lat="38.78605601062215" lon="-9.38628921765656"><ele>463.0</ele><time>2026-03-29T09:37:07Z</time></trkpt><trkpt lat="38.78602038779862" lon="-9.386396835362298"><ele>463.0</ele><time>2026-03-29T09:37:10Z</time></trkpt><trkpt lat="38.785960295448135" lon="-9.386476945619151"><ele>463.00000000000006</ele><time>2026-03-29T09:37:34Z</time></trkpt><trkpt lat="38.78591303865792" lon="-9.386571334621108"><ele>463.0</ele><time>2026-03-29T09:37:36Z</time></trkpt><trkpt lat="38.785818054643535" lon="-9.386563845666103"><ele>463.59999999999997</ele><time>2026-03-29T09:37:38Z</time></trkpt><trkpt lat="38.785740617241316" lon="-9.386455709384284"><ele>464.19999999999993</ele><time>2026-03-29T09:37:40Z</time></trkpt><trkpt lat="38.78571111761308" lon="-9.386360362138639"><ele>464.8</ele><time>2026-03-29T09:37:41Z</time></trkpt><trkpt lat="38.78563836380915" lon="-9.386255358593344"><ele>465.4</ele><time>2026-03-29T09:37:42Z</time></trkpt><trkpt lat="38.78559982146784" lon="-9.386131258655704"><ele>466.0</ele><time>2026-03-29T09:37:43Z</time></trkpt><trkpt lat="38.78561605296513" lon="-9.386004391409239"><ele>464.00000000000006</ele><time>2026-03-29T09:37:44Z</time></trkpt><trkpt lat="38.785618203787195" lon="-9.38589709946566"><ele>462.0</ele><time>2026-03-29T09:37:45Z</time></trkpt><trkpt lat="38.78561649410361" lon="-9.385780384968005"><ele>460.0</ele><time>2026-03-29T09:37:46Z</time></trkpt><trkpt lat="38.78562071188145" lon="-9.38568593505179"><ele>458.0</ele><time>2026-03-29T09:37:47Z</time></trkpt><trkpt lat="38.78561768808629" lon="-9.385590347983769"><ele>456.00000000000006</ele><time>2026-03-29T09:37:48Z</time></trkpt><trkpt lat="38.78560754446278" lon="-9.385494083684648"><ele>454.0</ele><time>2026-03-29T09:37:49Z</time></trkpt><trkpt lat="38.78556840174853" lon="-9.385419144057492"><ele>451.33333333333337</ele><time>2026-03-29T09:37:50Z</time></trkpt><trkpt lat="38.78550359028847" lon="-9.385418349696451"><ele>448.6666666666667</ele><time>2026-03-29T09:37:51Z</time></trkpt><trkpt lat="38.785431091503774" lon="-9.385387824843338"><ele>446.0</ele><time>2026-03-29T09:37:52Z</time></trkpt><trkpt lat="38.78527714425395" lon="-9.385377474233323"><ele>443.33333333333337</ele><time>2026-03-29T09:37:54Z</time></trkpt><trkpt lat="38.785195849369735" lon="-9.385363321861224"><ele>440.6666666666667</ele><time>2026-03-29T09:37:55Z</time></trkpt><trkpt lat="38.785131522429765" lon="-9.3853419263777"><ele>438.0</ele><time>2026-03-29T09:37:56Z</time></trkpt><trkpt lat="38.7850660761214" lon="-9.385292400371439"><ele>435.4</ele><time>2026-03-29T09:37:58Z</time></trkpt><trkpt lat="38.78507853882604" lon="-9.38547380959084"><ele>432.79999999999995</ele><time>2026-03-29T09:38:01Z</time></trkpt><trkpt lat="38.78506564590385" lon="-9.385553980143422"><ele>430.2</ele><time>2026-03-29T09:38:02Z</time></trkpt><trkpt lat="38.78503923330176" lon="-9.385735016013195"><ele>427.6</ele><time>2026-03-29T09:38:04Z</time></trkpt><trkpt lat="38.78502500407215" lon="-9.385835610505092"><ele>425.0</ele><time>2026-03-29T09:38:05Z</time></trkpt><trkpt lat="38.78501330073353" lon="-9.38591834803588"><ele>425.0</ele><time>2026-03-29T09:38:06Z</time></trkpt><trkpt lat="38.7849874679119" lon="-9.386088685878443"><ele>425.0</ele><time>2026-03-29T09:38:08Z</time></trkpt><trkpt lat="38.784960041242094" lon="-9.386265184991666"><ele>425.0</ele><time>2026-03-29T09:38:10Z</time></trkpt><trkpt lat="38.78494231432788" lon="-9.386359979485052"><ele>425.0</ele><time>2026-03-29T09:38:11Z</time></trkpt><trkpt lat="38.7849135596959" lon="-9.386457308123077"><ele>425.0</ele><time>2026-03-29T09:38:12Z</time></trkpt><trkpt lat="38.7848678722923" lon="-9.386556271450962"><ele>427.8</ele><time>2026-03-29T09:38:13Z</time></trkpt><trkpt lat="38.7848051987099" lon="-9.386655397977398"><ele>430.6</ele><time>2026-03-29T09:38:14Z</time></trkpt><trkpt lat="38.78472892273631" lon="-9.386764864472942"><ele>433.4</ele><time>2026-03-29T09:38:15Z</time></trkpt><trkpt lat="38.784652304244005" lon="-9.38686547531311"><ele>436.2</ele><time>2026-03-29T09:38:16Z</time></trkpt><trkpt lat="38.78458282893042" lon="-9.386952326780744"><ele>439.0</ele><time>2026-03-29T09:38:17Z</time></trkpt><trkpt lat="38.78450284563856" lon="-9.387029363957176"><ele>439.0</ele><time>2026-03-29T09:38:18Z</time></trkpt><trkpt lat="38.78442571986783" lon="-9.387120101984314"><ele>439.0</ele><time>2026-03-29T09:38:19Z</time></trkpt><trkpt lat="38.78435270400152" lon="-9.38720582233716"><ele>439.0</ele><time>2026-03-29T09:38:20Z</time></trkpt><trkpt lat="38.78427995796375" lon="-9.387287248893427"><ele>439.0</ele><time>2026-03-29T09:38:21Z</time></trkpt><trkpt lat="38.78421155946689" lon="-9.387359540052545"><ele>439.0</ele><time>2026-03-29T09:38:22Z</time></trkpt><trkpt lat="38.78414613431506" lon="-9.387426204919489"><ele>438.33333333333337</ele><time>2026-03-29T09:38:23Z</time></trkpt><trkpt lat="38.78407728365957" lon="-9.387476996515412"><ele>437.6666666666667</ele><time>2026-03-29T09:38:24Z</time></trkpt><trkpt lat="38.784004110555564" lon="-9.387515128304447"><ele>437.0</ele><time>2026-03-29T09:38:25Z</time></trkpt><trkpt lat="38.78392980429735" lon="-9.387554615334375"><ele>436.33333333333337</ele><time>2026-03-29T09:38:26Z</time></trkpt><trkpt lat="38.7838607474552" lon="-9.38759246456101"><ele>435.6666666666667</ele><time>2026-03-29T09:38:27Z</time></trkpt><trkpt lat="38.78379533659452" lon="-9.38761870325069"><ele>435.0</ele><time>2026-03-29T09:38:28Z</time></trkpt><trkpt lat="38.78373341009849" lon="-9.387677414347522"><ele>435.0</ele><time>2026-03-29T09:38:29Z</time></trkpt><trkpt lat="38.78366553475791" lon="-9.387726791374781"><ele>435.0</ele><time>2026-03-29T09:38:30Z</time></trkpt><trkpt lat="38.78361837980484" lon="-9.387782019475834"><ele>435.0</ele><time>2026-03-29T09:38:31Z</time></trkpt><trkpt lat="38.78355531596978" lon="-9.387902064522155"><ele>435.0</ele><time>2026-03-29T09:38:33Z</time></trkpt><trkpt lat="38.78348886001086" lon="-9.387953878008991"><ele>435.0</ele><time>2026-03-29T09:38:34Z</time></trkpt><trkpt lat="38.78341135853553" lon="-9.387973898715568"><ele>435.0</ele><time>2026-03-29T09:38:35Z</time></trkpt><trkpt lat="38.783346711784965" lon="-9.387999206365206"><ele>437.0</ele><time>2026-03-29T09:38:36Z</time></trkpt><trkpt lat="38.78328287035872" lon="-9.388014337175465"><ele>439.0</ele><time>2026-03-29T09:38:37Z</time></trkpt><trkpt lat="38.783164776007155" lon="-9.388056114971334"><ele>441.0</ele><time>2026-03-29T09:38:39Z</time></trkpt><trkpt lat="38.78309818263225" lon="-9.388098281831615"><ele>443.0</ele><time>2026-03-29T09:38:40Z</time></trkpt><trkpt lat="38.78306296747382" lon="-9.388184841416352"><ele>445.0</ele><time>2026-03-29T09:38:41Z</time></trkpt><trkpt lat="38.78299697606441" lon="-9.388288339044738"><ele>447.0</ele><time>2026-03-29T09:38:42Z</time></trkpt><trkpt lat="38.782897104352074" lon="-9.38836733929329"><ele>447.0</ele><time>2026-03-29T09:38:43Z</time></trkpt><trkpt lat="38.782809450681754" lon="-9.388433784679131"><ele>447.00000000000006</ele><time>2026-03-29T09:38:44Z</time></trkpt><trkpt lat="38.782715144360175" lon="-9.388503687603357"><ele>447.00000000000006</ele><time>2026-03-29T09:38:45Z</time></trkpt><trkpt lat="38.782628120309774" lon="-9.388568743804047"><ele>447.0</ele><time>2026-03-29T09:38:46Z</time></trkpt><trkpt lat="38.782555698397054" lon="-9.388625742543866"><ele>447.0</ele><time>2026-03-29T09:38:47Z</time></trkpt><trkpt lat="38.782516196549125" lon="-9.388689477288391"><ele>446.6666666666667</ele><time>2026-03-29T09:38:49Z</time></trkpt><trkpt lat="38.78244676535475" lon="-9.388792856346873"><ele>446.33333333333337</ele><time>2026-03-29T09:38:51Z</time></trkpt><trkpt lat="38.78240445852757" lon="-9.388857972066779"><ele>446.0</ele><time>2026-03-29T09:38:52Z</time></trkpt><trkpt lat="38.78236041446439" lon="-9.388923054823554"><ele>445.6666666666667</ele><time>2026-03-29T09:38:53Z</time></trkpt><trkpt lat="38.78229491583886" lon="-9.388987021316131"><ele>445.33333333333337</ele><time>2026-03-29T09:38:54Z</time></trkpt><trkpt lat="38.782240193420236" lon="-9.389040426240088"><ele>445.0</ele><time>2026-03-29T09:38:55Z</time></trkpt><trkpt lat="38.78219252267732" lon="-9.389100910041995"><ele>446.6</ele><time>2026-03-29T09:38:56Z</time></trkpt><trkpt lat="38.7821514648659" lon="-9.389180728277825"><ele>448.2</ele><time>2026-03-29T09:38:57Z</time></trkpt><trkpt lat="38.78209725403584" lon="-9.389278300741088"><ele>449.79999999999995</ele><time>2026-03-29T09:38:58Z</time></trkpt><trkpt lat="38.782024127248604" lon="-9.38937127718346"><ele>451.4</ele><time>2026-03-29T09:38:59Z</time></trkpt><trkpt lat="38.78193396687714" lon="-9.389459368601177"><ele>453.0</ele><time>2026-03-29T09:39:00Z</time></trkpt><trkpt lat="38.78183677741196" lon="-9.389539591464203"><ele>453.0</ele><time>2026-03-29T09:39:01Z</time></trkpt><trkpt lat="38.78176731648565" lon="-9.389592779258574"><ele>453.0</ele><time>2026-03-29T09:39:02Z</time></trkpt><trkpt lat="38.781700706675494" lon="-9.389637467714406"><ele>453.0</ele><time>2026-03-29T09:39:03Z</time></trkpt><trkpt lat="38.78162303436282" lon="-9.389688279112299"><ele>453.0</ele><time>2026-03-29T09:39:04Z</time></trkpt><trkpt lat="38.78155912586691" lon="-9.38973008654698"><ele>453.0</ele><time>2026-03-29T09:39:05Z</time></trkpt><trkpt lat="38.781478850389796" lon="-9.389783144813183"><ele>453.0</ele><time>2026-03-29T09:39:06Z</time></trkpt><trkpt lat="38.7814164819544" lon="-9.389833795105265"><ele>458.2</ele><time>2026-03-29T09:39:07Z</time></trkpt><trkpt lat="38.781325146041205" lon="-9.389933467452435"><ele>463.4</ele><time>2026-03-29T09:39:09Z</time></trkpt><trkpt lat="38.78126111356572" lon="-9.390076052243106"><ele>468.59999999999997</ele><time>2026-03-29T09:39:11Z</time></trkpt><trkpt lat="38.781225434515534" lon="-9.390160853564495"><ele>473.79999999999995</ele><time>2026-03-29T09:39:12Z</time></trkpt><trkpt lat="38.78119274606144" lon="-9.390244231109257"><ele>479.0</ele><time>2026-03-29T09:39:13Z</time></trkpt><trkpt lat="38.781157537307756" lon="-9.390336484093217"><ele>478.99999999999994</ele><time>2026-03-29T09:39:14Z</time></trkpt><trkpt lat="38.78112235777889" lon="-9.390430035000689"><ele>479.0</ele><time>2026-03-29T09:39:15Z</time></trkpt><trkpt lat="38.78109462782133" lon="-9.390519953570857"><ele>479.0</ele><time>2026-03-29T09:39:16Z</time></trkpt><trkpt lat="38.78107227531874" lon="-9.390599233751951"><ele>479.0</ele><time>2026-03-29T09:39:17Z</time></trkpt><trkpt lat="38.78105227999149" lon="-9.390684394602687"><ele>478.99999999999994</ele><time>2026-03-29T09:39:18Z</time></trkpt><trkpt lat="38.78103327877744" lon="-9.39078411564526"><ele>479.0</ele><time>2026-03-29T09:39:19Z</time></trkpt><trkpt lat="38.78101344110428" lon="-9.390893566258768"><ele>479.0</ele><time>2026-03-29T09:39:20Z</time></trkpt><trkpt lat="38.78097809334523" lon="-9.390998709634061"><ele>479.0</ele><time>2026-03-29T09:39:21Z</time></trkpt><trkpt lat="38.78096185027994" lon="-9.391115115255218"><ele>479.0</ele><time>2026-03-29T09:39:22Z</time></trkpt><trkpt lat="38.78094306244533" lon="-9.391234771296661"><ele>479.0</ele><time>2026-03-29T09:39:23Z</time></trkpt><trkpt lat="38.78093129224553" lon="-9.391380485727936"><ele>479.0</ele><time>2026-03-29T09:39:24Z</time></trkpt><trkpt lat="38.780918541762546" lon="-9.391515390076771"><ele>479.0</ele><time>2026-03-29T09:39:25Z</time></trkpt><trkpt lat="38.78090657849321" lon="-9.391621637407233"><ele>479.0</ele><time>2026-03-29T09:39:26Z</time></trkpt><trkpt lat="38.78089558585479" lon="-9.391721559400764"><ele>479.0</ele><time>2026-03-29T09:39:27Z</time></trkpt><trkpt lat="38.78088841102409" lon="-9.391815419142473"><ele>479.0</ele><time>2026-03-29T09:39:28Z</time></trkpt><trkpt lat="38.78087141227369" lon="-9.391962078166227"><ele>479.0</ele><time>2026-03-29T09:39:30Z</time></trkpt><trkpt lat="38.78086194148661" lon="-9.392100178356381"><ele>477.49999999999994</ele><time>2026-03-29T09:39:32Z</time></trkpt><trkpt lat="38.78085657444946" lon="-9.392245495323365"><ele>476.0</ele><time>2026-03-29T09:39:34Z</time></trkpt><trkpt lat="38.78083409730985" lon="-9.39236915286521"><ele>474.5</ele><time>2026-03-29T09:39:36Z</time></trkpt><trkpt lat="38.780838911316735" lon="-9.392477925722728"><ele>473.0</ele><time>2026-03-29T09:39:38Z</time></trkpt><trkpt lat="38.780878852491554" lon="-9.392577981797064"><ele>471.49999999999994</ele><time>2026-03-29T09:39:40Z</time></trkpt><trkpt lat="38.780897610214026" lon="-9.392655393097453"><ele>470.0</ele><time>2026-03-29T09:39:41Z</time></trkpt><trkpt lat="38.78096244883009" lon="-9.392764233175232"><ele>469.99999999999994</ele><time>2026-03-29T09:39:42Z</time></trkpt><trkpt lat="38.78101088809263" lon="-9.39286778333182"><ele>470.0</ele><time>2026-03-29T09:39:43Z</time></trkpt><trkpt lat="38.78105915951838" lon="-9.392957198365824"><ele>470.0</ele><time>2026-03-29T09:39:44Z</time></trkpt><trkpt lat="38.781111353504784" lon="-9.393044581233115"><ele>470.0</ele><time>2026-03-29T09:39:45Z</time></trkpt><trkpt lat="38.78116641543529" lon="-9.393130416471282"><ele>469.99999999999994</ele><time>2026-03-29T09:39:46Z</time></trkpt><trkpt lat="38.7812164099888" lon="-9.393205728544004"><ele>470.0</ele><time>2026-03-29T09:39:47Z</time></trkpt><trkpt lat="38.78127661617652" lon="-9.393287959391278"><ele>467.8333333333333</ele><time>2026-03-29T09:39:48Z</time></trkpt><trkpt lat="38.78133431989462" lon="-9.393369566488664"><ele>465.66666666666663</ele><time>2026-03-29T09:39:49Z</time></trkpt><trkpt lat="38.78138476785449" lon="-9.393436522498916"><ele>463.5</ele><time>2026-03-29T09:39:50Z</time></trkpt><trkpt lat="38.78147555903298" lon="-9.39357141543388"><ele>461.33333333333337</ele><time>2026-03-29T09:39:52Z</time></trkpt><trkpt lat="38.781528104846956" lon="-9.393639761268957"><ele>459.1666666666667</ele><time>2026-03-29T09:39:53Z</time></trkpt><trkpt lat="38.781573643218536" lon="-9.393697255124097"><ele>457.0</ele><time>2026-03-29T09:39:54Z</time></trkpt><trkpt lat="38.781626009316035" lon="-9.393762529309525"><ele>455.00000000000006</ele><time>2026-03-29T09:39:55Z</time></trkpt><trkpt lat="38.78167359307622" lon="-9.393851672401484"><ele>453.0</ele><time>2026-03-29T09:39:56Z</time></trkpt><trkpt lat="38.78171150308797" lon="-9.393930848708013"><ele>451.0</ele><time>2026-03-29T09:39:57Z</time></trkpt><trkpt lat="38.78175573322737" lon="-9.393998945245096"><ele>449.0</ele><time>2026-03-29T09:39:58Z</time></trkpt><trkpt lat="38.78178589244919" lon="-9.394075380872819"><ele>447.00000000000006</ele><time>2026-03-29T09:39:59Z</time></trkpt><trkpt lat="38.781826900207676" lon="-9.394208287621982"><ele>445.0</ele><time>2026-03-29T09:40:01Z</time></trkpt><trkpt lat="38.781851394002594" lon="-9.394296610530992"><ele>445.00000000000006</ele><time>2026-03-29T09:40:03Z</time></trkpt><trkpt lat="38.781873990729466" lon="-9.394400682417292"><ele>445.0</ele><time>2026-03-29T09:40:05Z</time></trkpt><trkpt lat="38.7819002308555" lon="-9.394527894091253"><ele>445.0</ele><time>2026-03-29T09:40:07Z</time></trkpt><trkpt lat="38.78189113101491" lon="-9.39461669643895"><ele>445.0</ele><time>2026-03-29T09:40:08Z</time></trkpt><trkpt lat="38.78189590910479" lon="-9.39470124474827"><ele>445.00000000000006</ele><time>2026-03-29T09:40:09Z</time></trkpt><trkpt lat="38.78189221557642" lon="-9.394794353065238"><ele>445.0</ele><time>2026-03-29T09:40:10Z</time></trkpt><trkpt lat="38.781884413992564" lon="-9.394887763251663"><ele>444.00000000000006</ele><time>2026-03-29T09:40:11Z</time></trkpt><trkpt lat="38.78187240779137" lon="-9.394973972815908"><ele>443.0</ele><time>2026-03-29T09:40:12Z</time></trkpt><trkpt lat="38.78186124713283" lon="-9.395096720741865"><ele>442.0</ele><time>2026-03-29T09:40:13Z</time></trkpt><trkpt lat="38.78185606928194" lon="-9.395213635171665"><ele>441.0</ele><time>2026-03-29T09:40:14Z</time></trkpt><trkpt lat="38.78184327778971" lon="-9.395316036511424"><ele>440.00000000000006</ele><time>2026-03-29T09:40:15Z</time></trkpt><trkpt lat="38.781833317844516" lon="-9.395432390991711"><ele>439.0</ele><time>2026-03-29T09:40:16Z</time></trkpt><trkpt lat="38.78182210770659" lon="-9.395530943958546"><ele>437.33333333333337</ele><time>2026-03-29T09:40:17Z</time></trkpt><trkpt lat="38.7818100388569" lon="-9.395656418248102"><ele>435.6666666666667</ele><time>2026-03-29T09:40:18Z</time></trkpt><trkpt lat="38.78179811363025" lon="-9.395781900730396"><ele>434.0</ele><time>2026-03-29T09:40:19Z</time></trkpt><trkpt lat="38.78179003101923" lon="-9.395891569914017"><ele>432.33333333333337</ele><time>2026-03-29T09:40:20Z</time></trkpt><trkpt lat="38.781786538708495" lon="-9.396000676827581"><ele>430.6666666666667</ele><time>2026-03-29T09:40:21Z</time></trkpt><trkpt lat="38.78177752876016" lon="-9.396082749627139"><ele>429.0</ele><time>2026-03-29T09:40:22Z</time></trkpt><trkpt lat="38.78178121473725" lon="-9.396174719787584"><ele>429.0</ele><time>2026-03-29T09:40:23Z</time></trkpt><trkpt lat="38.781771660876245" lon="-9.396282833500678"><ele>429.0</ele><time>2026-03-29T09:40:24Z</time></trkpt><trkpt lat="38.78174520151434" lon="-9.396384855150384"><ele>429.0</ele><time>2026-03-29T09:40:25Z</time></trkpt><trkpt lat="38.781749583136836" lon="-9.396500497361208"><ele>429.0</ele><time>2026-03-29T09:40:26Z</time></trkpt><trkpt lat="38.78173646651479" lon="-9.396623511248666"><ele>429.0</ele><time>2026-03-29T09:40:27Z</time></trkpt><trkpt lat="38.781726175406334" lon="-9.396724096677804"><ele>429.0</ele><time>2026-03-29T09:40:28Z</time></trkpt><trkpt lat="38.78171578793719" lon="-9.39682928862033"><ele>428.5</ele><time>2026-03-29T09:40:29Z</time></trkpt><trkpt lat="38.78170345847744" lon="-9.396965194530265"><ele>428.0</ele><time>2026-03-29T09:40:30Z</time></trkpt><trkpt lat="38.78169037572875" lon="-9.397112299888018"><ele>427.5</ele><time>2026-03-29T09:40:31Z</time></trkpt><trkpt lat="38.78167772335529" lon="-9.397254565997926"><ele>427.0</ele><time>2026-03-29T09:40:32Z</time></trkpt><trkpt lat="38.78164937434662" lon="-9.397399264298521"><ele>426.75</ele><time>2026-03-29T09:40:33Z</time></trkpt><trkpt lat="38.781654361234544" lon="-9.397573179191408"><ele>426.5</ele><time>2026-03-29T09:40:34Z</time></trkpt><trkpt lat="38.78164146258617" lon="-9.397747883244271"><ele>426.25</ele><time>2026-03-29T09:40:35Z</time></trkpt><trkpt lat="38.78162029471659" lon="-9.397940630989249"><ele>426.0</ele><time>2026-03-29T09:40:36Z</time></trkpt><trkpt lat="38.78159752250902" lon="-9.398123623866793"><ele>426.6</ele><time>2026-03-29T09:40:37Z</time></trkpt><trkpt lat="38.78157692128994" lon="-9.398296933575727"><ele>427.20000000000005</ele><time>2026-03-29T09:40:38Z</time></trkpt><trkpt lat="38.7815495887631" lon="-9.398431305973151"><ele>427.79999999999995</ele><time>2026-03-29T09:40:39Z</time></trkpt><trkpt lat="38.781536897868776" lon="-9.398564537087802"><ele>428.4</ele><time>2026-03-29T09:40:40Z</time></trkpt><trkpt lat="38.78152847763802" lon="-9.398682991831231"><ele>429.0</ele><time>2026-03-29T09:40:41Z</time></trkpt><trkpt lat="38.78151365734048" lon="-9.39879289960431"><ele>428.6</ele><time>2026-03-29T09:40:42Z</time></trkpt><trkpt lat="38.781495439191765" lon="-9.398924114350564"><ele>428.2</ele><time>2026-03-29T09:40:43Z</time></trkpt><trkpt lat="38.78148081429539" lon="-9.399066766641246"><ele>427.80000000000007</ele><time>2026-03-29T09:40:44Z</time></trkpt><trkpt lat="38.78146595765146" lon="-9.399188404522215"><ele>427.40000000000003</ele><time>2026-03-29T09:40:45Z</time></trkpt><trkpt lat="38.78147244714598" lon="-9.39928695676718"><ele>427.0</ele><time>2026-03-29T09:40:46Z</time></trkpt><trkpt lat="38.78146357626217" lon="-9.399376845251364"><ele>427.0</ele><time>2026-03-29T09:40:47Z</time></trkpt><trkpt lat="38.781433072580576" lon="-9.399530037347317"><ele>427.00000000000006</ele><time>2026-03-29T09:40:49Z</time></trkpt><trkpt lat="38.781436536550856" lon="-9.399665808501304"><ele>427.00000000000006</ele><time>2026-03-29T09:40:51Z</time></trkpt><trkpt lat="38.78142946367437" lon="-9.399792956296254"><ele>427.0</ele><time>2026-03-29T09:40:53Z</time></trkpt><trkpt lat="38.78145145143546" lon="-9.39987666502377"><ele>427.0</ele><time>2026-03-29T09:41:05Z</time></trkpt><trkpt lat="38.781381201161686" lon="-9.399988167294488"><ele>427.75</ele><time>2026-03-29T09:41:07Z</time></trkpt><trkpt lat="38.78131236117294" lon="-9.400063025446459"><ele>428.5</ele><time>2026-03-29T09:41:08Z</time></trkpt><trkpt lat="38.78123440361168" lon="-9.400160045970413"><ele>429.25</ele><time>2026-03-29T09:41:09Z</time></trkpt><trkpt lat="38.78114397746516" lon="-9.40028496210092"><ele>430.0</ele><time>2026-03-29T09:41:10Z</time></trkpt><trkpt lat="38.78104900326969" lon="-9.40041571776456"><ele>429.33333333333337</ele><time>2026-03-29T09:41:11Z</time></trkpt><trkpt lat="38.78094096089826" lon="-9.40055453494787"><ele>428.66666666666663</ele><time>2026-03-29T09:41:12Z</time></trkpt><trkpt lat="38.78082849187032" lon="-9.400697023131723"><ele>428.0</ele><time>2026-03-29T09:41:13Z</time></trkpt><trkpt lat="38.78071963108936" lon="-9.400832621944977"><ele>428.0</ele><time>2026-03-29T09:41:14Z</time></trkpt><trkpt lat="38.78062478775636" lon="-9.40095073580531"><ele>428.0</ele><time>2026-03-29T09:41:15Z</time></trkpt><trkpt lat="38.7805416736711" lon="-9.401054860818055"><ele>428.0</ele><time>2026-03-29T09:41:16Z</time></trkpt><trkpt lat="38.780470379808825" lon="-9.401148793448701"><ele>428.0</ele><time>2026-03-29T09:41:17Z</time></trkpt><trkpt lat="38.78040295682337" lon="-9.40124760895944"><ele>428.75</ele><time>2026-03-29T09:41:18Z</time></trkpt><trkpt lat="38.7803352436109" lon="-9.401360699936559"><ele>429.5</ele><time>2026-03-29T09:41:19Z</time></trkpt><trkpt lat="38.78026413657346" lon="-9.401485910157351"><ele>430.25</ele><time>2026-03-29T09:41:20Z</time></trkpt><trkpt lat="38.78019116023911" lon="-9.401615116537517"><ele>431.0</ele><time>2026-03-29T09:41:21Z</time></trkpt><trkpt lat="38.78012052320873" lon="-9.401739353618884"><ele>429.0</ele><time>2026-03-29T09:41:22Z</time></trkpt><trkpt lat="38.7800550061615" lon="-9.401850105914605"><ele>427.0</ele><time>2026-03-29T09:41:23Z</time></trkpt><trkpt lat="38.77999309897914" lon="-9.401955225934596"><ele>425.0</ele><time>2026-03-29T09:41:24Z</time></trkpt><trkpt lat="38.779939686254636" lon="-9.4020565178493"><ele>423.0</ele><time>2026-03-29T09:41:25Z</time></trkpt><trkpt lat="38.779901857863116" lon="-9.402153102489079"><ele>421.0</ele><time>2026-03-29T09:41:26Z</time></trkpt><trkpt lat="38.779868606658354" lon="-9.402255170449667"><ele>420.20000000000005</ele><time>2026-03-29T09:41:27Z</time></trkpt><trkpt lat="38.77983392815569" lon="-9.402371311136333"><ele>419.40000000000003</ele><time>2026-03-29T09:41:28Z</time></trkpt><trkpt lat="38.77979761307474" lon="-9.402492932833429"><ele>418.6</ele><time>2026-03-29T09:41:29Z</time></trkpt><trkpt lat="38.779758987300994" lon="-9.40261473846011"><ele>417.8</ele><time>2026-03-29T09:41:30Z</time></trkpt><trkpt lat="38.779720088079486" lon="-9.402737264818507"><ele>417.0</ele><time>2026-03-29T09:41:31Z</time></trkpt><trkpt lat="38.77968090590214" lon="-9.402861852728172"><ele>417.0</ele><time>2026-03-29T09:41:32Z</time></trkpt><trkpt lat="38.77964169442231" lon="-9.402987462389698"><ele>417.0</ele><time>2026-03-29T09:41:33Z</time></trkpt><trkpt lat="38.779603114715634" lon="-9.403109038727449"><ele>417.0</ele><time>2026-03-29T09:41:34Z</time></trkpt><trkpt lat="38.779563885208844" lon="-9.403232437204736"><ele>417.0</ele><time>2026-03-29T09:41:35Z</time></trkpt><trkpt lat="38.77952043797178" lon="-9.403365859844078"><ele>417.0</ele><time>2026-03-29T09:41:36Z</time></trkpt><trkpt lat="38.77947574441601" lon="-9.40350225879176"><ele>415.8</ele><time>2026-03-29T09:41:37Z</time></trkpt><trkpt lat="38.779429064398784" lon="-9.403637188908998"><ele>414.6</ele><time>2026-03-29T09:41:38Z</time></trkpt><trkpt lat="38.77937798010383" lon="-9.403768718480073"><ele>413.40000000000003</ele><time>2026-03-29T09:41:39Z</time></trkpt><trkpt lat="38.77932536567446" lon="-9.403889286115376"><ele>412.20000000000005</ele><time>2026-03-29T09:41:40Z</time></trkpt><trkpt lat="38.779263886490945" lon="-9.404005992897874"><ele>411.0</ele><time>2026-03-29T09:41:41Z</time></trkpt><trkpt lat="38.77917581431249" lon="-9.404101039127756"><ele>410.5</ele><time>2026-03-29T09:41:42Z</time></trkpt><trkpt lat="38.779086037325214" lon="-9.404202666038806"><ele>410.0</ele><time>2026-03-29T09:41:43Z</time></trkpt><trkpt lat="38.77899577777852" lon="-9.40430998772201"><ele>409.5</ele><time>2026-03-29T09:41:44Z</time></trkpt><trkpt lat="38.77889582443044" lon="-9.404392333745864"><ele>409.0</ele><time>2026-03-29T09:41:45Z</time></trkpt><trkpt lat="38.778801245347054" lon="-9.40447085896593"><ele>409.0</ele><time>2026-03-29T09:41:46Z</time></trkpt><trkpt lat="38.77871106303741" lon="-9.40454791553591"><ele>409.0</ele><time>2026-03-29T09:41:47Z</time></trkpt><trkpt lat="38.77863138938209" lon="-9.40461975780773"><ele>409.0</ele><time>2026-03-29T09:41:48Z</time></trkpt><trkpt lat="38.778563754376954" lon="-9.404691145898743"><ele>409.0</ele><time>2026-03-29T09:41:49Z</time></trkpt><trkpt lat="38.77851769232031" lon="-9.404775715404446"><ele>409.0</ele><time>2026-03-29T09:41:50Z</time></trkpt><trkpt lat="38.7784782145308" lon="-9.404888806499384"><ele>409.5</ele><time>2026-03-29T09:41:51Z</time></trkpt><trkpt lat="38.77845354714685" lon="-9.405016031440683"><ele>410.0</ele><time>2026-03-29T09:41:52Z</time></trkpt><trkpt lat="38.778421204856386" lon="-9.405161623352464"><ele>410.5</ele><time>2026-03-29T09:41:53Z</time></trkpt><trkpt lat="38.77838496416032" lon="-9.40530947688483"><ele>411.0</ele><time>2026-03-29T09:41:54Z</time></trkpt><trkpt lat="38.778339697262815" lon="-9.405448415258713"><ele>411.0</ele><time>2026-03-29T09:41:55Z</time></trkpt><trkpt lat="38.77825909360393" lon="-9.405559947127154"><ele>411.0</ele><time>2026-03-29T09:41:56Z</time></trkpt><trkpt lat="38.77818611949531" lon="-9.405658127246301"><ele>411.0</ele><time>2026-03-29T09:41:57Z</time></trkpt><trkpt lat="38.77810103895351" lon="-9.405738416626859"><ele>411.0</ele><time>2026-03-29T09:41:58Z</time></trkpt><trkpt lat="38.778018299149096" lon="-9.405845758680423"><ele>411.0</ele><time>2026-03-29T09:41:59Z</time></trkpt><trkpt lat="38.77791741430493" lon="-9.405936124187791"><ele>411.0</ele><time>2026-03-29T09:42:00Z</time></trkpt><trkpt lat="38.77780960054337" lon="-9.406032419762505"><ele>411.0</ele><time>2026-03-29T09:42:01Z</time></trkpt><trkpt lat="38.77770156382741" lon="-9.406125008469633"><ele>411.0</ele><time>2026-03-29T09:42:02Z</time></trkpt><trkpt lat="38.77759949743987" lon="-9.406212811283202"><ele>411.0</ele><time>2026-03-29T09:42:03Z</time></trkpt><trkpt lat="38.777507375218086" lon="-9.406300466722142"><ele>412.20000000000005</ele><time>2026-03-29T09:42:04Z</time></trkpt><trkpt lat="38.777419965403034" lon="-9.406390477395396"><ele>413.40000000000003</ele><time>2026-03-29T09:42:05Z</time></trkpt><trkpt lat="38.77734171751749" lon="-9.406479978447532"><ele>414.6</ele><time>2026-03-29T09:42:06Z</time></trkpt><trkpt lat="38.77727160100348" lon="-9.406571529373785"><ele>415.8</ele><time>2026-03-29T09:42:07Z</time></trkpt><trkpt lat="38.77723204499945" lon="-9.406669202916369"><ele>417.0</ele><time>2026-03-29T09:42:08Z</time></trkpt><trkpt lat="38.77719796180602" lon="-9.406789036784888"><ele>417.0</ele><time>2026-03-29T09:42:09Z</time></trkpt><trkpt lat="38.777173327630926" lon="-9.40692368881292"><ele>417.0</ele><time>2026-03-29T09:42:10Z</time></trkpt><trkpt lat="38.77715544389649" lon="-9.407067808838594"><ele>417.0</ele><time>2026-03-29T09:42:11Z</time></trkpt><trkpt lat="38.77715676392273" lon="-9.407221117625571"><ele>417.0</ele><time>2026-03-29T09:42:12Z</time></trkpt><trkpt lat="38.77717638707874" lon="-9.407388675602368"><ele>418.0</ele><time>2026-03-29T09:42:13Z</time></trkpt><trkpt lat="38.77719623415381" lon="-9.407559162853344"><ele>419.0</ele><time>2026-03-29T09:42:14Z</time></trkpt><trkpt lat="38.7771995581105" lon="-9.407722539848006"><ele>420.0</ele><time>2026-03-29T09:42:15Z</time></trkpt><trkpt lat="38.777183819939054" lon="-9.407872521128754"><ele>421.0</ele><time>2026-03-29T09:42:16Z</time></trkpt><trkpt lat="38.777183504013145" lon="-9.408013397597944"><ele>421.0</ele><time>2026-03-29T09:42:17Z</time></trkpt><trkpt lat="38.77720303109752" lon="-9.408148570730082"><ele>421.0</ele><time>2026-03-29T09:42:18Z</time></trkpt><trkpt lat="38.77720048427611" lon="-9.408272874614712"><ele>421.0</ele><time>2026-03-29T09:42:19Z</time></trkpt><trkpt lat="38.777248597878355" lon="-9.408361534952824"><ele>421.0</ele><time>2026-03-29T09:42:20Z</time></trkpt><trkpt lat="38.777252480957735" lon="-9.40846831690191"><ele>421.0</ele><time>2026-03-29T09:42:21Z</time></trkpt><trkpt lat="38.777269309237646" lon="-9.408572679362004"><ele>421.00000000000006</ele><time>2026-03-29T09:42:22Z</time></trkpt><trkpt lat="38.7772750723635" lon="-9.408675578910984"><ele>421.0</ele><time>2026-03-29T09:42:23Z</time></trkpt><trkpt lat="38.77725796916034" lon="-9.408788430459168"><ele>421.0</ele><time>2026-03-29T09:42:24Z</time></trkpt><trkpt lat="38.77722569603513" lon="-9.408899889725607"><ele>421.0</ele><time>2026-03-29T09:42:25Z</time></trkpt><trkpt lat="38.77720181194632" lon="-9.409002932574412"><ele>421.00000000000006</ele><time>2026-03-29T09:42:26Z</time></trkpt><trkpt lat="38.77718391136892" lon="-9.409117094777534"><ele>421.0</ele><time>2026-03-29T09:42:27Z</time></trkpt><trkpt lat="38.7772005443552" lon="-9.40923196864616"><ele>420.6666666666667</ele><time>2026-03-29T09:42:28Z</time></trkpt><trkpt lat="38.777226047838596" lon="-9.40933423819563"><ele>420.33333333333337</ele><time>2026-03-29T09:42:29Z</time></trkpt><trkpt lat="38.77724546217883" lon="-9.409421912774611"><ele>420.0</ele><time>2026-03-29T09:42:30Z</time></trkpt><trkpt lat="38.777267810801206" lon="-9.409507168923392"><ele>419.66666666666663</ele><time>2026-03-29T09:42:31Z</time></trkpt><trkpt lat="38.77730789043428" lon="-9.409598384392352"><ele>419.3333333333333</ele><time>2026-03-29T09:42:33Z</time></trkpt><trkpt lat="38.777182388187555" lon="-9.409685758678092"><ele>419.0</ele><time>2026-03-29T09:42:36Z</time></trkpt><trkpt lat="38.777058648839976" lon="-9.409760076926231"><ele>418.3333333333333</ele><time>2026-03-29T09:42:38Z</time></trkpt><trkpt lat="38.77698368067028" lon="-9.409810580897357"><ele>417.66666666666663</ele><time>2026-03-29T09:42:39Z</time></trkpt><trkpt lat="38.77691453064945" lon="-9.40985954758602"><ele>417.0</ele><time>2026-03-29T09:42:40Z</time></trkpt><trkpt lat="38.77684025353172" lon="-9.409899710879479"><ele>416.33333333333337</ele><time>2026-03-29T09:42:41Z</time></trkpt><trkpt lat="38.77677068789487" lon="-9.409932242230061"><ele>415.6666666666667</ele><time>2026-03-29T09:42:42Z</time></trkpt><trkpt lat="38.77670117825205" lon="-9.40994520065037"><ele>415.0</ele><time>2026-03-29T09:42:43Z</time></trkpt><trkpt lat="38.776613838833676" lon="-9.409924704663315"><ele>413.00000000000006</ele><time>2026-03-29T09:42:44Z</time></trkpt><trkpt lat="38.776534816216675" lon="-9.40990925849837"><ele>411.0</ele><time>2026-03-29T09:42:45Z</time></trkpt><trkpt lat="38.776456512546" lon="-9.409894464134068"><ele>409.0</ele><time>2026-03-29T09:42:46Z</time></trkpt><trkpt lat="38.776391294595015" lon="-9.40988160878928"><ele>407.0</ele><time>2026-03-29T09:42:47Z</time></trkpt><trkpt lat="38.77632677972859" lon="-9.409868033976624"><ele>405.00000000000006</ele><time>2026-03-29T09:42:48Z</time></trkpt><trkpt lat="38.776223262278286" lon="-9.409830847816423"><ele>403.0</ele><time>2026-03-29T09:42:50Z</time></trkpt><trkpt lat="38.776151570244195" lon="-9.409839887029271"><ele>403.00000000000006</ele><time>2026-03-29T09:42:52Z</time></trkpt><trkpt lat="38.77607202309137" lon="-9.40984082012028"><ele>403.0</ele><time>2026-03-29T09:42:54Z</time></trkpt><trkpt lat="38.77596054457943" lon="-9.409854126965554"><ele>403.0</ele><time>2026-03-29T09:42:56Z</time></trkpt><trkpt lat="38.7758884547341" lon="-9.409864833153787"><ele>403.0</ele><time>2026-03-29T09:42:57Z</time></trkpt><trkpt lat="38.775821347790455" lon="-9.409874799324799"><ele>403.00000000000006</ele><time>2026-03-29T09:42:58Z</time></trkpt><trkpt lat="38.77575403528282" lon="-9.409884796021018"><ele>403.0</ele><time>2026-03-29T09:42:59Z</time></trkpt><trkpt lat="38.775680222807175" lon="-9.409893761611194"><ele>401.79999999999995</ele><time>2026-03-29T09:43:00Z</time></trkpt><trkpt lat="38.77560854464309" lon="-9.409899934871126"><ele>400.6</ele><time>2026-03-29T09:43:01Z</time></trkpt><trkpt lat="38.775537311718786" lon="-9.409883923276874"><ele>399.4</ele><time>2026-03-29T09:43:02Z</time></trkpt><trkpt lat="38.77541079942215" lon="-9.409816839061753"><ele>398.20000000000005</ele><time>2026-03-29T09:43:04Z</time></trkpt><trkpt lat="38.77530233697661" lon="-9.409749086297754"><ele>397.0</ele><time>2026-03-29T09:43:06Z</time></trkpt><trkpt lat="38.77524414945143" lon="-9.409704982758905"><ele>396.00000000000006</ele><time>2026-03-29T09:43:07Z</time></trkpt><trkpt lat="38.77518356040065" lon="-9.409648896398268"><ele>395.0</ele><time>2026-03-29T09:43:08Z</time></trkpt><trkpt lat="38.77512309880515" lon="-9.409584120732678"><ele>394.0</ele><time>2026-03-29T09:43:09Z</time></trkpt><trkpt lat="38.77505954208464" lon="-9.409504999452883"><ele>393.0</ele><time>2026-03-29T09:43:10Z</time></trkpt><trkpt lat="38.77499661187573" lon="-9.409428053379447"><ele>392.00000000000006</ele><time>2026-03-29T09:43:11Z</time></trkpt><trkpt lat="38.77492905380836" lon="-9.409351455709025"><ele>391.0</ele><time>2026-03-29T09:43:12Z</time></trkpt><trkpt lat="38.7748639385078" lon="-9.409277438252523"><ele>391.00000000000006</ele><time>2026-03-29T09:43:13Z</time></trkpt><trkpt lat="38.77479999392678" lon="-9.40920902290473"><ele>391.0</ele><time>2026-03-29T09:43:14Z</time></trkpt><trkpt lat="38.77474678552442" lon="-9.409161761179055"><ele>391.0</ele><time>2026-03-29T09:43:15Z</time></trkpt><trkpt lat="38.77468195597932" lon="-9.409117529081975"><ele>391.0</ele><time>2026-03-29T09:43:16Z</time></trkpt><trkpt lat="38.77460626629983" lon="-9.409078869224635"><ele>391.00000000000006</ele><time>2026-03-29T09:43:17Z</time></trkpt><trkpt lat="38.77452252294528" lon="-9.40903072093193"><ele>391.0</ele><time>2026-03-29T09:43:18Z</time></trkpt><trkpt lat="38.77444723391166" lon="-9.408991589194457"><ele>391.00000000000006</ele><time>2026-03-29T09:43:19Z</time></trkpt><trkpt lat="38.77436813229853" lon="-9.408954140140825"><ele>391.0</ele><time>2026-03-29T09:43:20Z</time></trkpt><trkpt lat="38.77428501026006" lon="-9.408916673638734"><ele>391.0</ele><time>2026-03-29T09:43:21Z</time></trkpt><trkpt lat="38.774198001712264" lon="-9.408879721212651"><ele>391.0</ele><time>2026-03-29T09:43:22Z</time></trkpt><trkpt lat="38.77411045684313" lon="-9.408847576199372"><ele>391.00000000000006</ele><time>2026-03-29T09:43:23Z</time></trkpt><trkpt lat="38.77402609598655" lon="-9.408822537960107"><ele>391.0</ele><time>2026-03-29T09:43:24Z</time></trkpt><trkpt lat="38.77393358863159" lon="-9.408809770956506"><ele>389.0</ele><time>2026-03-29T09:43:25Z</time></trkpt><trkpt lat="38.77383412075001" lon="-9.408795448195663"><ele>387.0</ele><time>2026-03-29T09:43:26Z</time></trkpt><trkpt lat="38.77372302052326" lon="-9.408755127647122"><ele>385.0</ele><time>2026-03-29T09:43:27Z</time></trkpt><trkpt lat="38.773636158778146" lon="-9.40872215302968"><ele>383.0</ele><time>2026-03-29T09:43:28Z</time></trkpt><trkpt lat="38.77354768432558" lon="-9.40869274272903"><ele>381.0</ele><time>2026-03-29T09:43:29Z</time></trkpt><trkpt lat="38.773475433793365" lon="-9.408667234754104"><ele>379.1666666666667</ele><time>2026-03-29T09:43:30Z</time></trkpt><trkpt lat="38.77339614464322" lon="-9.408634368269155"><ele>377.3333333333333</ele><time>2026-03-29T09:43:31Z</time></trkpt><trkpt lat="38.7733203942195" lon="-9.408594657368843"><ele>375.5</ele><time>2026-03-29T09:43:32Z</time></trkpt><trkpt lat="38.77324494219919" lon="-9.40854667792914"><ele>373.66666666666663</ele><time>2026-03-29T09:43:33Z</time></trkpt><trkpt lat="38.77317467384732" lon="-9.408492111828245"><ele>371.8333333333333</ele><time>2026-03-29T09:43:34Z</time></trkpt><trkpt lat="38.77311033890802" lon="-9.40843457177268"><ele>370.0</ele><time>2026-03-29T09:43:35Z</time></trkpt><trkpt lat="38.773047279054246" lon="-9.408372184205648"><ele>370.0</ele><time>2026-03-29T09:43:36Z</time></trkpt><trkpt lat="38.77298338786809" lon="-9.408307624205902"><ele>370.0</ele><time>2026-03-29T09:43:37Z</time></trkpt><trkpt lat="38.77291505665968" lon="-9.408239706690306"><ele>370.0</ele><time>2026-03-29T09:43:38Z</time></trkpt><trkpt lat="38.77284134554021" lon="-9.408167330916097"><ele>370.0</ele><time>2026-03-29T09:43:39Z</time></trkpt><trkpt lat="38.77276779965169" lon="-9.408099307524838"><ele>370.0</ele><time>2026-03-29T09:43:40Z</time></trkpt><trkpt lat="38.77269492144366" lon="-9.408045711772253"><ele>370.0</ele><time>2026-03-29T09:43:41Z</time></trkpt><trkpt lat="38.772614956431674" lon="-9.408009471594545"><ele>369.5</ele><time>2026-03-29T09:43:42Z</time></trkpt><trkpt lat="38.7725356186539" lon="-9.407990357020276"><ele>369.0</ele><time>2026-03-29T09:43:43Z</time></trkpt><trkpt lat="38.77246039442806" lon="-9.408005287147908"><ele>368.5</ele><time>2026-03-29T09:43:44Z</time></trkpt><trkpt lat="38.7724053520428" lon="-9.408052348843533"><ele>368.0</ele><time>2026-03-29T09:43:45Z</time></trkpt><trkpt lat="38.77232686585402" lon="-9.408105309255276"><ele>367.5</ele><time>2026-03-29T09:43:46Z</time></trkpt><trkpt lat="38.77225318952092" lon="-9.408173064993262"><ele>367.0</ele><time>2026-03-29T09:43:47Z</time></trkpt><trkpt lat="38.77218526858666" lon="-9.408254510765651"><ele>367.0</ele><time>2026-03-29T09:43:48Z</time></trkpt><trkpt lat="38.772130780781154" lon="-9.408344840673326"><ele>367.0</ele><time>2026-03-29T09:43:49Z</time></trkpt><trkpt lat="38.77208085243822" lon="-9.408436435445077"><ele>367.0</ele><time>2026-03-29T09:43:50Z</time></trkpt><trkpt lat="38.772039415453925" lon="-9.408530493074686"><ele>367.0</ele><time>2026-03-29T09:43:51Z</time></trkpt><trkpt lat="38.77202061996875" lon="-9.408614237205052"><ele>367.0</ele><time>2026-03-29T09:43:52Z</time></trkpt><trkpt lat="38.7719983926217" lon="-9.408706234077416"><ele>367.0</ele><time>2026-03-29T09:43:53Z</time></trkpt><trkpt lat="38.77196222148839" lon="-9.408799656166979"><ele>367.20000000000005</ele><time>2026-03-29T09:43:54Z</time></trkpt><trkpt lat="38.7718999664153" lon="-9.408878203047783"><ele>367.4</ele><time>2026-03-29T09:43:55Z</time></trkpt><trkpt lat="38.771804373075085" lon="-9.408877682758499"><ele>367.6</ele><time>2026-03-29T09:43:56Z</time></trkpt><trkpt lat="38.77167776660503" lon="-9.408943532732883"><ele>367.79999999999995</ele><time>2026-03-29T09:43:58Z</time></trkpt><trkpt lat="38.77160831544357" lon="-9.408968266453718"><ele>368.0</ele><time>2026-03-29T09:43:59Z</time></trkpt><trkpt lat="38.77152889588866" lon="-9.408991088289508"><ele>367.4</ele><time>2026-03-29T09:44:00Z</time></trkpt><trkpt lat="38.771398070262364" lon="-9.409017355677236"><ele>366.79999999999995</ele><time>2026-03-29T09:44:02Z</time></trkpt><trkpt lat="38.77130177336074" lon="-9.409013957264262"><ele>366.2</ele><time>2026-03-29T09:44:03Z</time></trkpt><trkpt lat="38.771203303064965" lon="-9.408972336980568"><ele>365.6</ele><time>2026-03-29T09:44:04Z</time></trkpt><trkpt lat="38.771115589655885" lon="-9.40889444013894"><ele>365.0</ele><time>2026-03-29T09:44:05Z</time></trkpt><trkpt lat="38.77103384820816" lon="-9.40880223499356"><ele>363.8</ele><time>2026-03-29T09:44:06Z</time></trkpt><trkpt lat="38.7709573721222" lon="-9.408728753715037"><ele>362.6</ele><time>2026-03-29T09:44:07Z</time></trkpt><trkpt lat="38.77088703676299" lon="-9.408639736056127"><ele>361.4</ele><time>2026-03-29T09:44:08Z</time></trkpt><trkpt lat="38.77084902363894" lon="-9.408530376230916"><ele>360.2</ele><time>2026-03-29T09:44:09Z</time></trkpt><trkpt lat="38.77084195821933" lon="-9.408422930435904"><ele>359.0</ele><time>2026-03-29T09:44:10Z</time></trkpt><trkpt lat="38.770821330355446" lon="-9.408323091626473"><ele>359.0</ele><time>2026-03-29T09:44:11Z</time></trkpt><trkpt lat="38.77080883725253" lon="-9.408215800466994"><ele>359.0</ele><time>2026-03-29T09:44:12Z</time></trkpt><trkpt lat="38.77077479650546" lon="-9.40811383446423"><ele>359.0</ele><time>2026-03-29T09:44:13Z</time></trkpt><trkpt lat="38.7707486850143" lon="-9.408013005873695"><ele>359.0</ele><time>2026-03-29T09:44:14Z</time></trkpt><trkpt lat="38.7707203533619" lon="-9.407909775131225"><ele>359.0</ele><time>2026-03-29T09:44:15Z</time></trkpt><trkpt lat="38.77068872784556" lon="-9.407803535893175"><ele>359.0</ele><time>2026-03-29T09:44:16Z</time></trkpt><trkpt lat="38.77065553434481" lon="-9.407697107896386"><ele>357.5</ele><time>2026-03-29T09:44:17Z</time></trkpt><trkpt lat="38.77062833367634" lon="-9.407609055533513"><ele>356.0</ele><time>2026-03-29T09:44:18Z</time></trkpt><trkpt lat="38.77060390548699" lon="-9.407516261761275"><ele>354.5</ele><time>2026-03-29T09:44:19Z</time></trkpt><trkpt lat="38.770560584433035" lon="-9.407394333041967"><ele>353.0</ele><time>2026-03-29T09:44:21Z</time></trkpt><trkpt lat="38.77048337391124" lon="-9.407305579846389"><ele>351.5</ele><time>2026-03-29T09:44:23Z</time></trkpt><trkpt lat="38.77042126396341" lon="-9.407274383358011"><ele>350.0</ele><time>2026-03-29T09:44:24Z</time></trkpt><trkpt lat="38.77035535139864" lon="-9.407204945606495"><ele>348.1666666666667</ele><time>2026-03-29T09:44:25Z</time></trkpt><trkpt lat="38.770298531781435" lon="-9.407145040889715"><ele>346.33333333333337</ele><time>2026-03-29T09:44:26Z</time></trkpt><trkpt lat="38.770270488747656" lon="-9.407051808767221"><ele>344.5</ele><time>2026-03-29T09:44:27Z</time></trkpt><trkpt lat="38.77032347642702" lon="-9.406933051321527"><ele>342.6666666666667</ele><time>2026-03-29T09:44:28Z</time></trkpt><trkpt lat="38.770380390785746" lon="-9.40686097662341"><ele>340.8333333333333</ele><time>2026-03-29T09:44:29Z</time></trkpt><trkpt lat="38.770460561445496" lon="-9.406836238455274"><ele>339.0</ele><time>2026-03-29T09:44:30Z</time></trkpt><trkpt lat="38.77050432246866" lon="-9.406767677674084"><ele>339.0</ele><time>2026-03-29T09:44:31Z</time></trkpt><trkpt lat="38.77057423073652" lon="-9.406678615338288"><ele>339.0</ele><time>2026-03-29T09:44:34Z</time></trkpt><trkpt lat="38.77055453588122" lon="-9.406591043390229"><ele>339.0</ele><time>2026-03-29T09:44:36Z</time></trkpt><trkpt lat="38.77055453587962" lon="-9.406500703286223"><ele>339.0</ele><time>2026-03-29T09:44:37Z</time></trkpt><trkpt lat="38.77048585128711" lon="-9.406481982935379"><ele>339.0</ele><time>2026-03-29T09:44:38Z</time></trkpt><trkpt lat="38.770430160358416" lon="-9.40643097420207"><ele>339.0</ele><time>2026-03-29T09:44:39Z</time></trkpt><trkpt lat="38.77036075047986" lon="-9.406362721671357"><ele>337.5</ele><time>2026-03-29T09:44:40Z</time></trkpt><trkpt lat="38.77029588929181" lon="-9.40630449385565"><ele>336.0</ele><time>2026-03-29T09:44:41Z</time></trkpt><trkpt lat="38.77023104782076" lon="-9.406231119533707"><ele>334.5</ele><time>2026-03-29T09:44:42Z</time></trkpt><trkpt lat="38.77017154299347" lon="-9.40615494525611"><ele>333.0</ele><time>2026-03-29T09:44:43Z</time></trkpt><trkpt lat="38.77011806443087" lon="-9.406086335326535"><ele>331.5</ele><time>2026-03-29T09:44:44Z</time></trkpt><trkpt lat="38.77007190426888" lon="-9.406027114294709"><ele>330.0</ele><time>2026-03-29T09:44:45Z</time></trkpt><trkpt lat="38.77001953974691" lon="-9.405976654508475"><ele>330.00000000000006</ele><time>2026-03-29T09:44:46Z</time></trkpt><trkpt lat="38.76995884376755" lon="-9.405950032950658"><ele>330.0</ele><time>2026-03-29T09:44:47Z</time></trkpt><trkpt lat="38.76988107707749" lon="-9.405929437017905"><ele>330.0</ele><time>2026-03-29T09:44:48Z</time></trkpt><trkpt lat="38.76980057792991" lon="-9.405926349372496"><ele>330.0</ele><time>2026-03-29T09:44:49Z</time></trkpt><trkpt lat="38.769730296973485" lon="-9.405948602590705"><ele>330.0</ele><time>2026-03-29T09:44:50Z</time></trkpt><trkpt lat="38.7696584494202" lon="-9.4059516566836"><ele>330.00000000000006</ele><time>2026-03-29T09:44:51Z</time></trkpt><trkpt lat="38.769581034221126" lon="-9.405946696821"><ele>330.0</ele><time>2026-03-29T09:44:52Z</time></trkpt><trkpt lat="38.76951645406623" lon="-9.405913088102603"><ele>330.0</ele><time>2026-03-29T09:44:52.999Z</time></trkpt><trkpt lat="38.76949292969954" lon="-9.405788914520716"><ele>330.0</ele><time>2026-03-29T09:44:53.999Z</time></trkpt><trkpt lat="38.76948403025886" lon="-9.405701151823518"><ele>330.0</ele><time>2026-03-29T09:44:55Z</time></trkpt><trkpt lat="38.76946065442554" lon="-9.405601900926758"><ele>330.0</ele><time>2026-03-29T09:44:56Z</time></trkpt><trkpt lat="38.769427012136596" lon="-9.405524099665291"><ele>330.0</ele><time>2026-03-29T09:44:57Z</time></trkpt><trkpt lat="38.76939977299035" lon="-9.405434518262796"><ele>330.0</ele><time>2026-03-29T09:44:58Z</time></trkpt><trkpt lat="38.76936836694534" lon="-9.405348929510215"><ele>328.2</ele><time>2026-03-29T09:44:59Z</time></trkpt><trkpt lat="38.76928698071768" lon="-9.405256987047585"><ele>326.4</ele><time>2026-03-29T09:45:01Z</time></trkpt><trkpt lat="38.76917637440878" lon="-9.405200890244565"><ele>324.6</ele><time>2026-03-29T09:45:03Z</time></trkpt><trkpt lat="38.76909663694898" lon="-9.40518436800618"><ele>322.8</ele><time>2026-03-29T09:45:04Z</time></trkpt><trkpt lat="38.76901190728009" lon="-9.405177097757448"><ele>321.0</ele><time>2026-03-29T09:45:05Z</time></trkpt><trkpt lat="38.76893886339543" lon="-9.405173305159588"><ele>320.99999999999994</ele><time>2026-03-29T09:45:06Z</time></trkpt><trkpt lat="38.76887308234216" lon="-9.405196773119073"><ele>321.0</ele><time>2026-03-29T09:45:07Z</time></trkpt><trkpt lat="38.76881808118021" lon="-9.405247434933663"><ele>321.0</ele><time>2026-03-29T09:45:08Z</time></trkpt><trkpt lat="38.76874587427419" lon="-9.405293446156517"><ele>321.0</ele><time>2026-03-29T09:45:09Z</time></trkpt><trkpt lat="38.76867607207813" lon="-9.405336681463583"><ele>321.0</ele><time>2026-03-29T09:45:10Z</time></trkpt><trkpt lat="38.76860534563558" lon="-9.40538048861921"><ele>320.99999999999994</ele><time>2026-03-29T09:45:11Z</time></trkpt><trkpt lat="38.76854337147093" lon="-9.40542446640233"><ele>321.0</ele><time>2026-03-29T09:45:12Z</time></trkpt><trkpt lat="38.76848208251213" lon="-9.405472847994547"><ele>319.99999999999994</ele><time>2026-03-29T09:45:13Z</time></trkpt><trkpt lat="38.76843412199158" lon="-9.405528397331077"><ele>319.0</ele><time>2026-03-29T09:45:14Z</time></trkpt><trkpt lat="38.76839100473151" lon="-9.40558762312471"><ele>318.0</ele><time>2026-03-29T09:45:15Z</time></trkpt><trkpt lat="38.768346505399464" lon="-9.40565889813929"><ele>317.0</ele><time>2026-03-29T09:45:16Z</time></trkpt><trkpt lat="38.76829870140491" lon="-9.40573042993972"><ele>316.0</ele><time>2026-03-29T09:45:17Z</time></trkpt><trkpt lat="38.7682521576718" lon="-9.405797531035171"><ele>314.99999999999994</ele><time>2026-03-29T09:45:18Z</time></trkpt><trkpt lat="38.76819905647998" lon="-9.405867393242426"><ele>314.0</ele><time>2026-03-29T09:45:19Z</time></trkpt><trkpt lat="38.76813956861896" lon="-9.405933097632671"><ele>313.99999999999994</ele><time>2026-03-29T09:45:20Z</time></trkpt><trkpt lat="38.76808182527541" lon="-9.405992955600244"><ele>314.0</ele><time>2026-03-29T09:45:21Z</time></trkpt><trkpt lat="38.76803216953773" lon="-9.406048034395491"><ele>314.0</ele><time>2026-03-29T09:45:22Z</time></trkpt><trkpt lat="38.7679841256571" lon="-9.406103691406528"><ele>314.0</ele><time>2026-03-29T09:45:23Z</time></trkpt><trkpt lat="38.767932622788216" lon="-9.406163355355153"><ele>314.0</ele><time>2026-03-29T09:45:24Z</time></trkpt><trkpt lat="38.76787772627461" lon="-9.4062235177483"><ele>313.99999999999994</ele><time>2026-03-29T09:45:25Z</time></trkpt><trkpt lat="38.76781091244743" lon="-9.406292830851335"><ele>314.0</ele><time>2026-03-29T09:45:26Z</time></trkpt><trkpt lat="38.767746048550116" lon="-9.40635924511905"><ele>311.5</ele><time>2026-03-29T09:45:27Z</time></trkpt><trkpt lat="38.76767782473155" lon="-9.406426061762255"><ele>309.0</ele><time>2026-03-29T09:45:28Z</time></trkpt><trkpt lat="38.76760994355628" lon="-9.406491740941812"><ele>306.5</ele><time>2026-03-29T09:45:29Z</time></trkpt><trkpt lat="38.76754051893135" lon="-9.406558263151066"><ele>304.0</ele><time>2026-03-29T09:45:30Z</time></trkpt><trkpt lat="38.76746251372092" lon="-9.406628513570631"><ele>301.5</ele><time>2026-03-29T09:45:31Z</time></trkpt><trkpt lat="38.767389274191096" lon="-9.406692231514254"><ele>299.0</ele><time>2026-03-29T09:45:32Z</time></trkpt><trkpt lat="38.76732018879382" lon="-9.406748650994704"><ele>299.0</ele><time>2026-03-29T09:45:33Z</time></trkpt><trkpt lat="38.767232858008214" lon="-9.406815610817016"><ele>299.0</ele><time>2026-03-29T09:45:34Z</time></trkpt><trkpt lat="38.76714333299115" lon="-9.406876844262616"><ele>299.0</ele><time>2026-03-29T09:45:35Z</time></trkpt><trkpt lat="38.767053345938606" lon="-9.406924729742203"><ele>299.0</ele><time>2026-03-29T09:45:36Z</time></trkpt><trkpt lat="38.76696119483238" lon="-9.406964448235732"><ele>299.0</ele><time>2026-03-29T09:45:37Z</time></trkpt><trkpt lat="38.76687513315633" lon="-9.407002828481938"><ele>298.6666666666667</ele><time>2026-03-29T09:45:38Z</time></trkpt><trkpt lat="38.76679442491307" lon="-9.40703875146922"><ele>298.33333333333337</ele><time>2026-03-29T09:45:39Z</time></trkpt><trkpt lat="38.76671379801925" lon="-9.407071982826421"><ele>298.0</ele><time>2026-03-29T09:45:40Z</time></trkpt><trkpt lat="38.76662951773569" lon="-9.407101802150246"><ele>297.6666666666667</ele><time>2026-03-29T09:45:41Z</time></trkpt><trkpt lat="38.76654391094005" lon="-9.407125642126006"><ele>297.3333333333333</ele><time>2026-03-29T09:45:42Z</time></trkpt><trkpt lat="38.766460519965925" lon="-9.407136094296748"><ele>297.0</ele><time>2026-03-29T09:45:43Z</time></trkpt><trkpt lat="38.766380224204326" lon="-9.407131076968907"><ele>297.0</ele><time>2026-03-29T09:45:44Z</time></trkpt><trkpt lat="38.766301837374655" lon="-9.40711650218462"><ele>297.0</ele><time>2026-03-29T09:45:45Z</time></trkpt><trkpt lat="38.766221134694064" lon="-9.407089912643386"><ele>297.0</ele><time>2026-03-29T09:45:46Z</time></trkpt><trkpt lat="38.76614895166459" lon="-9.407036401458791"><ele>297.0</ele><time>2026-03-29T09:45:47Z</time></trkpt><trkpt lat="38.7661019212255" lon="-9.406952297439567"><ele>297.0</ele><time>2026-03-29T09:45:48Z</time></trkpt><trkpt lat="38.76607509740632" lon="-9.406851144075288"><ele>297.0</ele><time>2026-03-29T09:45:49Z</time></trkpt><trkpt lat="38.766061189226356" lon="-9.406744231001841"><ele>297.0</ele><time>2026-03-29T09:45:50Z</time></trkpt><trkpt lat="38.76604332821725" lon="-9.406662920113282"><ele>297.0</ele><time>2026-03-29T09:45:51Z</time></trkpt><trkpt lat="38.76602743518866" lon="-9.406541534187793"><ele>297.0</ele><time>2026-03-29T09:45:53Z</time></trkpt><trkpt lat="38.76596808010809" lon="-9.406450777193715"><ele>297.0</ele><time>2026-03-29T09:45:56Z</time></trkpt><trkpt lat="38.765853517815934" lon="-9.406603748334422"><ele>297.0</ele><time>2026-03-29T09:45:58Z</time></trkpt><trkpt lat="38.76584709146566" lon="-9.406709186474245"><ele>295.3333333333333</ele><time>2026-03-29T09:45:59Z</time></trkpt><trkpt lat="38.76582524753376" lon="-9.406829760843134"><ele>293.6666666666667</ele><time>2026-03-29T09:46:00Z</time></trkpt><trkpt lat="38.76581060130813" lon="-9.406941126745483"><ele>292.0</ele><time>2026-03-29T09:46:01Z</time></trkpt><trkpt lat="38.765796926025175" lon="-9.407053802453568"><ele>290.33333333333337</ele><time>2026-03-29T09:46:02Z</time></trkpt><trkpt lat="38.765787886263624" lon="-9.407144976404666"><ele>288.6666666666667</ele><time>2026-03-29T09:46:03Z</time></trkpt><trkpt lat="38.765769348528714" lon="-9.407222374262272"><ele>287.0</ele><time>2026-03-29T09:46:04Z</time></trkpt><trkpt lat="38.76571254990211" lon="-9.407315069526486"><ele>287.0</ele><time>2026-03-29T09:46:06Z</time></trkpt><trkpt lat="38.765674292936716" lon="-9.407380812785624"><ele>287.0</ele><time>2026-03-29T09:54:23Z</time></trkpt><trkpt lat="38.7657044079967" lon="-9.407309818775026"><ele>287.0</ele><time>2026-03-29T10:00:38Z</time></trkpt><trkpt lat="38.76577418849527" lon="-9.407242190773996"><ele>287.0</ele><time>2026-03-29T10:00:40Z</time></trkpt><trkpt lat="38.76581425022747" lon="-9.407138624748221"><ele>287.0</ele><time>2026-03-29T10:00:42Z</time></trkpt><trkpt lat="38.76584563233731" lon="-9.406998050735506"><ele>287.0</ele><time>2026-03-29T10:00:44Z</time></trkpt><trkpt lat="38.76585346779979" lon="-9.406917902336028"><ele>287.0</ele><time>2026-03-29T10:00:44.999Z</time></trkpt><trkpt lat="38.765867839280325" lon="-9.406776093678868"><ele>287.0</ele><time>2026-03-29T10:00:46.999Z</time></trkpt><trkpt lat="38.7658864968804" lon="-9.406646029795102"><ele>287.0</ele><time>2026-03-29T10:00:48.999Z</time></trkpt><trkpt lat="38.76591420419848" lon="-9.406534405734554"><ele>287.0</ele><time>2026-03-29T10:00:50.999Z</time></trkpt><trkpt lat="38.76598590819817" lon="-9.406496519335255"><ele>287.0</ele><time>2026-03-29T10:00:52.999Z</time></trkpt><trkpt lat="38.766056522128466" lon="-9.406523225440814"><ele>288.6666666666667</ele><time>2026-03-29T10:00:54.999Z</time></trkpt><trkpt lat="38.76609686080997" lon="-9.406662913023615"><ele>290.33333333333337</ele><time>2026-03-29T10:00:56.999Z</time></trkpt><trkpt lat="38.76610775992368" lon="-9.406758610897988"><ele>292.0</ele><time>2026-03-29T10:00:57.999Z</time></trkpt><trkpt lat="38.76613563641587" lon="-9.406849266454351"><ele>293.6666666666667</ele><time>2026-03-29T10:00:58.999Z</time></trkpt><trkpt lat="38.76616651757164" lon="-9.406958935922193"><ele>295.3333333333333</ele><time>2026-03-29T10:00:59.999Z</time></trkpt><trkpt lat="38.76619743405375" lon="-9.407044216081983"><ele>297.0</ele><time>2026-03-29T10:01:00.999Z</time></trkpt><trkpt lat="38.766246148011724" lon="-9.407099712009453"><ele>297.0</ele><time>2026-03-29T10:01:01.999Z</time></trkpt><trkpt lat="38.76631204416354" lon="-9.407123591351187"><ele>297.0</ele><time>2026-03-29T10:01:02.999Z</time></trkpt><trkpt lat="38.76637613874315" lon="-9.407136269236679"><ele>297.0</ele><time>2026-03-29T10:01:03.999Z</time></trkpt><trkpt lat="38.76644596993305" lon="-9.407123803602692"><ele>297.0</ele><time>2026-03-29T10:01:04.999Z</time></trkpt><trkpt lat="38.76653074750395" lon="-9.407109849756385"><ele>297.0</ele><time>2026-03-29T10:01:05.999Z</time></trkpt><trkpt lat="38.76661169595802" lon="-9.407090980980827"><ele>297.0</ele><time>2026-03-29T10:01:06.999Z</time></trkpt><trkpt lat="38.7666892966642" lon="-9.407048959921802"><ele>297.0</ele><time>2026-03-29T10:01:07.999Z</time></trkpt><trkpt lat="38.76677038157563" lon="-9.407007118548009"><ele>297.0</ele><time>2026-03-29T10:01:08.999Z</time></trkpt><trkpt lat="38.7668561211808" lon="-9.406970981248598"><ele>297.0</ele><time>2026-03-29T10:01:09.999Z</time></trkpt><trkpt lat="38.766939631445055" lon="-9.406942548459893"><ele>297.0</ele><time>2026-03-29T10:01:10.999Z</time></trkpt><trkpt lat="38.767018194018874" lon="-9.406901604233928"><ele>297.0</ele><time>2026-03-29T10:01:11.999Z</time></trkpt><trkpt lat="38.76711085674329" lon="-9.406846173461878"><ele>297.4</ele><time>2026-03-29T10:01:12.999Z</time></trkpt><trkpt lat="38.7672105553788" lon="-9.406799428581559"><ele>297.79999999999995</ele><time>2026-03-29T10:01:13.999Z</time></trkpt><trkpt lat="38.76731167332611" lon="-9.406737841339908"><ele>298.2</ele><time>2026-03-29T10:01:14.999Z</time></trkpt><trkpt lat="38.76739487621619" lon="-9.406635995943226"><ele>298.59999999999997</ele><time>2026-03-29T10:01:15.999Z</time></trkpt><trkpt lat="38.76748342633826" lon="-9.406557958375581"><ele>299.0</ele><time>2026-03-29T10:01:16.999Z</time></trkpt><trkpt lat="38.76754793310732" lon="-9.406498333388175"><ele>299.0</ele><time>2026-03-29T10:01:17.999Z</time></trkpt><trkpt lat="38.7676020774509" lon="-9.40644594547467"><ele>299.0</ele><time>2026-03-29T10:01:18.999Z</time></trkpt><trkpt lat="38.76766125716183" lon="-9.406410001990283"><ele>299.0</ele><time>2026-03-29T10:01:19.999Z</time></trkpt><trkpt lat="38.7677315764674" lon="-9.406319502281345"><ele>299.0</ele><time>2026-03-29T10:01:21.999Z</time></trkpt><trkpt lat="38.76782214582913" lon="-9.406251474669928"><ele>299.0</ele><time>2026-03-29T10:01:23.999Z</time></trkpt><trkpt lat="38.76787647879402" lon="-9.406192667050531"><ele>299.0</ele><time>2026-03-29T10:01:24.999Z</time></trkpt><trkpt lat="38.76794477441627" lon="-9.406106782240316"><ele>302.0</ele><time>2026-03-29T10:01:25.999Z</time></trkpt><trkpt lat="38.76801553792658" lon="-9.406034442263927"><ele>305.0</ele><time>2026-03-29T10:01:26.999Z</time></trkpt><trkpt lat="38.7680886963296" lon="-9.405958055240072"><ele>308.0</ele><time>2026-03-29T10:01:27.999Z</time></trkpt><trkpt lat="38.76815285897982" lon="-9.405862676468757"><ele>311.0</ele><time>2026-03-29T10:01:28.999Z</time></trkpt><trkpt lat="38.76821885351649" lon="-9.405780431075737"><ele>314.0</ele><time>2026-03-29T10:01:29.999Z</time></trkpt><trkpt lat="38.768279311541754" lon="-9.40569418855957"><ele>314.0</ele><time>2026-03-29T10:01:30.999Z</time></trkpt><trkpt lat="38.76833561108978" lon="-9.405608448447145"><ele>314.0</ele><time>2026-03-29T10:01:31.999Z</time></trkpt><trkpt lat="38.7683876072868" lon="-9.405528006102681"><ele>314.0</ele><time>2026-03-29T10:01:32.999Z</time></trkpt><trkpt lat="38.76845390739586" lon="-9.405471512467226"><ele>314.0</ele><time>2026-03-29T10:01:33.999Z</time></trkpt><trkpt lat="38.768506628364" lon="-9.405401282174715"><ele>314.0</ele><time>2026-03-29T10:01:34.999Z</time></trkpt><trkpt lat="38.76856796926814" lon="-9.405340067500738"><ele>314.0</ele><time>2026-03-29T10:01:35.999Z</time></trkpt><trkpt lat="38.768651049529794" lon="-9.405305504477875"><ele>315.4</ele><time>2026-03-29T10:01:36.999Z</time></trkpt><trkpt lat="38.76873017693143" lon="-9.405250923763921"><ele>316.79999999999995</ele><time>2026-03-29T10:01:37.999Z</time></trkpt><trkpt lat="38.76881714997046" lon="-9.405196924968328"><ele>318.20000000000005</ele><time>2026-03-29T10:01:39Z</time></trkpt><trkpt lat="38.76890880308118" lon="-9.405138538348904"><ele>319.6</ele><time>2026-03-29T10:01:40Z</time></trkpt><trkpt lat="38.76900076985679" lon="-9.405120669038288"><ele>321.0</ele><time>2026-03-29T10:01:41Z</time></trkpt><trkpt lat="38.76908039603514" lon="-9.405127044114863"><ele>321.0</ele><time>2026-03-29T10:01:42Z</time></trkpt><trkpt lat="38.76916648196041" lon="-9.405155472706117"><ele>321.0</ele><time>2026-03-29T10:01:43Z</time></trkpt><trkpt lat="38.76927009487425" lon="-9.405189718019825"><ele>321.0</ele><time>2026-03-29T10:01:44Z</time></trkpt><trkpt lat="38.76936683303494" lon="-9.405253769946166"><ele>321.0</ele><time>2026-03-29T10:01:45Z</time></trkpt><trkpt lat="38.76940875308598" lon="-9.40533646456894"><ele>321.0</ele><time>2026-03-29T10:01:46Z</time></trkpt><trkpt lat="38.769439517975805" lon="-9.405423414576896"><ele>322.8</ele><time>2026-03-29T10:01:47Z</time></trkpt><trkpt lat="38.76946987898375" lon="-9.405547491293355"><ele>324.6</ele><time>2026-03-29T10:01:48Z</time></trkpt><trkpt lat="38.769513724162024" lon="-9.405686476580572"><ele>326.4</ele><time>2026-03-29T10:01:49Z</time></trkpt><trkpt lat="38.76955495091042" lon="-9.405806965398583"><ele>328.2</ele><time>2026-03-29T10:01:50Z</time></trkpt><trkpt lat="38.76959492834864" lon="-9.405895453754166"><ele>330.0</ele><time>2026-03-29T10:01:51Z</time></trkpt><trkpt lat="38.76965653619807" lon="-9.405954918643243"><ele>330.0</ele><time>2026-03-29T10:01:52Z</time></trkpt><trkpt lat="38.76974194473947" lon="-9.405905510816828"><ele>330.0</ele><time>2026-03-29T10:01:53Z</time></trkpt><trkpt lat="38.769822665090864" lon="-9.405917807355067"><ele>330.0</ele><time>2026-03-29T10:01:54Z</time></trkpt><trkpt lat="38.769912204214165" lon="-9.405892767698067"><ele>330.0</ele><time>2026-03-29T10:01:55Z</time></trkpt><trkpt lat="38.77000403544592" lon="-9.405925513526757"><ele>330.0</ele><time>2026-03-29T10:01:56Z</time></trkpt><trkpt lat="38.77009618529564" lon="-9.405966324197617"><ele>330.0</ele><time>2026-03-29T10:01:57Z</time></trkpt><trkpt lat="38.770155664781456" lon="-9.406074235946578"><ele>330.0</ele><time>2026-03-29T10:01:58Z</time></trkpt><trkpt lat="38.770230686493385" lon="-9.406170484492359"><ele>330.0</ele><time>2026-03-29T10:01:59Z</time></trkpt><trkpt lat="38.77030846487911" lon="-9.406263977151227"><ele>330.0</ele><time>2026-03-29T10:02:00Z</time></trkpt><trkpt lat="38.77040202140625" lon="-9.40633932251131"><ele>330.0</ele><time>2026-03-29T10:02:01Z</time></trkpt><trkpt lat="38.77047402845789" lon="-9.406423234737263"><ele>331.8</ele><time>2026-03-29T10:02:02Z</time></trkpt><trkpt lat="38.77056349238015" lon="-9.406507967338237"><ele>333.6</ele><time>2026-03-29T10:02:03Z</time></trkpt><trkpt lat="38.77059623818079" lon="-9.406602666492017"><ele>335.4</ele><time>2026-03-29T10:02:04Z</time></trkpt><trkpt lat="38.77058252283037" lon="-9.406764184259726"><ele>337.2</ele><time>2026-03-29T10:02:06Z</time></trkpt><trkpt lat="38.770529623963256" lon="-9.406816888531814"><ele>339.0</ele><time>2026-03-29T10:02:07Z</time></trkpt><trkpt lat="38.770425870269825" lon="-9.406920395557945"><ele>339.0</ele><time>2026-03-29T10:02:09Z</time></trkpt><trkpt lat="38.77034781620521" lon="-9.406984898055251"><ele>339.0</ele><time>2026-03-29T10:02:10Z</time></trkpt><trkpt lat="38.77032346058297" lon="-9.407131218286159"><ele>339.0</ele><time>2026-03-29T10:02:12Z</time></trkpt><trkpt lat="38.770377792928315" lon="-9.407216658599635"><ele>339.0</ele><time>2026-03-29T10:02:13Z</time></trkpt><trkpt lat="38.77045082191303" lon="-9.407252456774245"><ele>339.0</ele><time>2026-03-29T10:02:14Z</time></trkpt><trkpt lat="38.770516561063495" lon="-9.407299944175158"><ele>339.0</ele><time>2026-03-29T10:02:15Z</time></trkpt><trkpt lat="38.770579962427135" lon="-9.407357405647867"><ele>340.8333333333333</ele><time>2026-03-29T10:02:16Z</time></trkpt><trkpt lat="38.77062212059958" lon="-9.40743576909616"><ele>342.6666666666667</ele><time>2026-03-29T10:02:17Z</time></trkpt><trkpt lat="38.77064869161496" lon="-9.407517729506273"><ele>344.5</ele><time>2026-03-29T10:02:18Z</time></trkpt><trkpt lat="38.77066213543656" lon="-9.407603244831984"><ele>346.33333333333337</ele><time>2026-03-29T10:02:19Z</time></trkpt><trkpt lat="38.7706917277885" lon="-9.407698126478019"><ele>348.1666666666667</ele><time>2026-03-29T10:02:20Z</time></trkpt><trkpt lat="38.770723269184586" lon="-9.407799257317837"><ele>350.0</ele><time>2026-03-29T10:02:21Z</time></trkpt><trkpt lat="38.770750949043276" lon="-9.407892572539582"><ele>350.0</ele><time>2026-03-29T10:02:22Z</time></trkpt><trkpt lat="38.77077795402661" lon="-9.407990969306027"><ele>350.0</ele><time>2026-03-29T10:02:23Z</time></trkpt><trkpt lat="38.77080385980548" lon="-9.40810593914024"><ele>350.0</ele><time>2026-03-29T10:02:24Z</time></trkpt><trkpt lat="38.77083698694143" lon="-9.408210074486393"><ele>350.0</ele><time>2026-03-29T10:02:25Z</time></trkpt><trkpt lat="38.77086330110588" lon="-9.408326218036333"><ele>350.0</ele><time>2026-03-29T10:02:26Z</time></trkpt><trkpt lat="38.77087607938518" lon="-9.408438970105172"><ele>350.0</ele><time>2026-03-29T10:02:27Z</time></trkpt><trkpt lat="38.77089592899923" lon="-9.40853067641448"><ele>354.5</ele><time>2026-03-29T10:02:29Z</time></trkpt><trkpt lat="38.77056632704073" lon="-9.408804640603936"><ele>359.0</ele><time>2026-03-29T10:02:39Z</time></trkpt><trkpt lat="38.77046769854298" lon="-9.408796687629042"><ele>358.1666666666667</ele><time>2026-03-29T10:02:42Z</time></trkpt><trkpt lat="38.77043883498765" lon="-9.408922002188348"><ele>357.33333333333337</ele><time>2026-03-29T10:02:45Z</time></trkpt><trkpt lat="38.770398847848256" lon="-9.409004817556776"><ele>356.5</ele><time>2026-03-29T10:02:47.999Z</time></trkpt><trkpt lat="38.770348099089425" lon="-9.409064897240814"><ele>355.6666666666667</ele><time>2026-03-29T10:02:50.999Z</time></trkpt><trkpt lat="38.77029413551479" lon="-9.409140292924231"><ele>354.8333333333333</ele><time>2026-03-29T10:02:54.999Z</time></trkpt><trkpt lat="38.77023176757613" lon="-9.409206736342847"><ele>354.0</ele><time>2026-03-29T10:02:57.999Z</time></trkpt><trkpt lat="38.77016867031606" lon="-9.409235280865872"><ele>354.0</ele><time>2026-03-29T10:03:00.999Z</time></trkpt><trkpt lat="38.770091036382745" lon="-9.409269228850642"><ele>354.0</ele><time>2026-03-29T10:03:03.999Z</time></trkpt><trkpt lat="38.770159670904704" lon="-9.409237261024353"><ele>354.0</ele><time>2026-03-29T10:03:31.999Z</time></trkpt><trkpt lat="38.77024086066581" lon="-9.409193526890816"><ele>354.0</ele><time>2026-03-29T10:03:34.999Z</time></trkpt><trkpt lat="38.770301626989536" lon="-9.409113019704293"><ele>354.0</ele><time>2026-03-29T10:03:38.999Z</time></trkpt><trkpt lat="38.770357232000194" lon="-9.409059588716376"><ele>354.0</ele><time>2026-03-29T10:03:41.999Z</time></trkpt><trkpt lat="38.77041179615693" lon="-9.408991672750986"><ele>353.6666666666667</ele><time>2026-03-29T10:03:46Z</time></trkpt><trkpt lat="38.77045522149426" lon="-9.408910185618753"><ele>353.3333333333333</ele><time>2026-03-29T10:03:51Z</time></trkpt><trkpt lat="38.770449456162666" lon="-9.408822112478418"><ele>353.0</ele><time>2026-03-29T10:03:53Z</time></trkpt><trkpt lat="38.770517333304255" lon="-9.408763433023264"><ele>352.66666666666663</ele><time>2026-03-29T10:03:56Z</time></trkpt><trkpt lat="38.77058238137725" lon="-9.40875975760115"><ele>352.3333333333333</ele><time>2026-03-29T10:03:58Z</time></trkpt><trkpt lat="38.77067200144003" lon="-9.408736641548483"><ele>352.0</ele><time>2026-03-29T10:04:01Z</time></trkpt><trkpt lat="38.77072992856872" lon="-9.408689000439647"><ele>353.16666666666663</ele><time>2026-03-29T10:04:03Z</time></trkpt><trkpt lat="38.77078216888067" lon="-9.40859677214815"><ele>354.3333333333333</ele><time>2026-03-29T10:04:06Z</time></trkpt><trkpt lat="38.77081712951097" lon="-9.408505298311699"><ele>355.5</ele><time>2026-03-29T10:04:08Z</time></trkpt><trkpt lat="38.770874538894695" lon="-9.40845630549903"><ele>356.6666666666667</ele><time>2026-03-29T10:04:10Z</time></trkpt><trkpt lat="38.77092007578772" lon="-9.408573154865834"><ele>357.83333333333337</ele><time>2026-03-29T10:04:12Z</time></trkpt><trkpt lat="38.77094751144972" lon="-9.408659756795354"><ele>359.0</ele><time>2026-03-29T10:04:13Z</time></trkpt><trkpt lat="38.77101167834825" lon="-9.40874688510329"><ele>358.6666666666667</ele><time>2026-03-29T10:04:14Z</time></trkpt><trkpt lat="38.77108317202758" lon="-9.408822923692554"><ele>358.33333333333337</ele><time>2026-03-29T10:04:15Z</time></trkpt><trkpt lat="38.771160361961414" lon="-9.408888061589634"><ele>358.0</ele><time>2026-03-29T10:04:16Z</time></trkpt><trkpt lat="38.77123745535619" lon="-9.408948663149761"><ele>357.6666666666667</ele><time>2026-03-29T10:04:17Z</time></trkpt><trkpt lat="38.77131254116146" lon="-9.408994203900356"><ele>357.3333333333333</ele><time>2026-03-29T10:04:18Z</time></trkpt><trkpt lat="38.77139424104267" lon="-9.408987634756695"><ele>357.0</ele><time>2026-03-29T10:04:19Z</time></trkpt><trkpt lat="38.77146759823199" lon="-9.408962164999807"><ele>357.0</ele><time>2026-03-29T10:04:20Z</time></trkpt><trkpt lat="38.77154259081147" lon="-9.408944265163669"><ele>357.0</ele><time>2026-03-29T10:04:21Z</time></trkpt><trkpt lat="38.77162290196295" lon="-9.408938919411924"><ele>357.0</ele><time>2026-03-29T10:04:22Z</time></trkpt><trkpt lat="38.771688553809085" lon="-9.408906687563446"><ele>357.0</ele><time>2026-03-29T10:04:23Z</time></trkpt><trkpt lat="38.77180090291058" lon="-9.408843607695903"><ele>357.0</ele><time>2026-03-29T10:04:25Z</time></trkpt><trkpt lat="38.771908037501554" lon="-9.408817350342245"><ele>359.75</ele><time>2026-03-29T10:04:27Z</time></trkpt><trkpt lat="38.772007620390426" lon="-9.40906447282004"><ele>362.5</ele><time>2026-03-29T10:04:32Z</time></trkpt><trkpt lat="38.77202535322399" lon="-9.409172356645266"><ele>365.25</ele><time>2026-03-29T10:04:34Z</time></trkpt><trkpt lat="38.772033922307024" lon="-9.409301803547303"><ele>368.0</ele><time>2026-03-29T10:04:35.999Z</time></trkpt><trkpt lat="38.77206949242075" lon="-9.40940112987189"><ele>368.0</ele><time>2026-03-29T10:04:37.999Z</time></trkpt><trkpt lat="38.77208824009124" lon="-9.40949938671159"><ele>368.0</ele><time>2026-03-29T10:04:39.999Z</time></trkpt><trkpt lat="38.77212536461862" lon="-9.409566318399266"><ele>368.0</ele><time>2026-03-29T10:04:41.999Z</time></trkpt><trkpt lat="38.772163175070375" lon="-9.40963436942394"><ele>368.0</ele><time>2026-03-29T10:05:09.999Z</time></trkpt><trkpt lat="38.772230794749355" lon="-9.40964997117068"><ele>368.0</ele><time>2026-03-29T10:05:35.999Z</time></trkpt><trkpt lat="38.772168823316875" lon="-9.409673727786132"><ele>368.0</ele><time>2026-03-29T10:05:57Z</time></trkpt><trkpt lat="38.772125017970765" lon="-9.409611639324268"><ele>368.0</ele><time>2026-03-29T10:07:43.999Z</time></trkpt><trkpt lat="38.77218014329791" lon="-9.409654380193436"><ele>366.79999999999995</ele><time>2026-03-29T10:07:54.999Z</time></trkpt><trkpt lat="38.772235456332936" lon="-9.409736656094596"><ele>365.6</ele><time>2026-03-29T10:09:32.999Z</time></trkpt><trkpt lat="38.77229948704411" lon="-9.409852417093978"><ele>364.4</ele><time>2026-03-29T10:10:23Z</time></trkpt><trkpt lat="38.77231704764057" lon="-9.409985228987237"><ele>363.20000000000005</ele><time>2026-03-29T10:10:25Z</time></trkpt><trkpt lat="38.77237951699809" lon="-9.410065049038682"><ele>362.0</ele><time>2026-03-29T10:10:26.999Z</time></trkpt><trkpt lat="38.772511490617234" lon="-9.410118750147912"><ele>362.0</ele><time>2026-03-29T10:10:28.999Z</time></trkpt><trkpt lat="38.77259071577114" lon="-9.410135385874248"><ele>362.0</ele><time>2026-03-29T10:10:29.999Z</time></trkpt><trkpt lat="38.772652149564244" lon="-9.410164410738144"><ele>362.0</ele><time>2026-03-29T10:10:31.999Z</time></trkpt><trkpt lat="38.772684741482365" lon="-9.410239706443337"><ele>362.0</ele><time>2026-03-29T10:10:37.999Z</time></trkpt><trkpt lat="38.772588661491966" lon="-9.410317480396861"><ele>362.0</ele><time>2026-03-29T10:10:39.999Z</time></trkpt><trkpt lat="38.77247608760692" lon="-9.410386634878254"><ele>362.0</ele><time>2026-03-29T10:10:41.999Z</time></trkpt><trkpt lat="38.77240176530639" lon="-9.410415690766001"><ele>362.0</ele><time>2026-03-29T10:10:42.999Z</time></trkpt><trkpt lat="38.77232979791411" lon="-9.410434663663864"><ele>362.0</ele><time>2026-03-29T10:10:43.999Z</time></trkpt><trkpt lat="38.77226545298133" lon="-9.410462552475105"><ele>362.0</ele><time>2026-03-29T10:10:44.999Z</time></trkpt><trkpt lat="38.77219986350298" lon="-9.410476260345076"><ele>362.0</ele><time>2026-03-29T10:10:45.999Z</time></trkpt><trkpt lat="38.772128300703415" lon="-9.410512481078669"><ele>362.0</ele><time>2026-03-29T10:10:47.999Z</time></trkpt><trkpt lat="38.77201971572026" lon="-9.410577466343833"><ele>363.6</ele><time>2026-03-29T10:11:00.999Z</time></trkpt><trkpt lat="38.771971872599" lon="-9.41063249425102"><ele>365.20000000000005</ele><time>2026-03-29T10:11:01.999Z</time></trkpt><trkpt lat="38.77188124247719" lon="-9.410721124052445"><ele>366.8</ele><time>2026-03-29T10:11:03.999Z</time></trkpt><trkpt lat="38.77201636620634" lon="-9.41064704920081"><ele>368.4</ele><time>2026-03-29T10:11:59.999Z</time></trkpt><trkpt lat="38.7720886905179" lon="-9.410584776553819"><ele>370.0</ele><time>2026-03-29T10:12:01.999Z</time></trkpt><trkpt lat="38.77216390391337" lon="-9.410575444837942"><ele>370.0</ele><time>2026-03-29T10:12:06.999Z</time></trkpt><trkpt lat="38.77224256595556" lon="-9.410524876755652"><ele>370.0</ele><time>2026-03-29T10:12:11Z</time></trkpt><trkpt lat="38.7723333081982" lon="-9.41048782472108"><ele>370.0</ele><time>2026-03-29T10:12:13Z</time></trkpt><trkpt lat="38.772405189102074" lon="-9.410458234270129"><ele>370.0</ele><time>2026-03-29T10:12:14Z</time></trkpt><trkpt lat="38.772512217540786" lon="-9.41040702231818"><ele>370.0</ele><time>2026-03-29T10:12:15Z</time></trkpt><trkpt lat="38.77257550428738" lon="-9.410373472705912"><ele>370.0</ele><time>2026-03-29T10:12:16Z</time></trkpt><trkpt lat="38.77263783343121" lon="-9.410337891912652"><ele>368.66666666666663</ele><time>2026-03-29T10:12:18Z</time></trkpt><trkpt lat="38.77268023584528" lon="-9.410257006894911"><ele>367.3333333333333</ele><time>2026-03-29T10:12:20Z</time></trkpt><trkpt lat="38.772658806565424" lon="-9.41012870114953"><ele>366.0</ele><time>2026-03-29T10:12:23Z</time></trkpt><trkpt lat="38.772600808375365" lon="-9.410088730092555"><ele>364.6666666666667</ele><time>2026-03-29T10:12:24Z</time></trkpt><trkpt lat="38.77252245811704" lon="-9.410061306130027"><ele>363.33333333333337</ele><time>2026-03-29T10:12:25Z</time></trkpt><trkpt lat="38.77242402699671" lon="-9.410026276153706"><ele>362.0</ele><time>2026-03-29T10:12:26Z</time></trkpt><trkpt lat="38.772326010847834" lon="-9.409993286032522"><ele>362.0</ele><time>2026-03-29T10:12:27Z</time></trkpt><trkpt lat="38.77226720169109" lon="-9.409935725136517"><ele>362.0</ele><time>2026-03-29T10:12:28Z</time></trkpt><trkpt lat="38.7722359398253" lon="-9.409841209229905"><ele>362.0</ele><time>2026-03-29T10:12:29Z</time></trkpt><trkpt lat="38.77223614992641" lon="-9.40974626171368"><ele>362.0</ele><time>2026-03-29T10:12:31Z</time></trkpt><trkpt lat="38.77231096804582" lon="-9.409705370864554"><ele>362.0</ele><time>2026-03-29T10:12:46Z</time></trkpt><trkpt lat="38.772390696269404" lon="-9.409713300104517"><ele>362.0</ele><time>2026-03-29T10:12:48Z</time></trkpt><trkpt lat="38.77247934694358" lon="-9.40974864790236"><ele>362.0</ele><time>2026-03-29T10:12:50.999Z</time></trkpt><trkpt lat="38.772547339771975" lon="-9.409758084932545"><ele>362.0</ele><time>2026-03-29T10:13:57.999Z</time></trkpt><trkpt lat="38.77260640954802" lon="-9.409813634193325"><ele>362.0</ele><time>2026-03-29T10:14:00.999Z</time></trkpt><trkpt lat="38.7726583805099" lon="-9.409879756267683"><ele>362.0</ele><time>2026-03-29T10:14:03.999Z</time></trkpt><trkpt lat="38.7727247529235" lon="-9.409941027982068"><ele>362.0</ele><time>2026-03-29T10:14:06.999Z</time></trkpt><trkpt lat="38.77278708166219" lon="-9.409977486847563"><ele>362.0</ele><time>2026-03-29T10:14:10.999Z</time></trkpt><trkpt lat="38.77284902853258" lon="-9.410016851297545"><ele>362.0</ele><time>2026-03-29T10:14:14Z</time></trkpt><trkpt lat="38.77290332676752" lon="-9.41006857488785"><ele>363.33333333333337</ele><time>2026-03-29T10:14:17Z</time></trkpt><trkpt lat="38.77298395831427" lon="-9.410096350914198"><ele>364.6666666666667</ele><time>2026-03-29T10:14:39.999Z</time></trkpt><trkpt lat="38.77305165986238" lon="-9.410111380110923"><ele>366.0</ele><time>2026-03-29T10:14:42.999Z</time></trkpt><trkpt lat="38.773122529629006" lon="-9.410141217447022"><ele>367.3333333333333</ele><time>2026-03-29T10:14:45.999Z</time></trkpt><trkpt lat="38.77318986365593" lon="-9.410166268023865"><ele>368.66666666666663</ele><time>2026-03-29T10:14:48.999Z</time></trkpt><trkpt lat="38.773260002280374" lon="-9.410168380641045"><ele>370.0</ele><time>2026-03-29T10:14:52.999Z</time></trkpt><trkpt lat="38.77334683940876" lon="-9.410154006996674"><ele>370.0</ele><time>2026-03-29T10:14:55.999Z</time></trkpt><trkpt lat="38.773411959552305" lon="-9.410088430441748"><ele>370.0</ele><time>2026-03-29T10:14:57.999Z</time></trkpt><trkpt lat="38.77346531610172" lon="-9.409999211563946"><ele>370.0</ele><time>2026-03-29T10:14:59.999Z</time></trkpt><trkpt lat="38.7735065672925" lon="-9.409919728723848"><ele>370.0</ele><time>2026-03-29T10:15:01.999Z</time></trkpt><trkpt lat="38.773559857224704" lon="-9.409823695320782"><ele>370.0</ele><time>2026-03-29T10:15:03.999Z</time></trkpt><trkpt lat="38.77357403361843" lon="-9.40971518598567"><ele>370.0</ele><time>2026-03-29T10:15:05.999Z</time></trkpt><trkpt lat="38.773591264234945" lon="-9.409599642720202"><ele>372.2</ele><time>2026-03-29T10:15:07.999Z</time></trkpt><trkpt lat="38.77360502034296" lon="-9.409494267796422"><ele>374.4</ele><time>2026-03-29T10:15:09.999Z</time></trkpt><trkpt lat="38.7736393730445" lon="-9.409383557807288"><ele>376.6</ele><time>2026-03-29T10:15:11.999Z</time></trkpt><trkpt lat="38.773689239422254" lon="-9.409253690503066"><ele>378.8</ele><time>2026-03-29T10:15:13.999Z</time></trkpt><trkpt lat="38.77371944617533" lon="-9.409137133261614"><ele>381.0</ele><time>2026-03-29T10:15:15.999Z</time></trkpt><trkpt lat="38.77373769813236" lon="-9.409050476384492"><ele>381.0</ele><time>2026-03-29T10:15:17.999Z</time></trkpt><trkpt lat="38.77375930231412" lon="-9.408949224403353"><ele>381.0</ele><time>2026-03-29T10:15:19.999Z</time></trkpt><trkpt lat="38.77378214420641" lon="-9.408866020083257"><ele>381.0</ele><time>2026-03-29T10:17:22Z</time></trkpt><trkpt lat="38.77380859499732" lon="-9.408778897069867"><ele>381.0</ele><time>2026-03-29T10:18:39Z</time></trkpt><trkpt lat="38.773799650488485" lon="-9.408860573431513"><ele>381.0</ele><time>2026-03-29T10:21:18Z</time></trkpt><trkpt lat="38.77376325477137" lon="-9.408935312142809"><ele>381.0</ele><time>2026-03-29T10:21:25Z</time></trkpt><trkpt lat="38.7737958978415" lon="-9.40885085177743"><ele>381.0</ele><time>2026-03-29T10:22:18Z</time></trkpt><trkpt lat="38.77383769069712" lon="-9.408761074916718"><ele>381.0</ele><time>2026-03-29T10:22:20Z</time></trkpt><trkpt lat="38.773924962308826" lon="-9.408722792950146"><ele>381.0</ele><time>2026-03-29T10:22:22Z</time></trkpt><trkpt lat="38.77399261770312" lon="-9.40872936468656"><ele>381.0</ele><time>2026-03-29T10:22:23Z</time></trkpt><trkpt lat="38.77405973661613" lon="-9.408759173725716"><ele>381.0</ele><time>2026-03-29T10:22:24Z</time></trkpt><trkpt lat="38.77413067245458" lon="-9.408793480834383"><ele>381.0</ele><time>2026-03-29T10:22:25Z</time></trkpt><trkpt lat="38.77420385175535" lon="-9.408821267984228"><ele>381.0</ele><time>2026-03-29T10:22:26Z</time></trkpt><trkpt lat="38.77428370870215" lon="-9.408865592442556"><ele>383.0</ele><time>2026-03-29T10:22:27Z</time></trkpt><trkpt lat="38.77436697189882" lon="-9.408912087155498"><ele>385.0</ele><time>2026-03-29T10:22:28Z</time></trkpt><trkpt lat="38.774454837977075" lon="-9.408962840481799"><ele>387.0</ele><time>2026-03-29T10:22:29Z</time></trkpt><trkpt lat="38.774543945211" lon="-9.408996348781017"><ele>389.0</ele><time>2026-03-29T10:22:30Z</time></trkpt><trkpt lat="38.774623899575424" lon="-9.409063084650914"><ele>391.0</ele><time>2026-03-29T10:22:31Z</time></trkpt><trkpt lat="38.77471584155789" lon="-9.409117484206478"><ele>391.0</ele><time>2026-03-29T10:22:32Z</time></trkpt><trkpt lat="38.77480187086593" lon="-9.409166098164235"><ele>391.0</ele><time>2026-03-29T10:22:33Z</time></trkpt><trkpt lat="38.77487432344033" lon="-9.409220478011395"><ele>391.0</ele><time>2026-03-29T10:22:34Z</time></trkpt><trkpt lat="38.77493450770429" lon="-9.409295449897451"><ele>391.0</ele><time>2026-03-29T10:22:35Z</time></trkpt><trkpt lat="38.77500673633465" lon="-9.409388058562847"><ele>391.0</ele><time>2026-03-29T10:22:36Z</time></trkpt><trkpt lat="38.77508184533907" lon="-9.409479519815585"><ele>391.00000000000006</ele><time>2026-03-29T10:22:37Z</time></trkpt><trkpt lat="38.77514892864743" lon="-9.409551053502023"><ele>391.0</ele><time>2026-03-29T10:22:38Z</time></trkpt><trkpt lat="38.77521006420512" lon="-9.409617010284027"><ele>391.0</ele><time>2026-03-29T10:22:39Z</time></trkpt><trkpt lat="38.77527338256336" lon="-9.409693127468113"><ele>391.0</ele><time>2026-03-29T10:22:40Z</time></trkpt><trkpt lat="38.77534682284989" lon="-9.409747394699306"><ele>391.00000000000006</ele><time>2026-03-29T10:22:41Z</time></trkpt><trkpt lat="38.775408589992004" lon="-9.40978736852305"><ele>391.0</ele><time>2026-03-29T10:22:42Z</time></trkpt><trkpt lat="38.77548340979622" lon="-9.409820072509765"><ele>392.00000000000006</ele><time>2026-03-29T10:22:43Z</time></trkpt><trkpt lat="38.775559689377985" lon="-9.409858430092827"><ele>393.0</ele><time>2026-03-29T10:22:44Z</time></trkpt><trkpt lat="38.77564147089631" lon="-9.409857709466154"><ele>394.0</ele><time>2026-03-29T10:22:45Z</time></trkpt><trkpt lat="38.775723059047486" lon="-9.409847400270081"><ele>395.0</ele><time>2026-03-29T10:22:46Z</time></trkpt><trkpt lat="38.7758078812418" lon="-9.409833937105262"><ele>396.00000000000006</ele><time>2026-03-29T10:22:47Z</time></trkpt><trkpt lat="38.775878212628484" lon="-9.409829263304243"><ele>397.0</ele><time>2026-03-29T10:22:48Z</time></trkpt><trkpt lat="38.775952363364226" lon="-9.40982171887303"><ele>398.00000000000006</ele><time>2026-03-29T10:22:49Z</time></trkpt><trkpt lat="38.77603933248664" lon="-9.409810250331041"><ele>399.0</ele><time>2026-03-29T10:22:50Z</time></trkpt><trkpt lat="38.776114951120405" lon="-9.409792556165549"><ele>400.0</ele><time>2026-03-29T10:22:51Z</time></trkpt><trkpt lat="38.7761879019478" lon="-9.4097812171311"><ele>401.0</ele><time>2026-03-29T10:22:52Z</time></trkpt><trkpt lat="38.77625727705162" lon="-9.409805425312761"><ele>402.00000000000006</ele><time>2026-03-29T10:22:53Z</time></trkpt><trkpt lat="38.77633740670693" lon="-9.409833593053735"><ele>403.0</ele><time>2026-03-29T10:22:54Z</time></trkpt><trkpt lat="38.77642168595074" lon="-9.409857962170445"><ele>403.00000000000006</ele><time>2026-03-29T10:22:55Z</time></trkpt><trkpt lat="38.776513367480895" lon="-9.409862167559687"><ele>403.0</ele><time>2026-03-29T10:22:56Z</time></trkpt><trkpt lat="38.776591288354176" lon="-9.40988780670648"><ele>403.0</ele><time>2026-03-29T10:22:57Z</time></trkpt><trkpt lat="38.776668625719815" lon="-9.409897961620715"><ele>403.0</ele><time>2026-03-29T10:22:58Z</time></trkpt><trkpt lat="38.77675772320677" lon="-9.40989875942264"><ele>403.00000000000006</ele><time>2026-03-29T10:22:59Z</time></trkpt><trkpt lat="38.77683741192031" lon="-9.409865341546277"><ele>403.0</ele><time>2026-03-29T10:23:00Z</time></trkpt><trkpt lat="38.776950359484815" lon="-9.409809520432688"><ele>405.00000000000006</ele><time>2026-03-29T10:23:02Z</time></trkpt><trkpt lat="38.77701059271197" lon="-9.40976574942014"><ele>407.0</ele><time>2026-03-29T10:23:03Z</time></trkpt><trkpt lat="38.77706671916918" lon="-9.409721716844878"><ele>409.0</ele><time>2026-03-29T10:23:04Z</time></trkpt><trkpt lat="38.77713409358563" lon="-9.409667588448945"><ele>411.0</ele><time>2026-03-29T10:23:05Z</time></trkpt><trkpt lat="38.77720834083201" lon="-9.409618176639578"><ele>413.00000000000006</ele><time>2026-03-29T10:23:06Z</time></trkpt><trkpt lat="38.77728961668008" lon="-9.409582152548989"><ele>415.0</ele><time>2026-03-29T10:23:08Z</time></trkpt><trkpt lat="38.777361942472204" lon="-9.409762748220773"><ele>415.0</ele><time>2026-03-29T10:23:10Z</time></trkpt><trkpt lat="38.77737324763539" lon="-9.409911890341052"><ele>415.0</ele><time>2026-03-29T10:23:11Z</time></trkpt><trkpt lat="38.77736670887417" lon="-9.410077857845053"><ele>415.0</ele><time>2026-03-29T10:23:12Z</time></trkpt><trkpt lat="38.7773661291636" lon="-9.410242268740987"><ele>415.0</ele><time>2026-03-29T10:23:13Z</time></trkpt><trkpt lat="38.777355956160754" lon="-9.410388414367173"><ele>416.25</ele><time>2026-03-29T10:23:14Z</time></trkpt><trkpt lat="38.777328498732814" lon="-9.410547677622146"><ele>417.5</ele><time>2026-03-29T10:23:15Z</time></trkpt><trkpt lat="38.77729051727335" lon="-9.41072322149277"><ele>418.75</ele><time>2026-03-29T10:23:16Z</time></trkpt><trkpt lat="38.77724878768091" lon="-9.410913564408276"><ele>420.0</ele><time>2026-03-29T10:23:17Z</time></trkpt><trkpt lat="38.77720745312341" lon="-9.41109573068061"><ele>420.0</ele><time>2026-03-29T10:23:18Z</time></trkpt><trkpt lat="38.77716251654124" lon="-9.411289690666425"><ele>420.0</ele><time>2026-03-29T10:23:19Z</time></trkpt><trkpt lat="38.77711741592815" lon="-9.411456127487844"><ele>420.0</ele><time>2026-03-29T10:23:20Z</time></trkpt><trkpt lat="38.777074872732356" lon="-9.411611501377374"><ele>420.0</ele><time>2026-03-29T10:23:21Z</time></trkpt><trkpt lat="38.77702995026233" lon="-9.411784067038482"><ele>420.75</ele><time>2026-03-29T10:23:22Z</time></trkpt><trkpt lat="38.77701476258064" lon="-9.411935929383233"><ele>421.5</ele><time>2026-03-29T10:23:23Z</time></trkpt><trkpt lat="38.777011943091324" lon="-9.412083994119769"><ele>422.25</ele><time>2026-03-29T10:23:24Z</time></trkpt><trkpt lat="38.777015032633955" lon="-9.41222949484663"><ele>423.0</ele><time>2026-03-29T10:23:25Z</time></trkpt><trkpt lat="38.777029815038695" lon="-9.412362503204209"><ele>423.0</ele><time>2026-03-29T10:23:26Z</time></trkpt><trkpt lat="38.777066050448525" lon="-9.412488463750481"><ele>423.0</ele><time>2026-03-29T10:23:27Z</time></trkpt><trkpt lat="38.77711327792997" lon="-9.412597320408809"><ele>423.0</ele><time>2026-03-29T10:23:28Z</time></trkpt><trkpt lat="38.777163784988446" lon="-9.41270926637501"><ele>423.0</ele><time>2026-03-29T10:23:29Z</time></trkpt><trkpt lat="38.77722178597348" lon="-9.41282120630272"><ele>423.0</ele><time>2026-03-29T10:23:30Z</time></trkpt><trkpt lat="38.77729003085192" lon="-9.412952478507345"><ele>421.2</ele><time>2026-03-29T10:23:31Z</time></trkpt><trkpt lat="38.77735038882392" lon="-9.413081056595287"><ele>419.4</ele><time>2026-03-29T10:23:32Z</time></trkpt><trkpt lat="38.77736861611824" lon="-9.413216578461004"><ele>417.59999999999997</ele><time>2026-03-29T10:23:33Z</time></trkpt><trkpt lat="38.77738644494523" lon="-9.413357950399137"><ele>415.79999999999995</ele><time>2026-03-29T10:23:34Z</time></trkpt><trkpt lat="38.77737686455363" lon="-9.413500272134192"><ele>414.0</ele><time>2026-03-29T10:23:35Z</time></trkpt><trkpt lat="38.7773532866234" lon="-9.413641651040306"><ele>414.0</ele><time>2026-03-29T10:23:36Z</time></trkpt><trkpt lat="38.77732220195572" lon="-9.413787593901151"><ele>414.0</ele><time>2026-03-29T10:23:37Z</time></trkpt><trkpt lat="38.77728598846997" lon="-9.413921978442298"><ele>414.0</ele><time>2026-03-29T10:23:38Z</time></trkpt><trkpt lat="38.77725766652819" lon="-9.414065974493829"><ele>414.0</ele><time>2026-03-29T10:23:39Z</time></trkpt><trkpt lat="38.777208989095456" lon="-9.414188127271506"><ele>413.5</ele><time>2026-03-29T10:23:40Z</time></trkpt><trkpt lat="38.77715222765799" lon="-9.4143100627258"><ele>413.0</ele><time>2026-03-29T10:23:41Z</time></trkpt><trkpt lat="38.77708691794644" lon="-9.414442452510373"><ele>412.5</ele><time>2026-03-29T10:23:42Z</time></trkpt><trkpt lat="38.777025857292934" lon="-9.414576640596763"><ele>412.0</ele><time>2026-03-29T10:23:43Z</time></trkpt><trkpt lat="38.77696851537862" lon="-9.414704820602458"><ele>411.0</ele><time>2026-03-29T10:23:44Z</time></trkpt><trkpt lat="38.77690619738773" lon="-9.41484784271231"><ele>410.0</ele><time>2026-03-29T10:23:45Z</time></trkpt><trkpt lat="38.77683814566125" lon="-9.414993276876983"><ele>409.0</ele><time>2026-03-29T10:23:46Z</time></trkpt><trkpt lat="38.77675799628327" lon="-9.415139232441502"><ele>408.0</ele><time>2026-03-29T10:23:47Z</time></trkpt><trkpt lat="38.776691945399335" lon="-9.415304732152544"><ele>406.5</ele><time>2026-03-29T10:23:48Z</time></trkpt><trkpt lat="38.77661348206743" lon="-9.415457826861228"><ele>405.0</ele><time>2026-03-29T10:23:49Z</time></trkpt><trkpt lat="38.77654758586886" lon="-9.415607057807323"><ele>403.5</ele><time>2026-03-29T10:23:50Z</time></trkpt><trkpt lat="38.776488349609" lon="-9.41575734446631"><ele>402.0</ele><time>2026-03-29T10:23:51Z</time></trkpt><trkpt lat="38.77643752129228" lon="-9.41590118777836"><ele>400.0</ele><time>2026-03-29T10:23:52Z</time></trkpt><trkpt lat="38.77638444961433" lon="-9.416055217053037"><ele>398.0</ele><time>2026-03-29T10:23:53Z</time></trkpt><trkpt lat="38.776331070658195" lon="-9.416207496312328"><ele>396.0</ele><time>2026-03-29T10:23:54Z</time></trkpt><trkpt lat="38.77627754986155" lon="-9.416358942514893"><ele>394.0</ele><time>2026-03-29T10:23:55Z</time></trkpt><trkpt lat="38.77623212172605" lon="-9.416496642984951"><ele>394.0</ele><time>2026-03-29T10:23:56Z</time></trkpt><trkpt lat="38.776193468500956" lon="-9.416630358361562"><ele>394.0</ele><time>2026-03-29T10:23:57Z</time></trkpt><trkpt lat="38.77615854673956" lon="-9.416776012604007"><ele>394.0</ele><time>2026-03-29T10:23:58Z</time></trkpt><trkpt lat="38.77612660737536" lon="-9.416928195083791"><ele>394.0</ele><time>2026-03-29T10:23:59Z</time></trkpt><trkpt lat="38.776097272347954" lon="-9.417077540427833"><ele>393.5</ele><time>2026-03-29T10:24:00Z</time></trkpt><trkpt lat="38.77606673227515" lon="-9.417227389612062"><ele>393.0</ele><time>2026-03-29T10:24:01Z</time></trkpt><trkpt lat="38.77603683984176" lon="-9.417374800340758"><ele>392.5</ele><time>2026-03-29T10:24:02Z</time></trkpt><trkpt lat="38.77600934911296" lon="-9.417522364601787"><ele>392.0</ele><time>2026-03-29T10:24:03Z</time></trkpt><trkpt lat="38.77598380719768" lon="-9.417667532216647"><ele>391.8</ele><time>2026-03-29T10:24:04Z</time></trkpt><trkpt lat="38.77596258636768" lon="-9.417808636433127"><ele>391.6</ele><time>2026-03-29T10:24:05Z</time></trkpt><trkpt lat="38.775961663986024" lon="-9.41792483646351"><ele>391.40000000000003</ele><time>2026-03-29T10:24:06Z</time></trkpt><trkpt lat="38.775975282730194" lon="-9.418032067001281"><ele>391.20000000000005</ele><time>2026-03-29T10:24:07Z</time></trkpt><trkpt lat="38.776003567791314" lon="-9.418135768270739"><ele>391.0</ele><time>2026-03-29T10:24:08Z</time></trkpt><trkpt lat="38.77604594385258" lon="-9.41823817418499"><ele>390.20000000000005</ele><time>2026-03-29T10:24:09Z</time></trkpt><trkpt lat="38.77610318623355" lon="-9.418338307474457"><ele>389.40000000000003</ele><time>2026-03-29T10:24:10Z</time></trkpt><trkpt lat="38.77618300121648" lon="-9.41843011937551"><ele>388.6</ele><time>2026-03-29T10:24:11Z</time></trkpt><trkpt lat="38.776275667885" lon="-9.418520217087377"><ele>387.8</ele><time>2026-03-29T10:24:12Z</time></trkpt><trkpt lat="38.77637447062011" lon="-9.418615787837139"><ele>387.0</ele><time>2026-03-29T10:24:13Z</time></trkpt><trkpt lat="38.77648547679513" lon="-9.418680904432646"><ele>387.0</ele><time>2026-03-29T10:24:14Z</time></trkpt><trkpt lat="38.77660180476542" lon="-9.418731218988729"><ele>387.0</ele><time>2026-03-29T10:24:15Z</time></trkpt><trkpt lat="38.776717297768904" lon="-9.418765611837584"><ele>387.0</ele><time>2026-03-29T10:24:16Z</time></trkpt><trkpt lat="38.77683342164948" lon="-9.418752634994735"><ele>387.0</ele><time>2026-03-29T10:24:17Z</time></trkpt><trkpt lat="38.776941515853224" lon="-9.418777345812616"><ele>386.0</ele><time>2026-03-29T10:24:18Z</time></trkpt><trkpt lat="38.77704707182255" lon="-9.418776017968781"><ele>385.0</ele><time>2026-03-29T10:24:19Z</time></trkpt><trkpt lat="38.77714988443104" lon="-9.41876312868442"><ele>384.0</ele><time>2026-03-29T10:24:20Z</time></trkpt><trkpt lat="38.7772578009363" lon="-9.418749392857766"><ele>383.0</ele><time>2026-03-29T10:24:21Z</time></trkpt><trkpt lat="38.77736486227279" lon="-9.418736720156362"><ele>382.0</ele><time>2026-03-29T10:24:22Z</time></trkpt><trkpt lat="38.77746971846673" lon="-9.418726857503104"><ele>382.0</ele><time>2026-03-29T10:24:23Z</time></trkpt><trkpt lat="38.77757459453891" lon="-9.418737344701748"><ele>382.0</ele><time>2026-03-29T10:24:24Z</time></trkpt><trkpt lat="38.777678414016876" lon="-9.418772562710027"><ele>382.0</ele><time>2026-03-29T10:24:25Z</time></trkpt><trkpt lat="38.777788611444336" lon="-9.418839166887247"><ele>382.0</ele><time>2026-03-29T10:24:26Z</time></trkpt><trkpt lat="38.77789411966299" lon="-9.418947367491532"><ele>380.25</ele><time>2026-03-29T10:24:27Z</time></trkpt><trkpt lat="38.77798281501987" lon="-9.419077438358768"><ele>378.5</ele><time>2026-03-29T10:24:28Z</time></trkpt><trkpt lat="38.77807491093668" lon="-9.41919783611887"><ele>376.75</ele><time>2026-03-29T10:24:29Z</time></trkpt><trkpt lat="38.77815782293637" lon="-9.419307807073114"><ele>375.0</ele><time>2026-03-29T10:24:30Z</time></trkpt><trkpt lat="38.77823095637672" lon="-9.41941216192263"><ele>375.0</ele><time>2026-03-29T10:24:31Z</time></trkpt><trkpt lat="38.778304944189706" lon="-9.419504716591907"><ele>375.0</ele><time>2026-03-29T10:24:32Z</time></trkpt><trkpt lat="38.77837225649658" lon="-9.419602522375458"><ele>375.0</ele><time>2026-03-29T10:24:33Z</time></trkpt><trkpt lat="38.77842218985895" lon="-9.419713485798676"><ele>375.0</ele><time>2026-03-29T10:24:34Z</time></trkpt><trkpt lat="38.77845733437269" lon="-9.419844486307797"><ele>375.0</ele><time>2026-03-29T10:24:35Z</time></trkpt><trkpt lat="38.77848014819315" lon="-9.419987622149584"><ele>374.0</ele><time>2026-03-29T10:24:36Z</time></trkpt><trkpt lat="38.77847896092504" lon="-9.420134499039772"><ele>373.0</ele><time>2026-03-29T10:24:37Z</time></trkpt><trkpt lat="38.778471866947726" lon="-9.420297365902215"><ele>372.0</ele><time>2026-03-29T10:24:38Z</time></trkpt><trkpt lat="38.77846624323117" lon="-9.42046209355949"><ele>371.0</ele><time>2026-03-29T10:24:39Z</time></trkpt><trkpt lat="38.778469165812346" lon="-9.420637256645383"><ele>370.5</ele><time>2026-03-29T10:24:40Z</time></trkpt><trkpt lat="38.778471422815805" lon="-9.420811806167084"><ele>370.0</ele><time>2026-03-29T10:24:41Z</time></trkpt><trkpt lat="38.77846937511698" lon="-9.420989879079384"><ele>369.5</ele><time>2026-03-29T10:24:42Z</time></trkpt><trkpt lat="38.7784661064234" lon="-9.421162267452525"><ele>369.0</ele><time>2026-03-29T10:24:43Z</time></trkpt><trkpt lat="38.77846837212479" lon="-9.421329602683635"><ele>369.0</ele><time>2026-03-29T10:24:44Z</time></trkpt><trkpt lat="38.778470185341234" lon="-9.421493231658754"><ele>369.0</ele><time>2026-03-29T10:24:45Z</time></trkpt><trkpt lat="38.77846910457233" lon="-9.421655548398306"><ele>369.0</ele><time>2026-03-29T10:24:46Z</time></trkpt><trkpt lat="38.77847153878031" lon="-9.421810511334138"><ele>369.0</ele><time>2026-03-29T10:24:47Z</time></trkpt><trkpt lat="38.77847781514848" lon="-9.421968771533132"><ele>369.0</ele><time>2026-03-29T10:24:48Z</time></trkpt><trkpt lat="38.77847606768437" lon="-9.422119729993064"><ele>369.0</ele><time>2026-03-29T10:24:49Z</time></trkpt><trkpt lat="38.77845917925247" lon="-9.422270828937775"><ele>369.0</ele><time>2026-03-29T10:24:50Z</time></trkpt><trkpt lat="38.778416178615" lon="-9.422414800322654"><ele>369.0</ele><time>2026-03-29T10:24:51Z</time></trkpt><trkpt lat="38.77835986235904" lon="-9.422555453892459"><ele>369.0</ele><time>2026-03-29T10:24:52Z</time></trkpt><trkpt lat="38.778303624992155" lon="-9.422695070629684"><ele>369.0</ele><time>2026-03-29T10:24:53Z</time></trkpt><trkpt lat="38.77825809295146" lon="-9.422839779636874"><ele>369.0</ele><time>2026-03-29T10:24:54Z</time></trkpt><trkpt lat="38.77822071059155" lon="-9.42296900063066"><ele>369.0</ele><time>2026-03-29T10:24:55Z</time></trkpt><trkpt lat="38.778204656228915" lon="-9.423085096285904"><ele>369.0</ele><time>2026-03-29T10:24:56Z</time></trkpt><trkpt lat="38.77822935576563" lon="-9.423207110839224"><ele>369.0</ele><time>2026-03-29T10:24:57Z</time></trkpt><trkpt lat="38.778233839413545" lon="-9.423359564909733"><ele>369.0</ele><time>2026-03-29T10:24:58Z</time></trkpt><trkpt lat="38.778258313861954" lon="-9.42351221137187"><ele>369.0</ele><time>2026-03-29T10:24:59Z</time></trkpt><trkpt lat="38.77828314637435" lon="-9.423686666115195"><ele>369.0</ele><time>2026-03-29T10:25:00Z</time></trkpt><trkpt lat="38.778302511778826" lon="-9.423877418077543"><ele>368.5</ele><time>2026-03-29T10:25:01Z</time></trkpt><trkpt lat="38.77831977899783" lon="-9.424066459498473"><ele>368.0</ele><time>2026-03-29T10:25:02Z</time></trkpt><trkpt lat="38.778337405491456" lon="-9.424237488381117"><ele>367.5</ele><time>2026-03-29T10:25:03Z</time></trkpt><trkpt lat="38.77835795568753" lon="-9.424398371427221"><ele>367.0</ele><time>2026-03-29T10:25:04Z</time></trkpt><trkpt lat="38.77837070066058" lon="-9.424581417732687"><ele>368.25</ele><time>2026-03-29T10:25:05Z</time></trkpt><trkpt lat="38.7783861446475" lon="-9.424756504793184"><ele>369.5</ele><time>2026-03-29T10:25:06Z</time></trkpt><trkpt lat="38.77839753759694" lon="-9.424913342138739"><ele>370.75</ele><time>2026-03-29T10:25:07Z</time></trkpt><trkpt lat="38.77841184739288" lon="-9.42505691600358"><ele>372.0</ele><time>2026-03-29T10:25:08Z</time></trkpt><trkpt lat="38.778416626952946" lon="-9.42519923319671"><ele>372.0</ele><time>2026-03-29T10:25:09Z</time></trkpt><trkpt lat="38.77843029504907" lon="-9.425331913757509"><ele>372.0</ele><time>2026-03-29T10:25:10Z</time></trkpt><trkpt lat="38.778488562765126" lon="-9.425456016502936"><ele>372.0</ele><time>2026-03-29T10:25:11Z</time></trkpt><trkpt lat="38.77854838266177" lon="-9.425596034722536"><ele>372.0</ele><time>2026-03-29T10:25:12Z</time></trkpt><trkpt lat="38.77861501356095" lon="-9.425732074147794"><ele>371.0</ele><time>2026-03-29T10:25:13Z</time></trkpt><trkpt lat="38.77867167967813" lon="-9.425871096623258"><ele>370.0</ele><time>2026-03-29T10:25:14Z</time></trkpt><trkpt lat="38.7787049653299" lon="-9.426021160738058"><ele>369.0</ele><time>2026-03-29T10:25:15Z</time></trkpt><trkpt lat="38.77870853851275" lon="-9.426189372270319"><ele>368.0</ele><time>2026-03-29T10:25:16Z</time></trkpt><trkpt lat="38.77869733528676" lon="-9.426359225660448"><ele>368.0</ele><time>2026-03-29T10:25:17Z</time></trkpt><trkpt lat="38.77867468864057" lon="-9.426530167476047"><ele>368.0</ele><time>2026-03-29T10:25:18Z</time></trkpt><trkpt lat="38.77865355620754" lon="-9.426692823794902"><ele>368.0</ele><time>2026-03-29T10:25:19Z</time></trkpt><trkpt lat="38.77863342411293" lon="-9.426855439480445"><ele>368.0</ele><time>2026-03-29T10:25:20Z</time></trkpt><trkpt lat="38.778612589929054" lon="-9.427004720666394"><ele>368.25</ele><time>2026-03-29T10:25:21Z</time></trkpt><trkpt lat="38.77859431489082" lon="-9.42718913578407"><ele>368.5</ele><time>2026-03-29T10:25:22Z</time></trkpt><trkpt lat="38.77857605019342" lon="-9.427374092616429"><ele>368.75</ele><time>2026-03-29T10:25:23Z</time></trkpt><trkpt lat="38.77855605763624" lon="-9.42755609754042"><ele>369.0</ele><time>2026-03-29T10:25:24Z</time></trkpt><trkpt lat="38.7785321529315" lon="-9.427735941459698"><ele>368.75</ele><time>2026-03-29T10:25:25Z</time></trkpt><trkpt lat="38.77850522720532" lon="-9.4279013745071"><ele>368.5</ele><time>2026-03-29T10:25:26Z</time></trkpt><trkpt lat="38.778478240723885" lon="-9.4280540543946"><ele>368.25</ele><time>2026-03-29T10:25:27Z</time></trkpt><trkpt lat="38.77845899646369" lon="-9.4281992419319"><ele>368.0</ele><time>2026-03-29T10:25:28Z</time></trkpt><trkpt lat="38.77844547002299" lon="-9.428340230894134"><ele>368.0</ele><time>2026-03-29T10:25:29Z</time></trkpt><trkpt lat="38.7784750535188" lon="-9.428487209920188"><ele>368.0</ele><time>2026-03-29T10:25:30Z</time></trkpt><trkpt lat="38.778472897877386" lon="-9.428639675500369"><ele>368.0</ele><time>2026-03-29T10:25:31Z</time></trkpt><trkpt lat="38.778456468846336" lon="-9.428789816337508"><ele>368.0</ele><time>2026-03-29T10:25:32Z</time></trkpt><trkpt lat="38.778408129220814" lon="-9.42892051254452"><ele>368.79999999999995</ele><time>2026-03-29T10:25:33Z</time></trkpt><trkpt lat="38.77834256122945" lon="-9.42902736711388"><ele>369.6</ele><time>2026-03-29T10:25:34Z</time></trkpt><trkpt lat="38.77826376701286" lon="-9.429115127311006"><ele>370.4</ele><time>2026-03-29T10:25:35Z</time></trkpt><trkpt lat="38.778200925865924" lon="-9.429209089530895"><ele>371.20000000000005</ele><time>2026-03-29T10:25:36Z</time></trkpt><trkpt lat="38.77816187862403" lon="-9.429294743825848"><ele>372.0</ele><time>2026-03-29T10:25:37Z</time></trkpt><trkpt lat="38.778155765967455" lon="-9.429384947687756"><ele>372.0</ele><time>2026-03-29T10:25:38Z</time></trkpt><trkpt lat="38.7781680096541" lon="-9.429487769383288"><ele>372.0</ele><time>2026-03-29T10:25:39Z</time></trkpt><trkpt lat="38.77816718081695" lon="-9.429618647468988"><ele>372.0</ele><time>2026-03-29T10:25:40Z</time></trkpt><trkpt lat="38.77817647552415" lon="-9.429763509719766"><ele>372.0</ele><time>2026-03-29T10:25:41Z</time></trkpt><trkpt lat="38.77818309674648" lon="-9.429918493528062"><ele>372.0</ele><time>2026-03-29T10:25:42Z</time></trkpt><trkpt lat="38.778186990856064" lon="-9.430093929576381"><ele>372.5</ele><time>2026-03-29T10:25:43Z</time></trkpt><trkpt lat="38.77819251126514" lon="-9.430264801245889"><ele>373.0</ele><time>2026-03-29T10:25:44Z</time></trkpt><trkpt lat="38.778196224246834" lon="-9.430420032800773"><ele>373.5</ele><time>2026-03-29T10:25:45Z</time></trkpt><trkpt lat="38.77820234193873" lon="-9.430574132503544"><ele>374.0</ele><time>2026-03-29T10:25:46Z</time></trkpt><trkpt lat="38.77822230019459" lon="-9.430715080623571"><ele>373.0</ele><time>2026-03-29T10:25:47Z</time></trkpt><trkpt lat="38.77826373984697" lon="-9.43084453469578"><ele>372.0</ele><time>2026-03-29T10:25:48Z</time></trkpt><trkpt lat="38.778320326480426" lon="-9.430986216938354"><ele>371.0</ele><time>2026-03-29T10:25:49Z</time></trkpt><trkpt lat="38.77837011199167" lon="-9.431120365349493"><ele>370.0</ele><time>2026-03-29T10:25:50Z</time></trkpt><trkpt lat="38.778431034612005" lon="-9.431237811804746"><ele>368.6</ele><time>2026-03-29T10:25:51Z</time></trkpt><trkpt lat="38.77851140177383" lon="-9.431345893144325"><ele>367.2</ele><time>2026-03-29T10:25:52Z</time></trkpt><trkpt lat="38.77859476037404" lon="-9.431453744601994"><ele>365.79999999999995</ele><time>2026-03-29T10:25:53Z</time></trkpt><trkpt lat="38.77867132714648" lon="-9.431556377728329"><ele>364.4</ele><time>2026-03-29T10:25:54Z</time></trkpt><trkpt lat="38.77874429966101" lon="-9.431645731875426"><ele>363.0</ele><time>2026-03-29T10:25:55Z</time></trkpt><trkpt lat="38.77882197570602" lon="-9.431719632500826"><ele>363.0</ele><time>2026-03-29T10:25:56Z</time></trkpt><trkpt lat="38.77891927005815" lon="-9.43175607845404"><ele>363.0</ele><time>2026-03-29T10:25:57Z</time></trkpt><trkpt lat="38.77902743998894" lon="-9.431784708031275"><ele>363.0</ele><time>2026-03-29T10:25:58Z</time></trkpt><trkpt lat="38.77911941730365" lon="-9.431819968675537"><ele>363.0</ele><time>2026-03-29T10:25:59Z</time></trkpt><trkpt lat="38.77919501869568" lon="-9.431901861343603"><ele>363.0</ele><time>2026-03-29T10:26:00Z</time></trkpt><trkpt lat="38.77924596898341" lon="-9.432022014823131"><ele>363.0</ele><time>2026-03-29T10:26:01Z</time></trkpt><trkpt lat="38.779329637031125" lon="-9.43211683445048"><ele>363.0</ele><time>2026-03-29T10:26:02Z</time></trkpt><trkpt lat="38.77941046215704" lon="-9.432202739880378"><ele>363.0</ele><time>2026-03-29T10:26:03Z</time></trkpt><trkpt lat="38.779467601800086" lon="-9.432306751732273"><ele>363.0</ele><time>2026-03-29T10:26:04Z</time></trkpt><trkpt lat="38.77950624319282" lon="-9.432421733967933"><ele>363.0</ele><time>2026-03-29T10:26:05Z</time></trkpt><trkpt lat="38.77953276868241" lon="-9.432534402981393"><ele>363.0</ele><time>2026-03-29T10:26:06Z</time></trkpt><trkpt lat="38.77954201607909" lon="-9.432643662316856"><ele>363.0</ele><time>2026-03-29T10:26:07Z</time></trkpt><trkpt lat="38.779541506990164" lon="-9.432752735630642"><ele>363.0</ele><time>2026-03-29T10:26:08Z</time></trkpt><trkpt lat="38.77956753678513" lon="-9.432861077159181"><ele>363.0</ele><time>2026-03-29T10:26:09Z</time></trkpt><trkpt lat="38.77962116158505" lon="-9.4329700742494"><ele>363.0</ele><time>2026-03-29T10:26:10Z</time></trkpt><trkpt lat="38.77966468410795" lon="-9.43308797935856"><ele>361.59999999999997</ele><time>2026-03-29T10:26:11Z</time></trkpt><trkpt lat="38.77970976433996" lon="-9.433201331610137"><ele>360.2</ele><time>2026-03-29T10:26:12Z</time></trkpt><trkpt lat="38.779756600450646" lon="-9.433307387430812"><ele>358.8</ele><time>2026-03-29T10:26:13Z</time></trkpt><trkpt lat="38.77980179723264" lon="-9.4334137977509"><ele>357.4</ele><time>2026-03-29T10:26:14Z</time></trkpt><trkpt lat="38.77985962776186" lon="-9.43351395029938"><ele>356.0</ele><time>2026-03-29T10:26:15Z</time></trkpt><trkpt lat="38.77990979709104" lon="-9.43360877949557"><ele>356.0</ele><time>2026-03-29T10:26:16Z</time></trkpt><trkpt lat="38.779943188150654" lon="-9.43371179644592"><ele>356.0</ele><time>2026-03-29T10:26:17Z</time></trkpt><trkpt lat="38.77995381914369" lon="-9.433819927310843"><ele>356.0</ele><time>2026-03-29T10:26:18Z</time></trkpt><trkpt lat="38.779949532876785" lon="-9.433927181796662"><ele>356.0</ele><time>2026-03-29T10:26:19Z</time></trkpt><trkpt lat="38.77993407075998" lon="-9.434055547466663"><ele>356.0</ele><time>2026-03-29T10:26:21Z</time></trkpt><trkpt lat="38.779942863780214" lon="-9.434141823983083"><ele>356.0</ele><time>2026-03-29T10:26:23Z</time></trkpt><trkpt lat="38.77997006856197" lon="-9.434218096041946"><ele>356.1666666666667</ele><time>2026-03-29T10:26:59Z</time></trkpt><trkpt lat="38.78003689820242" lon="-9.434292342954711"><ele>356.33333333333337</ele><time>2026-03-29T10:27:01Z</time></trkpt><trkpt lat="38.780096892530686" lon="-9.43433065599306"><ele>356.5</ele><time>2026-03-29T10:27:02Z</time></trkpt><trkpt lat="38.780164608115726" lon="-9.43437477433801"><ele>356.6666666666667</ele><time>2026-03-29T10:27:03Z</time></trkpt><trkpt lat="38.78024004993402" lon="-9.434418406703417"><ele>356.8333333333333</ele><time>2026-03-29T10:27:04Z</time></trkpt><trkpt lat="38.78033145638236" lon="-9.434459933723085"><ele>357.0</ele><time>2026-03-29T10:27:05Z</time></trkpt><trkpt lat="38.780416590419776" lon="-9.434509308207291"><ele>357.0</ele><time>2026-03-29T10:27:06Z</time></trkpt><trkpt lat="38.780515999412955" lon="-9.434563525529056"><ele>357.0</ele><time>2026-03-29T10:27:07Z</time></trkpt><trkpt lat="38.78061322847644" lon="-9.434619215452791"><ele>357.0</ele><time>2026-03-29T10:27:08Z</time></trkpt><trkpt lat="38.78072271149216" lon="-9.434676442179597"><ele>357.0</ele><time>2026-03-29T10:27:09Z</time></trkpt><trkpt lat="38.780827439275384" lon="-9.434735796438886"><ele>357.0</ele><time>2026-03-29T10:27:10Z</time></trkpt><trkpt lat="38.78095166738102" lon="-9.434787060107418"><ele>354.25</ele><time>2026-03-29T10:27:11Z</time></trkpt><trkpt lat="38.781074844981845" lon="-9.434841433846849"><ele>351.5</ele><time>2026-03-29T10:27:12Z</time></trkpt><trkpt lat="38.78117759329555" lon="-9.434922568169236"><ele>348.75</ele><time>2026-03-29T10:27:13Z</time></trkpt><trkpt lat="38.78126494562295" lon="-9.435028941023935"><ele>346.0</ele><time>2026-03-29T10:27:14Z</time></trkpt><trkpt lat="38.78135042904621" lon="-9.435140807977453"><ele>346.0</ele><time>2026-03-29T10:27:15Z</time></trkpt><trkpt lat="38.78141963845932" lon="-9.43526443766605"><ele>346.0</ele><time>2026-03-29T10:27:16Z</time></trkpt><trkpt lat="38.78145311530266" lon="-9.43539042278068"><ele>346.0</ele><time>2026-03-29T10:27:17Z</time></trkpt><trkpt lat="38.78146744102442" lon="-9.435551016665372"><ele>346.0</ele><time>2026-03-29T10:27:18Z</time></trkpt><trkpt lat="38.78145452557578" lon="-9.435725968928468"><ele>346.25</ele><time>2026-03-29T10:27:19Z</time></trkpt><trkpt lat="38.78141369994673" lon="-9.435871440826446"><ele>346.5</ele><time>2026-03-29T10:27:20Z</time></trkpt><trkpt lat="38.78134494866141" lon="-9.435993937795237"><ele>346.75</ele><time>2026-03-29T10:27:21Z</time></trkpt><trkpt lat="38.781249939115" lon="-9.43608982929434"><ele>347.0</ele><time>2026-03-29T10:27:22Z</time></trkpt><trkpt lat="38.781157289418424" lon="-9.436198854231481"><ele>346.6</ele><time>2026-03-29T10:27:23Z</time></trkpt><trkpt lat="38.78108026918659" lon="-9.436313515983063"><ele>346.20000000000005</ele><time>2026-03-29T10:27:24Z</time></trkpt><trkpt lat="38.78101748306014" lon="-9.436437350011955"><ele>345.8</ele><time>2026-03-29T10:27:25Z</time></trkpt><trkpt lat="38.7810058465926" lon="-9.436560555403224"><ele>345.4</ele><time>2026-03-29T10:27:26Z</time></trkpt><trkpt lat="38.78101427978626" lon="-9.436679797079874"><ele>345.0</ele><time>2026-03-29T10:27:27Z</time></trkpt><trkpt lat="38.7810330696697" lon="-9.436787306408764"><ele>345.0</ele><time>2026-03-29T10:27:28Z</time></trkpt><trkpt lat="38.78107144185562" lon="-9.436896792274148"><ele>345.0</ele><time>2026-03-29T10:27:29Z</time></trkpt><trkpt lat="38.78112758185288" lon="-9.436992430028683"><ele>345.0</ele><time>2026-03-29T10:27:30Z</time></trkpt><trkpt lat="38.78118811068662" lon="-9.43709831021191"><ele>345.0</ele><time>2026-03-29T10:27:31Z</time></trkpt><trkpt lat="38.781270023071826" lon="-9.437183134613237"><ele>345.0</ele><time>2026-03-29T10:27:32Z</time></trkpt><trkpt lat="38.78136968520202" lon="-9.437230814131505"><ele>346.2</ele><time>2026-03-29T10:27:33Z</time></trkpt><trkpt lat="38.781470840211675" lon="-9.43728219156942"><ele>347.4</ele><time>2026-03-29T10:27:34Z</time></trkpt><trkpt lat="38.78157392607862" lon="-9.437327804758626"><ele>348.6</ele><time>2026-03-29T10:27:35Z</time></trkpt><trkpt lat="38.78167486027417" lon="-9.437349412841847"><ele>349.8</ele><time>2026-03-29T10:27:36Z</time></trkpt><trkpt lat="38.781765476611795" lon="-9.437410526242747"><ele>351.0</ele><time>2026-03-29T10:27:37Z</time></trkpt><trkpt lat="38.781846486243516" lon="-9.437490081662842"><ele>351.0</ele><time>2026-03-29T10:27:38Z</time></trkpt><trkpt lat="38.78189232356881" lon="-9.437589075890923"><ele>351.0</ele><time>2026-03-29T10:27:39Z</time></trkpt><trkpt lat="38.78190900618303" lon="-9.437708195351442"><ele>351.0</ele><time>2026-03-29T10:27:40Z</time></trkpt><trkpt lat="38.78189124814846" lon="-9.437838882096571"><ele>351.0</ele><time>2026-03-29T10:27:41Z</time></trkpt><trkpt lat="38.78185259176523" lon="-9.437979916752113"><ele>351.0</ele><time>2026-03-29T10:27:42Z</time></trkpt><trkpt lat="38.78180694262629" lon="-9.438118834105337"><ele>352.6</ele><time>2026-03-29T10:27:43Z</time></trkpt><trkpt lat="38.78176349803117" lon="-9.438236369206546"><ele>354.20000000000005</ele><time>2026-03-29T10:27:44Z</time></trkpt><trkpt lat="38.781739960725794" lon="-9.438352873362536"><ele>355.79999999999995</ele><time>2026-03-29T10:27:45Z</time></trkpt><trkpt lat="38.781736343287626" lon="-9.438482714731247"><ele>357.4</ele><time>2026-03-29T10:27:46Z</time></trkpt><trkpt lat="38.7817774499532" lon="-9.43860949157453"><ele>359.0</ele><time>2026-03-29T10:27:47Z</time></trkpt><trkpt lat="38.78179856190724" lon="-9.438752747428554"><ele>357.75</ele><time>2026-03-29T10:27:48Z</time></trkpt><trkpt lat="38.78180404254436" lon="-9.438898523146785"><ele>356.5</ele><time>2026-03-29T10:27:49Z</time></trkpt><trkpt lat="38.781786872571644" lon="-9.439052493024919"><ele>355.25</ele><time>2026-03-29T10:27:50Z</time></trkpt><trkpt lat="38.78178996463659" lon="-9.439200840480728"><ele>354.0</ele><time>2026-03-29T10:27:51Z</time></trkpt><trkpt lat="38.78178534795591" lon="-9.439333315791535"><ele>354.0</ele><time>2026-03-29T10:27:52Z</time></trkpt><trkpt lat="38.7817844883946" lon="-9.439460376998571"><ele>354.0</ele><time>2026-03-29T10:27:53Z</time></trkpt><trkpt lat="38.78180660104715" lon="-9.4395819314942"><ele>354.0</ele><time>2026-03-29T10:27:54Z</time></trkpt><trkpt lat="38.781853354966614" lon="-9.439700860130822"><ele>354.0</ele><time>2026-03-29T10:27:55Z</time></trkpt><trkpt lat="38.781933817769776" lon="-9.439779590007666"><ele>354.0</ele><time>2026-03-29T10:27:56Z</time></trkpt><trkpt lat="38.781962491224206" lon="-9.43985743311496"><ele>351.4</ele><time>2026-03-29T10:27:57Z</time></trkpt><trkpt lat="38.78199280587513" lon="-9.439939667112023"><ele>348.79999999999995</ele><time>2026-03-29T10:27:58Z</time></trkpt><trkpt lat="38.78199862475527" lon="-9.440048325030283"><ele>346.20000000000005</ele><time>2026-03-29T10:27:59Z</time></trkpt><trkpt lat="38.781974684377694" lon="-9.440169619085864"><ele>343.6</ele><time>2026-03-29T10:28:00Z</time></trkpt><trkpt lat="38.781929072490676" lon="-9.440303739759164"><ele>341.0</ele><time>2026-03-29T10:28:01Z</time></trkpt><trkpt lat="38.78187536841907" lon="-9.440429197808625"><ele>343.20000000000005</ele><time>2026-03-29T10:28:02Z</time></trkpt><trkpt lat="38.781823932549166" lon="-9.440568595470712"><ele>345.40000000000003</ele><time>2026-03-29T10:28:03Z</time></trkpt><trkpt lat="38.781767671382646" lon="-9.440702061298646"><ele>347.6</ele><time>2026-03-29T10:28:04Z</time></trkpt><trkpt lat="38.781720325675515" lon="-9.440813727111761"><ele>349.8</ele><time>2026-03-29T10:28:05Z</time></trkpt><trkpt lat="38.781688215744126" lon="-9.440927021436828"><ele>352.0</ele><time>2026-03-29T10:28:06Z</time></trkpt><trkpt lat="38.781688134872546" lon="-9.441052402159738"><ele>352.0</ele><time>2026-03-29T10:28:07Z</time></trkpt><trkpt lat="38.78168736405118" lon="-9.441185452361447"><ele>352.0</ele><time>2026-03-29T10:28:08Z</time></trkpt><trkpt lat="38.781677844082594" lon="-9.441329797928454"><ele>352.0</ele><time>2026-03-29T10:28:09Z</time></trkpt><trkpt lat="38.78167823191534" lon="-9.441477554104965"><ele>352.0</ele><time>2026-03-29T10:28:10Z</time></trkpt><trkpt lat="38.78167752250115" lon="-9.441627424265182"><ele>352.0</ele><time>2026-03-29T10:28:11Z</time></trkpt><trkpt lat="38.78166808674238" lon="-9.441781257771169"><ele>352.25</ele><time>2026-03-29T10:28:12Z</time></trkpt><trkpt lat="38.781636808930884" lon="-9.441937061317365"><ele>352.5</ele><time>2026-03-29T10:28:13Z</time></trkpt><trkpt lat="38.781594973032156" lon="-9.442082251672627"><ele>352.75</ele><time>2026-03-29T10:28:14Z</time></trkpt><trkpt lat="38.781543917251426" lon="-9.44221629887856"><ele>353.0</ele><time>2026-03-29T10:28:15Z</time></trkpt><trkpt lat="38.781490336252816" lon="-9.442338261488395"><ele>351.0</ele><time>2026-03-29T10:28:16Z</time></trkpt><trkpt lat="38.78141603643711" lon="-9.442437433447965"><ele>349.0</ele><time>2026-03-29T10:28:17Z</time></trkpt><trkpt lat="38.781324181217435" lon="-9.442508596845302"><ele>347.0</ele><time>2026-03-29T10:28:18Z</time></trkpt><trkpt lat="38.78123486470778" lon="-9.44257458333112"><ele>345.0</ele><time>2026-03-29T10:28:19Z</time></trkpt><trkpt lat="38.7811525770066" lon="-9.442635165751772"><ele>343.0</ele><time>2026-03-29T10:28:20Z</time></trkpt><trkpt lat="38.78106269490819" lon="-9.442690682620762"><ele>344.4</ele><time>2026-03-29T10:28:21Z</time></trkpt><trkpt lat="38.78097487224212" lon="-9.442737206138583"><ele>345.79999999999995</ele><time>2026-03-29T10:28:22Z</time></trkpt><trkpt lat="38.78089937122786" lon="-9.442815091481444"><ele>347.2</ele><time>2026-03-29T10:28:23Z</time></trkpt><trkpt lat="38.78082221286077" lon="-9.442878834922752"><ele>348.6</ele><time>2026-03-29T10:28:24Z</time></trkpt><trkpt lat="38.7807516796986" lon="-9.442943318035052"><ele>350.0</ele><time>2026-03-29T10:28:25Z</time></trkpt><trkpt lat="38.78068734610634" lon="-9.443014355329723"><ele>350.0</ele><time>2026-03-29T10:28:26Z</time></trkpt><trkpt lat="38.78063430894104" lon="-9.443095209896528"><ele>350.0</ele><time>2026-03-29T10:28:27Z</time></trkpt><trkpt lat="38.780605520633976" lon="-9.443192650568704"><ele>350.0</ele><time>2026-03-29T10:28:28Z</time></trkpt><trkpt lat="38.780602126986025" lon="-9.443306719752965"><ele>350.0</ele><time>2026-03-29T10:28:29Z</time></trkpt><trkpt lat="38.780603164070406" lon="-9.443409269001295"><ele>350.0</ele><time>2026-03-29T10:28:30Z</time></trkpt><trkpt lat="38.78061099936273" lon="-9.443523931587615"><ele>350.0</ele><time>2026-03-29T10:28:31Z</time></trkpt><trkpt lat="38.78061625116339" lon="-9.443651391948656"><ele>350.0</ele><time>2026-03-29T10:28:32Z</time></trkpt><trkpt lat="38.78061555180409" lon="-9.443784163523341"><ele>350.0</ele><time>2026-03-29T10:28:33Z</time></trkpt><trkpt lat="38.78060724783254" lon="-9.443901154643337"><ele>350.0</ele><time>2026-03-29T10:28:34Z</time></trkpt><trkpt lat="38.78059036863492" lon="-9.444012133315086"><ele>350.0</ele><time>2026-03-29T10:28:35Z</time></trkpt><trkpt lat="38.78058534497796" lon="-9.444125752241945"><ele>350.0</ele><time>2026-03-29T10:28:36Z</time></trkpt><trkpt lat="38.780569680696416" lon="-9.444233237088035"><ele>352.0</ele><time>2026-03-29T10:28:37Z</time></trkpt><trkpt lat="38.780569024762926" lon="-9.444332160686288"><ele>354.0</ele><time>2026-03-29T10:28:38Z</time></trkpt><trkpt lat="38.7806042286594" lon="-9.444421891215674"><ele>356.0</ele><time>2026-03-29T10:28:39Z</time></trkpt><trkpt lat="38.78068223562792" lon="-9.44446848331007"><ele>358.0</ele><time>2026-03-29T10:28:40Z</time></trkpt><trkpt lat="38.78076211163417" lon="-9.444485846459788"><ele>360.0</ele><time>2026-03-29T10:28:41Z</time></trkpt><trkpt lat="38.78086058639419" lon="-9.444504672495745"><ele>362.0</ele><time>2026-03-29T10:28:42Z</time></trkpt><trkpt lat="38.78096992618767" lon="-9.4445311410136"><ele>362.25</ele><time>2026-03-29T10:28:43Z</time></trkpt><trkpt lat="38.78108272290558" lon="-9.444553299371153"><ele>362.5</ele><time>2026-03-29T10:28:44Z</time></trkpt><trkpt lat="38.78119898844311" lon="-9.444585722953033"><ele>362.75</ele><time>2026-03-29T10:28:45Z</time></trkpt><trkpt lat="38.78131267462041" lon="-9.44462978159529"><ele>363.0</ele><time>2026-03-29T10:28:46Z</time></trkpt><trkpt lat="38.78142470318148" lon="-9.444673410446905"><ele>363.0</ele><time>2026-03-29T10:28:47Z</time></trkpt><trkpt lat="38.78152628820674" lon="-9.44471736544092"><ele>363.0</ele><time>2026-03-29T10:28:48Z</time></trkpt><trkpt lat="38.78161931535522" lon="-9.444773564114902"><ele>363.0</ele><time>2026-03-29T10:28:49Z</time></trkpt><trkpt lat="38.7817041568459" lon="-9.44485108410647"><ele>363.0</ele><time>2026-03-29T10:28:50Z</time></trkpt><trkpt lat="38.78177887144381" lon="-9.44494360910697"><ele>363.0</ele><time>2026-03-29T10:28:51Z</time></trkpt><trkpt lat="38.78185271686974" lon="-9.445058258780476"><ele>361.25</ele><time>2026-03-29T10:28:52Z</time></trkpt><trkpt lat="38.78193144320135" lon="-9.445173741855248"><ele>359.5</ele><time>2026-03-29T10:28:53Z</time></trkpt><trkpt lat="38.78201135574337" lon="-9.445304623567331"><ele>357.75</ele><time>2026-03-29T10:28:54Z</time></trkpt><trkpt lat="38.78209486901718" lon="-9.445433072363208"><ele>356.0</ele><time>2026-03-29T10:28:55Z</time></trkpt><trkpt lat="38.782189139639065" lon="-9.445575870323854"><ele>356.0</ele><time>2026-03-29T10:28:56Z</time></trkpt><trkpt lat="38.78228899771905" lon="-9.445706724481399"><ele>356.0</ele><time>2026-03-29T10:28:57Z</time></trkpt><trkpt lat="38.782386539187534" lon="-9.445859215981082"><ele>356.0</ele><time>2026-03-29T10:28:58Z</time></trkpt><trkpt lat="38.78248977391325" lon="-9.446016652061203"><ele>356.0</ele><time>2026-03-29T10:28:59Z</time></trkpt><trkpt lat="38.78259130968844" lon="-9.446176976207536"><ele>356.0</ele><time>2026-03-29T10:29:00Z</time></trkpt><trkpt lat="38.782692176438864" lon="-9.446329121295117"><ele>356.0</ele><time>2026-03-29T10:29:01Z</time></trkpt><trkpt lat="38.78278797701962" lon="-9.446468659385383"><ele>355.25</ele><time>2026-03-29T10:29:02Z</time></trkpt><trkpt lat="38.78288279449706" lon="-9.446587602924387"><ele>354.5</ele><time>2026-03-29T10:29:03Z</time></trkpt><trkpt lat="38.78297365009831" lon="-9.446714664760167"><ele>353.75</ele><time>2026-03-29T10:29:04Z</time></trkpt><trkpt lat="38.783054920510665" lon="-9.446831284523647"><ele>353.0</ele><time>2026-03-29T10:29:05Z</time></trkpt><trkpt lat="38.78312319973802" lon="-9.446936601780473"><ele>353.0</ele><time>2026-03-29T10:29:06Z</time></trkpt><trkpt lat="38.78318855531425" lon="-9.447032591688048"><ele>353.0</ele><time>2026-03-29T10:29:07Z</time></trkpt><trkpt lat="38.78326179840407" lon="-9.44712997121037"><ele>353.0</ele><time>2026-03-29T10:29:08Z</time></trkpt><trkpt lat="38.78333854713993" lon="-9.447236032283651"><ele>353.0</ele><time>2026-03-29T10:29:09Z</time></trkpt><trkpt lat="38.78341440641769" lon="-9.44734002447058"><ele>353.0</ele><time>2026-03-29T10:29:10Z</time></trkpt><trkpt lat="38.78348870546978" lon="-9.447440283513993"><ele>351.33333333333337</ele><time>2026-03-29T10:29:11Z</time></trkpt><trkpt lat="38.78355889232373" lon="-9.447524151463123"><ele>349.6666666666667</ele><time>2026-03-29T10:29:12Z</time></trkpt><trkpt lat="38.78362578867778" lon="-9.447602733066804"><ele>348.0</ele><time>2026-03-29T10:29:13Z</time></trkpt><trkpt lat="38.78368532681412" lon="-9.447668853522627"><ele>346.3333333333333</ele><time>2026-03-29T10:29:14Z</time></trkpt><trkpt lat="38.783753757920856" lon="-9.447740685083918"><ele>344.66666666666663</ele><time>2026-03-29T10:29:15Z</time></trkpt><trkpt lat="38.78382145238971" lon="-9.447825116686461"><ele>343.0</ele><time>2026-03-29T10:29:16Z</time></trkpt><trkpt lat="38.7839008837032" lon="-9.447918113216101"><ele>344.25</ele><time>2026-03-29T10:29:17Z</time></trkpt><trkpt lat="38.78398768400346" lon="-9.448011968874503"><ele>345.5</ele><time>2026-03-29T10:29:18Z</time></trkpt><trkpt lat="38.78407734358949" lon="-9.448104375308437"><ele>346.75</ele><time>2026-03-29T10:29:19Z</time></trkpt><trkpt lat="38.78418992907493" lon="-9.448174015986275"><ele>348.0</ele><time>2026-03-29T10:29:20Z</time></trkpt><trkpt lat="38.78429318377946" lon="-9.448254165300096"><ele>346.0</ele><time>2026-03-29T10:29:21Z</time></trkpt><trkpt lat="38.78438134111707" lon="-9.448300944038683"><ele>344.0</ele><time>2026-03-29T10:29:22Z</time></trkpt><trkpt lat="38.78444662000548" lon="-9.448269538972108"><ele>342.0</ele><time>2026-03-29T10:29:30Z</time></trkpt><trkpt lat="38.784523976023046" lon="-9.44836451234167"><ele>340.0</ele><time>2026-03-29T10:33:56Z</time></trkpt><trkpt lat="38.784581120366795" lon="-9.448403964934558"><ele>338.0</ele><time>2026-03-29T10:33:57Z</time></trkpt><trkpt lat="38.7846578795207" lon="-9.448451228117724"><ele>336.0</ele><time>2026-03-29T10:33:58Z</time></trkpt><trkpt lat="38.78473528669884" lon="-9.44852447744737"><ele>336.0</ele><time>2026-03-29T10:33:59Z</time></trkpt><trkpt lat="38.784819797846104" lon="-9.448591069155887"><ele>336.0</ele><time>2026-03-29T10:34:00Z</time></trkpt><trkpt lat="38.784911345983744" lon="-9.44867549044868"><ele>336.0</ele><time>2026-03-29T10:34:01Z</time></trkpt><trkpt lat="38.784977574109604" lon="-9.44878720030442"><ele>336.0</ele><time>2026-03-29T10:34:02Z</time></trkpt><trkpt lat="38.78501542734366" lon="-9.448897793627102"><ele>336.0</ele><time>2026-03-29T10:34:03Z</time></trkpt><trkpt lat="38.785025892882295" lon="-9.449025222322845"><ele>337.20000000000005</ele><time>2026-03-29T10:34:04Z</time></trkpt><trkpt lat="38.78503266393784" lon="-9.449156355936632"><ele>338.40000000000003</ele><time>2026-03-29T10:34:05Z</time></trkpt><trkpt lat="38.78502180044288" lon="-9.449261632384115"><ele>339.6</ele><time>2026-03-29T10:34:06Z</time></trkpt><trkpt lat="38.784998050316084" lon="-9.449374445906768"><ele>340.8</ele><time>2026-03-29T10:34:07Z</time></trkpt><trkpt lat="38.78493693709131" lon="-9.449501773053518"><ele>342.0</ele><time>2026-03-29T10:34:08Z</time></trkpt><trkpt lat="38.78487333837768" lon="-9.44962131037811"><ele>341.6</ele><time>2026-03-29T10:34:09Z</time></trkpt><trkpt lat="38.784803044404" lon="-9.449725245071425"><ele>341.20000000000005</ele><time>2026-03-29T10:34:10Z</time></trkpt><trkpt lat="38.78472582055731" lon="-9.449826262288752"><ele>340.8</ele><time>2026-03-29T10:34:11Z</time></trkpt><trkpt lat="38.78464128198346" lon="-9.449909840867953"><ele>340.4</ele><time>2026-03-29T10:34:12Z</time></trkpt><trkpt lat="38.78455410596752" lon="-9.44996800597636"><ele>340.0</ele><time>2026-03-29T10:34:13Z</time></trkpt><trkpt lat="38.78444101462913" lon="-9.450015861457496"><ele>340.75</ele><time>2026-03-29T10:34:14Z</time></trkpt><trkpt lat="38.7843094243332" lon="-9.450053041838562"><ele>341.5</ele><time>2026-03-29T10:34:15Z</time></trkpt><trkpt lat="38.78418829089617" lon="-9.450085855731993"><ele>342.25</ele><time>2026-03-29T10:34:16Z</time></trkpt><trkpt lat="38.78408197520317" lon="-9.450120095369"><ele>343.0</ele><time>2026-03-29T10:34:17Z</time></trkpt><trkpt lat="38.783980487641955" lon="-9.450156628629832"><ele>343.0</ele><time>2026-03-29T10:34:18Z</time></trkpt><trkpt lat="38.783883566714835" lon="-9.450197817154297"><ele>343.0</ele><time>2026-03-29T10:34:19Z</time></trkpt><trkpt lat="38.78377543365835" lon="-9.45023773516247"><ele>343.0</ele><time>2026-03-29T10:34:20Z</time></trkpt><trkpt lat="38.78366494325164" lon="-9.450282935143443"><ele>343.0</ele><time>2026-03-29T10:34:21Z</time></trkpt><trkpt lat="38.78356227655003" lon="-9.45036493105373"><ele>339.5</ele><time>2026-03-29T10:34:22Z</time></trkpt><trkpt lat="38.7834809086514" lon="-9.450470945765439"><ele>336.0</ele><time>2026-03-29T10:34:23Z</time></trkpt><trkpt lat="38.78339144539531" lon="-9.4505932688602"><ele>332.5</ele><time>2026-03-29T10:34:24Z</time></trkpt><trkpt lat="38.78330477106341" lon="-9.450721792148705"><ele>329.0</ele><time>2026-03-29T10:34:25Z</time></trkpt><trkpt lat="38.78321184049157" lon="-9.450856214826338"><ele>329.0</ele><time>2026-03-29T10:34:26Z</time></trkpt><trkpt lat="38.78312886465087" lon="-9.450973460912913"><ele>329.0</ele><time>2026-03-29T10:34:27Z</time></trkpt><trkpt lat="38.7830537829096" lon="-9.45107955251345"><ele>329.0</ele><time>2026-03-29T10:34:28Z</time></trkpt><trkpt lat="38.782984605662556" lon="-9.451184568096828"><ele>329.0</ele><time>2026-03-29T10:34:29Z</time></trkpt><trkpt lat="38.78293832262969" lon="-9.45129603608059"><ele>329.0</ele><time>2026-03-29T10:34:30Z</time></trkpt><trkpt lat="38.78291867661433" lon="-9.451413355336213"><ele>327.33333333333337</ele><time>2026-03-29T10:34:31Z</time></trkpt><trkpt lat="38.782931013698594" lon="-9.451528078521902"><ele>325.6666666666667</ele><time>2026-03-29T10:34:32Z</time></trkpt><trkpt lat="38.782964239296014" lon="-9.451650221324522"><ele>324.0</ele><time>2026-03-29T10:34:33Z</time></trkpt><trkpt lat="38.78301235498732" lon="-9.451765798529152"><ele>322.3333333333333</ele><time>2026-03-29T10:34:34Z</time></trkpt><trkpt lat="38.78305026074105" lon="-9.451856155541286"><ele>320.66666666666663</ele><time>2026-03-29T10:34:35Z</time></trkpt><trkpt lat="38.78307361247929" lon="-9.451931412932923"><ele>319.0</ele><time>2026-03-29T10:34:37Z</time></trkpt><trkpt lat="38.7831543011849" lon="-9.452089880934352"><ele>319.75</ele><time>2026-03-29T10:34:47Z</time></trkpt><trkpt lat="38.78320050188859" lon="-9.452198265159424"><ele>320.5</ele><time>2026-03-29T10:34:48Z</time></trkpt><trkpt lat="38.783256012250604" lon="-9.452329659147972"><ele>321.25</ele><time>2026-03-29T10:34:49Z</time></trkpt><trkpt lat="38.783321736133615" lon="-9.452480800412443"><ele>322.0</ele><time>2026-03-29T10:34:50Z</time></trkpt><trkpt lat="38.78337412654991" lon="-9.452617026206708"><ele>322.0</ele><time>2026-03-29T10:34:51Z</time></trkpt><trkpt lat="38.78343201472358" lon="-9.45275125897679"><ele>322.0</ele><time>2026-03-29T10:34:52Z</time></trkpt><trkpt lat="38.78349021463872" lon="-9.452895264328555"><ele>322.0</ele><time>2026-03-29T10:34:53Z</time></trkpt><trkpt lat="38.78352979088897" lon="-9.453024950900925"><ele>322.0</ele><time>2026-03-29T10:34:54Z</time></trkpt><trkpt lat="38.78354428478579" lon="-9.453162553499814"><ele>323.5</ele><time>2026-03-29T10:34:55Z</time></trkpt><trkpt lat="38.7835226642112" lon="-9.45331049488228"><ele>325.0</ele><time>2026-03-29T10:34:56Z</time></trkpt><trkpt lat="38.78348038432222" lon="-9.453455868633"><ele>326.5</ele><time>2026-03-29T10:34:57Z</time></trkpt><trkpt lat="38.7834204191403" lon="-9.453598590118952"><ele>328.0</ele><time>2026-03-29T10:34:58Z</time></trkpt><trkpt lat="38.78333659093682" lon="-9.453719488120848"><ele>322.5</ele><time>2026-03-29T10:34:59Z</time></trkpt><trkpt lat="38.78323105239512" lon="-9.453823319867697"><ele>317.0</ele><time>2026-03-29T10:35:00Z</time></trkpt><trkpt lat="38.78312491710722" lon="-9.453890651204912"><ele>311.5</ele><time>2026-03-29T10:35:01Z</time></trkpt><trkpt lat="38.78300399005851" lon="-9.453916771241774"><ele>306.0</ele><time>2026-03-29T10:35:02Z</time></trkpt><trkpt lat="38.782877667423854" lon="-9.453926753982229"><ele>306.0</ele><time>2026-03-29T10:35:03Z</time></trkpt><trkpt lat="38.78276207319443" lon="-9.453916051069879"><ele>306.0</ele><time>2026-03-29T10:35:04Z</time></trkpt><trkpt lat="38.78263641229717" lon="-9.453922323922553"><ele>306.0</ele><time>2026-03-29T10:35:05Z</time></trkpt><trkpt lat="38.78252073924093" lon="-9.453984608920633"><ele>306.0</ele><time>2026-03-29T10:35:06Z</time></trkpt><trkpt lat="38.78242197192663" lon="-9.454032890945959"><ele>311.20000000000005</ele><time>2026-03-29T10:35:07Z</time></trkpt><trkpt lat="38.78232994500968" lon="-9.454085320360914"><ele>316.40000000000003</ele><time>2026-03-29T10:35:08Z</time></trkpt><trkpt lat="38.782261259264445" lon="-9.454133860467575"><ele>321.6</ele><time>2026-03-29T10:35:09Z</time></trkpt><trkpt lat="38.78221943949649" lon="-9.454223111910226"><ele>326.8</ele><time>2026-03-29T10:35:10Z</time></trkpt><trkpt lat="38.78220707201796" lon="-9.454357110635247"><ele>332.0</ele><time>2026-03-29T10:35:11Z</time></trkpt><trkpt lat="38.782218554055774" lon="-9.454504899508514"><ele>327.25</ele><time>2026-03-29T10:35:12Z</time></trkpt><trkpt lat="38.78227021810002" lon="-9.454624081598123"><ele>322.5</ele><time>2026-03-29T10:35:13Z</time></trkpt><trkpt lat="38.782378558866114" lon="-9.454696103899952"><ele>317.75</ele><time>2026-03-29T10:35:14Z</time></trkpt><trkpt lat="38.782508810746535" lon="-9.454798872395044"><ele>313.0</ele><time>2026-03-29T10:35:15Z</time></trkpt><trkpt lat="38.782635850350545" lon="-9.454908900579722"><ele>307.66666666666663</ele><time>2026-03-29T10:35:16Z</time></trkpt><trkpt lat="38.78276054616334" lon="-9.455018871488521"><ele>302.3333333333333</ele><time>2026-03-29T10:35:17Z</time></trkpt><trkpt lat="38.78288123977111" lon="-9.455139575868811"><ele>297.0</ele><time>2026-03-29T10:35:18Z</time></trkpt><trkpt lat="38.78302505209084" lon="-9.455251864492743"><ele>297.0</ele><time>2026-03-29T10:35:19Z</time></trkpt><trkpt lat="38.7832020199562" lon="-9.45532313362699"><ele>297.0</ele><time>2026-03-29T10:35:20Z</time></trkpt><trkpt lat="38.78338969661621" lon="-9.45539273619091"><ele>297.0</ele><time>2026-03-29T10:35:21Z</time></trkpt><trkpt lat="38.78358584493256" lon="-9.455442634152858"><ele>297.0</ele><time>2026-03-29T10:35:22Z</time></trkpt><trkpt lat="38.78376783230214" lon="-9.455463447551507"><ele>297.0</ele><time>2026-03-29T10:35:23Z</time></trkpt><trkpt lat="38.78393538163227" lon="-9.455476694642128"><ele>297.0</ele><time>2026-03-29T10:35:24Z</time></trkpt><trkpt lat="38.78408923756607" lon="-9.455451861320588"><ele>297.0</ele><time>2026-03-29T10:35:25Z</time></trkpt><trkpt lat="38.784222005457316" lon="-9.45543490903344"><ele>297.0</ele><time>2026-03-29T10:35:26Z</time></trkpt><trkpt lat="38.7843478426016" lon="-9.455431447815029"><ele>297.0</ele><time>2026-03-29T10:35:27Z</time></trkpt><trkpt lat="38.784468061034445" lon="-9.455433565558103"><ele>297.0</ele><time>2026-03-29T10:35:28Z</time></trkpt><trkpt lat="38.784593675298446" lon="-9.455466593279695"><ele>296.4</ele><time>2026-03-29T10:35:29Z</time></trkpt><trkpt lat="38.78471121683442" lon="-9.455495074209495"><ele>295.79999999999995</ele><time>2026-03-29T10:35:30Z</time></trkpt><trkpt lat="38.7848187461487" lon="-9.455528289514694"><ele>295.2</ele><time>2026-03-29T10:35:31Z</time></trkpt><trkpt lat="38.78491523680422" lon="-9.455577863081015"><ele>294.59999999999997</ele><time>2026-03-29T10:35:32Z</time></trkpt><trkpt lat="38.78500117416013" lon="-9.455666333848333"><ele>294.0</ele><time>2026-03-29T10:35:33Z</time></trkpt><trkpt lat="38.785071014135056" lon="-9.455770608979776"><ele>294.0</ele><time>2026-03-29T10:35:34Z</time></trkpt><trkpt lat="38.785136906546185" lon="-9.455864843781352"><ele>294.0</ele><time>2026-03-29T10:35:35Z</time></trkpt><trkpt lat="38.78522096910752" lon="-9.455946836182761"><ele>294.0</ele><time>2026-03-29T10:35:36Z</time></trkpt><trkpt lat="38.785316405116134" lon="-9.455996973949468"><ele>294.0</ele><time>2026-03-29T10:35:37Z</time></trkpt><trkpt lat="38.78541337235652" lon="-9.456001491555385"><ele>294.0</ele><time>2026-03-29T10:35:38Z</time></trkpt><trkpt lat="38.78552574893567" lon="-9.45602003551836"><ele>291.75</ele><time>2026-03-29T10:35:39Z</time></trkpt><trkpt lat="38.785632362686805" lon="-9.456039753773338"><ele>289.5</ele><time>2026-03-29T10:35:40Z</time></trkpt><trkpt lat="38.78574469117935" lon="-9.456060528974243"><ele>287.25</ele><time>2026-03-29T10:35:41Z</time></trkpt><trkpt lat="38.78586094136288" lon="-9.45609360982139"><ele>285.0</ele><time>2026-03-29T10:35:42Z</time></trkpt><trkpt lat="38.78597032549743" lon="-9.456120131137165"><ele>284.4</ele><time>2026-03-29T10:35:43Z</time></trkpt><trkpt lat="38.78606792998199" lon="-9.456180638567513"><ele>283.8</ele><time>2026-03-29T10:35:44Z</time></trkpt><trkpt lat="38.78614189703791" lon="-9.456275193374225"><ele>283.2</ele><time>2026-03-29T10:35:45Z</time></trkpt><trkpt lat="38.786199126438426" lon="-9.456379613386892"><ele>282.6</ele><time>2026-03-29T10:35:46Z</time></trkpt><trkpt lat="38.78626043261822" lon="-9.45647940400131"><ele>282.0</ele><time>2026-03-29T10:35:47Z</time></trkpt><trkpt lat="38.78632939693522" lon="-9.456569713939228"><ele>282.0</ele><time>2026-03-29T10:35:48Z</time></trkpt><trkpt lat="38.78639232144872" lon="-9.45665833630396"><ele>282.0</ele><time>2026-03-29T10:35:49Z</time></trkpt><trkpt lat="38.78645584484845" lon="-9.456751037844466"><ele>282.0</ele><time>2026-03-29T10:35:50Z</time></trkpt><trkpt lat="38.786538731201226" lon="-9.456827764117147"><ele>282.0</ele><time>2026-03-29T10:35:51Z</time></trkpt><trkpt lat="38.78664243704751" lon="-9.456835956156866"><ele>282.0</ele><time>2026-03-29T10:35:52Z</time></trkpt><trkpt lat="38.78674662939752" lon="-9.456807045768878"><ele>282.0</ele><time>2026-03-29T10:35:53Z</time></trkpt><trkpt lat="38.786838316202385" lon="-9.456748054839942"><ele>282.0</ele><time>2026-03-29T10:35:54Z</time></trkpt><trkpt lat="38.78689876441493" lon="-9.456648079858974"><ele>282.0</ele><time>2026-03-29T10:35:55Z</time></trkpt><trkpt lat="38.78697631478316" lon="-9.45653632749032"><ele>282.0</ele><time>2026-03-29T10:35:56Z</time></trkpt><trkpt lat="38.78706679339518" lon="-9.456414580088822"><ele>282.0</ele><time>2026-03-29T10:35:57Z</time></trkpt><trkpt lat="38.78714343869778" lon="-9.456278361119958"><ele>279.5</ele><time>2026-03-29T10:35:58Z</time></trkpt><trkpt lat="38.7872130056583" lon="-9.456159700340006"><ele>277.0</ele><time>2026-03-29T10:35:59Z</time></trkpt><trkpt lat="38.7872853757115" lon="-9.456054405628674"><ele>274.5</ele><time>2026-03-29T10:36:00Z</time></trkpt><trkpt lat="38.78737878348419" lon="-9.455975279661711"><ele>272.0</ele><time>2026-03-29T10:36:01Z</time></trkpt><trkpt lat="38.78748738851671" lon="-9.455936848608903"><ele>272.0</ele><time>2026-03-29T10:36:02Z</time></trkpt><trkpt lat="38.78761183496434" lon="-9.455928951519327"><ele>272.0</ele><time>2026-03-29T10:36:03Z</time></trkpt><trkpt lat="38.787725666919066" lon="-9.455959292814105"><ele>272.0</ele><time>2026-03-29T10:36:04Z</time></trkpt><trkpt lat="38.78781932200244" lon="-9.45601262266107"><ele>272.0</ele><time>2026-03-29T10:36:05Z</time></trkpt><trkpt lat="38.787914470550376" lon="-9.456044872248553"><ele>272.0</ele><time>2026-03-29T10:36:06Z</time></trkpt><trkpt lat="38.788012430014334" lon="-9.456062393410907"><ele>270.2</ele><time>2026-03-29T10:36:07Z</time></trkpt><trkpt lat="38.7881274937014" lon="-9.456084940809767"><ele>268.4</ele><time>2026-03-29T10:36:08Z</time></trkpt><trkpt lat="38.78821879272368" lon="-9.45613323438137"><ele>266.6</ele><time>2026-03-29T10:36:09Z</time></trkpt><trkpt lat="38.78829546348226" lon="-9.456191972339013"><ele>264.8</ele><time>2026-03-29T10:36:10Z</time></trkpt><trkpt lat="38.78839587923216" lon="-9.456272804059799"><ele>263.0</ele><time>2026-03-29T10:36:11Z</time></trkpt><trkpt lat="38.78852323475878" lon="-9.456347081390255"><ele>262.75</ele><time>2026-03-29T10:36:12Z</time></trkpt><trkpt lat="38.78865272420292" lon="-9.4564225823958"><ele>262.5</ele><time>2026-03-29T10:36:13Z</time></trkpt><trkpt lat="38.7887692694562" lon="-9.456481587725623"><ele>262.25</ele><time>2026-03-29T10:36:14Z</time></trkpt><trkpt lat="38.78889065870721" lon="-9.456531670684413"><ele>262.0</ele><time>2026-03-29T10:36:15Z</time></trkpt><trkpt lat="38.789012355592156" lon="-9.45658928442132"><ele>262.0</ele><time>2026-03-29T10:36:16Z</time></trkpt><trkpt lat="38.78912824378015" lon="-9.456637045396143"><ele>262.0</ele><time>2026-03-29T10:36:17Z</time></trkpt><trkpt lat="38.789237287978466" lon="-9.456678387434973"><ele>262.0</ele><time>2026-03-29T10:36:18Z</time></trkpt><trkpt lat="38.789352814510764" lon="-9.456717560949148"><ele>262.0</ele><time>2026-03-29T10:36:19Z</time></trkpt><trkpt lat="38.7894662394941" lon="-9.456745494447913"><ele>259.6</ele><time>2026-03-29T10:36:20Z</time></trkpt><trkpt lat="38.789576553698765" lon="-9.456772413874459"><ele>257.2</ele><time>2026-03-29T10:36:21Z</time></trkpt><trkpt lat="38.78967873505456" lon="-9.456799794727202"><ele>254.8</ele><time>2026-03-29T10:36:22Z</time></trkpt><trkpt lat="38.78977289348439" lon="-9.45683213712943"><ele>252.4</ele><time>2026-03-29T10:36:23Z</time></trkpt><trkpt lat="38.78986608043831" lon="-9.456863086642088"><ele>250.0</ele><time>2026-03-29T10:36:24Z</time></trkpt><trkpt lat="38.78996303367895" lon="-9.456886202240927"><ele>250.0</ele><time>2026-03-29T10:36:25Z</time></trkpt><trkpt lat="38.79006347925508" lon="-9.456908265157558"><ele>250.0</ele><time>2026-03-29T10:36:26Z</time></trkpt><trkpt lat="38.79017140440332" lon="-9.456933739942379"><ele>250.0</ele><time>2026-03-29T10:36:27Z</time></trkpt><trkpt lat="38.79026745335263" lon="-9.456951643607097"><ele>250.0</ele><time>2026-03-29T10:36:28Z</time></trkpt><trkpt lat="38.79035700511728" lon="-9.456981649800479"><ele>250.0</ele><time>2026-03-29T10:36:29Z</time></trkpt><trkpt lat="38.790452202721305" lon="-9.457005592930747"><ele>250.0</ele><time>2026-03-29T10:36:30Z</time></trkpt><trkpt lat="38.79055129770595" lon="-9.457045547911111"><ele>250.0</ele><time>2026-03-29T10:36:31Z</time></trkpt><trkpt lat="38.79063996779092" lon="-9.457115974595032"><ele>250.0</ele><time>2026-03-29T10:36:32Z</time></trkpt><trkpt lat="38.79070658307621" lon="-9.457205528275507"><ele>250.0</ele><time>2026-03-29T10:36:33Z</time></trkpt><trkpt lat="38.79075898100158" lon="-9.457301114373971"><ele>250.0</ele><time>2026-03-29T10:36:34Z</time></trkpt><trkpt lat="38.790790870544875" lon="-9.457409420194402"><ele>250.0</ele><time>2026-03-29T10:36:35Z</time></trkpt><trkpt lat="38.79079967703519" lon="-9.457537630574691"><ele>250.0</ele><time>2026-03-29T10:36:36Z</time></trkpt><trkpt lat="38.79077539300937" lon="-9.457681949193708"><ele>250.0</ele><time>2026-03-29T10:36:37Z</time></trkpt><trkpt lat="38.790746669759855" lon="-9.457830730198197"><ele>250.0</ele><time>2026-03-29T10:36:38Z</time></trkpt><trkpt lat="38.790732378762286" lon="-9.457977916119239"><ele>248.4</ele><time>2026-03-29T10:36:39Z</time></trkpt><trkpt lat="38.79070869080402" lon="-9.458107552871608"><ele>246.8</ele><time>2026-03-29T10:36:40Z</time></trkpt><trkpt lat="38.79067612426078" lon="-9.45822577253313"><ele>245.2</ele><time>2026-03-29T10:36:41Z</time></trkpt><trkpt lat="38.79060788992572" lon="-9.45830950745498"><ele>243.6</ele><time>2026-03-29T10:36:42Z</time></trkpt><trkpt lat="38.79051417910481" lon="-9.45836163170689"><ele>242.0</ele><time>2026-03-29T10:36:43Z</time></trkpt><trkpt lat="38.790397597382245" lon="-9.458392412290397"><ele>242.0</ele><time>2026-03-29T10:36:44Z</time></trkpt><trkpt lat="38.7902721041898" lon="-9.458424325701015"><ele>242.0</ele><time>2026-03-29T10:36:45Z</time></trkpt><trkpt lat="38.79014125820686" lon="-9.458443762877948"><ele>242.0</ele><time>2026-03-29T10:36:46Z</time></trkpt><trkpt lat="38.790015064412145" lon="-9.458444015666409"><ele>242.0</ele><time>2026-03-29T10:36:47Z</time></trkpt><trkpt lat="38.789906748974715" lon="-9.458470576797962"><ele>241.8</ele><time>2026-03-29T10:36:48Z</time></trkpt><trkpt lat="38.789808229263514" lon="-9.458491787093433"><ele>241.6</ele><time>2026-03-29T10:36:49Z</time></trkpt><trkpt lat="38.789729099677594" lon="-9.458537368741904"><ele>241.40000000000003</ele><time>2026-03-29T10:36:50Z</time></trkpt><trkpt lat="38.78964906730164" lon="-9.458617966761745"><ele>241.20000000000002</ele><time>2026-03-29T10:36:51Z</time></trkpt><trkpt lat="38.789598452910276" lon="-9.45873091323235"><ele>241.0</ele><time>2026-03-29T10:36:52Z</time></trkpt><trkpt lat="38.78957638622417" lon="-9.45885369181011"><ele>241.0</ele><time>2026-03-29T10:36:53Z</time></trkpt><trkpt lat="38.78960042405389" lon="-9.458970687529122"><ele>241.00000000000003</ele><time>2026-03-29T10:36:54Z</time></trkpt><trkpt lat="38.78961818587378" lon="-9.459089139659147"><ele>241.00000000000003</ele><time>2026-03-29T10:36:55Z</time></trkpt><trkpt lat="38.78962958277255" lon="-9.459210441963144"><ele>241.0</ele><time>2026-03-29T10:36:56Z</time></trkpt><trkpt lat="38.789673623330465" lon="-9.45931186418927"><ele>241.0</ele><time>2026-03-29T10:36:57Z</time></trkpt><trkpt lat="38.78969937322891" lon="-9.459427040459474"><ele>240.99999999999997</ele><time>2026-03-29T10:36:58Z</time></trkpt><trkpt lat="38.78969384539731" lon="-9.459543991592394"><ele>241.0</ele><time>2026-03-29T10:36:59Z</time></trkpt><trkpt lat="38.7896695215244" lon="-9.459651033296296"><ele>241.0</ele><time>2026-03-29T10:37:00Z</time></trkpt><trkpt lat="38.78964132668433" lon="-9.45974737459454"><ele>241.0</ele><time>2026-03-29T10:37:01Z</time></trkpt><trkpt lat="38.78961318383812" lon="-9.459840867078874"><ele>240.99999999999997</ele><time>2026-03-29T10:37:02Z</time></trkpt><trkpt lat="38.789582345265465" lon="-9.459940094903109"><ele>241.0</ele><time>2026-03-29T10:37:03Z</time></trkpt><trkpt lat="38.78955642499184" lon="-9.460034271502524"><ele>239.49999999999997</ele><time>2026-03-29T10:37:04Z</time></trkpt><trkpt lat="38.7895225637298" lon="-9.460130021602184"><ele>238.0</ele><time>2026-03-29T10:37:05Z</time></trkpt><trkpt lat="38.78949314684305" lon="-9.460222147714196"><ele>236.5</ele><time>2026-03-29T10:37:06Z</time></trkpt><trkpt lat="38.78947832739052" lon="-9.460318514993867"><ele>235.0</ele><time>2026-03-29T10:37:07Z</time></trkpt><trkpt lat="38.78943571549611" lon="-9.460389067887562"><ele>233.49999999999997</ele><time>2026-03-29T10:37:08Z</time></trkpt><trkpt lat="38.7894016525114" lon="-9.46047529309243"><ele>232.0</ele><time>2026-03-29T10:37:09Z</time></trkpt><trkpt lat="38.789340257245385" lon="-9.460537375572311"><ele>232.00000000000003</ele><time>2026-03-29T10:37:10Z</time></trkpt><trkpt lat="38.78926432006359" lon="-9.460567593750522"><ele>232.0</ele><time>2026-03-29T10:37:11Z</time></trkpt><trkpt lat="38.78919303187716" lon="-9.460599616005808"><ele>232.00000000000003</ele><time>2026-03-29T10:37:12Z</time></trkpt><trkpt lat="38.78912393594773" lon="-9.460615011781249"><ele>232.00000000000003</ele><time>2026-03-29T10:37:13Z</time></trkpt><trkpt lat="38.78906103173349" lon="-9.460624493405886"><ele>232.0</ele><time>2026-03-29T10:37:14Z</time></trkpt><trkpt lat="38.78897459477879" lon="-9.460648138571239"><ele>232.00000000000003</ele><time>2026-03-29T10:37:16Z</time></trkpt><trkpt lat="38.788923811989406" lon="-9.460710781444712"><ele>232.00000000000003</ele><time>2026-03-29T10:37:18Z</time></trkpt><trkpt lat="38.78894531086673" lon="-9.4607888599995"><ele>232.0</ele><time>2026-03-29T10:37:25Z</time></trkpt><trkpt lat="38.78908001059751" lon="-9.460816740976036"><ele>232.0</ele><time>2026-03-29T10:37:28Z</time></trkpt><trkpt lat="38.78917205031032" lon="-9.460807513655043"><ele>232.0</ele><time>2026-03-29T10:37:29Z</time></trkpt><trkpt lat="38.78928610498967" lon="-9.460799243236325"><ele>232.0</ele><time>2026-03-29T10:37:30Z</time></trkpt><trkpt lat="38.78941456242796" lon="-9.460786055664153"><ele>228.5</ele><time>2026-03-29T10:37:31Z</time></trkpt><trkpt lat="38.78955461680605" lon="-9.460744745001412"><ele>225.0</ele><time>2026-03-29T10:37:32Z</time></trkpt><trkpt lat="38.78967107403729" lon="-9.460688577093663"><ele>221.5</ele><time>2026-03-29T10:37:33Z</time></trkpt><trkpt lat="38.789776138064816" lon="-9.460625731928403"><ele>218.0</ele><time>2026-03-29T10:37:34Z</time></trkpt><trkpt lat="38.789866739056656" lon="-9.460571045848061"><ele>218.0</ele><time>2026-03-29T10:37:35Z</time></trkpt><trkpt lat="38.78994785429862" lon="-9.460527654395191"><ele>218.0</ele><time>2026-03-29T10:37:36Z</time></trkpt><trkpt lat="38.79002749490597" lon="-9.460479021417534"><ele>218.0</ele><time>2026-03-29T10:37:37Z</time></trkpt><trkpt lat="38.79011517613348" lon="-9.460385666773746"><ele>218.0</ele><time>2026-03-29T10:37:38Z</time></trkpt><trkpt lat="38.790202847809624" lon="-9.460277761252955"><ele>218.0</ele><time>2026-03-29T10:37:39Z</time></trkpt><trkpt lat="38.79029163737373" lon="-9.46018349300594"><ele>217.33333333333334</ele><time>2026-03-29T10:37:40Z</time></trkpt><trkpt lat="38.79036561890427" lon="-9.460105131865351"><ele>216.66666666666669</ele><time>2026-03-29T10:37:41Z</time></trkpt><trkpt lat="38.79041724437532" lon="-9.46005254324493"><ele>216.0</ele><time>2026-03-29T10:37:42Z</time></trkpt><trkpt lat="38.79048526451195" lon="-9.459982616651798"><ele>215.33333333333331</ele><time>2026-03-29T10:37:44Z</time></trkpt><trkpt lat="38.79057391329195" lon="-9.459891089623989"><ele>214.66666666666666</ele><time>2026-03-29T10:37:46Z</time></trkpt><trkpt lat="38.79064281869257" lon="-9.459848302112137"><ele>214.0</ele><time>2026-03-29T10:37:47Z</time></trkpt><trkpt lat="38.790713587741394" lon="-9.459852552382687"><ele>214.00000000000003</ele><time>2026-03-29T10:37:48Z</time></trkpt><trkpt lat="38.790775357419975" lon="-9.459878050399956"><ele>214.0</ele><time>2026-03-29T10:37:49Z</time></trkpt><trkpt lat="38.79082782852873" lon="-9.459922957150525"><ele>214.0</ele><time>2026-03-29T10:37:50Z</time></trkpt><trkpt lat="38.790870163250716" lon="-9.460003115933347"><ele>214.0</ele><time>2026-03-29T10:37:51Z</time></trkpt><trkpt lat="38.79089905304691" lon="-9.46010668961033"><ele>214.0</ele><time>2026-03-29T10:37:52Z</time></trkpt><trkpt lat="38.790903758422004" lon="-9.460201774026537"><ele>214.00000000000003</ele><time>2026-03-29T10:37:53Z</time></trkpt><trkpt lat="38.79087996760108" lon="-9.460293968122143"><ele>214.0</ele><time>2026-03-29T10:37:54Z</time></trkpt><trkpt lat="38.79083723151126" lon="-9.46038796729156"><ele>212.39999999999998</ele><time>2026-03-29T10:37:55Z</time></trkpt><trkpt lat="38.79075692325248" lon="-9.46046723086742"><ele>210.79999999999998</ele><time>2026-03-29T10:37:56Z</time></trkpt><trkpt lat="38.79067473246991" lon="-9.460545233051946"><ele>209.2</ele><time>2026-03-29T10:37:57Z</time></trkpt><trkpt lat="38.790588313513176" lon="-9.46063259525181"><ele>207.60000000000002</ele><time>2026-03-29T10:37:58Z</time></trkpt><trkpt lat="38.79050758628031" lon="-9.460719557681612"><ele>206.0</ele><time>2026-03-29T10:37:59Z</time></trkpt><trkpt lat="38.79044218417898" lon="-9.460801954723092"><ele>206.0</ele><time>2026-03-29T10:38:00Z</time></trkpt><trkpt lat="38.79039521355467" lon="-9.460880093562695"><ele>206.0</ele><time>2026-03-29T10:38:01Z</time></trkpt><trkpt lat="38.790390921409845" lon="-9.461040323648533"><ele>206.0</ele><time>2026-03-29T10:38:03Z</time></trkpt><trkpt lat="38.790417563695726" lon="-9.461133676106567"><ele>206.0</ele><time>2026-03-29T10:38:04Z</time></trkpt><trkpt lat="38.79044398993089" lon="-9.461259273245227"><ele>206.0</ele><time>2026-03-29T10:38:05Z</time></trkpt><trkpt lat="38.79048984077482" lon="-9.461387334513303"><ele>204.8</ele><time>2026-03-29T10:38:06Z</time></trkpt><trkpt lat="38.7905381292456" lon="-9.461524134918578"><ele>203.60000000000002</ele><time>2026-03-29T10:38:07Z</time></trkpt><trkpt lat="38.790587042859066" lon="-9.46165769857524"><ele>202.4</ele><time>2026-03-29T10:38:08Z</time></trkpt><trkpt lat="38.790644695082214" lon="-9.461773959192412"><ele>201.2</ele><time>2026-03-29T10:38:09Z</time></trkpt><trkpt lat="38.79071568156642" lon="-9.461867321594962"><ele>200.0</ele><time>2026-03-29T10:38:10Z</time></trkpt><trkpt lat="38.790788002569926" lon="-9.461979695054346"><ele>200.0</ele><time>2026-03-29T10:38:11Z</time></trkpt><trkpt lat="38.790856650429696" lon="-9.462097169627004"><ele>200.0</ele><time>2026-03-29T10:38:12Z</time></trkpt><trkpt lat="38.79091923157985" lon="-9.462210215336134"><ele>200.0</ele><time>2026-03-29T10:38:13Z</time></trkpt><trkpt lat="38.79098697943088" lon="-9.462309838296155"><ele>200.0</ele><time>2026-03-29T10:38:14Z</time></trkpt><trkpt lat="38.791055466456704" lon="-9.462400769562691"><ele>200.0</ele><time>2026-03-29T10:38:15Z</time></trkpt><trkpt lat="38.79112929206605" lon="-9.462471819241372"><ele>197.6</ele><time>2026-03-29T10:38:16Z</time></trkpt><trkpt lat="38.79121555980104" lon="-9.462530079122878"><ele>195.2</ele><time>2026-03-29T10:38:17Z</time></trkpt><trkpt lat="38.7913013697845" lon="-9.462598570695253"><ele>192.8</ele><time>2026-03-29T10:38:18Z</time></trkpt><trkpt lat="38.791371352727836" lon="-9.462674994827811"><ele>190.4</ele><time>2026-03-29T10:38:19Z</time></trkpt><trkpt lat="38.79142434026038" lon="-9.462767012239745"><ele>188.0</ele><time>2026-03-29T10:38:20Z</time></trkpt><trkpt lat="38.791451267491965" lon="-9.462881035553341"><ele>188.0</ele><time>2026-03-29T10:38:21Z</time></trkpt><trkpt lat="38.791447375926666" lon="-9.463010614408297"><ele>188.0</ele><time>2026-03-29T10:38:22Z</time></trkpt><trkpt lat="38.79141508632294" lon="-9.463145237100981"><ele>188.0</ele><time>2026-03-29T10:38:23Z</time></trkpt><trkpt lat="38.79138091619474" lon="-9.463272265247234"><ele>188.0</ele><time>2026-03-29T10:38:24Z</time></trkpt><trkpt lat="38.791359183468046" lon="-9.463392263988245"><ele>188.0</ele><time>2026-03-29T10:38:25Z</time></trkpt><trkpt lat="38.791353909661936" lon="-9.463521452176074"><ele>188.0</ele><time>2026-03-29T10:38:26Z</time></trkpt><trkpt lat="38.79135950585442" lon="-9.463641633864883"><ele>188.0</ele><time>2026-03-29T10:38:27Z</time></trkpt><trkpt lat="38.7913848482951" lon="-9.463763800771975"><ele>188.0</ele><time>2026-03-29T10:38:28Z</time></trkpt><trkpt lat="38.79143915652919" lon="-9.46386530335295"><ele>188.0</ele><time>2026-03-29T10:38:29Z</time></trkpt><trkpt lat="38.791476455022355" lon="-9.463969582530638"><ele>188.0</ele><time>2026-03-29T10:38:30Z</time></trkpt><trkpt lat="38.79156439945911" lon="-9.46403124293859"><ele>187.8</ele><time>2026-03-29T10:38:31Z</time></trkpt><trkpt lat="38.7916661294992" lon="-9.464027730119284"><ele>187.60000000000002</ele><time>2026-03-29T10:38:32Z</time></trkpt><trkpt lat="38.79175499148117" lon="-9.464021370118756"><ele>187.39999999999998</ele><time>2026-03-29T10:38:33Z</time></trkpt><trkpt lat="38.791861896153186" lon="-9.464030549786399"><ele>187.2</ele><time>2026-03-29T10:38:34Z</time></trkpt><trkpt lat="38.79195823120564" lon="-9.464042642724163"><ele>187.0</ele><time>2026-03-29T10:38:35Z</time></trkpt><trkpt lat="38.79205308882355" lon="-9.464110315803586"><ele>185.0</ele><time>2026-03-29T10:38:36Z</time></trkpt><trkpt lat="38.7921506951169" lon="-9.464198158212339"><ele>183.0</ele><time>2026-03-29T10:38:37Z</time></trkpt><trkpt lat="38.79224665431636" lon="-9.464293949870617"><ele>181.0</ele><time>2026-03-29T10:38:38Z</time></trkpt><trkpt lat="38.7923399871279" lon="-9.46436976855746"><ele>179.0</ele><time>2026-03-29T10:38:39Z</time></trkpt><trkpt lat="38.792431115422985" lon="-9.464449589508844"><ele>179.0</ele><time>2026-03-29T10:38:40Z</time></trkpt><trkpt lat="38.79251963875985" lon="-9.464522556138471"><ele>179.0</ele><time>2026-03-29T10:38:41Z</time></trkpt><trkpt lat="38.7926041241077" lon="-9.46459885880304"><ele>179.0</ele><time>2026-03-29T10:38:42Z</time></trkpt><trkpt lat="38.7926984802432" lon="-9.464655017923299"><ele>179.0</ele><time>2026-03-29T10:38:43Z</time></trkpt><trkpt lat="38.792795393936714" lon="-9.464670686842178"><ele>179.0</ele><time>2026-03-29T10:38:44Z</time></trkpt><trkpt lat="38.792888992925484" lon="-9.464665940185713"><ele>178.0</ele><time>2026-03-29T10:38:45Z</time></trkpt><trkpt lat="38.79298602070984" lon="-9.464664710225609"><ele>177.0</ele><time>2026-03-29T10:38:46Z</time></trkpt><trkpt lat="38.793087851236514" lon="-9.464680931966381"><ele>176.0</ele><time>2026-03-29T10:38:47Z</time></trkpt><trkpt lat="38.79320306732417" lon="-9.464693496458526"><ele>175.0</ele><time>2026-03-29T10:38:48Z</time></trkpt><trkpt lat="38.79331250877232" lon="-9.464704968297362"><ele>174.0</ele><time>2026-03-29T10:38:49Z</time></trkpt><trkpt lat="38.79341343960132" lon="-9.464734861731035"><ele>172.2</ele><time>2026-03-29T10:38:50Z</time></trkpt><trkpt lat="38.79351229873913" lon="-9.464766532247918"><ele>170.39999999999998</ele><time>2026-03-29T10:38:51Z</time></trkpt><trkpt lat="38.79361495818865" lon="-9.4647992772953"><ele>168.6</ele><time>2026-03-29T10:38:52Z</time></trkpt><trkpt lat="38.7937101628088" lon="-9.464823865730933"><ele>166.8</ele><time>2026-03-29T10:38:53Z</time></trkpt><trkpt lat="38.793810942154735" lon="-9.464841632463653"><ele>165.0</ele><time>2026-03-29T10:38:55Z</time></trkpt><trkpt lat="38.79386812885758" lon="-9.464979356803545"><ele>165.0</ele><time>2026-03-29T10:39:07Z</time></trkpt><trkpt lat="38.79384282917454" lon="-9.465076497961192"><ele>165.0</ele><time>2026-03-29T10:39:08Z</time></trkpt><trkpt lat="38.79382814348984" lon="-9.465193747517795"><ele>165.0</ele><time>2026-03-29T10:39:09Z</time></trkpt><trkpt lat="38.79379456494258" lon="-9.465294814152294"><ele>165.0</ele><time>2026-03-29T10:39:10Z</time></trkpt><trkpt lat="38.79377726277351" lon="-9.465383504185205"><ele>165.0</ele><time>2026-03-29T10:39:11Z</time></trkpt><trkpt lat="38.793815479604014" lon="-9.465490178760906"><ele>165.0</ele><time>2026-03-29T10:39:12Z</time></trkpt><trkpt lat="38.79390617544688" lon="-9.465565094099869"><ele>165.4</ele><time>2026-03-29T10:39:13Z</time></trkpt><trkpt lat="38.794004380309865" lon="-9.46560712297287"><ele>165.8</ele><time>2026-03-29T10:39:14Z</time></trkpt><trkpt lat="38.79410966500155" lon="-9.46564477702064"><ele>166.2</ele><time>2026-03-29T10:39:15Z</time></trkpt><trkpt lat="38.79419247530956" lon="-9.465683931597804"><ele>166.6</ele><time>2026-03-29T10:39:16Z</time></trkpt><trkpt lat="38.79427029742457" lon="-9.46573764081459"><ele>167.0</ele><time>2026-03-29T10:39:17Z</time></trkpt><trkpt lat="38.79433269359451" lon="-9.465845382423733"><ele>164.75</ele><time>2026-03-29T10:39:18Z</time></trkpt><trkpt lat="38.79439960961817" lon="-9.465979443335854"><ele>162.5</ele><time>2026-03-29T10:39:19Z</time></trkpt><trkpt lat="38.794459176285365" lon="-9.466126237611935"><ele>160.25</ele><time>2026-03-29T10:39:20Z</time></trkpt><trkpt lat="38.794534547198936" lon="-9.466270272031974"><ele>158.0</ele><time>2026-03-29T10:39:21Z</time></trkpt><trkpt lat="38.79460402566898" lon="-9.466421999306608"><ele>157.25</ele><time>2026-03-29T10:39:22Z</time></trkpt><trkpt lat="38.79466367181241" lon="-9.46656972394528"><ele>156.5</ele><time>2026-03-29T10:39:23Z</time></trkpt><trkpt lat="38.794715109154126" lon="-9.466706144938417"><ele>155.75</ele><time>2026-03-29T10:39:24Z</time></trkpt><trkpt lat="38.794767493883086" lon="-9.466837503372778"><ele>155.0</ele><time>2026-03-29T10:39:25Z</time></trkpt><trkpt lat="38.79481349782379" lon="-9.466963320155205"><ele>155.0</ele><time>2026-03-29T10:39:26Z</time></trkpt><trkpt lat="38.79486696359045" lon="-9.467105513019037"><ele>155.0</ele><time>2026-03-29T10:39:27Z</time></trkpt><trkpt lat="38.79491893462162" lon="-9.467255800562661"><ele>155.0</ele><time>2026-03-29T10:39:28Z</time></trkpt><trkpt lat="38.79496274954508" lon="-9.467393345355475"><ele>155.0</ele><time>2026-03-29T10:39:29Z</time></trkpt><trkpt lat="38.794999309571814" lon="-9.467503587800115"><ele>155.2</ele><time>2026-03-29T10:39:30Z</time></trkpt><trkpt lat="38.79503604910252" lon="-9.467600527492555"><ele>155.4</ele><time>2026-03-29T10:39:31Z</time></trkpt><trkpt lat="38.79504536663828" lon="-9.467705239217416"><ele>155.6</ele><time>2026-03-29T10:39:32Z</time></trkpt><trkpt lat="38.79505929048561" lon="-9.467815719367437"><ele>155.8</ele><time>2026-03-29T10:39:33Z</time></trkpt><trkpt lat="38.79503456196434" lon="-9.467959846664503"><ele>156.0</ele><time>2026-03-29T10:39:34Z</time></trkpt><trkpt lat="38.795016837692316" lon="-9.468103572712284"><ele>155.6</ele><time>2026-03-29T10:39:35Z</time></trkpt><trkpt lat="38.795011954561176" lon="-9.468236527412074"><ele>155.2</ele><time>2026-03-29T10:39:36Z</time></trkpt><trkpt lat="38.79502239515538" lon="-9.468359967347467"><ele>154.8</ele><time>2026-03-29T10:39:37Z</time></trkpt><trkpt lat="38.79506829237668" lon="-9.468467948063825"><ele>154.4</ele><time>2026-03-29T10:39:38Z</time></trkpt><trkpt lat="38.795139796869506" lon="-9.468585128016484"><ele>154.0</ele><time>2026-03-29T10:39:39Z</time></trkpt><trkpt lat="38.79521642136533" lon="-9.468705230599685"><ele>153.2</ele><time>2026-03-29T10:39:40Z</time></trkpt><trkpt lat="38.79528852457992" lon="-9.468824921738266"><ele>152.4</ele><time>2026-03-29T10:39:41Z</time></trkpt><trkpt lat="38.79534833599289" lon="-9.468936026411171"><ele>151.6</ele><time>2026-03-29T10:39:42Z</time></trkpt><trkpt lat="38.795413402630174" lon="-9.46903790202215"><ele>150.8</ele><time>2026-03-29T10:39:43Z</time></trkpt><trkpt lat="38.795481774867994" lon="-9.46915006020294"><ele>150.0</ele><time>2026-03-29T10:39:44Z</time></trkpt><trkpt lat="38.7955464287679" lon="-9.469256461076109"><ele>150.0</ele><time>2026-03-29T10:39:45Z</time></trkpt><trkpt lat="38.79560540216343" lon="-9.469353566872103"><ele>150.0</ele><time>2026-03-29T10:39:46Z</time></trkpt><trkpt lat="38.795659258595855" lon="-9.469448129991994"><ele>150.0</ele><time>2026-03-29T10:39:47Z</time></trkpt><trkpt lat="38.795708717290765" lon="-9.469539317269579"><ele>150.0</ele><time>2026-03-29T10:39:48Z</time></trkpt><trkpt lat="38.795748792810976" lon="-9.469633326242091"><ele>150.0</ele><time>2026-03-29T10:39:49Z</time></trkpt><trkpt lat="38.79576479070867" lon="-9.469732796972062"><ele>150.0</ele><time>2026-03-29T10:39:50Z</time></trkpt><trkpt lat="38.795795063806054" lon="-9.469828630293256"><ele>149.8</ele><time>2026-03-29T10:39:51Z</time></trkpt><trkpt lat="38.7958201519952" lon="-9.469912388662221"><ele>149.6</ele><time>2026-03-29T10:39:52Z</time></trkpt><trkpt lat="38.7958732782962" lon="-9.470017850102755"><ele>149.4</ele><time>2026-03-29T10:39:54Z</time></trkpt><trkpt lat="38.79597558096057" lon="-9.470120525281464"><ele>149.2</ele><time>2026-03-29T10:39:56Z</time></trkpt><trkpt lat="38.79605417095925" lon="-9.470164041598174"><ele>149.0</ele><time>2026-03-29T10:39:57Z</time></trkpt><trkpt lat="38.79612506286084" lon="-9.470213074174618"><ele>148.33333333333331</ele><time>2026-03-29T10:39:58Z</time></trkpt><trkpt lat="38.79618994083825" lon="-9.470265411049922"><ele>147.66666666666666</ele><time>2026-03-29T10:39:59Z</time></trkpt><trkpt lat="38.79625391908297" lon="-9.470309769543464"><ele>147.0</ele><time>2026-03-29T10:40:00Z</time></trkpt><trkpt lat="38.796318196482396" lon="-9.470334869102285"><ele>146.33333333333334</ele><time>2026-03-29T10:40:01Z</time></trkpt><trkpt lat="38.796421606636834" lon="-9.47035511882797"><ele>145.66666666666669</ele><time>2026-03-29T10:40:03Z</time></trkpt><trkpt lat="38.796455496638174" lon="-9.470483257670807"><ele>145.0</ele><time>2026-03-29T10:40:05Z</time></trkpt><trkpt lat="38.79646463078479" lon="-9.470568412375785"><ele>144.4</ele><time>2026-03-29T10:40:06Z</time></trkpt><trkpt lat="38.79652592831143" lon="-9.4706905418186"><ele>143.8</ele><time>2026-03-29T10:40:08Z</time></trkpt><trkpt lat="38.79662230430139" lon="-9.470824557693536"><ele>143.2</ele><time>2026-03-29T10:40:10Z</time></trkpt><trkpt lat="38.79668215577652" lon="-9.47089134725971"><ele>142.6</ele><time>2026-03-29T10:40:11Z</time></trkpt><trkpt lat="38.79675488659464" lon="-9.471004492148817"><ele>142.0</ele><time>2026-03-29T10:40:13Z</time></trkpt><trkpt lat="38.796831720110305" lon="-9.471123056608281"><ele>141.16666666666669</ele><time>2026-03-29T10:40:15Z</time></trkpt><trkpt lat="38.79687910694631" lon="-9.471195774712573"><ele>140.33333333333334</ele><time>2026-03-29T10:40:19Z</time></trkpt><trkpt lat="38.79692411673716" lon="-9.471278870625042"><ele>139.5</ele><time>2026-03-29T10:40:21Z</time></trkpt><trkpt lat="38.79693865610234" lon="-9.471413065372406"><ele>138.66666666666666</ele><time>2026-03-29T10:40:23Z</time></trkpt><trkpt lat="38.79696764715191" lon="-9.47151542651982"><ele>137.83333333333331</ele><time>2026-03-29T10:40:24Z</time></trkpt><trkpt lat="38.796979092040964" lon="-9.471598494693037"><ele>137.0</ele><time>2026-03-29T10:40:25Z</time></trkpt><trkpt lat="38.79698490145253" lon="-9.471757456677247"><ele>136.4</ele><time>2026-03-29T10:40:27Z</time></trkpt><trkpt lat="38.79700872712792" lon="-9.471890879958051"><ele>135.79999999999998</ele><time>2026-03-29T10:40:29Z</time></trkpt><trkpt lat="38.797063233950844" lon="-9.471993683303864"><ele>135.2</ele><time>2026-03-29T10:40:31Z</time></trkpt><trkpt lat="38.79712194587205" lon="-9.472104292023927"><ele>134.6</ele><time>2026-03-29T10:40:33Z</time></trkpt><trkpt lat="38.79714974819443" lon="-9.472259344345188"><ele>134.0</ele><time>2026-03-29T10:40:35Z</time></trkpt><trkpt lat="38.79717671338786" lon="-9.472339260256"><ele>133.0</ele><time>2026-03-29T10:40:36Z</time></trkpt><trkpt lat="38.79722390931852" lon="-9.472479537090464"><ele>132.0</ele><time>2026-03-29T10:40:38Z</time></trkpt><trkpt lat="38.79724404807655" lon="-9.472560198183524"><ele>131.0</ele><time>2026-03-29T10:40:39Z</time></trkpt><trkpt lat="38.79729497493369" lon="-9.47268962152508"><ele>130.0</ele><time>2026-03-29T10:40:41Z</time></trkpt><trkpt lat="38.79732469174679" lon="-9.472802509539303"><ele>129.0</ele><time>2026-03-29T10:40:43Z</time></trkpt><trkpt lat="38.797372512730355" lon="-9.472933690253186"><ele>128.33333333333334</ele><time>2026-03-29T10:40:45Z</time></trkpt><trkpt lat="38.79741363257604" lon="-9.473029179174109"><ele>127.66666666666666</ele><time>2026-03-29T10:40:46Z</time></trkpt><trkpt lat="38.7974620443181" lon="-9.473120943119255"><ele>127.0</ele><time>2026-03-29T10:40:47Z</time></trkpt><trkpt lat="38.79749616920992" lon="-9.473205319633378"><ele>126.33333333333333</ele><time>2026-03-29T10:40:48Z</time></trkpt><trkpt lat="38.797537313225014" lon="-9.473278093942538"><ele>125.66666666666666</ele><time>2026-03-29T10:40:49Z</time></trkpt><trkpt lat="38.79758643548758" lon="-9.473347182215077"><ele>125.0</ele><time>2026-03-29T10:40:50Z</time></trkpt><trkpt lat="38.79763228946531" lon="-9.473411376472251"><ele>125.0</ele><time>2026-03-29T10:40:51Z</time></trkpt><trkpt lat="38.797623909648436" lon="-9.473571756395843"><ele>125.0</ele><time>2026-03-29T10:40:53Z</time></trkpt><trkpt lat="38.79758002086776" lon="-9.473690230577228"><ele>125.0</ele><time>2026-03-29T10:40:54Z</time></trkpt><trkpt lat="38.797569446520846" lon="-9.473823532967472"><ele>125.0</ele><time>2026-03-29T10:40:55Z</time></trkpt><trkpt lat="38.79754518296093" lon="-9.473937486754917"><ele>125.0</ele><time>2026-03-29T10:40:56Z</time></trkpt><trkpt lat="38.797514975172874" lon="-9.47407419533606"><ele>123.4</ele><time>2026-03-29T10:40:57Z</time></trkpt><trkpt lat="38.7974831757685" lon="-9.474201989446774"><ele>121.8</ele><time>2026-03-29T10:40:58Z</time></trkpt><trkpt lat="38.79744889431993" lon="-9.474322857396553"><ele>120.19999999999999</ele><time>2026-03-29T10:40:59Z</time></trkpt><trkpt lat="38.79741341476587" lon="-9.474446330254974"><ele>118.6</ele><time>2026-03-29T10:41:00Z</time></trkpt><trkpt lat="38.79737897104398" lon="-9.474566198323922"><ele>117.0</ele><time>2026-03-29T10:41:01Z</time></trkpt><trkpt lat="38.79734374825413" lon="-9.47469296348905"><ele>114.39999999999999</ele><time>2026-03-29T10:41:02Z</time></trkpt><trkpt lat="38.797339239332096" lon="-9.474806612646477"><ele>111.79999999999998</ele><time>2026-03-29T10:41:03Z</time></trkpt><trkpt lat="38.79736084793952" lon="-9.474918787580696"><ele>109.2</ele><time>2026-03-29T10:41:04Z</time></trkpt><trkpt lat="38.79740827656689" lon="-9.475023002722056"><ele>106.6</ele><time>2026-03-29T10:41:05Z</time></trkpt><trkpt lat="38.79745249966127" lon="-9.475150269572781"><ele>104.0</ele><time>2026-03-29T10:41:06Z</time></trkpt><trkpt lat="38.79751510816811" lon="-9.47528138499742"><ele>104.0</ele><time>2026-03-29T10:41:07Z</time></trkpt><trkpt lat="38.79756593248344" lon="-9.475411564865222"><ele>104.0</ele><time>2026-03-29T10:41:08Z</time></trkpt><trkpt lat="38.79758661966542" lon="-9.47554209507074"><ele>104.0</ele><time>2026-03-29T10:41:09Z</time></trkpt><trkpt lat="38.79756975362829" lon="-9.475690002958567"><ele>104.0</ele><time>2026-03-29T10:41:10Z</time></trkpt><trkpt lat="38.79753598850688" lon="-9.475829043576047"><ele>104.0</ele><time>2026-03-29T10:41:11Z</time></trkpt><trkpt lat="38.79748032189351" lon="-9.475948902604715"><ele>102.4</ele><time>2026-03-29T10:41:12Z</time></trkpt><trkpt lat="38.79741055309916" lon="-9.47606078199993"><ele>100.80000000000001</ele><time>2026-03-29T10:41:13Z</time></trkpt><trkpt lat="38.79734235035808" lon="-9.476172758671591"><ele>99.19999999999999</ele><time>2026-03-29T10:41:14Z</time></trkpt><trkpt lat="38.79726862009358" lon="-9.476290799469414"><ele>97.6</ele><time>2026-03-29T10:41:15Z</time></trkpt><trkpt lat="38.797202433037995" lon="-9.476396743439514"><ele>96.0</ele><time>2026-03-29T10:41:16Z</time></trkpt><trkpt lat="38.79712637142599" lon="-9.476518700432539"><ele>95.5</ele><time>2026-03-29T10:41:17Z</time></trkpt><trkpt lat="38.7970516205677" lon="-9.476642446319904"><ele>95.0</ele><time>2026-03-29T10:41:18Z</time></trkpt><trkpt lat="38.79698031810907" lon="-9.476760355506162"><ele>94.5</ele><time>2026-03-29T10:41:19Z</time></trkpt><trkpt lat="38.796916973127566" lon="-9.476874710210268"><ele>94.0</ele><time>2026-03-29T10:41:20Z</time></trkpt><trkpt lat="38.79686017430601" lon="-9.476992354246459"><ele>90.60000000000001</ele><time>2026-03-29T10:41:21Z</time></trkpt><trkpt lat="38.79682532257599" lon="-9.477112598266968"><ele>87.2</ele><time>2026-03-29T10:41:22Z</time></trkpt><trkpt lat="38.79679949138637" lon="-9.47724479120238"><ele>83.80000000000001</ele><time>2026-03-29T10:41:23Z</time></trkpt><trkpt lat="38.796775510643116" lon="-9.477386662842331"><ele>80.4</ele><time>2026-03-29T10:41:24Z</time></trkpt><trkpt lat="38.796756182165765" lon="-9.477525526364479"><ele>77.0</ele><time>2026-03-29T10:41:25Z</time></trkpt><trkpt lat="38.796728543022304" lon="-9.477655862549422"><ele>77.0</ele><time>2026-03-29T10:41:26Z</time></trkpt><trkpt lat="38.796710194855905" lon="-9.477787213673023"><ele>77.0</ele><time>2026-03-29T10:41:27Z</time></trkpt><trkpt lat="38.79670081931999" lon="-9.477901089804487"><ele>77.0</ele><time>2026-03-29T10:41:28Z</time></trkpt><trkpt lat="38.796683066781895" lon="-9.47801456257087"><ele>77.0</ele><time>2026-03-29T10:41:29Z</time></trkpt><trkpt lat="38.79665241812907" lon="-9.478107339317672"><ele>77.0</ele><time>2026-03-29T10:41:30Z</time></trkpt><trkpt lat="38.796578576046635" lon="-9.478168159010668"><ele>75.2</ele><time>2026-03-29T10:41:31Z</time></trkpt><trkpt lat="38.79648341851435" lon="-9.478196339804256"><ele>73.4</ele><time>2026-03-29T10:41:32Z</time></trkpt><trkpt lat="38.79638629098057" lon="-9.47821130021949"><ele>71.6</ele><time>2026-03-29T10:41:33Z</time></trkpt><trkpt lat="38.79629222055856" lon="-9.478215187768145"><ele>69.8</ele><time>2026-03-29T10:41:34Z</time></trkpt><trkpt lat="38.79621452514969" lon="-9.47826022263954"><ele>68.0</ele><time>2026-03-29T10:41:35Z</time></trkpt><trkpt lat="38.79613655293702" lon="-9.478298273108567"><ele>68.0</ele><time>2026-03-29T10:41:36Z</time></trkpt><trkpt lat="38.79608354423067" lon="-9.478358415009389"><ele>68.0</ele><time>2026-03-29T10:41:37Z</time></trkpt><trkpt lat="38.79610369480387" lon="-9.478444657192997"><ele>68.0</ele><time>2026-03-29T10:41:38Z</time></trkpt><trkpt lat="38.79610232891033" lon="-9.478558966948896"><ele>68.0</ele><time>2026-03-29T10:41:39Z</time></trkpt><trkpt lat="38.796168404931045" lon="-9.478661221672931"><ele>68.0</ele><time>2026-03-29T10:41:40Z</time></trkpt><trkpt lat="38.79624950661458" lon="-9.478736362092913"><ele>68.0</ele><time>2026-03-29T10:41:41Z</time></trkpt><trkpt lat="38.79633313945742" lon="-9.478800978154288"><ele>65.2</ele><time>2026-03-29T10:41:42Z</time></trkpt><trkpt lat="38.79642259990375" lon="-9.478857987379074"><ele>62.4</ele><time>2026-03-29T10:41:43Z</time></trkpt><trkpt lat="38.79650570240942" lon="-9.478921092679622"><ele>59.60000000000001</ele><time>2026-03-29T10:41:44Z</time></trkpt><trkpt lat="38.796582432972194" lon="-9.478995301266233"><ele>56.800000000000004</ele><time>2026-03-29T10:41:45Z</time></trkpt><trkpt lat="38.79665393762535" lon="-9.479078375551678"><ele>54.0</ele><time>2026-03-29T10:41:46Z</time></trkpt><trkpt lat="38.79671314729141" lon="-9.479185110359184"><ele>54.0</ele><time>2026-03-29T10:41:47Z</time></trkpt><trkpt lat="38.79677388544732" lon="-9.47929318984046"><ele>54.00000000000001</ele><time>2026-03-29T10:41:48Z</time></trkpt><trkpt lat="38.796843507809214" lon="-9.479398229057692"><ele>54.00000000000001</ele><time>2026-03-29T10:41:49Z</time></trkpt><trkpt lat="38.79692300077042" lon="-9.479501334494026"><ele>54.0</ele><time>2026-03-29T10:41:50Z</time></trkpt><trkpt lat="38.79700784316572" lon="-9.479604738301507"><ele>54.0</ele><time>2026-03-29T10:41:51Z</time></trkpt><trkpt lat="38.79709050017715" lon="-9.479707612627626"><ele>51.25</ele><time>2026-03-29T10:41:52Z</time></trkpt><trkpt lat="38.797178588336685" lon="-9.479807137826288"><ele>48.5</ele><time>2026-03-29T10:41:53Z</time></trkpt><trkpt lat="38.79726568863044" lon="-9.479905841610158"><ele>45.75</ele><time>2026-03-29T10:41:54Z</time></trkpt><trkpt lat="38.797354576855845" lon="-9.479993790856126"><ele>43.0</ele><time>2026-03-29T10:41:55Z</time></trkpt><trkpt lat="38.79744753102395" lon="-9.480076901457439"><ele>43.0</ele><time>2026-03-29T10:41:56Z</time></trkpt><trkpt lat="38.7975378863522" lon="-9.480156420847365"><ele>43.0</ele><time>2026-03-29T10:41:57Z</time></trkpt><trkpt lat="38.797624023656496" lon="-9.480228266454132"><ele>43.0</ele><time>2026-03-29T10:41:58Z</time></trkpt><trkpt lat="38.79771017608084" lon="-9.480297473560716"><ele>43.0</ele><time>2026-03-29T10:41:59Z</time></trkpt><trkpt lat="38.79780069356594" lon="-9.480363347482342"><ele>43.0</ele><time>2026-03-29T10:42:00Z</time></trkpt><trkpt lat="38.797888230989805" lon="-9.480430891949684"><ele>40.6</ele><time>2026-03-29T10:42:01Z</time></trkpt><trkpt lat="38.79797370465392" lon="-9.480498075127377"><ele>38.199999999999996</ele><time>2026-03-29T10:42:02Z</time></trkpt><trkpt lat="38.79805576384663" lon="-9.480578416519954"><ele>35.8</ele><time>2026-03-29T10:42:03Z</time></trkpt><trkpt lat="38.798119843447" lon="-9.480672478790938"><ele>33.4</ele><time>2026-03-29T10:42:04Z</time></trkpt><trkpt lat="38.79817722229743" lon="-9.48077978810526"><ele>31.0</ele><time>2026-03-29T10:42:05Z</time></trkpt><trkpt lat="38.798223702746554" lon="-9.480908525786568"><ele>31.0</ele><time>2026-03-29T10:42:06Z</time></trkpt><trkpt lat="38.79826003203353" lon="-9.481075496516722"><ele>31.0</ele><time>2026-03-29T10:42:07Z</time></trkpt><trkpt lat="38.798272495883715" lon="-9.481247311439438"><ele>31.0</ele><time>2026-03-29T10:42:08Z</time></trkpt><trkpt lat="38.798273085012845" lon="-9.481416789945571"><ele>31.0</ele><time>2026-03-29T10:42:09Z</time></trkpt><trkpt lat="38.7982844206769" lon="-9.481565480786609"><ele>30.0</ele><time>2026-03-29T10:42:10Z</time></trkpt><trkpt lat="38.79831091577437" lon="-9.48170291536223"><ele>29.0</ele><time>2026-03-29T10:42:11Z</time></trkpt><trkpt lat="38.79833732603807" lon="-9.481830245965588"><ele>28.0</ele><time>2026-03-29T10:42:12Z</time></trkpt><trkpt lat="38.79836523060443" lon="-9.481962816186263"><ele>27.0</ele><time>2026-03-29T10:42:13Z</time></trkpt><trkpt lat="38.79839305492336" lon="-9.482102249728134"><ele>26.0</ele><time>2026-03-29T10:42:14Z</time></trkpt><trkpt lat="38.798421424563756" lon="-9.482237276516022"><ele>25.6</ele><time>2026-03-29T10:42:15Z</time></trkpt><trkpt lat="38.798444351505374" lon="-9.482372887865061"><ele>25.200000000000003</ele><time>2026-03-29T10:42:16Z</time></trkpt><trkpt lat="38.79847063907213" lon="-9.482504848561469"><ele>24.799999999999997</ele><time>2026-03-29T10:42:17Z</time></trkpt><trkpt lat="38.79849904537846" lon="-9.482632831779993"><ele>24.4</ele><time>2026-03-29T10:42:18Z</time></trkpt><trkpt lat="38.79852479966574" lon="-9.48276387009901"><ele>24.0</ele><time>2026-03-29T10:42:19Z</time></trkpt><trkpt lat="38.79855469561809" lon="-9.482896041655481"><ele>24.799999999999997</ele><time>2026-03-29T10:42:20Z</time></trkpt><trkpt lat="38.7985832610147" lon="-9.483024508233761"><ele>25.599999999999998</ele><time>2026-03-29T10:42:21Z</time></trkpt><trkpt lat="38.798613286700785" lon="-9.4831463351921"><ele>26.4</ele><time>2026-03-29T10:42:22Z</time></trkpt><trkpt lat="38.79865273366436" lon="-9.483262218689845"><ele>27.2</ele><time>2026-03-29T10:42:23Z</time></trkpt><trkpt lat="38.79869724901459" lon="-9.483371004391726"><ele>28.0</ele><time>2026-03-29T10:42:24Z</time></trkpt><trkpt lat="38.798738210619035" lon="-9.483480619044935"><ele>28.0</ele><time>2026-03-29T10:42:25Z</time></trkpt><trkpt lat="38.79878135839263" lon="-9.483588889689726"><ele>27.999999999999996</ele><time>2026-03-29T10:42:26Z</time></trkpt><trkpt lat="38.79882643490454" lon="-9.48369477240051"><ele>27.999999999999996</ele><time>2026-03-29T10:42:27Z</time></trkpt><trkpt lat="38.79887083981982" lon="-9.48379014937785"><ele>28.0</ele><time>2026-03-29T10:42:28Z</time></trkpt><trkpt lat="38.79892015157369" lon="-9.483888306774219"><ele>28.0</ele><time>2026-03-29T10:42:29Z</time></trkpt><trkpt lat="38.79896719052479" lon="-9.483991343669471"><ele>27.599999999999998</ele><time>2026-03-29T10:42:30Z</time></trkpt><trkpt lat="38.79901784687129" lon="-9.484081004178716"><ele>27.199999999999996</ele><time>2026-03-29T10:42:31Z</time></trkpt><trkpt lat="38.79908173071736" lon="-9.484144959627146"><ele>26.8</ele><time>2026-03-29T10:42:32Z</time></trkpt><trkpt lat="38.79916297864705" lon="-9.484199175956292"><ele>26.4</ele><time>2026-03-29T10:42:33Z</time></trkpt><trkpt lat="38.79925846915876" lon="-9.48425011112162"><ele>26.0</ele><time>2026-03-29T10:42:34Z</time></trkpt><trkpt lat="38.79935773032936" lon="-9.484309249512789"><ele>26.0</ele><time>2026-03-29T10:42:35Z</time></trkpt><trkpt lat="38.799459922701146" lon="-9.484366318799388"><ele>26.0</ele><time>2026-03-29T10:42:36Z</time></trkpt><trkpt lat="38.799562624409866" lon="-9.484426625793933"><ele>26.0</ele><time>2026-03-29T10:42:37Z</time></trkpt><trkpt lat="38.7996647274865" lon="-9.48448017844424"><ele>26.0</ele><time>2026-03-29T10:42:38Z</time></trkpt><trkpt lat="38.79975927727719" lon="-9.484515236852879"><ele>26.0</ele><time>2026-03-29T10:42:39Z</time></trkpt><trkpt lat="38.79984821337144" lon="-9.48453949994958"><ele>26.0</ele><time>2026-03-29T10:42:40Z</time></trkpt><trkpt lat="38.79993958343384" lon="-9.484549529508032"><ele>26.0</ele><time>2026-03-29T10:42:41Z</time></trkpt><trkpt lat="38.80003632242729" lon="-9.484540236591373"><ele>26.0</ele><time>2026-03-29T10:42:42Z</time></trkpt><trkpt lat="38.800133494551694" lon="-9.484520821230932"><ele>26.0</ele><time>2026-03-29T10:42:43Z</time></trkpt><trkpt lat="38.800232467199166" lon="-9.48449223475309"><ele>26.0</ele><time>2026-03-29T10:42:44Z</time></trkpt><trkpt lat="38.80033536209345" lon="-9.484469227821805"><ele>24.75</ele><time>2026-03-29T10:42:45Z</time></trkpt><trkpt lat="38.80044470816643" lon="-9.484457824674614"><ele>23.5</ele><time>2026-03-29T10:42:46Z</time></trkpt><trkpt lat="38.800560008513436" lon="-9.48447768491723"><ele>22.25</ele><time>2026-03-29T10:42:47Z</time></trkpt><trkpt lat="38.80067360170164" lon="-9.484506830022655"><ele>21.0</ele><time>2026-03-29T10:42:48Z</time></trkpt><trkpt lat="38.80079058378877" lon="-9.484535966521651"><ele>21.0</ele><time>2026-03-29T10:42:49Z</time></trkpt><trkpt lat="38.80090460294585" lon="-9.48455744450817"><ele>21.0</ele><time>2026-03-29T10:42:50Z</time></trkpt><trkpt lat="38.801011659492254" lon="-9.484561990707094"><ele>21.0</ele><time>2026-03-29T10:42:51Z</time></trkpt><trkpt lat="38.801116731880946" lon="-9.484543994187012"><ele>21.0</ele><time>2026-03-29T10:42:52Z</time></trkpt><trkpt lat="38.80121263695492" lon="-9.48451183874668"><ele>21.0</ele><time>2026-03-29T10:42:53Z</time></trkpt><trkpt lat="38.80130682946199" lon="-9.484487400171304"><ele>21.333333333333332</ele><time>2026-03-29T10:42:54Z</time></trkpt><trkpt lat="38.801399253624744" lon="-9.484472307050725"><ele>21.666666666666668</ele><time>2026-03-29T10:42:55Z</time></trkpt><trkpt lat="38.801488593830804" lon="-9.48447721646297"><ele>22.0</ele><time>2026-03-29T10:42:56Z</time></trkpt><trkpt lat="38.80157212029812" lon="-9.484501844131954"><ele>22.333333333333336</ele><time>2026-03-29T10:42:57Z</time></trkpt><trkpt lat="38.80164885467031" lon="-9.48452646313173"><ele>22.666666666666668</ele><time>2026-03-29T10:42:58Z</time></trkpt><trkpt lat="38.80172725646345" lon="-9.484547075734204"><ele>23.0</ele><time>2026-03-29T10:42:59Z</time></trkpt><trkpt lat="38.80180438477683" lon="-9.484552086634627"><ele>24.799999999999997</ele><time>2026-03-29T10:43:00Z</time></trkpt><trkpt lat="38.80187493076362" lon="-9.484556950581956"><ele>26.6</ele><time>2026-03-29T10:43:01Z</time></trkpt><trkpt lat="38.80198005846932" lon="-9.484569596952454"><ele>28.400000000000002</ele><time>2026-03-29T10:43:03Z</time></trkpt><trkpt lat="38.80207729772515" lon="-9.484540142654538"><ele>30.200000000000003</ele><time>2026-03-29T10:43:05Z</time></trkpt><trkpt lat="38.8021630869784" lon="-9.484544100826811"><ele>32.0</ele><time>2026-03-29T10:43:07Z</time></trkpt><trkpt lat="38.802250634160316" lon="-9.484588094364042"><ele>29.166666666666664</ele><time>2026-03-29T10:43:10Z</time></trkpt><trkpt lat="38.802304420268825" lon="-9.484649880807916"><ele>26.333333333333332</ele><time>2026-03-29T10:43:13Z</time></trkpt><trkpt lat="38.802295475078616" lon="-9.484741355461063"><ele>23.5</ele><time>2026-03-29T10:44:16Z</time></trkpt><trkpt lat="38.8021675931517" lon="-9.484756886845851"><ele>20.666666666666664</ele><time>2026-03-29T10:44:18Z</time></trkpt><trkpt lat="38.80210138845843" lon="-9.484734158897195"><ele>17.833333333333332</ele><time>2026-03-29T10:44:19Z</time></trkpt><trkpt lat="38.802045387971916" lon="-9.484695710680136"><ele>15.0</ele><time>2026-03-29T10:44:20Z</time></trkpt><trkpt lat="38.801947261977666" lon="-9.48466626026733"><ele>15.0</ele><time>2026-03-29T10:44:22Z</time></trkpt><trkpt lat="38.80184507464428" lon="-9.484636068660434"><ele>15.0</ele><time>2026-03-29T10:44:27Z</time></trkpt><trkpt lat="38.80177904638541" lon="-9.484595020653007"><ele>15.0</ele><time>2026-03-29T10:44:28Z</time></trkpt><trkpt lat="38.80170426636818" lon="-9.484564936064883"><ele>15.0</ele><time>2026-03-29T10:44:29Z</time></trkpt><trkpt lat="38.80161512171884" lon="-9.48454637228779"><ele>15.0</ele><time>2026-03-29T10:44:30Z</time></trkpt><trkpt lat="38.8015180669323" lon="-9.484529083935023"><ele>15.0</ele><time>2026-03-29T10:44:31Z</time></trkpt><trkpt lat="38.80143130968796" lon="-9.484528489664733"><ele>16.6</ele><time>2026-03-29T10:44:32Z</time></trkpt><trkpt lat="38.80136535747523" lon="-9.484525619979232"><ele>18.2</ele><time>2026-03-29T10:44:33Z</time></trkpt><trkpt lat="38.80127147104253" lon="-9.484563710930205"><ele>19.799999999999997</ele><time>2026-03-29T10:44:35Z</time></trkpt><trkpt lat="38.801194658576904" lon="-9.48457920462585"><ele>21.4</ele><time>2026-03-29T10:44:36Z</time></trkpt><trkpt lat="38.80109249709136" lon="-9.484621988262884"><ele>23.0</ele><time>2026-03-29T10:44:37Z</time></trkpt><trkpt lat="38.80096356424983" lon="-9.484640488219243"><ele>22.5</ele><time>2026-03-29T10:44:38Z</time></trkpt><trkpt lat="38.80082529909167" lon="-9.484609871342709"><ele>22.0</ele><time>2026-03-29T10:44:39Z</time></trkpt><trkpt lat="38.800707935146676" lon="-9.484587887755376"><ele>21.5</ele><time>2026-03-29T10:44:40Z</time></trkpt><trkpt lat="38.800537225930434" lon="-9.484550861300937"><ele>21.0</ele><time>2026-03-29T10:44:41Z</time></trkpt><trkpt lat="38.800378456366296" lon="-9.484526272528768"><ele>21.0</ele><time>2026-03-29T10:44:42Z</time></trkpt><trkpt lat="38.800257276199915" lon="-9.48453671605091"><ele>21.0</ele><time>2026-03-29T10:44:43Z</time></trkpt><trkpt lat="38.80014706177348" lon="-9.484563868668529"><ele>21.0</ele><time>2026-03-29T10:44:44Z</time></trkpt><trkpt lat="38.80008608456373" lon="-9.484585681746044"><ele>21.0</ele><time>2026-03-29T10:44:45Z</time></trkpt><trkpt lat="38.799982227757496" lon="-9.484556977825369"><ele>21.0</ele><time>2026-03-29T10:44:47Z</time></trkpt><trkpt lat="38.79983191838253" lon="-9.484571816023726"><ele>22.25</ele><time>2026-03-29T10:44:49Z</time></trkpt><trkpt lat="38.79973651295877" lon="-9.484530716163109"><ele>23.5</ele><time>2026-03-29T10:44:50Z</time></trkpt><trkpt lat="38.799626994104116" lon="-9.484507798555558"><ele>24.75</ele><time>2026-03-29T10:44:51Z</time></trkpt><trkpt lat="38.7995151963293" lon="-9.48444260769453"><ele>26.0</ele><time>2026-03-29T10:44:52Z</time></trkpt><trkpt lat="38.79939939002161" lon="-9.484371539305393"><ele>24.5</ele><time>2026-03-29T10:44:53Z</time></trkpt><trkpt lat="38.799287241613065" lon="-9.484294137470572"><ele>23.0</ele><time>2026-03-29T10:44:54Z</time></trkpt><trkpt lat="38.79916850114459" lon="-9.484220114873747"><ele>21.5</ele><time>2026-03-29T10:44:55Z</time></trkpt><trkpt lat="38.79905818939607" lon="-9.484153060155256"><ele>20.0</ele><time>2026-03-29T10:44:56Z</time></trkpt><trkpt lat="38.79895675339475" lon="-9.48407036833151"><ele>20.0</ele><time>2026-03-29T10:44:57Z</time></trkpt><trkpt lat="38.798876150258295" lon="-9.483963512272675"><ele>20.0</ele><time>2026-03-29T10:44:58Z</time></trkpt><trkpt lat="38.798820910947114" lon="-9.48383255898419"><ele>20.0</ele><time>2026-03-29T10:44:59Z</time></trkpt><trkpt lat="38.79877692199807" lon="-9.483686241573393"><ele>20.0</ele><time>2026-03-29T10:45:00Z</time></trkpt><trkpt lat="38.79873225318618" lon="-9.48355078686796"><ele>22.0</ele><time>2026-03-29T10:45:01Z</time></trkpt><trkpt lat="38.798677141076844" lon="-9.48341240366211"><ele>24.0</ele><time>2026-03-29T10:45:02Z</time></trkpt><trkpt lat="38.7986228063391" lon="-9.483272449687012"><ele>26.0</ele><time>2026-03-29T10:45:03Z</time></trkpt><trkpt lat="38.798574255402094" lon="-9.483132900327224"><ele>28.0</ele><time>2026-03-29T10:45:04Z</time></trkpt><trkpt lat="38.7985429918752" lon="-9.482994301441982"><ele>27.0</ele><time>2026-03-29T10:45:05Z</time></trkpt><trkpt lat="38.79851397134548" lon="-9.482844325094552"><ele>26.0</ele><time>2026-03-29T10:45:06Z</time></trkpt><trkpt lat="38.79848125472607" lon="-9.482681780166438"><ele>25.0</ele><time>2026-03-29T10:45:07Z</time></trkpt><trkpt lat="38.79845045160789" lon="-9.48251987076706"><ele>24.0</ele><time>2026-03-29T10:45:08Z</time></trkpt><trkpt lat="38.79841211033221" lon="-9.482350024430971"><ele>24.0</ele><time>2026-03-29T10:45:09Z</time></trkpt><trkpt lat="38.79837530778025" lon="-9.48216903357131"><ele>24.0</ele><time>2026-03-29T10:45:10Z</time></trkpt><trkpt lat="38.79834169893302" lon="-9.481992455561624"><ele>24.0</ele><time>2026-03-29T10:45:11Z</time></trkpt><trkpt lat="38.79831230996332" lon="-9.481820641035645"><ele>24.0</ele><time>2026-03-29T10:45:12Z</time></trkpt><trkpt lat="38.79827766852673" lon="-9.48163826783249"><ele>24.5</ele><time>2026-03-29T10:45:13Z</time></trkpt><trkpt lat="38.79825116302741" lon="-9.481448957555044"><ele>25.0</ele><time>2026-03-29T10:45:14Z</time></trkpt><trkpt lat="38.79822799626738" lon="-9.481270615682618"><ele>25.5</ele><time>2026-03-29T10:45:15Z</time></trkpt><trkpt lat="38.7982101303035" lon="-9.481099959754472"><ele>26.0</ele><time>2026-03-29T10:45:16Z</time></trkpt><trkpt lat="38.79818284747493" lon="-9.480938023474563"><ele>27.25</ele><time>2026-03-29T10:45:17Z</time></trkpt><trkpt lat="38.798125692619685" lon="-9.480798047913744"><ele>28.5</ele><time>2026-03-29T10:45:18Z</time></trkpt><trkpt lat="38.79805572866126" lon="-9.48067589658263"><ele>29.75</ele><time>2026-03-29T10:45:19Z</time></trkpt><trkpt lat="38.797971847419475" lon="-9.480569043344975"><ele>31.0</ele><time>2026-03-29T10:45:20Z</time></trkpt><trkpt lat="38.7978807611193" lon="-9.480477420883338"><ele>33.0</ele><time>2026-03-29T10:45:21Z</time></trkpt><trkpt lat="38.797764640150206" lon="-9.480399274574795"><ele>35.0</ele><time>2026-03-29T10:45:22Z</time></trkpt><trkpt lat="38.79765174307306" lon="-9.480308080305358"><ele>37.0</ele><time>2026-03-29T10:45:23Z</time></trkpt><trkpt lat="38.79753577337783" lon="-9.480213173436816"><ele>39.0</ele><time>2026-03-29T10:45:24Z</time></trkpt><trkpt lat="38.79742454092989" lon="-9.480119149121714"><ele>40.0</ele><time>2026-03-29T10:45:25Z</time></trkpt><trkpt lat="38.79731664875206" lon="-9.480022671262528"><ele>41.0</ele><time>2026-03-29T10:45:26Z</time></trkpt><trkpt lat="38.7972144377535" lon="-9.479916167166127"><ele>42.0</ele><time>2026-03-29T10:45:27Z</time></trkpt><trkpt lat="38.79713101582648" lon="-9.479795271372643"><ele>43.0</ele><time>2026-03-29T10:45:28Z</time></trkpt><trkpt lat="38.79703051308474" lon="-9.479693323491148"><ele>45.75</ele><time>2026-03-29T10:45:29Z</time></trkpt><trkpt lat="38.79693559225593" lon="-9.479578059674965"><ele>48.5</ele><time>2026-03-29T10:45:30Z</time></trkpt><trkpt lat="38.79684417418623" lon="-9.47946498730921"><ele>51.25</ele><time>2026-03-29T10:45:31Z</time></trkpt><trkpt lat="38.79675284701652" lon="-9.479340651689267"><ele>54.0</ele><time>2026-03-29T10:45:32Z</time></trkpt><trkpt lat="38.796663870129976" lon="-9.47919423134799"><ele>54.0</ele><time>2026-03-29T10:45:33Z</time></trkpt><trkpt lat="38.79659105340974" lon="-9.479043231863699"><ele>54.0</ele><time>2026-03-29T10:45:34Z</time></trkpt><trkpt lat="38.79650776300835" lon="-9.478918868146305"><ele>54.0</ele><time>2026-03-29T10:45:35Z</time></trkpt><trkpt lat="38.79639922034986" lon="-9.478824491543937"><ele>54.0</ele><time>2026-03-29T10:45:36Z</time></trkpt><trkpt lat="38.79627753651999" lon="-9.478741453043318"><ele>57.5</ele><time>2026-03-29T10:45:37Z</time></trkpt><trkpt lat="38.79616731612019" lon="-9.478655597185988"><ele>61.0</ele><time>2026-03-29T10:45:38Z</time></trkpt><trkpt lat="38.79607271903242" lon="-9.47854964095644"><ele>64.5</ele><time>2026-03-29T10:45:39Z</time></trkpt><trkpt lat="38.79602466351529" lon="-9.478435482300183"><ele>68.0</ele><time>2026-03-29T10:45:40Z</time></trkpt><trkpt lat="38.796041319831374" lon="-9.478302149483644"><ele>68.0</ele><time>2026-03-29T10:45:41Z</time></trkpt><trkpt lat="38.79609845547295" lon="-9.478208106417533"><ele>68.0</ele><time>2026-03-29T10:45:42Z</time></trkpt><trkpt lat="38.79618197973115" lon="-9.478180758283983"><ele>68.0</ele><time>2026-03-29T10:45:43Z</time></trkpt><trkpt lat="38.79628332478193" lon="-9.478172958847985"><ele>68.0</ele><time>2026-03-29T10:45:44Z</time></trkpt><trkpt lat="38.79638301161987" lon="-9.4781383886348"><ele>68.0</ele><time>2026-03-29T10:45:45Z</time></trkpt><trkpt lat="38.7964581848905" lon="-9.478128891587327"><ele>68.0</ele><time>2026-03-29T10:45:46Z</time></trkpt><trkpt lat="38.79654725072478" lon="-9.478115066745737"><ele>68.0</ele><time>2026-03-29T10:45:47Z</time></trkpt><trkpt lat="38.79664133807952" lon="-9.478065869895365"><ele>68.0</ele><time>2026-03-29T10:45:48Z</time></trkpt><trkpt lat="38.79667903046329" lon="-9.477938324991703"><ele>68.0</ele><time>2026-03-29T10:45:49Z</time></trkpt><trkpt lat="38.79668163241573" lon="-9.477813814373453"><ele>68.0</ele><time>2026-03-29T10:45:50Z</time></trkpt><trkpt lat="38.796703096252685" lon="-9.477665615219681"><ele>70.25</ele><time>2026-03-29T10:45:51Z</time></trkpt><trkpt lat="38.796723519059945" lon="-9.477516966074578"><ele>72.5</ele><time>2026-03-29T10:45:52Z</time></trkpt><trkpt lat="38.796747059462284" lon="-9.477353188489515"><ele>74.75</ele><time>2026-03-29T10:45:53Z</time></trkpt><trkpt lat="38.7967904456214" lon="-9.477189210147573"><ele>77.0</ele><time>2026-03-29T10:45:54Z</time></trkpt><trkpt lat="38.7968158969718" lon="-9.477023539642309"><ele>81.25</ele><time>2026-03-29T10:45:55Z</time></trkpt><trkpt lat="38.796866306095644" lon="-9.476864758886904"><ele>85.5</ele><time>2026-03-29T10:45:56Z</time></trkpt><trkpt lat="38.7969411792708" lon="-9.476705947438877"><ele>89.75</ele><time>2026-03-29T10:45:57Z</time></trkpt><trkpt lat="38.79702967887103" lon="-9.476554393344868"><ele>94.0</ele><time>2026-03-29T10:45:58Z</time></trkpt><trkpt lat="38.79712783749165" lon="-9.476392904648904"><ele>94.66666666666666</ele><time>2026-03-29T10:45:59Z</time></trkpt><trkpt lat="38.797232390744426" lon="-9.47623912903157"><ele>95.33333333333333</ele><time>2026-03-29T10:46:00Z</time></trkpt><trkpt lat="38.79732619092354" lon="-9.476096242079016"><ele>96.0</ele><time>2026-03-29T10:46:01Z</time></trkpt><trkpt lat="38.797416357841584" lon="-9.47594974849349"><ele>96.0</ele><time>2026-03-29T10:46:02Z</time></trkpt><trkpt lat="38.79749530748766" lon="-9.475803510955279"><ele>96.0</ele><time>2026-03-29T10:46:03Z</time></trkpt><trkpt lat="38.797534205250756" lon="-9.475650526521763"><ele>96.0</ele><time>2026-03-29T10:46:04Z</time></trkpt><trkpt lat="38.79754669284029" lon="-9.475488479209464"><ele>96.0</ele><time>2026-03-29T10:46:05Z</time></trkpt><trkpt lat="38.79751321870508" lon="-9.475346589745522"><ele>98.0</ele><time>2026-03-29T10:46:06Z</time></trkpt><trkpt lat="38.79745596119211" lon="-9.475215113312398"><ele>100.0</ele><time>2026-03-29T10:46:07Z</time></trkpt><trkpt lat="38.797393523247116" lon="-9.475072992362227"><ele>102.0</ele><time>2026-03-29T10:46:08Z</time></trkpt><trkpt lat="38.79733360910375" lon="-9.474928870863787"><ele>104.0</ele><time>2026-03-29T10:46:09Z</time></trkpt><trkpt lat="38.797307221414776" lon="-9.474815568952321"><ele>104.0</ele><time>2026-03-29T10:46:10Z</time></trkpt><trkpt lat="38.79728500617294" lon="-9.474706279580955"><ele>104.0</ele><time>2026-03-29T10:46:11Z</time></trkpt><trkpt lat="38.797302249749464" lon="-9.474581564455034"><ele>104.0</ele><time>2026-03-29T10:46:12Z</time></trkpt><trkpt lat="38.79734092089736" lon="-9.474456091125504"><ele>104.0</ele><time>2026-03-29T10:46:13Z</time></trkpt><trkpt lat="38.79740002795441" lon="-9.474325709589918"><ele>104.0</ele><time>2026-03-29T10:46:14Z</time></trkpt><trkpt lat="38.79745897184558" lon="-9.474186010097158"><ele>107.25</ele><time>2026-03-29T10:46:15Z</time></trkpt><trkpt lat="38.797499828407034" lon="-9.474047673537141"><ele>110.5</ele><time>2026-03-29T10:46:16Z</time></trkpt><trkpt lat="38.797526018038106" lon="-9.473912721889175"><ele>113.75</ele><time>2026-03-29T10:46:17Z</time></trkpt><trkpt lat="38.797545994812346" lon="-9.473768728563083"><ele>117.0</ele><time>2026-03-29T10:46:18Z</time></trkpt><trkpt lat="38.797571315507746" lon="-9.473627487927208"><ele>118.33333333333333</ele><time>2026-03-29T10:46:19Z</time></trkpt><trkpt lat="38.79759366626276" lon="-9.473517245985098"><ele>119.66666666666666</ele><time>2026-03-29T10:46:20Z</time></trkpt><trkpt lat="38.7975901094184" lon="-9.473420112365755"><ele>121.0</ele><time>2026-03-29T10:46:21Z</time></trkpt><trkpt lat="38.79757130743677" lon="-9.473336493177086"><ele>122.33333333333333</ele><time>2026-03-29T10:46:22Z</time></trkpt><trkpt lat="38.7975275510483" lon="-9.473227374478064"><ele>123.66666666666666</ele><time>2026-03-29T10:46:23Z</time></trkpt><trkpt lat="38.797464505814425" lon="-9.473121462627903"><ele>125.0</ele><time>2026-03-29T10:46:24Z</time></trkpt><trkpt lat="38.79740359046112" lon="-9.473003134326124"><ele>125.8</ele><time>2026-03-29T10:46:25Z</time></trkpt><trkpt lat="38.79734771697511" lon="-9.472886553587047"><ele>126.6</ele><time>2026-03-29T10:46:26Z</time></trkpt><trkpt lat="38.79729224976072" lon="-9.472794965036526"><ele>127.4</ele><time>2026-03-29T10:46:27Z</time></trkpt><trkpt lat="38.79724653729995" lon="-9.47268751208223"><ele>128.2</ele><time>2026-03-29T10:46:29Z</time></trkpt><trkpt lat="38.797242930054225" lon="-9.472582869363057"><ele>129.0</ele><time>2026-03-29T10:46:32Z</time></trkpt><trkpt lat="38.797201474136294" lon="-9.472483903520839"><ele>129.0</ele><time>2026-03-29T10:46:34Z</time></trkpt><trkpt lat="38.7971818030147" lon="-9.472395403313673"><ele>129.0</ele><time>2026-03-29T10:46:35Z</time></trkpt><trkpt lat="38.79715203783684" lon="-9.472289905328633"><ele>129.0</ele><time>2026-03-29T10:46:36Z</time></trkpt><trkpt lat="38.79711966231278" lon="-9.472184091451767"><ele>129.0</ele><time>2026-03-29T10:46:37Z</time></trkpt><trkpt lat="38.797084235716696" lon="-9.472069524331918"><ele>129.0</ele><time>2026-03-29T10:46:38Z</time></trkpt><trkpt lat="38.7970270883731" lon="-9.471961407119142"><ele>129.0</ele><time>2026-03-29T10:46:39Z</time></trkpt><trkpt lat="38.79697620030927" lon="-9.471857906590078"><ele>130.0</ele><time>2026-03-29T10:46:40Z</time></trkpt><trkpt lat="38.79695400312986" lon="-9.471734684384648"><ele>131.0</ele><time>2026-03-29T10:46:41Z</time></trkpt><trkpt lat="38.79693819748906" lon="-9.471578554520889"><ele>132.0</ele><time>2026-03-29T10:46:42Z</time></trkpt><trkpt lat="38.796920084030646" lon="-9.47142282707848"><ele>133.0</ele><time>2026-03-29T10:46:43Z</time></trkpt><trkpt lat="38.79690180223667" lon="-9.471299983948333"><ele>134.0</ele><time>2026-03-29T10:46:44Z</time></trkpt><trkpt lat="38.79686293376512" lon="-9.471217003888333"><ele>135.6</ele><time>2026-03-29T10:46:45Z</time></trkpt><trkpt lat="38.79679911435436" lon="-9.471132963209053"><ele>137.2</ele><time>2026-03-29T10:46:47Z</time></trkpt><trkpt lat="38.796712172366924" lon="-9.470988255066983"><ele>138.79999999999998</ele><time>2026-03-29T10:46:49Z</time></trkpt><trkpt lat="38.79665409865829" lon="-9.470903271196335"><ele>140.4</ele><time>2026-03-29T10:46:50Z</time></trkpt><trkpt lat="38.796585085928946" lon="-9.470807613126222"><ele>142.0</ele><time>2026-03-29T10:46:51Z</time></trkpt><trkpt lat="38.7965233665909" lon="-9.470736473314048"><ele>142.0</ele><time>2026-03-29T10:46:52Z</time></trkpt><trkpt lat="38.796474169418794" lon="-9.470671569523649"><ele>142.0</ele><time>2026-03-29T10:46:53Z</time></trkpt><trkpt lat="38.79643550104679" lon="-9.470606867960297"><ele>142.0</ele><time>2026-03-29T10:46:54Z</time></trkpt><trkpt lat="38.79641480198419" lon="-9.47052728395174"><ele>142.0</ele><time>2026-03-29T10:46:55Z</time></trkpt><trkpt lat="38.796369630430085" lon="-9.470419864992543"><ele>142.0</ele><time>2026-03-29T10:46:57Z</time></trkpt><trkpt lat="38.796414264930185" lon="-9.470350564741858"><ele>142.0</ele><time>2026-03-29T10:47:01Z</time></trkpt><trkpt lat="38.79648236320204" lon="-9.470369482412694"><ele>142.0</ele><time>2026-03-29T10:47:03Z</time></trkpt><trkpt lat="38.79658688319538" lon="-9.4703800258111"><ele>142.0</ele><time>2026-03-29T10:47:04Z</time></trkpt><trkpt lat="38.79667378608585" lon="-9.470427522543677"><ele>142.0</ele><time>2026-03-29T10:47:05Z</time></trkpt><trkpt lat="38.79674534567481" lon="-9.47044750546115"><ele>142.0</ele><time>2026-03-29T10:47:06Z</time></trkpt><trkpt lat="38.796825522004056" lon="-9.470448042547657"><ele>142.0</ele><time>2026-03-29T10:47:07Z</time></trkpt><trkpt lat="38.796902185967156" lon="-9.470424009287447"><ele>142.0</ele><time>2026-03-29T10:47:08Z</time></trkpt><trkpt lat="38.79695963501055" lon="-9.470319020877033"><ele>142.0</ele><time>2026-03-29T10:47:09Z</time></trkpt><trkpt lat="38.79701215317649" lon="-9.470218277135555"><ele>141.2</ele><time>2026-03-29T10:47:10Z</time></trkpt><trkpt lat="38.79706121982581" lon="-9.470106359028772"><ele>140.39999999999998</ele><time>2026-03-29T10:47:11Z</time></trkpt><trkpt lat="38.79710261305621" lon="-9.469990493887313"><ele>139.60000000000002</ele><time>2026-03-29T10:47:12Z</time></trkpt><trkpt lat="38.79716488662267" lon="-9.469863429073412"><ele>138.8</ele><time>2026-03-29T10:47:13Z</time></trkpt><trkpt lat="38.79722678241461" lon="-9.469713015771514"><ele>138.0</ele><time>2026-03-29T10:47:14Z</time></trkpt><trkpt lat="38.79728911687155" lon="-9.46955296122393"><ele>137.5</ele><time>2026-03-29T10:47:15Z</time></trkpt><trkpt lat="38.79735848636008" lon="-9.469401660665314"><ele>137.0</ele><time>2026-03-29T10:47:16Z</time></trkpt><trkpt lat="38.79743100623126" lon="-9.46923868358063"><ele>136.5</ele><time>2026-03-29T10:47:17Z</time></trkpt><trkpt lat="38.79751079810126" lon="-9.469116555926126"><ele>136.0</ele><time>2026-03-29T10:47:18Z</time></trkpt><trkpt lat="38.79754873119691" lon="-9.468976640727137"><ele>136.0</ele><time>2026-03-29T10:47:19Z</time></trkpt><trkpt lat="38.79758489549489" lon="-9.468862095922844"><ele>136.0</ele><time>2026-03-29T10:47:20Z</time></trkpt><trkpt lat="38.797604265947214" lon="-9.468750037175015"><ele>136.0</ele><time>2026-03-29T10:47:21Z</time></trkpt><trkpt lat="38.79760257497387" lon="-9.46863466709988"><ele>136.0</ele><time>2026-03-29T10:47:22Z</time></trkpt><trkpt lat="38.797585371076615" lon="-9.468527079603762"><ele>136.0</ele><time>2026-03-29T10:47:23Z</time></trkpt><trkpt lat="38.797594392584124" lon="-9.468411389290967"><ele>135.66666666666669</ele><time>2026-03-29T10:47:24Z</time></trkpt><trkpt lat="38.79761609327058" lon="-9.468313507794912"><ele>135.33333333333334</ele><time>2026-03-29T10:47:25Z</time></trkpt><trkpt lat="38.797655700068205" lon="-9.468226681494826"><ele>135.0</ele><time>2026-03-29T10:47:26Z</time></trkpt><trkpt lat="38.797714484707605" lon="-9.468166311649751"><ele>134.66666666666666</ele><time>2026-03-29T10:47:27Z</time></trkpt><trkpt lat="38.7977561777697" lon="-9.468085399657747"><ele>134.33333333333331</ele><time>2026-03-29T10:47:28Z</time></trkpt><trkpt lat="38.79777253360349" lon="-9.467995175003098"><ele>134.0</ele><time>2026-03-29T10:47:29Z</time></trkpt><trkpt lat="38.79779702160884" lon="-9.46790930358791"><ele>132.28571428571428</ele><time>2026-03-29T10:47:30Z</time></trkpt><trkpt lat="38.79780849604978" lon="-9.467818632293922"><ele>130.57142857142856</ele><time>2026-03-29T10:47:31Z</time></trkpt><trkpt lat="38.79780928573046" lon="-9.4677137919367"><ele>128.85714285714283</ele><time>2026-03-29T10:47:32Z</time></trkpt><trkpt lat="38.79783614149026" lon="-9.467621928554651"><ele>127.14285714285714</ele><time>2026-03-29T10:47:33Z</time></trkpt><trkpt lat="38.79787552480139" lon="-9.467550476260191"><ele>125.42857142857142</ele><time>2026-03-29T10:47:34Z</time></trkpt><trkpt lat="38.79793040675324" lon="-9.46750644934245"><ele>123.7142857142857</ele><time>2026-03-29T10:47:35Z</time></trkpt><trkpt lat="38.798003573312" lon="-9.467450458706539"><ele>121.99999999999999</ele><time>2026-03-29T10:47:36Z</time></trkpt><trkpt lat="38.798081762683736" lon="-9.467402194460615"><ele>121.99999999999999</ele><time>2026-03-29T10:47:37Z</time></trkpt><trkpt lat="38.79815210026687" lon="-9.46737004637162"><ele>122.0</ele><time>2026-03-29T10:47:38Z</time></trkpt><trkpt lat="38.798219329057034" lon="-9.46735016432154"><ele>122.0</ele><time>2026-03-29T10:47:39Z</time></trkpt><trkpt lat="38.798303145746914" lon="-9.467313488628475"><ele>122.0</ele><time>2026-03-29T10:47:40Z</time></trkpt><trkpt lat="38.798377586210655" lon="-9.46727908901531"><ele>121.99999999999999</ele><time>2026-03-29T10:47:41Z</time></trkpt><trkpt lat="38.79845088926137" lon="-9.467240630301802"><ele>122.0</ele><time>2026-03-29T10:47:42Z</time></trkpt><trkpt lat="38.79851218217478" lon="-9.46719378510911"><ele>122.33333333333333</ele><time>2026-03-29T10:47:43Z</time></trkpt><trkpt lat="38.79855866369801" lon="-9.467104632797064"><ele>122.66666666666666</ele><time>2026-03-29T10:47:44Z</time></trkpt><trkpt lat="38.79860894614667" lon="-9.467008467023186"><ele>123.0</ele><time>2026-03-29T10:47:45Z</time></trkpt><trkpt lat="38.798655314954146" lon="-9.46690782370398"><ele>123.33333333333334</ele><time>2026-03-29T10:47:46Z</time></trkpt><trkpt lat="38.79869948145224" lon="-9.46682769967029"><ele>123.66666666666667</ele><time>2026-03-29T10:47:47Z</time></trkpt><trkpt lat="38.798742077775536" lon="-9.466745186244504"><ele>124.0</ele><time>2026-03-29T10:47:48Z</time></trkpt><trkpt lat="38.798785727687815" lon="-9.46665787457547"><ele>124.00000000000001</ele><time>2026-03-29T10:47:49Z</time></trkpt><trkpt lat="38.79884505284417" lon="-9.466577227849813"><ele>124.0</ele><time>2026-03-29T10:47:50Z</time></trkpt><trkpt lat="38.7988800370307" lon="-9.466475129148202"><ele>124.0</ele><time>2026-03-29T10:47:51Z</time></trkpt><trkpt lat="38.79893708386924" lon="-9.466402877769154"><ele>124.0</ele><time>2026-03-29T10:47:52Z</time></trkpt><trkpt lat="38.798974712799414" lon="-9.466323969925808"><ele>124.00000000000001</ele><time>2026-03-29T10:47:53Z</time></trkpt><trkpt lat="38.79901422325838" lon="-9.466189633155386"><ele>124.0</ele><time>2026-03-29T10:47:55Z</time></trkpt><trkpt lat="38.799065107459576" lon="-9.46610377466114"><ele>124.75</ele><time>2026-03-29T10:47:57Z</time></trkpt><trkpt lat="38.79909289310868" lon="-9.466027449117805"><ele>125.5</ele><time>2026-03-29T10:48:12Z</time></trkpt><trkpt lat="38.79919133086518" lon="-9.466130317418607"><ele>126.25</ele><time>2026-03-29T10:48:15Z</time></trkpt><trkpt lat="38.799279996699084" lon="-9.466237096893437"><ele>127.0</ele><time>2026-03-29T10:48:16Z</time></trkpt><trkpt lat="38.79936242569597" lon="-9.466387058709314"><ele>127.25</ele><time>2026-03-29T10:48:17Z</time></trkpt><trkpt lat="38.799451304297634" lon="-9.466537436466487"><ele>127.5</ele><time>2026-03-29T10:48:18Z</time></trkpt><trkpt lat="38.799553901136086" lon="-9.466675621300185"><ele>127.75</ele><time>2026-03-29T10:48:19Z</time></trkpt><trkpt lat="38.79962862821612" lon="-9.466793584047005"><ele>128.0</ele><time>2026-03-29T10:48:20Z</time></trkpt><trkpt lat="38.79969016681932" lon="-9.46690417966838"><ele>128.0</ele><time>2026-03-29T10:48:21Z</time></trkpt><trkpt lat="38.79973283554491" lon="-9.467018470674079"><ele>128.0</ele><time>2026-03-29T10:48:22Z</time></trkpt><trkpt lat="38.79976015763638" lon="-9.467153506765897"><ele>128.0</ele><time>2026-03-29T10:48:23Z</time></trkpt><trkpt lat="38.79978792406229" lon="-9.467309432871948"><ele>128.0</ele><time>2026-03-29T10:48:24Z</time></trkpt><trkpt lat="38.79981357984743" lon="-9.467475828536502"><ele>127.60000000000001</ele><time>2026-03-29T10:48:25Z</time></trkpt><trkpt lat="38.799842171082815" lon="-9.467616417624063"><ele>127.20000000000002</ele><time>2026-03-29T10:48:26Z</time></trkpt><trkpt lat="38.799872810094236" lon="-9.467734724006073"><ele>126.8</ele><time>2026-03-29T10:48:27Z</time></trkpt><trkpt lat="38.79993693044101" lon="-9.467831185494742"><ele>126.4</ele><time>2026-03-29T10:48:28Z</time></trkpt><trkpt lat="38.7999800737225" lon="-9.467947862047247"><ele>126.0</ele><time>2026-03-29T10:48:29Z</time></trkpt><trkpt lat="38.80003357390028" lon="-9.46803215324139"><ele>125.83333333333333</ele><time>2026-03-29T10:48:30Z</time></trkpt><trkpt lat="38.800081714041106" lon="-9.46810516744919"><ele>125.66666666666666</ele><time>2026-03-29T10:48:31Z</time></trkpt><trkpt lat="38.800133037587166" lon="-9.468197616383273"><ele>125.5</ele><time>2026-03-29T10:48:32Z</time></trkpt><trkpt lat="38.80018527341336" lon="-9.468277610564165"><ele>125.33333333333333</ele><time>2026-03-29T10:48:33Z</time></trkpt><trkpt lat="38.80024970530491" lon="-9.468344825917473"><ele>125.16666666666666</ele><time>2026-03-29T10:48:34Z</time></trkpt><trkpt lat="38.800342792956506" lon="-9.46841045212816"><ele>125.0</ele><time>2026-03-29T10:48:35Z</time></trkpt><trkpt lat="38.800420436451766" lon="-9.468476748362248"><ele>124.85714285714286</ele><time>2026-03-29T10:48:36Z</time></trkpt><trkpt lat="38.80047848536656" lon="-9.468533366125063"><ele>124.71428571428572</ele><time>2026-03-29T10:48:37Z</time></trkpt><trkpt lat="38.80053134866082" lon="-9.46858323154754"><ele>124.57142857142858</ele><time>2026-03-29T10:48:38Z</time></trkpt><trkpt lat="38.800584933429214" lon="-9.468625731007748"><ele>124.42857142857143</ele><time>2026-03-29T10:48:39Z</time></trkpt><trkpt lat="38.80064014220679" lon="-9.468668134019168"><ele>124.2857142857143</ele><time>2026-03-29T10:48:40Z</time></trkpt><trkpt lat="38.80070161416182" lon="-9.468719346670504"><ele>124.14285714285715</ele><time>2026-03-29T10:48:41Z</time></trkpt><trkpt lat="38.80076641381544" lon="-9.468776195135218"><ele>124.0</ele><time>2026-03-29T10:48:42Z</time></trkpt><trkpt lat="38.80082699350772" lon="-9.468829495927771"><ele>124.0</ele><time>2026-03-29T10:48:43Z</time></trkpt><trkpt lat="38.80088556894502" lon="-9.468869055833709"><ele>124.0</ele><time>2026-03-29T10:48:44Z</time></trkpt><trkpt lat="38.8009840475651" lon="-9.468944445921624"><ele>124.0</ele><time>2026-03-29T10:48:46Z</time></trkpt><trkpt lat="38.80110868334049" lon="-9.469040849071662"><ele>124.0</ele><time>2026-03-29T10:48:48Z</time></trkpt><trkpt lat="38.801196656105134" lon="-9.469108371093377"><ele>124.0</ele><time>2026-03-29T10:48:49Z</time></trkpt><trkpt lat="38.801285873951265" lon="-9.46918410800867"><ele>125.66666666666667</ele><time>2026-03-29T10:48:50Z</time></trkpt><trkpt lat="38.80139752614401" lon="-9.469282029743072"><ele>127.33333333333334</ele><time>2026-03-29T10:48:51Z</time></trkpt><trkpt lat="38.80153222474946" lon="-9.469402865924025"><ele>129.0</ele><time>2026-03-29T10:48:52Z</time></trkpt><trkpt lat="38.80167562335002" lon="-9.469525707522077"><ele>128.5</ele><time>2026-03-29T10:48:53Z</time></trkpt><trkpt lat="38.801814315071795" lon="-9.469651782512612"><ele>128.0</ele><time>2026-03-29T10:48:54Z</time></trkpt><trkpt lat="38.80192965471205" lon="-9.469736583127554"><ele>127.5</ele><time>2026-03-29T10:48:55Z</time></trkpt><trkpt lat="38.802030755619604" lon="-9.469821125888402"><ele>127.0</ele><time>2026-03-29T10:48:56Z</time></trkpt><trkpt lat="38.802120973840196" lon="-9.469906061699165"><ele>127.0</ele><time>2026-03-29T10:48:57Z</time></trkpt><trkpt lat="38.80222631679852" lon="-9.469996716114833"><ele>127.0</ele><time>2026-03-29T10:48:58Z</time></trkpt><trkpt lat="38.802342121553075" lon="-9.470107287713475"><ele>127.0</ele><time>2026-03-29T10:48:59Z</time></trkpt><trkpt lat="38.80247336017911" lon="-9.470230491657011"><ele>127.0</ele><time>2026-03-29T10:49:00Z</time></trkpt><trkpt lat="38.802618120598176" lon="-9.47036247301555"><ele>122.66666666666667</ele><time>2026-03-29T10:49:01Z</time></trkpt><trkpt lat="38.80276931161503" lon="-9.470498312178304"><ele>118.33333333333334</ele><time>2026-03-29T10:49:02Z</time></trkpt><trkpt lat="38.80291442953306" lon="-9.470630802646092"><ele>114.0</ele><time>2026-03-29T10:49:03Z</time></trkpt><trkpt lat="38.80306367906226" lon="-9.470762217467644"><ele>114.0</ele><time>2026-03-29T10:49:04Z</time></trkpt><trkpt lat="38.80321526107063" lon="-9.470902136816246"><ele>114.0</ele><time>2026-03-29T10:49:05Z</time></trkpt><trkpt lat="38.80337906455768" lon="-9.471040097662325"><ele>114.0</ele><time>2026-03-29T10:49:06Z</time></trkpt><trkpt lat="38.803536566780345" lon="-9.471194103071786"><ele>114.0</ele><time>2026-03-29T10:49:07Z</time></trkpt><trkpt lat="38.8036901303551" lon="-9.471363157145111"><ele>114.0</ele><time>2026-03-29T10:49:08Z</time></trkpt><trkpt lat="38.80385211889762" lon="-9.471509422672577"><ele>114.0</ele><time>2026-03-29T10:49:09Z</time></trkpt><trkpt lat="38.80401053001681" lon="-9.471647942337837"><ele>114.0</ele><time>2026-03-29T10:49:10Z</time></trkpt><trkpt lat="38.804151078647756" lon="-9.471741206168334"><ele>114.0</ele><time>2026-03-29T10:49:11Z</time></trkpt><trkpt lat="38.80429620232665" lon="-9.471769108509497"><ele>114.0</ele><time>2026-03-29T10:49:12Z</time></trkpt><trkpt lat="38.80444689932015" lon="-9.471775433842424"><ele>114.0</ele><time>2026-03-29T10:49:13Z</time></trkpt><trkpt lat="38.804600787277145" lon="-9.471775142197115"><ele>114.0</ele><time>2026-03-29T10:49:14Z</time></trkpt><trkpt lat="38.804761055387225" lon="-9.4717913002232"><ele>114.0</ele><time>2026-03-29T10:49:15Z</time></trkpt><trkpt lat="38.804919356705085" lon="-9.471799458865691"><ele>114.0</ele><time>2026-03-29T10:49:16Z</time></trkpt><trkpt lat="38.80506097461534" lon="-9.471835869698886"><ele>114.0</ele><time>2026-03-29T10:49:17Z</time></trkpt><trkpt lat="38.80520146598415" lon="-9.471901819714631"><ele>114.0</ele><time>2026-03-29T10:49:18Z</time></trkpt><trkpt lat="38.8053513129349" lon="-9.47198993438539"><ele>115.0</ele><time>2026-03-29T10:49:19Z</time></trkpt><trkpt lat="38.80551277117337" lon="-9.472098930583691"><ele>116.0</ele><time>2026-03-29T10:49:20Z</time></trkpt><trkpt lat="38.80568335069568" lon="-9.472206821203331"><ele>117.0</ele><time>2026-03-29T10:49:21Z</time></trkpt><trkpt lat="38.80586509330877" lon="-9.472309557327897"><ele>119.0</ele><time>2026-03-29T10:49:22Z</time></trkpt><trkpt lat="38.806042350094906" lon="-9.47240574003003"><ele>121.0</ele><time>2026-03-29T10:49:23Z</time></trkpt><trkpt lat="38.80619852272921" lon="-9.472492071330679"><ele>123.0</ele><time>2026-03-29T10:49:24Z</time></trkpt><trkpt lat="38.80633897343687" lon="-9.47257875180189"><ele>123.0</ele><time>2026-03-29T10:49:25Z</time></trkpt><trkpt lat="38.806465208125324" lon="-9.472651590613102"><ele>123.0</ele><time>2026-03-29T10:49:26Z</time></trkpt><trkpt lat="38.80658775168246" lon="-9.472711397655594"><ele>123.0</ele><time>2026-03-29T10:49:27Z</time></trkpt><trkpt lat="38.80670857307067" lon="-9.47274346208092"><ele>123.0</ele><time>2026-03-29T10:49:28Z</time></trkpt><trkpt lat="38.80684394786249" lon="-9.472750493742977"><ele>121.25</ele><time>2026-03-29T10:49:29Z</time></trkpt><trkpt lat="38.80698303786268" lon="-9.472742177670673"><ele>119.5</ele><time>2026-03-29T10:49:30Z</time></trkpt><trkpt lat="38.80710574369556" lon="-9.472727053806276"><ele>117.75</ele><time>2026-03-29T10:49:31Z</time></trkpt><trkpt lat="38.80721469055208" lon="-9.472707173514852"><ele>116.0</ele><time>2026-03-29T10:49:32Z</time></trkpt><trkpt lat="38.80733111917662" lon="-9.472679891671653"><ele>116.0</ele><time>2026-03-29T10:49:33Z</time></trkpt><trkpt lat="38.80745012501673" lon="-9.472601210951952"><ele>116.0</ele><time>2026-03-29T10:49:34Z</time></trkpt><trkpt lat="38.807588952116404" lon="-9.47252222414784"><ele>116.0</ele><time>2026-03-29T10:49:35Z</time></trkpt><trkpt lat="38.807718458593605" lon="-9.472438804738527"><ele>116.0</ele><time>2026-03-29T10:49:36Z</time></trkpt><trkpt lat="38.80784237447662" lon="-9.47237018321013"><ele>115.0</ele><time>2026-03-29T10:49:37Z</time></trkpt><trkpt lat="38.80796444087545" lon="-9.472301169024089"><ele>114.0</ele><time>2026-03-29T10:49:38Z</time></trkpt><trkpt lat="38.80809059183219" lon="-9.472252771533217"><ele>113.0</ele><time>2026-03-29T10:49:39Z</time></trkpt><trkpt lat="38.80821095672785" lon="-9.472197461940144"><ele>112.0</ele><time>2026-03-29T10:49:40Z</time></trkpt><trkpt lat="38.8083239214432" lon="-9.47211314403058"><ele>111.0</ele><time>2026-03-29T10:49:41Z</time></trkpt><trkpt lat="38.80844196989774" lon="-9.472033040425151"><ele>110.0</ele><time>2026-03-29T10:49:42Z</time></trkpt><trkpt lat="38.808556354378744" lon="-9.471954226767794"><ele>109.0</ele><time>2026-03-29T10:49:43Z</time></trkpt><trkpt lat="38.80865776326397" lon="-9.471879341299964"><ele>108.0</ele><time>2026-03-29T10:49:44Z</time></trkpt><trkpt lat="38.808753999793986" lon="-9.471817456917767"><ele>104.5</ele><time>2026-03-29T10:49:45Z</time></trkpt><trkpt lat="38.80886518296824" lon="-9.471789010722098"><ele>101.0</ele><time>2026-03-29T10:49:46Z</time></trkpt><trkpt lat="38.80896785758095" lon="-9.471838924915852"><ele>97.5</ele><time>2026-03-29T10:49:47Z</time></trkpt><trkpt lat="38.809099209933805" lon="-9.471871536323853"><ele>94.0</ele><time>2026-03-29T10:49:48Z</time></trkpt><trkpt lat="38.809244934126376" lon="-9.471921028320212"><ele>90.33333333333333</ele><time>2026-03-29T10:49:49Z</time></trkpt><trkpt lat="38.80940067694752" lon="-9.471953101179592"><ele>86.66666666666667</ele><time>2026-03-29T10:49:50Z</time></trkpt><trkpt lat="38.80954953307926" lon="-9.471969410472331"><ele>83.0</ele><time>2026-03-29T10:49:51Z</time></trkpt><trkpt lat="38.8096952678383" lon="-9.471991824220225"><ele>83.0</ele><time>2026-03-29T10:49:52Z</time></trkpt><trkpt lat="38.80984267172486" lon="-9.47202108427042"><ele>83.0</ele><time>2026-03-29T10:49:53Z</time></trkpt><trkpt lat="38.80998562617173" lon="-9.472071514430647"><ele>83.0</ele><time>2026-03-29T10:49:54Z</time></trkpt><trkpt lat="38.8101162456771" lon="-9.472138644868615"><ele>83.0</ele><time>2026-03-29T10:49:55Z</time></trkpt><trkpt lat="38.81024680407559" lon="-9.47220031163113"><ele>82.25</ele><time>2026-03-29T10:49:56Z</time></trkpt><trkpt lat="38.81037660271565" lon="-9.47224727954597"><ele>81.5</ele><time>2026-03-29T10:49:57Z</time></trkpt><trkpt lat="38.81051206897558" lon="-9.472295037853856"><ele>80.75</ele><time>2026-03-29T10:49:58Z</time></trkpt><trkpt lat="38.8106489356057" lon="-9.472332393333138"><ele>80.0</ele><time>2026-03-29T10:49:59Z</time></trkpt><trkpt lat="38.81078425306932" lon="-9.472346321968468"><ele>80.0</ele><time>2026-03-29T10:50:00Z</time></trkpt><trkpt lat="38.8109098853849" lon="-9.472350308126124"><ele>80.0</ele><time>2026-03-29T10:50:01Z</time></trkpt><trkpt lat="38.81104225535041" lon="-9.47234562253529"><ele>80.0</ele><time>2026-03-29T10:50:02Z</time></trkpt><trkpt lat="38.81117287295627" lon="-9.472344835544973"><ele>80.0</ele><time>2026-03-29T10:50:03Z</time></trkpt><trkpt lat="38.81130654711693" lon="-9.4723335780213"><ele>78.0</ele><time>2026-03-29T10:50:04Z</time></trkpt><trkpt lat="38.811435850149884" lon="-9.472318596491304"><ele>76.0</ele><time>2026-03-29T10:50:05Z</time></trkpt><trkpt lat="38.81159196609491" lon="-9.472300281098992"><ele>74.0</ele><time>2026-03-29T10:50:06Z</time></trkpt><trkpt lat="38.811756670415846" lon="-9.472285012703068"><ele>72.33333333333334</ele><time>2026-03-29T10:50:07Z</time></trkpt><trkpt lat="38.811919653169916" lon="-9.472253358251201"><ele>70.66666666666667</ele><time>2026-03-29T10:50:08Z</time></trkpt><trkpt lat="38.812080587388785" lon="-9.472219240408988"><ele>69.0</ele><time>2026-03-29T10:50:09Z</time></trkpt><trkpt lat="38.812234193904686" lon="-9.472187012244456"><ele>69.0</ele><time>2026-03-29T10:50:10Z</time></trkpt><trkpt lat="38.81237942929406" lon="-9.472147958028273"><ele>69.0</ele><time>2026-03-29T10:50:11Z</time></trkpt><trkpt lat="38.812522876148414" lon="-9.472114759855888"><ele>69.0</ele><time>2026-03-29T10:50:12Z</time></trkpt><trkpt lat="38.812670831688116" lon="-9.472093980828195"><ele>69.0</ele><time>2026-03-29T10:50:13Z</time></trkpt><trkpt lat="38.81281457198987" lon="-9.472076621342138"><ele>68.5</ele><time>2026-03-29T10:50:14Z</time></trkpt><trkpt lat="38.81295570865093" lon="-9.47205793316919"><ele>68.0</ele><time>2026-03-29T10:50:15Z</time></trkpt><trkpt lat="38.81309529684129" lon="-9.472034447745077"><ele>67.5</ele><time>2026-03-29T10:50:16Z</time></trkpt><trkpt lat="38.81322724193908" lon="-9.47201772687588"><ele>67.0</ele><time>2026-03-29T10:50:17Z</time></trkpt><trkpt lat="38.813355282988574" lon="-9.472001763740833"><ele>67.0</ele><time>2026-03-29T10:50:18Z</time></trkpt><trkpt lat="38.81347147598102" lon="-9.47197194474771"><ele>67.0</ele><time>2026-03-29T10:50:19Z</time></trkpt><trkpt lat="38.813581211791565" lon="-9.471944592627608"><ele>67.0</ele><time>2026-03-29T10:50:20Z</time></trkpt><trkpt lat="38.81368000084354" lon="-9.47190942303109"><ele>67.0</ele><time>2026-03-29T10:50:21Z</time></trkpt><trkpt lat="38.81377631700239" lon="-9.471889903414999"><ele>67.0</ele><time>2026-03-29T10:50:22Z</time></trkpt><trkpt lat="38.81387895166221" lon="-9.471906241745229"><ele>66.25</ele><time>2026-03-29T10:50:23Z</time></trkpt><trkpt lat="38.813980590061455" lon="-9.471987866020584"><ele>65.5</ele><time>2026-03-29T10:50:24Z</time></trkpt><trkpt lat="38.814066440987716" lon="-9.47210716026568"><ele>64.75</ele><time>2026-03-29T10:50:25Z</time></trkpt><trkpt lat="38.814139623344424" lon="-9.472253579238389"><ele>64.0</ele><time>2026-03-29T10:50:26Z</time></trkpt><trkpt lat="38.81421694973316" lon="-9.472417105465496"><ele>63.25</ele><time>2026-03-29T10:50:27Z</time></trkpt><trkpt lat="38.814291836295" lon="-9.472559645486614"><ele>62.5</ele><time>2026-03-29T10:50:28Z</time></trkpt><trkpt lat="38.814375603191834" lon="-9.47267392786332"><ele>61.75</ele><time>2026-03-29T10:50:29Z</time></trkpt><trkpt lat="38.81448351930827" lon="-9.472756526065945"><ele>61.0</ele><time>2026-03-29T10:50:30Z</time></trkpt><trkpt lat="38.81460496487953" lon="-9.472796817996322"><ele>60.0</ele><time>2026-03-29T10:50:31Z</time></trkpt><trkpt lat="38.81474261183411" lon="-9.472799965371527"><ele>59.0</ele><time>2026-03-29T10:50:32Z</time></trkpt><trkpt lat="38.814884054772065" lon="-9.472791488854595"><ele>58.0</ele><time>2026-03-29T10:50:33Z</time></trkpt><trkpt lat="38.815012844049384" lon="-9.47273402571833"><ele>57.0</ele><time>2026-03-29T10:50:34Z</time></trkpt><trkpt lat="38.815138765832835" lon="-9.472704321671984"><ele>56.5</ele><time>2026-03-29T10:50:35Z</time></trkpt><trkpt lat="38.81525007241068" lon="-9.472643837438603"><ele>56.0</ele><time>2026-03-29T10:50:36Z</time></trkpt><trkpt lat="38.81535611974878" lon="-9.472590574823165"><ele>55.5</ele><time>2026-03-29T10:50:37Z</time></trkpt><trkpt lat="38.815456210448865" lon="-9.472534255657987"><ele>55.0</ele><time>2026-03-29T10:50:38Z</time></trkpt><trkpt lat="38.8155585180181" lon="-9.472464636113923"><ele>55.0</ele><time>2026-03-29T10:50:39Z</time></trkpt><trkpt lat="38.81566880148854" lon="-9.472389965020712"><ele>55.0</ele><time>2026-03-29T10:50:40Z</time></trkpt><trkpt lat="38.815777211135945" lon="-9.472314404792973"><ele>55.0</ele><time>2026-03-29T10:50:41Z</time></trkpt><trkpt lat="38.815892013973766" lon="-9.47224394647932"><ele>55.0</ele><time>2026-03-29T10:50:42Z</time></trkpt><trkpt lat="38.81601700097137" lon="-9.47218616872625"><ele>54.0</ele><time>2026-03-29T10:50:43Z</time></trkpt><trkpt lat="38.81614712685102" lon="-9.472140411030537"><ele>53.0</ele><time>2026-03-29T10:50:44Z</time></trkpt><trkpt lat="38.816286094356606" lon="-9.472119976615389"><ele>52.0</ele><time>2026-03-29T10:50:45Z</time></trkpt><trkpt lat="38.81642958842026" lon="-9.47211750589383"><ele>51.0</ele><time>2026-03-29T10:50:46Z</time></trkpt><trkpt lat="38.816575214822066" lon="-9.472119929910203"><ele>51.0</ele><time>2026-03-29T10:50:47Z</time></trkpt><trkpt lat="38.81671658164848" lon="-9.472107011210039"><ele>51.0</ele><time>2026-03-29T10:50:48Z</time></trkpt><trkpt lat="38.8168540262479" lon="-9.472102061218699"><ele>51.0</ele><time>2026-03-29T10:50:49Z</time></trkpt><trkpt lat="38.81699217990176" lon="-9.472097371641558"><ele>51.0</ele><time>2026-03-29T10:50:50Z</time></trkpt><trkpt lat="38.817123307893645" lon="-9.472087485515964"><ele>51.25</ele><time>2026-03-29T10:50:51Z</time></trkpt><trkpt lat="38.81725001734815" lon="-9.472071483058151"><ele>51.5</ele><time>2026-03-29T10:50:52Z</time></trkpt><trkpt lat="38.81738535253747" lon="-9.472053820569634"><ele>51.75</ele><time>2026-03-29T10:50:53Z</time></trkpt><trkpt lat="38.817499879839275" lon="-9.47204170035304"><ele>52.0</ele><time>2026-03-29T10:50:54Z</time></trkpt><trkpt lat="38.81761800535082" lon="-9.472033706940282"><ele>51.0</ele><time>2026-03-29T10:50:55Z</time></trkpt><trkpt lat="38.81774141216093" lon="-9.472025529767883"><ele>50.0</ele><time>2026-03-29T10:50:56Z</time></trkpt><trkpt lat="38.81787351478743" lon="-9.472015469286884"><ele>49.0</ele><time>2026-03-29T10:50:57Z</time></trkpt><trkpt lat="38.8180120322708" lon="-9.472006920351008"><ele>48.0</ele><time>2026-03-29T10:50:58Z</time></trkpt><trkpt lat="38.818155868686546" lon="-9.472001524580435"><ele>48.0</ele><time>2026-03-29T10:50:59Z</time></trkpt><trkpt lat="38.81828681910241" lon="-9.471993021156214"><ele>48.0</ele><time>2026-03-29T10:51:00Z</time></trkpt><trkpt lat="38.81840673730573" lon="-9.471982787741068"><ele>48.0</ele><time>2026-03-29T10:51:01Z</time></trkpt><trkpt lat="38.81851987119182" lon="-9.471976651812977"><ele>48.0</ele><time>2026-03-29T10:51:02Z</time></trkpt><trkpt lat="38.818629000282755" lon="-9.471976439377467"><ele>47.166666666666664</ele><time>2026-03-29T10:51:03Z</time></trkpt><trkpt lat="38.818734024769675" lon="-9.471964168518381"><ele>46.333333333333336</ele><time>2026-03-29T10:51:04Z</time></trkpt><trkpt lat="38.81883357793231" lon="-9.471950441088996"><ele>45.5</ele><time>2026-03-29T10:51:05Z</time></trkpt><trkpt lat="38.81891840319457" lon="-9.47194830397715"><ele>44.66666666666667</ele><time>2026-03-29T10:51:06Z</time></trkpt><trkpt lat="38.81900103003895" lon="-9.47194746340316"><ele>43.833333333333336</ele><time>2026-03-29T10:51:07Z</time></trkpt><trkpt lat="38.819067242794944" lon="-9.47195045372294"><ele>43.0</ele><time>2026-03-29T10:51:08Z</time></trkpt><trkpt lat="38.81914177033011" lon="-9.471956797553615"><ele>43.0</ele><time>2026-03-29T10:51:10Z</time></trkpt><trkpt lat="38.81920491759395" lon="-9.471954093852883"><ele>43.0</ele><time>2026-03-29T10:51:13Z</time></trkpt><trkpt lat="38.81930246832292" lon="-9.471993453247679"><ele>43.0</ele><time>2026-03-29T10:51:18Z</time></trkpt><trkpt lat="38.81939343781991" lon="-9.472062951809338"><ele>43.0</ele><time>2026-03-29T10:51:20Z</time></trkpt><trkpt lat="38.819483954903525" lon="-9.472070099105533"><ele>43.0</ele><time>2026-03-29T10:51:22Z</time></trkpt><trkpt lat="38.81956956564844" lon="-9.472118556135491"><ele>42.0</ele><time>2026-03-29T10:51:23Z</time></trkpt><trkpt lat="38.819667653137" lon="-9.472137359515864"><ele>41.0</ele><time>2026-03-29T10:51:24Z</time></trkpt><trkpt lat="38.81978791119868" lon="-9.472152014994641"><ele>40.0</ele><time>2026-03-29T10:51:25Z</time></trkpt><trkpt lat="38.81990080562577" lon="-9.472159267845523"><ele>39.0</ele><time>2026-03-29T10:51:26Z</time></trkpt><trkpt lat="38.82002720118521" lon="-9.472149983495283"><ele>39.0</ele><time>2026-03-29T10:51:27Z</time></trkpt><trkpt lat="38.82013056745101" lon="-9.472147246979597"><ele>39.0</ele><time>2026-03-29T10:51:28Z</time></trkpt><trkpt lat="38.82022548369685" lon="-9.472143373179607"><ele>39.0</ele><time>2026-03-29T10:51:29Z</time></trkpt><trkpt lat="38.820306480479985" lon="-9.472141923437665"><ele>39.0</ele><time>2026-03-29T10:51:30Z</time></trkpt><trkpt lat="38.82037762832438" lon="-9.472148756224051"><ele>39.0</ele><time>2026-03-29T10:51:31Z</time></trkpt><trkpt lat="38.82044375003598" lon="-9.472144304715703"><ele>39.0</ele><time>2026-03-29T10:51:32Z</time></trkpt><trkpt lat="38.820580830715194" lon="-9.472126128361914"><ele>39.285714285714285</ele><time>2026-03-29T10:51:34Z</time></trkpt><trkpt lat="38.8206459598749" lon="-9.47210621114716"><ele>39.57142857142857</ele><time>2026-03-29T10:51:35Z</time></trkpt><trkpt lat="38.82071215486597" lon="-9.472093985965824"><ele>39.857142857142854</ele><time>2026-03-29T10:51:36Z</time></trkpt><trkpt lat="38.8207596516044" lon="-9.472150256209758"><ele>40.14285714285714</ele><time>2026-03-29T10:51:37Z</time></trkpt><trkpt lat="38.82081116740253" lon="-9.472200627434754"><ele>40.42857142857143</ele><time>2026-03-29T10:51:38Z</time></trkpt><trkpt lat="38.82083330061679" lon="-9.472277476914462"><ele>40.71428571428571</ele><time>2026-03-29T10:51:39Z</time></trkpt><trkpt lat="38.820853022578724" lon="-9.472405064750664"><ele>41.0</ele><time>2026-03-29T10:51:41Z</time></trkpt><trkpt lat="38.82092650302317" lon="-9.47237989860204"><ele>37.5</ele><time>2026-03-29T10:51:43Z</time></trkpt><trkpt lat="38.82099968588257" lon="-9.472338916984587"><ele>34.0</ele><time>2026-03-29T10:51:45Z</time></trkpt><trkpt lat="38.821062488083456" lon="-9.472315828368341"><ele>30.5</ele><time>2026-03-29T10:51:46Z</time></trkpt><trkpt lat="38.82116904577747" lon="-9.472267155478535"><ele>27.0</ele><time>2026-03-29T10:51:48Z</time></trkpt><trkpt lat="38.82124120031748" lon="-9.472198047752272"><ele>23.5</ele><time>2026-03-29T10:51:51Z</time></trkpt><trkpt lat="38.82130394124238" lon="-9.472185833338273"><ele>20.0</ele><time>2026-03-29T10:51:53Z</time></trkpt><trkpt lat="38.82143065748612" lon="-9.472425381459248"><ele>20.0</ele><time>2026-03-29T10:51:54Z</time></trkpt><trkpt lat="38.821507693699985" lon="-9.47245931630842"><ele>20.0</ele><time>2026-03-29T10:51:56Z</time></trkpt><trkpt lat="38.821588988919615" lon="-9.472447069353182"><ele>20.0</ele><time>2026-03-29T10:51:59Z</time></trkpt><trkpt lat="38.82166623012635" lon="-9.47246588620816"><ele>20.0</ele><time>2026-03-29T10:52:01Z</time></trkpt><trkpt lat="38.821753221754136" lon="-9.47246182475881"><ele>20.0</ele><time>2026-03-29T10:52:03Z</time></trkpt><trkpt lat="38.821820339387585" lon="-9.472441207470503"><ele>20.0</ele><time>2026-03-29T10:52:05Z</time></trkpt><trkpt lat="38.82190738768984" lon="-9.472441521164157"><ele>20.0</ele><time>2026-03-29T10:52:08Z</time></trkpt><trkpt lat="38.821973735548255" lon="-9.472449637164168"><ele>20.0</ele><time>2026-03-29T10:52:10Z</time></trkpt><trkpt lat="38.82204132206751" lon="-9.472472682973835"><ele>20.0</ele><time>2026-03-29T10:52:12Z</time></trkpt><trkpt lat="38.82214134806192" lon="-9.472490784616348"><ele>20.0</ele><time>2026-03-29T10:52:14Z</time></trkpt><trkpt lat="38.822257508265594" lon="-9.472503749231421"><ele>20.0</ele><time>2026-03-29T10:52:16Z</time></trkpt><trkpt lat="38.82233105243049" lon="-9.472480726280889"><ele>20.0</ele><time>2026-03-29T10:52:17Z</time></trkpt><trkpt lat="38.822424354633014" lon="-9.472439471970178"><ele>20.0</ele><time>2026-03-29T10:52:18Z</time></trkpt><trkpt lat="38.8225100470226" lon="-9.472415033995539"><ele>20.0</ele><time>2026-03-29T10:52:19Z</time></trkpt><trkpt lat="38.82259156805151" lon="-9.472429391671346"><ele>20.0</ele><time>2026-03-29T10:52:20Z</time></trkpt><trkpt lat="38.822674624903826" lon="-9.472469352782134"><ele>20.0</ele><time>2026-03-29T10:52:21Z</time></trkpt><trkpt lat="38.8227650878649" lon="-9.472524905275499"><ele>20.0</ele><time>2026-03-29T10:52:22Z</time></trkpt><trkpt lat="38.82284980641047" lon="-9.472559543696514"><ele>20.0</ele><time>2026-03-29T10:52:23Z</time></trkpt><trkpt lat="38.82294116171075" lon="-9.47256847992601"><ele>20.0</ele><time>2026-03-29T10:52:24Z</time></trkpt><trkpt lat="38.82302927320265" lon="-9.472563227233696"><ele>20.0</ele><time>2026-03-29T10:52:25Z</time></trkpt><trkpt lat="38.82312804755736" lon="-9.47257559105844"><ele>20.0</ele><time>2026-03-29T10:52:26Z</time></trkpt><trkpt lat="38.82321450715109" lon="-9.47258352548497"><ele>20.0</ele><time>2026-03-29T10:52:27Z</time></trkpt><trkpt lat="38.823319009682784" lon="-9.472587223382247"><ele>20.0</ele><time>2026-03-29T10:52:28Z</time></trkpt><trkpt lat="38.82341788989159" lon="-9.472593025157042"><ele>19.5</ele><time>2026-03-29T10:52:29Z</time></trkpt><trkpt lat="38.82350238771062" lon="-9.472597471454659"><ele>19.0</ele><time>2026-03-29T10:52:30Z</time></trkpt><trkpt lat="38.82359379794148" lon="-9.472599760586357"><ele>18.5</ele><time>2026-03-29T10:52:31Z</time></trkpt><trkpt lat="38.82367678090011" lon="-9.472609217769183"><ele>18.0</ele><time>2026-03-29T10:52:32Z</time></trkpt><trkpt lat="38.82374579645505" lon="-9.472613083734183"><ele>17.5</ele><time>2026-03-29T10:52:33Z</time></trkpt><trkpt lat="38.82386132002261" lon="-9.472609373286826"><ele>17.0</ele><time>2026-03-29T10:52:35Z</time></trkpt><trkpt lat="38.82394910810672" lon="-9.472508916272874"><ele>16.999999999999996</ele><time>2026-03-29T10:52:37Z</time></trkpt><trkpt lat="38.824029734533305" lon="-9.472555740765848"><ele>17.0</ele><time>2026-03-29T10:52:39Z</time></trkpt><trkpt lat="38.82410185309471" lon="-9.472546918820774"><ele>17.0</ele><time>2026-03-29T10:53:47Z</time></trkpt><trkpt lat="38.82402719944573" lon="-9.472558903599625"><ele>17.0</ele><time>2026-03-29T10:54:40Z</time></trkpt><trkpt lat="38.824102583953305" lon="-9.472558761460197"><ele>17.0</ele><time>2026-03-29T10:55:10Z</time></trkpt><trkpt lat="38.824034067142996" lon="-9.47253456070439"><ele>16.999999999999996</ele><time>2026-03-29T10:58:02.999Z</time></trkpt><trkpt lat="38.82409251648321" lon="-9.47257571896843"><ele>17.0</ele><time>2026-03-29T10:58:12.999Z</time></trkpt><trkpt lat="38.82415614429035" lon="-9.472529582477838"><ele>17.0</ele><time>2026-03-29T11:02:20.999Z</time></trkpt><trkpt lat="38.82421446765846" lon="-9.472581032359761"><ele>17.0</ele><time>2026-03-29T11:02:26.999Z</time></trkpt><trkpt lat="38.824267147417345" lon="-9.472470222399767"><ele>17.0</ele><time>2026-03-29T11:02:39Z</time></trkpt><trkpt lat="38.8243128268125" lon="-9.472395665147241"><ele>17.0</ele><time>2026-03-29T11:02:41Z</time></trkpt><trkpt lat="38.82434643290965" lon="-9.472305284431242"><ele>17.0</ele><time>2026-03-29T11:02:43Z</time></trkpt><trkpt lat="38.82439577285129" lon="-9.472208278725589"><ele>17.0</ele><time>2026-03-29T11:02:45Z</time></trkpt><trkpt lat="38.824402748530865" lon="-9.472095799420197"><ele>14.666666666666668</ele><time>2026-03-29T11:02:47Z</time></trkpt><trkpt lat="38.824412817001296" lon="-9.471986094376607"><ele>12.333333333333334</ele><time>2026-03-29T11:02:49Z</time></trkpt><trkpt lat="38.824405393605254" lon="-9.471880869523531"><ele>10.0</ele><time>2026-03-29T11:02:52Z</time></trkpt><trkpt lat="38.82439183089086" lon="-9.471801690342927"><ele>7.666666666666667</ele><time>2026-03-29T11:02:55Z</time></trkpt><trkpt lat="38.82439453995246" lon="-9.471680621709135"><ele>5.333333333333334</ele><time>2026-03-29T11:02:58Z</time></trkpt><trkpt lat="38.82437289964812" lon="-9.471588847357296"><ele>3.0</ele><time>2026-03-29T11:03:00Z</time></trkpt><trkpt lat="38.824395334355245" lon="-9.471489048006621"><ele>3.0</ele><time>2026-03-29T11:03:02Z</time></trkpt><trkpt lat="38.824432133069756" lon="-9.471420348517434"><ele>3.0</ele><time>2026-03-29T11:03:04Z</time></trkpt><trkpt lat="38.8245018230996" lon="-9.471432352372856"><ele>3.0</ele><time>2026-03-29T11:03:56Z</time></trkpt><trkpt lat="38.82444254548222" lon="-9.471485237529512"><ele>3.0</ele><time>2026-03-29T11:04:22Z</time></trkpt><trkpt lat="38.82435916263926" lon="-9.471586078949358"><ele>3.0</ele><time>2026-03-29T11:04:24Z</time></trkpt><trkpt lat="38.824359859747524" lon="-9.471691597490489"><ele>3.0</ele><time>2026-03-29T11:04:25Z</time></trkpt><trkpt lat="38.82438954772589" lon="-9.471789489614212"><ele>3.0</ele><time>2026-03-29T11:04:26Z</time></trkpt><trkpt lat="38.82441282176601" lon="-9.471952321855849"><ele>3.0</ele><time>2026-03-29T11:04:28Z</time></trkpt><trkpt lat="38.82441466607127" lon="-9.47204515718931"><ele>3.0</ele><time>2026-03-29T11:04:29Z</time></trkpt><trkpt lat="38.82439780760383" lon="-9.472155000405024"><ele>3.0</ele><time>2026-03-29T11:04:30Z</time></trkpt><trkpt lat="38.824379031056" lon="-9.47224292607533"><ele>3.0</ele><time>2026-03-29T11:04:31Z</time></trkpt><trkpt lat="38.8243721858531" lon="-9.472336328472826"><ele>3.0</ele><time>2026-03-29T11:04:32Z</time></trkpt><trkpt lat="38.82431620976259" lon="-9.472390440219105"><ele>5.333333333333334</ele><time>2026-03-29T11:04:33Z</time></trkpt><trkpt lat="38.82426464028952" lon="-9.472491026128061"><ele>7.666666666666667</ele><time>2026-03-29T11:04:35Z</time></trkpt><trkpt lat="38.82418594059411" lon="-9.472539645806702"><ele>10.0</ele><time>2026-03-29T11:04:37Z</time></trkpt><trkpt lat="38.82410896360805" lon="-9.472473917623757"><ele>12.333333333333334</ele><time>2026-03-29T11:04:38Z</time></trkpt><trkpt lat="38.824026523512494" lon="-9.472438827989613"><ele>14.666666666666668</ele><time>2026-03-29T11:04:39Z</time></trkpt><trkpt lat="38.82394201464087" lon="-9.472430952152278"><ele>17.0</ele><time>2026-03-29T11:04:40Z</time></trkpt><trkpt lat="38.82388012103847" lon="-9.472493582725347"><ele>17.0</ele><time>2026-03-29T11:04:41Z</time></trkpt><trkpt lat="38.82385572285354" lon="-9.472581998786184"><ele>17.0</ele><time>2026-03-29T11:04:42Z</time></trkpt><trkpt lat="38.823825589651506" lon="-9.472664163964403"><ele>17.0</ele><time>2026-03-29T11:04:43Z</time></trkpt><trkpt lat="38.82375147504797" lon="-9.472630131403983"><ele>17.0</ele><time>2026-03-29T11:04:44Z</time></trkpt><trkpt lat="38.8236543134811" lon="-9.472594218038218"><ele>17.0</ele><time>2026-03-29T11:04:45Z</time></trkpt><trkpt lat="38.82354213379963" lon="-9.472598778849056"><ele>17.0</ele><time>2026-03-29T11:04:46Z</time></trkpt><trkpt lat="38.823420988157025" lon="-9.472586033425571"><ele>17.75</ele><time>2026-03-29T11:04:47Z</time></trkpt><trkpt lat="38.82328862364307" lon="-9.472594284366346"><ele>18.5</ele><time>2026-03-29T11:04:48Z</time></trkpt><trkpt lat="38.82315063854289" lon="-9.472573681989267"><ele>19.25</ele><time>2026-03-29T11:04:49Z</time></trkpt><trkpt lat="38.82304306047082" lon="-9.472569298793806"><ele>20.0</ele><time>2026-03-29T11:04:50Z</time></trkpt><trkpt lat="38.82295159931201" lon="-9.472545692123495"><ele>20.0</ele><time>2026-03-29T11:04:51Z</time></trkpt><trkpt lat="38.822845379894645" lon="-9.472557205946428"><ele>20.0</ele><time>2026-03-29T11:04:52Z</time></trkpt><trkpt lat="38.82275984638753" lon="-9.472543888578159"><ele>20.0</ele><time>2026-03-29T11:04:53Z</time></trkpt><trkpt lat="38.82266740811311" lon="-9.472497912497458"><ele>20.0</ele><time>2026-03-29T11:04:54Z</time></trkpt><trkpt lat="38.822590440296395" lon="-9.472434532592432"><ele>20.0</ele><time>2026-03-29T11:04:55Z</time></trkpt><trkpt lat="38.82249929101891" lon="-9.472402622796508"><ele>20.0</ele><time>2026-03-29T11:04:56Z</time></trkpt><trkpt lat="38.82241524296753" lon="-9.472414464795456"><ele>20.0</ele><time>2026-03-29T11:04:57Z</time></trkpt><trkpt lat="38.82232689878901" lon="-9.472449776000747"><ele>20.0</ele><time>2026-03-29T11:04:58Z</time></trkpt><trkpt lat="38.82226794350293" lon="-9.472486609563282"><ele>20.0</ele><time>2026-03-29T11:04:59Z</time></trkpt><trkpt lat="38.82215182677227" lon="-9.472513438069026"><ele>20.0</ele><time>2026-03-29T11:05:01Z</time></trkpt><trkpt lat="38.82203275011226" lon="-9.472461978397922"><ele>20.0</ele><time>2026-03-29T11:05:03Z</time></trkpt><trkpt lat="38.821954208070444" lon="-9.472434891067183"><ele>20.0</ele><time>2026-03-29T11:05:04Z</time></trkpt><trkpt lat="38.82187826984515" lon="-9.472419254925239"><ele>20.0</ele><time>2026-03-29T11:05:05Z</time></trkpt><trkpt lat="38.82178349448778" lon="-9.472451546314542"><ele>20.0</ele><time>2026-03-29T11:05:06Z</time></trkpt><trkpt lat="38.821710623241444" lon="-9.47247754093924"><ele>20.0</ele><time>2026-03-29T11:05:07Z</time></trkpt><trkpt lat="38.82162613436406" lon="-9.472471095051397"><ele>20.0</ele><time>2026-03-29T11:05:08Z</time></trkpt><trkpt lat="38.82153476316078" lon="-9.472444578884927"><ele>20.0</ele><time>2026-03-29T11:05:09Z</time></trkpt><trkpt lat="38.82141819412585" lon="-9.472425580972486"><ele>20.0</ele><time>2026-03-29T11:05:11Z</time></trkpt><trkpt lat="38.821358930788755" lon="-9.472391540255806"><ele>20.0</ele><time>2026-03-29T11:05:12Z</time></trkpt><trkpt lat="38.821308973675265" lon="-9.472336180271403"><ele>20.0</ele><time>2026-03-29T11:05:13Z</time></trkpt><trkpt lat="38.82123379463307" lon="-9.472277418560992"><ele>20.0</ele><time>2026-03-29T11:05:14Z</time></trkpt><trkpt lat="38.82116496662952" lon="-9.472270779970383"><ele>20.0</ele><time>2026-03-29T11:05:15Z</time></trkpt><trkpt lat="38.821235831498434" lon="-9.472249789503756"><ele>20.0</ele><time>2026-03-29T11:05:23Z</time></trkpt><trkpt lat="38.82132696962399" lon="-9.472173335397088"><ele>20.0</ele><time>2026-03-29T11:05:24Z</time></trkpt><trkpt lat="38.82143247067551" lon="-9.472088141614728"><ele>20.0</ele><time>2026-03-29T11:05:25Z</time></trkpt><trkpt lat="38.82153404471515" lon="-9.471989166607562"><ele>20.0</ele><time>2026-03-29T11:05:26Z</time></trkpt><trkpt lat="38.821636474561714" lon="-9.471890213674424"><ele>22.8</ele><time>2026-03-29T11:05:27Z</time></trkpt><trkpt lat="38.82169404414748" lon="-9.471790953315109"><ele>25.6</ele><time>2026-03-29T11:05:28Z</time></trkpt><trkpt lat="38.821750152322906" lon="-9.471707869277768"><ele>28.4</ele><time>2026-03-29T11:05:29Z</time></trkpt><trkpt lat="38.82181951898069" lon="-9.471617377567203"><ele>31.2</ele><time>2026-03-29T11:05:30Z</time></trkpt><trkpt lat="38.821899248637784" lon="-9.471518591366413"><ele>34.0</ele><time>2026-03-29T11:05:31Z</time></trkpt><trkpt lat="38.82199072298473" lon="-9.471454752319962"><ele>34.0</ele><time>2026-03-29T11:05:32Z</time></trkpt><trkpt lat="38.822076209435586" lon="-9.471390348603792"><ele>34.0</ele><time>2026-03-29T11:05:33Z</time></trkpt><trkpt lat="38.822160497402365" lon="-9.47130591306261"><ele>34.0</ele><time>2026-03-29T11:05:34Z</time></trkpt><trkpt lat="38.82222670747919" lon="-9.471249705403734"><ele>34.0</ele><time>2026-03-29T11:05:35Z</time></trkpt><trkpt lat="38.8222881356617" lon="-9.471202942030942"><ele>34.0</ele><time>2026-03-29T11:05:36Z</time></trkpt><trkpt lat="38.822373838515055" lon="-9.471095838617272"><ele>34.833333333333336</ele><time>2026-03-29T11:05:38Z</time></trkpt><trkpt lat="38.82232773524784" lon="-9.470995097380783"><ele>35.66666666666667</ele><time>2026-03-29T11:05:39Z</time></trkpt><trkpt lat="38.82225777374587" lon="-9.470914796911789"><ele>36.5</ele><time>2026-03-29T11:05:40Z</time></trkpt><trkpt lat="38.82220537889882" lon="-9.470802262442678"><ele>37.333333333333336</ele><time>2026-03-29T11:05:41Z</time></trkpt><trkpt lat="38.82216662449213" lon="-9.470726508472413"><ele>38.166666666666664</ele><time>2026-03-29T11:05:42Z</time></trkpt><trkpt lat="38.822103131983944" lon="-9.470753415211606"><ele>39.0</ele><time>2026-03-29T11:05:43Z</time></trkpt><trkpt lat="38.82203811817405" lon="-9.470757902209145"><ele>39.0</ele><time>2026-03-29T11:05:44Z</time></trkpt><trkpt lat="38.821943821056244" lon="-9.470775981152576"><ele>39.0</ele><time>2026-03-29T11:05:46Z</time></trkpt><trkpt lat="38.82190222149734" lon="-9.470865846636162"><ele>39.0</ele><time>2026-03-29T11:05:47Z</time></trkpt><trkpt lat="38.82182745274267" lon="-9.470945521728513"><ele>39.0</ele><time>2026-03-29T11:05:48Z</time></trkpt><trkpt lat="38.821742624736814" lon="-9.471033535471483"><ele>39.0</ele><time>2026-03-29T11:05:49Z</time></trkpt><trkpt lat="38.821660112289905" lon="-9.4711180956911"><ele>38.8</ele><time>2026-03-29T11:05:50Z</time></trkpt><trkpt lat="38.82158435579424" lon="-9.471194963224038"><ele>38.599999999999994</ele><time>2026-03-29T11:05:51Z</time></trkpt><trkpt lat="38.82150005602736" lon="-9.471280499347365"><ele>38.4</ele><time>2026-03-29T11:05:52Z</time></trkpt><trkpt lat="38.821435594997425" lon="-9.471345760741926"><ele>38.199999999999996</ele><time>2026-03-29T11:05:53Z</time></trkpt><trkpt lat="38.82136550034127" lon="-9.471395033289923"><ele>38.0</ele><time>2026-03-29T11:05:54Z</time></trkpt><trkpt lat="38.82128937392477" lon="-9.471463007175252"><ele>38.0</ele><time>2026-03-29T11:05:55Z</time></trkpt><trkpt lat="38.82120919853533" lon="-9.471566451763039"><ele>38.0</ele><time>2026-03-29T11:05:56Z</time></trkpt><trkpt lat="38.82111719652258" lon="-9.471655891213922"><ele>38.0</ele><time>2026-03-29T11:05:57Z</time></trkpt><trkpt lat="38.82100981127378" lon="-9.471761435799422"><ele>38.0</ele><time>2026-03-29T11:05:58Z</time></trkpt><trkpt lat="38.820911336349226" lon="-9.471859542175357"><ele>38.599999999999994</ele><time>2026-03-29T11:05:59Z</time></trkpt><trkpt lat="38.82080585799585" lon="-9.47196879267509"><ele>39.199999999999996</ele><time>2026-03-29T11:06:00Z</time></trkpt><trkpt lat="38.82072145353207" lon="-9.472063549762611"><ele>39.8</ele><time>2026-03-29T11:06:01Z</time></trkpt><trkpt lat="38.82066384133907" lon="-9.472131571967164"><ele>40.4</ele><time>2026-03-29T11:06:02Z</time></trkpt><trkpt lat="38.820608691552835" lon="-9.472190534073544"><ele>41.0</ele><time>2026-03-29T11:06:03Z</time></trkpt><trkpt lat="38.820484907602776" lon="-9.47217337951602"><ele>40.5</ele><time>2026-03-29T11:06:04Z</time></trkpt><trkpt lat="38.82034701786108" lon="-9.472183269196623"><ele>40.0</ele><time>2026-03-29T11:06:05Z</time></trkpt><trkpt lat="38.82020686556661" lon="-9.472192193931493"><ele>39.5</ele><time>2026-03-29T11:06:06Z</time></trkpt><trkpt lat="38.82005544517949" lon="-9.472199714282727"><ele>39.0</ele><time>2026-03-29T11:06:07Z</time></trkpt><trkpt lat="38.81991717123491" lon="-9.472201387863256"><ele>39.0</ele><time>2026-03-29T11:06:08Z</time></trkpt><trkpt lat="38.81979855138655" lon="-9.472195751160429"><ele>39.0</ele><time>2026-03-29T11:06:09Z</time></trkpt><trkpt lat="38.819691181622154" lon="-9.472183087677728"><ele>39.0</ele><time>2026-03-29T11:06:10Z</time></trkpt><trkpt lat="38.819589432967376" lon="-9.472162577176329"><ele>39.0</ele><time>2026-03-29T11:06:11Z</time></trkpt><trkpt lat="38.81947031856452" lon="-9.472132931314077"><ele>39.0</ele><time>2026-03-29T11:06:13Z</time></trkpt><trkpt lat="38.81940728237439" lon="-9.472114861670427"><ele>39.0</ele><time>2026-03-29T11:06:14Z</time></trkpt><trkpt lat="38.819345539655274" lon="-9.472087981228015"><ele>39.0</ele><time>2026-03-29T11:06:16Z</time></trkpt><trkpt lat="38.819297271514834" lon="-9.472033900144712"><ele>39.0</ele><time>2026-03-29T11:06:38Z</time></trkpt><trkpt lat="38.81927154160641" lon="-9.471889388701625"><ele>39.0</ele><time>2026-03-29T11:06:40Z</time></trkpt><trkpt lat="38.81927966662804" lon="-9.471792793272039"><ele>39.0</ele><time>2026-03-29T11:06:41Z</time></trkpt><trkpt lat="38.81927781702463" lon="-9.471686634149929"><ele>39.8</ele><time>2026-03-29T11:06:42Z</time></trkpt><trkpt lat="38.81927330485733" lon="-9.47156235214783"><ele>40.599999999999994</ele><time>2026-03-29T11:06:43.001Z</time></trkpt><trkpt lat="38.819269715057345" lon="-9.471446108199665"><ele>41.4</ele><time>2026-03-29T11:06:44Z</time></trkpt><trkpt lat="38.819266359306134" lon="-9.471298656301471"><ele>42.199999999999996</ele><time>2026-03-29T11:06:45Z</time></trkpt><trkpt lat="38.819261651576475" lon="-9.471125506982954"><ele>43.0</ele><time>2026-03-29T11:06:46Z</time></trkpt><trkpt lat="38.81925342080297" lon="-9.470969875623151"><ele>43.0</ele><time>2026-03-29T11:06:47Z</time></trkpt><trkpt lat="38.81924176724638" lon="-9.470811380615434"><ele>43.0</ele><time>2026-03-29T11:06:48Z</time></trkpt><trkpt lat="38.819227003524254" lon="-9.470649667425917"><ele>43.0</ele><time>2026-03-29T11:06:49Z</time></trkpt><trkpt lat="38.81921119359052" lon="-9.470498501046302"><ele>43.0</ele><time>2026-03-29T11:06:50Z</time></trkpt><trkpt lat="38.81919039699798" lon="-9.470359114171972"><ele>42.25</ele><time>2026-03-29T11:06:51Z</time></trkpt><trkpt lat="38.819172546960694" lon="-9.470224448936454"><ele>41.5</ele><time>2026-03-29T11:06:52Z</time></trkpt><trkpt lat="38.81915706010923" lon="-9.470080440642466"><ele>40.75</ele><time>2026-03-29T11:06:53Z</time></trkpt><trkpt lat="38.819140523958" lon="-9.4699407499549"><ele>40.0</ele><time>2026-03-29T11:06:54Z</time></trkpt><trkpt lat="38.81912113824215" lon="-9.469786829862857"><ele>40.0</ele><time>2026-03-29T11:06:55Z</time></trkpt><trkpt lat="38.819102860140106" lon="-9.469646072984435"><ele>40.0</ele><time>2026-03-29T11:06:56Z</time></trkpt><trkpt lat="38.81907819666813" lon="-9.469506893037709"><ele>40.0</ele><time>2026-03-29T11:06:57Z</time></trkpt><trkpt lat="38.819055170432314" lon="-9.469376752120347"><ele>40.0</ele><time>2026-03-29T11:06:58Z</time></trkpt><trkpt lat="38.8190404138229" lon="-9.469244862556824"><ele>40.0</ele><time>2026-03-29T11:06:59Z</time></trkpt><trkpt lat="38.81902316373419" lon="-9.469113774909111"><ele>38.2</ele><time>2026-03-29T11:07:00Z</time></trkpt><trkpt lat="38.819002265984906" lon="-9.46897748944439"><ele>36.4</ele><time>2026-03-29T11:07:01Z</time></trkpt><trkpt lat="38.81898552291524" lon="-9.468846437579412"><ele>34.6</ele><time>2026-03-29T11:07:02Z</time></trkpt><trkpt lat="38.81897167304796" lon="-9.468714388612788"><ele>32.8</ele><time>2026-03-29T11:07:03Z</time></trkpt><trkpt lat="38.81895300090639" lon="-9.46855908949875"><ele>31.0</ele><time>2026-03-29T11:07:04Z</time></trkpt><trkpt lat="38.81893029506115" lon="-9.468385549526738"><ele>29.0</ele><time>2026-03-29T11:07:05Z</time></trkpt><trkpt lat="38.81890421489519" lon="-9.468225095346973"><ele>27.0</ele><time>2026-03-29T11:07:06Z</time></trkpt><trkpt lat="38.818877739668835" lon="-9.468072018505566"><ele>25.0</ele><time>2026-03-29T11:07:07Z</time></trkpt><trkpt lat="38.81885489508865" lon="-9.467921667915844"><ele>23.0</ele><time>2026-03-29T11:07:08Z</time></trkpt><trkpt lat="38.81883905475212" lon="-9.467770315316427"><ele>21.0</ele><time>2026-03-29T11:07:09Z</time></trkpt><trkpt lat="38.81882727669581" lon="-9.467623525094057"><ele>19.0</ele><time>2026-03-29T11:07:10Z</time></trkpt><trkpt lat="38.81880597202518" lon="-9.467493912827322"><ele>17.0</ele><time>2026-03-29T11:07:11Z</time></trkpt><trkpt lat="38.81879293950398" lon="-9.467348465163033"><ele>15.0</ele><time>2026-03-29T11:07:12Z</time></trkpt><trkpt lat="38.81877152109818" lon="-9.46721244140191"><ele>13.0</ele><time>2026-03-29T11:07:13Z</time></trkpt><trkpt lat="38.818747525790215" lon="-9.467081350166547"><ele>11.6</ele><time>2026-03-29T11:07:14Z</time></trkpt><trkpt lat="38.818731991506354" lon="-9.466954487853906"><ele>10.200000000000001</ele><time>2026-03-29T11:07:15Z</time></trkpt><trkpt lat="38.81872382982295" lon="-9.466832496208223"><ele>8.8</ele><time>2026-03-29T11:07:16Z</time></trkpt><trkpt lat="38.818704525139495" lon="-9.466701375554191"><ele>7.4</ele><time>2026-03-29T11:07:17Z</time></trkpt><trkpt lat="38.818684145019006" lon="-9.466558790363992"><ele>6.0</ele><time>2026-03-29T11:07:18Z</time></trkpt><trkpt lat="38.81867071357204" lon="-9.466456067102259"><ele>6.0</ele><time>2026-03-29T11:07:19Z</time></trkpt><trkpt lat="38.81866109374133" lon="-9.466324673240438"><ele>6.0</ele><time>2026-03-29T11:07:21Z</time></trkpt><trkpt lat="38.81865179321849" lon="-9.466227404461653"><ele>6.0</ele><time>2026-03-29T11:07:23Z</time></trkpt><trkpt lat="38.818638319331825" lon="-9.4661375705275"><ele>6.0</ele><time>2026-03-29T11:07:25Z</time></trkpt><trkpt lat="38.81862125859626" lon="-9.46603876257764"><ele>6.0</ele><time>2026-03-29T11:07:27Z</time></trkpt><trkpt lat="38.81856412075993" lon="-9.465964723772675"><ele>6.0</ele><time>2026-03-29T11:07:28Z</time></trkpt><trkpt lat="38.818554786443315" lon="-9.465877560427387"><ele>6.8</ele><time>2026-03-29T11:07:29Z</time></trkpt><trkpt lat="38.81853386475306" lon="-9.465795226069723"><ele>7.6</ele><time>2026-03-29T11:07:30Z</time></trkpt><trkpt lat="38.81856797459001" lon="-9.465689145878502"><ele>8.4</ele><time>2026-03-29T11:07:31Z</time></trkpt><trkpt lat="38.818687424300414" lon="-9.465655703283737"><ele>9.2</ele><time>2026-03-29T11:07:32Z</time></trkpt><trkpt lat="38.8187839695331" lon="-9.46568911088807"><ele>10.0</ele><time>2026-03-29T11:07:33Z</time></trkpt><trkpt lat="38.818843693991205" lon="-9.46558005049387"><ele>10.0</ele><time>2026-03-29T11:07:34Z</time></trkpt><trkpt lat="38.818971981401795" lon="-9.465474381180533"><ele>10.0</ele><time>2026-03-29T11:07:36Z</time></trkpt><trkpt lat="38.819025232629485" lon="-9.465424679455777"><ele>10.0</ele><time>2026-03-29T11:07:37Z</time></trkpt><trkpt lat="38.81909742765346" lon="-9.46537351820679"><ele>10.0</ele><time>2026-03-29T11:07:40Z</time></trkpt><trkpt lat="38.81915437557248" lon="-9.465314747520255"><ele>10.0</ele><time>2026-03-29T11:07:43Z</time></trkpt><trkpt lat="38.819208863293696" lon="-9.465270926391709"><ele>10.0</ele><time>2026-03-29T11:07:45Z</time></trkpt><trkpt lat="38.819269898179115" lon="-9.465209220275089"><ele>11.0</ele><time>2026-03-29T11:07:47Z</time></trkpt><trkpt lat="38.81932343077537" lon="-9.465165658604374"><ele>12.0</ele><time>2026-03-29T11:07:48Z</time></trkpt><trkpt lat="38.819388006556046" lon="-9.465114922693846"><ele>13.0</ele><time>2026-03-29T11:07:49Z</time></trkpt><trkpt lat="38.81947578429835" lon="-9.465046775917921"><ele>14.0</ele><time>2026-03-29T11:07:50Z</time></trkpt><trkpt lat="38.81956643670704" lon="-9.46497821889115"><ele>15.0</ele><time>2026-03-29T11:07:51Z</time></trkpt><trkpt lat="38.819680277446786" lon="-9.464894551627086"><ele>15.0</ele><time>2026-03-29T11:07:52Z</time></trkpt><trkpt lat="38.819803560860144" lon="-9.464821148746925"><ele>15.0</ele><time>2026-03-29T11:07:53Z</time></trkpt><trkpt lat="38.81991642908302" lon="-9.464794893569032"><ele>15.0</ele><time>2026-03-29T11:07:54Z</time></trkpt><trkpt lat="38.82003295450785" lon="-9.46476783059122"><ele>15.0</ele><time>2026-03-29T11:07:55Z</time></trkpt><trkpt lat="38.82014140542712" lon="-9.464738338640304"><ele>15.5</ele><time>2026-03-29T11:07:56Z</time></trkpt><trkpt lat="38.82024913788687" lon="-9.464707424517247"><ele>16.0</ele><time>2026-03-29T11:07:57Z</time></trkpt><trkpt lat="38.820372332866164" lon="-9.464673083799859"><ele>16.5</ele><time>2026-03-29T11:07:58Z</time></trkpt><trkpt lat="38.820503262748964" lon="-9.464633566240947"><ele>17.0</ele><time>2026-03-29T11:07:59Z</time></trkpt><trkpt lat="38.820629756186435" lon="-9.464598029644925"><ele>18.6</ele><time>2026-03-29T11:08:00Z</time></trkpt><trkpt lat="38.8207422730463" lon="-9.464566729241023"><ele>20.2</ele><time>2026-03-29T11:08:01Z</time></trkpt><trkpt lat="38.82083187009497" lon="-9.464545731536475"><ele>21.8</ele><time>2026-03-29T11:08:02Z</time></trkpt><trkpt lat="38.82092010767155" lon="-9.464515154115372"><ele>23.4</ele><time>2026-03-29T11:08:03Z</time></trkpt><trkpt lat="38.821026610852265" lon="-9.464485769887181"><ele>25.0</ele><time>2026-03-29T11:08:04Z</time></trkpt><trkpt lat="38.82111442574527" lon="-9.464466510920506"><ele>25.4</ele><time>2026-03-29T11:08:05Z</time></trkpt><trkpt lat="38.82121312193468" lon="-9.464450882073992"><ele>25.8</ele><time>2026-03-29T11:08:06Z</time></trkpt><trkpt lat="38.821313032675285" lon="-9.464457608905859"><ele>26.200000000000003</ele><time>2026-03-29T11:08:07Z</time></trkpt><trkpt lat="38.82139912024688" lon="-9.46448625654881"><ele>26.6</ele><time>2026-03-29T11:08:08Z</time></trkpt><trkpt lat="38.82148364518329" lon="-9.464521995722047"><ele>27.0</ele><time>2026-03-29T11:08:09Z</time></trkpt><trkpt lat="38.82155306643822" lon="-9.464558281102628"><ele>27.0</ele><time>2026-03-29T11:08:10Z</time></trkpt><trkpt lat="38.821632864265204" lon="-9.464605905382143"><ele>27.0</ele><time>2026-03-29T11:08:11Z</time></trkpt><trkpt lat="38.82170678367624" lon="-9.464666713585606"><ele>27.0</ele><time>2026-03-29T11:08:12Z</time></trkpt><trkpt lat="38.82177376137339" lon="-9.464719443948594"><ele>27.0</ele><time>2026-03-29T11:08:13Z</time></trkpt><trkpt lat="38.8218484972166" lon="-9.464770444412087"><ele>27.0</ele><time>2026-03-29T11:08:14Z</time></trkpt><trkpt lat="38.821930429830466" lon="-9.464833992699761"><ele>27.0</ele><time>2026-03-29T11:08:15Z</time></trkpt><trkpt lat="38.82200292241167" lon="-9.464890790060297"><ele>25.8</ele><time>2026-03-29T11:08:16Z</time></trkpt><trkpt lat="38.82207560225909" lon="-9.464951177087636"><ele>24.6</ele><time>2026-03-29T11:08:17Z</time></trkpt><trkpt lat="38.82215440315194" lon="-9.465003790082552"><ele>23.400000000000002</ele><time>2026-03-29T11:08:18Z</time></trkpt><trkpt lat="38.822239403449785" lon="-9.465062890205823"><ele>22.200000000000003</ele><time>2026-03-29T11:08:19Z</time></trkpt><trkpt lat="38.822344639908096" lon="-9.465140099018624"><ele>21.0</ele><time>2026-03-29T11:08:20Z</time></trkpt><trkpt lat="38.82247407978818" lon="-9.465238605563588"><ele>21.0</ele><time>2026-03-29T11:08:21Z</time></trkpt><trkpt lat="38.82260172116862" lon="-9.465326843657705"><ele>21.0</ele><time>2026-03-29T11:08:22Z</time></trkpt><trkpt lat="38.822707179635024" lon="-9.465399248998429"><ele>21.0</ele><time>2026-03-29T11:08:23Z</time></trkpt><trkpt lat="38.82280316168428" lon="-9.465463316858756"><ele>21.0</ele><time>2026-03-29T11:08:24Z</time></trkpt><trkpt lat="38.82289665778574" lon="-9.465527043987603"><ele>20.0</ele><time>2026-03-29T11:08:25Z</time></trkpt><trkpt lat="38.823008925298446" lon="-9.465608554230506"><ele>19.0</ele><time>2026-03-29T11:08:26Z</time></trkpt><trkpt lat="38.82314007795378" lon="-9.465702527810127"><ele>18.0</ele><time>2026-03-29T11:08:27Z</time></trkpt><trkpt lat="38.82325987413994" lon="-9.465790041864102"><ele>17.0</ele><time>2026-03-29T11:08:28Z</time></trkpt><trkpt lat="38.8233700678571" lon="-9.465866492650317"><ele>17.0</ele><time>2026-03-29T11:08:29Z</time></trkpt><trkpt lat="38.82347186270851" lon="-9.465945360559536"><ele>17.0</ele><time>2026-03-29T11:08:30Z</time></trkpt><trkpt lat="38.823560385816" lon="-9.466024651276209"><ele>17.0</ele><time>2026-03-29T11:08:31Z</time></trkpt><trkpt lat="38.82364465054749" lon="-9.466118999722546"><ele>17.0</ele><time>2026-03-29T11:08:32Z</time></trkpt><trkpt lat="38.823710631967735" lon="-9.466217584585918"><ele>17.0</ele><time>2026-03-29T11:08:33Z</time></trkpt><trkpt lat="38.82375774460453" lon="-9.466306456414038"><ele>17.0</ele><time>2026-03-29T11:08:34Z</time></trkpt><trkpt lat="38.82380052532783" lon="-9.466388599348276"><ele>17.0</ele><time>2026-03-29T11:08:35Z</time></trkpt><trkpt lat="38.82384457896058" lon="-9.46644833071296"><ele>17.0</ele><time>2026-03-29T11:08:36Z</time></trkpt><trkpt lat="38.82391631307109" lon="-9.46656446348498"><ele>17.0</ele><time>2026-03-29T11:08:38Z</time></trkpt><trkpt lat="38.82397456235107" lon="-9.46663683102464"><ele>17.0</ele><time>2026-03-29T11:08:42Z</time></trkpt><trkpt lat="38.82401890256688" lon="-9.466723063656898"><ele>17.0</ele><time>2026-03-29T11:08:49Z</time></trkpt><trkpt lat="38.82408189908899" lon="-9.466844082686984"><ele>17.0</ele><time>2026-03-29T11:08:52Z</time></trkpt><trkpt lat="38.82417950161838" lon="-9.466955327099111"><ele>17.0</ele><time>2026-03-29T11:08:54Z</time></trkpt><trkpt lat="38.82424239497032" lon="-9.467023191900676"><ele>17.0</ele><time>2026-03-29T11:08:55Z</time></trkpt><trkpt lat="38.824308968433755" lon="-9.467120359257764"><ele>17.0</ele><time>2026-03-29T11:08:56Z</time></trkpt><trkpt lat="38.82438929658715" lon="-9.467249911324991"><ele>17.0</ele><time>2026-03-29T11:08:57Z</time></trkpt><trkpt lat="38.82448389743598" lon="-9.467391986428972"><ele>17.666666666666668</ele><time>2026-03-29T11:08:58Z</time></trkpt><trkpt lat="38.824592923869744" lon="-9.467543857942806"><ele>18.333333333333332</ele><time>2026-03-29T11:08:59Z</time></trkpt><trkpt lat="38.82470576958004" lon="-9.467681606661841"><ele>19.0</ele><time>2026-03-29T11:09:00Z</time></trkpt><trkpt lat="38.824846951927" lon="-9.467799853462088"><ele>19.0</ele><time>2026-03-29T11:09:01Z</time></trkpt><trkpt lat="38.82498834853077" lon="-9.467900962760943"><ele>19.0</ele><time>2026-03-29T11:09:02Z</time></trkpt><trkpt lat="38.82512266484676" lon="-9.468021273248702"><ele>19.0</ele><time>2026-03-29T11:09:03Z</time></trkpt><trkpt lat="38.82525355317313" lon="-9.46813021820818"><ele>18.75</ele><time>2026-03-29T11:09:04Z</time></trkpt><trkpt lat="38.82537794198948" lon="-9.468227008640191"><ele>18.5</ele><time>2026-03-29T11:09:05Z</time></trkpt><trkpt lat="38.8254952440372" lon="-9.468317615123262"><ele>18.25</ele><time>2026-03-29T11:09:06Z</time></trkpt><trkpt lat="38.825584560388876" lon="-9.468391061964573"><ele>18.0</ele><time>2026-03-29T11:09:07Z</time></trkpt><trkpt lat="38.825669278577095" lon="-9.468465795092396"><ele>18.0</ele><time>2026-03-29T11:09:08Z</time></trkpt><trkpt lat="38.82574523200612" lon="-9.468534365142972"><ele>18.0</ele><time>2026-03-29T11:09:09Z</time></trkpt><trkpt lat="38.82579801023078" lon="-9.468581122363664"><ele>18.0</ele><time>2026-03-29T11:09:10Z</time></trkpt><trkpt lat="38.825876616539205" lon="-9.468638600928642"><ele>18.0</ele><time>2026-03-29T11:09:12Z</time></trkpt><trkpt lat="38.82593413879947" lon="-9.468678697341087"><ele>18.0</ele><time>2026-03-29T11:09:14Z</time></trkpt><trkpt lat="38.825994041729466" lon="-9.468707379622266"><ele>18.0</ele><time>2026-03-29T11:09:23Z</time></trkpt><trkpt lat="38.82608774724585" lon="-9.468748774997412"><ele>18.6</ele><time>2026-03-29T11:09:25Z</time></trkpt><trkpt lat="38.82614554187392" lon="-9.468781745656003"><ele>19.200000000000003</ele><time>2026-03-29T11:09:26Z</time></trkpt><trkpt lat="38.82621860803181" lon="-9.46882176992001"><ele>19.8</ele><time>2026-03-29T11:09:27Z</time></trkpt><trkpt lat="38.82628873873799" lon="-9.46886580608681"><ele>20.400000000000002</ele><time>2026-03-29T11:09:29Z</time></trkpt><trkpt lat="38.82637658341508" lon="-9.468935180868007"><ele>21.0</ele><time>2026-03-29T11:09:35Z</time></trkpt><trkpt lat="38.82650082886674" lon="-9.469004312768599"><ele>21.0</ele><time>2026-03-29T11:09:37Z</time></trkpt><trkpt lat="38.82658814288605" lon="-9.469060979809454"><ele>21.0</ele><time>2026-03-29T11:09:38Z</time></trkpt><trkpt lat="38.826663913588725" lon="-9.469099876896616"><ele>21.0</ele><time>2026-03-29T11:09:39Z</time></trkpt><trkpt lat="38.826779707912536" lon="-9.469156932656393"><ele>21.0</ele><time>2026-03-29T11:09:40Z</time></trkpt><trkpt lat="38.82688252690781" lon="-9.469212950780205"><ele>21.0</ele><time>2026-03-29T11:09:41Z</time></trkpt><trkpt lat="38.82696945409127" lon="-9.469263278444977"><ele>22.0</ele><time>2026-03-29T11:09:42Z</time></trkpt><trkpt lat="38.82706666831431" lon="-9.469304365801326"><ele>23.0</ele><time>2026-03-29T11:09:43Z</time></trkpt><trkpt lat="38.82719129164983" lon="-9.469369898603519"><ele>24.0</ele><time>2026-03-29T11:09:44Z</time></trkpt><trkpt lat="38.82732337368354" lon="-9.469438134175775"><ele>25.0</ele><time>2026-03-29T11:09:45Z</time></trkpt><trkpt lat="38.82745902399252" lon="-9.46950733995938"><ele>25.0</ele><time>2026-03-29T11:09:46Z</time></trkpt><trkpt lat="38.82758542936907" lon="-9.46954577730493"><ele>25.0</ele><time>2026-03-29T11:09:47Z</time></trkpt><trkpt lat="38.82771039720222" lon="-9.469561879962116"><ele>25.0</ele><time>2026-03-29T11:09:48Z</time></trkpt><trkpt lat="38.82785391688186" lon="-9.46952270629498"><ele>25.0</ele><time>2026-03-29T11:09:49Z</time></trkpt><trkpt lat="38.8280095120166" lon="-9.469510233371775"><ele>25.333333333333336</ele><time>2026-03-29T11:09:50Z</time></trkpt><trkpt lat="38.8281740405375" lon="-9.469461827796472"><ele>25.666666666666664</ele><time>2026-03-29T11:09:51Z</time></trkpt><trkpt lat="38.828326033452" lon="-9.469392136440911"><ele>26.0</ele><time>2026-03-29T11:09:52Z</time></trkpt><trkpt lat="38.82846464611865" lon="-9.46928595074076"><ele>23.0</ele><time>2026-03-29T11:09:53Z</time></trkpt><trkpt lat="38.828622221821504" lon="-9.469161300972228"><ele>20.0</ele><time>2026-03-29T11:09:54Z</time></trkpt><trkpt lat="38.82874782146946" lon="-9.469053120390624"><ele>17.0</ele><time>2026-03-29T11:09:55Z</time></trkpt><trkpt lat="38.82882741438615" lon="-9.468982623918148"><ele>14.0</ele><time>2026-03-29T11:09:56Z</time></trkpt><trkpt lat="38.82890081370166" lon="-9.468923402075932"><ele>14.0</ele><time>2026-03-29T11:09:57Z</time></trkpt><trkpt lat="38.82897507777113" lon="-9.468872670484487"><ele>13.999999999999998</ele><time>2026-03-29T11:09:58Z</time></trkpt><trkpt lat="38.82903816445983" lon="-9.468829315178843"><ele>13.999999999999998</ele><time>2026-03-29T11:09:59Z</time></trkpt><trkpt lat="38.82911522061738" lon="-9.468773700750289"><ele>14.0</ele><time>2026-03-29T11:10:00Z</time></trkpt><trkpt lat="38.82920624526905" lon="-9.468707341759819"><ele>14.0</ele><time>2026-03-29T11:10:01Z</time></trkpt><trkpt lat="38.829301292667196" lon="-9.468633133557871"><ele>15.5</ele><time>2026-03-29T11:10:02Z</time></trkpt><trkpt lat="38.829411403095094" lon="-9.46855657392732"><ele>17.0</ele><time>2026-03-29T11:10:03Z</time></trkpt><trkpt lat="38.82954084817191" lon="-9.468465044794291"><ele>18.5</ele><time>2026-03-29T11:10:04Z</time></trkpt><trkpt lat="38.82966056600878" lon="-9.468379310292564"><ele>20.0</ele><time>2026-03-29T11:10:05Z</time></trkpt><trkpt lat="38.82976695965303" lon="-9.468303083054208"><ele>20.0</ele><time>2026-03-29T11:10:06Z</time></trkpt><trkpt lat="38.8298651982889" lon="-9.46824449060745"><ele>20.0</ele><time>2026-03-29T11:10:07Z</time></trkpt><trkpt lat="38.82997901185254" lon="-9.468174542257714"><ele>20.0</ele><time>2026-03-29T11:10:08Z</time></trkpt><trkpt lat="38.83010507884989" lon="-9.46811153323854"><ele>20.0</ele><time>2026-03-29T11:10:09Z</time></trkpt><trkpt lat="38.830239549841224" lon="-9.468056632003107"><ele>19.666666666666668</ele><time>2026-03-29T11:10:10Z</time></trkpt><trkpt lat="38.830390614966454" lon="-9.468001032679831"><ele>19.333333333333332</ele><time>2026-03-29T11:10:11Z</time></trkpt><trkpt lat="38.830562150151295" lon="-9.46793268049838"><ele>19.0</ele><time>2026-03-29T11:10:12Z</time></trkpt><trkpt lat="38.83071529196256" lon="-9.467873604276363"><ele>21.0</ele><time>2026-03-29T11:10:13Z</time></trkpt><trkpt lat="38.83084710489654" lon="-9.467820466921857"><ele>23.0</ele><time>2026-03-29T11:10:14Z</time></trkpt><trkpt lat="38.83097015015799" lon="-9.46776535538116"><ele>25.0</ele><time>2026-03-29T11:10:15Z</time></trkpt><trkpt lat="38.83109794236195" lon="-9.467715611443428"><ele>27.0</ele><time>2026-03-29T11:10:16Z</time></trkpt><trkpt lat="38.831232948001414" lon="-9.467658641291962"><ele>27.0</ele><time>2026-03-29T11:10:17Z</time></trkpt><trkpt lat="38.83136889103642" lon="-9.467600306038753"><ele>27.0</ele><time>2026-03-29T11:10:18Z</time></trkpt><trkpt lat="38.83149823056138" lon="-9.467532333936122"><ele>27.0</ele><time>2026-03-29T11:10:19Z</time></trkpt><trkpt lat="38.83163512061477" lon="-9.467464935726232"><ele>27.0</ele><time>2026-03-29T11:10:20Z</time></trkpt><trkpt lat="38.83177726798148" lon="-9.467406787780362"><ele>24.333333333333332</ele><time>2026-03-29T11:10:21Z</time></trkpt><trkpt lat="38.83191879344114" lon="-9.46735196606285"><ele>21.666666666666664</ele><time>2026-03-29T11:10:22Z</time></trkpt><trkpt lat="38.83206324858159" lon="-9.46729379390651"><ele>19.0</ele><time>2026-03-29T11:10:23Z</time></trkpt><trkpt lat="38.832210229297914" lon="-9.46723213031409"><ele>19.0</ele><time>2026-03-29T11:10:24Z</time></trkpt><trkpt lat="38.83236810552159" lon="-9.467169507982202"><ele>19.0</ele><time>2026-03-29T11:10:25Z</time></trkpt><trkpt lat="38.83253614479865" lon="-9.467102103254083"><ele>19.0</ele><time>2026-03-29T11:10:26Z</time></trkpt><trkpt lat="38.832712229252635" lon="-9.467028316267555"><ele>22.0</ele><time>2026-03-29T11:10:27Z</time></trkpt><trkpt lat="38.83288570480102" lon="-9.466954405004552"><ele>25.0</ele><time>2026-03-29T11:10:28Z</time></trkpt><trkpt lat="38.83304228460742" lon="-9.466898532732522"><ele>28.0</ele><time>2026-03-29T11:10:29Z</time></trkpt><trkpt lat="38.833188652506536" lon="-9.466831540567219"><ele>28.0</ele><time>2026-03-29T11:10:30Z</time></trkpt><trkpt lat="38.83334827430188" lon="-9.466761203050243"><ele>28.0</ele><time>2026-03-29T11:10:31Z</time></trkpt><trkpt lat="38.83350928586468" lon="-9.466689806170871"><ele>28.0</ele><time>2026-03-29T11:10:32Z</time></trkpt><trkpt lat="38.833667452964384" lon="-9.466616687180744"><ele>27.666666666666668</ele><time>2026-03-29T11:10:33Z</time></trkpt><trkpt lat="38.833824665734966" lon="-9.466549536454233"><ele>27.333333333333336</ele><time>2026-03-29T11:10:34Z</time></trkpt><trkpt lat="38.833979995221206" lon="-9.466486195359682"><ele>27.0</ele><time>2026-03-29T11:10:35Z</time></trkpt><trkpt lat="38.83413067417642" lon="-9.466426589592103"><ele>27.0</ele><time>2026-03-29T11:10:36Z</time></trkpt><trkpt lat="38.83427470798072" lon="-9.466362643928303"><ele>27.0</ele><time>2026-03-29T11:10:37Z</time></trkpt><trkpt lat="38.83442257513095" lon="-9.466300527674187"><ele>27.0</ele><time>2026-03-29T11:10:38Z</time></trkpt><trkpt lat="38.83457684696596" lon="-9.46623889656008"><ele>30.0</ele><time>2026-03-29T11:10:39Z</time></trkpt><trkpt lat="38.83473871968364" lon="-9.46616438568211"><ele>33.0</ele><time>2026-03-29T11:10:40Z</time></trkpt><trkpt lat="38.834908231822766" lon="-9.466094270016738"><ele>36.0</ele><time>2026-03-29T11:10:41Z</time></trkpt><trkpt lat="38.835071197418664" lon="-9.466017408461012"><ele>34.0</ele><time>2026-03-29T11:10:42Z</time></trkpt><trkpt lat="38.83522733332651" lon="-9.465933965337909"><ele>32.0</ele><time>2026-03-29T11:10:43Z</time></trkpt><trkpt lat="38.83537574260002" lon="-9.465846938334634"><ele>30.0</ele><time>2026-03-29T11:10:44Z</time></trkpt><trkpt lat="38.8355015954512" lon="-9.465769313203168"><ele>30.0</ele><time>2026-03-29T11:10:45Z</time></trkpt><trkpt lat="38.83561801999809" lon="-9.465695851027311"><ele>30.0</ele><time>2026-03-29T11:10:46Z</time></trkpt><trkpt lat="38.83571712582265" lon="-9.465626644539212"><ele>30.0</ele><time>2026-03-29T11:10:47Z</time></trkpt><trkpt lat="38.835820955297656" lon="-9.465556927792441"><ele>30.0</ele><time>2026-03-29T11:10:48Z</time></trkpt><trkpt lat="38.835932780511484" lon="-9.465474533872303"><ele>31.4</ele><time>2026-03-29T11:10:49Z</time></trkpt><trkpt lat="38.83603779100631" lon="-9.465390057620372"><ele>32.8</ele><time>2026-03-29T11:10:50Z</time></trkpt><trkpt lat="38.83612310690496" lon="-9.465321568902382"><ele>34.2</ele><time>2026-03-29T11:10:51Z</time></trkpt><trkpt lat="38.83618750486414" lon="-9.465263191105715"><ele>35.6</ele><time>2026-03-29T11:10:52Z</time></trkpt><trkpt lat="38.83626038810053" lon="-9.465212848591994"><ele>37.0</ele><time>2026-03-29T11:10:54Z</time></trkpt><trkpt lat="38.83631972278688" lon="-9.465135176078537"><ele>37.0</ele><time>2026-03-29T11:11:17Z</time></trkpt><trkpt lat="38.836412361426774" lon="-9.465057310122186"><ele>37.0</ele><time>2026-03-29T11:11:19Z</time></trkpt><trkpt lat="38.83652833531683" lon="-9.464982975434426"><ele>37.0</ele><time>2026-03-29T11:11:21Z</time></trkpt><trkpt lat="38.836605615286174" lon="-9.464932651090754"><ele>37.0</ele><time>2026-03-29T11:11:22Z</time></trkpt><trkpt lat="38.83670250277887" lon="-9.46485835647544"><ele>37.0</ele><time>2026-03-29T11:11:23Z</time></trkpt><trkpt lat="38.83680532011422" lon="-9.464777997366259"><ele>35.75</ele><time>2026-03-29T11:11:24Z</time></trkpt><trkpt lat="38.836920257706886" lon="-9.464688196700463"><ele>34.5</ele><time>2026-03-29T11:11:25Z</time></trkpt><trkpt lat="38.83703607519371" lon="-9.464587697837276"><ele>33.25</ele><time>2026-03-29T11:11:26Z</time></trkpt><trkpt lat="38.83713384642021" lon="-9.464464301891544"><ele>32.0</ele><time>2026-03-29T11:11:27Z</time></trkpt><trkpt lat="38.83719711663502" lon="-9.464333875035349"><ele>32.0</ele><time>2026-03-29T11:11:28Z</time></trkpt><trkpt lat="38.83728506358332" lon="-9.46420950519504"><ele>32.0</ele><time>2026-03-29T11:11:29Z</time></trkpt><trkpt lat="38.837352452693466" lon="-9.464079202454423"><ele>32.0</ele><time>2026-03-29T11:11:30Z</time></trkpt><trkpt lat="38.837407146231506" lon="-9.463952496172093"><ele>32.0</ele><time>2026-03-29T11:11:31Z</time></trkpt><trkpt lat="38.837465968495586" lon="-9.463851921198033"><ele>34.25</ele><time>2026-03-29T11:11:32Z</time></trkpt><trkpt lat="38.83752933592205" lon="-9.463744599448136"><ele>36.5</ele><time>2026-03-29T11:11:33Z</time></trkpt><trkpt lat="38.837601381400106" lon="-9.463639302464118"><ele>38.75</ele><time>2026-03-29T11:11:34Z</time></trkpt><trkpt lat="38.83768858485361" lon="-9.463522418265303"><ele>41.0</ele><time>2026-03-29T11:11:35Z</time></trkpt><trkpt lat="38.837778647083006" lon="-9.463387487844818"><ele>41.33333333333333</ele><time>2026-03-29T11:11:36Z</time></trkpt><trkpt lat="38.83787230467038" lon="-9.463235999671694"><ele>41.666666666666664</ele><time>2026-03-29T11:11:37Z</time></trkpt><trkpt lat="38.837961329396606" lon="-9.463070397582051"><ele>42.0</ele><time>2026-03-29T11:11:38Z</time></trkpt><trkpt lat="38.83804103059857" lon="-9.462891459552985"><ele>43.0</ele><time>2026-03-29T11:11:39Z</time></trkpt><trkpt lat="38.83811109473809" lon="-9.462707707978456"><ele>44.0</ele><time>2026-03-29T11:11:40Z</time></trkpt><trkpt lat="38.838165661642044" lon="-9.462547042671908"><ele>45.0</ele><time>2026-03-29T11:11:41Z</time></trkpt><trkpt lat="38.838227673855975" lon="-9.462396971365047"><ele>46.0</ele><time>2026-03-29T11:11:42Z</time></trkpt><trkpt lat="38.83827348519982" lon="-9.462266901961886"><ele>46.0</ele><time>2026-03-29T11:11:43Z</time></trkpt><trkpt lat="38.83830380065853" lon="-9.462156759772284"><ele>46.0</ele><time>2026-03-29T11:11:44Z</time></trkpt><trkpt lat="38.83833309829145" lon="-9.462038115216659"><ele>46.0</ele><time>2026-03-29T11:11:45Z</time></trkpt><trkpt lat="38.838374056426964" lon="-9.461918273015325"><ele>46.0</ele><time>2026-03-29T11:11:46Z</time></trkpt><trkpt lat="38.83842477187219" lon="-9.46179458966208"><ele>46.0</ele><time>2026-03-29T11:11:47Z</time></trkpt><trkpt lat="38.83842654979975" lon="-9.461640648637704"><ele>47.0</ele><time>2026-03-29T11:11:48Z</time></trkpt><trkpt lat="38.83842527450545" lon="-9.461476498162948"><ele>48.0</ele><time>2026-03-29T11:11:49Z</time></trkpt><trkpt lat="38.838384960251844" lon="-9.461316964407208"><ele>49.0</ele><time>2026-03-29T11:11:50Z</time></trkpt><trkpt lat="38.83833483260484" lon="-9.461167818397314"><ele>50.0</ele><time>2026-03-29T11:11:51Z</time></trkpt><trkpt lat="38.83828442013444" lon="-9.461024555229873"><ele>50.75</ele><time>2026-03-29T11:11:52Z</time></trkpt><trkpt lat="38.8382429715286" lon="-9.460865787870555"><ele>51.5</ele><time>2026-03-29T11:11:53Z</time></trkpt><trkpt lat="38.838209094828414" lon="-9.460706986483043"><ele>52.25</ele><time>2026-03-29T11:11:54Z</time></trkpt><trkpt lat="38.838179546231615" lon="-9.460587448566518"><ele>53.0</ele><time>2026-03-29T11:11:55Z</time></trkpt><trkpt lat="38.83815095251011" lon="-9.460460878897454"><ele>51.25</ele><time>2026-03-29T11:11:56Z</time></trkpt><trkpt lat="38.838097110453795" lon="-9.46035898844047"><ele>49.5</ele><time>2026-03-29T11:11:57Z</time></trkpt><trkpt lat="38.83801170782485" lon="-9.460253705994761"><ele>47.75</ele><time>2026-03-29T11:11:58Z</time></trkpt><trkpt lat="38.83790511752444" lon="-9.460162617483075"><ele>46.0</ele><time>2026-03-29T11:11:59Z</time></trkpt><trkpt lat="38.837775309284154" lon="-9.460068665883487"><ele>46.0</ele><time>2026-03-29T11:12:00Z</time></trkpt><trkpt lat="38.83764749438887" lon="-9.45999464545263"><ele>46.0</ele><time>2026-03-29T11:12:01Z</time></trkpt><trkpt lat="38.837531321035044" lon="-9.459926810339542"><ele>46.0</ele><time>2026-03-29T11:12:02Z</time></trkpt><trkpt lat="38.83742238104806" lon="-9.459863849072935"><ele>46.0</ele><time>2026-03-29T11:12:03Z</time></trkpt><trkpt lat="38.83731559528297" lon="-9.45977965358618"><ele>46.0</ele><time>2026-03-29T11:12:04Z</time></trkpt><trkpt lat="38.83721854201449" lon="-9.459727003068423"><ele>46.0</ele><time>2026-03-29T11:12:05Z</time></trkpt><trkpt lat="38.83713665059096" lon="-9.459671157614443"><ele>46.0</ele><time>2026-03-29T11:12:06Z</time></trkpt><trkpt lat="38.83706618095331" lon="-9.459596402394572"><ele>46.0</ele><time>2026-03-29T11:12:07Z</time></trkpt><trkpt lat="38.8369820747641" lon="-9.459497194495802"><ele>46.0</ele><time>2026-03-29T11:12:08Z</time></trkpt><trkpt lat="38.83689689128397" lon="-9.45942723426588"><ele>46.0</ele><time>2026-03-29T11:12:09Z</time></trkpt><trkpt lat="38.83681959556055" lon="-9.4593466781717"><ele>46.0</ele><time>2026-03-29T11:12:10Z</time></trkpt><trkpt lat="38.83671673595697" lon="-9.459259407100676"><ele>46.0</ele><time>2026-03-29T11:12:11Z</time></trkpt><trkpt lat="38.83664385404716" lon="-9.459096553864343"><ele>46.0</ele><time>2026-03-29T11:12:12Z</time></trkpt><trkpt lat="38.83652523993548" lon="-9.45893814526549"><ele>47.333333333333336</ele><time>2026-03-29T11:12:13Z</time></trkpt><trkpt lat="38.83641418672768" lon="-9.458757937499785"><ele>48.66666666666667</ele><time>2026-03-29T11:12:14Z</time></trkpt><trkpt lat="38.83630911603429" lon="-9.458585893823612"><ele>50.0</ele><time>2026-03-29T11:12:15Z</time></trkpt><trkpt lat="38.83619435026559" lon="-9.458397305933175"><ele>50.0</ele><time>2026-03-29T11:12:16Z</time></trkpt><trkpt lat="38.83608707190936" lon="-9.458220812342548"><ele>50.0</ele><time>2026-03-29T11:12:17Z</time></trkpt><trkpt lat="38.835972238272774" lon="-9.458032533721413"><ele>50.0</ele><time>2026-03-29T11:12:18Z</time></trkpt><trkpt lat="38.83584835579194" lon="-9.457830514615223"><ele>52.333333333333336</ele><time>2026-03-29T11:12:19Z</time></trkpt><trkpt lat="38.83571985791486" lon="-9.457621466823081"><ele>54.66666666666667</ele><time>2026-03-29T11:12:20Z</time></trkpt><trkpt lat="38.8355876696542" lon="-9.457406439095193"><ele>57.0</ele><time>2026-03-29T11:12:21Z</time></trkpt><trkpt lat="38.835454496268696" lon="-9.457188981205634"><ele>57.33333333333333</ele><time>2026-03-29T11:12:22Z</time></trkpt><trkpt lat="38.8353393689341" lon="-9.457000817432956"><ele>57.666666666666664</ele><time>2026-03-29T11:12:23Z</time></trkpt><trkpt lat="38.835236319930075" lon="-9.456832666969909"><ele>58.0</ele><time>2026-03-29T11:12:24Z</time></trkpt><trkpt lat="38.8351426866206" lon="-9.456680212144565"><ele>59.75</ele><time>2026-03-29T11:12:25Z</time></trkpt><trkpt lat="38.83505345054278" lon="-9.456536196439096"><ele>61.5</ele><time>2026-03-29T11:12:26Z</time></trkpt><trkpt lat="38.83497687101921" lon="-9.456411990044932"><ele>63.25</ele><time>2026-03-29T11:12:27Z</time></trkpt><trkpt lat="38.83489646626485" lon="-9.456282134262702"><ele>65.0</ele><time>2026-03-29T11:12:28Z</time></trkpt><trkpt lat="38.83480460142302" lon="-9.456134257806555"><ele>65.75</ele><time>2026-03-29T11:12:29Z</time></trkpt><trkpt lat="38.83471946512474" lon="-9.455996440550821"><ele>66.5</ele><time>2026-03-29T11:12:30Z</time></trkpt><trkpt lat="38.834633951925106" lon="-9.45585802694926"><ele>67.25</ele><time>2026-03-29T11:12:31Z</time></trkpt><trkpt lat="38.83453773153751" lon="-9.455702282577787"><ele>68.0</ele><time>2026-03-29T11:12:32Z</time></trkpt><trkpt lat="38.834445378479664" lon="-9.455553969358581"><ele>68.25</ele><time>2026-03-29T11:12:33Z</time></trkpt><trkpt lat="38.834352788935824" lon="-9.45540324493839"><ele>68.5</ele><time>2026-03-29T11:12:34Z</time></trkpt><trkpt lat="38.83426182651117" lon="-9.455255895234897"><ele>68.75</ele><time>2026-03-29T11:12:35Z</time></trkpt><trkpt lat="38.83417170252511" lon="-9.455110787627884"><ele>69.0</ele><time>2026-03-29T11:12:36Z</time></trkpt><trkpt lat="38.834093949845574" lon="-9.454985599010815"><ele>70.0</ele><time>2026-03-29T11:12:37Z</time></trkpt><trkpt lat="38.83401839126108" lon="-9.454863942841474"><ele>71.0</ele><time>2026-03-29T11:12:38Z</time></trkpt><trkpt lat="38.83395598664351" lon="-9.45475872477489"><ele>72.0</ele><time>2026-03-29T11:12:39Z</time></trkpt><trkpt lat="38.833899690086014" lon="-9.454662713898255"><ele>73.0</ele><time>2026-03-29T11:12:40Z</time></trkpt><trkpt lat="38.833825576927374" lon="-9.454536317649712"><ele>74.0</ele><time>2026-03-29T11:12:41Z</time></trkpt><trkpt lat="38.833742017131065" lon="-9.45439787234972"><ele>74.0</ele><time>2026-03-29T11:12:42Z</time></trkpt><trkpt lat="38.833645792677295" lon="-9.454243445975331"><ele>74.0</ele><time>2026-03-29T11:12:43Z</time></trkpt><trkpt lat="38.8335406088274" lon="-9.454084178392938"><ele>74.0</ele><time>2026-03-29T11:12:44Z</time></trkpt><trkpt lat="38.83343518578275" lon="-9.453923674024823"><ele>75.25</ele><time>2026-03-29T11:12:45Z</time></trkpt><trkpt lat="38.8333355311789" lon="-9.453765377880458"><ele>76.5</ele><time>2026-03-29T11:12:46Z</time></trkpt><trkpt lat="38.8332449459798" lon="-9.453620039934792"><ele>77.75</ele><time>2026-03-29T11:12:47Z</time></trkpt><trkpt lat="38.833159173740725" lon="-9.453478949349906"><ele>79.0</ele><time>2026-03-29T11:12:48Z</time></trkpt><trkpt lat="38.83307425198483" lon="-9.453338058782116"><ele>79.0</ele><time>2026-03-29T11:12:49Z</time></trkpt><trkpt lat="38.832990522738925" lon="-9.453196340014275"><ele>79.0</ele><time>2026-03-29T11:12:50Z</time></trkpt><trkpt lat="38.83291212795191" lon="-9.453062623273999"><ele>79.0</ele><time>2026-03-29T11:12:51Z</time></trkpt><trkpt lat="38.83284346922671" lon="-9.452941402943074"><ele>79.0</ele><time>2026-03-29T11:12:52Z</time></trkpt><trkpt lat="38.83278697212437" lon="-9.452802584915968"><ele>79.75</ele><time>2026-03-29T11:12:53Z</time></trkpt><trkpt lat="38.83271819816243" lon="-9.452666375188027"><ele>80.5</ele><time>2026-03-29T11:12:54Z</time></trkpt><trkpt lat="38.832666687782215" lon="-9.452519194381026"><ele>81.25</ele><time>2026-03-29T11:12:55Z</time></trkpt><trkpt lat="38.83262400742855" lon="-9.452364528558945"><ele>82.0</ele><time>2026-03-29T11:12:56Z</time></trkpt><trkpt lat="38.83258626960181" lon="-9.452212753731548"><ele>82.75</ele><time>2026-03-29T11:12:57Z</time></trkpt><trkpt lat="38.832541979077384" lon="-9.452061041689747"><ele>83.5</ele><time>2026-03-29T11:12:58Z</time></trkpt><trkpt lat="38.832504387016" lon="-9.451908607871955"><ele>84.25</ele><time>2026-03-29T11:12:59Z</time></trkpt><trkpt lat="38.832441039855205" lon="-9.451749298229407"><ele>85.0</ele><time>2026-03-29T11:13:00Z</time></trkpt><trkpt lat="38.832385540242775" lon="-9.451561749474177"><ele>85.0</ele><time>2026-03-29T11:13:01Z</time></trkpt><trkpt lat="38.832327559510695" lon="-9.451366694423147"><ele>85.0</ele><time>2026-03-29T11:13:02Z</time></trkpt><trkpt lat="38.832266625368575" lon="-9.451147912277712"><ele>85.0</ele><time>2026-03-29T11:13:03Z</time></trkpt><trkpt lat="38.83221696338577" lon="-9.450908978441245"><ele>85.0</ele><time>2026-03-29T11:13:04Z</time></trkpt><trkpt lat="38.83215282784369" lon="-9.450676954628308"><ele>85.0</ele><time>2026-03-29T11:13:05Z</time></trkpt><trkpt lat="38.83208411696302" lon="-9.450450753941448"><ele>85.0</ele><time>2026-03-29T11:13:06Z</time></trkpt><trkpt lat="38.8320227800125" lon="-9.450233742986907"><ele>85.0</ele><time>2026-03-29T11:13:07Z</time></trkpt><trkpt lat="38.83196266357018" lon="-9.450027004384097"><ele>85.0</ele><time>2026-03-29T11:13:08Z</time></trkpt><trkpt lat="38.83191209528649" lon="-9.449848783402224"><ele>85.0</ele><time>2026-03-29T11:13:09Z</time></trkpt><trkpt lat="38.83185355196386" lon="-9.449676975229565"><ele>86.33333333333333</ele><time>2026-03-29T11:13:10Z</time></trkpt><trkpt lat="38.83179077001868" lon="-9.449494365812665"><ele>87.66666666666667</ele><time>2026-03-29T11:13:11Z</time></trkpt><trkpt lat="38.83171963882989" lon="-9.44929227715611"><ele>89.0</ele><time>2026-03-29T11:13:12Z</time></trkpt><trkpt lat="38.831644703787795" lon="-9.44909110417887"><ele>89.0</ele><time>2026-03-29T11:13:13Z</time></trkpt><trkpt lat="38.83156720756818" lon="-9.448887781940154"><ele>89.0</ele><time>2026-03-29T11:13:14Z</time></trkpt><trkpt lat="38.83149785539874" lon="-9.44869085798767"><ele>89.0</ele><time>2026-03-29T11:13:15Z</time></trkpt><trkpt lat="38.831431042066725" lon="-9.448511055751622"><ele>90.0</ele><time>2026-03-29T11:13:16Z</time></trkpt><trkpt lat="38.83136337469968" lon="-9.44832264142229"><ele>91.0</ele><time>2026-03-29T11:13:17Z</time></trkpt><trkpt lat="38.83129116109232" lon="-9.448121061063338"><ele>92.0</ele><time>2026-03-29T11:13:18Z</time></trkpt><trkpt lat="38.83122715285292" lon="-9.447925230182642"><ele>92.33333333333334</ele><time>2026-03-29T11:13:19Z</time></trkpt><trkpt lat="38.83113834292069" lon="-9.44773653517671"><ele>92.66666666666667</ele><time>2026-03-29T11:13:20Z</time></trkpt><trkpt lat="38.83106625697223" lon="-9.447529509353354"><ele>93.0</ele><time>2026-03-29T11:13:21Z</time></trkpt><trkpt lat="38.8309971049424" lon="-9.447322813244662"><ele>92.33333333333333</ele><time>2026-03-29T11:13:22Z</time></trkpt><trkpt lat="38.83093572576094" lon="-9.447109308099199"><ele>91.66666666666666</ele><time>2026-03-29T11:13:23Z</time></trkpt><trkpt lat="38.830876682498946" lon="-9.446890056485246"><ele>91.0</ele><time>2026-03-29T11:13:24Z</time></trkpt><trkpt lat="38.83082230103339" lon="-9.44666123184274"><ele>91.0</ele><time>2026-03-29T11:13:25Z</time></trkpt><trkpt lat="38.830790308128" lon="-9.44643792788151"><ele>91.0</ele><time>2026-03-29T11:13:26Z</time></trkpt><trkpt lat="38.830746694256035" lon="-9.446221038074661"><ele>91.0</ele><time>2026-03-29T11:13:27Z</time></trkpt><trkpt lat="38.8306872055253" lon="-9.44601601625592"><ele>91.0</ele><time>2026-03-29T11:13:28Z</time></trkpt><trkpt lat="38.8306560279073" lon="-9.445794752411146"><ele>91.0</ele><time>2026-03-29T11:13:29Z</time></trkpt><trkpt lat="38.830595529578076" lon="-9.445587145549121"><ele>91.0</ele><time>2026-03-29T11:13:30Z</time></trkpt><trkpt lat="38.83054816624546" lon="-9.445366186739761"><ele>91.66666666666666</ele><time>2026-03-29T11:13:31Z</time></trkpt><trkpt lat="38.83050882985516" lon="-9.445153237823321"><ele>92.33333333333333</ele><time>2026-03-29T11:13:32Z</time></trkpt><trkpt lat="38.830472698501666" lon="-9.44495204895929"><ele>93.0</ele><time>2026-03-29T11:13:33Z</time></trkpt><trkpt lat="38.83043301628489" lon="-9.444767211080348"><ele>94.66666666666666</ele><time>2026-03-29T11:13:34Z</time></trkpt><trkpt lat="38.83037808823952" lon="-9.444580572445073"><ele>96.33333333333333</ele><time>2026-03-29T11:13:35Z</time></trkpt><trkpt lat="38.83035106323446" lon="-9.444384189042347"><ele>98.0</ele><time>2026-03-29T11:13:36Z</time></trkpt><trkpt lat="38.83029353963425" lon="-9.444194131994806"><ele>98.0</ele><time>2026-03-29T11:13:37Z</time></trkpt><trkpt lat="38.83024801725456" lon="-9.443984085189353"><ele>98.0</ele><time>2026-03-29T11:13:38Z</time></trkpt><trkpt lat="38.83021554228199" lon="-9.443771098399509"><ele>98.0</ele><time>2026-03-29T11:13:39Z</time></trkpt><trkpt lat="38.83016940687829" lon="-9.443556928333392"><ele>97.33333333333333</ele><time>2026-03-29T11:13:40Z</time></trkpt><trkpt lat="38.83012131376827" lon="-9.443346061811852"><ele>96.66666666666666</ele><time>2026-03-29T11:13:41Z</time></trkpt><trkpt lat="38.83007117445108" lon="-9.443130779312213"><ele>96.0</ele><time>2026-03-29T11:13:42Z</time></trkpt><trkpt lat="38.8300305859208" lon="-9.442939781339897"><ele>96.0</ele><time>2026-03-29T11:13:43Z</time></trkpt><trkpt lat="38.82998368056624" lon="-9.442744628089743"><ele>96.0</ele><time>2026-03-29T11:13:44Z</time></trkpt><trkpt lat="38.82992481116053" lon="-9.442554220982972"><ele>96.0</ele><time>2026-03-29T11:13:45Z</time></trkpt><trkpt lat="38.829879016285986" lon="-9.442356602150289"><ele>96.0</ele><time>2026-03-29T11:13:46Z</time></trkpt><trkpt lat="38.82983198064787" lon="-9.44216007905047"><ele>96.0</ele><time>2026-03-29T11:13:47Z</time></trkpt><trkpt lat="38.82977877103218" lon="-9.441969755046918"><ele>96.0</ele><time>2026-03-29T11:13:48Z</time></trkpt><trkpt lat="38.82972067060411" lon="-9.441789834530564"><ele>96.0</ele><time>2026-03-29T11:13:49Z</time></trkpt><trkpt lat="38.82965869062247" lon="-9.441607500686278"><ele>96.0</ele><time>2026-03-29T11:13:50Z</time></trkpt><trkpt lat="38.82959731730372" lon="-9.441431751730267"><ele>96.0</ele><time>2026-03-29T11:13:51Z</time></trkpt><trkpt lat="38.829530633619086" lon="-9.441252399672367"><ele>97.25</ele><time>2026-03-29T11:13:52Z</time></trkpt><trkpt lat="38.829474837762874" lon="-9.44109880820804"><ele>98.5</ele><time>2026-03-29T11:13:53Z</time></trkpt><trkpt lat="38.829426480249865" lon="-9.440936438371235"><ele>99.75</ele><time>2026-03-29T11:13:54Z</time></trkpt><trkpt lat="38.829363536176565" lon="-9.440809297251342"><ele>101.0</ele><time>2026-03-29T11:13:55Z</time></trkpt><trkpt lat="38.82932362378958" lon="-9.440663274909772"><ele>100.19999999999999</ele><time>2026-03-29T11:13:56Z</time></trkpt><trkpt lat="38.82927270107797" lon="-9.440544408778802"><ele>99.39999999999999</ele><time>2026-03-29T11:13:57Z</time></trkpt><trkpt lat="38.82923109199404" lon="-9.440426201896999"><ele>98.6</ele><time>2026-03-29T11:13:58Z</time></trkpt><trkpt lat="38.82918881850999" lon="-9.440318390818987"><ele>97.8</ele><time>2026-03-29T11:13:59Z</time></trkpt><trkpt lat="38.829144083564756" lon="-9.440188041134649"><ele>97.0</ele><time>2026-03-29T11:14:01Z</time></trkpt><trkpt lat="38.82911460587721" lon="-9.440104927272092"><ele>96.50000000000001</ele><time>2026-03-29T11:14:03Z</time></trkpt><trkpt lat="38.82909379841351" lon="-9.440011931710949"><ele>96.0</ele><time>2026-03-29T11:14:05Z</time></trkpt><trkpt lat="38.82906773842929" lon="-9.439894288462215"><ele>95.5</ele><time>2026-03-29T11:14:07Z</time></trkpt><trkpt lat="38.82904227245173" lon="-9.43980041498992"><ele>95.0</ele><time>2026-03-29T11:14:08Z</time></trkpt><trkpt lat="38.82901456136511" lon="-9.439692010322414"><ele>94.5</ele><time>2026-03-29T11:14:09Z</time></trkpt><trkpt lat="38.82898005549045" lon="-9.439555906367763"><ele>94.0</ele><time>2026-03-29T11:14:10Z</time></trkpt><trkpt lat="38.828949714343274" lon="-9.439425113273566"><ele>94.0</ele><time>2026-03-29T11:14:11Z</time></trkpt><trkpt lat="38.82890445646621" lon="-9.439275278161201"><ele>94.0</ele><time>2026-03-29T11:14:12Z</time></trkpt><trkpt lat="38.82885391546993" lon="-9.439116480137816"><ele>94.0</ele><time>2026-03-29T11:14:13Z</time></trkpt><trkpt lat="38.82880403822495" lon="-9.438953068070646"><ele>94.0</ele><time>2026-03-29T11:14:14Z</time></trkpt><trkpt lat="38.82874558836808" lon="-9.438798422863513"><ele>95.75</ele><time>2026-03-29T11:14:15Z</time></trkpt><trkpt lat="38.828673611917715" lon="-9.43867539473172"><ele>97.5</ele><time>2026-03-29T11:14:16Z</time></trkpt><trkpt lat="38.82861879364297" lon="-9.438538263427626"><ele>99.25</ele><time>2026-03-29T11:14:17Z</time></trkpt><trkpt lat="38.82848339247383" lon="-9.438495352499675"><ele>101.0</ele><time>2026-03-29T11:14:18Z</time></trkpt><trkpt lat="38.82836184325156" lon="-9.438406791542937"><ele>101.5</ele><time>2026-03-29T11:14:19Z</time></trkpt><trkpt lat="38.82824732631471" lon="-9.438295310680015"><ele>102.0</ele><time>2026-03-29T11:14:20Z</time></trkpt><trkpt lat="38.8281191399741" lon="-9.438208370915442"><ele>102.5</ele><time>2026-03-29T11:14:21Z</time></trkpt><trkpt lat="38.82798555103214" lon="-9.438113208219589"><ele>103.0</ele><time>2026-03-29T11:14:22Z</time></trkpt><trkpt lat="38.82785424284877" lon="-9.438014522441447"><ele>104.0</ele><time>2026-03-29T11:14:23Z</time></trkpt><trkpt lat="38.82770552436259" lon="-9.437956669589752"><ele>105.0</ele><time>2026-03-29T11:14:24Z</time></trkpt><trkpt lat="38.82755069464789" lon="-9.437891260619917"><ele>106.0</ele><time>2026-03-29T11:14:25Z</time></trkpt><trkpt lat="38.827386268850496" lon="-9.43782165130547"><ele>108.5</ele><time>2026-03-29T11:14:26Z</time></trkpt><trkpt lat="38.827226076518976" lon="-9.437763704074541"><ele>111.0</ele><time>2026-03-29T11:14:27Z</time></trkpt><trkpt lat="38.82708163811289" lon="-9.437756043225713"><ele>113.5</ele><time>2026-03-29T11:14:28Z</time></trkpt><trkpt lat="38.826957663004094" lon="-9.437745791429046"><ele>116.0</ele><time>2026-03-29T11:14:29Z</time></trkpt><trkpt lat="38.826841544379725" lon="-9.43774165609227"><ele>116.33333333333333</ele><time>2026-03-29T11:14:30Z</time></trkpt><trkpt lat="38.82675161804947" lon="-9.437740390227136"><ele>116.66666666666666</ele><time>2026-03-29T11:14:31Z</time></trkpt><trkpt lat="38.82666953626365" lon="-9.43774827222581"><ele>117.0</ele><time>2026-03-29T11:14:32Z</time></trkpt><trkpt lat="38.82658597697893" lon="-9.437777519415167"><ele>117.33333333333334</ele><time>2026-03-29T11:14:33Z</time></trkpt><trkpt lat="38.826499224147526" lon="-9.437815811073383"><ele>117.66666666666667</ele><time>2026-03-29T11:14:34Z</time></trkpt><trkpt lat="38.826410381530536" lon="-9.437794559755671"><ele>118.0</ele><time>2026-03-29T11:14:35Z</time></trkpt><trkpt lat="38.82634419182382" lon="-9.43779792046492"><ele>118.0</ele><time>2026-03-29T11:14:36Z</time></trkpt><trkpt lat="38.82625440919881" lon="-9.437770972815105"><ele>118.0</ele><time>2026-03-29T11:14:38Z</time></trkpt><trkpt lat="38.82623519843034" lon="-9.437524550161388"><ele>118.0</ele><time>2026-03-29T11:14:41Z</time></trkpt><trkpt lat="38.82628369284162" lon="-9.437378316020046"><ele>118.0</ele><time>2026-03-29T11:14:42Z</time></trkpt><trkpt lat="38.826344137924195" lon="-9.437197441265225"><ele>119.33333333333334</ele><time>2026-03-29T11:14:43Z</time></trkpt><trkpt lat="38.82639064203778" lon="-9.437000769157196"><ele>120.66666666666666</ele><time>2026-03-29T11:14:44Z</time></trkpt><trkpt lat="38.82642669421838" lon="-9.436798711463311"><ele>122.0</ele><time>2026-03-29T11:14:45Z</time></trkpt><trkpt lat="38.82643028006448" lon="-9.436591889353892"><ele>122.0</ele><time>2026-03-29T11:14:46Z</time></trkpt><trkpt lat="38.82641361938813" lon="-9.436394673942921"><ele>122.0</ele><time>2026-03-29T11:14:47Z</time></trkpt><trkpt lat="38.826337615982865" lon="-9.436231614975533"><ele>122.0</ele><time>2026-03-29T11:14:48Z</time></trkpt><trkpt lat="38.82627589742558" lon="-9.436035719949906"><ele>122.75</ele><time>2026-03-29T11:14:49Z</time></trkpt><trkpt lat="38.826232064498136" lon="-9.435838045316117"><ele>123.5</ele><time>2026-03-29T11:14:50Z</time></trkpt><trkpt lat="38.82619384506761" lon="-9.435667352417106"><ele>124.25</ele><time>2026-03-29T11:14:51Z</time></trkpt><trkpt lat="38.826176184488155" lon="-9.43548044813353"><ele>125.0</ele><time>2026-03-29T11:14:52Z</time></trkpt><trkpt lat="38.826181433923736" lon="-9.43527868849694"><ele>126.33333333333333</ele><time>2026-03-29T11:14:52.999Z</time></trkpt><trkpt lat="38.82620738218862" lon="-9.43506688488746"><ele>127.66666666666666</ele><time>2026-03-29T11:14:53.999Z</time></trkpt><trkpt lat="38.82623958492117" lon="-9.434860174502736"><ele>129.0</ele><time>2026-03-29T11:14:54.999Z</time></trkpt><trkpt lat="38.8262666932386" lon="-9.434645842624382"><ele>129.66666666666666</ele><time>2026-03-29T11:14:55.999Z</time></trkpt><trkpt lat="38.82628020298592" lon="-9.43441574689898"><ele>130.33333333333331</ele><time>2026-03-29T11:14:56.999Z</time></trkpt><trkpt lat="38.82625142602898" lon="-9.43418870764492"><ele>131.0</ele><time>2026-03-29T11:14:57.999Z</time></trkpt><trkpt lat="38.826213851594794" lon="-9.433964108549755"><ele>131.33333333333331</ele><time>2026-03-29T11:14:58.999Z</time></trkpt><trkpt lat="38.82617260501005" lon="-9.433745042384697"><ele>131.66666666666666</ele><time>2026-03-29T11:14:59.999Z</time></trkpt><trkpt lat="38.82613184914617" lon="-9.433529154616245"><ele>132.0</ele><time>2026-03-29T11:15:00.999Z</time></trkpt><trkpt lat="38.82608931338077" lon="-9.433293851178718"><ele>132.0</ele><time>2026-03-29T11:15:01.999Z</time></trkpt><trkpt lat="38.826050354275715" lon="-9.433087274173943"><ele>132.0</ele><time>2026-03-29T11:15:02.999Z</time></trkpt><trkpt lat="38.82601368316729" lon="-9.43290216502239"><ele>132.0</ele><time>2026-03-29T11:15:03.999Z</time></trkpt><trkpt lat="38.825974581029385" lon="-9.432705469811628"><ele>133.66666666666666</ele><time>2026-03-29T11:15:04.999Z</time></trkpt><trkpt lat="38.82595104189219" lon="-9.432499935068822"><ele>135.33333333333331</ele><time>2026-03-29T11:15:06Z</time></trkpt><trkpt lat="38.82591639939477" lon="-9.432300748442934"><ele>137.0</ele><time>2026-03-29T11:15:07Z</time></trkpt><trkpt lat="38.825852563491985" lon="-9.43213257020924"><ele>137.66666666666666</ele><time>2026-03-29T11:15:08Z</time></trkpt><trkpt lat="38.82585185943984" lon="-9.431909510093957"><ele>138.33333333333334</ele><time>2026-03-29T11:15:09Z</time></trkpt><trkpt lat="38.82585558568506" lon="-9.43169906228367"><ele>139.0</ele><time>2026-03-29T11:15:10Z</time></trkpt><trkpt lat="38.82586224437459" lon="-9.431479694306026"><ele>139.33333333333334</ele><time>2026-03-29T11:15:11Z</time></trkpt><trkpt lat="38.82587384691589" lon="-9.431265282828278"><ele>139.66666666666666</ele><time>2026-03-29T11:15:12Z</time></trkpt><trkpt lat="38.82588119962643" lon="-9.431047011638151"><ele>140.0</ele><time>2026-03-29T11:15:13Z</time></trkpt><trkpt lat="38.82588582153787" lon="-9.430830029129261"><ele>140.0</ele><time>2026-03-29T11:15:14Z</time></trkpt><trkpt lat="38.825884935223044" lon="-9.430633993156128"><ele>140.0</ele><time>2026-03-29T11:15:15Z</time></trkpt><trkpt lat="38.82585762723305" lon="-9.430450970554439"><ele>140.0</ele><time>2026-03-29T11:15:16Z</time></trkpt><trkpt lat="38.825821475679106" lon="-9.430259742773792"><ele>140.66666666666666</ele><time>2026-03-29T11:15:17Z</time></trkpt><trkpt lat="38.82576505081468" lon="-9.430062018694255"><ele>141.33333333333334</ele><time>2026-03-29T11:15:18Z</time></trkpt><trkpt lat="38.825703954732205" lon="-9.429864136416333"><ele>142.0</ele><time>2026-03-29T11:15:19Z</time></trkpt><trkpt lat="38.82564761978228" lon="-9.429678099887212"><ele>142.0</ele><time>2026-03-29T11:15:20Z</time></trkpt><trkpt lat="38.825590508790924" lon="-9.42949578635481"><ele>142.0</ele><time>2026-03-29T11:15:21Z</time></trkpt><trkpt lat="38.825530465862904" lon="-9.42930523812747"><ele>142.0</ele><time>2026-03-29T11:15:22Z</time></trkpt><trkpt lat="38.825486293728815" lon="-9.429118826417353"><ele>142.0</ele><time>2026-03-29T11:15:23Z</time></trkpt><trkpt lat="38.82543020183586" lon="-9.428956478253756"><ele>142.0</ele><time>2026-03-29T11:15:24Z</time></trkpt><trkpt lat="38.82537024477782" lon="-9.428796903322208"><ele>142.0</ele><time>2026-03-29T11:15:25Z</time></trkpt><trkpt lat="38.825312720198546" lon="-9.428628090889923"><ele>142.0</ele><time>2026-03-29T11:15:26Z</time></trkpt><trkpt lat="38.82526170163617" lon="-9.42845678554551"><ele>143.0</ele><time>2026-03-29T11:15:27Z</time></trkpt><trkpt lat="38.82521955685649" lon="-9.428289945436774"><ele>144.0</ele><time>2026-03-29T11:15:28Z</time></trkpt><trkpt lat="38.82518092829069" lon="-9.428131135001268"><ele>145.0</ele><time>2026-03-29T11:15:29Z</time></trkpt><trkpt lat="38.825160474635155" lon="-9.427958522683438"><ele>146.0</ele><time>2026-03-29T11:15:30Z</time></trkpt><trkpt lat="38.825172106168566" lon="-9.427775287968444"><ele>146.66666666666666</ele><time>2026-03-29T11:15:31Z</time></trkpt><trkpt lat="38.82520317151758" lon="-9.42756926591993"><ele>147.33333333333334</ele><time>2026-03-29T11:15:32Z</time></trkpt><trkpt lat="38.82524349650929" lon="-9.427353883132776"><ele>148.0</ele><time>2026-03-29T11:15:33Z</time></trkpt><trkpt lat="38.82527285976733" lon="-9.427150266192708"><ele>148.33333333333334</ele><time>2026-03-29T11:15:34Z</time></trkpt><trkpt lat="38.82529771668214" lon="-9.426950595809181"><ele>148.66666666666666</ele><time>2026-03-29T11:15:35Z</time></trkpt><trkpt lat="38.82531921584654" lon="-9.42675905396564"><ele>149.0</ele><time>2026-03-29T11:15:36Z</time></trkpt><trkpt lat="38.825341398108854" lon="-9.426562761923732"><ele>149.0</ele><time>2026-03-29T11:15:37Z</time></trkpt><trkpt lat="38.825362147561464" lon="-9.42637100678959"><ele>149.0</ele><time>2026-03-29T11:15:38Z</time></trkpt><trkpt lat="38.82538645020056" lon="-9.426176341346688"><ele>149.0</ele><time>2026-03-29T11:15:39Z</time></trkpt><trkpt lat="38.82541004188565" lon="-9.425984543060094"><ele>149.5</ele><time>2026-03-29T11:15:40Z</time></trkpt><trkpt lat="38.82543368613413" lon="-9.425800199816177"><ele>150.0</ele><time>2026-03-29T11:15:41Z</time></trkpt><trkpt lat="38.8254514762708" lon="-9.425606646567925"><ele>150.5</ele><time>2026-03-29T11:15:42Z</time></trkpt><trkpt lat="38.82547368200764" lon="-9.425415883274948"><ele>151.0</ele><time>2026-03-29T11:15:43Z</time></trkpt><trkpt lat="38.8254861690303" lon="-9.42525765867801"><ele>152.0</ele><time>2026-03-29T11:15:44Z</time></trkpt><trkpt lat="38.82549243516662" lon="-9.42512903465301"><ele>153.0</ele><time>2026-03-29T11:15:45Z</time></trkpt><trkpt lat="38.825509608321326" lon="-9.424968729675857"><ele>154.0</ele><time>2026-03-29T11:15:46Z</time></trkpt><trkpt lat="38.82552865516694" lon="-9.424790620142307"><ele>155.0</ele><time>2026-03-29T11:15:47Z</time></trkpt><trkpt lat="38.82554856195786" lon="-9.424601733613"><ele>156.0</ele><time>2026-03-29T11:15:48Z</time></trkpt><trkpt lat="38.825560388868205" lon="-9.424417755727614"><ele>157.0</ele><time>2026-03-29T11:15:49Z</time></trkpt><trkpt lat="38.82557559248522" lon="-9.42424055688684"><ele>158.0</ele><time>2026-03-29T11:15:50Z</time></trkpt><trkpt lat="38.82559915335359" lon="-9.42406483109587"><ele>159.0</ele><time>2026-03-29T11:15:51Z</time></trkpt><trkpt lat="38.82561222559528" lon="-9.423882761237582"><ele>160.0</ele><time>2026-03-29T11:15:52Z</time></trkpt><trkpt lat="38.82562082285164" lon="-9.423689160995917"><ele>161.0</ele><time>2026-03-29T11:15:53Z</time></trkpt><trkpt lat="38.82563369438942" lon="-9.423497791601777"><ele>162.0</ele><time>2026-03-29T11:15:54Z</time></trkpt><trkpt lat="38.82565879128269" lon="-9.423294556501789"><ele>162.0</ele><time>2026-03-29T11:15:55Z</time></trkpt><trkpt lat="38.82568167229299" lon="-9.42309904887015"><ele>162.0</ele><time>2026-03-29T11:15:56Z</time></trkpt><trkpt lat="38.825716296396266" lon="-9.42289891523933"><ele>162.0</ele><time>2026-03-29T11:15:57Z</time></trkpt><trkpt lat="38.82576942271376" lon="-9.422695390455278"><ele>162.66666666666666</ele><time>2026-03-29T11:15:58Z</time></trkpt><trkpt lat="38.82581836517381" lon="-9.422504620831832"><ele>163.33333333333331</ele><time>2026-03-29T11:15:59Z</time></trkpt><trkpt lat="38.82586535611278" lon="-9.422314770329383"><ele>164.0</ele><time>2026-03-29T11:16:00Z</time></trkpt><trkpt lat="38.82590635503789" lon="-9.422118926558149"><ele>164.5</ele><time>2026-03-29T11:16:01Z</time></trkpt><trkpt lat="38.82594098554048" lon="-9.421944567447518"><ele>165.0</ele><time>2026-03-29T11:16:02Z</time></trkpt><trkpt lat="38.82595140065564" lon="-9.421795918569657"><ele>165.5</ele><time>2026-03-29T11:16:03Z</time></trkpt><trkpt lat="38.825955106926024" lon="-9.42166882835796"><ele>166.0</ele><time>2026-03-29T11:16:04Z</time></trkpt><trkpt lat="38.825972816738634" lon="-9.421530695605496"><ele>166.75</ele><time>2026-03-29T11:16:05Z</time></trkpt><trkpt lat="38.82598680696959" lon="-9.421364658560424"><ele>167.5</ele><time>2026-03-29T11:16:06Z</time></trkpt><trkpt lat="38.826003743152214" lon="-9.421182614575715"><ele>168.25</ele><time>2026-03-29T11:16:07Z</time></trkpt><trkpt lat="38.826018637594196" lon="-9.421001448364711"><ele>169.0</ele><time>2026-03-29T11:16:08Z</time></trkpt><trkpt lat="38.82604559532432" lon="-9.42081868833046"><ele>169.0</ele><time>2026-03-29T11:16:09Z</time></trkpt><trkpt lat="38.82607938823524" lon="-9.420642270954234"><ele>169.0</ele><time>2026-03-29T11:16:10Z</time></trkpt><trkpt lat="38.8261326206068" lon="-9.420462149732218"><ele>169.0</ele><time>2026-03-29T11:16:11Z</time></trkpt><trkpt lat="38.826206892514676" lon="-9.420283487993789"><ele>169.0</ele><time>2026-03-29T11:16:12Z</time></trkpt><trkpt lat="38.82628322735143" lon="-9.420100246413462"><ele>169.0</ele><time>2026-03-29T11:16:13Z</time></trkpt><trkpt lat="38.82635404319343" lon="-9.419919348214105"><ele>169.0</ele><time>2026-03-29T11:16:13.999Z</time></trkpt><trkpt lat="38.826431248113735" lon="-9.419753736984404"><ele>169.0</ele><time>2026-03-29T11:16:14.999Z</time></trkpt><trkpt lat="38.826496374191926" lon="-9.419578973165349"><ele>169.66666666666669</ele><time>2026-03-29T11:16:15.999Z</time></trkpt><trkpt lat="38.82657306085189" lon="-9.419392547403625"><ele>170.33333333333334</ele><time>2026-03-29T11:16:16.999Z</time></trkpt><trkpt lat="38.826641032269734" lon="-9.419215836801868"><ele>171.0</ele><time>2026-03-29T11:16:17.999Z</time></trkpt><trkpt lat="38.826709326662325" lon="-9.4190442099008"><ele>171.0</ele><time>2026-03-29T11:16:18.999Z</time></trkpt><trkpt lat="38.82677632711238" lon="-9.41887727574009"><ele>171.0</ele><time>2026-03-29T11:16:19.999Z</time></trkpt><trkpt lat="38.826840526869674" lon="-9.41871479359946"><ele>171.0</ele><time>2026-03-29T11:16:20.999Z</time></trkpt><trkpt lat="38.82690357188697" lon="-9.418549750549005"><ele>171.0</ele><time>2026-03-29T11:16:21.999Z</time></trkpt><trkpt lat="38.82697251476428" lon="-9.41837258728572"><ele>171.25</ele><time>2026-03-29T11:16:22.999Z</time></trkpt><trkpt lat="38.82704156807947" lon="-9.418186671319605"><ele>171.5</ele><time>2026-03-29T11:16:23.999Z</time></trkpt><trkpt lat="38.827101998523595" lon="-9.418014455378179"><ele>171.75</ele><time>2026-03-29T11:16:24.999Z</time></trkpt><trkpt lat="38.82715127639704" lon="-9.417845490590013"><ele>172.0</ele><time>2026-03-29T11:16:25.999Z</time></trkpt><trkpt lat="38.82719423131752" lon="-9.417674274466053"><ele>172.0</ele><time>2026-03-29T11:16:26.999Z</time></trkpt><trkpt lat="38.827224470732" lon="-9.417489042834584"><ele>172.0</ele><time>2026-03-29T11:16:27.999Z</time></trkpt><trkpt lat="38.827242471221815" lon="-9.417292822527573"><ele>172.0</ele><time>2026-03-29T11:16:28.999Z</time></trkpt><trkpt lat="38.827254902341814" lon="-9.41710142431059"><ele>172.33333333333334</ele><time>2026-03-29T11:16:29.999Z</time></trkpt><trkpt lat="38.82725579111005" lon="-9.416903199454529"><ele>172.66666666666666</ele><time>2026-03-29T11:16:30.999Z</time></trkpt><trkpt lat="38.82725700691697" lon="-9.416709718786395"><ele>173.0</ele><time>2026-03-29T11:16:31.999Z</time></trkpt><trkpt lat="38.827260731311796" lon="-9.416515506099085"><ele>173.0</ele><time>2026-03-29T11:16:32.999Z</time></trkpt><trkpt lat="38.82726757113017" lon="-9.416321180023262"><ele>173.0</ele><time>2026-03-29T11:16:33.999Z</time></trkpt><trkpt lat="38.8272770116463" lon="-9.416121336336762"><ele>173.0</ele><time>2026-03-29T11:16:34.999Z</time></trkpt><trkpt lat="38.82728474993148" lon="-9.415921089525987"><ele>174.0</ele><time>2026-03-29T11:16:35.999Z</time></trkpt><trkpt lat="38.82729302674635" lon="-9.415720342550138"><ele>175.0</ele><time>2026-03-29T11:16:36.999Z</time></trkpt><trkpt lat="38.82729699567728" lon="-9.41552249300595"><ele>176.0</ele><time>2026-03-29T11:16:37.999Z</time></trkpt><trkpt lat="38.82730420680051" lon="-9.415331719523483"><ele>176.25</ele><time>2026-03-29T11:16:38.999Z</time></trkpt><trkpt lat="38.82730791689611" lon="-9.4151391367431"><ele>176.5</ele><time>2026-03-29T11:16:39.999Z</time></trkpt><trkpt lat="38.82731298970319" lon="-9.414961650253641"><ele>176.75</ele><time>2026-03-29T11:16:40.999Z</time></trkpt><trkpt lat="38.82732128519479" lon="-9.414768283789487"><ele>177.0</ele><time>2026-03-29T11:16:41.999Z</time></trkpt><trkpt lat="38.827326743204196" lon="-9.414588192545496"><ele>177.25</ele><time>2026-03-29T11:16:42.999Z</time></trkpt><trkpt lat="38.82733554437375" lon="-9.414428895816739"><ele>177.5</ele><time>2026-03-29T11:16:43.999Z</time></trkpt><trkpt lat="38.827341564025005" lon="-9.414293637389306"><ele>177.75</ele><time>2026-03-29T11:16:44.999Z</time></trkpt><trkpt lat="38.82734615662639" lon="-9.414148067244058"><ele>178.0</ele><time>2026-03-29T11:16:45.999Z</time></trkpt><trkpt lat="38.82735628726526" lon="-9.413997885483234"><ele>178.0</ele><time>2026-03-29T11:16:46.999Z</time></trkpt><trkpt lat="38.82736081061259" lon="-9.413843901426919"><ele>178.0</ele><time>2026-03-29T11:16:47.999Z</time></trkpt><trkpt lat="38.827357297691044" lon="-9.413677099693372"><ele>178.0</ele><time>2026-03-29T11:16:48.999Z</time></trkpt><trkpt lat="38.827364536871045" lon="-9.413485658260358"><ele>178.0</ele><time>2026-03-29T11:16:49.999Z</time></trkpt><trkpt lat="38.82737810963406" lon="-9.413290241173435"><ele>178.8</ele><time>2026-03-29T11:16:50.999Z</time></trkpt><trkpt lat="38.827383141031724" lon="-9.413135640964548"><ele>179.60000000000002</ele><time>2026-03-29T11:16:51.999Z</time></trkpt><trkpt lat="38.82738440527018" lon="-9.412995480167009"><ele>180.39999999999998</ele><time>2026-03-29T11:16:52.999Z</time></trkpt><trkpt lat="38.827389312209746" lon="-9.41286851336926"><ele>181.2</ele><time>2026-03-29T11:16:53.999Z</time></trkpt><trkpt lat="38.82738925976441" lon="-9.412752482325882"><ele>182.0</ele><time>2026-03-29T11:16:54.999Z</time></trkpt><trkpt lat="38.827387710641496" lon="-9.412663303307816"><ele>182.0</ele><time>2026-03-29T11:16:55.999Z</time></trkpt><trkpt lat="38.82738051421927" lon="-9.412547900147976"><ele>182.0</ele><time>2026-03-29T11:16:57.999Z</time></trkpt><trkpt lat="38.82736728088539" lon="-9.412446095076312"><ele>182.0</ele><time>2026-03-29T11:16:59.999Z</time></trkpt><trkpt lat="38.82736087676325" lon="-9.412338453558956"><ele>182.0</ele><time>2026-03-29T11:17:09.999Z</time></trkpt><trkpt lat="38.827380545899246" lon="-9.412216373258062"><ele>182.0</ele><time>2026-03-29T11:17:13Z</time></trkpt><trkpt lat="38.8274073592956" lon="-9.4121215485375"><ele>182.0</ele><time>2026-03-29T11:17:14Z</time></trkpt><trkpt lat="38.82744744564028" lon="-9.412003537062192"><ele>181.5</ele><time>2026-03-29T11:17:15Z</time></trkpt><trkpt lat="38.82752904857501" lon="-9.41188870156384"><ele>181.0</ele><time>2026-03-29T11:17:16Z</time></trkpt><trkpt lat="38.827590861924755" lon="-9.41172738679492"><ele>180.5</ele><time>2026-03-29T11:17:17Z</time></trkpt><trkpt lat="38.827668990936665" lon="-9.411552934083716"><ele>180.0</ele><time>2026-03-29T11:17:18Z</time></trkpt><trkpt lat="38.82776187776961" lon="-9.411374139081591"><ele>179.33333333333334</ele><time>2026-03-29T11:17:19Z</time></trkpt><trkpt lat="38.827829696689804" lon="-9.411174022210117"><ele>178.66666666666669</ele><time>2026-03-29T11:17:20Z</time></trkpt><trkpt lat="38.82787296085971" lon="-9.410993153708677"><ele>178.0</ele><time>2026-03-29T11:17:21Z</time></trkpt><trkpt lat="38.827905319429256" lon="-9.410781838778497"><ele>178.0</ele><time>2026-03-29T11:17:22Z</time></trkpt><trkpt lat="38.827964136020945" lon="-9.410598385997682"><ele>178.0</ele><time>2026-03-29T11:17:23Z</time></trkpt><trkpt lat="38.82802462726744" lon="-9.410420112347373"><ele>178.0</ele><time>2026-03-29T11:17:24Z</time></trkpt><trkpt lat="38.828100816093766" lon="-9.410243990171166"><ele>177.25</ele><time>2026-03-29T11:17:25Z</time></trkpt><trkpt lat="38.82815497336887" lon="-9.410099900101297"><ele>176.5</ele><time>2026-03-29T11:17:26Z</time></trkpt><trkpt lat="38.828189480868055" lon="-9.40995415971937"><ele>175.75</ele><time>2026-03-29T11:17:27Z</time></trkpt><trkpt lat="38.82821069617887" lon="-9.409811074984418"><ele>175.0</ele><time>2026-03-29T11:17:28Z</time></trkpt><trkpt lat="38.82820670605561" lon="-9.409677935368546"><ele>175.2</ele><time>2026-03-29T11:17:29Z</time></trkpt><trkpt lat="38.828200832783224" lon="-9.409557568437478"><ele>175.4</ele><time>2026-03-29T11:17:30Z</time></trkpt><trkpt lat="38.82818710746486" lon="-9.409466067506248"><ele>175.60000000000002</ele><time>2026-03-29T11:17:31Z</time></trkpt><trkpt lat="38.82834009270781" lon="-9.409455042584744"><ele>175.8</ele><time>2026-03-29T11:17:39Z</time></trkpt><trkpt lat="38.82841846883383" lon="-9.409458095382542"><ele>176.0</ele><time>2026-03-29T11:17:40Z</time></trkpt><trkpt lat="38.82850063232603" lon="-9.409448622899408"><ele>176.0</ele><time>2026-03-29T11:17:41Z</time></trkpt><trkpt lat="38.8285843677675" lon="-9.409419094656647"><ele>176.0</ele><time>2026-03-29T11:17:42Z</time></trkpt><trkpt lat="38.828669216767686" lon="-9.409394801648395"><ele>176.0</ele><time>2026-03-29T11:17:43Z</time></trkpt><trkpt lat="38.82875234579593" lon="-9.40936188544892"><ele>176.0</ele><time>2026-03-29T11:17:44Z</time></trkpt><trkpt lat="38.828824462426674" lon="-9.409359956197786"><ele>176.0</ele><time>2026-03-29T11:17:45Z</time></trkpt><trkpt lat="38.82890632499073" lon="-9.409380137274114"><ele>176.0</ele><time>2026-03-29T11:17:46Z</time></trkpt><trkpt lat="38.82898860454412" lon="-9.409395731601622"><ele>176.0</ele><time>2026-03-29T11:17:47Z</time></trkpt><trkpt lat="38.82906667138585" lon="-9.409405149693036"><ele>176.0</ele><time>2026-03-29T11:17:48Z</time></trkpt><trkpt lat="38.82915866553035" lon="-9.409413319313444"><ele>176.0</ele><time>2026-03-29T11:17:49Z</time></trkpt><trkpt lat="38.829227043226794" lon="-9.409428433714416"><ele>176.0</ele><time>2026-03-29T11:17:50Z</time></trkpt><trkpt lat="38.82931198291594" lon="-9.409505938049717"><ele>176.0</ele><time>2026-03-29T11:17:52.001Z</time></trkpt><trkpt lat="38.82939007388122" lon="-9.409516872758775"><ele>176.0</ele><time>2026-03-29T11:18:10Z</time></trkpt><trkpt lat="38.82949115180886" lon="-9.40947410285869"><ele>176.20000000000002</ele><time>2026-03-29T11:18:13Z</time></trkpt><trkpt lat="38.82961500534641" lon="-9.409489155945366"><ele>176.4</ele><time>2026-03-29T11:18:15Z</time></trkpt><trkpt lat="38.829681679014165" lon="-9.409507630686191"><ele>176.6</ele><time>2026-03-29T11:18:16Z</time></trkpt><trkpt lat="38.82978501636899" lon="-9.409474242999432"><ele>176.8</ele><time>2026-03-29T11:18:18Z</time></trkpt><trkpt lat="38.82986347283044" lon="-9.409437373936795"><ele>177.0</ele><time>2026-03-29T11:18:20Z</time></trkpt><trkpt lat="38.82997086911593" lon="-9.40940680597838"><ele>177.0</ele><time>2026-03-29T11:18:23Z</time></trkpt><trkpt lat="38.83008626374017" lon="-9.409383967088225"><ele>177.0</ele><time>2026-03-29T11:18:25Z</time></trkpt><trkpt lat="38.830153774888224" lon="-9.409382979151026"><ele>177.0</ele><time>2026-03-29T11:18:26Z</time></trkpt><trkpt lat="38.83022319544486" lon="-9.409399517060576"><ele>177.0</ele><time>2026-03-29T11:18:27Z</time></trkpt><trkpt lat="38.83029198100976" lon="-9.409393739042727"><ele>177.0</ele><time>2026-03-29T11:18:28Z</time></trkpt><trkpt lat="38.830365254631815" lon="-9.409360543915247"><ele>177.0</ele><time>2026-03-29T11:18:29Z</time></trkpt><trkpt lat="38.83043920376682" lon="-9.409354227827304"><ele>177.5</ele><time>2026-03-29T11:18:30Z</time></trkpt><trkpt lat="38.830509079235064" lon="-9.409352211757563"><ele>178.0</ele><time>2026-03-29T11:18:31Z</time></trkpt><trkpt lat="38.83058978850064" lon="-9.409390358285528"><ele>178.5</ele><time>2026-03-29T11:18:32Z</time></trkpt><trkpt lat="38.8306625956654" lon="-9.409431300752775"><ele>179.0</ele><time>2026-03-29T11:18:33Z</time></trkpt><trkpt lat="38.83072917604582" lon="-9.409472448868353"><ele>179.5</ele><time>2026-03-29T11:18:34Z</time></trkpt><trkpt lat="38.8307908291781" lon="-9.409515438423695"><ele>180.0</ele><time>2026-03-29T11:18:35Z</time></trkpt><trkpt lat="38.83085685829231" lon="-9.409570401415747"><ele>180.0</ele><time>2026-03-29T11:18:37Z</time></trkpt><trkpt lat="38.83092888375748" lon="-9.409591126755233"><ele>180.0</ele><time>2026-03-29T11:18:40Z</time></trkpt><trkpt lat="38.83098604335224" lon="-9.409544816140137"><ele>180.0</ele><time>2026-03-29T11:18:42Z</time></trkpt><trkpt lat="38.83107563006186" lon="-9.409557716521409"><ele>180.0</ele><time>2026-03-29T11:18:43Z</time></trkpt><trkpt lat="38.83116099155312" lon="-9.40951889186768"><ele>180.0</ele><time>2026-03-29T11:18:44Z</time></trkpt><trkpt lat="38.83123746759792" lon="-9.409492875041243"><ele>180.0</ele><time>2026-03-29T11:18:45Z</time></trkpt><trkpt lat="38.83131005600937" lon="-9.409500702296793"><ele>180.2</ele><time>2026-03-29T11:18:46Z</time></trkpt><trkpt lat="38.8313834987812" lon="-9.409501793480997"><ele>180.4</ele><time>2026-03-29T11:18:47Z</time></trkpt><trkpt lat="38.831466880504" lon="-9.40940842711873"><ele>180.60000000000002</ele><time>2026-03-29T11:18:49Z</time></trkpt><trkpt lat="38.83157918478984" lon="-9.409331733266677"><ele>180.8</ele><time>2026-03-29T11:18:51Z</time></trkpt><trkpt lat="38.831650558401904" lon="-9.409300330377357"><ele>181.0</ele><time>2026-03-29T11:18:52Z</time></trkpt><trkpt lat="38.83173051789485" lon="-9.409261766493096"><ele>181.0</ele><time>2026-03-29T11:18:53Z</time></trkpt><trkpt lat="38.831800944582014" lon="-9.409222341037431"><ele>181.0</ele><time>2026-03-29T11:18:54Z</time></trkpt><trkpt lat="38.831864341609105" lon="-9.40917818648814"><ele>181.0</ele><time>2026-03-29T11:18:55Z</time></trkpt><trkpt lat="38.83191809975557" lon="-9.40913540739897"><ele>181.0</ele><time>2026-03-29T11:18:56Z</time></trkpt><trkpt lat="38.83197574450875" lon="-9.409085381316261"><ele>181.0</ele><time>2026-03-29T11:18:57Z</time></trkpt><trkpt lat="38.832085117886116" lon="-9.40914078430209"><ele>181.0</ele><time>2026-03-29T11:18:59Z</time></trkpt><trkpt lat="38.832197443831994" lon="-9.409091896025405"><ele>180.8</ele><time>2026-03-29T11:19:01Z</time></trkpt><trkpt lat="38.83230072660351" lon="-9.409004504391396"><ele>180.60000000000002</ele><time>2026-03-29T11:19:03Z</time></trkpt><trkpt lat="38.83236023171847" lon="-9.408953531357394"><ele>180.4</ele><time>2026-03-29T11:19:04Z</time></trkpt><trkpt lat="38.83242870100519" lon="-9.408897850311433"><ele>180.2</ele><time>2026-03-29T11:19:05Z</time></trkpt><trkpt lat="38.832515079986464" lon="-9.40881920622348"><ele>180.0</ele><time>2026-03-29T11:19:07Z</time></trkpt><trkpt lat="38.83259917594135" lon="-9.40874676461344"><ele>181.0</ele><time>2026-03-29T11:19:09Z</time></trkpt><trkpt lat="38.83269676654189" lon="-9.408681075250982"><ele>182.0</ele><time>2026-03-29T11:19:11Z</time></trkpt><trkpt lat="38.83278140024561" lon="-9.40860593904857"><ele>183.0</ele><time>2026-03-29T11:19:13Z</time></trkpt><trkpt lat="38.83287770088855" lon="-9.408512493163174"><ele>184.0</ele><time>2026-03-29T11:19:15Z</time></trkpt><trkpt lat="38.832968567141926" lon="-9.408412967980382"><ele>184.0</ele><time>2026-03-29T11:19:17Z</time></trkpt><trkpt lat="38.83302233185051" lon="-9.408360538972552"><ele>184.0</ele><time>2026-03-29T11:19:18.001Z</time></trkpt><trkpt lat="38.833078828355504" lon="-9.408316674853692"><ele>184.0</ele><time>2026-03-29T11:19:19.001Z</time></trkpt><trkpt lat="38.83317971291825" lon="-9.408236184859284"><ele>184.0</ele><time>2026-03-29T11:19:21.001Z</time></trkpt><trkpt lat="38.83323158541337" lon="-9.408188951235523"><ele>184.0</ele><time>2026-03-29T11:19:22.001Z</time></trkpt><trkpt lat="38.83329885912577" lon="-9.408171868230939"><ele>184.0</ele><time>2026-03-29T11:19:23.001Z</time></trkpt><trkpt lat="38.83338084121574" lon="-9.408151917129633"><ele>184.0</ele><time>2026-03-29T11:19:24.001Z</time></trkpt><trkpt lat="38.83344383003952" lon="-9.408089181272851"><ele>184.0</ele><time>2026-03-29T11:19:25.001Z</time></trkpt><trkpt lat="38.83349324878506" lon="-9.408033779421237"><ele>184.0</ele><time>2026-03-29T11:19:26.001Z</time></trkpt><trkpt lat="38.83358186101718" lon="-9.407943743840896"><ele>184.0</ele><time>2026-03-29T11:19:28.001Z</time></trkpt><trkpt lat="38.833680651291345" lon="-9.407839484153024"><ele>184.0</ele><time>2026-03-29T11:19:30.001Z</time></trkpt><trkpt lat="38.833745564976866" lon="-9.407797377151049"><ele>184.5</ele><time>2026-03-29T11:19:31.001Z</time></trkpt><trkpt lat="38.833813174217404" lon="-9.407767801514783"><ele>185.0</ele><time>2026-03-29T11:19:32.001Z</time></trkpt><trkpt lat="38.83389399320378" lon="-9.407790648847454"><ele>185.5</ele><time>2026-03-29T11:19:33.001Z</time></trkpt><trkpt lat="38.83397508322622" lon="-9.407836845754273"><ele>186.0</ele><time>2026-03-29T11:19:34.001Z</time></trkpt><trkpt lat="38.834052093949836" lon="-9.407901786764054"><ele>186.5</ele><time>2026-03-29T11:19:35.001Z</time></trkpt><trkpt lat="38.83413061180459" lon="-9.407981286010429"><ele>187.0</ele><time>2026-03-29T11:19:36.001Z</time></trkpt><trkpt lat="38.83419424568496" lon="-9.40808442672278"><ele>187.0</ele><time>2026-03-29T11:19:37.001Z</time></trkpt><trkpt lat="38.834237689095986" lon="-9.40818636347123"><ele>187.0</ele><time>2026-03-29T11:19:38.001Z</time></trkpt><trkpt lat="38.83429617960866" lon="-9.408243250715598"><ele>187.0</ele><time>2026-03-29T11:19:39.001Z</time></trkpt><trkpt lat="38.834352610325524" lon="-9.408295388535993"><ele>187.0</ele><time>2026-03-29T11:19:40.001Z</time></trkpt><trkpt lat="38.83440966487627" lon="-9.408362775225546"><ele>187.0</ele><time>2026-03-29T11:19:41.001Z</time></trkpt><trkpt lat="38.83445254804613" lon="-9.40842935886028"><ele>187.0</ele><time>2026-03-29T11:19:42.001Z</time></trkpt><trkpt lat="38.83449387585988" lon="-9.408512112397831"><ele>186.8</ele><time>2026-03-29T11:19:43Z</time></trkpt><trkpt lat="38.834498382720305" lon="-9.408623781480607"><ele>186.6</ele><time>2026-03-29T11:19:44Z</time></trkpt><trkpt lat="38.83449275182829" lon="-9.408746545226487"><ele>186.4</ele><time>2026-03-29T11:19:45Z</time></trkpt><trkpt lat="38.83448559342601" lon="-9.408868101525671"><ele>186.20000000000002</ele><time>2026-03-29T11:19:46Z</time></trkpt><trkpt lat="38.834482142248554" lon="-9.408980847598501"><ele>186.0</ele><time>2026-03-29T11:19:47Z</time></trkpt><trkpt lat="38.83448312569227" lon="-9.409089577667926"><ele>185.42857142857144</ele><time>2026-03-29T11:19:48Z</time></trkpt><trkpt lat="38.83447813732629" lon="-9.409182396560084"><ele>184.85714285714286</ele><time>2026-03-29T11:19:49Z</time></trkpt><trkpt lat="38.83447420668257" lon="-9.40929397844263"><ele>184.28571428571428</ele><time>2026-03-29T11:19:50Z</time></trkpt><trkpt lat="38.834475076804985" lon="-9.409388873505119"><ele>183.71428571428572</ele><time>2026-03-29T11:19:51Z</time></trkpt><trkpt lat="38.834477336988904" lon="-9.409481810841516"><ele>183.14285714285714</ele><time>2026-03-29T11:19:52Z</time></trkpt><trkpt lat="38.83448649785241" lon="-9.409582829652301"><ele>182.57142857142858</ele><time>2026-03-29T11:19:53Z</time></trkpt><trkpt lat="38.83450284544021" lon="-9.409660936661838"><ele>182.0</ele><time>2026-03-29T11:19:54Z</time></trkpt><trkpt lat="38.83452959084348" lon="-9.409797539901248"><ele>181.6</ele><time>2026-03-29T11:19:56Z</time></trkpt><trkpt lat="38.834572835370864" lon="-9.409866965828966"><ele>181.2</ele><time>2026-03-29T11:19:58Z</time></trkpt><trkpt lat="38.8346406624999" lon="-9.409827879628288"><ele>180.8</ele><time>2026-03-29T11:19:59Z</time></trkpt><trkpt lat="38.834748779462394" lon="-9.40978030188881"><ele>180.4</ele><time>2026-03-29T11:20:00Z</time></trkpt><trkpt lat="38.83488385792433" lon="-9.409728383815603"><ele>180.0</ele><time>2026-03-29T11:20:01Z</time></trkpt><trkpt lat="38.83503390309242" lon="-9.409701085516216"><ele>180.33333333333334</ele><time>2026-03-29T11:20:02Z</time></trkpt><trkpt lat="38.83519561915759" lon="-9.409669987062994"><ele>180.66666666666669</ele><time>2026-03-29T11:20:03Z</time></trkpt><trkpt lat="38.835368693229164" lon="-9.40964830046958"><ele>181.0</ele><time>2026-03-29T11:20:04Z</time></trkpt><trkpt lat="38.835552743678186" lon="-9.409630362833031"><ele>181.0</ele><time>2026-03-29T11:20:05Z</time></trkpt><trkpt lat="38.835744293681486" lon="-9.409612399047772"><ele>181.0</ele><time>2026-03-29T11:20:06Z</time></trkpt><trkpt lat="38.83593022503501" lon="-9.409594273741188"><ele>181.0</ele><time>2026-03-29T11:20:07Z</time></trkpt><trkpt lat="38.83610161297211" lon="-9.409579833780445"><ele>180.25</ele><time>2026-03-29T11:20:08Z</time></trkpt><trkpt lat="38.836263705703374" lon="-9.40955975294432"><ele>179.5</ele><time>2026-03-29T11:20:09Z</time></trkpt><trkpt lat="38.8364075033087" lon="-9.409538863877952"><ele>178.75</ele><time>2026-03-29T11:20:10Z</time></trkpt><trkpt lat="38.836541131538276" lon="-9.409506819800038"><ele>178.0</ele><time>2026-03-29T11:20:11Z</time></trkpt><trkpt lat="38.836685169209375" lon="-9.409481871475975"><ele>178.0</ele><time>2026-03-29T11:20:12Z</time></trkpt><trkpt lat="38.83677713299058" lon="-9.409416070524337"><ele>178.0</ele><time>2026-03-29T11:20:13Z</time></trkpt><trkpt lat="38.83689823046512" lon="-9.409356882210925"><ele>178.0</ele><time>2026-03-29T11:20:14Z</time></trkpt><trkpt lat="38.83702621923798" lon="-9.409274732369662"><ele>178.0</ele><time>2026-03-29T11:20:15Z</time></trkpt><trkpt lat="38.83709972136743" lon="-9.40921613404672"><ele>178.0</ele><time>2026-03-29T11:20:16Z</time></trkpt><trkpt lat="38.83717723752535" lon="-9.409148415347321"><ele>178.0</ele><time>2026-03-29T11:20:17Z</time></trkpt><trkpt lat="38.83725401269314" lon="-9.409064948748107"><ele>178.0</ele><time>2026-03-29T11:20:18Z</time></trkpt><trkpt lat="38.837345131671256" lon="-9.408975609226058"><ele>178.0</ele><time>2026-03-29T11:20:19Z</time></trkpt><trkpt lat="38.83744702578429" lon="-9.408866801284546"><ele>178.0</ele><time>2026-03-29T11:20:20Z</time></trkpt><trkpt lat="38.837561566951656" lon="-9.40877473774143"><ele>177.25</ele><time>2026-03-29T11:20:21Z</time></trkpt><trkpt lat="38.83768954676184" lon="-9.408707409076621"><ele>176.5</ele><time>2026-03-29T11:20:22Z</time></trkpt><trkpt lat="38.837832079676865" lon="-9.408669887657496"><ele>175.75</ele><time>2026-03-29T11:20:23Z</time></trkpt><trkpt lat="38.83797834343688" lon="-9.408644064614677"><ele>175.0</ele><time>2026-03-29T11:20:24Z</time></trkpt><trkpt lat="38.83812420576823" lon="-9.408606257006163"><ele>175.0</ele><time>2026-03-29T11:20:25Z</time></trkpt><trkpt lat="38.838261900468524" lon="-9.408571010918065"><ele>175.0</ele><time>2026-03-29T11:20:26Z</time></trkpt><trkpt lat="38.83839809822464" lon="-9.408507938895434"><ele>175.0</ele><time>2026-03-29T11:20:27Z</time></trkpt><trkpt lat="38.83852786237303" lon="-9.40843002140976"><ele>175.0</ele><time>2026-03-29T11:20:28Z</time></trkpt><trkpt lat="38.83864126836116" lon="-9.408355962541064"><ele>175.0</ele><time>2026-03-29T11:20:29Z</time></trkpt><trkpt lat="38.83876749308568" lon="-9.408258871530933"><ele>175.0</ele><time>2026-03-29T11:20:30Z</time></trkpt><trkpt lat="38.8388866964614" lon="-9.408162203553767"><ele>175.0</ele><time>2026-03-29T11:20:31Z</time></trkpt><trkpt lat="38.83901362205676" lon="-9.408056512093435"><ele>175.0</ele><time>2026-03-29T11:20:32Z</time></trkpt><trkpt lat="38.839150328917796" lon="-9.407936403102472"><ele>175.0</ele><time>2026-03-29T11:20:33Z</time></trkpt><trkpt lat="38.839278287524" lon="-9.407830023761004"><ele>175.0</ele><time>2026-03-29T11:20:34Z</time></trkpt><trkpt lat="38.83940195462523" lon="-9.407738770604656"><ele>175.0</ele><time>2026-03-29T11:20:35Z</time></trkpt><trkpt lat="38.83953505234047" lon="-9.40766333688303"><ele>175.0</ele><time>2026-03-29T11:20:36Z</time></trkpt><trkpt lat="38.839680136735225" lon="-9.407600949612013"><ele>174.5</ele><time>2026-03-29T11:20:37Z</time></trkpt><trkpt lat="38.83982225463098" lon="-9.407558210531915"><ele>174.0</ele><time>2026-03-29T11:20:38Z</time></trkpt><trkpt lat="38.839951508503304" lon="-9.407515233364805"><ele>173.5</ele><time>2026-03-29T11:20:39Z</time></trkpt><trkpt lat="38.84006251648177" lon="-9.407487717422661"><ele>173.0</ele><time>2026-03-29T11:20:40Z</time></trkpt><trkpt lat="38.84018038420704" lon="-9.407447426918344"><ele>173.0</ele><time>2026-03-29T11:20:41Z</time></trkpt><trkpt lat="38.84030170178196" lon="-9.407400926616804"><ele>173.0</ele><time>2026-03-29T11:20:42Z</time></trkpt><trkpt lat="38.840412944085365" lon="-9.407342300741664"><ele>173.0</ele><time>2026-03-29T11:20:43Z</time></trkpt><trkpt lat="38.84051487707624" lon="-9.407289621430753"><ele>173.0</ele><time>2026-03-29T11:20:44Z</time></trkpt><trkpt lat="38.840621601730334" lon="-9.407231820785126"><ele>173.0</ele><time>2026-03-29T11:20:45Z</time></trkpt><trkpt lat="38.8407308541757" lon="-9.407170031715562"><ele>173.0</ele><time>2026-03-29T11:20:46Z</time></trkpt><trkpt lat="38.84084027368427" lon="-9.407105223933033"><ele>173.0</ele><time>2026-03-29T11:20:47Z</time></trkpt><trkpt lat="38.84095741609146" lon="-9.407042342802646"><ele>173.0</ele><time>2026-03-29T11:20:48Z</time></trkpt><trkpt lat="38.84107457679142" lon="-9.406989839596562"><ele>173.25</ele><time>2026-03-29T11:20:49Z</time></trkpt><trkpt lat="38.84119338363412" lon="-9.406945777561287"><ele>173.5</ele><time>2026-03-29T11:20:50Z</time></trkpt><trkpt lat="38.84132246875079" lon="-9.406905147576316"><ele>173.75</ele><time>2026-03-29T11:20:51Z</time></trkpt><trkpt lat="38.84144341276845" lon="-9.406862993478253"><ele>174.0</ele><time>2026-03-29T11:20:52Z</time></trkpt><trkpt lat="38.84155733927464" lon="-9.406818627236166"><ele>174.0</ele><time>2026-03-29T11:20:53Z</time></trkpt><trkpt lat="38.84166581771892" lon="-9.406776342720802"><ele>174.0</ele><time>2026-03-29T11:20:54Z</time></trkpt><trkpt lat="38.841770620647374" lon="-9.406731641267507"><ele>174.0</ele><time>2026-03-29T11:20:55Z</time></trkpt><trkpt lat="38.841878221152335" lon="-9.40668151406528"><ele>174.0</ele><time>2026-03-29T11:20:56Z</time></trkpt><trkpt lat="38.84198888203807" lon="-9.406622566837424"><ele>173.75</ele><time>2026-03-29T11:20:57Z</time></trkpt><trkpt lat="38.84210413511066" lon="-9.40656626305781"><ele>173.5</ele><time>2026-03-29T11:20:58Z</time></trkpt><trkpt lat="38.842221010492665" lon="-9.406517142369259"><ele>173.25</ele><time>2026-03-29T11:20:59Z</time></trkpt><trkpt lat="38.84233762061243" lon="-9.406462971439202"><ele>173.0</ele><time>2026-03-29T11:21:00Z</time></trkpt><trkpt lat="38.84243620481765" lon="-9.406385424831376"><ele>174.0</ele><time>2026-03-29T11:21:01Z</time></trkpt><trkpt lat="38.84250320850339" lon="-9.406265320002694"><ele>175.0</ele><time>2026-03-29T11:21:02Z</time></trkpt><trkpt lat="38.84259212143838" lon="-9.406155587285395"><ele>176.0</ele><time>2026-03-29T11:21:03Z</time></trkpt><trkpt lat="38.84263831486302" lon="-9.406002592681503"><ele>177.0</ele><time>2026-03-29T11:21:04Z</time></trkpt><trkpt lat="38.84270521924063" lon="-9.405860869938541"><ele>177.25</ele><time>2026-03-29T11:21:05Z</time></trkpt><trkpt lat="38.84275735626576" lon="-9.40571270728357"><ele>177.5</ele><time>2026-03-29T11:21:06Z</time></trkpt><trkpt lat="38.842821389877656" lon="-9.405565863817952"><ele>177.75</ele><time>2026-03-29T11:21:07Z</time></trkpt><trkpt lat="38.84288729584512" lon="-9.405439095120592"><ele>178.0</ele><time>2026-03-29T11:21:08Z</time></trkpt><trkpt lat="38.842963362749636" lon="-9.405334353728039"><ele>179.75</ele><time>2026-03-29T11:21:09Z</time></trkpt><trkpt lat="38.843044231597645" lon="-9.405240393114553"><ele>181.5</ele><time>2026-03-29T11:21:10Z</time></trkpt><trkpt lat="38.843139627720696" lon="-9.405143439730889"><ele>183.25</ele><time>2026-03-29T11:21:11Z</time></trkpt><trkpt lat="38.84324504441639" lon="-9.405057277627696"><ele>185.0</ele><time>2026-03-29T11:21:12Z</time></trkpt><trkpt lat="38.84335022877045" lon="-9.404972802961728"><ele>185.0</ele><time>2026-03-29T11:21:13Z</time></trkpt><trkpt lat="38.84343618111631" lon="-9.40489719486237"><ele>185.0</ele><time>2026-03-29T11:21:14Z</time></trkpt><trkpt lat="38.84351365520223" lon="-9.404830321711957"><ele>185.0</ele><time>2026-03-29T11:21:15Z</time></trkpt><trkpt lat="38.84360406919143" lon="-9.40475155115108"><ele>185.0</ele><time>2026-03-29T11:21:16Z</time></trkpt><trkpt lat="38.84369024109714" lon="-9.404660904379801"><ele>185.0</ele><time>2026-03-29T11:21:17Z</time></trkpt><trkpt lat="38.84378336202685" lon="-9.404569674164836"><ele>184.5</ele><time>2026-03-29T11:21:18Z</time></trkpt><trkpt lat="38.843884733988936" lon="-9.404500090559306"><ele>184.0</ele><time>2026-03-29T11:21:19Z</time></trkpt><trkpt lat="38.843978592890636" lon="-9.404431740037824"><ele>183.5</ele><time>2026-03-29T11:21:20Z</time></trkpt><trkpt lat="38.844081152221314" lon="-9.404347109895513"><ele>183.0</ele><time>2026-03-29T11:21:21Z</time></trkpt><trkpt lat="38.844188694772946" lon="-9.40427198685661"><ele>182.25</ele><time>2026-03-29T11:21:22Z</time></trkpt><trkpt lat="38.84430203833469" lon="-9.404196433076262"><ele>181.5</ele><time>2026-03-29T11:21:23Z</time></trkpt><trkpt lat="38.844405807601234" lon="-9.40412409715251"><ele>180.75</ele><time>2026-03-29T11:21:24Z</time></trkpt><trkpt lat="38.84450636823555" lon="-9.4040529098532"><ele>180.0</ele><time>2026-03-29T11:21:25Z</time></trkpt><trkpt lat="38.844623714376" lon="-9.403988061616465"><ele>180.0</ele><time>2026-03-29T11:21:26Z</time></trkpt><trkpt lat="38.8447567517538" lon="-9.403957321328573"><ele>180.0</ele><time>2026-03-29T11:21:27Z</time></trkpt><trkpt lat="38.84488958779064" lon="-9.403969296378476"><ele>180.0</ele><time>2026-03-29T11:21:28Z</time></trkpt><trkpt lat="38.845006208354064" lon="-9.403993379313738"><ele>180.0</ele><time>2026-03-29T11:21:29Z</time></trkpt><trkpt lat="38.8451365987359" lon="-9.40400601627767"><ele>180.0</ele><time>2026-03-29T11:21:30Z</time></trkpt><trkpt lat="38.8452670606032" lon="-9.40400900462042"><ele>180.0</ele><time>2026-03-29T11:21:31Z</time></trkpt><trkpt lat="38.84539525064917" lon="-9.40400911200147"><ele>180.0</ele><time>2026-03-29T11:21:32Z</time></trkpt><trkpt lat="38.84551148225072" lon="-9.403983011250931"><ele>180.0</ele><time>2026-03-29T11:21:33Z</time></trkpt><trkpt lat="38.84562194744873" lon="-9.403920551523589"><ele>180.6</ele><time>2026-03-29T11:21:34Z</time></trkpt><trkpt lat="38.8457142401596" lon="-9.403814853768878"><ele>181.2</ele><time>2026-03-29T11:21:35Z</time></trkpt><trkpt lat="38.8457916818779" lon="-9.403715635384414"><ele>181.8</ele><time>2026-03-29T11:21:36Z</time></trkpt><trkpt lat="38.8458741259642" lon="-9.403640072095756"><ele>182.4</ele><time>2026-03-29T11:21:37Z</time></trkpt><trkpt lat="38.84596539680111" lon="-9.403552814716852"><ele>183.0</ele><time>2026-03-29T11:21:38Z</time></trkpt><trkpt lat="38.84605900336975" lon="-9.403466378771169"><ele>183.25</ele><time>2026-03-29T11:21:39Z</time></trkpt><trkpt lat="38.846168132800095" lon="-9.403402388671259"><ele>183.5</ele><time>2026-03-29T11:21:40Z</time></trkpt><trkpt lat="38.84629717832305" lon="-9.403384574819178"><ele>183.75</ele><time>2026-03-29T11:21:41Z</time></trkpt><trkpt lat="38.846433001925405" lon="-9.403411937518747"><ele>184.0</ele><time>2026-03-29T11:21:42Z</time></trkpt><trkpt lat="38.84655458116754" lon="-9.403430468334907"><ele>184.0</ele><time>2026-03-29T11:21:43Z</time></trkpt><trkpt lat="38.84666701334939" lon="-9.403429848620412"><ele>184.0</ele><time>2026-03-29T11:21:44Z</time></trkpt><trkpt lat="38.84676722891044" lon="-9.40342351411713"><ele>184.0</ele><time>2026-03-29T11:21:45Z</time></trkpt><trkpt lat="38.8468572177067" lon="-9.40341905871188"><ele>184.0</ele><time>2026-03-29T11:21:46Z</time></trkpt><trkpt lat="38.8469663741891" lon="-9.403403836423207"><ele>184.0</ele><time>2026-03-29T11:21:47Z</time></trkpt><trkpt lat="38.84708498236233" lon="-9.403387743635086"><ele>184.25</ele><time>2026-03-29T11:21:48Z</time></trkpt><trkpt lat="38.84720375255211" lon="-9.40337069220918"><ele>184.5</ele><time>2026-03-29T11:21:49Z</time></trkpt><trkpt lat="38.84732795654056" lon="-9.403372317784656"><ele>184.75</ele><time>2026-03-29T11:21:50Z</time></trkpt><trkpt lat="38.847443302744914" lon="-9.403374889084803"><ele>185.0</ele><time>2026-03-29T11:21:51Z</time></trkpt><trkpt lat="38.84754423610266" lon="-9.403382580591161"><ele>185.0</ele><time>2026-03-29T11:21:52Z</time></trkpt><trkpt lat="38.84763089967133" lon="-9.40338798224036"><ele>185.0</ele><time>2026-03-29T11:21:53Z</time></trkpt><trkpt lat="38.84770684966074" lon="-9.403396800651034"><ele>185.0</ele><time>2026-03-29T11:21:54Z</time></trkpt><trkpt lat="38.84780489015691" lon="-9.403404259620993"><ele>185.0</ele><time>2026-03-29T11:21:56Z</time></trkpt><trkpt lat="38.847875751938496" lon="-9.403368211903643"><ele>185.0</ele><time>2026-03-29T11:22:06Z</time></trkpt><trkpt lat="38.8479786761476" lon="-9.403370576813392"><ele>185.0</ele><time>2026-03-29T11:22:11Z</time></trkpt><trkpt lat="38.848085019911814" lon="-9.403438131159486"><ele>185.0</ele><time>2026-03-29T11:22:13Z</time></trkpt><trkpt lat="38.84814732528725" lon="-9.403495643378827"><ele>185.0</ele><time>2026-03-29T11:22:14Z</time></trkpt><trkpt lat="38.848211598547735" lon="-9.403564995441766"><ele>185.0</ele><time>2026-03-29T11:22:15Z</time></trkpt><trkpt lat="38.848299607648286" lon="-9.403653990576748"><ele>185.0</ele><time>2026-03-29T11:22:16Z</time></trkpt><trkpt lat="38.848386637371064" lon="-9.403730873899823"><ele>185.0</ele><time>2026-03-29T11:22:17Z</time></trkpt><trkpt lat="38.84846644154157" lon="-9.403805685936064"><ele>184.33333333333331</ele><time>2026-03-29T11:22:18Z</time></trkpt><trkpt lat="38.84853476256749" lon="-9.40386609428418"><ele>183.66666666666666</ele><time>2026-03-29T11:22:19Z</time></trkpt><trkpt lat="38.84859417547092" lon="-9.403916705114604"><ele>183.0</ele><time>2026-03-29T11:22:20Z</time></trkpt><trkpt lat="38.848680870188076" lon="-9.403975870484262"><ele>182.33333333333334</ele><time>2026-03-29T11:22:22Z</time></trkpt><trkpt lat="38.8487308987367" lon="-9.404031454225322"><ele>181.66666666666669</ele><time>2026-03-29T11:22:24Z</time></trkpt><trkpt lat="38.848816535272675" lon="-9.404095266000704"><ele>181.0</ele><time>2026-03-29T11:22:26Z</time></trkpt><trkpt lat="38.84886661260883" lon="-9.404145162986728"><ele>181.0</ele><time>2026-03-29T11:22:27Z</time></trkpt><trkpt lat="38.84892172753794" lon="-9.40419272840663"><ele>181.0</ele><time>2026-03-29T11:22:28Z</time></trkpt><trkpt lat="38.848986821486484" lon="-9.404249115807096"><ele>181.0</ele><time>2026-03-29T11:22:29Z</time></trkpt><trkpt lat="38.84905654297187" lon="-9.40431178235472"><ele>181.0</ele><time>2026-03-29T11:22:30Z</time></trkpt><trkpt lat="38.8491285079902" lon="-9.404372406700087"><ele>181.0</ele><time>2026-03-29T11:22:31Z</time></trkpt><trkpt lat="38.84920016172027" lon="-9.404433940952693"><ele>181.0</ele><time>2026-03-29T11:22:32Z</time></trkpt><trkpt lat="38.84926551974101" lon="-9.404478300874937"><ele>180.5</ele><time>2026-03-29T11:22:33Z</time></trkpt><trkpt lat="38.84933769021992" lon="-9.404474104580997"><ele>180.0</ele><time>2026-03-29T11:22:34Z</time></trkpt><trkpt lat="38.84946808189227" lon="-9.40430925937323"><ele>179.5</ele><time>2026-03-29T11:22:36Z</time></trkpt><trkpt lat="38.84953912107497" lon="-9.404190382806597"><ele>179.0</ele><time>2026-03-29T11:22:37Z</time></trkpt><trkpt lat="38.849597349763144" lon="-9.404064382161984"><ele>179.0</ele><time>2026-03-29T11:22:38Z</time></trkpt><trkpt lat="38.84966100863153" lon="-9.403948302260087"><ele>179.0</ele><time>2026-03-29T11:22:39Z</time></trkpt><trkpt lat="38.849736877712495" lon="-9.403824851786075"><ele>179.0</ele><time>2026-03-29T11:22:40Z</time></trkpt><trkpt lat="38.84982340779295" lon="-9.403678929800215"><ele>179.0</ele><time>2026-03-29T11:22:41Z</time></trkpt><trkpt lat="38.84991393849048" lon="-9.403527153465939"><ele>179.0</ele><time>2026-03-29T11:22:42Z</time></trkpt><trkpt lat="38.85001278363339" lon="-9.403367719852"><ele>179.0</ele><time>2026-03-29T11:22:43Z</time></trkpt><trkpt lat="38.85011598168614" lon="-9.403188158867868"><ele>179.0</ele><time>2026-03-29T11:22:44Z</time></trkpt><trkpt lat="38.85021507394305" lon="-9.4030282521868"><ele>178.66666666666666</ele><time>2026-03-29T11:22:45Z</time></trkpt><trkpt lat="38.85030749849482" lon="-9.40285927928826"><ele>178.33333333333334</ele><time>2026-03-29T11:22:46Z</time></trkpt><trkpt lat="38.85039386702983" lon="-9.4026980496072"><ele>178.0</ele><time>2026-03-29T11:22:47Z</time></trkpt><trkpt lat="38.85048148400115" lon="-9.402542449694288"><ele>178.0</ele><time>2026-03-29T11:22:48Z</time></trkpt><trkpt lat="38.850567025089234" lon="-9.402380394501952"><ele>178.0</ele><time>2026-03-29T11:22:49Z</time></trkpt><trkpt lat="38.850650094480486" lon="-9.402222870987211"><ele>178.0</ele><time>2026-03-29T11:22:50Z</time></trkpt><trkpt lat="38.85072397134563" lon="-9.402052547098354"><ele>178.66666666666669</ele><time>2026-03-29T11:22:51Z</time></trkpt><trkpt lat="38.85079041452752" lon="-9.401870397289038"><ele>179.33333333333334</ele><time>2026-03-29T11:22:52Z</time></trkpt><trkpt lat="38.85083665781607" lon="-9.4016623048388"><ele>180.0</ele><time>2026-03-29T11:22:53Z</time></trkpt><trkpt lat="38.85086598522718" lon="-9.401449361453215"><ele>180.66666666666666</ele><time>2026-03-29T11:22:54Z</time></trkpt><trkpt lat="38.85088520811681" lon="-9.401222084299754"><ele>181.33333333333331</ele><time>2026-03-29T11:22:55Z</time></trkpt><trkpt lat="38.85086225484274" lon="-9.400978780221845"><ele>182.0</ele><time>2026-03-29T11:22:56Z</time></trkpt><trkpt lat="38.85083785078795" lon="-9.400734446623407"><ele>182.33333333333331</ele><time>2026-03-29T11:22:57Z</time></trkpt><trkpt lat="38.85081160882284" lon="-9.400479712455473"><ele>182.66666666666666</ele><time>2026-03-29T11:22:58Z</time></trkpt><trkpt lat="38.8507547174262" lon="-9.40023005908033"><ele>183.0</ele><time>2026-03-29T11:22:59Z</time></trkpt><trkpt lat="38.85070569885855" lon="-9.400017744406066"><ele>183.0</ele><time>2026-03-29T11:23:00Z</time></trkpt><trkpt lat="38.850668331443465" lon="-9.399824279315403"><ele>183.0</ele><time>2026-03-29T11:23:01Z</time></trkpt><trkpt lat="38.85063548793967" lon="-9.399645269655066"><ele>183.0</ele><time>2026-03-29T11:23:02Z</time></trkpt><trkpt lat="38.85059239705749" lon="-9.39944680322724"><ele>182.75</ele><time>2026-03-29T11:23:03Z</time></trkpt><trkpt lat="38.85056553322076" lon="-9.399262292183119"><ele>182.5</ele><time>2026-03-29T11:23:04Z</time></trkpt><trkpt lat="38.850547303186055" lon="-9.39909987974882"><ele>182.25</ele><time>2026-03-29T11:23:05Z</time></trkpt><trkpt lat="38.850544479428" lon="-9.398951728911074"><ele>182.0</ele><time>2026-03-29T11:23:06Z</time></trkpt><trkpt lat="38.85058067575046" lon="-9.398819471672422"><ele>182.5</ele><time>2026-03-29T11:23:07Z</time></trkpt><trkpt lat="38.85061936636326" lon="-9.398679977495595"><ele>183.0</ele><time>2026-03-29T11:23:08Z</time></trkpt><trkpt lat="38.85068202756421" lon="-9.398535095228917"><ele>183.5</ele><time>2026-03-29T11:23:09Z</time></trkpt><trkpt lat="38.85077359226499" lon="-9.398404536536516"><ele>184.0</ele><time>2026-03-29T11:23:10Z</time></trkpt><trkpt lat="38.850880305287845" lon="-9.398281213477086"><ele>183.75</ele><time>2026-03-29T11:23:11Z</time></trkpt><trkpt lat="38.85098939451484" lon="-9.398150539121264"><ele>183.5</ele><time>2026-03-29T11:23:12Z</time></trkpt><trkpt lat="38.85111158777297" lon="-9.39805495854274"><ele>183.25</ele><time>2026-03-29T11:23:13Z</time></trkpt><trkpt lat="38.85121495112336" lon="-9.397974676628413"><ele>183.0</ele><time>2026-03-29T11:23:14Z</time></trkpt><trkpt lat="38.85131998855846" lon="-9.3978878229711"><ele>183.5</ele><time>2026-03-29T11:23:15Z</time></trkpt><trkpt lat="38.85142565239709" lon="-9.397798008868785"><ele>184.0</ele><time>2026-03-29T11:23:16Z</time></trkpt><trkpt lat="38.85153043357751" lon="-9.39769953308344"><ele>184.5</ele><time>2026-03-29T11:23:17Z</time></trkpt><trkpt lat="38.85162389884874" lon="-9.397617402525709"><ele>185.0</ele><time>2026-03-29T11:23:18Z</time></trkpt><trkpt lat="38.851713625054096" lon="-9.397536141678744"><ele>184.5</ele><time>2026-03-29T11:23:19Z</time></trkpt><trkpt lat="38.851811704711466" lon="-9.397450768063203"><ele>184.0</ele><time>2026-03-29T11:23:20Z</time></trkpt><trkpt lat="38.85191074979688" lon="-9.397354588405959"><ele>183.5</ele><time>2026-03-29T11:23:21Z</time></trkpt><trkpt lat="38.85200526607213" lon="-9.39724717973713"><ele>183.0</ele><time>2026-03-29T11:23:22Z</time></trkpt><trkpt lat="38.85209372701383" lon="-9.397127420373165"><ele>183.0</ele><time>2026-03-29T11:23:23Z</time></trkpt><trkpt lat="38.85217024749971" lon="-9.39698389993411"><ele>183.0</ele><time>2026-03-29T11:23:24Z</time></trkpt><trkpt lat="38.85221335054489" lon="-9.396800707879652"><ele>183.0</ele><time>2026-03-29T11:23:25Z</time></trkpt><trkpt lat="38.852250484743585" lon="-9.396623990719156"><ele>183.0</ele><time>2026-03-29T11:23:26Z</time></trkpt><trkpt lat="38.85228956313195" lon="-9.396446879191501"><ele>183.0</ele><time>2026-03-29T11:23:27Z</time></trkpt><trkpt lat="38.852336566450774" lon="-9.396284155547159"><ele>183.0</ele><time>2026-03-29T11:23:28Z</time></trkpt><trkpt lat="38.85235983807442" lon="-9.396118145228028"><ele>183.0</ele><time>2026-03-29T11:23:29Z</time></trkpt><trkpt lat="38.852393400888765" lon="-9.395956543654787"><ele>183.0</ele><time>2026-03-29T11:23:30Z</time></trkpt><trkpt lat="38.85241640919786" lon="-9.39580933938421"><ele>183.0</ele><time>2026-03-29T11:23:31Z</time></trkpt><trkpt lat="38.85243313559458" lon="-9.395663999369507"><ele>183.0</ele><time>2026-03-29T11:23:32Z</time></trkpt><trkpt lat="38.85241983672093" lon="-9.395490120068338"><ele>183.0</ele><time>2026-03-29T11:23:33Z</time></trkpt><trkpt lat="38.8524150897938" lon="-9.395294669755804"><ele>183.0</ele><time>2026-03-29T11:23:34Z</time></trkpt><trkpt lat="38.852416921136864" lon="-9.395107496937865"><ele>182.75</ele><time>2026-03-29T11:23:35Z</time></trkpt><trkpt lat="38.852393334479544" lon="-9.394926822771895"><ele>182.5</ele><time>2026-03-29T11:23:36Z</time></trkpt><trkpt lat="38.8523655349644" lon="-9.394743196389765"><ele>182.25</ele><time>2026-03-29T11:23:37Z</time></trkpt><trkpt lat="38.85232369080618" lon="-9.394569039815472"><ele>182.0</ele><time>2026-03-29T11:23:38Z</time></trkpt><trkpt lat="38.85227361922134" lon="-9.394389103998131"><ele>181.0</ele><time>2026-03-29T11:23:39Z</time></trkpt><trkpt lat="38.85221910570317" lon="-9.394219485064754"><ele>180.0</ele><time>2026-03-29T11:23:40Z</time></trkpt><trkpt lat="38.85215526479353" lon="-9.394062621154637"><ele>179.0</ele><time>2026-03-29T11:23:41Z</time></trkpt><trkpt lat="38.85208878995557" lon="-9.393891363396053"><ele>178.0</ele><time>2026-03-29T11:23:42Z</time></trkpt><trkpt lat="38.85202710290514" lon="-9.393698640240844"><ele>177.33333333333334</ele><time>2026-03-29T11:23:43Z</time></trkpt><trkpt lat="38.851963454677815" lon="-9.393510444149097"><ele>176.66666666666666</ele><time>2026-03-29T11:23:44Z</time></trkpt><trkpt lat="38.851911203968896" lon="-9.393326404447484"><ele>176.0</ele><time>2026-03-29T11:23:45Z</time></trkpt><trkpt lat="38.851873336322356" lon="-9.393136722687467"><ele>176.0</ele><time>2026-03-29T11:23:46Z</time></trkpt><trkpt lat="38.85185035197781" lon="-9.39293744116276"><ele>176.0</ele><time>2026-03-29T11:23:47Z</time></trkpt><trkpt lat="38.85185190844907" lon="-9.39273487517226"><ele>176.0</ele><time>2026-03-29T11:23:48Z</time></trkpt><trkpt lat="38.85185704128642" lon="-9.392544815356299"><ele>176.0</ele><time>2026-03-29T11:23:49Z</time></trkpt><trkpt lat="38.85186366572347" lon="-9.392353864581287"><ele>176.0</ele><time>2026-03-29T11:23:50Z</time></trkpt><trkpt lat="38.85189138522966" lon="-9.392157260498793"><ele>176.0</ele><time>2026-03-29T11:23:51Z</time></trkpt><trkpt lat="38.8519092504875" lon="-9.391976958262505"><ele>176.0</ele><time>2026-03-29T11:23:52Z</time></trkpt><trkpt lat="38.85191792732288" lon="-9.391810219198815"><ele>176.33333333333331</ele><time>2026-03-29T11:23:53Z</time></trkpt><trkpt lat="38.851933674030796" lon="-9.391620316925216"><ele>176.66666666666666</ele><time>2026-03-29T11:23:54Z</time></trkpt><trkpt lat="38.85195083487317" lon="-9.391406733372639"><ele>177.0</ele><time>2026-03-29T11:23:55Z</time></trkpt><trkpt lat="38.851964390720376" lon="-9.391178902798702"><ele>178.33333333333334</ele><time>2026-03-29T11:23:56Z</time></trkpt><trkpt lat="38.8519821563704" lon="-9.390964655664083"><ele>179.66666666666669</ele><time>2026-03-29T11:23:57Z</time></trkpt><trkpt lat="38.85200089696399" lon="-9.390741647144422"><ele>181.0</ele><time>2026-03-29T11:23:58Z</time></trkpt><trkpt lat="38.852019249774905" lon="-9.390538670934506"><ele>182.66666666666669</ele><time>2026-03-29T11:23:59Z</time></trkpt><trkpt lat="38.852029884089134" lon="-9.390340637940133"><ele>184.33333333333334</ele><time>2026-03-29T11:24:00Z</time></trkpt><trkpt lat="38.852043190999815" lon="-9.390128618698222"><ele>186.0</ele><time>2026-03-29T11:24:01Z</time></trkpt><trkpt lat="38.85206015412061" lon="-9.389913657857836"><ele>186.0</ele><time>2026-03-29T11:24:02Z</time></trkpt><trkpt lat="38.852081639425556" lon="-9.389707472512175"><ele>186.0</ele><time>2026-03-29T11:24:03Z</time></trkpt><trkpt lat="38.85209467833052" lon="-9.389496153309953"><ele>186.0</ele><time>2026-03-29T11:24:04Z</time></trkpt><trkpt lat="38.85210656648541" lon="-9.389297586785203"><ele>186.5</ele><time>2026-03-29T11:24:05Z</time></trkpt><trkpt lat="38.85212118083557" lon="-9.389091946857343"><ele>187.0</ele><time>2026-03-29T11:24:06Z</time></trkpt><trkpt lat="38.85213495330002" lon="-9.38890734933783"><ele>187.5</ele><time>2026-03-29T11:24:07Z</time></trkpt><trkpt lat="38.85215119273598" lon="-9.388734694205226"><ele>188.0</ele><time>2026-03-29T11:24:08Z</time></trkpt><trkpt lat="38.85216648654478" lon="-9.38856757672229"><ele>188.75</ele><time>2026-03-29T11:24:09Z</time></trkpt><trkpt lat="38.85218664251969" lon="-9.388431939551277"><ele>189.5</ele><time>2026-03-29T11:24:10Z</time></trkpt><trkpt lat="38.852210038203985" lon="-9.388299529534963"><ele>190.25</ele><time>2026-03-29T11:24:11Z</time></trkpt><trkpt lat="38.85225180779134" lon="-9.388156842805909"><ele>191.0</ele><time>2026-03-29T11:24:12Z</time></trkpt><trkpt lat="38.85230245543544" lon="-9.387993900494282"><ele>191.75</ele><time>2026-03-29T11:24:13Z</time></trkpt><trkpt lat="38.852356555039805" lon="-9.387830444722384"><ele>192.5</ele><time>2026-03-29T11:24:14Z</time></trkpt><trkpt lat="38.852404036409396" lon="-9.387684560848168"><ele>193.25</ele><time>2026-03-29T11:24:15Z</time></trkpt><trkpt lat="38.852451761676555" lon="-9.387532611827059"><ele>194.0</ele><time>2026-03-29T11:24:16Z</time></trkpt><trkpt lat="38.85250311934261" lon="-9.387384272300357"><ele>194.0</ele><time>2026-03-29T11:24:17Z</time></trkpt><trkpt lat="38.852548287848045" lon="-9.387241326393333"><ele>194.0</ele><time>2026-03-29T11:24:18Z</time></trkpt><trkpt lat="38.85259273745845" lon="-9.387097787098401"><ele>194.0</ele><time>2026-03-29T11:24:19Z</time></trkpt><trkpt lat="38.85263575079591" lon="-9.386959636075456"><ele>194.0</ele><time>2026-03-29T11:24:20Z</time></trkpt><trkpt lat="38.85268103916896" lon="-9.386815335877467"><ele>193.75</ele><time>2026-03-29T11:24:21Z</time></trkpt><trkpt lat="38.85272347924943" lon="-9.386677410233863"><ele>193.5</ele><time>2026-03-29T11:24:22Z</time></trkpt><trkpt lat="38.85276392065568" lon="-9.386549725860206"><ele>193.25</ele><time>2026-03-29T11:24:23Z</time></trkpt><trkpt lat="38.85281081636102" lon="-9.38640294357437"><ele>193.0</ele><time>2026-03-29T11:24:24Z</time></trkpt><trkpt lat="38.85286295770045" lon="-9.386245868499678"><ele>193.0</ele><time>2026-03-29T11:24:25Z</time></trkpt><trkpt lat="38.852911199738465" lon="-9.386096596130585"><ele>193.0</ele><time>2026-03-29T11:24:26Z</time></trkpt><trkpt lat="38.85295121804221" lon="-9.385963843188486"><ele>193.0</ele><time>2026-03-29T11:24:27Z</time></trkpt><trkpt lat="38.85299094939683" lon="-9.385841311497305"><ele>193.0</ele><time>2026-03-29T11:24:28Z</time></trkpt><trkpt lat="38.85302318801466" lon="-9.385719177727545"><ele>193.0</ele><time>2026-03-29T11:24:29Z</time></trkpt><trkpt lat="38.85306201144523" lon="-9.385598756262205"><ele>192.8</ele><time>2026-03-29T11:24:30Z</time></trkpt><trkpt lat="38.853106554120906" lon="-9.385473469859765"><ele>192.60000000000002</ele><time>2026-03-29T11:24:31Z</time></trkpt><trkpt lat="38.853144992069474" lon="-9.385363791741337"><ele>192.39999999999998</ele><time>2026-03-29T11:24:32Z</time></trkpt><trkpt lat="38.853174722235735" lon="-9.385260424627822"><ele>192.2</ele><time>2026-03-29T11:24:33Z</time></trkpt><trkpt lat="38.853208008170455" lon="-9.385156208575973"><ele>192.0</ele><time>2026-03-29T11:24:34Z</time></trkpt><trkpt lat="38.85323218595724" lon="-9.385060643689323"><ele>192.0</ele><time>2026-03-29T11:24:35Z</time></trkpt><trkpt lat="38.85325263869887" lon="-9.384973621691625"><ele>192.0</ele><time>2026-03-29T11:24:36Z</time></trkpt><trkpt lat="38.853266633408246" lon="-9.384892123529179"><ele>192.0</ele><time>2026-03-29T11:24:37Z</time></trkpt><trkpt lat="38.85324965301337" lon="-9.384724312402398"><ele>192.0</ele><time>2026-03-29T11:24:39Z</time></trkpt><trkpt lat="38.853219885082495" lon="-9.384626207161801"><ele>192.0</ele><time>2026-03-29T11:24:40Z</time></trkpt><trkpt lat="38.85313911902154" lon="-9.384552603098296"><ele>192.0</ele><time>2026-03-29T11:24:41Z</time></trkpt><trkpt lat="38.85309794760251" lon="-9.384466548852261"><ele>191.6</ele><time>2026-03-29T11:24:42Z</time></trkpt><trkpt lat="38.85305808058584" lon="-9.384354355534102"><ele>191.2</ele><time>2026-03-29T11:24:44Z</time></trkpt><trkpt lat="38.85301751865808" lon="-9.38426796859268"><ele>190.8</ele><time>2026-03-29T11:24:46Z</time></trkpt><trkpt lat="38.852957167373205" lon="-9.384150005657453"><ele>190.4</ele><time>2026-03-29T11:24:48Z</time></trkpt><trkpt lat="38.85287391633303" lon="-9.384085183332447"><ele>190.0</ele><time>2026-03-29T11:24:51Z</time></trkpt><trkpt lat="38.852836178121585" lon="-9.384002090511949"><ele>190.0</ele><time>2026-03-29T11:24:52Z</time></trkpt><trkpt lat="38.85278948975865" lon="-9.383899519184395"><ele>190.0</ele><time>2026-03-29T11:24:53Z</time></trkpt><trkpt lat="38.85273939712307" lon="-9.383790127472588"><ele>189.0</ele><time>2026-03-29T11:24:54Z</time></trkpt><trkpt lat="38.85270102432192" lon="-9.383706329466326"><ele>189.0</ele><time>2026-03-29T11:24:55Z</time></trkpt></trkseg><trkseg><trkpt lat="38.87730175798747" lon="-9.267911671047788"><ele>248.00000000000003</ele><time>2026-03-29T12:10:40Z</time></trkpt><trkpt lat="38.87734127590455" lon="-9.267832949185312"><ele>248.0</ele><time>2026-03-29T12:11:00Z</time></trkpt><trkpt lat="38.8772863210605" lon="-9.267891713122372"><ele>248.0</ele><time>2026-03-29T12:11:37Z</time></trkpt><trkpt lat="38.877325694107085" lon="-9.267961483037357"><ele>248.0</ele><time>2026-03-29T12:11:43Z</time></trkpt><trkpt lat="38.87727329390443" lon="-9.267864959484884"><ele>248.00000000000003</ele><time>2026-03-29T12:21:05Z</time></trkpt><trkpt lat="38.87718099470172" lon="-9.26795490433502"><ele>248.0</ele><time>2026-03-29T12:21:07Z</time></trkpt><trkpt lat="38.877128972332585" lon="-9.26808123011752"><ele>247.25</ele><time>2026-03-29T12:21:09Z</time></trkpt><trkpt lat="38.87714375310592" lon="-9.268206481285292"><ele>246.5</ele><time>2026-03-29T12:21:10Z</time></trkpt><trkpt lat="38.87717077304774" lon="-9.268367149852859"><ele>245.75</ele><time>2026-03-29T12:21:11Z</time></trkpt><trkpt lat="38.87719123909752" lon="-9.268526603072404"><ele>245.0</ele><time>2026-03-29T12:21:12Z</time></trkpt><trkpt lat="38.87720177577084" lon="-9.268698092136745"><ele>245.0</ele><time>2026-03-29T12:21:13Z</time></trkpt><trkpt lat="38.877218876994064" lon="-9.268886054591613"><ele>245.0</ele><time>2026-03-29T12:21:14Z</time></trkpt><trkpt lat="38.87723670462328" lon="-9.269094609214273"><ele>245.0</ele><time>2026-03-29T12:21:15Z</time></trkpt><trkpt lat="38.87725823624894" lon="-9.26930921627159"><ele>243.66666666666669</ele><time>2026-03-29T12:21:16Z</time></trkpt><trkpt lat="38.87727634475708" lon="-9.269524842912238"><ele>242.33333333333331</ele><time>2026-03-29T12:21:17Z</time></trkpt><trkpt lat="38.87729524075254" lon="-9.269749032261144"><ele>241.0</ele><time>2026-03-29T12:21:18Z</time></trkpt><trkpt lat="38.877317532380424" lon="-9.269983281154621"><ele>240.0</ele><time>2026-03-29T12:21:19Z</time></trkpt><trkpt lat="38.87733125564012" lon="-9.270209161018785"><ele>239.0</ele><time>2026-03-29T12:21:20Z</time></trkpt><trkpt lat="38.87734723589667" lon="-9.270422692356119"><ele>238.0</ele><time>2026-03-29T12:21:21Z</time></trkpt><trkpt lat="38.877374007493145" lon="-9.270638030095155"><ele>238.0</ele><time>2026-03-29T12:21:22Z</time></trkpt><trkpt lat="38.87739890334135" lon="-9.27086118160154"><ele>238.0</ele><time>2026-03-29T12:21:23Z</time></trkpt><trkpt lat="38.87742050507518" lon="-9.271069893875548"><ele>238.0</ele><time>2026-03-29T12:21:24Z</time></trkpt><trkpt lat="38.87744145886581" lon="-9.271262098545822"><ele>237.33333333333331</ele><time>2026-03-29T12:21:25Z</time></trkpt><trkpt lat="38.87746564326028" lon="-9.271446610135188"><ele>236.66666666666669</ele><time>2026-03-29T12:21:26Z</time></trkpt><trkpt lat="38.877498836966545" lon="-9.271637490129013"><ele>236.0</ele><time>2026-03-29T12:21:27Z</time></trkpt><trkpt lat="38.87754196979411" lon="-9.27183635655857"><ele>236.0</ele><time>2026-03-29T12:21:28Z</time></trkpt><trkpt lat="38.87759665665338" lon="-9.27203224330184"><ele>236.0</ele><time>2026-03-29T12:21:29Z</time></trkpt><trkpt lat="38.87766266364068" lon="-9.272230923880592"><ele>236.0</ele><time>2026-03-29T12:21:30Z</time></trkpt><trkpt lat="38.87774577837211" lon="-9.272417438335319"><ele>234.33333333333334</ele><time>2026-03-29T12:21:31Z</time></trkpt><trkpt lat="38.877831409427394" lon="-9.272616016707083"><ele>232.66666666666669</ele><time>2026-03-29T12:21:32Z</time></trkpt><trkpt lat="38.87792686560066" lon="-9.272814283364951"><ele>231.0</ele><time>2026-03-29T12:21:33Z</time></trkpt><trkpt lat="38.878019235185114" lon="-9.27300702167113"><ele>230.66666666666669</ele><time>2026-03-29T12:21:34Z</time></trkpt><trkpt lat="38.878100675600116" lon="-9.273187743820548"><ele>230.33333333333334</ele><time>2026-03-29T12:21:35Z</time></trkpt><trkpt lat="38.87817432626052" lon="-9.273358428249978"><ele>230.0</ele><time>2026-03-29T12:21:36Z</time></trkpt><trkpt lat="38.87824819273652" lon="-9.273516297476126"><ele>230.0</ele><time>2026-03-29T12:21:37Z</time></trkpt><trkpt lat="38.87831842068414" lon="-9.273692574535294"><ele>230.0</ele><time>2026-03-29T12:21:38Z</time></trkpt><trkpt lat="38.87836514010039" lon="-9.27386358442237"><ele>230.0</ele><time>2026-03-29T12:21:39Z</time></trkpt><trkpt lat="38.87839834786581" lon="-9.274031879721122"><ele>230.0</ele><time>2026-03-29T12:21:40Z</time></trkpt><trkpt lat="38.87839332434152" lon="-9.274210352232428"><ele>229.75</ele><time>2026-03-29T12:21:41Z</time></trkpt><trkpt lat="38.8784002091909" lon="-9.274393255966197"><ele>229.5</ele><time>2026-03-29T12:21:42Z</time></trkpt><trkpt lat="38.87837988934648" lon="-9.274563066284871"><ele>229.25</ele><time>2026-03-29T12:21:43Z</time></trkpt><trkpt lat="38.87836113165905" lon="-9.27474508263823"><ele>229.0</ele><time>2026-03-29T12:21:44Z</time></trkpt><trkpt lat="38.878343041742895" lon="-9.274915700403186"><ele>228.75</ele><time>2026-03-29T12:21:45Z</time></trkpt><trkpt lat="38.87834080730417" lon="-9.275071475373224"><ele>228.5</ele><time>2026-03-29T12:21:46Z</time></trkpt><trkpt lat="38.87836131405294" lon="-9.275211789298991"><ele>228.25</ele><time>2026-03-29T12:21:47Z</time></trkpt><trkpt lat="38.878409016999626" lon="-9.275355293511055"><ele>228.0</ele><time>2026-03-29T12:21:48Z</time></trkpt><trkpt lat="38.87846867878546" lon="-9.27550635900873"><ele>227.0</ele><time>2026-03-29T12:21:49Z</time></trkpt><trkpt lat="38.878553937551324" lon="-9.275660655035425"><ele>226.0</ele><time>2026-03-29T12:21:50Z</time></trkpt><trkpt lat="38.87867687006552" lon="-9.275797499213256"><ele>225.0</ele><time>2026-03-29T12:21:51Z</time></trkpt><trkpt lat="38.87882134771718" lon="-9.275905267251064"><ele>225.0</ele><time>2026-03-29T12:21:52Z</time></trkpt><trkpt lat="38.87894469529301" lon="-9.276004434860738"><ele>225.0</ele><time>2026-03-29T12:21:53Z</time></trkpt><trkpt lat="38.8790621177235" lon="-9.276099690141924"><ele>225.0</ele><time>2026-03-29T12:21:54Z</time></trkpt><trkpt lat="38.879159684539864" lon="-9.276186231400747"><ele>225.0</ele><time>2026-03-29T12:21:55Z</time></trkpt><trkpt lat="38.87924459481839" lon="-9.276266844191458"><ele>225.4</ele><time>2026-03-29T12:21:56Z</time></trkpt><trkpt lat="38.879308162534414" lon="-9.276373296979937"><ele>225.8</ele><time>2026-03-29T12:21:57Z</time></trkpt><trkpt lat="38.87933443300418" lon="-9.276508206313586"><ele>226.2</ele><time>2026-03-29T12:21:58Z</time></trkpt><trkpt lat="38.87932986564998" lon="-9.276629749812948"><ele>226.6</ele><time>2026-03-29T12:21:59Z</time></trkpt><trkpt lat="38.8792995468018" lon="-9.276757105244991"><ele>227.0</ele><time>2026-03-29T12:22:00Z</time></trkpt><trkpt lat="38.87923629038781" lon="-9.276883954259022"><ele>225.5</ele><time>2026-03-29T12:22:01Z</time></trkpt><trkpt lat="38.87914821930998" lon="-9.27698368464759"><ele>224.0</ele><time>2026-03-29T12:22:02Z</time></trkpt><trkpt lat="38.87907462726719" lon="-9.277102872122654"><ele>222.5</ele><time>2026-03-29T12:22:03Z</time></trkpt><trkpt lat="38.87900123474877" lon="-9.277243919094902"><ele>221.0</ele><time>2026-03-29T12:22:04Z</time></trkpt><trkpt lat="38.87893016403323" lon="-9.277364734117791"><ele>220.60000000000002</ele><time>2026-03-29T12:22:05Z</time></trkpt><trkpt lat="38.87887117916138" lon="-9.27747890827101"><ele>220.20000000000002</ele><time>2026-03-29T12:22:06Z</time></trkpt><trkpt lat="38.87880949674179" lon="-9.277587651361905"><ele>219.79999999999998</ele><time>2026-03-29T12:22:07Z</time></trkpt><trkpt lat="38.878751640264994" lon="-9.27769373809226"><ele>219.39999999999998</ele><time>2026-03-29T12:22:08Z</time></trkpt><trkpt lat="38.878696522255666" lon="-9.277795181808177"><ele>219.0</ele><time>2026-03-29T12:22:09Z</time></trkpt><trkpt lat="38.87864275979012" lon="-9.277899468611562"><ele>219.0</ele><time>2026-03-29T12:22:10Z</time></trkpt><trkpt lat="38.87859453006628" lon="-9.277989133242894"><ele>219.0</ele><time>2026-03-29T12:22:11Z</time></trkpt><trkpt lat="38.87854384489041" lon="-9.27807977130798"><ele>219.0</ele><time>2026-03-29T12:22:12Z</time></trkpt><trkpt lat="38.87849420749541" lon="-9.278158322175438"><ele>219.0</ele><time>2026-03-29T12:22:13Z</time></trkpt><trkpt lat="38.87846155514762" lon="-9.278230089514715"><ele>219.0</ele><time>2026-03-29T12:22:14Z</time></trkpt><trkpt lat="38.87840751757771" lon="-9.27834859552746"><ele>219.0</ele><time>2026-03-29T12:22:16Z</time></trkpt><trkpt lat="38.878276767749924" lon="-9.278342211516089"><ele>218.83333333333334</ele><time>2026-03-29T12:22:20Z</time></trkpt><trkpt lat="38.87833985804959" lon="-9.278360794556136"><ele>218.66666666666669</ele><time>2026-03-29T12:22:53Z</time></trkpt><trkpt lat="38.87827875548588" lon="-9.278324059492142"><ele>218.5</ele><time>2026-03-29T12:23:07Z</time></trkpt><trkpt lat="38.878333128619964" lon="-9.278393085595708"><ele>218.33333333333334</ele><time>2026-03-29T12:23:30Z</time></trkpt><trkpt lat="38.87826074650667" lon="-9.278472654796966"><ele>218.16666666666669</ele><time>2026-03-29T12:24:11Z</time></trkpt><trkpt lat="38.87822367154525" lon="-9.278553865651507"><ele>218.0</ele><time>2026-03-29T12:24:12Z</time></trkpt><trkpt lat="38.87829454963193" lon="-9.278710888432622"><ele>218.0</ele><time>2026-03-29T12:24:14Z</time></trkpt><trkpt lat="38.87831116029162" lon="-9.278617755566117"><ele>218.0</ele><time>2026-03-29T12:24:15Z</time></trkpt><trkpt lat="38.8783337994468" lon="-9.27854020098527"><ele>218.0</ele><time>2026-03-29T12:24:17Z</time></trkpt><trkpt lat="38.8783554853988" lon="-9.278435161522223"><ele>218.0</ele><time>2026-03-29T12:24:19Z</time></trkpt><trkpt lat="38.87821455698501" lon="-9.278644463718939"><ele>218.0</ele><time>2026-03-29T12:24:20Z</time></trkpt><trkpt lat="38.878004750549565" lon="-9.278198698533068"><ele>218.0</ele><time>2026-03-29T12:24:22Z</time></trkpt><trkpt lat="38.87832879895329" lon="-9.27827097659182"><ele>218.0</ele><time>2026-03-29T12:24:25Z</time></trkpt><trkpt lat="38.878413516440986" lon="-9.278134736339819"><ele>218.0</ele><time>2026-03-29T12:24:31Z</time></trkpt><trkpt lat="38.8783777634751" lon="-9.27820295614898"><ele>218.0</ele><time>2026-03-29T12:24:36Z</time></trkpt><trkpt lat="38.878247764947936" lon="-9.278372356813277"><ele>218.0</ele><time>2026-03-29T12:24:43Z</time></trkpt><trkpt lat="38.878260225006215" lon="-9.278490141367127"><ele>218.0</ele><time>2026-03-29T12:24:54Z</time></trkpt><trkpt lat="38.87816946698148" lon="-9.278540343045547"><ele>218.0</ele><time>2026-03-29T12:24:57Z</time></trkpt><trkpt lat="38.87805656790123" lon="-9.278532961272349"><ele>218.0</ele><time>2026-03-29T12:25:00Z</time></trkpt><trkpt lat="38.877984024305306" lon="-9.278576519405611"><ele>218.0</ele><time>2026-03-29T12:25:01Z</time></trkpt><trkpt lat="38.877878588814504" lon="-9.278640110675664"><ele>218.0</ele><time>2026-03-29T12:25:02Z</time></trkpt><trkpt lat="38.87778606514971" lon="-9.278756468414198"><ele>218.0</ele><time>2026-03-29T12:25:03Z</time></trkpt><trkpt lat="38.8777225598797" lon="-9.278756484656757"><ele>218.0</ele><time>2026-03-29T12:25:04Z</time></trkpt><trkpt lat="38.8778056730335" lon="-9.27875049472952"><ele>218.0</ele><time>2026-03-29T12:25:11Z</time></trkpt><trkpt lat="38.87804521667674" lon="-9.27869749612691"><ele>218.0</ele><time>2026-03-29T12:25:12Z</time></trkpt><trkpt lat="38.878262337267984" lon="-9.27864863134343"><ele>218.0</ele><time>2026-03-29T12:25:13Z</time></trkpt><trkpt lat="38.87838812059186" lon="-9.278584989617185"><ele>218.0</ele><time>2026-03-29T12:25:14Z</time></trkpt><trkpt lat="38.87828421607861" lon="-9.27864889191713"><ele>218.0</ele><time>2026-03-29T12:25:16Z</time></trkpt><trkpt lat="38.87818171445128" lon="-9.278665021727614"><ele>218.0</ele><time>2026-03-29T12:25:17Z</time></trkpt><trkpt lat="38.87809715790888" lon="-9.278688184352884"><ele>218.0</ele><time>2026-03-29T12:25:21Z</time></trkpt><trkpt lat="38.87817669597374" lon="-9.278666396439297"><ele>218.0</ele><time>2026-03-29T12:25:22Z</time></trkpt><trkpt lat="38.87798084933729" lon="-9.278715935396463"><ele>218.0</ele><time>2026-03-29T12:25:30Z</time></trkpt><trkpt lat="38.87806945639311" lon="-9.278687933007154"><ele>218.0</ele><time>2026-03-29T12:25:31Z</time></trkpt><trkpt lat="38.87819175170586" lon="-9.278666377925155"><ele>218.0</ele><time>2026-03-29T12:25:36Z</time></trkpt><trkpt lat="38.87821262145034" lon="-9.278555348796143"><ele>218.0</ele><time>2026-03-29T12:25:42Z</time></trkpt><trkpt lat="38.878220808655485" lon="-9.278464920100097"><ele>218.0</ele><time>2026-03-29T12:25:49Z</time></trkpt><trkpt lat="38.87822530265916" lon="-9.278365393755664"><ele>218.0</ele><time>2026-03-29T12:25:56Z</time></trkpt></trkseg><trkseg><trkpt lat="38.87541725566965" lon="-9.28402152548516"><ele>207.0</ele><time>2026-03-29T12:34:29.467Z</time></trkpt><trkpt lat="38.87538449177327" lon="-9.284123262177982"><ele>207.0</ele><time>2026-03-29T12:34:30.467Z</time></trkpt><trkpt lat="38.87534298320732" lon="-9.28420734998691"><ele>207.0</ele><time>2026-03-29T12:34:39Z</time></trkpt><trkpt lat="38.87521751904552" lon="-9.284258380416706"><ele>207.0</ele><time>2026-03-29T12:34:41Z</time></trkpt><trkpt lat="38.875155281132045" lon="-9.284283604977386"><ele>207.0</ele><time>2026-03-29T12:34:42Z</time></trkpt><trkpt lat="38.87506045400017" lon="-9.284319418466923"><ele>207.25</ele><time>2026-03-29T12:34:43Z</time></trkpt><trkpt lat="38.8749268700398" lon="-9.284360166778168"><ele>207.5</ele><time>2026-03-29T12:34:44Z</time></trkpt><trkpt lat="38.874785787292936" lon="-9.2843928019008"><ele>207.75</ele><time>2026-03-29T12:34:45Z</time></trkpt><trkpt lat="38.874638721722505" lon="-9.284429050958387"><ele>208.0</ele><time>2026-03-29T12:34:46Z</time></trkpt><trkpt lat="38.87447378112356" lon="-9.284469564463771"><ele>208.0</ele><time>2026-03-29T12:34:47Z</time></trkpt><trkpt lat="38.87430343803597" lon="-9.284513441525126"><ele>208.0</ele><time>2026-03-29T12:34:48Z</time></trkpt><trkpt lat="38.8741285577058" lon="-9.284566869738232"><ele>208.0</ele><time>2026-03-29T12:34:49Z</time></trkpt><trkpt lat="38.87395480234204" lon="-9.284633629355344"><ele>206.33333333333331</ele><time>2026-03-29T12:34:50Z</time></trkpt><trkpt lat="38.87378241522268" lon="-9.284712766134565"><ele>204.66666666666669</ele><time>2026-03-29T12:34:51Z</time></trkpt><trkpt lat="38.87361914166912" lon="-9.284814490955055"><ele>203.0</ele><time>2026-03-29T12:34:52Z</time></trkpt><trkpt lat="38.8734532598971" lon="-9.284935092967496"><ele>204.66666666666669</ele><time>2026-03-29T12:34:53Z</time></trkpt><trkpt lat="38.87329449826336" lon="-9.285073693018683"><ele>206.33333333333331</ele><time>2026-03-29T12:34:54Z</time></trkpt><trkpt lat="38.873143676336205" lon="-9.28522683303934"><ele>208.0</ele><time>2026-03-29T12:34:55Z</time></trkpt><trkpt lat="38.87300077581702" lon="-9.285391059373241"><ele>208.0</ele><time>2026-03-29T12:34:56Z</time></trkpt><trkpt lat="38.87285624950134" lon="-9.285555152478306"><ele>208.0</ele><time>2026-03-29T12:34:57Z</time></trkpt><trkpt lat="38.872711674938124" lon="-9.28571250882953"><ele>208.0</ele><time>2026-03-29T12:34:58Z</time></trkpt><trkpt lat="38.8725635022631" lon="-9.285846129419909"><ele>208.33333333333331</ele><time>2026-03-29T12:34:59Z</time></trkpt><trkpt lat="38.87239523752041" lon="-9.28595106528932"><ele>208.66666666666669</ele><time>2026-03-29T12:35:00Z</time></trkpt><trkpt lat="38.872215951486254" lon="-9.286027775246918"><ele>209.0</ele><time>2026-03-29T12:35:01Z</time></trkpt><trkpt lat="38.87203668725877" lon="-9.286071594579898"><ele>209.0</ele><time>2026-03-29T12:35:02Z</time></trkpt><trkpt lat="38.871842012778835" lon="-9.286115692473643"><ele>209.0</ele><time>2026-03-29T12:35:03Z</time></trkpt><trkpt lat="38.87164361999701" lon="-9.286150316505912"><ele>209.0</ele><time>2026-03-29T12:35:04Z</time></trkpt><trkpt lat="38.87145042372647" lon="-9.286181773416018"><ele>207.0</ele><time>2026-03-29T12:35:05Z</time></trkpt><trkpt lat="38.87126532724949" lon="-9.286216328439297"><ele>205.0</ele><time>2026-03-29T12:35:06Z</time></trkpt><trkpt lat="38.87108037318473" lon="-9.286262681030973"><ele>203.0</ele><time>2026-03-29T12:35:07Z</time></trkpt><trkpt lat="38.87089672136379" lon="-9.286317572939009"><ele>202.66666666666669</ele><time>2026-03-29T12:35:08Z</time></trkpt><trkpt lat="38.87071311086418" lon="-9.286382063218118"><ele>202.33333333333331</ele><time>2026-03-29T12:35:09Z</time></trkpt><trkpt lat="38.870545841633565" lon="-9.286494184390762"><ele>202.0</ele><time>2026-03-29T12:35:10Z</time></trkpt><trkpt lat="38.87038040356935" lon="-9.286617266180135"><ele>199.33333333333331</ele><time>2026-03-29T12:35:11Z</time></trkpt><trkpt lat="38.870221451704964" lon="-9.28676115424232"><ele>196.66666666666669</ele><time>2026-03-29T12:35:12Z</time></trkpt><trkpt lat="38.87009096445406" lon="-9.286943497289109"><ele>194.0</ele><time>2026-03-29T12:35:13Z</time></trkpt><trkpt lat="38.86996882255188" lon="-9.287138445229251"><ele>191.0</ele><time>2026-03-29T12:35:14Z</time></trkpt><trkpt lat="38.86986365388853" lon="-9.287357292970821"><ele>188.0</ele><time>2026-03-29T12:35:15Z</time></trkpt><trkpt lat="38.86978466925258" lon="-9.287592554587741"><ele>185.0</ele><time>2026-03-29T12:35:16Z</time></trkpt><trkpt lat="38.86972657158832" lon="-9.287843166762325"><ele>183.33333333333331</ele><time>2026-03-29T12:35:17Z</time></trkpt><trkpt lat="38.8696979368289" lon="-9.2880993671034"><ele>181.66666666666666</ele><time>2026-03-29T12:35:18Z</time></trkpt><trkpt lat="38.86968485989498" lon="-9.288367896188175"><ele>180.0</ele><time>2026-03-29T12:35:19Z</time></trkpt><trkpt lat="38.86968173776224" lon="-9.28863320139486"><ele>180.0</ele><time>2026-03-29T12:35:20Z</time></trkpt><trkpt lat="38.86967358433461" lon="-9.288896781879872"><ele>180.0</ele><time>2026-03-29T12:35:21Z</time></trkpt><trkpt lat="38.869684590458725" lon="-9.289158739271846"><ele>180.0</ele><time>2026-03-29T12:35:22Z</time></trkpt><trkpt lat="38.86969513081622" lon="-9.289422062964379"><ele>179.0</ele><time>2026-03-29T12:35:23Z</time></trkpt><trkpt lat="38.86970627275124" lon="-9.289679783114758"><ele>178.0</ele><time>2026-03-29T12:35:24Z</time></trkpt><trkpt lat="38.8697111769064" lon="-9.289938835085561"><ele>177.0</ele><time>2026-03-29T12:35:25Z</time></trkpt><trkpt lat="38.869720145330895" lon="-9.290192189380376"><ele>177.0</ele><time>2026-03-29T12:35:26Z</time></trkpt><trkpt lat="38.86972250739766" lon="-9.290437990188549"><ele>177.0</ele><time>2026-03-29T12:35:27Z</time></trkpt><trkpt lat="38.86972149963296" lon="-9.290669546164374"><ele>177.0</ele><time>2026-03-29T12:35:28Z</time></trkpt><trkpt lat="38.86969201557544" lon="-9.29086934676987"><ele>177.75</ele><time>2026-03-29T12:35:29Z</time></trkpt><trkpt lat="38.869634383728425" lon="-9.29103627520518"><ele>178.5</ele><time>2026-03-29T12:35:30Z</time></trkpt><trkpt lat="38.86954524742385" lon="-9.291178723022274"><ele>179.25</ele><time>2026-03-29T12:35:31Z</time></trkpt><trkpt lat="38.869418121133585" lon="-9.291302838458533"><ele>180.0</ele><time>2026-03-29T12:35:32Z</time></trkpt><trkpt lat="38.869248675480115" lon="-9.291358968376267"><ele>177.33333333333334</ele><time>2026-03-29T12:35:33Z</time></trkpt><trkpt lat="38.86908328203554" lon="-9.291442713009483"><ele>174.66666666666669</ele><time>2026-03-29T12:35:34Z</time></trkpt><trkpt lat="38.86889609308576" lon="-9.29145247435437"><ele>172.0</ele><time>2026-03-29T12:35:35Z</time></trkpt><trkpt lat="38.8687093835908" lon="-9.29146880437353"><ele>172.0</ele><time>2026-03-29T12:35:36Z</time></trkpt><trkpt lat="38.86851914317896" lon="-9.291488722646083"><ele>172.0</ele><time>2026-03-29T12:35:37Z</time></trkpt><trkpt lat="38.86833185318626" lon="-9.291513590911084"><ele>172.0</ele><time>2026-03-29T12:35:38Z</time></trkpt><trkpt lat="38.868140178536045" lon="-9.291553870943405"><ele>174.0</ele><time>2026-03-29T12:35:39Z</time></trkpt><trkpt lat="38.86795997190257" lon="-9.291608622312788"><ele>176.0</ele><time>2026-03-29T12:35:40Z</time></trkpt><trkpt lat="38.867776434280955" lon="-9.291676412063198"><ele>178.0</ele><time>2026-03-29T12:35:41Z</time></trkpt><trkpt lat="38.86759953476199" lon="-9.29176238656597"><ele>180.0</ele><time>2026-03-29T12:35:42Z</time></trkpt><trkpt lat="38.8674235034367" lon="-9.291869351312128"><ele>182.0</ele><time>2026-03-29T12:35:43Z</time></trkpt><trkpt lat="38.8672538917551" lon="-9.291994726273835"><ele>184.0</ele><time>2026-03-29T12:35:44Z</time></trkpt><trkpt lat="38.86709801444145" lon="-9.292158802598864"><ele>183.66666666666669</ele><time>2026-03-29T12:35:45Z</time></trkpt><trkpt lat="38.86693280244656" lon="-9.292318714236453"><ele>183.33333333333334</ele><time>2026-03-29T12:35:46Z</time></trkpt><trkpt lat="38.866777582245845" lon="-9.292490593175625"><ele>183.0</ele><time>2026-03-29T12:35:47Z</time></trkpt><trkpt lat="38.86663141171663" lon="-9.292687213890773"><ele>183.0</ele><time>2026-03-29T12:35:48Z</time></trkpt><trkpt lat="38.866503469510924" lon="-9.2929024120416"><ele>183.0</ele><time>2026-03-29T12:35:49Z</time></trkpt><trkpt lat="38.866385971295855" lon="-9.29313244937462"><ele>183.0</ele><time>2026-03-29T12:35:50Z</time></trkpt><trkpt lat="38.86627368383924" lon="-9.293368407209607"><ele>181.33333333333334</ele><time>2026-03-29T12:35:51Z</time></trkpt><trkpt lat="38.866147574096814" lon="-9.293600274769505"><ele>179.66666666666669</ele><time>2026-03-29T12:35:52Z</time></trkpt><trkpt lat="38.866049304056716" lon="-9.293850816884518"><ele>178.0</ele><time>2026-03-29T12:35:53Z</time></trkpt><trkpt lat="38.86594684587848" lon="-9.294108149013672"><ele>176.0</ele><time>2026-03-29T12:35:54Z</time></trkpt><trkpt lat="38.865842337191566" lon="-9.294361181500276"><ele>174.0</ele><time>2026-03-29T12:35:55Z</time></trkpt><trkpt lat="38.86573318556291" lon="-9.294611990259796"><ele>172.0</ele><time>2026-03-29T12:35:56Z</time></trkpt><trkpt lat="38.865625740327786" lon="-9.29486379609057"><ele>170.0</ele><time>2026-03-29T12:35:57Z</time></trkpt><trkpt lat="38.86552286064859" lon="-9.295118882056315"><ele>168.0</ele><time>2026-03-29T12:35:58Z</time></trkpt><trkpt lat="38.865416015782635" lon="-9.295380630573785"><ele>167.0</ele><time>2026-03-29T12:35:59Z</time></trkpt><trkpt lat="38.86530163451747" lon="-9.295644294519564"><ele>166.0</ele><time>2026-03-29T12:36:00Z</time></trkpt><trkpt lat="38.86518956805435" lon="-9.295915823317342"><ele>166.0</ele><time>2026-03-29T12:36:01Z</time></trkpt><trkpt lat="38.865084427823774" lon="-9.296195908455402"><ele>166.0</ele><time>2026-03-29T12:36:02Z</time></trkpt><trkpt lat="38.86499088567092" lon="-9.296486089452664"><ele>165.0</ele><time>2026-03-29T12:36:03Z</time></trkpt><trkpt lat="38.86494964136186" lon="-9.296787623302652"><ele>164.0</ele><time>2026-03-29T12:36:04Z</time></trkpt><trkpt lat="38.86490740135182" lon="-9.297088126388008"><ele>164.0</ele><time>2026-03-29T12:36:05Z</time></trkpt><trkpt lat="38.86487287535934" lon="-9.297387542068787"><ele>164.0</ele><time>2026-03-29T12:36:06Z</time></trkpt><trkpt lat="38.86484190648531" lon="-9.297662163613674"><ele>164.0</ele><time>2026-03-29T12:36:07Z</time></trkpt><trkpt lat="38.86481494182269" lon="-9.297901277228956"><ele>164.0</ele><time>2026-03-29T12:36:08Z</time></trkpt><trkpt lat="38.864789652809996" lon="-9.298125531660407"><ele>164.0</ele><time>2026-03-29T12:36:09Z</time></trkpt><trkpt lat="38.86476396961239" lon="-9.298353281512034"><ele>164.0</ele><time>2026-03-29T12:36:10Z</time></trkpt><trkpt lat="38.86474083232293" lon="-9.298558455340778"><ele>164.0</ele><time>2026-03-29T12:36:11Z</time></trkpt><trkpt lat="38.8647131020506" lon="-9.298738626379027"><ele>164.0</ele><time>2026-03-29T12:36:12Z</time></trkpt><trkpt lat="38.864729995175956" lon="-9.29889163497329"><ele>164.0</ele><time>2026-03-29T12:36:13Z</time></trkpt><trkpt lat="38.864824886988195" lon="-9.299004643697197"><ele>163.6</ele><time>2026-03-29T12:36:14Z</time></trkpt><trkpt lat="38.864856333323885" lon="-9.299116714049884"><ele>163.2</ele><time>2026-03-29T12:36:15Z</time></trkpt><trkpt lat="38.86485216806725" lon="-9.299217124007464"><ele>162.79999999999998</ele><time>2026-03-29T12:36:16Z</time></trkpt><trkpt lat="38.864816665142996" lon="-9.299322263918912"><ele>162.39999999999998</ele><time>2026-03-29T12:36:17Z</time></trkpt><trkpt lat="38.86472090274986" lon="-9.299417310195699"><ele>162.0</ele><time>2026-03-29T12:36:18Z</time></trkpt><trkpt lat="38.86462993339113" lon="-9.299543550798894"><ele>162.0</ele><time>2026-03-29T12:36:19Z</time></trkpt><trkpt lat="38.86453967199645" lon="-9.299691754802698"><ele>162.0</ele><time>2026-03-29T12:36:20Z</time></trkpt><trkpt lat="38.864455630036936" lon="-9.299867491780745"><ele>162.0</ele><time>2026-03-29T12:36:21Z</time></trkpt><trkpt lat="38.86434252368932" lon="-9.3000294805259"><ele>162.0</ele><time>2026-03-29T12:36:22Z</time></trkpt><trkpt lat="38.864254224525105" lon="-9.300215389470697"><ele>162.0</ele><time>2026-03-29T12:36:23Z</time></trkpt><trkpt lat="38.8641727417049" lon="-9.300435845260207"><ele>162.0</ele><time>2026-03-29T12:36:24Z</time></trkpt><trkpt lat="38.86411660682183" lon="-9.300676157207429"><ele>161.33333333333334</ele><time>2026-03-29T12:36:25Z</time></trkpt><trkpt lat="38.86407893433652" lon="-9.300931709520642"><ele>160.66666666666669</ele><time>2026-03-29T12:36:26Z</time></trkpt><trkpt lat="38.864077593418415" lon="-9.301194131291082"><ele>160.0</ele><time>2026-03-29T12:36:27Z</time></trkpt><trkpt lat="38.86407591807673" lon="-9.301463713356938"><ele>159.0</ele><time>2026-03-29T12:36:28Z</time></trkpt><trkpt lat="38.86406249928448" lon="-9.301732550240265"><ele>158.0</ele><time>2026-03-29T12:36:29Z</time></trkpt><trkpt lat="38.864065677973194" lon="-9.301998131792152"><ele>157.0</ele><time>2026-03-29T12:36:30Z</time></trkpt><trkpt lat="38.86406693837075" lon="-9.302266316141921"><ele>156.66666666666669</ele><time>2026-03-29T12:36:31Z</time></trkpt><trkpt lat="38.864055930684074" lon="-9.302533116048254"><ele>156.33333333333334</ele><time>2026-03-29T12:36:32Z</time></trkpt><trkpt lat="38.86402961394864" lon="-9.302802523823662"><ele>156.0</ele><time>2026-03-29T12:36:33Z</time></trkpt><trkpt lat="38.863988105838736" lon="-9.303065734937231"><ele>155.66666666666666</ele><time>2026-03-29T12:36:34Z</time></trkpt><trkpt lat="38.86393341409175" lon="-9.303322501329388"><ele>155.33333333333331</ele><time>2026-03-29T12:36:35Z</time></trkpt><trkpt lat="38.863860718137055" lon="-9.303577598762205"><ele>155.0</ele><time>2026-03-29T12:36:36Z</time></trkpt><trkpt lat="38.86376939904769" lon="-9.303827958444348"><ele>154.66666666666666</ele><time>2026-03-29T12:36:37Z</time></trkpt><trkpt lat="38.863657183390146" lon="-9.304065637576183"><ele>154.33333333333334</ele><time>2026-03-29T12:36:38Z</time></trkpt><trkpt lat="38.86353508834559" lon="-9.304290418566337"><ele>154.0</ele><time>2026-03-29T12:36:39Z</time></trkpt><trkpt lat="38.86340535390664" lon="-9.304507548098092"><ele>154.0</ele><time>2026-03-29T12:36:40Z</time></trkpt><trkpt lat="38.86326545034372" lon="-9.304718231380228"><ele>154.0</ele><time>2026-03-29T12:36:41Z</time></trkpt><trkpt lat="38.86313480893771" lon="-9.304931761395538"><ele>154.0</ele><time>2026-03-29T12:36:42Z</time></trkpt><trkpt lat="38.863001295040824" lon="-9.305148957619494"><ele>153.66666666666669</ele><time>2026-03-29T12:36:43Z</time></trkpt><trkpt lat="38.862870401612014" lon="-9.305361416253012"><ele>153.33333333333334</ele><time>2026-03-29T12:36:44Z</time></trkpt><trkpt lat="38.86273952027405" lon="-9.305576695397729"><ele>153.0</ele><time>2026-03-29T12:36:45Z</time></trkpt><trkpt lat="38.86260683115355" lon="-9.305788827740928"><ele>153.0</ele><time>2026-03-29T12:36:46Z</time></trkpt><trkpt lat="38.86246808141015" lon="-9.306000632107477"><ele>153.0</ele><time>2026-03-29T12:36:47Z</time></trkpt><trkpt lat="38.86232265773076" lon="-9.306204869424047"><ele>153.0</ele><time>2026-03-29T12:36:48Z</time></trkpt><trkpt lat="38.86217808622863" lon="-9.306414935415543"><ele>153.33333333333334</ele><time>2026-03-29T12:36:49Z</time></trkpt><trkpt lat="38.862030579665614" lon="-9.306622159804713"><ele>153.66666666666669</ele><time>2026-03-29T12:36:50Z</time></trkpt><trkpt lat="38.86187805441544" lon="-9.306819176974885"><ele>154.0</ele><time>2026-03-29T12:36:51Z</time></trkpt><trkpt lat="38.86171381144135" lon="-9.307001453482139"><ele>154.0</ele><time>2026-03-29T12:36:52Z</time></trkpt><trkpt lat="38.86155281877422" lon="-9.30718699888155"><ele>154.0</ele><time>2026-03-29T12:36:53Z</time></trkpt><trkpt lat="38.86138950385991" lon="-9.307368192633684"><ele>154.0</ele><time>2026-03-29T12:36:54Z</time></trkpt><trkpt lat="38.86124032190436" lon="-9.307544913760633"><ele>154.0</ele><time>2026-03-29T12:36:55Z</time></trkpt><trkpt lat="38.86111007671243" lon="-9.30770476852509"><ele>154.0</ele><time>2026-03-29T12:36:56Z</time></trkpt><trkpt lat="38.86099565757692" lon="-9.307844179562387"><ele>154.0</ele><time>2026-03-29T12:36:57Z</time></trkpt><trkpt lat="38.860900561895065" lon="-9.307974806808343"><ele>154.6</ele><time>2026-03-29T12:36:58Z</time></trkpt><trkpt lat="38.86086879225127" lon="-9.308108692929787"><ele>155.2</ele><time>2026-03-29T12:36:59Z</time></trkpt><trkpt lat="38.860852061487684" lon="-9.308225870956853"><ele>155.79999999999998</ele><time>2026-03-29T12:37:00Z</time></trkpt><trkpt lat="38.86087864982667" lon="-9.308362541932198"><ele>156.4</ele><time>2026-03-29T12:37:01Z</time></trkpt><trkpt lat="38.86095794143651" lon="-9.308480925577312"><ele>157.0</ele><time>2026-03-29T12:37:02Z</time></trkpt><trkpt lat="38.86105800174677" lon="-9.30861539981442"><ele>157.33333333333334</ele><time>2026-03-29T12:37:03Z</time></trkpt><trkpt lat="38.86116697937009" lon="-9.308774175300043"><ele>157.66666666666666</ele><time>2026-03-29T12:37:04Z</time></trkpt><trkpt lat="38.86128391322357" lon="-9.308913020467683"><ele>158.0</ele><time>2026-03-29T12:37:05Z</time></trkpt><trkpt lat="38.86139438161071" lon="-9.309057387357239"><ele>161.0</ele><time>2026-03-29T12:37:06Z</time></trkpt><trkpt lat="38.86150555324103" lon="-9.30921786501522"><ele>164.0</ele><time>2026-03-29T12:37:07Z</time></trkpt><trkpt lat="38.861629780986426" lon="-9.309352904166985"><ele>167.0</ele><time>2026-03-29T12:37:08Z</time></trkpt><trkpt lat="38.86173561263223" lon="-9.3094807443188"><ele>168.0</ele><time>2026-03-29T12:37:09Z</time></trkpt><trkpt lat="38.8618060183228" lon="-9.309611988175202"><ele>169.0</ele><time>2026-03-29T12:37:10Z</time></trkpt><trkpt lat="38.861835730304776" lon="-9.309764652054586"><ele>170.0</ele><time>2026-03-29T12:37:11Z</time></trkpt><trkpt lat="38.86181711968471" lon="-9.309941912435637"><ele>171.0</ele><time>2026-03-29T12:37:12Z</time></trkpt><trkpt lat="38.86176469136464" lon="-9.310120480371712"><ele>171.0</ele><time>2026-03-29T12:37:13Z</time></trkpt><trkpt lat="38.86168563708686" lon="-9.31030582495235"><ele>171.0</ele><time>2026-03-29T12:37:14Z</time></trkpt><trkpt lat="38.86159086658847" lon="-9.310492165336228"><ele>171.0</ele><time>2026-03-29T12:37:15Z</time></trkpt><trkpt lat="38.86145502294595" lon="-9.310655022216789"><ele>170.0</ele><time>2026-03-29T12:37:16Z</time></trkpt><trkpt lat="38.8613009404776" lon="-9.31080936184728"><ele>169.0</ele><time>2026-03-29T12:37:17Z</time></trkpt><trkpt lat="38.86114863689608" lon="-9.31096463852207"><ele>168.0</ele><time>2026-03-29T12:37:18Z</time></trkpt><trkpt lat="38.8609905668722" lon="-9.311113173751036"><ele>166.33333333333334</ele><time>2026-03-29T12:37:19Z</time></trkpt><trkpt lat="38.860850450906746" lon="-9.311277360776309"><ele>164.66666666666669</ele><time>2026-03-29T12:37:20Z</time></trkpt><trkpt lat="38.86077499588943" lon="-9.311476871102636"><ele>163.0</ele><time>2026-03-29T12:37:21Z</time></trkpt><trkpt lat="38.86073973125807" lon="-9.311691790767268"><ele>163.0</ele><time>2026-03-29T12:37:22Z</time></trkpt><trkpt lat="38.86073635250194" lon="-9.31192982577608"><ele>163.0</ele><time>2026-03-29T12:37:23Z</time></trkpt><trkpt lat="38.86073402809628" lon="-9.312175341056625"><ele>163.0</ele><time>2026-03-29T12:37:24Z</time></trkpt><trkpt lat="38.860723124858204" lon="-9.31242643249708"><ele>162.66666666666669</ele><time>2026-03-29T12:37:25Z</time></trkpt><trkpt lat="38.860724092329775" lon="-9.312678221734375"><ele>162.33333333333334</ele><time>2026-03-29T12:37:26Z</time></trkpt><trkpt lat="38.860722609971845" lon="-9.312927902528058"><ele>162.0</ele><time>2026-03-29T12:37:27Z</time></trkpt><trkpt lat="38.86071899541557" lon="-9.31318193465172"><ele>162.33333333333334</ele><time>2026-03-29T12:37:28Z</time></trkpt><trkpt lat="38.860698352506" lon="-9.313431724308952"><ele>162.66666666666669</ele><time>2026-03-29T12:37:29Z</time></trkpt><trkpt lat="38.86067883696196" lon="-9.313668400740456"><ele>163.0</ele><time>2026-03-29T12:37:30Z</time></trkpt><trkpt lat="38.86064224081652" lon="-9.31391533992312"><ele>163.0</ele><time>2026-03-29T12:37:31Z</time></trkpt><trkpt lat="38.860591425126" lon="-9.314171742003833"><ele>163.0</ele><time>2026-03-29T12:37:32Z</time></trkpt><trkpt lat="38.860522901483684" lon="-9.314426722437187"><ele>163.0</ele><time>2026-03-29T12:37:33Z</time></trkpt><trkpt lat="38.860449891576636" lon="-9.314677460133842"><ele>162.66666666666669</ele><time>2026-03-29T12:37:34Z</time></trkpt><trkpt lat="38.86037967398708" lon="-9.314931446564017"><ele>162.33333333333334</ele><time>2026-03-29T12:37:35Z</time></trkpt><trkpt lat="38.860314654825764" lon="-9.31519149887685"><ele>162.0</ele><time>2026-03-29T12:37:36Z</time></trkpt><trkpt lat="38.86023927983895" lon="-9.315453656890593"><ele>160.0</ele><time>2026-03-29T12:37:37Z</time></trkpt><trkpt lat="38.86016341580763" lon="-9.315705264712527"><ele>158.0</ele><time>2026-03-29T12:37:38Z</time></trkpt><trkpt lat="38.8600962171286" lon="-9.315940709535539"><ele>156.0</ele><time>2026-03-29T12:37:39Z</time></trkpt><trkpt lat="38.860056592373624" lon="-9.316168895088943"><ele>156.0</ele><time>2026-03-29T12:37:40Z</time></trkpt><trkpt lat="38.86006337691609" lon="-9.316404924589412"><ele>156.0</ele><time>2026-03-29T12:37:41Z</time></trkpt><trkpt lat="38.86009179057483" lon="-9.316648516244324"><ele>156.0</ele><time>2026-03-29T12:37:42Z</time></trkpt><trkpt lat="38.86016981272865" lon="-9.31687481200898"><ele>156.0</ele><time>2026-03-29T12:37:43Z</time></trkpt><trkpt lat="38.86026318707547" lon="-9.317103375944063"><ele>156.0</ele><time>2026-03-29T12:37:44Z</time></trkpt><trkpt lat="38.860366079346946" lon="-9.317333235261588"><ele>156.0</ele><time>2026-03-29T12:37:45Z</time></trkpt><trkpt lat="38.86047127507016" lon="-9.317561734747"><ele>157.33333333333334</ele><time>2026-03-29T12:37:46Z</time></trkpt><trkpt lat="38.86056882771357" lon="-9.317803470171585"><ele>158.66666666666669</ele><time>2026-03-29T12:37:47Z</time></trkpt><trkpt lat="38.86067580278516" lon="-9.318030452871474"><ele>160.0</ele><time>2026-03-29T12:37:48Z</time></trkpt><trkpt lat="38.86077597484633" lon="-9.318263423166174"><ele>160.33333333333334</ele><time>2026-03-29T12:37:49Z</time></trkpt><trkpt lat="38.86086852675813" lon="-9.318500550248643"><ele>160.66666666666666</ele><time>2026-03-29T12:37:50Z</time></trkpt><trkpt lat="38.86095776458222" lon="-9.318736728095999"><ele>161.0</ele><time>2026-03-29T12:37:51Z</time></trkpt><trkpt lat="38.86102556776474" lon="-9.318960313208791"><ele>164.0</ele><time>2026-03-29T12:37:52Z</time></trkpt><trkpt lat="38.86106138993343" lon="-9.319191161562788"><ele>167.0</ele><time>2026-03-29T12:37:53Z</time></trkpt><trkpt lat="38.86106513661274" lon="-9.319415083157734"><ele>170.0</ele><time>2026-03-29T12:37:54Z</time></trkpt><trkpt lat="38.861026644937375" lon="-9.319625386321913"><ele>169.0</ele><time>2026-03-29T12:37:55Z</time></trkpt><trkpt lat="38.860952770609664" lon="-9.319836741119486"><ele>168.0</ele><time>2026-03-29T12:37:56Z</time></trkpt><trkpt lat="38.86085025014763" lon="-9.32004010143497"><ele>167.0</ele><time>2026-03-29T12:37:57Z</time></trkpt><trkpt lat="38.860747771719474" lon="-9.320246527462073"><ele>167.0</ele><time>2026-03-29T12:37:58Z</time></trkpt><trkpt lat="38.86065357837796" lon="-9.320465635177005"><ele>167.0</ele><time>2026-03-29T12:37:59Z</time></trkpt><trkpt lat="38.860560569697135" lon="-9.320689277470537"><ele>167.0</ele><time>2026-03-29T12:38:00Z</time></trkpt><trkpt lat="38.860470187928904" lon="-9.320924082766814"><ele>167.33333333333331</ele><time>2026-03-29T12:38:01Z</time></trkpt><trkpt lat="38.86039240823394" lon="-9.32116949037676"><ele>167.66666666666666</ele><time>2026-03-29T12:38:02Z</time></trkpt><trkpt lat="38.86030699266086" lon="-9.321413396944223"><ele>168.0</ele><time>2026-03-29T12:38:03Z</time></trkpt><trkpt lat="38.86022469021749" lon="-9.321663051545098"><ele>168.0</ele><time>2026-03-29T12:38:04Z</time></trkpt><trkpt lat="38.86013892260105" lon="-9.321909831692164"><ele>168.0</ele><time>2026-03-29T12:38:05Z</time></trkpt><trkpt lat="38.8600607596583" lon="-9.322122794271992"><ele>168.0</ele><time>2026-03-29T12:38:06Z</time></trkpt><trkpt lat="38.85999153064661" lon="-9.322310829988982"><ele>167.5</ele><time>2026-03-29T12:38:07Z</time></trkpt><trkpt lat="38.859931887988395" lon="-9.322488472472516"><ele>167.0</ele><time>2026-03-29T12:38:08Z</time></trkpt><trkpt lat="38.85987815030946" lon="-9.322648898827481"><ele>166.5</ele><time>2026-03-29T12:38:09Z</time></trkpt><trkpt lat="38.859816762219914" lon="-9.32279629971476"><ele>166.0</ele><time>2026-03-29T12:38:10Z</time></trkpt><trkpt lat="38.85976406306452" lon="-9.32292625821383"><ele>166.0</ele><time>2026-03-29T12:38:11Z</time></trkpt><trkpt lat="38.85971666670308" lon="-9.323059698427954"><ele>166.0</ele><time>2026-03-29T12:38:12Z</time></trkpt><trkpt lat="38.85966962191974" lon="-9.32318341344425"><ele>166.0</ele><time>2026-03-29T12:38:13Z</time></trkpt><trkpt lat="38.85962355498273" lon="-9.323303489695773"><ele>166.0</ele><time>2026-03-29T12:38:14Z</time></trkpt><trkpt lat="38.859580681532925" lon="-9.323428914685808"><ele>166.0</ele><time>2026-03-29T12:38:15Z</time></trkpt><trkpt lat="38.85954638851035" lon="-9.32354417958369"><ele>166.5</ele><time>2026-03-29T12:38:16Z</time></trkpt><trkpt lat="38.85956329386269" lon="-9.32362750483893"><ele>167.0</ele><time>2026-03-29T12:38:19Z</time></trkpt><trkpt lat="38.85950003900503" lon="-9.32363048843111"><ele>167.5</ele><time>2026-03-29T12:39:21Z</time></trkpt><trkpt lat="38.85948304488704" lon="-9.32370963891613"><ele>168.0</ele><time>2026-03-29T12:39:22Z</time></trkpt><trkpt lat="38.85945990132747" lon="-9.323813069792559"><ele>168.5</ele><time>2026-03-29T12:39:23Z</time></trkpt><trkpt lat="38.85943280742835" lon="-9.323938243387921"><ele>169.0</ele><time>2026-03-29T12:39:24Z</time></trkpt><trkpt lat="38.85939241583999" lon="-9.324074716725107"><ele>167.75</ele><time>2026-03-29T12:39:25Z</time></trkpt><trkpt lat="38.859331349276395" lon="-9.32420754122282"><ele>166.5</ele><time>2026-03-29T12:39:26Z</time></trkpt><trkpt lat="38.859247085487354" lon="-9.324321817525469"><ele>165.25</ele><time>2026-03-29T12:39:27Z</time></trkpt><trkpt lat="38.859138667285954" lon="-9.324422406373841"><ele>164.0</ele><time>2026-03-29T12:39:28Z</time></trkpt><trkpt lat="38.85899761142511" lon="-9.324514155336429"><ele>164.0</ele><time>2026-03-29T12:39:29Z</time></trkpt><trkpt lat="38.85884905318211" lon="-9.324611982646477"><ele>164.0</ele><time>2026-03-29T12:39:30Z</time></trkpt><trkpt lat="38.858699288770495" lon="-9.324715820328485"><ele>164.0</ele><time>2026-03-29T12:39:31Z</time></trkpt><trkpt lat="38.85856337362954" lon="-9.324812786168243"><ele>162.75</ele><time>2026-03-29T12:39:32Z</time></trkpt><trkpt lat="38.85844044174965" lon="-9.324903364805325"><ele>161.5</ele><time>2026-03-29T12:39:33Z</time></trkpt><trkpt lat="38.85833199763359" lon="-9.324998849365313"><ele>160.25</ele><time>2026-03-29T12:39:34Z</time></trkpt><trkpt lat="38.858231031808444" lon="-9.325090110154994"><ele>159.0</ele><time>2026-03-29T12:39:35Z</time></trkpt><trkpt lat="38.85812920951738" lon="-9.32518201497564"><ele>159.0</ele><time>2026-03-29T12:39:36Z</time></trkpt><trkpt lat="38.85803549458708" lon="-9.325260499380887"><ele>159.0</ele><time>2026-03-29T12:39:37Z</time></trkpt><trkpt lat="38.85795161363321" lon="-9.325330006843155"><ele>159.0</ele><time>2026-03-29T12:39:38Z</time></trkpt><trkpt lat="38.85787491135126" lon="-9.32539337370462"><ele>159.0</ele><time>2026-03-29T12:39:39Z</time></trkpt><trkpt lat="38.8577962829339" lon="-9.32545886250575"><ele>159.0</ele><time>2026-03-29T12:39:40Z</time></trkpt><trkpt lat="38.857723115249804" lon="-9.325510112100504"><ele>159.0</ele><time>2026-03-29T12:39:41Z</time></trkpt><trkpt lat="38.85764987732019" lon="-9.325552428325752"><ele>159.0</ele><time>2026-03-29T12:39:42Z</time></trkpt><trkpt lat="38.85758189451617" lon="-9.3255930177593"><ele>159.0</ele><time>2026-03-29T12:39:43Z</time></trkpt><trkpt lat="38.8575336001649" lon="-9.32564657022241"><ele>159.0</ele><time>2026-03-29T12:39:44Z</time></trkpt><trkpt lat="38.85745389348818" lon="-9.325698910920183"><ele>159.0</ele><time>2026-03-29T12:39:46Z</time></trkpt><trkpt lat="38.857366889783066" lon="-9.325737224024357"><ele>159.0</ele><time>2026-03-29T12:39:49Z</time></trkpt><trkpt lat="38.85729874492738" lon="-9.325801526273224"><ele>158.2</ele><time>2026-03-29T12:39:52Z</time></trkpt><trkpt lat="38.857312505358394" lon="-9.325912845819284"><ele>157.4</ele><time>2026-03-29T12:39:56Z</time></trkpt><trkpt lat="38.85739545764818" lon="-9.325953627983386"><ele>156.6</ele><time>2026-03-29T12:39:58Z</time></trkpt><trkpt lat="38.85747876726231" lon="-9.325956829634636"><ele>155.8</ele><time>2026-03-29T12:39:59Z</time></trkpt><trkpt lat="38.857566198721834" lon="-9.32596613052297"><ele>155.0</ele><time>2026-03-29T12:40:00Z</time></trkpt><trkpt lat="38.8576742288048" lon="-9.325987023234369"><ele>154.0</ele><time>2026-03-29T12:40:01Z</time></trkpt><trkpt lat="38.85780468641848" lon="-9.325995622055226"><ele>153.0</ele><time>2026-03-29T12:40:02Z</time></trkpt><trkpt lat="38.85793125630594" lon="-9.326013077660798"><ele>152.0</ele><time>2026-03-29T12:40:03Z</time></trkpt><trkpt lat="38.85807595634042" lon="-9.32604090651252"><ele>151.0</ele><time>2026-03-29T12:40:04Z</time></trkpt><trkpt lat="38.85822587001231" lon="-9.326068672492841"><ele>151.0</ele><time>2026-03-29T12:40:05Z</time></trkpt><trkpt lat="38.85838461556732" lon="-9.326090129644635"><ele>151.0</ele><time>2026-03-29T12:40:06Z</time></trkpt><trkpt lat="38.858544225380875" lon="-9.32612107023508"><ele>151.0</ele><time>2026-03-29T12:40:07Z</time></trkpt><trkpt lat="38.85868721020438" lon="-9.326144073486054"><ele>151.0</ele><time>2026-03-29T12:40:08Z</time></trkpt><trkpt lat="38.85882597768504" lon="-9.326165885234321"><ele>151.0</ele><time>2026-03-29T12:40:09Z</time></trkpt><trkpt lat="38.858949723627276" lon="-9.326182961602356"><ele>151.0</ele><time>2026-03-29T12:40:10Z</time></trkpt><trkpt lat="38.85904174965235" lon="-9.326202893001787"><ele>151.0</ele><time>2026-03-29T12:40:11Z</time></trkpt><trkpt lat="38.85911076726399" lon="-9.326202807481584"><ele>151.0</ele><time>2026-03-29T12:40:12Z</time></trkpt><trkpt lat="38.85918166234379" lon="-9.32611502393737"><ele>151.0</ele><time>2026-03-29T12:40:14Z</time></trkpt><trkpt lat="38.859224284734125" lon="-9.326050159228588"><ele>151.0</ele><time>2026-03-29T12:40:15Z</time></trkpt><trkpt lat="38.85924604842583" lon="-9.32616723840626"><ele>151.0</ele><time>2026-03-29T12:40:16Z</time></trkpt><trkpt lat="38.85928664907015" lon="-9.32607420482932"><ele>151.0</ele><time>2026-03-29T12:40:17Z</time></trkpt><trkpt lat="38.859332410185694" lon="-9.32599106068469"><ele>151.0</ele><time>2026-03-29T12:40:18Z</time></trkpt><trkpt lat="38.85931971151906" lon="-9.325895354912161"><ele>151.0</ele><time>2026-03-29T12:42:21Z</time></trkpt><trkpt lat="38.85932597119111" lon="-9.325602083780657"><ele>151.5</ele><time>2026-03-29T12:42:24Z</time></trkpt><trkpt lat="38.859286500909306" lon="-9.325390791732064"><ele>152.0</ele><time>2026-03-29T12:42:26Z</time></trkpt><trkpt lat="38.859243810292" lon="-9.325246724758182"><ele>152.5</ele><time>2026-03-29T12:42:28Z</time></trkpt><trkpt lat="38.85922850314057" lon="-9.32513108468973"><ele>153.0</ele><time>2026-03-29T12:42:29Z</time></trkpt><trkpt lat="38.85924735029674" lon="-9.324944475207687"><ele>153.0</ele><time>2026-03-29T12:42:31Z</time></trkpt><trkpt lat="38.85926573668591" lon="-9.325032905374758"><ele>153.0</ele><time>2026-03-29T12:42:35Z</time></trkpt><trkpt lat="38.85928625689628" lon="-9.325139433687191"><ele>153.0</ele><time>2026-03-29T12:42:38Z</time></trkpt><trkpt lat="38.859287262937876" lon="-9.325231183087253"><ele>153.0</ele><time>2026-03-29T12:42:41Z</time></trkpt><trkpt lat="38.85932821613035" lon="-9.325309465967534"><ele>153.0</ele><time>2026-03-29T12:42:49Z</time></trkpt><trkpt lat="38.85934602270934" lon="-9.325395231340549"><ele>153.0</ele><time>2026-03-29T12:42:54Z</time></trkpt><trkpt lat="38.859356658928455" lon="-9.325501704875819"><ele>153.0</ele><time>2026-03-29T12:42:58Z</time></trkpt><trkpt lat="38.85936999342761" lon="-9.325609221581416"><ele>153.0</ele><time>2026-03-29T12:43:00Z</time></trkpt><trkpt lat="38.859363874261206" lon="-9.325730340225192"><ele>153.0</ele><time>2026-03-29T12:43:03Z</time></trkpt><trkpt lat="38.85933923081133" lon="-9.32582273800152"><ele>153.0</ele><time>2026-03-29T12:43:05Z</time></trkpt><trkpt lat="38.85930940011342" lon="-9.32591896497209"><ele>153.0</ele><time>2026-03-29T12:43:08Z</time></trkpt><trkpt lat="38.859381610695415" lon="-9.325967261558786"><ele>153.0</ele><time>2026-03-29T12:43:15Z</time></trkpt><trkpt lat="38.859408002300945" lon="-9.326152838549383"><ele>153.0</ele><time>2026-03-29T12:43:17Z</time></trkpt><trkpt lat="38.85945355193462" lon="-9.326273018212442"><ele>153.0</ele><time>2026-03-29T12:43:19Z</time></trkpt><trkpt lat="38.859619493302695" lon="-9.32624172728836"><ele>153.0</ele><time>2026-03-29T12:43:36Z</time></trkpt><trkpt lat="38.85971720781381" lon="-9.326318639006038"><ele>153.0</ele><time>2026-03-29T12:44:53Z</time></trkpt><trkpt lat="38.85982448554329" lon="-9.326334412137859"><ele>153.0</ele><time>2026-03-29T12:44:54Z</time></trkpt><trkpt lat="38.85993543403835" lon="-9.326356063038281"><ele>153.0</ele><time>2026-03-29T12:44:55Z</time></trkpt><trkpt lat="38.86004855578348" lon="-9.326376882564889"><ele>153.0</ele><time>2026-03-29T12:44:56Z</time></trkpt><trkpt lat="38.8601501706133" lon="-9.326389323665442"><ele>153.0</ele><time>2026-03-29T12:44:57Z</time></trkpt><trkpt lat="38.86025445469978" lon="-9.326398645153839"><ele>153.0</ele><time>2026-03-29T12:44:58Z</time></trkpt><trkpt lat="38.86035379759094" lon="-9.326422790082452"><ele>153.6</ele><time>2026-03-29T12:44:59Z</time></trkpt><trkpt lat="38.86046208413719" lon="-9.326442112905157"><ele>154.20000000000002</ele><time>2026-03-29T12:45:00Z</time></trkpt><trkpt lat="38.86056182034339" lon="-9.326468322108044"><ele>154.8</ele><time>2026-03-29T12:45:01Z</time></trkpt><trkpt lat="38.86068016743227" lon="-9.326479704758537"><ele>155.4</ele><time>2026-03-29T12:45:02Z</time></trkpt><trkpt lat="38.86079217714503" lon="-9.326492855081064"><ele>156.0</ele><time>2026-03-29T12:45:03Z</time></trkpt><trkpt lat="38.86089607195332" lon="-9.32650656425424"><ele>156.0</ele><time>2026-03-29T12:45:04Z</time></trkpt><trkpt lat="38.86100105018966" lon="-9.326521561827137"><ele>156.0</ele><time>2026-03-29T12:45:05Z</time></trkpt><trkpt lat="38.86110794942379" lon="-9.326540747160124"><ele>156.0</ele><time>2026-03-29T12:45:06Z</time></trkpt><trkpt lat="38.86121393024201" lon="-9.326559435423787"><ele>156.0</ele><time>2026-03-29T12:45:07Z</time></trkpt><trkpt lat="38.86131758569404" lon="-9.32657105884655"><ele>156.0</ele><time>2026-03-29T12:45:08Z</time></trkpt><trkpt lat="38.861425787705166" lon="-9.326582978360785"><ele>156.0</ele><time>2026-03-29T12:45:09Z</time></trkpt><trkpt lat="38.861535149549695" lon="-9.326608221128604"><ele>156.0</ele><time>2026-03-29T12:45:10Z</time></trkpt><trkpt lat="38.86164407937327" lon="-9.326629859052332"><ele>156.0</ele><time>2026-03-29T12:45:11Z</time></trkpt><trkpt lat="38.86175713787262" lon="-9.326645433639237"><ele>156.0</ele><time>2026-03-29T12:45:12Z</time></trkpt><trkpt lat="38.86187094177714" lon="-9.32666451664635"><ele>156.6</ele><time>2026-03-29T12:45:13Z</time></trkpt><trkpt lat="38.861982801688946" lon="-9.326683281072457"><ele>157.2</ele><time>2026-03-29T12:45:14Z</time></trkpt><trkpt lat="38.862095179295494" lon="-9.326704504732099"><ele>157.8</ele><time>2026-03-29T12:45:15Z</time></trkpt><trkpt lat="38.86220483473038" lon="-9.326727603299622"><ele>158.4</ele><time>2026-03-29T12:45:16Z</time></trkpt><trkpt lat="38.86231231055952" lon="-9.326753320650477"><ele>159.0</ele><time>2026-03-29T12:45:17Z</time></trkpt><trkpt lat="38.86242115948919" lon="-9.326772099115372"><ele>159.0</ele><time>2026-03-29T12:45:18Z</time></trkpt><trkpt lat="38.862526486093124" lon="-9.326796910525998"><ele>159.0</ele><time>2026-03-29T12:45:19Z</time></trkpt><trkpt lat="38.86264085122377" lon="-9.32681783403851"><ele>159.0</ele><time>2026-03-29T12:45:20Z</time></trkpt><trkpt lat="38.86274804707474" lon="-9.326844983430336"><ele>159.0</ele><time>2026-03-29T12:45:21Z</time></trkpt><trkpt lat="38.862856981208466" lon="-9.326866189451838"><ele>159.0</ele><time>2026-03-29T12:45:22Z</time></trkpt><trkpt lat="38.86296422598174" lon="-9.32688338039253"><ele>159.33333333333334</ele><time>2026-03-29T12:45:23Z</time></trkpt><trkpt lat="38.8630645339594" lon="-9.326896700285102"><ele>159.66666666666666</ele><time>2026-03-29T12:45:24Z</time></trkpt><trkpt lat="38.86315054559594" lon="-9.32691194610289"><ele>160.0</ele><time>2026-03-29T12:45:25Z</time></trkpt><trkpt lat="38.86321440395899" lon="-9.326920854335114"><ele>160.33333333333331</ele><time>2026-03-29T12:45:26Z</time></trkpt><trkpt lat="38.863320167377964" lon="-9.32695481783939"><ele>160.66666666666666</ele><time>2026-03-29T12:45:41Z</time></trkpt><trkpt lat="38.86338809360825" lon="-9.32696444332264"><ele>161.0</ele><time>2026-03-29T12:45:42Z</time></trkpt><trkpt lat="38.86346373260201" lon="-9.326976735776162"><ele>161.66666666666666</ele><time>2026-03-29T12:45:43Z</time></trkpt><trkpt lat="38.86354116359677" lon="-9.326992719537492"><ele>162.33333333333334</ele><time>2026-03-29T12:45:44Z</time></trkpt><trkpt lat="38.863520235626765" lon="-9.327321013403402"><ele>163.0</ele><time>2026-03-29T12:45:47Z</time></trkpt><trkpt lat="38.863435048572434" lon="-9.327451907683736"><ele>163.0</ele><time>2026-03-29T12:45:48Z</time></trkpt><trkpt lat="38.86334032158142" lon="-9.327595066875052"><ele>163.0</ele><time>2026-03-29T12:45:49Z</time></trkpt><trkpt lat="38.863234763972194" lon="-9.327744594205713"><ele>163.0</ele><time>2026-03-29T12:45:50Z</time></trkpt><trkpt lat="38.86312879129124" lon="-9.32789257892162"><ele>163.0</ele><time>2026-03-29T12:45:51Z</time></trkpt><trkpt lat="38.86303778843357" lon="-9.328028092382716"><ele>163.0</ele><time>2026-03-29T12:45:52Z</time></trkpt><trkpt lat="38.86295718367414" lon="-9.328152737696138"><ele>163.0</ele><time>2026-03-29T12:45:53Z</time></trkpt><trkpt lat="38.86288253676624" lon="-9.328273582704686"><ele>163.0</ele><time>2026-03-29T12:45:54Z</time></trkpt><trkpt lat="38.86279851604232" lon="-9.328386622707441"><ele>162.60000000000002</ele><time>2026-03-29T12:45:55Z</time></trkpt><trkpt lat="38.86274018088146" lon="-9.328508118432461"><ele>162.20000000000002</ele><time>2026-03-29T12:45:56Z</time></trkpt><trkpt lat="38.86267964819687" lon="-9.32861307080013"><ele>161.8</ele><time>2026-03-29T12:45:57Z</time></trkpt><trkpt lat="38.86260707983848" lon="-9.328721494773003"><ele>161.4</ele><time>2026-03-29T12:45:58Z</time></trkpt><trkpt lat="38.86254567191442" lon="-9.328846090612936"><ele>161.0</ele><time>2026-03-29T12:45:59Z</time></trkpt><trkpt lat="38.862478869095916" lon="-9.328975312311806"><ele>161.0</ele><time>2026-03-29T12:46:00Z</time></trkpt><trkpt lat="38.862422969498894" lon="-9.329109054572397"><ele>161.0</ele><time>2026-03-29T12:46:01Z</time></trkpt><trkpt lat="38.86234211798179" lon="-9.32924830334732"><ele>161.0</ele><time>2026-03-29T12:46:02Z</time></trkpt><trkpt lat="38.86226776666633" lon="-9.329409974207062"><ele>161.0</ele><time>2026-03-29T12:46:03Z</time></trkpt><trkpt lat="38.86216347341351" lon="-9.329580865854812"><ele>162.33333333333331</ele><time>2026-03-29T12:46:04Z</time></trkpt><trkpt lat="38.86207009556293" lon="-9.329777416325825"><ele>163.66666666666666</ele><time>2026-03-29T12:46:05Z</time></trkpt><trkpt lat="38.861984267157126" lon="-9.32998660513344"><ele>165.0</ele><time>2026-03-29T12:46:06Z</time></trkpt><trkpt lat="38.86189384441965" lon="-9.33019558594066"><ele>165.0</ele><time>2026-03-29T12:46:07Z</time></trkpt><trkpt lat="38.861821708913695" lon="-9.33039164823335"><ele>165.0</ele><time>2026-03-29T12:46:08Z</time></trkpt><trkpt lat="38.86175052244465" lon="-9.33055043333339"><ele>165.0</ele><time>2026-03-29T12:46:09Z</time></trkpt><trkpt lat="38.861688686887675" lon="-9.330703256526741"><ele>165.0</ele><time>2026-03-29T12:46:10Z</time></trkpt><trkpt lat="38.861635666949574" lon="-9.33084581979656"><ele>164.6</ele><time>2026-03-29T12:46:11Z</time></trkpt><trkpt lat="38.86161191939087" lon="-9.330997370685427"><ele>164.2</ele><time>2026-03-29T12:46:12Z</time></trkpt><trkpt lat="38.86159206308825" lon="-9.331131741813786"><ele>163.8</ele><time>2026-03-29T12:46:13Z</time></trkpt><trkpt lat="38.861571020735" lon="-9.331266079054291"><ele>163.4</ele><time>2026-03-29T12:46:14Z</time></trkpt><trkpt lat="38.86152796852015" lon="-9.33140019563045"><ele>163.0</ele><time>2026-03-29T12:46:15Z</time></trkpt><trkpt lat="38.8614924489482" lon="-9.331559314545817"><ele>163.0</ele><time>2026-03-29T12:46:16Z</time></trkpt><trkpt lat="38.861465234791304" lon="-9.33171487861651"><ele>163.0</ele><time>2026-03-29T12:46:17Z</time></trkpt><trkpt lat="38.861438627611385" lon="-9.33184615246999"><ele>163.0</ele><time>2026-03-29T12:46:18Z</time></trkpt><trkpt lat="38.8614081806185" lon="-9.331965598136332"><ele>163.0</ele><time>2026-03-29T12:46:19Z</time></trkpt><trkpt lat="38.86137025047991" lon="-9.332102865474836"><ele>163.0</ele><time>2026-03-29T12:46:20Z</time></trkpt><trkpt lat="38.86133449726521" lon="-9.332228052694196"><ele>162.66666666666669</ele><time>2026-03-29T12:46:21Z</time></trkpt><trkpt lat="38.861309609329346" lon="-9.332339615358014"><ele>162.33333333333334</ele><time>2026-03-29T12:46:22Z</time></trkpt><trkpt lat="38.86128397294203" lon="-9.332440871375983"><ele>162.0</ele><time>2026-03-29T12:46:23Z</time></trkpt><trkpt lat="38.86128459617247" lon="-9.332563470060654"><ele>161.66666666666666</ele><time>2026-03-29T12:46:25Z</time></trkpt><trkpt lat="38.86134720832633" lon="-9.332686069388021"><ele>161.33333333333331</ele><time>2026-03-29T12:46:27Z</time></trkpt><trkpt lat="38.86137767292365" lon="-9.332759399212227"><ele>161.0</ele><time>2026-03-29T12:46:28Z</time></trkpt><trkpt lat="38.861403630930006" lon="-9.332851214469235"><ele>161.0</ele><time>2026-03-29T12:46:29Z</time></trkpt><trkpt lat="38.861434700374126" lon="-9.332947984827552"><ele>161.0</ele><time>2026-03-29T12:46:30Z</time></trkpt><trkpt lat="38.86147996275669" lon="-9.333052812080712"><ele>161.0</ele><time>2026-03-29T12:46:31Z</time></trkpt><trkpt lat="38.861527251218135" lon="-9.333149693672297"><ele>161.0</ele><time>2026-03-29T12:46:32Z</time></trkpt><trkpt lat="38.86155353922658" lon="-9.33324317559533"><ele>161.0</ele><time>2026-03-29T12:46:33Z</time></trkpt><trkpt lat="38.86163024493176" lon="-9.333281086747125"><ele>161.0</ele><time>2026-03-29T12:46:34Z</time></trkpt><trkpt lat="38.86170736106741" lon="-9.333319567933215"><ele>158.5</ele><time>2026-03-29T12:46:35Z</time></trkpt><trkpt lat="38.86182132361378" lon="-9.33334557897506"><ele>156.0</ele><time>2026-03-29T12:46:36Z</time></trkpt><trkpt lat="38.86191768662009" lon="-9.333420247286027"><ele>153.5</ele><time>2026-03-29T12:46:37Z</time></trkpt><trkpt lat="38.8620182070173" lon="-9.333507233758267"><ele>151.0</ele><time>2026-03-29T12:46:38Z</time></trkpt><trkpt lat="38.86213874772778" lon="-9.333653554085181"><ele>151.0</ele><time>2026-03-29T12:46:39Z</time></trkpt><trkpt lat="38.86225051392689" lon="-9.333798469203408"><ele>151.0</ele><time>2026-03-29T12:46:40Z</time></trkpt><trkpt lat="38.86235599645623" lon="-9.333980454733616"><ele>151.0</ele><time>2026-03-29T12:46:41Z</time></trkpt><trkpt lat="38.862471726156954" lon="-9.334171725656038"><ele>150.0</ele><time>2026-03-29T12:46:42Z</time></trkpt><trkpt lat="38.86257083999018" lon="-9.33437921505923"><ele>149.0</ele><time>2026-03-29T12:46:43Z</time></trkpt><trkpt lat="38.86269333688868" lon="-9.334590850377069"><ele>148.0</ele><time>2026-03-29T12:46:44Z</time></trkpt><trkpt lat="38.86281082591375" lon="-9.33481242655695"><ele>145.66666666666669</ele><time>2026-03-29T12:46:45Z</time></trkpt><trkpt lat="38.86294817809207" lon="-9.335036410257608"><ele>143.33333333333334</ele><time>2026-03-29T12:46:46Z</time></trkpt><trkpt lat="38.86308517491899" lon="-9.335268340294501"><ele>141.0</ele><time>2026-03-29T12:46:47Z</time></trkpt><trkpt lat="38.86322481573842" lon="-9.335487718843074"><ele>140.0</ele><time>2026-03-29T12:46:48Z</time></trkpt><trkpt lat="38.86336309840513" lon="-9.335716097044555"><ele>139.0</ele><time>2026-03-29T12:46:49Z</time></trkpt><trkpt lat="38.86349560438001" lon="-9.335951280941105"><ele>138.66666666666669</ele><time>2026-03-29T12:46:50Z</time></trkpt><trkpt lat="38.86363264658764" lon="-9.336179351559027"><ele>138.33333333333334</ele><time>2026-03-29T12:46:51Z</time></trkpt><trkpt lat="38.86376173999329" lon="-9.336412022949942"><ele>138.0</ele><time>2026-03-29T12:46:52Z</time></trkpt><trkpt lat="38.863901438964575" lon="-9.336640728571213"><ele>137.66666666666666</ele><time>2026-03-29T12:46:53Z</time></trkpt><trkpt lat="38.863982029806394" lon="-9.336885374698273"><ele>137.33333333333331</ele><time>2026-03-29T12:46:54Z</time></trkpt><trkpt lat="38.86408975791331" lon="-9.337119944362188"><ele>137.0</ele><time>2026-03-29T12:46:55Z</time></trkpt><trkpt lat="38.86418332145234" lon="-9.337321641747538"><ele>137.0</ele><time>2026-03-29T12:46:56Z</time></trkpt><trkpt lat="38.86425825057529" lon="-9.337503990436115"><ele>137.0</ele><time>2026-03-29T12:46:57Z</time></trkpt><trkpt lat="38.86432705594358" lon="-9.337671545298859"><ele>137.0</ele><time>2026-03-29T12:46:58Z</time></trkpt><trkpt lat="38.86439561308197" lon="-9.337823712729502"><ele>137.0</ele><time>2026-03-29T12:46:59Z</time></trkpt><trkpt lat="38.8644521744268" lon="-9.33796582287255"><ele>138.75</ele><time>2026-03-29T12:47:00Z</time></trkpt><trkpt lat="38.864501256751666" lon="-9.338110459933946"><ele>140.5</ele><time>2026-03-29T12:47:01Z</time></trkpt><trkpt lat="38.86453927039826" lon="-9.33827132047988"><ele>142.25</ele><time>2026-03-29T12:47:02Z</time></trkpt><trkpt lat="38.86456194827646" lon="-9.338443315562802"><ele>144.0</ele><time>2026-03-29T12:47:03Z</time></trkpt><trkpt lat="38.86456843802846" lon="-9.338616897918213"><ele>144.0</ele><time>2026-03-29T12:47:04Z</time></trkpt><trkpt lat="38.8645717550747" lon="-9.338792769181083"><ele>144.0</ele><time>2026-03-29T12:47:05Z</time></trkpt><trkpt lat="38.864565246059875" lon="-9.338967436543143"><ele>144.0</ele><time>2026-03-29T12:47:06Z</time></trkpt><trkpt lat="38.86453800992368" lon="-9.339133932771086"><ele>144.0</ele><time>2026-03-29T12:47:07Z</time></trkpt><trkpt lat="38.86449649540079" lon="-9.339295239519194"><ele>144.0</ele><time>2026-03-29T12:47:08Z</time></trkpt><trkpt lat="38.86444909862698" lon="-9.33945497629733"><ele>144.0</ele><time>2026-03-29T12:47:09Z</time></trkpt><trkpt lat="38.86440038365911" lon="-9.339616319530043"><ele>144.0</ele><time>2026-03-29T12:47:10Z</time></trkpt><trkpt lat="38.86433043196459" lon="-9.339761060940027"><ele>144.0</ele><time>2026-03-29T12:47:11Z</time></trkpt><trkpt lat="38.86424437676421" lon="-9.339890254099862"><ele>144.0</ele><time>2026-03-29T12:47:12Z</time></trkpt><trkpt lat="38.86415900518889" lon="-9.340016767107024"><ele>144.0</ele><time>2026-03-29T12:47:13Z</time></trkpt><trkpt lat="38.86407080705203" lon="-9.340140639182376"><ele>144.0</ele><time>2026-03-29T12:47:14Z</time></trkpt><trkpt lat="38.86399237607215" lon="-9.340263456750543"><ele>144.0</ele><time>2026-03-29T12:47:15Z</time></trkpt><trkpt lat="38.86390366038804" lon="-9.34037553918998"><ele>144.0</ele><time>2026-03-29T12:47:16Z</time></trkpt><trkpt lat="38.86381085512014" lon="-9.340484520518586"><ele>144.0</ele><time>2026-03-29T12:47:17Z</time></trkpt><trkpt lat="38.86372889728133" lon="-9.340613069869377"><ele>144.0</ele><time>2026-03-29T12:47:18Z</time></trkpt><trkpt lat="38.863643414817695" lon="-9.340734447187183"><ele>144.0</ele><time>2026-03-29T12:47:19Z</time></trkpt><trkpt lat="38.863557520435535" lon="-9.340856409407504"><ele>143.5</ele><time>2026-03-29T12:47:20Z</time></trkpt><trkpt lat="38.86346390724902" lon="-9.340957015524445"><ele>143.0</ele><time>2026-03-29T12:47:21Z</time></trkpt><trkpt lat="38.863389075722175" lon="-9.34107734241204"><ele>142.5</ele><time>2026-03-29T12:47:22Z</time></trkpt><trkpt lat="38.86331479095627" lon="-9.341189473706969"><ele>142.0</ele><time>2026-03-29T12:47:23Z</time></trkpt><trkpt lat="38.86323016906482" lon="-9.341286788220861"><ele>142.0</ele><time>2026-03-29T12:47:24Z</time></trkpt><trkpt lat="38.86314176077945" lon="-9.341376153496828"><ele>142.0</ele><time>2026-03-29T12:47:25Z</time></trkpt><trkpt lat="38.86305545881875" lon="-9.341467818264773"><ele>142.0</ele><time>2026-03-29T12:47:26Z</time></trkpt><trkpt lat="38.8629670524362" lon="-9.341550492430278"><ele>142.0</ele><time>2026-03-29T12:47:27Z</time></trkpt><trkpt lat="38.86284132907697" lon="-9.341635950537764"><ele>141.75</ele><time>2026-03-29T12:47:28Z</time></trkpt><trkpt lat="38.862705703649" lon="-9.341756504819205"><ele>141.5</ele><time>2026-03-29T12:47:29Z</time></trkpt><trkpt lat="38.862571911942894" lon="-9.34184086652199"><ele>141.25</ele><time>2026-03-29T12:47:30Z</time></trkpt><trkpt lat="38.8624462032189" lon="-9.341882596795417"><ele>141.0</ele><time>2026-03-29T12:47:31Z</time></trkpt><trkpt lat="38.86231000350341" lon="-9.341920397793414"><ele>141.0</ele><time>2026-03-29T12:47:32Z</time></trkpt><trkpt lat="38.86215194793334" lon="-9.34199041369866"><ele>141.0</ele><time>2026-03-29T12:47:33Z</time></trkpt><trkpt lat="38.86196853754377" lon="-9.342040392187931"><ele>141.0</ele><time>2026-03-29T12:47:34Z</time></trkpt><trkpt lat="38.86176335995614" lon="-9.34205768252898"><ele>140.0</ele><time>2026-03-29T12:47:35Z</time></trkpt><trkpt lat="38.86155474939644" lon="-9.342063341213958"><ele>139.0</ele><time>2026-03-29T12:47:36Z</time></trkpt><trkpt lat="38.86133733679839" lon="-9.342069473654275"><ele>138.0</ele><time>2026-03-29T12:47:37Z</time></trkpt><trkpt lat="38.861119837647934" lon="-9.342083851380195"><ele>138.66666666666666</ele><time>2026-03-29T12:47:38Z</time></trkpt><trkpt lat="38.86090197088929" lon="-9.342127602784998"><ele>139.33333333333331</ele><time>2026-03-29T12:47:39Z</time></trkpt><trkpt lat="38.86069093439151" lon="-9.34219736625314"><ele>140.0</ele><time>2026-03-29T12:47:40Z</time></trkpt><trkpt lat="38.8605018944015" lon="-9.342293755797787"><ele>140.0</ele><time>2026-03-29T12:47:41Z</time></trkpt><trkpt lat="38.86033205803565" lon="-9.34240739490335"><ele>140.0</ele><time>2026-03-29T12:47:42Z</time></trkpt><trkpt lat="38.86018179303387" lon="-9.342521001469448"><ele>140.0</ele><time>2026-03-29T12:47:43Z</time></trkpt><trkpt lat="38.86004602267772" lon="-9.342628997012183"><ele>140.33333333333331</ele><time>2026-03-29T12:47:44Z</time></trkpt><trkpt lat="38.85992432460486" lon="-9.342738092337553"><ele>140.66666666666666</ele><time>2026-03-29T12:47:45Z</time></trkpt><trkpt lat="38.859822618320706" lon="-9.342881783574224"><ele>141.0</ele><time>2026-03-29T12:47:46Z</time></trkpt><trkpt lat="38.85973592210262" lon="-9.343039100947562"><ele>141.25</ele><time>2026-03-29T12:47:47Z</time></trkpt><trkpt lat="38.859675394040735" lon="-9.343209849633588"><ele>141.5</ele><time>2026-03-29T12:47:48Z</time></trkpt><trkpt lat="38.859611528457776" lon="-9.343386991862811"><ele>141.75</ele><time>2026-03-29T12:47:49Z</time></trkpt><trkpt lat="38.85955055500191" lon="-9.343557177297825"><ele>142.0</ele><time>2026-03-29T12:47:50Z</time></trkpt><trkpt lat="38.85947446731517" lon="-9.343724406113921"><ele>141.33333333333334</ele><time>2026-03-29T12:47:51Z</time></trkpt><trkpt lat="38.859423158333726" lon="-9.34391559319094"><ele>140.66666666666666</ele><time>2026-03-29T12:47:52Z</time></trkpt><trkpt lat="38.85936626526867" lon="-9.344104648548402"><ele>140.0</ele><time>2026-03-29T12:47:53Z</time></trkpt><trkpt lat="38.859337055288485" lon="-9.344290555005596"><ele>140.0</ele><time>2026-03-29T12:47:54Z</time></trkpt><trkpt lat="38.85931784965245" lon="-9.344517087645333"><ele>140.0</ele><time>2026-03-29T12:47:55Z</time></trkpt><trkpt lat="38.85930553865663" lon="-9.344741242517093"><ele>140.0</ele><time>2026-03-29T12:47:56Z</time></trkpt><trkpt lat="38.859244809051496" lon="-9.344956860931891"><ele>139.33333333333331</ele><time>2026-03-29T12:47:57Z</time></trkpt><trkpt lat="38.8591499403579" lon="-9.345155670589822"><ele>138.66666666666666</ele><time>2026-03-29T12:47:58Z</time></trkpt><trkpt lat="38.859022306512735" lon="-9.345336560810741"><ele>138.0</ele><time>2026-03-29T12:47:59Z</time></trkpt><trkpt lat="38.85891431339862" lon="-9.345486027315683"><ele>138.5</ele><time>2026-03-29T12:48:00Z</time></trkpt><trkpt lat="38.85881847901686" lon="-9.345626500166999"><ele>139.0</ele><time>2026-03-29T12:48:01Z</time></trkpt><trkpt lat="38.85873863112303" lon="-9.345765613547867"><ele>139.5</ele><time>2026-03-29T12:48:02Z</time></trkpt><trkpt lat="38.858687436807834" lon="-9.345937772988758"><ele>140.0</ele><time>2026-03-29T12:48:03Z</time></trkpt><trkpt lat="38.85861933003036" lon="-9.346129910649516"><ele>140.0</ele><time>2026-03-29T12:48:04Z</time></trkpt><trkpt lat="38.8585644787462" lon="-9.346316552504856"><ele>140.0</ele><time>2026-03-29T12:48:05Z</time></trkpt><trkpt lat="38.85850300483374" lon="-9.34647497446868"><ele>140.0</ele><time>2026-03-29T12:48:06Z</time></trkpt><trkpt lat="38.858436267360645" lon="-9.346613425174688"><ele>140.0</ele><time>2026-03-29T12:48:07Z</time></trkpt><trkpt lat="38.85835215713088" lon="-9.346732129378124"><ele>137.25</ele><time>2026-03-29T12:48:08Z</time></trkpt><trkpt lat="38.85825148880794" lon="-9.346821661250694"><ele>134.5</ele><time>2026-03-29T12:48:09Z</time></trkpt><trkpt lat="38.85813781475793" lon="-9.346901550121713"><ele>131.75</ele><time>2026-03-29T12:48:10Z</time></trkpt><trkpt lat="38.85802921375026" lon="-9.346977565398259"><ele>129.0</ele><time>2026-03-29T12:48:11Z</time></trkpt><trkpt lat="38.857897643496806" lon="-9.347044621886868"><ele>129.0</ele><time>2026-03-29T12:48:12Z</time></trkpt><trkpt lat="38.85772986513717" lon="-9.347131391897301"><ele>129.0</ele><time>2026-03-29T12:48:13Z</time></trkpt><trkpt lat="38.85757552620739" lon="-9.347207824010098"><ele>129.0</ele><time>2026-03-29T12:48:14Z</time></trkpt><trkpt lat="38.857436825154565" lon="-9.3472719692661"><ele>124.5</ele><time>2026-03-29T12:48:15Z</time></trkpt><trkpt lat="38.857323122403116" lon="-9.347348668664157"><ele>120.0</ele><time>2026-03-29T12:48:16Z</time></trkpt><trkpt lat="38.85720853283863" lon="-9.347388859002002"><ele>115.5</ele><time>2026-03-29T12:48:17Z</time></trkpt><trkpt lat="38.857113692248404" lon="-9.347478813279537"><ele>111.0</ele><time>2026-03-29T12:48:18Z</time></trkpt><trkpt lat="38.85703466629685" lon="-9.347549873707727"><ele>111.0</ele><time>2026-03-29T12:48:19Z</time></trkpt><trkpt lat="38.85696972509243" lon="-9.34761831656166"><ele>111.0</ele><time>2026-03-29T12:48:20Z</time></trkpt><trkpt lat="38.85692371828975" lon="-9.347691050481451"><ele>111.0</ele><time>2026-03-29T12:48:21Z</time></trkpt><trkpt lat="38.85689420945554" lon="-9.34777036511327"><ele>111.0</ele><time>2026-03-29T12:48:22Z</time></trkpt><trkpt lat="38.85689949593008" lon="-9.347851653065225"><ele>111.0</ele><time>2026-03-29T12:48:23Z</time></trkpt><trkpt lat="38.856902564489495" lon="-9.347944209087187"><ele>111.0</ele><time>2026-03-29T12:48:24Z</time></trkpt><trkpt lat="38.856961846089916" lon="-9.347999619400579"><ele>111.0</ele><time>2026-03-29T12:48:25Z</time></trkpt><trkpt lat="38.85702109089684" lon="-9.348084877650917"><ele>108.4</ele><time>2026-03-29T12:48:26Z</time></trkpt><trkpt lat="38.85709724276302" lon="-9.34819921601124"><ele>105.8</ele><time>2026-03-29T12:48:27Z</time></trkpt><trkpt lat="38.85717473166932" lon="-9.348295621520101"><ele>103.2</ele><time>2026-03-29T12:48:28Z</time></trkpt><trkpt lat="38.857249524819274" lon="-9.348387938821777"><ele>100.60000000000001</ele><time>2026-03-29T12:48:29Z</time></trkpt><trkpt lat="38.85733144976539" lon="-9.348478158777139"><ele>98.0</ele><time>2026-03-29T12:48:30Z</time></trkpt><trkpt lat="38.85741190352854" lon="-9.348562394638417"><ele>98.0</ele><time>2026-03-29T12:48:31Z</time></trkpt><trkpt lat="38.8574811144894" lon="-9.34864743781034"><ele>98.0</ele><time>2026-03-29T12:48:32Z</time></trkpt><trkpt lat="38.85756223729481" lon="-9.34874070470426"><ele>98.0</ele><time>2026-03-29T12:48:33Z</time></trkpt><trkpt lat="38.857635857057765" lon="-9.348823918602257"><ele>98.0</ele><time>2026-03-29T12:48:34Z</time></trkpt><trkpt lat="38.85771588250807" lon="-9.348895283480806"><ele>98.0</ele><time>2026-03-29T12:48:35Z</time></trkpt><trkpt lat="38.857787480249854" lon="-9.348990796696672"><ele>95.2</ele><time>2026-03-29T12:48:36Z</time></trkpt><trkpt lat="38.857856690438595" lon="-9.349078471374462"><ele>92.4</ele><time>2026-03-29T12:48:37Z</time></trkpt><trkpt lat="38.85791377200379" lon="-9.349168205819051"><ele>89.60000000000001</ele><time>2026-03-29T12:48:38Z</time></trkpt><trkpt lat="38.8579602011153" lon="-9.349269553057534"><ele>86.80000000000001</ele><time>2026-03-29T12:48:39Z</time></trkpt><trkpt lat="38.85797287979242" lon="-9.349385806205257"><ele>84.0</ele><time>2026-03-29T12:48:40Z</time></trkpt><trkpt lat="38.85794792290983" lon="-9.349490717667594"><ele>84.0</ele><time>2026-03-29T12:48:41Z</time></trkpt><trkpt lat="38.857884081458465" lon="-9.349595150465236"><ele>84.0</ele><time>2026-03-29T12:48:42Z</time></trkpt><trkpt lat="38.85780405765441" lon="-9.349698203368092"><ele>84.0</ele><time>2026-03-29T12:48:43Z</time></trkpt><trkpt lat="38.857736024843284" lon="-9.349838811708782"><ele>84.0</ele><time>2026-03-29T12:48:44Z</time></trkpt><trkpt lat="38.85766301145888" lon="-9.349983377221776"><ele>81.0</ele><time>2026-03-29T12:48:45Z</time></trkpt><trkpt lat="38.85759627364099" lon="-9.350111401610064"><ele>78.0</ele><time>2026-03-29T12:48:46Z</time></trkpt><trkpt lat="38.85754668840302" lon="-9.35021023920395"><ele>75.0</ele><time>2026-03-29T12:48:47Z</time></trkpt><trkpt lat="38.857528744154024" lon="-9.350307554945939"><ele>72.0</ele><time>2026-03-29T12:48:48Z</time></trkpt><trkpt lat="38.85749571418837" lon="-9.350403577790562"><ele>69.0</ele><time>2026-03-29T12:48:50Z</time></trkpt><trkpt lat="38.857487682080475" lon="-9.350486117206982"><ele>66.0</ele><time>2026-03-29T12:49:06Z</time></trkpt><trkpt lat="38.85756867935275" lon="-9.350549266481693"><ele>65.5</ele><time>2026-03-29T12:49:07Z</time></trkpt><trkpt lat="38.8576581083458" lon="-9.35057017457012"><ele>65.0</ele><time>2026-03-29T12:49:08Z</time></trkpt><trkpt lat="38.857777462167434" lon="-9.350556369907908"><ele>64.5</ele><time>2026-03-29T12:49:09Z</time></trkpt><trkpt lat="38.85789626560319" lon="-9.350569962769237"><ele>64.0</ele><time>2026-03-29T12:49:10Z</time></trkpt><trkpt lat="38.85803190092983" lon="-9.350620030180588"><ele>64.0</ele><time>2026-03-29T12:49:11Z</time></trkpt><trkpt lat="38.858170734958314" lon="-9.350687417945572"><ele>64.0</ele><time>2026-03-29T12:49:12Z</time></trkpt><trkpt lat="38.85830035028927" lon="-9.350735865686003"><ele>64.0</ele><time>2026-03-29T12:49:13Z</time></trkpt><trkpt lat="38.85842360537193" lon="-9.350776255164547"><ele>64.0</ele><time>2026-03-29T12:49:14Z</time></trkpt><trkpt lat="38.858528277183716" lon="-9.350814536478065"><ele>63.400000000000006</ele><time>2026-03-29T12:49:15Z</time></trkpt><trkpt lat="38.858640315255705" lon="-9.350854130191566"><ele>62.800000000000004</ele><time>2026-03-29T12:49:16Z</time></trkpt><trkpt lat="38.85872985749569" lon="-9.350886265278517"><ele>62.199999999999996</ele><time>2026-03-29T12:49:17Z</time></trkpt><trkpt lat="38.858832578865815" lon="-9.350890516392209"><ele>61.599999999999994</ele><time>2026-03-29T12:49:18Z</time></trkpt><trkpt lat="38.85894321966348" lon="-9.350874895815823"><ele>61.0</ele><time>2026-03-29T12:49:19Z</time></trkpt><trkpt lat="38.859048986025996" lon="-9.350861050840372"><ele>60.99999999999999</ele><time>2026-03-29T12:49:20Z</time></trkpt><trkpt lat="38.85916035948275" lon="-9.350854769753054"><ele>61.0</ele><time>2026-03-29T12:49:21Z</time></trkpt><trkpt lat="38.85924379837759" lon="-9.35084624695981"><ele>61.0</ele><time>2026-03-29T12:49:22Z</time></trkpt><trkpt lat="38.859315955287904" lon="-9.350835121992898"><ele>61.0</ele><time>2026-03-29T12:49:23Z</time></trkpt><trkpt lat="38.859397909648926" lon="-9.35080740134015"><ele>60.99999999999999</ele><time>2026-03-29T12:49:24Z</time></trkpt><trkpt lat="38.85947100497922" lon="-9.35074675446691"><ele>61.0</ele><time>2026-03-29T12:49:25Z</time></trkpt><trkpt lat="38.85958579972074" lon="-9.350658942006797"><ele>61.0</ele><time>2026-03-29T12:49:26Z</time></trkpt><trkpt lat="38.85968572550104" lon="-9.350612636601092"><ele>60.99999999999999</ele><time>2026-03-29T12:49:27Z</time></trkpt><trkpt lat="38.859754482413116" lon="-9.350567275918637"><ele>60.99999999999999</ele><time>2026-03-29T12:49:28Z</time></trkpt><trkpt lat="38.85981938152919" lon="-9.350518416979437"><ele>61.0</ele><time>2026-03-29T12:49:29Z</time></trkpt><trkpt lat="38.85988469220644" lon="-9.35043134278856"><ele>61.0</ele><time>2026-03-29T12:49:31Z</time></trkpt><trkpt lat="38.85994911894144" lon="-9.350335389160628"><ele>61.0</ele><time>2026-03-29T12:49:33Z</time></trkpt><trkpt lat="38.860043195574576" lon="-9.35023368259631"><ele>60.99999999999999</ele><time>2026-03-29T12:49:35Z</time></trkpt><trkpt lat="38.86012297247911" lon="-9.350153281243752"><ele>60.99999999999999</ele><time>2026-03-29T12:49:36Z</time></trkpt><trkpt lat="38.86019937498275" lon="-9.350050648383869"><ele>61.0</ele><time>2026-03-29T12:49:37Z</time></trkpt><trkpt lat="38.86027993769296" lon="-9.349980062802953"><ele>61.0</ele><time>2026-03-29T12:49:38Z</time></trkpt><trkpt lat="38.86035557487483" lon="-9.349915005565803"><ele>61.0</ele><time>2026-03-29T12:49:39Z</time></trkpt><trkpt lat="38.86039687449464" lon="-9.349816687311634"><ele>60.99999999999999</ele><time>2026-03-29T12:49:40Z</time></trkpt><trkpt lat="38.86044368353103" lon="-9.34970462629141"><ele>60.99999999999999</ele><time>2026-03-29T12:49:41Z</time></trkpt><trkpt lat="38.86054343728777" lon="-9.34961252475009"><ele>61.0</ele><time>2026-03-29T12:49:42Z</time></trkpt><trkpt lat="38.8606509620501" lon="-9.34952931571685"><ele>61.0</ele><time>2026-03-29T12:49:43Z</time></trkpt><trkpt lat="38.86074285234709" lon="-9.349444898839986"><ele>61.199999999999996</ele><time>2026-03-29T12:49:44Z</time></trkpt><trkpt lat="38.86081907863675" lon="-9.349366759427694"><ele>61.39999999999999</ele><time>2026-03-29T12:49:45Z</time></trkpt><trkpt lat="38.86089388105151" lon="-9.349272747885003"><ele>61.6</ele><time>2026-03-29T12:49:46Z</time></trkpt><trkpt lat="38.86097400690341" lon="-9.349167901847848"><ele>61.8</ele><time>2026-03-29T12:49:47Z</time></trkpt><trkpt lat="38.861035760446605" lon="-9.349067097232568"><ele>62.0</ele><time>2026-03-29T12:49:48Z</time></trkpt><trkpt lat="38.86107769116247" lon="-9.348993372704479"><ele>62.0</ele><time>2026-03-29T12:49:49Z</time></trkpt><trkpt lat="38.861152054472576" lon="-9.34895316842858"><ele>62.0</ele><time>2026-03-29T12:49:50Z</time></trkpt><trkpt lat="38.86125384532371" lon="-9.348910121551802"><ele>62.0</ele><time>2026-03-29T12:49:51Z</time></trkpt><trkpt lat="38.86135404670348" lon="-9.348867818130651"><ele>62.0</ele><time>2026-03-29T12:49:52Z</time></trkpt><trkpt lat="38.86144738264506" lon="-9.348822301150893"><ele>62.0</ele><time>2026-03-29T12:49:53Z</time></trkpt><trkpt lat="38.861527901462026" lon="-9.348706448689956"><ele>61.75</ele><time>2026-03-29T12:49:54Z</time></trkpt><trkpt lat="38.861635007649284" lon="-9.348625170588736"><ele>61.5</ele><time>2026-03-29T12:49:55Z</time></trkpt><trkpt lat="38.86177680637933" lon="-9.348581518691997"><ele>61.25</ele><time>2026-03-29T12:49:56Z</time></trkpt><trkpt lat="38.8618817693043" lon="-9.348553639991433"><ele>61.0</ele><time>2026-03-29T12:49:57Z</time></trkpt><trkpt lat="38.86197499892933" lon="-9.34851586714263"><ele>62.0</ele><time>2026-03-29T12:49:58Z</time></trkpt><trkpt lat="38.8620719132145" lon="-9.348487029268458"><ele>62.99999999999999</ele><time>2026-03-29T12:49:59Z</time></trkpt><trkpt lat="38.86216376593281" lon="-9.348403591462063"><ele>63.99999999999999</ele><time>2026-03-29T12:50:00Z</time></trkpt><trkpt lat="38.86223714147707" lon="-9.34830893308312"><ele>65.0</ele><time>2026-03-29T12:50:01Z</time></trkpt><trkpt lat="38.862301642535094" lon="-9.34824615019359"><ele>66.0</ele><time>2026-03-29T12:50:02Z</time></trkpt><trkpt lat="38.86238295214092" lon="-9.348214465655415"><ele>66.0</ele><time>2026-03-29T12:50:03Z</time></trkpt><trkpt lat="38.86248020071992" lon="-9.348202389394471"><ele>66.0</ele><time>2026-03-29T12:50:04Z</time></trkpt><trkpt lat="38.86257473232112" lon="-9.348209551707745"><ele>66.0</ele><time>2026-03-29T12:50:05Z</time></trkpt><trkpt lat="38.862680080784344" lon="-9.348205428851594"><ele>66.0</ele><time>2026-03-29T12:50:06Z</time></trkpt><trkpt lat="38.86276769366854" lon="-9.348201838704618"><ele>66.0</ele><time>2026-03-29T12:50:07Z</time></trkpt><trkpt lat="38.86286288926626" lon="-9.34817811439485"><ele>67.39999999999999</ele><time>2026-03-29T12:50:09Z</time></trkpt><trkpt lat="38.86292932918674" lon="-9.348321139901271"><ele>68.8</ele><time>2026-03-29T12:50:11Z</time></trkpt><trkpt lat="38.86293542857828" lon="-9.3484367757804"><ele>70.19999999999999</ele><time>2026-03-29T12:50:12Z</time></trkpt><trkpt lat="38.86293279467752" lon="-9.348552701587987"><ele>71.6</ele><time>2026-03-29T12:50:13Z</time></trkpt><trkpt lat="38.86296341162039" lon="-9.348651134188067"><ele>73.0</ele><time>2026-03-29T12:50:14Z</time></trkpt><trkpt lat="38.862998006619144" lon="-9.348761787709414"><ele>73.0</ele><time>2026-03-29T12:50:15Z</time></trkpt><trkpt lat="38.863033345665684" lon="-9.34887116316178"><ele>73.0</ele><time>2026-03-29T12:50:16Z</time></trkpt><trkpt lat="38.86304956463109" lon="-9.34898827869163"><ele>73.0</ele><time>2026-03-29T12:50:17Z</time></trkpt><trkpt lat="38.86306076457412" lon="-9.349116706435101"><ele>73.0</ele><time>2026-03-29T12:50:18Z</time></trkpt><trkpt lat="38.86308314973621" lon="-9.349205325915083"><ele>73.0</ele><time>2026-03-29T12:50:19Z</time></trkpt><trkpt lat="38.86314001291034" lon="-9.349287559912526"><ele>73.0</ele><time>2026-03-29T12:50:21Z</time></trkpt><trkpt lat="38.86314271354433" lon="-9.349392423621872"><ele>73.66666666666666</ele><time>2026-03-29T12:50:24Z</time></trkpt><trkpt lat="38.863145330200496" lon="-9.349511995487237"><ele>74.33333333333333</ele><time>2026-03-29T12:50:26Z</time></trkpt><trkpt lat="38.863168940573026" lon="-9.34961125988924"><ele>75.0</ele><time>2026-03-29T12:50:28Z</time></trkpt><trkpt lat="38.863160756706144" lon="-9.349714647840555"><ele>75.66666666666667</ele><time>2026-03-29T12:50:29Z</time></trkpt><trkpt lat="38.86316561877779" lon="-9.349812934724113"><ele>76.33333333333334</ele><time>2026-03-29T12:50:30Z</time></trkpt><trkpt lat="38.86318914703566" lon="-9.349902648434295"><ele>77.0</ele><time>2026-03-29T12:50:31Z</time></trkpt><trkpt lat="38.86322000792924" lon="-9.34997954191649"><ele>78.4</ele><time>2026-03-29T12:50:32Z</time></trkpt><trkpt lat="38.86328968479355" lon="-9.350120803311611"><ele>79.80000000000001</ele><time>2026-03-29T12:50:34Z</time></trkpt><trkpt lat="38.86336125573631" lon="-9.350274308579525"><ele>81.2</ele><time>2026-03-29T12:50:36Z</time></trkpt><trkpt lat="38.8634147560975" lon="-9.350347461677934"><ele>82.60000000000001</ele><time>2026-03-29T12:50:37Z</time></trkpt><trkpt lat="38.863466983973964" lon="-9.350415590050005"><ele>84.0</ele><time>2026-03-29T12:50:38Z</time></trkpt><trkpt lat="38.8634968313803" lon="-9.350494172801149"><ele>87.0</ele><time>2026-03-29T12:50:39Z</time></trkpt><trkpt lat="38.86355327854526" lon="-9.350565159548712"><ele>90.0</ele><time>2026-03-29T12:50:40Z</time></trkpt><trkpt lat="38.863611979703464" lon="-9.350639561769633"><ele>93.0</ele><time>2026-03-29T12:50:41Z</time></trkpt><trkpt lat="38.863658709987746" lon="-9.350704708969785"><ele>96.0</ele><time>2026-03-29T12:50:42Z</time></trkpt><trkpt lat="38.86369723107858" lon="-9.350776637623008"><ele>99.0</ele><time>2026-03-29T12:50:43Z</time></trkpt><trkpt lat="38.863751592454534" lon="-9.35089200971457"><ele>102.0</ele><time>2026-03-29T12:50:45Z</time></trkpt><trkpt lat="38.863805412584185" lon="-9.351021082036292"><ele>102.0</ele><time>2026-03-29T12:50:47Z</time></trkpt><trkpt lat="38.863849601293865" lon="-9.35110221960831"><ele>102.0</ele><time>2026-03-29T12:50:48Z</time></trkpt><trkpt lat="38.86388589920755" lon="-9.35118261357959"><ele>102.0</ele><time>2026-03-29T12:50:49Z</time></trkpt><trkpt lat="38.863926037965285" lon="-9.351263969923506"><ele>102.0</ele><time>2026-03-29T12:50:50Z</time></trkpt><trkpt lat="38.86396649560971" lon="-9.35133850553223"><ele>102.0</ele><time>2026-03-29T12:50:51Z</time></trkpt><trkpt lat="38.864025013151824" lon="-9.351405793812585"><ele>102.0</ele><time>2026-03-29T12:50:52Z</time></trkpt><trkpt lat="38.864098437071796" lon="-9.351460828509436"><ele>101.66666666666667</ele><time>2026-03-29T12:50:53Z</time></trkpt><trkpt lat="38.86418319633902" lon="-9.351522097966853"><ele>101.33333333333334</ele><time>2026-03-29T12:50:54Z</time></trkpt><trkpt lat="38.86425396324415" lon="-9.351565945090945"><ele>101.0</ele><time>2026-03-29T12:50:55Z</time></trkpt><trkpt lat="38.86429968083289" lon="-9.351634417402435"><ele>100.66666666666667</ele><time>2026-03-29T12:50:56Z</time></trkpt><trkpt lat="38.86437629938079" lon="-9.351680463723323"><ele>100.33333333333334</ele><time>2026-03-29T12:50:57Z</time></trkpt><trkpt lat="38.864441193974116" lon="-9.351753683896627"><ele>100.0</ele><time>2026-03-29T12:50:58Z</time></trkpt><trkpt lat="38.86450594417231" lon="-9.351823710633287"><ele>103.16666666666667</ele><time>2026-03-29T12:50:59Z</time></trkpt><trkpt lat="38.86455549627263" lon="-9.351902767475847"><ele>106.33333333333334</ele><time>2026-03-29T12:51:00Z</time></trkpt><trkpt lat="38.86460518348902" lon="-9.351966128109419"><ele>109.5</ele><time>2026-03-29T12:51:01Z</time></trkpt><trkpt lat="38.86468694526964" lon="-9.352001289904038"><ele>112.66666666666666</ele><time>2026-03-29T12:51:02Z</time></trkpt><trkpt lat="38.86476351877344" lon="-9.352049681986172"><ele>115.83333333333333</ele><time>2026-03-29T12:51:03Z</time></trkpt><trkpt lat="38.86484208075031" lon="-9.352114709519368"><ele>119.0</ele><time>2026-03-29T12:51:04Z</time></trkpt><trkpt lat="38.86490087610905" lon="-9.352181282863471"><ele>118.16666666666666</ele><time>2026-03-29T12:51:05Z</time></trkpt><trkpt lat="38.864977943611855" lon="-9.352224077114224"><ele>117.33333333333333</ele><time>2026-03-29T12:51:06Z</time></trkpt><trkpt lat="38.86504663007418" lon="-9.352271932445847"><ele>116.5</ele><time>2026-03-29T12:51:07Z</time></trkpt><trkpt lat="38.86512269599339" lon="-9.352323287373263"><ele>115.66666666666666</ele><time>2026-03-29T12:51:08Z</time></trkpt><trkpt lat="38.865195211126654" lon="-9.352374769385474"><ele>114.83333333333333</ele><time>2026-03-29T12:51:09Z</time></trkpt><trkpt lat="38.865272987195844" lon="-9.352412057523418"><ele>114.0</ele><time>2026-03-29T12:51:10Z</time></trkpt><trkpt lat="38.865344230637334" lon="-9.352414242732165"><ele>116.14285714285714</ele><time>2026-03-29T12:51:11Z</time></trkpt><trkpt lat="38.865407145765076" lon="-9.352314538472456"><ele>118.28571428571428</ele><time>2026-03-29T12:51:13Z</time></trkpt><trkpt lat="38.86543273273998" lon="-9.352233864099782"><ele>120.42857142857142</ele><time>2026-03-29T12:51:14Z</time></trkpt><trkpt lat="38.86546318735881" lon="-9.352153164175618"><ele>122.57142857142856</ele><time>2026-03-29T12:51:15Z</time></trkpt><trkpt lat="38.86549955151358" lon="-9.3520816073121"><ele>124.71428571428571</ele><time>2026-03-29T12:51:16Z</time></trkpt><trkpt lat="38.865554479419934" lon="-9.352017533997559"><ele>126.85714285714283</ele><time>2026-03-29T12:51:17Z</time></trkpt><trkpt lat="38.865597103168106" lon="-9.351945516322925"><ele>129.0</ele><time>2026-03-29T12:51:18Z</time></trkpt><trkpt lat="38.86565524768032" lon="-9.351875049532458"><ele>129.83333333333334</ele><time>2026-03-29T12:51:19Z</time></trkpt><trkpt lat="38.86571967579449" lon="-9.351829236585532"><ele>130.66666666666666</ele><time>2026-03-29T12:51:20Z</time></trkpt><trkpt lat="38.86579780939245" lon="-9.351801222967545"><ele>131.5</ele><time>2026-03-29T12:51:21Z</time></trkpt><trkpt lat="38.86587650094225" lon="-9.351840724734387"><ele>132.33333333333331</ele><time>2026-03-29T12:51:22Z</time></trkpt><trkpt lat="38.86596291740218" lon="-9.351820451290932"><ele>133.16666666666666</ele><time>2026-03-29T12:51:23Z</time></trkpt><trkpt lat="38.86604020866106" lon="-9.35179154863368"><ele>134.0</ele><time>2026-03-29T12:51:24Z</time></trkpt><trkpt lat="38.86612550804173" lon="-9.351741799477855"><ele>136.0</ele><time>2026-03-29T12:51:25Z</time></trkpt><trkpt lat="38.86624315522975" lon="-9.351750586230029"><ele>138.0</ele><time>2026-03-29T12:51:26Z</time></trkpt><trkpt lat="38.86636235904222" lon="-9.35171480751679"><ele>140.0</ele><time>2026-03-29T12:51:27Z</time></trkpt><trkpt lat="38.866482429391695" lon="-9.351664383099104"><ele>142.0</ele><time>2026-03-29T12:51:28Z</time></trkpt><trkpt lat="38.86659719342925" lon="-9.351616215564697"><ele>142.0</ele><time>2026-03-29T12:51:29Z</time></trkpt><trkpt lat="38.86670295904027" lon="-9.35156787125663"><ele>142.0</ele><time>2026-03-29T12:51:30Z</time></trkpt><trkpt lat="38.86678490069621" lon="-9.351532407271435"><ele>142.0</ele><time>2026-03-29T12:51:31Z</time></trkpt><trkpt lat="38.86689795397279" lon="-9.351516280762246"><ele>142.0</ele><time>2026-03-29T12:51:32Z</time></trkpt><trkpt lat="38.8670042086072" lon="-9.351498561354276"><ele>142.0</ele><time>2026-03-29T12:51:33Z</time></trkpt><trkpt lat="38.86709422785146" lon="-9.351473801443262"><ele>143.2</ele><time>2026-03-29T12:51:34Z</time></trkpt><trkpt lat="38.867153909153785" lon="-9.351440579846427"><ele>144.39999999999998</ele><time>2026-03-29T12:51:35Z</time></trkpt><trkpt lat="38.867236395211265" lon="-9.351411717115708"><ele>145.60000000000002</ele><time>2026-03-29T12:51:36Z</time></trkpt><trkpt lat="38.86734931673447" lon="-9.351420281465442"><ele>146.8</ele><time>2026-03-29T12:51:37Z</time></trkpt><trkpt lat="38.867455114792755" lon="-9.351460015655666"><ele>148.0</ele><time>2026-03-29T12:51:38Z</time></trkpt><trkpt lat="38.86756089092211" lon="-9.351524576985769"><ele>149.5</ele><time>2026-03-29T12:51:39Z</time></trkpt><trkpt lat="38.86767343546781" lon="-9.351557028289909"><ele>151.0</ele><time>2026-03-29T12:51:40Z</time></trkpt><trkpt lat="38.867788457671416" lon="-9.351578161907057"><ele>152.5</ele><time>2026-03-29T12:51:41Z</time></trkpt><trkpt lat="38.867906923749025" lon="-9.35155439119899"><ele>154.0</ele><time>2026-03-29T12:51:42Z</time></trkpt><trkpt lat="38.8680231210884" lon="-9.35149058824959"><ele>154.0</ele><time>2026-03-29T12:51:43Z</time></trkpt><trkpt lat="38.86815032300391" lon="-9.351458684727566"><ele>154.0</ele><time>2026-03-29T12:51:44Z</time></trkpt><trkpt lat="38.86827590794264" lon="-9.351412245710392"><ele>154.0</ele><time>2026-03-29T12:51:45Z</time></trkpt><trkpt lat="38.86838611589035" lon="-9.351352634638692"><ele>154.0</ele><time>2026-03-29T12:51:46Z</time></trkpt><trkpt lat="38.86849100459997" lon="-9.351277962644291"><ele>153.6</ele><time>2026-03-29T12:51:47Z</time></trkpt><trkpt lat="38.86857546326364" lon="-9.351179793681354"><ele>153.2</ele><time>2026-03-29T12:51:48Z</time></trkpt><trkpt lat="38.86864503628309" lon="-9.351079876021714"><ele>152.79999999999998</ele><time>2026-03-29T12:51:49Z</time></trkpt><trkpt lat="38.86870657400342" lon="-9.351023449688588"><ele>152.4</ele><time>2026-03-29T12:51:50Z</time></trkpt><trkpt lat="38.86876914885095" lon="-9.350978428112962"><ele>152.0</ele><time>2026-03-29T12:51:51Z</time></trkpt><trkpt lat="38.86888039418646" lon="-9.351027473857975"><ele>152.0</ele><time>2026-03-29T12:51:52Z</time></trkpt><trkpt lat="38.8689783644059" lon="-9.351118075543237"><ele>152.0</ele><time>2026-03-29T12:51:53Z</time></trkpt><trkpt lat="38.86906499498857" lon="-9.351250213081725"><ele>152.0</ele><time>2026-03-29T12:51:54Z</time></trkpt><trkpt lat="38.869128662538415" lon="-9.351368391046488"><ele>152.0</ele><time>2026-03-29T12:51:55Z</time></trkpt><trkpt lat="38.869173252734164" lon="-9.35146953255459"><ele>152.79999999999998</ele><time>2026-03-29T12:51:56Z</time></trkpt><trkpt lat="38.869222950318886" lon="-9.351560979633488"><ele>153.6</ele><time>2026-03-29T12:51:57Z</time></trkpt><trkpt lat="38.86923158461933" lon="-9.351734424862624"><ele>154.39999999999998</ele><time>2026-03-29T12:51:58Z</time></trkpt><trkpt lat="38.86923816408172" lon="-9.35188756722893"><ele>155.2</ele><time>2026-03-29T12:51:59Z</time></trkpt><trkpt lat="38.869215060986875" lon="-9.351999271999505"><ele>156.0</ele><time>2026-03-29T12:52:00Z</time></trkpt><trkpt lat="38.86914431092533" lon="-9.352090481004659"><ele>156.0</ele><time>2026-03-29T12:52:01Z</time></trkpt><trkpt lat="38.86902060930163" lon="-9.352169646171577"><ele>156.0</ele><time>2026-03-29T12:52:02Z</time></trkpt><trkpt lat="38.86892356435314" lon="-9.35224221072119"><ele>156.0</ele><time>2026-03-29T12:52:03Z</time></trkpt><trkpt lat="38.86891284617638" lon="-9.352328475698553"><ele>156.0</ele><time>2026-03-29T12:52:04Z</time></trkpt><trkpt lat="38.86897138762641" lon="-9.352360296490843"><ele>156.0</ele><time>2026-03-29T12:52:05Z</time></trkpt><trkpt lat="38.86907305360476" lon="-9.352465917720687"><ele>156.8</ele><time>2026-03-29T12:52:07Z</time></trkpt><trkpt lat="38.86918194873731" lon="-9.352537831869173"><ele>157.6</ele><time>2026-03-29T12:52:08Z</time></trkpt><trkpt lat="38.8692790569275" lon="-9.352604324012278"><ele>158.4</ele><time>2026-03-29T12:52:09Z</time></trkpt><trkpt lat="38.869315032740325" lon="-9.352690601332732"><ele>159.2</ele><time>2026-03-29T12:52:10Z</time></trkpt><trkpt lat="38.86930564568537" lon="-9.352814058243045"><ele>160.0</ele><time>2026-03-29T12:52:11Z</time></trkpt><trkpt lat="38.86930329424695" lon="-9.352982876592328"><ele>162.0</ele><time>2026-03-29T12:52:12Z</time></trkpt><trkpt lat="38.869315347791876" lon="-9.353069524151888"><ele>164.0</ele><time>2026-03-29T12:52:13Z</time></trkpt><trkpt lat="38.869405551171994" lon="-9.35307155015794"><ele>166.0</ele><time>2026-03-29T12:52:14Z</time></trkpt><trkpt lat="38.86944479699262" lon="-9.353167335316767"><ele>168.0</ele><time>2026-03-29T12:52:15Z</time></trkpt><trkpt lat="38.869497415255715" lon="-9.35324946807813"><ele>170.0</ele><time>2026-03-29T12:52:16Z</time></trkpt><trkpt lat="38.86948855775237" lon="-9.353347524756394"><ele>172.0</ele><time>2026-03-29T12:52:20Z</time></trkpt><trkpt lat="38.86947095317794" lon="-9.353260550888999"><ele>172.0</ele><time>2026-03-29T12:52:26Z</time></trkpt><trkpt lat="38.8694112875831" lon="-9.353171545370353"><ele>172.0</ele><time>2026-03-29T12:52:49Z</time></trkpt><trkpt lat="38.86938687262953" lon="-9.353087198017576"><ele>172.0</ele><time>2026-03-29T12:52:50Z</time></trkpt><trkpt lat="38.869312140544885" lon="-9.353030491293975"><ele>172.0</ele><time>2026-03-29T12:52:52Z</time></trkpt><trkpt lat="38.869281806135135" lon="-9.353203212741475"><ele>172.0</ele><time>2026-03-29T12:52:55Z</time></trkpt><trkpt lat="38.86924091109035" lon="-9.353343167512897"><ele>172.0</ele><time>2026-03-29T12:52:56Z</time></trkpt><trkpt lat="38.869183587161906" lon="-9.35345491765341"><ele>172.0</ele><time>2026-03-29T12:52:57Z</time></trkpt><trkpt lat="38.8691397833637" lon="-9.353599876801285"><ele>172.0</ele><time>2026-03-29T12:52:58Z</time></trkpt><trkpt lat="38.86912373998479" lon="-9.353709880170596"><ele>172.0</ele><time>2026-03-29T12:52:59Z</time></trkpt><trkpt lat="38.86914376785636" lon="-9.35380791288479"><ele>172.0</ele><time>2026-03-29T12:53:00Z</time></trkpt><trkpt lat="38.86917012075719" lon="-9.353889588344295"><ele>172.0</ele><time>2026-03-29T12:53:01Z</time></trkpt><trkpt lat="38.8692704945658" lon="-9.353939482125302"><ele>172.0</ele><time>2026-03-29T12:53:02Z</time></trkpt><trkpt lat="38.86932034413615" lon="-9.3540156770688"><ele>172.0</ele><time>2026-03-29T12:53:03Z</time></trkpt><trkpt lat="38.8693742740915" lon="-9.354064895087742"><ele>172.0</ele><time>2026-03-29T12:53:05Z</time></trkpt><trkpt lat="38.869438003850675" lon="-9.354046546676306"><ele>172.0</ele><time>2026-03-29T12:53:06Z</time></trkpt><trkpt lat="38.869531124370106" lon="-9.354079080768132"><ele>172.0</ele><time>2026-03-29T12:53:07Z</time></trkpt><trkpt lat="38.869645397538804" lon="-9.35413329463555"><ele>172.75</ele><time>2026-03-29T12:53:08Z</time></trkpt><trkpt lat="38.8697665078923" lon="-9.354194773835355"><ele>173.5</ele><time>2026-03-29T12:53:09Z</time></trkpt><trkpt lat="38.869891132515654" lon="-9.354271698277271"><ele>174.25</ele><time>2026-03-29T12:53:10Z</time></trkpt><trkpt lat="38.87000347824901" lon="-9.354371143528713"><ele>175.0</ele><time>2026-03-29T12:53:11Z</time></trkpt><trkpt lat="38.870122970642306" lon="-9.354507434958082"><ele>175.0</ele><time>2026-03-29T12:53:12Z</time></trkpt><trkpt lat="38.87023424861245" lon="-9.35464745859959"><ele>175.0</ele><time>2026-03-29T12:53:13Z</time></trkpt><trkpt lat="38.87034712667618" lon="-9.354737912669426"><ele>175.0</ele><time>2026-03-29T12:53:14Z</time></trkpt><trkpt lat="38.870468029407476" lon="-9.35478183527263"><ele>175.0</ele><time>2026-03-29T12:53:15Z</time></trkpt><trkpt lat="38.87057981374402" lon="-9.354809764907094"><ele>175.0</ele><time>2026-03-29T12:53:16Z</time></trkpt><trkpt lat="38.870659618669464" lon="-9.354877020484187"><ele>175.0</ele><time>2026-03-29T12:53:17Z</time></trkpt><trkpt lat="38.870729763259256" lon="-9.355022382093935"><ele>175.0</ele><time>2026-03-29T12:53:18Z</time></trkpt><trkpt lat="38.87080422585095" lon="-9.355206497690963"><ele>175.0</ele><time>2026-03-29T12:53:19Z</time></trkpt><trkpt lat="38.87088512509458" lon="-9.355404782860363"><ele>174.33333333333334</ele><time>2026-03-29T12:53:20Z</time></trkpt><trkpt lat="38.870978124803244" lon="-9.355615889630469"><ele>173.66666666666666</ele><time>2026-03-29T12:53:21Z</time></trkpt><trkpt lat="38.871072897422415" lon="-9.355833145178325"><ele>173.0</ele><time>2026-03-29T12:53:22Z</time></trkpt><trkpt lat="38.871189308417186" lon="-9.356046014676899"><ele>173.0</ele><time>2026-03-29T12:53:23Z</time></trkpt><trkpt lat="38.87134605553247" lon="-9.356226347082965"><ele>173.0</ele><time>2026-03-29T12:53:24Z</time></trkpt><trkpt lat="38.87149925234529" lon="-9.356400938193854"><ele>173.0</ele><time>2026-03-29T12:53:25Z</time></trkpt><trkpt lat="38.87164332661349" lon="-9.356585563632489"><ele>177.0</ele><time>2026-03-29T12:53:26Z</time></trkpt><trkpt lat="38.87179146966378" lon="-9.35673850998921"><ele>181.0</ele><time>2026-03-29T12:53:27Z</time></trkpt><trkpt lat="38.87192951830597" lon="-9.35689323766061"><ele>185.0</ele><time>2026-03-29T12:53:28Z</time></trkpt><trkpt lat="38.87207334078464" lon="-9.357027972122834"><ele>185.0</ele><time>2026-03-29T12:53:29Z</time></trkpt><trkpt lat="38.872205936692175" lon="-9.35718380977917"><ele>185.0</ele><time>2026-03-29T12:53:30Z</time></trkpt><trkpt lat="38.8723121379204" lon="-9.357317163181744"><ele>185.0</ele><time>2026-03-29T12:53:31Z</time></trkpt><trkpt lat="38.87238979622375" lon="-9.35744443103024"><ele>186.0</ele><time>2026-03-29T12:53:32Z</time></trkpt><trkpt lat="38.872434189055085" lon="-9.357620197414125"><ele>187.0</ele><time>2026-03-29T12:53:33Z</time></trkpt><trkpt lat="38.87246459522342" lon="-9.357826453593471"><ele>188.0</ele><time>2026-03-29T12:53:34Z</time></trkpt><trkpt lat="38.87249050347773" lon="-9.358040114086354"><ele>188.0</ele><time>2026-03-29T12:53:35Z</time></trkpt><trkpt lat="38.87253278831154" lon="-9.358261065525177"><ele>188.0</ele><time>2026-03-29T12:53:36Z</time></trkpt><trkpt lat="38.872609795886596" lon="-9.358472632148619"><ele>188.0</ele><time>2026-03-29T12:53:37Z</time></trkpt><trkpt lat="38.87268556710139" lon="-9.358708868180665"><ele>189.66666666666666</ele><time>2026-03-29T12:53:38Z</time></trkpt><trkpt lat="38.872705356873084" lon="-9.35895312756196"><ele>191.33333333333331</ele><time>2026-03-29T12:53:39Z</time></trkpt><trkpt lat="38.872711811174064" lon="-9.359163725559002"><ele>193.0</ele><time>2026-03-29T12:53:40Z</time></trkpt><trkpt lat="38.87276643501544" lon="-9.35933700745111"><ele>193.0</ele><time>2026-03-29T12:53:41Z</time></trkpt><trkpt lat="38.872853098552824" lon="-9.359477802943177"><ele>193.0</ele><time>2026-03-29T12:53:42Z</time></trkpt><trkpt lat="38.87296248259771" lon="-9.359644422523658"><ele>193.0</ele><time>2026-03-29T12:53:43Z</time></trkpt><trkpt lat="38.873088442081766" lon="-9.359805276834896"><ele>191.33333333333331</ele><time>2026-03-29T12:53:44Z</time></trkpt><trkpt lat="38.873223348665014" lon="-9.359946542678465"><ele>189.66666666666666</ele><time>2026-03-29T12:53:45Z</time></trkpt><trkpt lat="38.8733804925672" lon="-9.360042403624044"><ele>188.0</ele><time>2026-03-29T12:53:46Z</time></trkpt><trkpt lat="38.87354470421897" lon="-9.360121462433206"><ele>188.0</ele><time>2026-03-29T12:53:47Z</time></trkpt><trkpt lat="38.87368595375093" lon="-9.360168324612319"><ele>188.0</ele><time>2026-03-29T12:53:48Z</time></trkpt><trkpt lat="38.87381882220074" lon="-9.360197104554882"><ele>188.0</ele><time>2026-03-29T12:53:49Z</time></trkpt><trkpt lat="38.873950279196556" lon="-9.360235197817502"><ele>188.0</ele><time>2026-03-29T12:53:50Z</time></trkpt><trkpt lat="38.874079201235475" lon="-9.360250533801825"><ele>188.0</ele><time>2026-03-29T12:53:51Z</time></trkpt><trkpt lat="38.874200352428716" lon="-9.360277572804524"><ele>188.0</ele><time>2026-03-29T12:53:52Z</time></trkpt><trkpt lat="38.87431699960556" lon="-9.360302270163302"><ele>188.0</ele><time>2026-03-29T12:53:53Z</time></trkpt><trkpt lat="38.87442622666742" lon="-9.360313551217548"><ele>188.0</ele><time>2026-03-29T12:53:54Z</time></trkpt><trkpt lat="38.87450471279854" lon="-9.360318233424865"><ele>188.0</ele><time>2026-03-29T12:53:55Z</time></trkpt><trkpt lat="38.874567599445164" lon="-9.360390194233945"><ele>187.75</ele><time>2026-03-29T12:54:36Z</time></trkpt><trkpt lat="38.87466462916077" lon="-9.360485010373562"><ele>187.5</ele><time>2026-03-29T12:54:37Z</time></trkpt><trkpt lat="38.8747577270415" lon="-9.360623029154684"><ele>187.25</ele><time>2026-03-29T12:54:38Z</time></trkpt><trkpt lat="38.874869272139875" lon="-9.36077669482679"><ele>187.0</ele><time>2026-03-29T12:54:39Z</time></trkpt><trkpt lat="38.87496601803612" lon="-9.360935062803769"><ele>186.66666666666669</ele><time>2026-03-29T12:54:40Z</time></trkpt><trkpt lat="38.875088116878835" lon="-9.361059523597753"><ele>186.33333333333334</ele><time>2026-03-29T12:54:41Z</time></trkpt><trkpt lat="38.87522631269974" lon="-9.361154558618486"><ele>186.0</ele><time>2026-03-29T12:54:42Z</time></trkpt><trkpt lat="38.87532082184063" lon="-9.361287802540412"><ele>185.0</ele><time>2026-03-29T12:54:43Z</time></trkpt><trkpt lat="38.8754039878896" lon="-9.361465062339688"><ele>184.0</ele><time>2026-03-29T12:54:44Z</time></trkpt><trkpt lat="38.8754647048132" lon="-9.361671047727013"><ele>183.0</ele><time>2026-03-29T12:54:45Z</time></trkpt><trkpt lat="38.87551821559931" lon="-9.361882513500875"><ele>183.0</ele><time>2026-03-29T12:54:46Z</time></trkpt><trkpt lat="38.87557325659012" lon="-9.362097272879922"><ele>183.0</ele><time>2026-03-29T12:54:47Z</time></trkpt><trkpt lat="38.87569161453863" lon="-9.362264201356632"><ele>183.0</ele><time>2026-03-29T12:54:48Z</time></trkpt><trkpt lat="38.87583453245303" lon="-9.362424109466994"><ele>183.33333333333334</ele><time>2026-03-29T12:54:49Z</time></trkpt><trkpt lat="38.87597403910961" lon="-9.362596450687771"><ele>183.66666666666669</ele><time>2026-03-29T12:54:50Z</time></trkpt><trkpt lat="38.876098135490324" lon="-9.362787169090412"><ele>184.0</ele><time>2026-03-29T12:54:51Z</time></trkpt><trkpt lat="38.87622293285933" lon="-9.362973160193535"><ele>184.33333333333334</ele><time>2026-03-29T12:54:52Z</time></trkpt><trkpt lat="38.87634084166863" lon="-9.36316439810929"><ele>184.66666666666666</ele><time>2026-03-29T12:54:53Z</time></trkpt><trkpt lat="38.87645461597934" lon="-9.363347925614885"><ele>185.0</ele><time>2026-03-29T12:54:54Z</time></trkpt><trkpt lat="38.876557110890644" lon="-9.363514106214584"><ele>185.0</ele><time>2026-03-29T12:54:55Z</time></trkpt><trkpt lat="38.876649516193" lon="-9.363650641642126"><ele>185.0</ele><time>2026-03-29T12:54:56Z</time></trkpt><trkpt lat="38.876719467114995" lon="-9.363757194604743"><ele>185.0</ele><time>2026-03-29T12:54:57Z</time></trkpt><trkpt lat="38.87676661456706" lon="-9.363827869219492"><ele>185.0</ele><time>2026-03-29T12:54:58Z</time></trkpt><trkpt lat="38.876811266222795" lon="-9.363899490317493"><ele>185.0</ele><time>2026-03-29T12:55:00Z</time></trkpt><trkpt lat="38.87687719837859" lon="-9.363973873934858"><ele>185.0</ele><time>2026-03-29T12:55:01Z</time></trkpt><trkpt lat="38.87697522249456" lon="-9.364064418415825"><ele>185.0</ele><time>2026-03-29T12:55:02Z</time></trkpt><trkpt lat="38.87707604031564" lon="-9.364170331016128"><ele>185.0</ele><time>2026-03-29T12:55:03Z</time></trkpt><trkpt lat="38.87718942137127" lon="-9.36428592566439"><ele>185.0</ele><time>2026-03-29T12:55:04Z</time></trkpt><trkpt lat="38.87731369609125" lon="-9.364404926376581"><ele>185.0</ele><time>2026-03-29T12:55:05Z</time></trkpt><trkpt lat="38.87743940890477" lon="-9.3645348325656"><ele>185.0</ele><time>2026-03-29T12:55:06Z</time></trkpt><trkpt lat="38.87757293989926" lon="-9.364673237598982"><ele>185.0</ele><time>2026-03-29T12:55:07Z</time></trkpt><trkpt lat="38.87771083636849" lon="-9.364811105966572"><ele>184.33333333333331</ele><time>2026-03-29T12:55:08Z</time></trkpt><trkpt lat="38.87787386492068" lon="-9.364928889119783"><ele>183.66666666666666</ele><time>2026-03-29T12:55:09Z</time></trkpt><trkpt lat="38.878024570978496" lon="-9.365079509797937"><ele>183.0</ele><time>2026-03-29T12:55:10Z</time></trkpt><trkpt lat="38.87819244201122" lon="-9.365213727979821"><ele>183.0</ele><time>2026-03-29T12:55:11Z</time></trkpt><trkpt lat="38.8783591172609" lon="-9.365374204741311"><ele>183.0</ele><time>2026-03-29T12:55:12Z</time></trkpt><trkpt lat="38.8785105347707" lon="-9.365553688781354"><ele>183.0</ele><time>2026-03-29T12:55:13Z</time></trkpt><trkpt lat="38.87865477989621" lon="-9.365742875302114"><ele>181.66666666666666</ele><time>2026-03-29T12:55:14Z</time></trkpt><trkpt lat="38.878788588072666" lon="-9.365938670810227"><ele>180.33333333333331</ele><time>2026-03-29T12:55:15Z</time></trkpt><trkpt lat="38.87891769489516" lon="-9.366152745839496"><ele>179.0</ele><time>2026-03-29T12:55:16Z</time></trkpt><trkpt lat="38.8790375769649" lon="-9.366377466832752"><ele>178.33333333333331</ele><time>2026-03-29T12:55:17Z</time></trkpt><trkpt lat="38.879148086443074" lon="-9.366616531187201"><ele>177.66666666666666</ele><time>2026-03-29T12:55:18Z</time></trkpt><trkpt lat="38.87924999128332" lon="-9.366861137633489"><ele>177.0</ele><time>2026-03-29T12:55:19Z</time></trkpt><trkpt lat="38.87933362862845" lon="-9.367086785635008"><ele>175.75</ele><time>2026-03-29T12:55:20Z</time></trkpt><trkpt lat="38.87940452829142" lon="-9.367270877930741"><ele>174.5</ele><time>2026-03-29T12:55:21Z</time></trkpt><trkpt lat="38.879460536858645" lon="-9.367431155933252"><ele>173.25</ele><time>2026-03-29T12:55:22Z</time></trkpt><trkpt lat="38.87952155507267" lon="-9.367564542839062"><ele>172.0</ele><time>2026-03-29T12:55:23Z</time></trkpt><trkpt lat="38.87955800503236" lon="-9.367664575877889"><ele>172.0</ele><time>2026-03-29T12:55:24Z</time></trkpt><trkpt lat="38.87958985682483" lon="-9.367754420245769"><ele>172.0</ele><time>2026-03-29T12:55:25Z</time></trkpt><trkpt lat="38.87962997815157" lon="-9.367900398745183"><ele>172.0</ele><time>2026-03-29T12:55:27Z</time></trkpt><trkpt lat="38.879481810333075" lon="-9.368056328163913"><ele>172.0</ele><time>2026-03-29T12:55:28Z</time></trkpt><trkpt lat="38.87939690572422" lon="-9.36819636633404"><ele>172.0</ele><time>2026-03-29T12:55:29Z</time></trkpt><trkpt lat="38.87931495175618" lon="-9.368339089588227"><ele>172.0</ele><time>2026-03-29T12:55:30Z</time></trkpt><trkpt lat="38.87927592247033" lon="-9.368461788793072"><ele>172.0</ele><time>2026-03-29T12:55:31Z</time></trkpt><trkpt lat="38.87923912871563" lon="-9.368539544128936"><ele>172.0</ele><time>2026-03-29T12:55:32Z</time></trkpt><trkpt lat="38.87926118155769" lon="-9.36870708084326"><ele>172.0</ele><time>2026-03-29T12:55:34Z</time></trkpt><trkpt lat="38.87930693990694" lon="-9.368828998069382"><ele>172.0</ele><time>2026-03-29T12:55:35Z</time></trkpt><trkpt lat="38.87955407816468" lon="-9.368799576762541"><ele>172.0</ele><time>2026-03-29T12:55:36Z</time></trkpt><trkpt lat="38.879711722364874" lon="-9.368814505891072"><ele>172.0</ele><time>2026-03-29T12:55:37Z</time></trkpt><trkpt lat="38.87987853983299" lon="-9.368810681836276"><ele>172.0</ele><time>2026-03-29T12:55:38Z</time></trkpt><trkpt lat="38.88004283133747" lon="-9.368829991545862"><ele>172.0</ele><time>2026-03-29T12:55:39Z</time></trkpt><trkpt lat="38.88020161265531" lon="-9.3688773768537"><ele>172.0</ele><time>2026-03-29T12:55:40Z</time></trkpt><trkpt lat="38.88033544207602" lon="-9.36895376063518"><ele>171.0</ele><time>2026-03-29T12:55:41Z</time></trkpt><trkpt lat="38.88045358589814" lon="-9.369055507844795"><ele>170.0</ele><time>2026-03-29T12:55:42Z</time></trkpt><trkpt lat="38.88054759593265" lon="-9.369179933814017"><ele>169.0</ele><time>2026-03-29T12:55:43Z</time></trkpt><trkpt lat="38.88064677903057" lon="-9.369323355726772"><ele>168.0</ele><time>2026-03-29T12:55:44Z</time></trkpt><trkpt lat="38.880745716756785" lon="-9.369481922169209"><ele>168.0</ele><time>2026-03-29T12:55:45Z</time></trkpt><trkpt lat="38.88085708773015" lon="-9.369625250104676"><ele>168.0</ele><time>2026-03-29T12:55:46Z</time></trkpt><trkpt lat="38.88095479706692" lon="-9.369763032712832"><ele>168.0</ele><time>2026-03-29T12:55:47Z</time></trkpt><trkpt lat="38.88105437662516" lon="-9.36989518086551"><ele>168.0</ele><time>2026-03-29T12:55:48Z</time></trkpt><trkpt lat="38.881155302655806" lon="-9.370022236036498"><ele>166.5</ele><time>2026-03-29T12:55:49Z</time></trkpt><trkpt lat="38.88126464773743" lon="-9.370139366154827"><ele>165.0</ele><time>2026-03-29T12:55:50Z</time></trkpt><trkpt lat="38.881364768743616" lon="-9.370268263806723"><ele>163.5</ele><time>2026-03-29T12:55:51Z</time></trkpt><trkpt lat="38.88145703032294" lon="-9.370392044518452"><ele>162.0</ele><time>2026-03-29T12:55:52Z</time></trkpt><trkpt lat="38.881542782688435" lon="-9.370504619489523"><ele>161.8</ele><time>2026-03-29T12:55:53Z</time></trkpt><trkpt lat="38.88162254159974" lon="-9.370609326288424"><ele>161.6</ele><time>2026-03-29T12:55:54Z</time></trkpt><trkpt lat="38.8816881140341" lon="-9.370714808401933"><ele>161.4</ele><time>2026-03-29T12:55:55Z</time></trkpt><trkpt lat="38.8817657479868" lon="-9.37079099693"><ele>161.20000000000002</ele><time>2026-03-29T12:55:56Z</time></trkpt><trkpt lat="38.88181209802383" lon="-9.370877130098055"><ele>161.0</ele><time>2026-03-29T12:55:57Z</time></trkpt><trkpt lat="38.88187954820359" lon="-9.370928859830428"><ele>161.0</ele><time>2026-03-29T12:55:59Z</time></trkpt><trkpt lat="38.88175337198901" lon="-9.37118319458511"><ele>161.0</ele><time>2026-03-29T12:56:01Z</time></trkpt><trkpt lat="38.881640811252396" lon="-9.371286353260013"><ele>161.0</ele><time>2026-03-29T12:56:02Z</time></trkpt><trkpt lat="38.881510956450015" lon="-9.371403013235023"><ele>160.66666666666666</ele><time>2026-03-29T12:56:03Z</time></trkpt><trkpt lat="38.88137616046368" lon="-9.371523366504338"><ele>160.33333333333334</ele><time>2026-03-29T12:56:04Z</time></trkpt><trkpt lat="38.881235616457325" lon="-9.371654067920407"><ele>160.0</ele><time>2026-03-29T12:56:05Z</time></trkpt><trkpt lat="38.88112168702902" lon="-9.371799161727662"><ele>160.0</ele><time>2026-03-29T12:56:06Z</time></trkpt><trkpt lat="38.88102785281502" lon="-9.371961097636254"><ele>160.0</ele><time>2026-03-29T12:56:07Z</time></trkpt><trkpt lat="38.880987302003234" lon="-9.372122784103324"><ele>160.0</ele><time>2026-03-29T12:56:08Z</time></trkpt><trkpt lat="38.881008096294764" lon="-9.372265982976963"><ele>160.0</ele><time>2026-03-29T12:56:09Z</time></trkpt><trkpt lat="38.88102290051447" lon="-9.372462997558182"><ele>160.33333333333334</ele><time>2026-03-29T12:56:10Z</time></trkpt><trkpt lat="38.88104234432819" lon="-9.372675084889885"><ele>160.66666666666666</ele><time>2026-03-29T12:56:11Z</time></trkpt><trkpt lat="38.8810769523082" lon="-9.3728824409718"><ele>161.0</ele><time>2026-03-29T12:56:12Z</time></trkpt><trkpt lat="38.88112828389987" lon="-9.373099564964242"><ele>161.0</ele><time>2026-03-29T12:56:13Z</time></trkpt><trkpt lat="38.88118602071929" lon="-9.37327706272926"><ele>161.0</ele><time>2026-03-29T12:56:14Z</time></trkpt><trkpt lat="38.88120364284135" lon="-9.373435749792959"><ele>161.0</ele><time>2026-03-29T12:56:15Z</time></trkpt><trkpt lat="38.881223072794356" lon="-9.373579687441914"><ele>161.0</ele><time>2026-03-29T12:56:16Z</time></trkpt><trkpt lat="38.881188828256434" lon="-9.373757484284367"><ele>162.0</ele><time>2026-03-29T12:56:17Z</time></trkpt><trkpt lat="38.88112140118716" lon="-9.373930007743315"><ele>163.0</ele><time>2026-03-29T12:56:18Z</time></trkpt><trkpt lat="38.8810398299479" lon="-9.374098238263102"><ele>164.0</ele><time>2026-03-29T12:56:19Z</time></trkpt><trkpt lat="38.88095543655952" lon="-9.374280454772789"><ele>164.33333333333331</ele><time>2026-03-29T12:56:20Z</time></trkpt><trkpt lat="38.88087772189785" lon="-9.374473470170129"><ele>164.66666666666666</ele><time>2026-03-29T12:56:21Z</time></trkpt><trkpt lat="38.88080247667367" lon="-9.374659611095428"><ele>165.0</ele><time>2026-03-29T12:56:22Z</time></trkpt><trkpt lat="38.88074948630952" lon="-9.374820044719423"><ele>165.0</ele><time>2026-03-29T12:56:23Z</time></trkpt><trkpt lat="38.88072245449004" lon="-9.374930778268846"><ele>165.0</ele><time>2026-03-29T12:56:24Z</time></trkpt><trkpt lat="38.880746613629995" lon="-9.375012546875164"><ele>165.0</ele><time>2026-03-29T12:56:25Z</time></trkpt><trkpt lat="38.88081497578941" lon="-9.375067907669582"><ele>165.0</ele><time>2026-03-29T12:56:26Z</time></trkpt><trkpt lat="38.88092143731964" lon="-9.37510861665623"><ele>165.0</ele><time>2026-03-29T12:56:27Z</time></trkpt><trkpt lat="38.8810600215886" lon="-9.375138547666777"><ele>164.33333333333334</ele><time>2026-03-29T12:56:28Z</time></trkpt><trkpt lat="38.88120685870029" lon="-9.375213068077326"><ele>163.66666666666669</ele><time>2026-03-29T12:56:29Z</time></trkpt><trkpt lat="38.88135407710295" lon="-9.37529553003059"><ele>163.0</ele><time>2026-03-29T12:56:30Z</time></trkpt><trkpt lat="38.881486064366484" lon="-9.375431150973252"><ele>161.33333333333334</ele><time>2026-03-29T12:56:31Z</time></trkpt><trkpt lat="38.88159171850491" lon="-9.37561747441956"><ele>159.66666666666666</ele><time>2026-03-29T12:56:32Z</time></trkpt><trkpt lat="38.88170164763422" lon="-9.375777206594737"><ele>158.0</ele><time>2026-03-29T12:56:33Z</time></trkpt><trkpt lat="38.881815876566385" lon="-9.375904488477184"><ele>156.66666666666666</ele><time>2026-03-29T12:56:34Z</time></trkpt><trkpt lat="38.88193057925056" lon="-9.376000307441883"><ele>155.33333333333334</ele><time>2026-03-29T12:56:35Z</time></trkpt><trkpt lat="38.88208690682502" lon="-9.37606644529141"><ele>154.0</ele><time>2026-03-29T12:56:36Z</time></trkpt><trkpt lat="38.8822524775187" lon="-9.376106526483117"><ele>154.0</ele><time>2026-03-29T12:56:37Z</time></trkpt><trkpt lat="38.88239153957943" lon="-9.37614192734465"><ele>154.0</ele><time>2026-03-29T12:56:38Z</time></trkpt><trkpt lat="38.882518998489815" lon="-9.376176473157182"><ele>154.0</ele><time>2026-03-29T12:56:39Z</time></trkpt><trkpt lat="38.88262130506479" lon="-9.376208971854414"><ele>154.0</ele><time>2026-03-29T12:56:40Z</time></trkpt><trkpt lat="38.88268935983935" lon="-9.376237183362601"><ele>154.0</ele><time>2026-03-29T12:56:41Z</time></trkpt><trkpt lat="38.882788743636304" lon="-9.37635735405179"><ele>153.0</ele><time>2026-03-29T12:56:43Z</time></trkpt><trkpt lat="38.88286256140925" lon="-9.37650989022426"><ele>152.0</ele><time>2026-03-29T12:56:44Z</time></trkpt><trkpt lat="38.8829264379029" lon="-9.376685765154589"><ele>151.0</ele><time>2026-03-29T12:56:45Z</time></trkpt><trkpt lat="38.88299847038336" lon="-9.376862868873934"><ele>150.0</ele><time>2026-03-29T12:56:46Z</time></trkpt><trkpt lat="38.88307593304566" lon="-9.377032247104873"><ele>151.25</ele><time>2026-03-29T12:56:47Z</time></trkpt><trkpt lat="38.883145170433" lon="-9.377204802632187"><ele>152.5</ele><time>2026-03-29T12:56:48Z</time></trkpt><trkpt lat="38.88317294291933" lon="-9.377367485018029"><ele>153.75</ele><time>2026-03-29T12:56:49Z</time></trkpt><trkpt lat="38.88314912998641" lon="-9.377554830693063"><ele>155.0</ele><time>2026-03-29T12:56:50Z</time></trkpt><trkpt lat="38.8831243503712" lon="-9.377756335745573"><ele>155.0</ele><time>2026-03-29T12:56:51Z</time></trkpt><trkpt lat="38.8830915110732" lon="-9.37796332594955"><ele>155.0</ele><time>2026-03-29T12:56:52Z</time></trkpt><trkpt lat="38.883067212319226" lon="-9.378179481389273"><ele>155.0</ele><time>2026-03-29T12:56:53Z</time></trkpt><trkpt lat="38.883038660699725" lon="-9.378400450164659"><ele>156.33333333333331</ele><time>2026-03-29T12:56:54Z</time></trkpt><trkpt lat="38.883015877420995" lon="-9.378625262679273"><ele>157.66666666666666</ele><time>2026-03-29T12:56:55Z</time></trkpt><trkpt lat="38.88299520293163" lon="-9.378850550942898"><ele>159.0</ele><time>2026-03-29T12:56:56Z</time></trkpt><trkpt lat="38.88296815675388" lon="-9.379073954523333"><ele>160.33333333333334</ele><time>2026-03-29T12:56:57Z</time></trkpt><trkpt lat="38.882931156497804" lon="-9.379305279135421"><ele>161.66666666666669</ele><time>2026-03-29T12:56:58Z</time></trkpt><trkpt lat="38.88290672800799" lon="-9.379538051563332"><ele>163.0</ele><time>2026-03-29T12:56:59Z</time></trkpt><trkpt lat="38.88294626895867" lon="-9.379766290490155"><ele>164.0</ele><time>2026-03-29T12:57:00Z</time></trkpt><trkpt lat="38.8829766426636" lon="-9.379997590678759"><ele>165.0</ele><time>2026-03-29T12:57:01Z</time></trkpt><trkpt lat="38.8829733448212" lon="-9.380202254966909"><ele>166.0</ele><time>2026-03-29T12:57:02Z</time></trkpt><trkpt lat="38.882969500262625" lon="-9.38040241176119"><ele>166.66666666666669</ele><time>2026-03-29T12:57:03Z</time></trkpt><trkpt lat="38.88294854244487" lon="-9.380619784084644"><ele>167.33333333333334</ele><time>2026-03-29T12:57:04Z</time></trkpt><trkpt lat="38.88292244944405" lon="-9.380856881240893"><ele>168.0</ele><time>2026-03-29T12:57:05Z</time></trkpt><trkpt lat="38.882894084099675" lon="-9.38109429861079"><ele>168.0</ele><time>2026-03-29T12:57:06Z</time></trkpt><trkpt lat="38.8828705069951" lon="-9.381329306321753"><ele>168.0</ele><time>2026-03-29T12:57:07Z</time></trkpt><trkpt lat="38.88283892643053" lon="-9.381570455203068"><ele>168.0</ele><time>2026-03-29T12:57:08Z</time></trkpt><trkpt lat="38.88278110118597" lon="-9.381827607161263"><ele>168.33333333333334</ele><time>2026-03-29T12:57:09Z</time></trkpt><trkpt lat="38.88272592349662" lon="-9.382077129892307"><ele>168.66666666666669</ele><time>2026-03-29T12:57:10Z</time></trkpt><trkpt lat="38.882670619438684" lon="-9.382331130097636"><ele>169.0</ele><time>2026-03-29T12:57:11Z</time></trkpt><trkpt lat="38.88261311006562" lon="-9.382569520949035"><ele>169.33333333333334</ele><time>2026-03-29T12:57:12Z</time></trkpt><trkpt lat="38.882559130873936" lon="-9.382796299692533"><ele>169.66666666666666</ele><time>2026-03-29T12:57:13Z</time></trkpt><trkpt lat="38.882497636742585" lon="-9.383019588024109"><ele>170.0</ele><time>2026-03-29T12:57:14Z</time></trkpt><trkpt lat="38.88244758581261" lon="-9.383242789146115"><ele>168.66666666666666</ele><time>2026-03-29T12:57:15Z</time></trkpt><trkpt lat="38.88241336251325" lon="-9.383451410900644"><ele>167.33333333333334</ele><time>2026-03-29T12:57:16Z</time></trkpt><trkpt lat="38.88243408002945" lon="-9.383653316172921"><ele>166.0</ele><time>2026-03-29T12:57:17Z</time></trkpt><trkpt lat="38.88245904118343" lon="-9.38388202236125"><ele>164.0</ele><time>2026-03-29T12:57:18Z</time></trkpt><trkpt lat="38.88247409279914" lon="-9.384126306278231"><ele>162.0</ele><time>2026-03-29T12:57:19Z</time></trkpt><trkpt lat="38.8824950623578" lon="-9.384362067365036"><ele>160.0</ele><time>2026-03-29T12:57:20Z</time></trkpt><trkpt lat="38.88249527066509" lon="-9.384571562266613"><ele>158.75</ele><time>2026-03-29T12:57:21Z</time></trkpt><trkpt lat="38.88248987786846" lon="-9.384763381950284"><ele>157.5</ele><time>2026-03-29T12:57:22Z</time></trkpt><trkpt lat="38.88247764498816" lon="-9.384930211116174"><ele>156.25</ele><time>2026-03-29T12:57:23Z</time></trkpt><trkpt lat="38.88246569182524" lon="-9.385073383094957"><ele>155.0</ele><time>2026-03-29T12:57:24Z</time></trkpt><trkpt lat="38.882443720779655" lon="-9.385202475274804"><ele>155.0</ele><time>2026-03-29T12:57:25Z</time></trkpt><trkpt lat="38.88246700608579" lon="-9.385358528816342"><ele>155.0</ele><time>2026-03-29T12:57:26Z</time></trkpt><trkpt lat="38.88244216322461" lon="-9.385503637573002"><ele>155.0</ele><time>2026-03-29T12:57:27Z</time></trkpt><trkpt lat="38.88265417835934" lon="-9.385581784424456"><ele>154.6</ele><time>2026-03-29T12:57:28Z</time></trkpt><trkpt lat="38.88274026700753" lon="-9.385655900805894"><ele>154.2</ele><time>2026-03-29T12:57:29Z</time></trkpt><trkpt lat="38.88282176104492" lon="-9.385709448608958"><ele>153.8</ele><time>2026-03-29T12:57:30Z</time></trkpt><trkpt lat="38.882906059974424" lon="-9.385770727147037"><ele>153.4</ele><time>2026-03-29T12:57:31Z</time></trkpt><trkpt lat="38.88304292487605" lon="-9.38581247285428"><ele>153.0</ele><time>2026-03-29T12:57:32Z</time></trkpt><trkpt lat="38.8831847141946" lon="-9.3858553747648"><ele>153.0</ele><time>2026-03-29T12:57:33Z</time></trkpt><trkpt lat="38.88333013158106" lon="-9.38594644468505"><ele>153.0</ele><time>2026-03-29T12:57:34Z</time></trkpt><trkpt lat="38.88347609689442" lon="-9.386053028243989"><ele>153.0</ele><time>2026-03-29T12:57:35Z</time></trkpt><trkpt lat="38.883644183885266" lon="-9.386087928107013"><ele>154.33333333333334</ele><time>2026-03-29T12:57:36Z</time></trkpt><trkpt lat="38.88382102051477" lon="-9.386123738370621"><ele>155.66666666666669</ele><time>2026-03-29T12:57:37Z</time></trkpt><trkpt lat="38.88399353016971" lon="-9.386174552860767"><ele>157.0</ele><time>2026-03-29T12:57:38Z</time></trkpt><trkpt lat="38.88416471126735" lon="-9.386221663514219"><ele>157.0</ele><time>2026-03-29T12:57:39Z</time></trkpt><trkpt lat="38.884342528413235" lon="-9.386272281671008"><ele>157.0</ele><time>2026-03-29T12:57:40Z</time></trkpt><trkpt lat="38.88452763224353" lon="-9.386321061116558"><ele>157.0</ele><time>2026-03-29T12:57:41Z</time></trkpt><trkpt lat="38.88470941177332" lon="-9.386371529487196"><ele>156.33333333333334</ele><time>2026-03-29T12:57:42Z</time></trkpt><trkpt lat="38.88488897158696" lon="-9.386449084572293"><ele>155.66666666666666</ele><time>2026-03-29T12:57:43Z</time></trkpt><trkpt lat="38.88506238787682" lon="-9.386550247708099"><ele>155.0</ele><time>2026-03-29T12:57:44Z</time></trkpt><trkpt lat="38.88524287225711" lon="-9.38666228192759"><ele>155.0</ele><time>2026-03-29T12:57:45Z</time></trkpt><trkpt lat="38.88542648929521" lon="-9.386764444306548"><ele>155.0</ele><time>2026-03-29T12:57:46Z</time></trkpt><trkpt lat="38.885607528681604" lon="-9.386867419889919"><ele>155.0</ele><time>2026-03-29T12:57:47Z</time></trkpt><trkpt lat="38.88579940143851" lon="-9.386968970252225"><ele>154.66666666666666</ele><time>2026-03-29T12:57:48Z</time></trkpt><trkpt lat="38.88598473734066" lon="-9.387081037398003"><ele>154.33333333333334</ele><time>2026-03-29T12:57:49Z</time></trkpt><trkpt lat="38.8861615841915" lon="-9.387196285774165"><ele>154.0</ele><time>2026-03-29T12:57:50Z</time></trkpt><trkpt lat="38.88633615846315" lon="-9.387307657247291"><ele>154.0</ele><time>2026-03-29T12:57:51Z</time></trkpt><trkpt lat="38.886514030428046" lon="-9.387416484590952"><ele>154.0</ele><time>2026-03-29T12:57:52Z</time></trkpt><trkpt lat="38.886689307830565" lon="-9.387538145053792"><ele>154.0</ele><time>2026-03-29T12:57:53Z</time></trkpt><trkpt lat="38.886856542161276" lon="-9.387677613553674"><ele>153.66666666666669</ele><time>2026-03-29T12:57:54Z</time></trkpt><trkpt lat="38.88702216845455" lon="-9.387835730942218"><ele>153.33333333333334</ele><time>2026-03-29T12:57:55Z</time></trkpt><trkpt lat="38.88718019340763" lon="-9.388002786687835"><ele>153.0</ele><time>2026-03-29T12:57:56Z</time></trkpt><trkpt lat="38.88733567441976" lon="-9.38817122506238"><ele>153.0</ele><time>2026-03-29T12:57:57Z</time></trkpt><trkpt lat="38.88749085427036" lon="-9.388339243376405"><ele>153.0</ele><time>2026-03-29T12:57:58Z</time></trkpt><trkpt lat="38.88765180360656" lon="-9.388506525866948"><ele>153.0</ele><time>2026-03-29T12:57:59Z</time></trkpt><trkpt lat="38.8878132649126" lon="-9.388670688194225"><ele>153.0</ele><time>2026-03-29T12:58:00Z</time></trkpt><trkpt lat="38.88797483956937" lon="-9.388830460934113"><ele>153.0</ele><time>2026-03-29T12:58:01Z</time></trkpt><trkpt lat="38.88813756463642" lon="-9.388998772416967"><ele>153.0</ele><time>2026-03-29T12:58:02Z</time></trkpt><trkpt lat="38.88829669482467" lon="-9.389172071929307"><ele>153.33333333333334</ele><time>2026-03-29T12:58:03Z</time></trkpt><trkpt lat="38.88846577926127" lon="-9.389335099831987"><ele>153.66666666666669</ele><time>2026-03-29T12:58:04Z</time></trkpt><trkpt lat="38.88861484443792" lon="-9.389525536933782"><ele>154.0</ele><time>2026-03-29T12:58:05Z</time></trkpt><trkpt lat="38.888773071433" lon="-9.389700164803163"><ele>154.0</ele><time>2026-03-29T12:58:06Z</time></trkpt><trkpt lat="38.88893849115912" lon="-9.389866878457404"><ele>154.0</ele><time>2026-03-29T12:58:07Z</time></trkpt><trkpt lat="38.889079788063405" lon="-9.390061491457907"><ele>154.0</ele><time>2026-03-29T12:58:08Z</time></trkpt><trkpt lat="38.889208898090544" lon="-9.390209450024983"><ele>154.0</ele><time>2026-03-29T12:58:09Z</time></trkpt><trkpt lat="38.88933169599796" lon="-9.390328769189072"><ele>154.0</ele><time>2026-03-29T12:58:10Z</time></trkpt><trkpt lat="38.88944235762015" lon="-9.39044921063234"><ele>154.0</ele><time>2026-03-29T12:58:11Z</time></trkpt><trkpt lat="38.88953908741887" lon="-9.390570707787395"><ele>154.0</ele><time>2026-03-29T12:58:12Z</time></trkpt><trkpt lat="38.889646654942304" lon="-9.39068200307143"><ele>154.0</ele><time>2026-03-29T12:58:13Z</time></trkpt><trkpt lat="38.88974784923742" lon="-9.390783382831582"><ele>154.0</ele><time>2026-03-29T12:58:14Z</time></trkpt><trkpt lat="38.88983412086898" lon="-9.390869291702055"><ele>154.0</ele><time>2026-03-29T12:58:15Z</time></trkpt><trkpt lat="38.88989608990636" lon="-9.390932238940426"><ele>154.0</ele><time>2026-03-29T12:58:16Z</time></trkpt><trkpt lat="38.889963370441315" lon="-9.390984051452412"><ele>154.0</ele><time>2026-03-29T12:58:18Z</time></trkpt><trkpt lat="38.89002871748856" lon="-9.391060340921955"><ele>153.6</ele><time>2026-03-29T12:58:20Z</time></trkpt><trkpt lat="38.89009402754166" lon="-9.391134264005695"><ele>153.2</ele><time>2026-03-29T12:58:21Z</time></trkpt><trkpt lat="38.89015752550115" lon="-9.391203960798627"><ele>152.79999999999998</ele><time>2026-03-29T12:58:22Z</time></trkpt><trkpt lat="38.89024554853841" lon="-9.39129961970218"><ele>152.4</ele><time>2026-03-29T12:58:23Z</time></trkpt><trkpt lat="38.89035140222035" lon="-9.391412507242471"><ele>152.0</ele><time>2026-03-29T12:58:24Z</time></trkpt><trkpt lat="38.89045860985475" lon="-9.391523565428926"><ele>151.5</ele><time>2026-03-29T12:58:25Z</time></trkpt><trkpt lat="38.890574323408146" lon="-9.391641400580951"><ele>151.0</ele><time>2026-03-29T12:58:26Z</time></trkpt><trkpt lat="38.890687745803824" lon="-9.39175322910598"><ele>150.5</ele><time>2026-03-29T12:58:27Z</time></trkpt><trkpt lat="38.89080140866623" lon="-9.39185850553347"><ele>150.0</ele><time>2026-03-29T12:58:28Z</time></trkpt><trkpt lat="38.890914620464535" lon="-9.391964259747963"><ele>150.0</ele><time>2026-03-29T12:58:29Z</time></trkpt><trkpt lat="38.89103034476536" lon="-9.392073306432316"><ele>150.0</ele><time>2026-03-29T12:58:30Z</time></trkpt><trkpt lat="38.89113679593835" lon="-9.392193663828085"><ele>150.0</ele><time>2026-03-29T12:58:31Z</time></trkpt><trkpt lat="38.89125897384913" lon="-9.39231110537902"><ele>150.0</ele><time>2026-03-29T12:58:32Z</time></trkpt><trkpt lat="38.89138689206329" lon="-9.392435136043407"><ele>150.0</ele><time>2026-03-29T12:58:33Z</time></trkpt><trkpt lat="38.89150978029573" lon="-9.392549813347026"><ele>150.0</ele><time>2026-03-29T12:58:34Z</time></trkpt><trkpt lat="38.891638013808404" lon="-9.392637408663818"><ele>150.0</ele><time>2026-03-29T12:58:35Z</time></trkpt><trkpt lat="38.89175733195998" lon="-9.39273780046567"><ele>150.0</ele><time>2026-03-29T12:58:36Z</time></trkpt><trkpt lat="38.89187892479536" lon="-9.392838487804044"><ele>150.0</ele><time>2026-03-29T12:58:37Z</time></trkpt><trkpt lat="38.89199334034637" lon="-9.392953259894167"><ele>150.0</ele><time>2026-03-29T12:58:38Z</time></trkpt><trkpt lat="38.892098298433915" lon="-9.39304551542575"><ele>150.0</ele><time>2026-03-29T12:58:39Z</time></trkpt><trkpt lat="38.892201528918996" lon="-9.393106177539527"><ele>150.0</ele><time>2026-03-29T12:58:40Z</time></trkpt><trkpt lat="38.892295184838865" lon="-9.393179962556008"><ele>149.5</ele><time>2026-03-29T12:58:41Z</time></trkpt><trkpt lat="38.8923848790755" lon="-9.393311535166449"><ele>149.0</ele><time>2026-03-29T12:58:42Z</time></trkpt><trkpt lat="38.89247960710204" lon="-9.393409617926277"><ele>148.5</ele><time>2026-03-29T12:58:43Z</time></trkpt><trkpt lat="38.892587034178725" lon="-9.393495513462241"><ele>148.0</ele><time>2026-03-29T12:58:44Z</time></trkpt><trkpt lat="38.8926961308047" lon="-9.393555242102556"><ele>147.5</ele><time>2026-03-29T12:58:45Z</time></trkpt><trkpt lat="38.892807621016054" lon="-9.393632340378792"><ele>147.0</ele><time>2026-03-29T12:58:46Z</time></trkpt><trkpt lat="38.89291365334074" lon="-9.39371400149726"><ele>146.5</ele><time>2026-03-29T12:58:47Z</time></trkpt><trkpt lat="38.89301725951409" lon="-9.393815018301956"><ele>146.0</ele><time>2026-03-29T12:58:48Z</time></trkpt><trkpt lat="38.8931294995194" lon="-9.393888904564635"><ele>146.0</ele><time>2026-03-29T12:58:49Z</time></trkpt><trkpt lat="38.89323789561287" lon="-9.39396418519924"><ele>146.0</ele><time>2026-03-29T12:58:50Z</time></trkpt><trkpt lat="38.893349139159575" lon="-9.394035731720495"><ele>146.0</ele><time>2026-03-29T12:58:51Z</time></trkpt><trkpt lat="38.89346573968916" lon="-9.39410238302019"><ele>146.0</ele><time>2026-03-29T12:58:52Z</time></trkpt><trkpt lat="38.89358374205969" lon="-9.394167862349786"><ele>146.0</ele><time>2026-03-29T12:58:53Z</time></trkpt><trkpt lat="38.89370378241298" lon="-9.394231226120583"><ele>146.0</ele><time>2026-03-29T12:58:54Z</time></trkpt><trkpt lat="38.89384200782701" lon="-9.394305115222544"><ele>146.0</ele><time>2026-03-29T12:58:55Z</time></trkpt><trkpt lat="38.89397209588042" lon="-9.394396574254431"><ele>146.0</ele><time>2026-03-29T12:58:56Z</time></trkpt><trkpt lat="38.89411043465424" lon="-9.394472517644454"><ele>146.0</ele><time>2026-03-29T12:58:57Z</time></trkpt><trkpt lat="38.894245629549204" lon="-9.394549241532708"><ele>146.0</ele><time>2026-03-29T12:58:58Z</time></trkpt><trkpt lat="38.89436934942434" lon="-9.394637987251203"><ele>146.0</ele><time>2026-03-29T12:58:59Z</time></trkpt><trkpt lat="38.894481026408464" lon="-9.394733985363885"><ele>146.0</ele><time>2026-03-29T12:59:00Z</time></trkpt><trkpt lat="38.894579538514954" lon="-9.394813800328544"><ele>145.8</ele><time>2026-03-29T12:59:01Z</time></trkpt><trkpt lat="38.894673588212555" lon="-9.394895692723987"><ele>145.6</ele><time>2026-03-29T12:59:02Z</time></trkpt><trkpt lat="38.89475794604828" lon="-9.394990283947037"><ele>145.4</ele><time>2026-03-29T12:59:03Z</time></trkpt><trkpt lat="38.89480309711845" lon="-9.395108526675857"><ele>145.2</ele><time>2026-03-29T12:59:04Z</time></trkpt><trkpt lat="38.894845797054906" lon="-9.395237079812455"><ele>145.0</ele><time>2026-03-29T12:59:05Z</time></trkpt><trkpt lat="38.89484034155053" lon="-9.395397944608417"><ele>144.25</ele><time>2026-03-29T12:59:06Z</time></trkpt><trkpt lat="38.89484138418941" lon="-9.395565081057837"><ele>143.5</ele><time>2026-03-29T12:59:07Z</time></trkpt><trkpt lat="38.89482838775019" lon="-9.395754225668405"><ele>142.75</ele><time>2026-03-29T12:59:08Z</time></trkpt><trkpt lat="38.8948217342717" lon="-9.395909330880231"><ele>142.0</ele><time>2026-03-29T12:59:09Z</time></trkpt><trkpt lat="38.89481487075698" lon="-9.396052266416566"><ele>142.0</ele><time>2026-03-29T12:59:10Z</time></trkpt><trkpt lat="38.89483980425985" lon="-9.396188191139707"><ele>142.0</ele><time>2026-03-29T12:59:11Z</time></trkpt><trkpt lat="38.89485217028156" lon="-9.396294046694122"><ele>142.0</ele><time>2026-03-29T12:59:12Z</time></trkpt><trkpt lat="38.89487200051474" lon="-9.396430201397807"><ele>142.0</ele><time>2026-03-29T12:59:14Z</time></trkpt><trkpt lat="38.89503013138875" lon="-9.396369962799474"><ele>141.5</ele><time>2026-03-29T12:59:15Z</time></trkpt><trkpt lat="38.89516203390211" lon="-9.396405577170869"><ele>141.0</ele><time>2026-03-29T12:59:16Z</time></trkpt><trkpt lat="38.89530737047192" lon="-9.396444818696859"><ele>140.5</ele><time>2026-03-29T12:59:17Z</time></trkpt><trkpt lat="38.8954636753757" lon="-9.396487172106555"><ele>140.0</ele><time>2026-03-29T12:59:18Z</time></trkpt><trkpt lat="38.89561907031222" lon="-9.396530373181955"><ele>140.0</ele><time>2026-03-29T12:59:19Z</time></trkpt><trkpt lat="38.895785159717136" lon="-9.39657633458667"><ele>140.0</ele><time>2026-03-29T12:59:20Z</time></trkpt><trkpt lat="38.895985569376" lon="-9.396631482552893"><ele>140.0</ele><time>2026-03-29T12:59:21Z</time></trkpt><trkpt lat="38.896181326993286" lon="-9.396677682975485"><ele>140.0</ele><time>2026-03-29T12:59:22Z</time></trkpt><trkpt lat="38.896370832106776" lon="-9.396708768255493"><ele>140.0</ele><time>2026-03-29T12:59:23Z</time></trkpt><trkpt lat="38.89657017067084" lon="-9.396740969800437"><ele>140.0</ele><time>2026-03-29T12:59:24Z</time></trkpt><trkpt lat="38.8967713178362" lon="-9.396791129362182"><ele>139.66666666666666</ele><time>2026-03-29T12:59:25Z</time></trkpt><trkpt lat="38.896965026306084" lon="-9.396815559923363"><ele>139.33333333333334</ele><time>2026-03-29T12:59:26Z</time></trkpt><trkpt lat="38.89715853622114" lon="-9.396844189521117"><ele>139.0</ele><time>2026-03-29T12:59:27Z</time></trkpt><trkpt lat="38.897350543854955" lon="-9.396878561355246"><ele>139.0</ele><time>2026-03-29T12:59:28Z</time></trkpt><trkpt lat="38.89754590348241" lon="-9.396902155839745"><ele>139.0</ele><time>2026-03-29T12:59:29Z</time></trkpt><trkpt lat="38.89773907055272" lon="-9.396925850488335"><ele>139.0</ele><time>2026-03-29T12:59:30Z</time></trkpt><trkpt lat="38.89792201068329" lon="-9.396951364157133"><ele>139.0</ele><time>2026-03-29T12:59:31Z</time></trkpt><trkpt lat="38.89810016616381" lon="-9.396976813437648"><ele>139.0</ele><time>2026-03-29T12:59:32Z</time></trkpt><trkpt lat="38.8982718733817" lon="-9.397010446390405"><ele>139.0</ele><time>2026-03-29T12:59:33Z</time></trkpt><trkpt lat="38.89844877934997" lon="-9.397068779695323"><ele>139.0</ele><time>2026-03-29T12:59:34Z</time></trkpt><trkpt lat="38.898617950828545" lon="-9.397148806493844"><ele>139.0</ele><time>2026-03-29T12:59:35Z</time></trkpt><trkpt lat="38.89877444523573" lon="-9.397257573232931"><ele>139.0</ele><time>2026-03-29T12:59:36Z</time></trkpt><trkpt lat="38.898922026669155" lon="-9.39740158063457"><ele>139.0</ele><time>2026-03-29T12:59:37Z</time></trkpt><trkpt lat="38.89904599926833" lon="-9.397586027491776"><ele>139.0</ele><time>2026-03-29T12:59:38Z</time></trkpt><trkpt lat="38.89915829756032" lon="-9.397797548277218"><ele>139.0</ele><time>2026-03-29T12:59:39Z</time></trkpt><trkpt lat="38.89927581126592" lon="-9.398010642606868"><ele>138.33333333333334</ele><time>2026-03-29T12:59:40Z</time></trkpt><trkpt lat="38.89939731382667" lon="-9.398222520004714"><ele>137.66666666666666</ele><time>2026-03-29T12:59:41Z</time></trkpt><trkpt lat="38.89952166088467" lon="-9.39843592313049"><ele>137.0</ele><time>2026-03-29T12:59:42Z</time></trkpt><trkpt lat="38.89965040661463" lon="-9.398646811577757"><ele>136.66666666666666</ele><time>2026-03-29T12:59:43Z</time></trkpt><trkpt lat="38.89977064972903" lon="-9.39886300564254"><ele>136.33333333333334</ele><time>2026-03-29T12:59:44Z</time></trkpt><trkpt lat="38.89989778828024" lon="-9.399084182185351"><ele>136.0</ele><time>2026-03-29T12:59:45Z</time></trkpt><trkpt lat="38.90002536088775" lon="-9.399306104906694"><ele>135.66666666666669</ele><time>2026-03-29T12:59:46Z</time></trkpt><trkpt lat="38.900157945345036" lon="-9.399525374445892"><ele>135.33333333333334</ele><time>2026-03-29T12:59:47Z</time></trkpt><trkpt lat="38.90028887784661" lon="-9.399744171260679"><ele>135.0</ele><time>2026-03-29T12:59:48Z</time></trkpt><trkpt lat="38.90042148550815" lon="-9.399971393236589"><ele>134.33333333333334</ele><time>2026-03-29T12:59:49Z</time></trkpt><trkpt lat="38.90054980838876" lon="-9.400209880593813"><ele>133.66666666666669</ele><time>2026-03-29T12:59:50Z</time></trkpt><trkpt lat="38.90067341579415" lon="-9.40044766389521"><ele>133.0</ele><time>2026-03-29T12:59:51Z</time></trkpt><trkpt lat="38.900791616553704" lon="-9.400690683208664"><ele>133.0</ele><time>2026-03-29T12:59:52Z</time></trkpt><trkpt lat="38.90089399585669" lon="-9.400948978556668"><ele>133.0</ele><time>2026-03-29T12:59:53Z</time></trkpt><trkpt lat="38.900998747444575" lon="-9.401208957108556"><ele>132.5</ele><time>2026-03-29T12:59:54Z</time></trkpt><trkpt lat="38.90109406371277" lon="-9.401469999275793"><ele>132.0</ele><time>2026-03-29T12:59:55Z</time></trkpt><trkpt lat="38.901186930022334" lon="-9.40173639145702"><ele>132.0</ele><time>2026-03-29T12:59:56Z</time></trkpt><trkpt lat="38.901276836767614" lon="-9.402004146919827"><ele>132.0</ele><time>2026-03-29T12:59:57Z</time></trkpt><trkpt lat="38.901367563134315" lon="-9.402273208671067"><ele>131.5</ele><time>2026-03-29T12:59:58Z</time></trkpt><trkpt lat="38.90146182492939" lon="-9.402533984156959"><ele>131.0</ele><time>2026-03-29T12:59:59Z</time></trkpt><trkpt lat="38.901553536633436" lon="-9.402802097790168"><ele>130.66666666666666</ele><time>2026-03-29T13:00:00Z</time></trkpt><trkpt lat="38.9016441259104" lon="-9.403067506834459"><ele>130.33333333333334</ele><time>2026-03-29T13:00:01Z</time></trkpt><trkpt lat="38.90173047926708" lon="-9.403326536576959"><ele>130.0</ele><time>2026-03-29T13:00:02Z</time></trkpt><trkpt lat="38.90180353321151" lon="-9.403556795451324"><ele>130.0</ele><time>2026-03-29T13:00:03Z</time></trkpt><trkpt lat="38.901872173724" lon="-9.40376544238913"><ele>130.0</ele><time>2026-03-29T13:00:04Z</time></trkpt><trkpt lat="38.901956590515724" lon="-9.403967806309891"><ele>130.0</ele><time>2026-03-29T13:00:05Z</time></trkpt><trkpt lat="38.90202302164432" lon="-9.404160206641718"><ele>130.0</ele><time>2026-03-29T13:00:06Z</time></trkpt><trkpt lat="38.902085429953814" lon="-9.404340663250656"><ele>130.0</ele><time>2026-03-29T13:00:07Z</time></trkpt><trkpt lat="38.90214081473812" lon="-9.404501062374672"><ele>130.0</ele><time>2026-03-29T13:00:08Z</time></trkpt><trkpt lat="38.90220331921348" lon="-9.404643726981316"><ele>130.0</ele><time>2026-03-29T13:00:09Z</time></trkpt><trkpt lat="38.90227603647249" lon="-9.404768246349406"><ele>130.0</ele><time>2026-03-29T13:00:10Z</time></trkpt><trkpt lat="38.90234531207216" lon="-9.404878848239758"><ele>130.0</ele><time>2026-03-29T13:00:11Z</time></trkpt><trkpt lat="38.902410405762026" lon="-9.4049789387019"><ele>130.0</ele><time>2026-03-29T13:00:12Z</time></trkpt><trkpt lat="38.90248255886339" lon="-9.405077302348975"><ele>130.0</ele><time>2026-03-29T13:00:13Z</time></trkpt><trkpt lat="38.90254906605548" lon="-9.405175285200384"><ele>130.0</ele><time>2026-03-29T13:00:14Z</time></trkpt><trkpt lat="38.90262843671682" lon="-9.40525136742129"><ele>129.75</ele><time>2026-03-29T13:00:15Z</time></trkpt><trkpt lat="38.902721176970175" lon="-9.405363435108715"><ele>129.5</ele><time>2026-03-29T13:00:16Z</time></trkpt><trkpt lat="38.90278008908735" lon="-9.405532060877839"><ele>129.25</ele><time>2026-03-29T13:00:17Z</time></trkpt><trkpt lat="38.90280144142516" lon="-9.405697351206616"><ele>129.0</ele><time>2026-03-29T13:00:18Z</time></trkpt><trkpt lat="38.90285745171264" lon="-9.405813255377405"><ele>128.83333333333334</ele><time>2026-03-29T13:00:19Z</time></trkpt><trkpt lat="38.90289190072206" lon="-9.40592004993128"><ele>128.66666666666666</ele><time>2026-03-29T13:00:20Z</time></trkpt><trkpt lat="38.90291774225853" lon="-9.406000133302692"><ele>128.5</ele><time>2026-03-29T13:00:21Z</time></trkpt><trkpt lat="38.902943091929416" lon="-9.406125377646516"><ele>128.33333333333331</ele><time>2026-03-29T13:00:23Z</time></trkpt><trkpt lat="38.90302102546005" lon="-9.40611692685108"><ele>128.16666666666666</ele><time>2026-03-29T13:00:25Z</time></trkpt><trkpt lat="38.90298604074062" lon="-9.406212155142851"><ele>128.0</ele><time>2026-03-29T13:00:27Z</time></trkpt><trkpt lat="38.90294906459796" lon="-9.40611943630311"><ele>127.99999999999999</ele><time>2026-03-29T13:00:37Z</time></trkpt><trkpt lat="38.902923484346864" lon="-9.406019337457781"><ele>128.0</ele><time>2026-03-29T13:00:39Z</time></trkpt><trkpt lat="38.90289083027045" lon="-9.405922487192816"><ele>128.0</ele><time>2026-03-29T13:00:41Z</time></trkpt><trkpt lat="38.902929133085834" lon="-9.40599926844949"><ele>128.0</ele><time>2026-03-29T13:01:08Z</time></trkpt><trkpt lat="38.90296688705395" lon="-9.406091975981349"><ele>127.99999999999999</ele><time>2026-03-29T13:01:13Z</time></trkpt><trkpt lat="38.90297865903712" lon="-9.4061847902507"><ele>128.0</ele><time>2026-03-29T13:01:17Z</time></trkpt><trkpt lat="38.90294037683373" lon="-9.406119110473346"><ele>127.99999999999999</ele><time>2026-03-29T13:01:20Z</time></trkpt><trkpt lat="38.902910682276655" lon="-9.40603611555821"><ele>128.0</ele><time>2026-03-29T13:01:25Z</time></trkpt><trkpt lat="38.902887090889294" lon="-9.405954402653405"><ele>128.0</ele><time>2026-03-29T13:01:31Z</time></trkpt><trkpt lat="38.9028479628932" lon="-9.405886384235858"><ele>128.0</ele><time>2026-03-29T13:01:55Z</time></trkpt><trkpt lat="38.90288406415558" lon="-9.405961092981276"><ele>127.99999999999999</ele><time>2026-03-29T13:02:09Z</time></trkpt><trkpt lat="38.902835256491535" lon="-9.405903834088594"><ele>128.0</ele><time>2026-03-29T13:02:40Z</time></trkpt><trkpt lat="38.90324562743278" lon="-9.40577535234135"><ele>128.0</ele><time>2026-03-29T13:03:44.012Z</time></trkpt><trkpt lat="38.90318781811226" lon="-9.40581349383303"><ele>128.0</ele><time>2026-03-29T13:03:47.012Z</time></trkpt><trkpt lat="38.90310049485115" lon="-9.405770861309941"><ele>128.0</ele><time>2026-03-29T13:03:50.013Z</time></trkpt><trkpt lat="38.903022683266336" lon="-9.405811552297875"><ele>128.0</ele><time>2026-03-29T13:03:52.012Z</time></trkpt><trkpt lat="38.90297207038381" lon="-9.4058875896979"><ele>128.0</ele><time>2026-03-29T13:03:54.012Z</time></trkpt></trkseg></trk></gpx>